<gpx xmlns="http://www.topografix.com/GPX/1/1" xmlns:xsi="http://www.w3.org/2001/XMLSchema-instance" version="1.1" xsi:schemaLocation="http://www.topografix.com/GPX/1/1 http://www.topografix.com/GPX/1/1/gpx.xsd" creator="MotionXGPSFull 24.2 Build 5063R64">
<trk>
<name>1-4 Dams Ride</name>
<desc>17 Sep 2017  7:08 am</desc>
<trkseg>
<trkpt lat="-27.3580923" lon="152.9694494">
<ele>12.889</ele>
<time>2017-09-16T21:08:21.207Z</time>
</trkpt>
<trkpt lat="-27.3580923" lon="152.9694494">
<ele>12.606</ele>
<time>2017-09-16T21:11:10.743Z</time>
</trkpt>
<trkpt lat="-27.3582523" lon="152.9693643">
<ele>12.439</ele>
<time>2017-09-16T21:11:22.068Z</time>
</trkpt>
<trkpt lat="-27.3582725" lon="152.9693560">
<ele>12.509</ele>
<time>2017-09-16T21:11:23.046Z</time>
</trkpt>
<trkpt lat="-27.3582816" lon="152.9692309">
<ele>12.674</ele>
<time>2017-09-16T21:11:26.708Z</time>
</trkpt>
<trkpt lat="-27.3581472" lon="152.9691275">
<ele>12.808</ele>
<time>2017-09-16T21:11:29.697Z</time>
</trkpt>
<trkpt lat="-27.3579969" lon="152.9690308">
<ele>12.960</ele>
<time>2017-09-16T21:11:32.355Z</time>
</trkpt>
<trkpt lat="-27.3579053" lon="152.9689814">
<ele>13.150</ele>
<time>2017-09-16T21:11:34.181Z</time>
</trkpt>
<trkpt lat="-27.3578241" lon="152.9689329">
<ele>13.288</ele>
<time>2017-09-16T21:11:36.000Z</time>
</trkpt>
<trkpt lat="-27.3578241" lon="152.9689329">
<ele>13.326</ele>
<time>2017-09-16T21:11:39.000Z</time>
</trkpt>
<trkpt lat="-27.3578241" lon="152.9689329">
<ele>13.309</ele>
<time>2017-09-16T21:11:41.126Z</time>
</trkpt>
<trkpt lat="-27.3576903" lon="152.9691052">
<ele>13.289</ele>
<time>2017-09-16T21:11:46.259Z</time>
</trkpt>
<trkpt lat="-27.3576095" lon="152.9692465">
<ele>13.286</ele>
<time>2017-09-16T21:11:48.948Z</time>
</trkpt>
<trkpt lat="-27.3575417" lon="152.9693172">
<ele>13.258</ele>
<time>2017-09-16T21:11:51.000Z</time>
</trkpt>
<trkpt lat="-27.3575417" lon="152.9693172">
<ele>13.171</ele>
<time>2017-09-16T21:11:54.000Z</time>
</trkpt>
<trkpt lat="-27.3575417" lon="152.9693172">
<ele>13.095</ele>
<time>2017-09-16T21:12:26.388Z</time>
</trkpt>
<trkpt lat="-27.3575099" lon="152.9694740">
<ele>13.090</ele>
<time>2017-09-16T21:12:32.426Z</time>
</trkpt>
<trkpt lat="-27.3575824" lon="152.9696545">
<ele>13.107</ele>
<time>2017-09-16T21:12:34.581Z</time>
</trkpt>
<trkpt lat="-27.3579029" lon="152.9698205">
<ele>13.088</ele>
<time>2017-09-16T21:12:37.609Z</time>
</trkpt>
<trkpt lat="-27.3581645" lon="152.9700367">
<ele>13.220</ele>
<time>2017-09-16T21:12:39.616Z</time>
</trkpt>
<trkpt lat="-27.3584905" lon="152.9702405">
<ele>13.845</ele>
<time>2017-09-16T21:12:41.660Z</time>
</trkpt>
<trkpt lat="-27.3589961" lon="152.9705488">
<ele>15.103</ele>
<time>2017-09-16T21:12:44.779Z</time>
</trkpt>
<trkpt lat="-27.3594253" lon="152.9708621">
<ele>16.794</ele>
<time>2017-09-16T21:12:47.599Z</time>
</trkpt>
<trkpt lat="-27.3599392" lon="152.9711898">
<ele>18.629</ele>
<time>2017-09-16T21:12:50.883Z</time>
</trkpt>
<trkpt lat="-27.3602520" lon="152.9713957">
<ele>20.573</ele>
<time>2017-09-16T21:12:52.886Z</time>
</trkpt>
<trkpt lat="-27.3605655" lon="152.9715514">
<ele>22.677</ele>
<time>2017-09-16T21:12:54.753Z</time>
</trkpt>
<trkpt lat="-27.3610175" lon="152.9718912">
<ele>24.787</ele>
<time>2017-09-16T21:12:57.690Z</time>
</trkpt>
<trkpt lat="-27.3613438" lon="152.9720594">
<ele>26.947</ele>
<time>2017-09-16T21:12:59.622Z</time>
</trkpt>
<trkpt lat="-27.3616445" lon="152.9722758">
<ele>29.328</ele>
<time>2017-09-16T21:13:01.547Z</time>
</trkpt>
<trkpt lat="-27.3619488" lon="152.9724744">
<ele>31.743</ele>
<time>2017-09-16T21:13:03.425Z</time>
</trkpt>
<trkpt lat="-27.3624061" lon="152.9728266">
<ele>33.902</ele>
<time>2017-09-16T21:13:06.366Z</time>
</trkpt>
<trkpt lat="-27.3626900" lon="152.9730753">
<ele>35.815</ele>
<time>2017-09-16T21:13:08.272Z</time>
</trkpt>
<trkpt lat="-27.3629530" lon="152.9733563">
<ele>37.519</ele>
<time>2017-09-16T21:13:10.210Z</time>
</trkpt>
<trkpt lat="-27.3632510" lon="152.9735826">
<ele>38.868</ele>
<time>2017-09-16T21:13:12.228Z</time>
</trkpt>
<trkpt lat="-27.3636615" lon="152.9738236">
<ele>39.753</ele>
<time>2017-09-16T21:13:15.098Z</time>
</trkpt>
<trkpt lat="-27.3640072" lon="152.9740170">
<ele>40.232</ele>
<time>2017-09-16T21:13:18.039Z</time>
</trkpt>
<trkpt lat="-27.3641557" lon="152.9740928">
<ele>40.290</ele>
<time>2017-09-16T21:13:19.767Z</time>
</trkpt>
<trkpt lat="-27.3642354" lon="152.9741437">
<ele>39.853</ele>
<time>2017-09-16T21:13:21.000Z</time>
</trkpt>
<trkpt lat="-27.3642354" lon="152.9741437">
<ele>39.131</ele>
<time>2017-09-16T21:13:25.000Z</time>
</trkpt>
<trkpt lat="-27.3642354" lon="152.9741437">
<ele>38.655</ele>
<time>2017-09-16T21:13:28.882Z</time>
</trkpt>
<trkpt lat="-27.3643745" lon="152.9742508">
<ele>38.663</ele>
<time>2017-09-16T21:13:34.148Z</time>
</trkpt>
<trkpt lat="-27.3645746" lon="152.9743973">
<ele>38.555</ele>
<time>2017-09-16T21:13:36.476Z</time>
</trkpt>
<trkpt lat="-27.3648003" lon="152.9746061">
<ele>37.849</ele>
<time>2017-09-16T21:13:38.524Z</time>
</trkpt>
<trkpt lat="-27.3650776" lon="152.9748601">
<ele>37.172</ele>
<time>2017-09-16T21:13:40.617Z</time>
</trkpt>
<trkpt lat="-27.3653220" lon="152.9751730">
<ele>37.300</ele>
<time>2017-09-16T21:13:42.580Z</time>
</trkpt>
<trkpt lat="-27.3655546" lon="152.9755183">
<ele>38.013</ele>
<time>2017-09-16T21:13:44.551Z</time>
</trkpt>
<trkpt lat="-27.3657938" lon="152.9758623">
<ele>38.623</ele>
<time>2017-09-16T21:13:46.561Z</time>
</trkpt>
<trkpt lat="-27.3660928" lon="152.9763772">
<ele>38.603</ele>
<time>2017-09-16T21:13:49.459Z</time>
</trkpt>
<trkpt lat="-27.3664311" lon="152.9768873">
<ele>37.584</ele>
<time>2017-09-16T21:13:52.519Z</time>
</trkpt>
<trkpt lat="-27.3666615" lon="152.9771575">
<ele>35.688</ele>
<time>2017-09-16T21:13:54.280Z</time>
</trkpt>
<trkpt lat="-27.3668939" lon="152.9775139">
<ele>33.818</ele>
<time>2017-09-16T21:13:56.283Z</time>
</trkpt>
<trkpt lat="-27.3671483" lon="152.9779044">
<ele>32.861</ele>
<time>2017-09-16T21:13:58.396Z</time>
</trkpt>
<trkpt lat="-27.3674727" lon="152.9782713">
<ele>32.984</ele>
<time>2017-09-16T21:14:00.617Z</time>
</trkpt>
<trkpt lat="-27.3677798" lon="152.9785798">
<ele>33.828</ele>
<time>2017-09-16T21:14:02.605Z</time>
</trkpt>
<trkpt lat="-27.3681137" lon="152.9788358">
<ele>34.822</ele>
<time>2017-09-16T21:14:04.559Z</time>
</trkpt>
<trkpt lat="-27.3684763" lon="152.9790524">
<ele>35.488</ele>
<time>2017-09-16T21:14:06.558Z</time>
</trkpt>
<trkpt lat="-27.3690442" lon="152.9792940">
<ele>35.582</ele>
<time>2017-09-16T21:14:09.540Z</time>
</trkpt>
<trkpt lat="-27.3694071" lon="152.9794699">
<ele>34.938</ele>
<time>2017-09-16T21:14:11.497Z</time>
</trkpt>
<trkpt lat="-27.3697745" lon="152.9796647">
<ele>33.687</ele>
<time>2017-09-16T21:14:13.500Z</time>
</trkpt>
<trkpt lat="-27.3704354" lon="152.9799780">
<ele>32.465</ele>
<time>2017-09-16T21:14:17.018Z</time>
</trkpt>
<trkpt lat="-27.3707841" lon="152.9801374">
<ele>31.981</ele>
<time>2017-09-16T21:14:18.866Z</time>
</trkpt>
<trkpt lat="-27.3711725" lon="152.9802698">
<ele>32.613</ele>
<time>2017-09-16T21:14:20.859Z</time>
</trkpt>
<trkpt lat="-27.3717606" lon="152.9804126">
<ele>34.307</ele>
<time>2017-09-16T21:14:23.811Z</time>
</trkpt>
<trkpt lat="-27.3721538" lon="152.9804039">
<ele>36.892</ele>
<time>2017-09-16T21:14:25.745Z</time>
</trkpt>
<trkpt lat="-27.3725459" lon="152.9804557">
<ele>40.059</ele>
<time>2017-09-16T21:14:27.680Z</time>
</trkpt>
<trkpt lat="-27.3731473" lon="152.9804106">
<ele>43.122</ele>
<time>2017-09-16T21:14:30.624Z</time>
</trkpt>
<trkpt lat="-27.3737603" lon="152.9804105">
<ele>45.591</ele>
<time>2017-09-16T21:14:33.603Z</time>
</trkpt>
<trkpt lat="-27.3741755" lon="152.9804242">
<ele>47.426</ele>
<time>2017-09-16T21:14:35.611Z</time>
</trkpt>
<trkpt lat="-27.3747894" lon="152.9803971">
<ele>48.551</ele>
<time>2017-09-16T21:14:38.590Z</time>
</trkpt>
<trkpt lat="-27.3751855" lon="152.9804289">
<ele>48.898</ele>
<time>2017-09-16T21:14:40.536Z</time>
</trkpt>
<trkpt lat="-27.3755900" lon="152.9804256">
<ele>48.697</ele>
<time>2017-09-16T21:14:42.534Z</time>
</trkpt>
<trkpt lat="-27.3759884" lon="152.9804627">
<ele>48.452</ele>
<time>2017-09-16T21:14:44.592Z</time>
</trkpt>
<trkpt lat="-27.3765234" lon="152.9805160">
<ele>48.573</ele>
<time>2017-09-16T21:14:47.476Z</time>
</trkpt>
<trkpt lat="-27.3768764" lon="152.9805367">
<ele>49.106</ele>
<time>2017-09-16T21:14:49.443Z</time>
</trkpt>
<trkpt lat="-27.3774029" lon="152.9806064">
<ele>49.849</ele>
<time>2017-09-16T21:14:52.406Z</time>
</trkpt>
<trkpt lat="-27.3777568" lon="152.9806637">
<ele>50.650</ele>
<time>2017-09-16T21:14:54.397Z</time>
</trkpt>
<trkpt lat="-27.3781178" lon="152.9807023">
<ele>51.369</ele>
<time>2017-09-16T21:14:56.399Z</time>
</trkpt>
<trkpt lat="-27.3786543" lon="152.9807762">
<ele>51.791</ele>
<time>2017-09-16T21:14:59.371Z</time>
</trkpt>
<trkpt lat="-27.3790095" lon="152.9808517">
<ele>51.679</ele>
<time>2017-09-16T21:15:01.355Z</time>
</trkpt>
<trkpt lat="-27.3795313" lon="152.9810226">
<ele>50.913</ele>
<time>2017-09-16T21:15:04.339Z</time>
</trkpt>
<trkpt lat="-27.3798897" lon="152.9810930">
<ele>49.359</ele>
<time>2017-09-16T21:15:06.338Z</time>
</trkpt>
<trkpt lat="-27.3802085" lon="152.9812974">
<ele>47.054</ele>
<time>2017-09-16T21:15:08.361Z</time>
</trkpt>
<trkpt lat="-27.3805083" lon="152.9814987">
<ele>44.417</ele>
<time>2017-09-16T21:15:10.295Z</time>
</trkpt>
<trkpt lat="-27.3809297" lon="152.9818731">
<ele>41.881</ele>
<time>2017-09-16T21:15:13.284Z</time>
</trkpt>
<trkpt lat="-27.3811671" lon="152.9821419">
<ele>39.415</ele>
<time>2017-09-16T21:15:15.170Z</time>
</trkpt>
<trkpt lat="-27.3815675" lon="152.9825533">
<ele>37.038</ele>
<time>2017-09-16T21:15:18.203Z</time>
</trkpt>
<trkpt lat="-27.3819981" lon="152.9829332">
<ele>35.113</ele>
<time>2017-09-16T21:15:21.244Z</time>
</trkpt>
<trkpt lat="-27.3825113" lon="152.9831516">
<ele>33.948</ele>
<time>2017-09-16T21:15:24.291Z</time>
</trkpt>
<trkpt lat="-27.3828483" lon="152.9832566">
<ele>33.651</ele>
<time>2017-09-16T21:15:26.262Z</time>
</trkpt>
<trkpt lat="-27.3831717" lon="152.9833495">
<ele>34.218</ele>
<time>2017-09-16T21:15:28.193Z</time>
</trkpt>
<trkpt lat="-27.3836360" lon="152.9835751">
<ele>35.414</ele>
<time>2017-09-16T21:15:31.154Z</time>
</trkpt>
<trkpt lat="-27.3839710" lon="152.9836733">
<ele>37.161</ele>
<time>2017-09-16T21:15:33.146Z</time>
</trkpt>
<trkpt lat="-27.3844859" lon="152.9838165">
<ele>39.517</ele>
<time>2017-09-16T21:15:36.144Z</time>
</trkpt>
<trkpt lat="-27.3848137" lon="152.9839531">
<ele>42.450</ele>
<time>2017-09-16T21:15:38.108Z</time>
</trkpt>
<trkpt lat="-27.3851246" lon="152.9841454">
<ele>45.780</ele>
<time>2017-09-16T21:15:40.106Z</time>
</trkpt>
<trkpt lat="-27.3855362" lon="152.9845311">
<ele>49.002</ele>
<time>2017-09-16T21:15:43.130Z</time>
</trkpt>
<trkpt lat="-27.3858374" lon="152.9847197">
<ele>51.594</ele>
<time>2017-09-16T21:15:45.088Z</time>
</trkpt>
<trkpt lat="-27.3863461" lon="152.9848320">
<ele>53.341</ele>
<time>2017-09-16T21:15:48.032Z</time>
</trkpt>
<trkpt lat="-27.3866949" lon="152.9848876">
<ele>54.077</ele>
<time>2017-09-16T21:15:50.046Z</time>
</trkpt>
<trkpt lat="-27.3870303" lon="152.9848658">
<ele>53.888</ele>
<time>2017-09-16T21:15:52.022Z</time>
</trkpt>
<trkpt lat="-27.3873436" lon="152.9848664">
<ele>53.131</ele>
<time>2017-09-16T21:15:53.948Z</time>
</trkpt>
<trkpt lat="-27.3876497" lon="152.9848704">
<ele>52.038</ele>
<time>2017-09-16T21:15:55.926Z</time>
</trkpt>
<trkpt lat="-27.3880885" lon="152.9849526">
<ele>50.829</ele>
<time>2017-09-16T21:15:58.882Z</time>
</trkpt>
<trkpt lat="-27.3884132" lon="152.9850161">
<ele>49.885</ele>
<time>2017-09-16T21:16:01.058Z</time>
</trkpt>
<trkpt lat="-27.3888645" lon="152.9850833">
<ele>49.544</ele>
<time>2017-09-16T21:16:04.025Z</time>
</trkpt>
<trkpt lat="-27.3893286" lon="152.9851548">
<ele>49.971</ele>
<time>2017-09-16T21:16:07.038Z</time>
</trkpt>
<trkpt lat="-27.3896346" lon="152.9851836">
<ele>51.181</ele>
<time>2017-09-16T21:16:09.042Z</time>
</trkpt>
<trkpt lat="-27.3900676" lon="152.9852316">
<ele>52.873</ele>
<time>2017-09-16T21:16:11.977Z</time>
</trkpt>
<trkpt lat="-27.3903462" lon="152.9852537">
<ele>54.615</ele>
<time>2017-09-16T21:16:13.867Z</time>
</trkpt>
<trkpt lat="-27.3908048" lon="152.9852253">
<ele>56.090</ele>
<time>2017-09-16T21:16:16.863Z</time>
</trkpt>
<trkpt lat="-27.3911111" lon="152.9851434">
<ele>57.194</ele>
<time>2017-09-16T21:16:18.883Z</time>
</trkpt>
<trkpt lat="-27.3915469" lon="152.9851028">
<ele>57.990</ele>
<time>2017-09-16T21:16:21.764Z</time>
</trkpt>
<trkpt lat="-27.3918316" lon="152.9850509">
<ele>58.511</ele>
<time>2017-09-16T21:16:23.676Z</time>
</trkpt>
<trkpt lat="-27.3923207" lon="152.9849772">
<ele>58.693</ele>
<time>2017-09-16T21:16:26.838Z</time>
</trkpt>
<trkpt lat="-27.3927901" lon="152.9851148">
<ele>58.281</ele>
<time>2017-09-16T21:16:29.872Z</time>
</trkpt>
<trkpt lat="-27.3931086" lon="152.9851932">
<ele>56.714</ele>
<time>2017-09-16T21:16:31.969Z</time>
</trkpt>
<trkpt lat="-27.3933751" lon="152.9853122">
<ele>53.949</ele>
<time>2017-09-16T21:16:34.080Z</time>
</trkpt>
<trkpt lat="-27.3936533" lon="152.9855364">
<ele>50.856</ele>
<time>2017-09-16T21:16:37.079Z</time>
</trkpt>
<trkpt lat="-27.3936430" lon="152.9857973">
<ele>48.410</ele>
<time>2017-09-16T21:16:39.138Z</time>
</trkpt>
<trkpt lat="-27.3936654" lon="152.9862532">
<ele>47.048</ele>
<time>2017-09-16T21:16:42.286Z</time>
</trkpt>
<trkpt lat="-27.3937793" lon="152.9865896">
<ele>46.922</ele>
<time>2017-09-16T21:16:44.442Z</time>
</trkpt>
<trkpt lat="-27.3938564" lon="152.9871217">
<ele>47.979</ele>
<time>2017-09-16T21:16:47.575Z</time>
</trkpt>
<trkpt lat="-27.3939193" lon="152.9876072">
<ele>49.728</ele>
<time>2017-09-16T21:16:50.489Z</time>
</trkpt>
<trkpt lat="-27.3939590" lon="152.9879182">
<ele>51.323</ele>
<time>2017-09-16T21:16:52.427Z</time>
</trkpt>
<trkpt lat="-27.3940218" lon="152.9882269">
<ele>52.013</ele>
<time>2017-09-16T21:16:54.320Z</time>
</trkpt>
<trkpt lat="-27.3941020" lon="152.9887323">
<ele>51.468</ele>
<time>2017-09-16T21:16:57.227Z</time>
</trkpt>
<trkpt lat="-27.3941297" lon="152.9893137">
<ele>50.198</ele>
<time>2017-09-16T21:17:00.358Z</time>
</trkpt>
<trkpt lat="-27.3941465" lon="152.9896685">
<ele>49.774</ele>
<time>2017-09-16T21:17:02.335Z</time>
</trkpt>
<trkpt lat="-27.3942606" lon="152.9901657">
<ele>50.984</ele>
<time>2017-09-16T21:17:05.270Z</time>
</trkpt>
<trkpt lat="-27.3942898" lon="152.9906787">
<ele>50.921</ele>
<time>2017-09-16T21:17:08.251Z</time>
</trkpt>
<trkpt lat="-27.3943961" lon="152.9911736">
<ele>47.294</ele>
<time>2017-09-16T21:17:11.207Z</time>
</trkpt>
<trkpt lat="-27.3944501" lon="152.9915095">
<ele>42.676</ele>
<time>2017-09-16T21:17:13.175Z</time>
</trkpt>
<trkpt lat="-27.3945134" lon="152.9920318">
<ele>40.000</ele>
<time>2017-09-16T21:17:16.216Z</time>
</trkpt>
<trkpt lat="-27.3945915" lon="152.9923564">
<ele>39.271</ele>
<time>2017-09-16T21:17:18.173Z</time>
</trkpt>
<trkpt lat="-27.3946226" lon="152.9928710">
<ele>39.650</ele>
<time>2017-09-16T21:17:21.134Z</time>
</trkpt>
<trkpt lat="-27.3947195" lon="152.9932318">
<ele>40.278</ele>
<time>2017-09-16T21:17:23.223Z</time>
</trkpt>
<trkpt lat="-27.3947447" lon="152.9935837">
<ele>40.783</ele>
<time>2017-09-16T21:17:25.197Z</time>
</trkpt>
<trkpt lat="-27.3948420" lon="152.9940833">
<ele>41.434</ele>
<time>2017-09-16T21:17:28.143Z</time>
</trkpt>
<trkpt lat="-27.3948885" lon="152.9944004">
<ele>42.676</ele>
<time>2017-09-16T21:17:30.062Z</time>
</trkpt>
<trkpt lat="-27.3949479" lon="152.9947190">
<ele>44.339</ele>
<time>2017-09-16T21:17:31.993Z</time>
</trkpt>
<trkpt lat="-27.3950161" lon="152.9950586">
<ele>45.685</ele>
<time>2017-09-16T21:17:34.028Z</time>
</trkpt>
<trkpt lat="-27.3951137" lon="152.9955500">
<ele>46.295</ele>
<time>2017-09-16T21:17:37.037Z</time>
</trkpt>
<trkpt lat="-27.3951764" lon="152.9959862">
<ele>46.549</ele>
<time>2017-09-16T21:17:39.882Z</time>
</trkpt>
<trkpt lat="-27.3951894" lon="152.9962668">
<ele>46.894</ele>
<time>2017-09-16T21:17:41.818Z</time>
</trkpt>
<trkpt lat="-27.3952567" lon="152.9966851">
<ele>47.244</ele>
<time>2017-09-16T21:17:44.745Z</time>
</trkpt>
<trkpt lat="-27.3953013" lon="152.9969898">
<ele>47.018</ele>
<time>2017-09-16T21:17:46.752Z</time>
</trkpt>
<trkpt lat="-27.3954252" lon="152.9974701">
<ele>45.727</ele>
<time>2017-09-16T21:17:49.819Z</time>
</trkpt>
<trkpt lat="-27.3954831" lon="152.9979710">
<ele>43.537</ele>
<time>2017-09-16T21:17:52.953Z</time>
</trkpt>
<trkpt lat="-27.3955457" lon="152.9983196">
<ele>41.368</ele>
<time>2017-09-16T21:17:55.629Z</time>
</trkpt>
<trkpt lat="-27.3955275" lon="152.9984746">
<ele>40.195</ele>
<time>2017-09-16T21:17:57.229Z</time>
</trkpt>
<trkpt lat="-27.3955471" lon="152.9986040">
<ele>40.226</ele>
<time>2017-09-16T21:17:58.887Z</time>
</trkpt>
<trkpt lat="-27.3955920" lon="152.9987514">
<ele>40.860</ele>
<time>2017-09-16T21:18:01.274Z</time>
</trkpt>
<trkpt lat="-27.3957156" lon="152.9987411">
<ele>41.577</ele>
<time>2017-09-16T21:18:03.502Z</time>
</trkpt>
<trkpt lat="-27.3960394" lon="152.9985886">
<ele>42.184</ele>
<time>2017-09-16T21:18:07.515Z</time>
</trkpt>
<trkpt lat="-27.3965149" lon="152.9984502">
<ele>42.603</ele>
<time>2017-09-16T21:18:11.001Z</time>
</trkpt>
<trkpt lat="-27.3969900" lon="152.9983404">
<ele>42.842</ele>
<time>2017-09-16T21:18:14.050Z</time>
</trkpt>
<trkpt lat="-27.3973050" lon="152.9983160">
<ele>42.718</ele>
<time>2017-09-16T21:18:16.036Z</time>
</trkpt>
<trkpt lat="-27.3977766" lon="152.9982239">
<ele>42.008</ele>
<time>2017-09-16T21:18:19.067Z</time>
</trkpt>
<trkpt lat="-27.3982434" lon="152.9981296">
<ele>40.831</ele>
<time>2017-09-16T21:18:22.084Z</time>
</trkpt>
<trkpt lat="-27.3985257" lon="152.9980425">
<ele>39.284</ele>
<time>2017-09-16T21:18:23.990Z</time>
</trkpt>
<trkpt lat="-27.3989740" lon="152.9979840">
<ele>37.625</ele>
<time>2017-09-16T21:18:26.974Z</time>
</trkpt>
<trkpt lat="-27.3992744" lon="152.9979144">
<ele>36.517</ele>
<time>2017-09-16T21:18:28.987Z</time>
</trkpt>
<trkpt lat="-27.3997446" lon="152.9978407">
<ele>36.445</ele>
<time>2017-09-16T21:18:32.059Z</time>
</trkpt>
<trkpt lat="-27.4002033" lon="152.9977558">
<ele>37.635</ele>
<time>2017-09-16T21:18:35.054Z</time>
</trkpt>
<trkpt lat="-27.4006580" lon="152.9976360">
<ele>40.100</ele>
<time>2017-09-16T21:18:38.236Z</time>
</trkpt>
<trkpt lat="-27.4010055" lon="152.9976183">
<ele>43.272</ele>
<time>2017-09-16T21:18:41.056Z</time>
</trkpt>
<trkpt lat="-27.4012154" lon="152.9976224">
<ele>46.096</ele>
<time>2017-09-16T21:18:43.113Z</time>
</trkpt>
<trkpt lat="-27.4014244" lon="152.9975304">
<ele>47.750</ele>
<time>2017-09-16T21:18:45.457Z</time>
</trkpt>
<trkpt lat="-27.4016952" lon="152.9974814">
<ele>48.398</ele>
<time>2017-09-16T21:18:47.669Z</time>
</trkpt>
<trkpt lat="-27.4021664" lon="152.9974040">
<ele>48.824</ele>
<time>2017-09-16T21:18:50.921Z</time>
</trkpt>
<trkpt lat="-27.4024721" lon="152.9973509">
<ele>49.390</ele>
<time>2017-09-16T21:18:52.968Z</time>
</trkpt>
<trkpt lat="-27.4027461" lon="152.9973105">
<ele>49.897</ele>
<time>2017-09-16T21:18:54.810Z</time>
</trkpt>
<trkpt lat="-27.4030388" lon="152.9974059">
<ele>50.153</ele>
<time>2017-09-16T21:18:56.788Z</time>
</trkpt>
<trkpt lat="-27.4034467" lon="152.9977133">
<ele>50.205</ele>
<time>2017-09-16T21:18:59.858Z</time>
</trkpt>
<trkpt lat="-27.4038757" lon="152.9980375">
<ele>50.177</ele>
<time>2017-09-16T21:19:03.028Z</time>
</trkpt>
<trkpt lat="-27.4041490" lon="152.9982434">
<ele>50.037</ele>
<time>2017-09-16T21:19:05.048Z</time>
</trkpt>
<trkpt lat="-27.4044664" lon="152.9983140">
<ele>49.546</ele>
<time>2017-09-16T21:19:07.062Z</time>
</trkpt>
<trkpt lat="-27.4049439" lon="152.9982605">
<ele>48.500</ele>
<time>2017-09-16T21:19:10.082Z</time>
</trkpt>
<trkpt lat="-27.4052537" lon="152.9982468">
<ele>46.780</ele>
<time>2017-09-16T21:19:12.048Z</time>
</trkpt>
<trkpt lat="-27.4057225" lon="152.9982879">
<ele>44.512</ele>
<time>2017-09-16T21:19:15.034Z</time>
</trkpt>
<trkpt lat="-27.4061939" lon="152.9983375">
<ele>42.054</ele>
<time>2017-09-16T21:19:18.069Z</time>
</trkpt>
<trkpt lat="-27.4066473" lon="152.9983577">
<ele>39.614</ele>
<time>2017-09-16T21:19:21.156Z</time>
</trkpt>
<trkpt lat="-27.4068802" lon="152.9983549">
<ele>37.332</ele>
<time>2017-09-16T21:19:23.273Z</time>
</trkpt>
<trkpt lat="-27.4070380" lon="152.9983715">
<ele>35.460</ele>
<time>2017-09-16T21:19:24.999Z</time>
</trkpt>
<trkpt lat="-27.4070380" lon="152.9983715">
<ele>34.188</ele>
<time>2017-09-16T21:19:28.999Z</time>
</trkpt>
<trkpt lat="-27.4070380" lon="152.9983715">
<ele>33.647</ele>
<time>2017-09-16T21:19:33.473Z</time>
</trkpt>
<trkpt lat="-27.4072154" lon="152.9985278">
<ele>33.705</ele>
<time>2017-09-16T21:19:39.481Z</time>
</trkpt>
<trkpt lat="-27.4073362" lon="152.9988059">
<ele>33.688</ele>
<time>2017-09-16T21:19:41.940Z</time>
</trkpt>
<trkpt lat="-27.4075443" lon="152.9992690">
<ele>33.159</ele>
<time>2017-09-16T21:19:45.126Z</time>
</trkpt>
<trkpt lat="-27.4078045" lon="152.9996792">
<ele>32.906</ele>
<time>2017-09-16T21:19:47.782Z</time>
</trkpt>
<trkpt lat="-27.4080142" lon="153.0001308">
<ele>33.897</ele>
<time>2017-09-16T21:19:50.537Z</time>
</trkpt>
<trkpt lat="-27.4081998" lon="153.0005861">
<ele>35.871</ele>
<time>2017-09-16T21:19:53.352Z</time>
</trkpt>
<trkpt lat="-27.4082104" lon="153.0010991">
<ele>37.795</ele>
<time>2017-09-16T21:19:56.278Z</time>
</trkpt>
<trkpt lat="-27.4082823" lon="153.0016058">
<ele>38.881</ele>
<time>2017-09-16T21:19:59.196Z</time>
</trkpt>
<trkpt lat="-27.4083644" lon="153.0021281">
<ele>38.942</ele>
<time>2017-09-16T21:20:02.168Z</time>
</trkpt>
<trkpt lat="-27.4084447" lon="153.0026558">
<ele>38.190</ele>
<time>2017-09-16T21:20:05.141Z</time>
</trkpt>
<trkpt lat="-27.4084867" lon="153.0030093">
<ele>36.767</ele>
<time>2017-09-16T21:20:07.143Z</time>
</trkpt>
<trkpt lat="-27.4085017" lon="153.0035290">
<ele>34.912</ele>
<time>2017-09-16T21:20:10.078Z</time>
</trkpt>
<trkpt lat="-27.4086353" lon="153.0040405">
<ele>32.920</ele>
<time>2017-09-16T21:20:13.084Z</time>
</trkpt>
<trkpt lat="-27.4086416" lon="153.0043926">
<ele>30.897</ele>
<time>2017-09-16T21:20:15.068Z</time>
</trkpt>
<trkpt lat="-27.4087455" lon="153.0047315">
<ele>28.997</ele>
<time>2017-09-16T21:20:17.097Z</time>
</trkpt>
<trkpt lat="-27.4087890" lon="153.0050731">
<ele>27.534</ele>
<time>2017-09-16T21:20:19.048Z</time>
</trkpt>
<trkpt lat="-27.4088181" lon="153.0056020">
<ele>26.549</ele>
<time>2017-09-16T21:20:22.028Z</time>
</trkpt>
<trkpt lat="-27.4089193" lon="153.0059451">
<ele>25.809</ele>
<time>2017-09-16T21:20:24.043Z</time>
</trkpt>
<trkpt lat="-27.4089618" lon="153.0062988">
<ele>25.051</ele>
<time>2017-09-16T21:20:26.038Z</time>
</trkpt>
<trkpt lat="-27.4090159" lon="153.0068120">
<ele>24.134</ele>
<time>2017-09-16T21:20:29.214Z</time>
</trkpt>
<trkpt lat="-27.4091092" lon="153.0071880">
<ele>22.853</ele>
<time>2017-09-16T21:20:32.598Z</time>
</trkpt>
<trkpt lat="-27.4091384" lon="153.0073669">
<ele>20.894</ele>
<time>2017-09-16T21:20:36.098Z</time>
</trkpt>
<trkpt lat="-27.4091609" lon="153.0074701">
<ele>18.308</ele>
<time>2017-09-16T21:20:38.550Z</time>
</trkpt>
<trkpt lat="-27.4091860" lon="153.0076312">
<ele>15.546</ele>
<time>2017-09-16T21:20:42.527Z</time>
</trkpt>
<trkpt lat="-27.4092419" lon="153.0078216">
<ele>13.247</ele>
<time>2017-09-16T21:20:44.917Z</time>
</trkpt>
<trkpt lat="-27.4092785" lon="153.0080561">
<ele>11.974</ele>
<time>2017-09-16T21:20:47.047Z</time>
</trkpt>
<trkpt lat="-27.4093394" lon="153.0084400">
<ele>11.738</ele>
<time>2017-09-16T21:20:50.148Z</time>
</trkpt>
<trkpt lat="-27.4093546" lon="153.0088459">
<ele>12.069</ele>
<time>2017-09-16T21:20:53.160Z</time>
</trkpt>
<trkpt lat="-27.4093749" lon="153.0091305">
<ele>12.551</ele>
<time>2017-09-16T21:20:55.207Z</time>
</trkpt>
<trkpt lat="-27.4094228" lon="153.0094107">
<ele>12.952</ele>
<time>2017-09-16T21:20:57.234Z</time>
</trkpt>
<trkpt lat="-27.4094583" lon="153.0096857">
<ele>13.194</ele>
<time>2017-09-16T21:20:59.237Z</time>
</trkpt>
<trkpt lat="-27.4094824" lon="153.0099433">
<ele>13.305</ele>
<time>2017-09-16T21:21:01.169Z</time>
</trkpt>
<trkpt lat="-27.4095226" lon="153.0101922">
<ele>13.356</ele>
<time>2017-09-16T21:21:03.158Z</time>
</trkpt>
<trkpt lat="-27.4095928" lon="153.0105392">
<ele>13.331</ele>
<time>2017-09-16T21:21:06.128Z</time>
</trkpt>
<trkpt lat="-27.4096341" lon="153.0107322">
<ele>13.122</ele>
<time>2017-09-16T21:21:08.079Z</time>
</trkpt>
<trkpt lat="-27.4096149" lon="153.0108765">
<ele>12.630</ele>
<time>2017-09-16T21:21:09.978Z</time>
</trkpt>
<trkpt lat="-27.4096308" lon="153.0110010">
<ele>11.862</ele>
<time>2017-09-16T21:21:12.005Z</time>
</trkpt>
<trkpt lat="-27.4096308" lon="153.0110010">
<ele>11.063</ele>
<time>2017-09-16T21:21:16.000Z</time>
</trkpt>
<trkpt lat="-27.4096308" lon="153.0110010">
<ele>10.627</ele>
<time>2017-09-16T21:21:17.467Z</time>
</trkpt>
<trkpt lat="-27.4096647" lon="153.0112563">
<ele>10.658</ele>
<time>2017-09-16T21:21:23.403Z</time>
</trkpt>
<trkpt lat="-27.4096929" lon="153.0115607">
<ele>10.876</ele>
<time>2017-09-16T21:21:25.823Z</time>
</trkpt>
<trkpt lat="-27.4097584" lon="153.0119128">
<ele>11.042</ele>
<time>2017-09-16T21:21:27.922Z</time>
</trkpt>
<trkpt lat="-27.4098375" lon="153.0124611">
<ele>11.360</ele>
<time>2017-09-16T21:21:30.964Z</time>
</trkpt>
<trkpt lat="-27.4099038" lon="153.0129784">
<ele>12.238</ele>
<time>2017-09-16T21:21:33.811Z</time>
</trkpt>
<trkpt lat="-27.4099662" lon="153.0133102">
<ele>13.620</ele>
<time>2017-09-16T21:21:35.708Z</time>
</trkpt>
<trkpt lat="-27.4099739" lon="153.0136561">
<ele>14.966</ele>
<time>2017-09-16T21:21:37.638Z</time>
</trkpt>
<trkpt lat="-27.4100185" lon="153.0139986">
<ele>15.917</ele>
<time>2017-09-16T21:21:39.559Z</time>
</trkpt>
<trkpt lat="-27.4101113" lon="153.0145177">
<ele>16.448</ele>
<time>2017-09-16T21:21:42.488Z</time>
</trkpt>
<trkpt lat="-27.4101857" lon="153.0150410">
<ele>16.656</ele>
<time>2017-09-16T21:21:45.414Z</time>
</trkpt>
<trkpt lat="-27.4102304" lon="153.0153826">
<ele>16.613</ele>
<time>2017-09-16T21:21:47.328Z</time>
</trkpt>
<trkpt lat="-27.4102495" lon="153.0157275">
<ele>16.351</ele>
<time>2017-09-16T21:21:49.399Z</time>
</trkpt>
<trkpt lat="-27.4103000" lon="153.0161413">
<ele>15.887</ele>
<time>2017-09-16T21:21:52.244Z</time>
</trkpt>
<trkpt lat="-27.4103528" lon="153.0163392">
<ele>15.205</ele>
<time>2017-09-16T21:21:54.148Z</time>
</trkpt>
<trkpt lat="-27.4103005" lon="153.0165599">
<ele>14.321</ele>
<time>2017-09-16T21:21:56.884Z</time>
</trkpt>
<trkpt lat="-27.4103197" lon="153.0166839">
<ele>13.365</ele>
<time>2017-09-16T21:21:58.999Z</time>
</trkpt>
<trkpt lat="-27.4103197" lon="153.0166839">
<ele>12.568</ele>
<time>2017-09-16T21:22:03.999Z</time>
</trkpt>
<trkpt lat="-27.4103197" lon="153.0166839">
<ele>12.178</ele>
<time>2017-09-16T21:22:13.616Z</time>
</trkpt>
<trkpt lat="-27.4104094" lon="153.0168648">
<ele>12.213</ele>
<time>2017-09-16T21:22:19.248Z</time>
</trkpt>
<trkpt lat="-27.4104569" lon="153.0171089">
<ele>12.304</ele>
<time>2017-09-16T21:22:21.507Z</time>
</trkpt>
<trkpt lat="-27.4105132" lon="153.0174591">
<ele>12.178</ele>
<time>2017-09-16T21:22:24.044Z</time>
</trkpt>
<trkpt lat="-27.4105614" lon="153.0177337">
<ele>12.008</ele>
<time>2017-09-16T21:22:25.767Z</time>
</trkpt>
<trkpt lat="-27.4106102" lon="153.0182636">
<ele>12.074</ele>
<time>2017-09-16T21:22:28.869Z</time>
</trkpt>
<trkpt lat="-27.4106790" lon="153.0187983">
<ele>12.526</ele>
<time>2017-09-16T21:22:31.865Z</time>
</trkpt>
<trkpt lat="-27.4107759" lon="153.0193237">
<ele>13.376</ele>
<time>2017-09-16T21:22:34.836Z</time>
</trkpt>
<trkpt lat="-27.4108413" lon="153.0196605">
<ele>14.429</ele>
<time>2017-09-16T21:22:36.766Z</time>
</trkpt>
<trkpt lat="-27.4108792" lon="153.0201914">
<ele>15.334</ele>
<time>2017-09-16T21:22:39.747Z</time>
</trkpt>
<trkpt lat="-27.4109521" lon="153.0205354">
<ele>15.759</ele>
<time>2017-09-16T21:22:41.723Z</time>
</trkpt>
<trkpt lat="-27.4109915" lon="153.0208808">
<ele>15.585</ele>
<time>2017-09-16T21:22:43.690Z</time>
</trkpt>
<trkpt lat="-27.4110786" lon="153.0212156">
<ele>15.028</ele>
<time>2017-09-16T21:22:45.683Z</time>
</trkpt>
<trkpt lat="-27.4111478" lon="153.0217254">
<ele>14.460</ele>
<time>2017-09-16T21:22:48.623Z</time>
</trkpt>
<trkpt lat="-27.4111672" lon="153.0222820">
<ele>14.148</ele>
<time>2017-09-16T21:22:51.771Z</time>
</trkpt>
<trkpt lat="-27.4112250" lon="153.0227911">
<ele>14.289</ele>
<time>2017-09-16T21:22:54.651Z</time>
</trkpt>
<trkpt lat="-27.4112652" lon="153.0231385">
<ele>14.955</ele>
<time>2017-09-16T21:22:56.605Z</time>
</trkpt>
<trkpt lat="-27.4113213" lon="153.0234850">
<ele>15.842</ele>
<time>2017-09-16T21:22:58.581Z</time>
</trkpt>
<trkpt lat="-27.4114316" lon="153.0239947">
<ele>16.546</ele>
<time>2017-09-16T21:23:01.547Z</time>
</trkpt>
<trkpt lat="-27.4114935" lon="153.0243338">
<ele>17.143</ele>
<time>2017-09-16T21:23:03.515Z</time>
</trkpt>
<trkpt lat="-27.4115213" lon="153.0246775">
<ele>17.905</ele>
<time>2017-09-16T21:23:05.467Z</time>
</trkpt>
<trkpt lat="-27.4115399" lon="153.0252080">
<ele>18.866</ele>
<time>2017-09-16T21:23:08.453Z</time>
</trkpt>
<trkpt lat="-27.4116054" lon="153.0257373">
<ele>20.093</ele>
<time>2017-09-16T21:23:11.437Z</time>
</trkpt>
<trkpt lat="-27.4116743" lon="153.0260828">
<ele>21.730</ele>
<time>2017-09-16T21:23:13.402Z</time>
</trkpt>
<trkpt lat="-27.4117418" lon="153.0264338">
<ele>23.516</ele>
<time>2017-09-16T21:23:15.404Z</time>
</trkpt>
<trkpt lat="-27.4117526" lon="153.0267725">
<ele>24.976</ele>
<time>2017-09-16T21:23:17.550Z</time>
</trkpt>
<trkpt lat="-27.4118201" lon="153.0271115">
<ele>25.867</ele>
<time>2017-09-16T21:23:20.433Z</time>
</trkpt>
<trkpt lat="-27.4117966" lon="153.0272514">
<ele>26.044</ele>
<time>2017-09-16T21:23:21.999Z</time>
</trkpt>
<trkpt lat="-27.4117966" lon="153.0272514">
<ele>25.600</ele>
<time>2017-09-16T21:23:24.999Z</time>
</trkpt>
<trkpt lat="-27.4117966" lon="153.0272514">
<ele>25.151</ele>
<time>2017-09-16T21:23:29.406Z</time>
</trkpt>
<trkpt lat="-27.4118242" lon="153.0274013">
<ele>25.139</ele>
<time>2017-09-16T21:23:32.903Z</time>
</trkpt>
<trkpt lat="-27.4118547" lon="153.0276418">
<ele>24.801</ele>
<time>2017-09-16T21:23:35.157Z</time>
</trkpt>
<trkpt lat="-27.4118994" lon="153.0280975">
<ele>23.505</ele>
<time>2017-09-16T21:23:38.355Z</time>
</trkpt>
<trkpt lat="-27.4119802" lon="153.0284296">
<ele>22.177</ele>
<time>2017-09-16T21:23:40.401Z</time>
</trkpt>
<trkpt lat="-27.4120216" lon="153.0289460">
<ele>21.759</ele>
<time>2017-09-16T21:23:43.377Z</time>
</trkpt>
<trkpt lat="-27.4120705" lon="153.0292975">
<ele>21.817</ele>
<time>2017-09-16T21:23:45.363Z</time>
</trkpt>
<trkpt lat="-27.4121353" lon="153.0298351">
<ele>21.601</ele>
<time>2017-09-16T21:23:48.372Z</time>
</trkpt>
<trkpt lat="-27.4121984" lon="153.0301873">
<ele>20.716</ele>
<time>2017-09-16T21:23:50.367Z</time>
</trkpt>
<trkpt lat="-27.4122340" lon="153.0305366">
<ele>19.159</ele>
<time>2017-09-16T21:23:52.325Z</time>
</trkpt>
<trkpt lat="-27.4122543" lon="153.0308860">
<ele>17.224</ele>
<time>2017-09-16T21:23:54.311Z</time>
</trkpt>
<trkpt lat="-27.4122812" lon="153.0313914">
<ele>15.239</ele>
<time>2017-09-16T21:23:57.277Z</time>
</trkpt>
<trkpt lat="-27.4122858" lon="153.0318610">
<ele>13.147</ele>
<time>2017-09-16T21:24:00.146Z</time>
</trkpt>
<trkpt lat="-27.4122930" lon="153.0321820">
<ele>10.576</ele>
<time>2017-09-16T21:24:02.097Z</time>
</trkpt>
<trkpt lat="-27.4122930" lon="153.0321820">
<ele>10.576</ele>
<time>2017-09-16T21:24:02.097Z</time>
</trkpt>
<trkpt lat="-27.4436637" lon="153.0322224">
<ele>6.690</ele>
<time>2017-09-16T21:27:35.005Z</time>
</trkpt>
<trkpt lat="-27.4445308" lon="153.0325272">
<ele>6.687</ele>
<time>2017-09-16T21:27:42.038Z</time>
</trkpt>
<trkpt lat="-27.4451836" lon="153.0328501">
<ele>7.520</ele>
<time>2017-09-16T21:27:47.646Z</time>
</trkpt>
<trkpt lat="-27.4457116" lon="153.0327879">
<ele>9.770</ele>
<time>2017-09-16T21:27:51.622Z</time>
</trkpt>
<trkpt lat="-27.4463329" lon="153.0322530">
<ele>12.197</ele>
<time>2017-09-16T21:27:57.110Z</time>
</trkpt>
<trkpt lat="-27.4467488" lon="153.0316964">
<ele>12.864</ele>
<time>2017-09-16T21:28:01.643Z</time>
</trkpt>
<trkpt lat="-27.4470986" lon="153.0315046">
<ele>11.005</ele>
<time>2017-09-16T21:28:04.374Z</time>
</trkpt>
<trkpt lat="-27.4474394" lon="153.0313439">
<ele>7.407</ele>
<time>2017-09-16T21:28:06.967Z</time>
</trkpt>
<trkpt lat="-27.4477950" lon="153.0311943">
<ele>3.722</ele>
<time>2017-09-16T21:28:09.630Z</time>
</trkpt>
<trkpt lat="-27.4480371" lon="153.0311167">
<ele>0.873</ele>
<time>2017-09-16T21:28:11.397Z</time>
</trkpt>
<trkpt lat="-27.4480371" lon="153.0311167">
<ele>0.873</ele>
<time>2017-09-16T21:28:11.397Z</time>
</trkpt>
<trkpt lat="-27.4514983" lon="153.0265361">
<ele>4.473</ele>
<time>2017-09-16T21:28:47.238Z</time>
</trkpt>
<trkpt lat="-27.4516771" lon="153.0260548">
<ele>4.471</ele>
<time>2017-09-16T21:28:50.175Z</time>
</trkpt>
<trkpt lat="-27.4518212" lon="153.0257429">
<ele>4.518</ele>
<time>2017-09-16T21:28:52.163Z</time>
</trkpt>
<trkpt lat="-27.4519912" lon="153.0254455">
<ele>4.683</ele>
<time>2017-09-16T21:28:54.179Z</time>
</trkpt>
<trkpt lat="-27.4521780" lon="153.0251618">
<ele>4.922</ele>
<time>2017-09-16T21:28:56.187Z</time>
</trkpt>
<trkpt lat="-27.4523966" lon="153.0249070">
<ele>5.113</ele>
<time>2017-09-16T21:28:58.193Z</time>
</trkpt>
<trkpt lat="-27.4527549" lon="153.0245611">
<ele>5.248</ele>
<time>2017-09-16T21:29:01.188Z</time>
</trkpt>
<trkpt lat="-27.4531441" lon="153.0242702">
<ele>5.450</ele>
<time>2017-09-16T21:29:04.131Z</time>
</trkpt>
<trkpt lat="-27.4536034" lon="153.0241073">
<ele>5.807</ele>
<time>2017-09-16T21:29:07.157Z</time>
</trkpt>
<trkpt lat="-27.4538787" lon="153.0239609">
<ele>6.291</ele>
<time>2017-09-16T21:29:09.080Z</time>
</trkpt>
<trkpt lat="-27.4543104" lon="153.0237862">
<ele>6.786</ele>
<time>2017-09-16T21:29:11.991Z</time>
</trkpt>
<trkpt lat="-27.4547530" lon="153.0236070">
<ele>7.239</ele>
<time>2017-09-16T21:29:14.983Z</time>
</trkpt>
<trkpt lat="-27.4551824" lon="153.0233823">
<ele>7.789</ele>
<time>2017-09-16T21:29:17.997Z</time>
</trkpt>
<trkpt lat="-27.4554514" lon="153.0231894">
<ele>8.510</ele>
<time>2017-09-16T21:29:20.014Z</time>
</trkpt>
<trkpt lat="-27.4558496" lon="153.0228555">
<ele>9.192</ele>
<time>2017-09-16T21:29:23.130Z</time>
</trkpt>
<trkpt lat="-27.4561988" lon="153.0225185">
<ele>9.670</ele>
<time>2017-09-16T21:29:26.032Z</time>
</trkpt>
<trkpt lat="-27.4563958" lon="153.0222511">
<ele>10.021</ele>
<time>2017-09-16T21:29:27.988Z</time>
</trkpt>
<trkpt lat="-27.4565914" lon="153.0219857">
<ele>10.311</ele>
<time>2017-09-16T21:29:29.787Z</time>
</trkpt>
<trkpt lat="-27.4568107" lon="153.0215342">
<ele>10.492</ele>
<time>2017-09-16T21:29:32.328Z</time>
</trkpt>
<trkpt lat="-27.4569771" lon="153.0210342">
<ele>10.547</ele>
<time>2017-09-16T21:29:34.804Z</time>
</trkpt>
<trkpt lat="-27.4570759" lon="153.0206874">
<ele>10.602</ele>
<time>2017-09-16T21:29:36.437Z</time>
</trkpt>
<trkpt lat="-27.4570877" lon="153.0203466">
<ele>10.784</ele>
<time>2017-09-16T21:29:37.949Z</time>
</trkpt>
<trkpt lat="-27.4571709" lon="153.0198153">
<ele>11.056</ele>
<time>2017-09-16T21:29:40.340Z</time>
</trkpt>
<trkpt lat="-27.4571646" lon="153.0191952">
<ele>11.332</ele>
<time>2017-09-16T21:29:43.080Z</time>
</trkpt>
<trkpt lat="-27.4571415" lon="153.0185485">
<ele>11.663</ele>
<time>2017-09-16T21:29:45.940Z</time>
</trkpt>
<trkpt lat="-27.4571237" lon="153.0181020">
<ele>12.179</ele>
<time>2017-09-16T21:29:47.915Z</time>
</trkpt>
<trkpt lat="-27.4570894" lon="153.0176545">
<ele>12.807</ele>
<time>2017-09-16T21:29:49.900Z</time>
</trkpt>
<trkpt lat="-27.4570391" lon="153.0172134">
<ele>13.267</ele>
<time>2017-09-16T21:29:51.865Z</time>
</trkpt>
<trkpt lat="-27.4570391" lon="153.0172134">
<ele>13.267</ele>
<time>2017-09-16T21:29:51.865Z</time>
</trkpt>
<trkpt lat="-27.4798503" lon="152.9752210">
<ele>28.172</ele>
<time>2017-09-16T21:33:29.315Z</time>
</trkpt>
<trkpt lat="-27.4803235" lon="152.9742248">
<ele>28.159</ele>
<time>2017-09-16T21:33:33.877Z</time>
</trkpt>
<trkpt lat="-27.4806192" lon="152.9735997">
<ele>28.696</ele>
<time>2017-09-16T21:33:36.636Z</time>
</trkpt>
<trkpt lat="-27.4809432" lon="152.9729244">
<ele>30.386</ele>
<time>2017-09-16T21:33:39.624Z</time>
</trkpt>
<trkpt lat="-27.4811610" lon="152.9724721">
<ele>32.797</ele>
<time>2017-09-16T21:33:41.629Z</time>
</trkpt>
<trkpt lat="-27.4813832" lon="152.9720279">
<ele>34.877</ele>
<time>2017-09-16T21:33:43.619Z</time>
</trkpt>
<trkpt lat="-27.4817167" lon="152.9713703">
<ele>36.065</ele>
<time>2017-09-16T21:33:46.576Z</time>
</trkpt>
<trkpt lat="-27.4819397" lon="152.9709302">
<ele>36.426</ele>
<time>2017-09-16T21:33:48.549Z</time>
</trkpt>
<trkpt lat="-27.4822949" lon="152.9702759">
<ele>36.457</ele>
<time>2017-09-16T21:33:51.518Z</time>
</trkpt>
<trkpt lat="-27.4825139" lon="152.9698310">
<ele>36.595</ele>
<time>2017-09-16T21:33:53.487Z</time>
</trkpt>
<trkpt lat="-27.4827533" lon="152.9693930">
<ele>36.927</ele>
<time>2017-09-16T21:33:55.483Z</time>
</trkpt>
<trkpt lat="-27.4830475" lon="152.9690001">
<ele>37.383</ele>
<time>2017-09-16T21:33:57.481Z</time>
</trkpt>
<trkpt lat="-27.4835143" lon="152.9684587">
<ele>38.022</ele>
<time>2017-09-16T21:34:00.417Z</time>
</trkpt>
<trkpt lat="-27.4840062" lon="152.9679258">
<ele>38.889</ele>
<time>2017-09-16T21:34:03.399Z</time>
</trkpt>
<trkpt lat="-27.4843745" lon="152.9676279">
<ele>39.883</ele>
<time>2017-09-16T21:34:05.380Z</time>
</trkpt>
<trkpt lat="-27.4847697" lon="152.9673745">
<ele>40.944</ele>
<time>2017-09-16T21:34:07.373Z</time>
</trkpt>
<trkpt lat="-27.4853675" lon="152.9670158">
<ele>42.069</ele>
<time>2017-09-16T21:34:10.335Z</time>
</trkpt>
<trkpt lat="-27.4857838" lon="152.9668162">
<ele>43.394</ele>
<time>2017-09-16T21:34:12.301Z</time>
</trkpt>
<trkpt lat="-27.4862225" lon="152.9666935">
<ele>44.965</ele>
<time>2017-09-16T21:34:14.269Z</time>
</trkpt>
<trkpt lat="-27.4866657" lon="152.9665785">
<ele>46.431</ele>
<time>2017-09-16T21:34:16.252Z</time>
</trkpt>
<trkpt lat="-27.4873453" lon="152.9664970">
<ele>47.416</ele>
<time>2017-09-16T21:34:19.231Z</time>
</trkpt>
<trkpt lat="-27.4880227" lon="152.9664638">
<ele>47.913</ele>
<time>2017-09-16T21:34:22.165Z</time>
</trkpt>
<trkpt lat="-27.4886989" lon="152.9665953">
<ele>48.034</ele>
<time>2017-09-16T21:34:25.138Z</time>
</trkpt>
<trkpt lat="-27.4891514" lon="152.9666919">
<ele>47.824</ele>
<time>2017-09-16T21:34:27.141Z</time>
</trkpt>
<trkpt lat="-27.4898367" lon="152.9667622">
<ele>47.359</ele>
<time>2017-09-16T21:34:30.136Z</time>
</trkpt>
<trkpt lat="-27.4905102" lon="152.9667921">
<ele>46.737</ele>
<time>2017-09-16T21:34:33.052Z</time>
</trkpt>
<trkpt lat="-27.4911799" lon="152.9667868">
<ele>45.838</ele>
<time>2017-09-16T21:34:35.949Z</time>
</trkpt>
<trkpt lat="-27.4916385" lon="152.9667738">
<ele>44.400</ele>
<time>2017-09-16T21:34:37.944Z</time>
</trkpt>
<trkpt lat="-27.4923022" lon="152.9665626">
<ele>42.455</ele>
<time>2017-09-16T21:34:40.951Z</time>
</trkpt>
<trkpt lat="-27.4927273" lon="152.9663939">
<ele>40.204</ele>
<time>2017-09-16T21:34:42.911Z</time>
</trkpt>
<trkpt lat="-27.4933423" lon="152.9660686">
<ele>37.819</ele>
<time>2017-09-16T21:34:45.857Z</time>
</trkpt>
<trkpt lat="-27.4937352" lon="152.9658090">
<ele>35.381</ele>
<time>2017-09-16T21:34:47.834Z</time>
</trkpt>
<trkpt lat="-27.4942950" lon="152.9653578">
<ele>33.012</ele>
<time>2017-09-16T21:34:50.827Z</time>
</trkpt>
<trkpt lat="-27.4946552" lon="152.9650510">
<ele>30.830</ele>
<time>2017-09-16T21:34:52.798Z</time>
</trkpt>
<trkpt lat="-27.4952453" lon="152.9646594">
<ele>28.913</ele>
<time>2017-09-16T21:34:55.794Z</time>
</trkpt>
<trkpt lat="-27.4956646" lon="152.9644586">
<ele>27.241</ele>
<time>2017-09-16T21:34:57.783Z</time>
</trkpt>
<trkpt lat="-27.4962971" lon="152.9642072">
<ele>25.775</ele>
<time>2017-09-16T21:35:00.708Z</time>
</trkpt>
<trkpt lat="-27.4969369" lon="152.9639406">
<ele>24.465</ele>
<time>2017-09-16T21:35:03.688Z</time>
</trkpt>
<trkpt lat="-27.4973635" lon="152.9637840">
<ele>23.278</ele>
<time>2017-09-16T21:35:05.652Z</time>
</trkpt>
<trkpt lat="-27.4980235" lon="152.9636013">
<ele>22.242</ele>
<time>2017-09-16T21:35:08.629Z</time>
</trkpt>
<trkpt lat="-27.4984578" lon="152.9634712">
<ele>21.496</ele>
<time>2017-09-16T21:35:10.597Z</time>
</trkpt>
<trkpt lat="-27.4988935" lon="152.9633484">
<ele>21.093</ele>
<time>2017-09-16T21:35:12.562Z</time>
</trkpt>
<trkpt lat="-27.4995527" lon="152.9631451">
<ele>21.032</ele>
<time>2017-09-16T21:35:15.549Z</time>
</trkpt>
<trkpt lat="-27.5002140" lon="152.9629561">
<ele>21.244</ele>
<time>2017-09-16T21:35:18.531Z</time>
</trkpt>
<trkpt lat="-27.5006498" lon="152.9628104">
<ele>21.426</ele>
<time>2017-09-16T21:35:20.519Z</time>
</trkpt>
<trkpt lat="-27.5013082" lon="152.9626542">
<ele>21.316</ele>
<time>2017-09-16T21:35:23.449Z</time>
</trkpt>
<trkpt lat="-27.5019852" lon="152.9626994">
<ele>20.955</ele>
<time>2017-09-16T21:35:26.398Z</time>
</trkpt>
<trkpt lat="-27.5026431" lon="152.9629357">
<ele>20.502</ele>
<time>2017-09-16T21:35:29.393Z</time>
</trkpt>
<trkpt lat="-27.5030670" lon="152.9631230">
<ele>20.014</ele>
<time>2017-09-16T21:35:31.362Z</time>
</trkpt>
<trkpt lat="-27.5034639" lon="152.9632861">
<ele>19.504</ele>
<time>2017-09-16T21:35:33.181Z</time>
</trkpt>
<trkpt lat="-27.5041824" lon="152.9634171">
<ele>18.990</ele>
<time>2017-09-16T21:35:36.312Z</time>
</trkpt>
<trkpt lat="-27.5046253" lon="152.9634270">
<ele>18.350</ele>
<time>2017-09-16T21:35:38.219Z</time>
</trkpt>
<trkpt lat="-27.5051025" lon="152.9633946">
<ele>17.366</ele>
<time>2017-09-16T21:35:40.289Z</time>
</trkpt>
<trkpt lat="-27.5057866" lon="152.9632311">
<ele>15.973</ele>
<time>2017-09-16T21:35:43.336Z</time>
</trkpt>
<trkpt lat="-27.5062148" lon="152.9630624">
<ele>14.079</ele>
<time>2017-09-16T21:35:45.312Z</time>
</trkpt>
<trkpt lat="-27.5068290" lon="152.9627163">
<ele>11.709</ele>
<time>2017-09-16T21:35:48.294Z</time>
</trkpt>
<trkpt lat="-27.5073864" lon="152.9622586">
<ele>9.178</ele>
<time>2017-09-16T21:35:51.296Z</time>
</trkpt>
<trkpt lat="-27.5078767" lon="152.9617086">
<ele>6.789</ele>
<time>2017-09-16T21:35:54.316Z</time>
</trkpt>
<trkpt lat="-27.5081749" lon="152.9613276">
<ele>4.790</ele>
<time>2017-09-16T21:35:56.289Z</time>
</trkpt>
<trkpt lat="-27.5084460" lon="152.9609231">
<ele>3.466</ele>
<time>2017-09-16T21:35:58.260Z</time>
</trkpt>
<trkpt lat="-27.5087037" lon="152.9605097">
<ele>2.850</ele>
<time>2017-09-16T21:36:00.229Z</time>
</trkpt>
<trkpt lat="-27.5091483" lon="152.9599172">
<ele>2.713</ele>
<time>2017-09-16T21:36:03.251Z</time>
</trkpt>
<trkpt lat="-27.5096526" lon="152.9594012">
<ele>2.903</ele>
<time>2017-09-16T21:36:06.238Z</time>
</trkpt>
<trkpt lat="-27.5101880" lon="152.9589321">
<ele>3.574</ele>
<time>2017-09-16T21:36:09.224Z</time>
</trkpt>
<trkpt lat="-27.5105997" lon="152.9587091">
<ele>4.966</ele>
<time>2017-09-16T21:36:11.231Z</time>
</trkpt>
<trkpt lat="-27.5112050" lon="152.9583695">
<ele>6.979</ele>
<time>2017-09-16T21:36:14.185Z</time>
</trkpt>
<trkpt lat="-27.5118302" lon="152.9580780">
<ele>9.376</ele>
<time>2017-09-16T21:36:17.131Z</time>
</trkpt>
<trkpt lat="-27.5124569" lon="152.9577771">
<ele>12.106</ele>
<time>2017-09-16T21:36:20.072Z</time>
</trkpt>
<trkpt lat="-27.5128444" lon="152.9575177">
<ele>14.955</ele>
<time>2017-09-16T21:36:22.011Z</time>
</trkpt>
<trkpt lat="-27.5132646" lon="152.9573112">
<ele>17.235</ele>
<time>2017-09-16T21:36:24.034Z</time>
</trkpt>
<trkpt lat="-27.5138981" lon="152.9569951">
<ele>18.406</ele>
<time>2017-09-16T21:36:27.299Z</time>
</trkpt>
<trkpt lat="-27.5142994" lon="152.9567740">
<ele>18.378</ele>
<time>2017-09-16T21:36:29.484Z</time>
</trkpt>
<trkpt lat="-27.5148443" lon="152.9564797">
<ele>17.198</ele>
<time>2017-09-16T21:36:32.452Z</time>
</trkpt>
<trkpt lat="-27.5152097" lon="152.9562873">
<ele>14.797</ele>
<time>2017-09-16T21:36:34.441Z</time>
</trkpt>
<trkpt lat="-27.5155845" lon="152.9561229">
<ele>11.508</ele>
<time>2017-09-16T21:36:36.432Z</time>
</trkpt>
<trkpt lat="-27.5161231" lon="152.9558240">
<ele>8.247</ele>
<time>2017-09-16T21:36:39.404Z</time>
</trkpt>
<trkpt lat="-27.5164733" lon="152.9556137">
<ele>5.688</ele>
<time>2017-09-16T21:36:41.357Z</time>
</trkpt>
<trkpt lat="-27.5169533" lon="152.9552140">
<ele>3.915</ele>
<time>2017-09-16T21:36:44.289Z</time>
</trkpt>
<trkpt lat="-27.5172735" lon="152.9549335">
<ele>2.873</ele>
<time>2017-09-16T21:36:46.283Z</time>
</trkpt>
<trkpt lat="-27.5175905" lon="152.9546515">
<ele>2.384</ele>
<time>2017-09-16T21:36:48.277Z</time>
</trkpt>
<trkpt lat="-27.5178932" lon="152.9543507">
<ele>2.178</ele>
<time>2017-09-16T21:36:50.278Z</time>
</trkpt>
<trkpt lat="-27.5181357" lon="152.9539884">
<ele>2.052</ele>
<time>2017-09-16T21:36:52.291Z</time>
</trkpt>
<trkpt lat="-27.5184922" lon="152.9534550">
<ele>1.924</ele>
<time>2017-09-16T21:36:55.249Z</time>
</trkpt>
<trkpt lat="-27.5186943" lon="152.9530696">
<ele>1.973</ele>
<time>2017-09-16T21:36:57.226Z</time>
</trkpt>
<trkpt lat="-27.5188913" lon="152.9526829">
<ele>2.449</ele>
<time>2017-09-16T21:36:59.182Z</time>
</trkpt>
<trkpt lat="-27.5191443" lon="152.9520808">
<ele>3.384</ele>
<time>2017-09-16T21:37:02.091Z</time>
</trkpt>
<trkpt lat="-27.5193829" lon="152.9514537">
<ele>4.776</ele>
<time>2017-09-16T21:37:05.064Z</time>
</trkpt>
<trkpt lat="-27.5195221" lon="152.9510230">
<ele>6.707</ele>
<time>2017-09-16T21:37:07.058Z</time>
</trkpt>
<trkpt lat="-27.5196852" lon="152.9506094">
<ele>8.907</ele>
<time>2017-09-16T21:37:09.016Z</time>
</trkpt>
<trkpt lat="-27.5199098" lon="152.9499668">
<ele>10.817</ele>
<time>2017-09-16T21:37:11.998Z</time>
</trkpt>
<trkpt lat="-27.5201121" lon="152.9495646">
<ele>12.153</ele>
<time>2017-09-16T21:37:14.001Z</time>
</trkpt>
<trkpt lat="-27.5202939" lon="152.9491554">
<ele>12.921</ele>
<time>2017-09-16T21:37:16.020Z</time>
</trkpt>
<trkpt lat="-27.5207327" lon="152.9486825">
<ele>13.154</ele>
<time>2017-09-16T21:37:19.068Z</time>
</trkpt>
<trkpt lat="-27.5213023" lon="152.9483978">
<ele>12.917</ele>
<time>2017-09-16T21:37:22.213Z</time>
</trkpt>
<trkpt lat="-27.5216920" lon="152.9482718">
<ele>12.446</ele>
<time>2017-09-16T21:37:24.240Z</time>
</trkpt>
<trkpt lat="-27.5220707" lon="152.9481731">
<ele>12.170</ele>
<time>2017-09-16T21:37:26.173Z</time>
</trkpt>
<trkpt lat="-27.5224540" lon="152.9480753">
<ele>12.451</ele>
<time>2017-09-16T21:37:28.110Z</time>
</trkpt>
<trkpt lat="-27.5230416" lon="152.9479505">
<ele>13.334</ele>
<time>2017-09-16T21:37:31.062Z</time>
</trkpt>
<trkpt lat="-27.5234364" lon="152.9478563">
<ele>14.742</ele>
<time>2017-09-16T21:37:33.058Z</time>
</trkpt>
<trkpt lat="-27.5238351" lon="152.9477858">
<ele>16.537</ele>
<time>2017-09-16T21:37:35.070Z</time>
</trkpt>
<trkpt lat="-27.5244327" lon="152.9476778">
<ele>18.347</ele>
<time>2017-09-16T21:37:38.096Z</time>
</trkpt>
<trkpt lat="-27.5249924" lon="152.9475461">
<ele>19.682</ele>
<time>2017-09-16T21:37:40.918Z</time>
</trkpt>
<trkpt lat="-27.5254054" lon="152.9474542">
<ele>20.303</ele>
<time>2017-09-16T21:37:42.977Z</time>
</trkpt>
<trkpt lat="-27.5257605" lon="152.9473734">
<ele>20.107</ele>
<time>2017-09-16T21:37:44.721Z</time>
</trkpt>
<trkpt lat="-27.5263946" lon="152.9472679">
<ele>18.970</ele>
<time>2017-09-16T21:37:47.830Z</time>
</trkpt>
<trkpt lat="-27.5268336" lon="152.9471641">
<ele>16.714</ele>
<time>2017-09-16T21:37:50.044Z</time>
</trkpt>
<trkpt lat="-27.5272097" lon="152.9471282">
<ele>13.531</ele>
<time>2017-09-16T21:37:51.915Z</time>
</trkpt>
<trkpt lat="-27.5276042" lon="152.9470250">
<ele>10.252</ele>
<time>2017-09-16T21:37:53.921Z</time>
</trkpt>
<trkpt lat="-27.5279949" lon="152.9469953">
<ele>7.748</ele>
<time>2017-09-16T21:37:55.846Z</time>
</trkpt>
<trkpt lat="-27.5286013" lon="152.9469036">
<ele>6.216</ele>
<time>2017-09-16T21:37:58.845Z</time>
</trkpt>
<trkpt lat="-27.5292261" lon="152.9467927">
<ele>5.350</ele>
<time>2017-09-16T21:38:01.893Z</time>
</trkpt>
<trkpt lat="-27.5296158" lon="152.9467152">
<ele>4.621</ele>
<time>2017-09-16T21:38:03.704Z</time>
</trkpt>
<trkpt lat="-27.5302326" lon="152.9465920">
<ele>3.667</ele>
<time>2017-09-16T21:38:06.424Z</time>
</trkpt>
<trkpt lat="-27.5307163" lon="152.9465353">
<ele>2.592</ele>
<time>2017-09-16T21:38:08.455Z</time>
</trkpt>
<trkpt lat="-27.5312491" lon="152.9465088">
<ele>1.777</ele>
<time>2017-09-16T21:38:10.627Z</time>
</trkpt>
<trkpt lat="-27.5317189" lon="152.9464622">
<ele>1.448</ele>
<time>2017-09-16T21:38:12.536Z</time>
</trkpt>
<trkpt lat="-27.5321938" lon="152.9464631">
<ele>1.594</ele>
<time>2017-09-16T21:38:14.455Z</time>
</trkpt>
<trkpt lat="-27.5329171" lon="152.9464449">
<ele>2.002</ele>
<time>2017-09-16T21:38:17.427Z</time>
</trkpt>
<trkpt lat="-27.5334114" lon="152.9464693">
<ele>2.337</ele>
<time>2017-09-16T21:38:19.521Z</time>
</trkpt>
<trkpt lat="-27.5341181" lon="152.9465855">
<ele>2.417</ele>
<time>2017-09-16T21:38:22.563Z</time>
</trkpt>
<trkpt lat="-27.5347984" lon="152.9466491">
<ele>2.178</ele>
<time>2017-09-16T21:38:25.429Z</time>
</trkpt>
<trkpt lat="-27.5355034" lon="152.9467772">
<ele>1.662</ele>
<time>2017-09-16T21:38:28.379Z</time>
</trkpt>
<trkpt lat="-27.5359801" lon="152.9468347">
<ele>1.159</ele>
<time>2017-09-16T21:38:30.336Z</time>
</trkpt>
<trkpt lat="-27.5367111" lon="152.9468231">
<ele>0.919</ele>
<time>2017-09-16T21:38:33.240Z</time>
</trkpt>
<trkpt lat="-27.5372142" lon="152.9467720">
<ele>0.995</ele>
<time>2017-09-16T21:38:35.203Z</time>
</trkpt>
<trkpt lat="-27.5377244" lon="152.9466820">
<ele>1.344</ele>
<time>2017-09-16T21:38:37.206Z</time>
</trkpt>
<trkpt lat="-27.5382157" lon="152.9465241">
<ele>1.827</ele>
<time>2017-09-16T21:38:39.190Z</time>
</trkpt>
<trkpt lat="-27.5389328" lon="152.9462192">
<ele>2.382</ele>
<time>2017-09-16T21:38:42.165Z</time>
</trkpt>
<trkpt lat="-27.5396118" lon="152.9458246">
<ele>3.187</ele>
<time>2017-09-16T21:38:45.109Z</time>
</trkpt>
<trkpt lat="-27.5400648" lon="152.9455426">
<ele>4.302</ele>
<time>2017-09-16T21:38:47.099Z</time>
</trkpt>
<trkpt lat="-27.5405196" lon="152.9452535">
<ele>5.369</ele>
<time>2017-09-16T21:38:49.109Z</time>
</trkpt>
<trkpt lat="-27.5411615" lon="152.9447692">
<ele>5.915</ele>
<time>2017-09-16T21:38:52.082Z</time>
</trkpt>
<trkpt lat="-27.5417619" lon="152.9443114">
<ele>5.840</ele>
<time>2017-09-16T21:38:54.865Z</time>
</trkpt>
<trkpt lat="-27.5424737" lon="152.9438055">
<ele>5.443</ele>
<time>2017-09-16T21:38:58.103Z</time>
</trkpt>
<trkpt lat="-27.5429025" lon="152.9434990">
<ele>5.228</ele>
<time>2017-09-16T21:39:00.058Z</time>
</trkpt>
<trkpt lat="-27.5435592" lon="152.9430397">
<ele>5.680</ele>
<time>2017-09-16T21:39:03.025Z</time>
</trkpt>
<trkpt lat="-27.5440310" lon="152.9427887">
<ele>7.128</ele>
<time>2017-09-16T21:39:05.021Z</time>
</trkpt>
<trkpt lat="-27.5447510" lon="152.9424359">
<ele>9.528</ele>
<time>2017-09-16T21:39:08.024Z</time>
</trkpt>
<trkpt lat="-27.5452373" lon="152.9422297">
<ele>12.504</ele>
<time>2017-09-16T21:39:10.021Z</time>
</trkpt>
<trkpt lat="-27.5457219" lon="152.9420363">
<ele>15.489</ele>
<time>2017-09-16T21:39:11.992Z</time>
</trkpt>
<trkpt lat="-27.5461979" lon="152.9418162">
<ele>17.894</ele>
<time>2017-09-16T21:39:13.960Z</time>
</trkpt>
<trkpt lat="-27.5469684" lon="152.9416783">
<ele>19.493</ele>
<time>2017-09-16T21:39:16.941Z</time>
</trkpt>
<trkpt lat="-27.5474947" lon="152.9416336">
<ele>20.652</ele>
<time>2017-09-16T21:39:18.951Z</time>
</trkpt>
<trkpt lat="-27.5480201" lon="152.9415901">
<ele>21.749</ele>
<time>2017-09-16T21:39:20.954Z</time>
</trkpt>
<trkpt lat="-27.5488071" lon="152.9415064">
<ele>22.760</ele>
<time>2017-09-16T21:39:23.964Z</time>
</trkpt>
<trkpt lat="-27.5493249" lon="152.9414753">
<ele>23.563</ele>
<time>2017-09-16T21:39:25.932Z</time>
</trkpt>
<trkpt lat="-27.5498476" lon="152.9414609">
<ele>24.165</ele>
<time>2017-09-16T21:39:27.911Z</time>
</trkpt>
<trkpt lat="-27.5506281" lon="152.9413481">
<ele>24.518</ele>
<time>2017-09-16T21:39:30.891Z</time>
</trkpt>
<trkpt lat="-27.5511469" lon="152.9412895">
<ele>24.486</ele>
<time>2017-09-16T21:39:32.889Z</time>
</trkpt>
<trkpt lat="-27.5516492" lon="152.9411793">
<ele>23.922</ele>
<time>2017-09-16T21:39:34.849Z</time>
</trkpt>
<trkpt lat="-27.5521522" lon="152.9410668">
<ele>22.788</ele>
<time>2017-09-16T21:39:36.811Z</time>
</trkpt>
<trkpt lat="-27.5529223" lon="152.9409316">
<ele>21.234</ele>
<time>2017-09-16T21:39:39.797Z</time>
</trkpt>
<trkpt lat="-27.5534344" lon="152.9408503">
<ele>19.485</ele>
<time>2017-09-16T21:39:41.779Z</time>
</trkpt>
<trkpt lat="-27.5542244" lon="152.9407000">
<ele>17.958</ele>
<time>2017-09-16T21:39:44.848Z</time>
</trkpt>
<trkpt lat="-27.5549906" lon="152.9405529">
<ele>17.244</ele>
<time>2017-09-16T21:39:47.830Z</time>
</trkpt>
<trkpt lat="-27.5555154" lon="152.9404586">
<ele>17.663</ele>
<time>2017-09-16T21:39:49.873Z</time>
</trkpt>
<trkpt lat="-27.5562639" lon="152.9402927">
<ele>18.948</ele>
<time>2017-09-16T21:39:52.805Z</time>
</trkpt>
<trkpt lat="-27.5570366" lon="152.9401561">
<ele>20.744</ele>
<time>2017-09-16T21:39:55.799Z</time>
</trkpt>
<trkpt lat="-27.5575474" lon="152.9400704">
<ele>22.936</ele>
<time>2017-09-16T21:39:57.774Z</time>
</trkpt>
<trkpt lat="-27.5580594" lon="152.9399969">
<ele>25.250</ele>
<time>2017-09-16T21:39:59.745Z</time>
</trkpt>
<trkpt lat="-27.5585788" lon="152.9399453">
<ele>27.232</ele>
<time>2017-09-16T21:40:01.734Z</time>
</trkpt>
<trkpt lat="-27.5593617" lon="152.9399724">
<ele>28.652</ele>
<time>2017-09-16T21:40:04.710Z</time>
</trkpt>
<trkpt lat="-27.5598799" lon="152.9400584">
<ele>29.571</ele>
<time>2017-09-16T21:40:06.694Z</time>
</trkpt>
<trkpt lat="-27.5606290" lon="152.9403252">
<ele>30.121</ele>
<time>2017-09-16T21:40:09.669Z</time>
</trkpt>
<trkpt lat="-27.5611190" lon="152.9405380">
<ele>30.367</ele>
<time>2017-09-16T21:40:11.670Z</time>
</trkpt>
<trkpt lat="-27.5616018" lon="152.9407496">
<ele>30.289</ele>
<time>2017-09-16T21:40:13.650Z</time>
</trkpt>
<trkpt lat="-27.5620787" lon="152.9409788">
<ele>29.778</ele>
<time>2017-09-16T21:40:15.633Z</time>
</trkpt>
<trkpt lat="-27.5627994" lon="152.9413178">
<ele>28.691</ele>
<time>2017-09-16T21:40:18.625Z</time>
</trkpt>
<trkpt lat="-27.5632751" lon="152.9415574">
<ele>26.869</ele>
<time>2017-09-16T21:40:20.631Z</time>
</trkpt>
<trkpt lat="-27.5639043" lon="152.9418606">
<ele>24.320</ele>
<time>2017-09-16T21:40:23.284Z</time>
</trkpt>
<trkpt lat="-27.5645596" lon="152.9421984">
<ele>21.245</ele>
<time>2017-09-16T21:40:26.081Z</time>
</trkpt>
<trkpt lat="-27.5652482" lon="152.9425077">
<ele>17.841</ele>
<time>2017-09-16T21:40:28.927Z</time>
</trkpt>
<trkpt lat="-27.5657730" lon="152.9427764">
<ele>14.486</ele>
<time>2017-09-16T21:40:31.124Z</time>
</trkpt>
<trkpt lat="-27.5662580" lon="152.9430091">
<ele>11.823</ele>
<time>2017-09-16T21:40:33.141Z</time>
</trkpt>
<trkpt lat="-27.5667148" lon="152.9432507">
<ele>10.184</ele>
<time>2017-09-16T21:40:35.078Z</time>
</trkpt>
<trkpt lat="-27.5671574" lon="152.9434498">
<ele>9.442</ele>
<time>2017-09-16T21:40:36.905Z</time>
</trkpt>
<trkpt lat="-27.5680015" lon="152.9436856">
<ele>9.291</ele>
<time>2017-09-16T21:40:40.211Z</time>
</trkpt>
<trkpt lat="-27.5686204" lon="152.9438627">
<ele>9.631</ele>
<time>2017-09-16T21:40:42.626Z</time>
</trkpt>
<trkpt lat="-27.5691308" lon="152.9439558">
<ele>10.541</ele>
<time>2017-09-16T21:40:44.583Z</time>
</trkpt>
<trkpt lat="-27.5696321" lon="152.9440533">
<ele>11.992</ele>
<time>2017-09-16T21:40:46.508Z</time>
</trkpt>
<trkpt lat="-27.5704231" lon="152.9441739">
<ele>13.833</ele>
<time>2017-09-16T21:40:49.526Z</time>
</trkpt>
<trkpt lat="-27.5711941" lon="152.9443164">
<ele>16.033</ele>
<time>2017-09-16T21:40:52.485Z</time>
</trkpt>
<trkpt lat="-27.5719709" lon="152.9444714">
<ele>18.539</ele>
<time>2017-09-16T21:40:55.484Z</time>
</trkpt>
<trkpt lat="-27.5724797" lon="152.9445756">
<ele>21.060</ele>
<time>2017-09-16T21:40:57.458Z</time>
</trkpt>
<trkpt lat="-27.5729961" lon="152.9446273">
<ele>23.120</ele>
<time>2017-09-16T21:40:59.436Z</time>
</trkpt>
<trkpt lat="-27.5735156" lon="152.9446833">
<ele>24.356</ele>
<time>2017-09-16T21:41:01.423Z</time>
</trkpt>
<trkpt lat="-27.5742879" lon="152.9447872">
<ele>24.777</ele>
<time>2017-09-16T21:41:04.367Z</time>
</trkpt>
<trkpt lat="-27.5750651" lon="152.9449322">
<ele>24.681</ele>
<time>2017-09-16T21:41:07.351Z</time>
</trkpt>
<trkpt lat="-27.5755808" lon="152.9450170">
<ele>24.331</ele>
<time>2017-09-16T21:41:09.354Z</time>
</trkpt>
<trkpt lat="-27.5761025" lon="152.9450511">
<ele>23.869</ele>
<time>2017-09-16T21:41:11.444Z</time>
</trkpt>
<trkpt lat="-27.5765958" lon="152.9451112">
<ele>23.370</ele>
<time>2017-09-16T21:41:13.550Z</time>
</trkpt>
<trkpt lat="-27.5770511" lon="152.9451509">
<ele>22.785</ele>
<time>2017-09-16T21:41:15.521Z</time>
</trkpt>
<trkpt lat="-27.5777139" lon="152.9450111">
<ele>21.964</ele>
<time>2017-09-16T21:41:18.418Z</time>
</trkpt>
<trkpt lat="-27.5781161" lon="152.9447629">
<ele>20.774</ele>
<time>2017-09-16T21:41:20.373Z</time>
</trkpt>
<trkpt lat="-27.5787096" lon="152.9443635">
<ele>19.243</ele>
<time>2017-09-16T21:41:23.327Z</time>
</trkpt>
<trkpt lat="-27.5791048" lon="152.9440843">
<ele>17.493</ele>
<time>2017-09-16T21:41:25.330Z</time>
</trkpt>
<trkpt lat="-27.5796123" lon="152.9435592">
<ele>15.749</ele>
<time>2017-09-16T21:41:28.297Z</time>
</trkpt>
<trkpt lat="-27.5798865" lon="152.9428269">
<ele>14.270</ele>
<time>2017-09-16T21:41:31.320Z</time>
</trkpt>
<trkpt lat="-27.5800784" lon="152.9420623">
<ele>13.161</ele>
<time>2017-09-16T21:41:34.341Z</time>
</trkpt>
<trkpt lat="-27.5801534" lon="152.9415240">
<ele>12.375</ele>
<time>2017-09-16T21:41:36.437Z</time>
</trkpt>
<trkpt lat="-27.5801090" lon="152.9410122">
<ele>11.870</ele>
<time>2017-09-16T21:41:38.426Z</time>
</trkpt>
<trkpt lat="-27.5800468" lon="152.9402537">
<ele>11.602</ele>
<time>2017-09-16T21:41:41.363Z</time>
</trkpt>
<trkpt lat="-27.5799835" lon="152.9397437">
<ele>11.533</ele>
<time>2017-09-16T21:41:43.321Z</time>
</trkpt>
<trkpt lat="-27.5799991" lon="152.9389419">
<ele>11.662</ele>
<time>2017-09-16T21:41:46.212Z</time>
</trkpt>
<trkpt lat="-27.5800410" lon="152.9383883">
<ele>12.157</ele>
<time>2017-09-16T21:41:48.155Z</time>
</trkpt>
<trkpt lat="-27.5803233" lon="152.9375853">
<ele>13.164</ele>
<time>2017-09-16T21:41:51.113Z</time>
</trkpt>
<trkpt lat="-27.5806826" lon="152.9368181">
<ele>14.642</ele>
<time>2017-09-16T21:41:54.068Z</time>
</trkpt>
<trkpt lat="-27.5809238" lon="152.9362988">
<ele>16.542</ele>
<time>2017-09-16T21:41:56.057Z</time>
</trkpt>
<trkpt lat="-27.5813341" lon="152.9355563">
<ele>18.630</ele>
<time>2017-09-16T21:41:59.007Z</time>
</trkpt>
<trkpt lat="-27.5816396" lon="152.9350755">
<ele>20.429</ele>
<time>2017-09-16T21:42:01.001Z</time>
</trkpt>
<trkpt lat="-27.5820766" lon="152.9343530">
<ele>21.685</ele>
<time>2017-09-16T21:42:03.953Z</time>
</trkpt>
<trkpt lat="-27.5823622" lon="152.9338645">
<ele>22.430</ele>
<time>2017-09-16T21:42:05.927Z</time>
</trkpt>
<trkpt lat="-27.5828019" lon="152.9331353">
<ele>22.773</ele>
<time>2017-09-16T21:42:08.897Z</time>
</trkpt>
<trkpt lat="-27.5831060" lon="152.9326606">
<ele>22.868</ele>
<time>2017-09-16T21:42:10.874Z</time>
</trkpt>
<trkpt lat="-27.5835750" lon="152.9319632">
<ele>22.857</ele>
<time>2017-09-16T21:42:13.825Z</time>
</trkpt>
<trkpt lat="-27.5840391" lon="152.9312468">
<ele>22.670</ele>
<time>2017-09-16T21:42:16.814Z</time>
</trkpt>
<trkpt lat="-27.5845165" lon="152.9305447">
<ele>22.059</ele>
<time>2017-09-16T21:42:19.783Z</time>
</trkpt>
<trkpt lat="-27.5850688" lon="152.9299064">
<ele>20.969</ele>
<time>2017-09-16T21:42:22.779Z</time>
</trkpt>
<trkpt lat="-27.5854250" lon="152.9294846">
<ele>19.605</ele>
<time>2017-09-16T21:42:24.758Z</time>
</trkpt>
<trkpt lat="-27.5857963" lon="152.9290936">
<ele>18.182</ele>
<time>2017-09-16T21:42:26.714Z</time>
</trkpt>
<trkpt lat="-27.5864275" lon="152.9285682">
<ele>16.769</ele>
<time>2017-09-16T21:42:29.725Z</time>
</trkpt>
<trkpt lat="-27.5870760" lon="152.9280783">
<ele>15.250</ele>
<time>2017-09-16T21:42:32.710Z</time>
</trkpt>
<trkpt lat="-27.5877191" lon="152.9275862">
<ele>13.519</ele>
<time>2017-09-16T21:42:35.682Z</time>
</trkpt>
<trkpt lat="-27.5881607" lon="152.9272796">
<ele>11.771</ele>
<time>2017-09-16T21:42:37.668Z</time>
</trkpt>
<trkpt lat="-27.5888408" lon="152.9268503">
<ele>10.388</ele>
<time>2017-09-16T21:42:40.659Z</time>
</trkpt>
<trkpt lat="-27.5894874" lon="152.9263732">
<ele>9.513</ele>
<time>2017-09-16T21:42:43.632Z</time>
</trkpt>
<trkpt lat="-27.5899104" lon="152.9260778">
<ele>9.035</ele>
<time>2017-09-16T21:42:45.548Z</time>
</trkpt>
<trkpt lat="-27.5905909" lon="152.9256313">
<ele>8.867</ele>
<time>2017-09-16T21:42:48.567Z</time>
</trkpt>
<trkpt lat="-27.5910610" lon="152.9253300">
<ele>8.924</ele>
<time>2017-09-16T21:42:50.636Z</time>
</trkpt>
<trkpt lat="-27.5917149" lon="152.9248855">
<ele>9.083</ele>
<time>2017-09-16T21:42:53.556Z</time>
</trkpt>
<trkpt lat="-27.5921801" lon="152.9245890">
<ele>9.309</ele>
<time>2017-09-16T21:42:55.596Z</time>
</trkpt>
<trkpt lat="-27.5928510" lon="152.9241191">
<ele>9.596</ele>
<time>2017-09-16T21:42:58.614Z</time>
</trkpt>
<trkpt lat="-27.5932752" lon="152.9238056">
<ele>10.033</ele>
<time>2017-09-16T21:43:00.551Z</time>
</trkpt>
<trkpt lat="-27.5937822" lon="152.9235253">
<ele>10.761</ele>
<time>2017-09-16T21:43:02.710Z</time>
</trkpt>
<trkpt lat="-27.5942122" lon="152.9232160">
<ele>11.722</ele>
<time>2017-09-16T21:43:04.684Z</time>
</trkpt>
<trkpt lat="-27.5946626" lon="152.9229972">
<ele>12.693</ele>
<time>2017-09-16T21:43:06.605Z</time>
</trkpt>
<trkpt lat="-27.5953473" lon="152.9226188">
<ele>13.506</ele>
<time>2017-09-16T21:43:09.607Z</time>
</trkpt>
<trkpt lat="-27.5957707" lon="152.9223269">
<ele>14.099</ele>
<time>2017-09-16T21:43:11.558Z</time>
</trkpt>
<trkpt lat="-27.5964662" lon="152.9220249">
<ele>14.495</ele>
<time>2017-09-16T21:43:14.469Z</time>
</trkpt>
<trkpt lat="-27.5969372" lon="152.9218213">
<ele>14.723</ele>
<time>2017-09-16T21:43:16.423Z</time>
</trkpt>
<trkpt lat="-27.5977208" lon="152.9215703">
<ele>14.834</ele>
<time>2017-09-16T21:43:19.577Z</time>
</trkpt>
<trkpt lat="-27.5981974" lon="152.9213898">
<ele>14.879</ele>
<time>2017-09-16T21:43:21.535Z</time>
</trkpt>
<trkpt lat="-27.5986711" lon="152.9211988">
<ele>14.839</ele>
<time>2017-09-16T21:43:23.487Z</time>
</trkpt>
<trkpt lat="-27.5991681" lon="152.9210215">
<ele>14.706</ele>
<time>2017-09-16T21:43:25.503Z</time>
</trkpt>
<trkpt lat="-27.5998992" lon="152.9207358">
<ele>14.546</ele>
<time>2017-09-16T21:43:28.490Z</time>
</trkpt>
<trkpt lat="-27.6006613" lon="152.9205480">
<ele>14.454</ele>
<time>2017-09-16T21:43:31.511Z</time>
</trkpt>
<trkpt lat="-27.6013758" lon="152.9202584">
<ele>14.519</ele>
<time>2017-09-16T21:43:34.461Z</time>
</trkpt>
<trkpt lat="-27.6020796" lon="152.9199495">
<ele>14.812</ele>
<time>2017-09-16T21:43:37.454Z</time>
</trkpt>
<trkpt lat="-27.6027718" lon="152.9196367">
<ele>15.357</ele>
<time>2017-09-16T21:43:40.625Z</time>
</trkpt>
<trkpt lat="-27.6031591" lon="152.9194306">
<ele>15.990</ele>
<time>2017-09-16T21:43:42.596Z</time>
</trkpt>
<trkpt lat="-27.6036918" lon="152.9190968">
<ele>16.419</ele>
<time>2017-09-16T21:43:45.584Z</time>
</trkpt>
<trkpt lat="-27.6041709" lon="152.9187065">
<ele>16.525</ele>
<time>2017-09-16T21:43:48.694Z</time>
</trkpt>
<trkpt lat="-27.6046094" lon="152.9183714">
<ele>16.431</ele>
<time>2017-09-16T21:43:51.845Z</time>
</trkpt>
<trkpt lat="-27.6048418" lon="152.9181463">
<ele>16.197</ele>
<time>2017-09-16T21:43:53.821Z</time>
</trkpt>
<trkpt lat="-27.6050757" lon="152.9179405">
<ele>15.759</ele>
<time>2017-09-16T21:43:55.756Z</time>
</trkpt>
<trkpt lat="-27.6054225" lon="152.9176061">
<ele>15.201</ele>
<time>2017-09-16T21:43:58.704Z</time>
</trkpt>
<trkpt lat="-27.6057517" lon="152.9172390">
<ele>14.733</ele>
<time>2017-09-16T21:44:01.668Z</time>
</trkpt>
<trkpt lat="-27.6059044" lon="152.9169343">
<ele>14.410</ele>
<time>2017-09-16T21:44:03.645Z</time>
</trkpt>
<trkpt lat="-27.6060834" lon="152.9166464">
<ele>14.167</ele>
<time>2017-09-16T21:44:05.631Z</time>
</trkpt>
<trkpt lat="-27.6062174" lon="152.9163324">
<ele>13.935</ele>
<time>2017-09-16T21:44:07.600Z</time>
</trkpt>
<trkpt lat="-27.6063931" lon="152.9158476">
<ele>13.668</ele>
<time>2017-09-16T21:44:10.540Z</time>
</trkpt>
<trkpt lat="-27.6065684" lon="152.9153530">
<ele>13.298</ele>
<time>2017-09-16T21:44:13.535Z</time>
</trkpt>
<trkpt lat="-27.6067005" lon="152.9150391">
<ele>12.635</ele>
<time>2017-09-16T21:44:15.510Z</time>
</trkpt>
<trkpt lat="-27.6069093" lon="152.9145840">
<ele>11.579</ele>
<time>2017-09-16T21:44:18.428Z</time>
</trkpt>
<trkpt lat="-27.6070356" lon="152.9142580">
<ele>10.282</ele>
<time>2017-09-16T21:44:20.443Z</time>
</trkpt>
<trkpt lat="-27.6071607" lon="152.9139353">
<ele>8.910</ele>
<time>2017-09-16T21:44:22.437Z</time>
</trkpt>
<trkpt lat="-27.6073227" lon="152.9136364">
<ele>7.513</ele>
<time>2017-09-16T21:44:24.424Z</time>
</trkpt>
<trkpt lat="-27.6075565" lon="152.9131862">
<ele>6.144</ele>
<time>2017-09-16T21:44:27.408Z</time>
</trkpt>
<trkpt lat="-27.6077860" lon="152.9127393">
<ele>4.711</ele>
<time>2017-09-16T21:44:30.401Z</time>
</trkpt>
<trkpt lat="-27.6079433" lon="152.9124528">
<ele>3.085</ele>
<time>2017-09-16T21:44:32.367Z</time>
</trkpt>
<trkpt lat="-27.6082030" lon="152.9120312">
<ele>1.577</ele>
<time>2017-09-16T21:44:35.175Z</time>
</trkpt>
<trkpt lat="-27.6083423" lon="152.9116712">
<ele>0.811</ele>
<time>2017-09-16T21:44:37.103Z</time>
</trkpt>
<trkpt lat="-27.6085536" lon="152.9110875">
<ele>1.145</ele>
<time>2017-09-16T21:44:40.146Z</time>
</trkpt>
<trkpt lat="-27.6087120" lon="152.9107143">
<ele>2.637</ele>
<time>2017-09-16T21:44:42.148Z</time>
</trkpt>
<trkpt lat="-27.6089268" lon="152.9101574">
<ele>4.932</ele>
<time>2017-09-16T21:44:45.100Z</time>
</trkpt>
<trkpt lat="-27.6090386" lon="152.9097710">
<ele>7.336</ele>
<time>2017-09-16T21:44:47.064Z</time>
</trkpt>
<trkpt lat="-27.6091775" lon="152.9091691">
<ele>9.200</ele>
<time>2017-09-16T21:44:50.059Z</time>
</trkpt>
<trkpt lat="-27.6092224" lon="152.9087583">
<ele>10.188</ele>
<time>2017-09-16T21:44:52.051Z</time>
</trkpt>
<trkpt lat="-27.6093116" lon="152.9081449">
<ele>10.285</ele>
<time>2017-09-16T21:44:55.045Z</time>
</trkpt>
<trkpt lat="-27.6093640" lon="152.9075343">
<ele>9.485</ele>
<time>2017-09-16T21:44:58.010Z</time>
</trkpt>
<trkpt lat="-27.6093137" lon="152.9071134">
<ele>7.663</ele>
<time>2017-09-16T21:45:00.082Z</time>
</trkpt>
<trkpt lat="-27.6093990" lon="152.9065144">
<ele>5.158</ele>
<time>2017-09-16T21:45:03.079Z</time>
</trkpt>
<trkpt lat="-27.6094207" lon="152.9059244">
<ele>2.629</ele>
<time>2017-09-16T21:45:06.065Z</time>
</trkpt>
<trkpt lat="-27.6095110" lon="152.9055582">
<ele>0.439</ele>
<time>2017-09-16T21:45:08.080Z</time>
</trkpt>
<trkpt lat="-27.6096029" lon="152.9050245">
<ele>0.000</ele>
<time>2017-09-16T21:45:11.080Z</time>
</trkpt>
<trkpt lat="-27.6097013" lon="152.9047101">
<ele>0.000</ele>
<time>2017-09-16T21:45:13.057Z</time>
</trkpt>
<trkpt lat="-27.6096490" lon="152.9043865">
<ele>0.000</ele>
<time>2017-09-16T21:45:15.040Z</time>
</trkpt>
<trkpt lat="-27.6095926" lon="152.9038942">
<ele>0.000</ele>
<time>2017-09-16T21:45:17.993Z</time>
</trkpt>
<trkpt lat="-27.6094995" lon="152.9035726">
<ele>0.000</ele>
<time>2017-09-16T21:45:19.994Z</time>
</trkpt>
<trkpt lat="-27.6093840" lon="152.9030912">
<ele>0.000</ele>
<time>2017-09-16T21:45:22.955Z</time>
</trkpt>
<trkpt lat="-27.6094765" lon="152.9025903">
<ele>0.000</ele>
<time>2017-09-16T21:45:25.982Z</time>
</trkpt>
<trkpt lat="-27.6095235" lon="152.9022455">
<ele>0.000</ele>
<time>2017-09-16T21:45:28.040Z</time>
</trkpt>
<trkpt lat="-27.6094535" lon="152.9017500">
<ele>0.000</ele>
<time>2017-09-16T21:45:31.004Z</time>
</trkpt>
<trkpt lat="-27.6093870" lon="152.9012499">
<ele>0.000</ele>
<time>2017-09-16T21:45:33.983Z</time>
</trkpt>
<trkpt lat="-27.6093459" lon="152.9007428">
<ele>0.000</ele>
<time>2017-09-16T21:45:36.969Z</time>
</trkpt>
<trkpt lat="-27.6092515" lon="152.9004200">
<ele>0.000</ele>
<time>2017-09-16T21:45:39.037Z</time>
</trkpt>
<trkpt lat="-27.6091516" lon="152.9000124">
<ele>0.000</ele>
<time>2017-09-16T21:45:42.130Z</time>
</trkpt>
<trkpt lat="-27.6091657" lon="152.8997573">
<ele>0.000</ele>
<time>2017-09-16T21:45:45.059Z</time>
</trkpt>
<trkpt lat="-27.6090784" lon="152.8996345">
<ele>0.000</ele>
<time>2017-09-16T21:45:48.345Z</time>
</trkpt>
<trkpt lat="-27.6090025" lon="152.8995750">
<ele>0.000</ele>
<time>2017-09-16T21:45:51.043Z</time>
</trkpt>
<trkpt lat="-27.6089767" lon="152.8994013">
<ele>0.000</ele>
<time>2017-09-16T21:45:54.357Z</time>
</trkpt>
<trkpt lat="-27.6089528" lon="152.8991948">
<ele>0.000</ele>
<time>2017-09-16T21:45:56.561Z</time>
</trkpt>
<trkpt lat="-27.6087977" lon="152.8989036">
<ele>0.000</ele>
<time>2017-09-16T21:45:59.907Z</time>
</trkpt>
<trkpt lat="-27.6087171" lon="152.8986622">
<ele>0.000</ele>
<time>2017-09-16T21:46:02.760Z</time>
</trkpt>
<trkpt lat="-27.6087480" lon="152.8984844">
<ele>0.000</ele>
<time>2017-09-16T21:46:04.936Z</time>
</trkpt>
<trkpt lat="-27.6086625" lon="152.8983519">
<ele>0.000</ele>
<time>2017-09-16T21:46:06.409Z</time>
</trkpt>
<trkpt lat="-27.6084582" lon="152.8980146">
<ele>0.000</ele>
<time>2017-09-16T21:46:09.605Z</time>
</trkpt>
<trkpt lat="-27.6082545" lon="152.8976202">
<ele>0.000</ele>
<time>2017-09-16T21:46:12.761Z</time>
</trkpt>
<trkpt lat="-27.6080483" lon="152.8972734">
<ele>0.000</ele>
<time>2017-09-16T21:46:15.718Z</time>
</trkpt>
<trkpt lat="-27.6079430" lon="152.8970500">
<ele>0.000</ele>
<time>2017-09-16T21:46:17.788Z</time>
</trkpt>
<trkpt lat="-27.6078160" lon="152.8969288">
<ele>0.000</ele>
<time>2017-09-16T21:46:20.235Z</time>
</trkpt>
<trkpt lat="-27.6079067" lon="152.8968503">
<ele>0.000</ele>
<time>2017-09-16T21:46:22.019Z</time>
</trkpt>
<trkpt lat="-27.6080128" lon="152.8967995">
<ele>0.000</ele>
<time>2017-09-16T21:46:25.293Z</time>
</trkpt>
<trkpt lat="-27.6080825" lon="152.8966915">
<ele>0.000</ele>
<time>2017-09-16T21:46:28.646Z</time>
</trkpt>
<trkpt lat="-27.6081345" lon="152.8966018">
<ele>0.000</ele>
<time>2017-09-16T21:46:31.809Z</time>
</trkpt>
<trkpt lat="-27.6081464" lon="152.8964878">
<ele>0.000</ele>
<time>2017-09-16T21:46:36.000Z</time>
</trkpt>
<trkpt lat="-27.6081464" lon="152.8964878">
<ele>0.000</ele>
<time>2017-09-16T21:46:39.000Z</time>
</trkpt>
<trkpt lat="-27.6081464" lon="152.8964878">
<ele>0.000</ele>
<time>2017-09-16T22:33:21.187Z</time>
</trkpt>
<trkpt lat="-27.6082878" lon="152.8963184">
<ele>0.000</ele>
<time>2017-09-16T22:37:53.999Z</time>
</trkpt>
<trkpt lat="-27.6082878" lon="152.8963184">
<ele>0.000</ele>
<time>2017-09-16T22:37:57.999Z</time>
</trkpt>
<trkpt lat="-27.6082878" lon="152.8963184">
<ele>0.396</ele>
<time>2017-09-16T22:46:47.254Z</time>
</trkpt>
<trkpt lat="-27.6083165" lon="152.8961153">
<ele>0.640</ele>
<time>2017-09-16T22:46:59.554Z</time>
</trkpt>
<trkpt lat="-27.6083127" lon="152.8960105">
<ele>0.000</ele>
<time>2017-09-16T22:47:03.998Z</time>
</trkpt>
<trkpt lat="-27.6083127" lon="152.8960105">
<ele>0.000</ele>
<time>2017-09-16T22:47:19.998Z</time>
</trkpt>
<trkpt lat="-27.6083127" lon="152.8960105">
<ele>0.000</ele>
<time>2017-09-16T22:47:36.440Z</time>
</trkpt>
<trkpt lat="-27.6081584" lon="152.8959199">
<ele>0.000</ele>
<time>2017-09-16T22:47:46.035Z</time>
</trkpt>
<trkpt lat="-27.6080661" lon="152.8959479">
<ele>0.000</ele>
<time>2017-09-16T22:47:48.084Z</time>
</trkpt>
<trkpt lat="-27.6079744" lon="152.8959870">
<ele>0.000</ele>
<time>2017-09-16T22:47:49.989Z</time>
</trkpt>
<trkpt lat="-27.6078645" lon="152.8960720">
<ele>0.000</ele>
<time>2017-09-16T22:47:52.831Z</time>
</trkpt>
<trkpt lat="-27.6077705" lon="152.8961082">
<ele>0.000</ele>
<time>2017-09-16T22:47:55.290Z</time>
</trkpt>
<trkpt lat="-27.6076578" lon="152.8961578">
<ele>0.000</ele>
<time>2017-09-16T22:47:58.657Z</time>
</trkpt>
<trkpt lat="-27.6075569" lon="152.8962037">
<ele>0.000</ele>
<time>2017-09-16T22:48:01.998Z</time>
</trkpt>
<trkpt lat="-27.6075569" lon="152.8962037">
<ele>0.000</ele>
<time>2017-09-16T22:48:08.998Z</time>
</trkpt>
<trkpt lat="-27.6075569" lon="152.8962037">
<ele>0.000</ele>
<time>2017-09-16T22:48:15.461Z</time>
</trkpt>
<trkpt lat="-27.6073271" lon="152.8961999">
<ele>0.000</ele>
<time>2017-09-16T22:48:21.932Z</time>
</trkpt>
<trkpt lat="-27.6071920" lon="152.8960126">
<ele>0.000</ele>
<time>2017-09-16T22:48:24.556Z</time>
</trkpt>
<trkpt lat="-27.6069327" lon="152.8957063">
<ele>0.000</ele>
<time>2017-09-16T22:48:27.637Z</time>
</trkpt>
<trkpt lat="-27.6065761" lon="152.8953125">
<ele>0.000</ele>
<time>2017-09-16T22:48:30.758Z</time>
</trkpt>
<trkpt lat="-27.6062977" lon="152.8950279">
<ele>0.000</ele>
<time>2017-09-16T22:48:32.714Z</time>
</trkpt>
<trkpt lat="-27.6058646" lon="152.8945384">
<ele>0.000</ele>
<time>2017-09-16T22:48:35.735Z</time>
</trkpt>
<trkpt lat="-27.6055656" lon="152.8942015">
<ele>0.000</ele>
<time>2017-09-16T22:48:37.728Z</time>
</trkpt>
<trkpt lat="-27.6053007" lon="152.8938345">
<ele>0.000</ele>
<time>2017-09-16T22:48:39.710Z</time>
</trkpt>
<trkpt lat="-27.6049775" lon="152.8932214">
<ele>2.017</ele>
<time>2017-09-16T22:48:42.668Z</time>
</trkpt>
<trkpt lat="-27.6046340" lon="152.8925723">
<ele>3.567</ele>
<time>2017-09-16T22:48:45.694Z</time>
</trkpt>
<trkpt lat="-27.6044740" lon="152.8920747">
<ele>4.713</ele>
<time>2017-09-16T22:48:47.735Z</time>
</trkpt>
<trkpt lat="-27.6041529" lon="152.8913901">
<ele>5.756</ele>
<time>2017-09-16T22:48:50.742Z</time>
</trkpt>
<trkpt lat="-27.6038480" lon="152.8907191">
<ele>6.627</ele>
<time>2017-09-16T22:48:53.717Z</time>
</trkpt>
<trkpt lat="-27.6035192" lon="152.8900725">
<ele>7.188</ele>
<time>2017-09-16T22:48:56.681Z</time>
</trkpt>
<trkpt lat="-27.6033487" lon="152.8896031">
<ele>7.477</ele>
<time>2017-09-16T22:48:58.730Z</time>
</trkpt>
<trkpt lat="-27.6031405" lon="152.8891884">
<ele>7.625</ele>
<time>2017-09-16T22:49:00.720Z</time>
</trkpt>
<trkpt lat="-27.6029809" lon="152.8887658">
<ele>7.720</ele>
<time>2017-09-16T22:49:02.693Z</time>
</trkpt>
<trkpt lat="-27.6027468" lon="152.8881315">
<ele>7.778</ele>
<time>2017-09-16T22:49:05.692Z</time>
</trkpt>
<trkpt lat="-27.6025127" lon="152.8875141">
<ele>7.867</ele>
<time>2017-09-16T22:49:08.699Z</time>
</trkpt>
<trkpt lat="-27.6022987" lon="152.8869208">
<ele>8.144</ele>
<time>2017-09-16T22:49:11.666Z</time>
</trkpt>
<trkpt lat="-27.6021059" lon="152.8863369">
<ele>8.613</ele>
<time>2017-09-16T22:49:14.631Z</time>
</trkpt>
<trkpt lat="-27.6020210" lon="152.8859271">
<ele>9.089</ele>
<time>2017-09-16T22:49:16.647Z</time>
</trkpt>
<trkpt lat="-27.6018672" lon="152.8855503">
<ele>9.516</ele>
<time>2017-09-16T22:49:18.637Z</time>
</trkpt>
<trkpt lat="-27.6017529" lon="152.8851581">
<ele>9.949</ele>
<time>2017-09-16T22:49:20.628Z</time>
</trkpt>
<trkpt lat="-27.6015961" lon="152.8845731">
<ele>10.304</ele>
<time>2017-09-16T22:49:23.552Z</time>
</trkpt>
<trkpt lat="-27.6014813" lon="152.8839564">
<ele>10.457</ele>
<time>2017-09-16T22:49:26.507Z</time>
</trkpt>
<trkpt lat="-27.6013572" lon="152.8833200">
<ele>10.387</ele>
<time>2017-09-16T22:49:29.514Z</time>
</trkpt>
<trkpt lat="-27.6012713" lon="152.8826767">
<ele>10.126</ele>
<time>2017-09-16T22:49:32.499Z</time>
</trkpt>
<trkpt lat="-27.6011892" lon="152.8820315">
<ele>9.669</ele>
<time>2017-09-16T22:49:35.487Z</time>
</trkpt>
<trkpt lat="-27.6011371" lon="152.8813865">
<ele>8.828</ele>
<time>2017-09-16T22:49:38.422Z</time>
</trkpt>
<trkpt lat="-27.6011159" lon="152.8807060">
<ele>7.410</ele>
<time>2017-09-16T22:49:41.414Z</time>
</trkpt>
<trkpt lat="-27.6011026" lon="152.8800018">
<ele>5.594</ele>
<time>2017-09-16T22:49:44.430Z</time>
</trkpt>
<trkpt lat="-27.6011170" lon="152.8793098">
<ele>3.935</ele>
<time>2017-09-16T22:49:47.375Z</time>
</trkpt>
<trkpt lat="-27.6011719" lon="152.8788381">
<ele>2.790</ele>
<time>2017-09-16T22:49:49.372Z</time>
</trkpt>
<trkpt lat="-27.6011736" lon="152.8781051">
<ele>2.119</ele>
<time>2017-09-16T22:49:52.407Z</time>
</trkpt>
<trkpt lat="-27.6012127" lon="152.8776168">
<ele>1.810</ele>
<time>2017-09-16T22:49:54.408Z</time>
</trkpt>
<trkpt lat="-27.6012988" lon="152.8768870">
<ele>1.781</ele>
<time>2017-09-16T22:49:57.400Z</time>
</trkpt>
<trkpt lat="-27.6014223" lon="152.8761612">
<ele>1.915</ele>
<time>2017-09-16T22:50:00.388Z</time>
</trkpt>
<trkpt lat="-27.6014938" lon="152.8756685">
<ele>2.201</ele>
<time>2017-09-16T22:50:02.401Z</time>
</trkpt>
<trkpt lat="-27.6016112" lon="152.8751950">
<ele>2.598</ele>
<time>2017-09-16T22:50:04.380Z</time>
</trkpt>
<trkpt lat="-27.6017397" lon="152.8744607">
<ele>2.939</ele>
<time>2017-09-16T22:50:07.386Z</time>
</trkpt>
<trkpt lat="-27.6019202" lon="152.8740037">
<ele>3.227</ele>
<time>2017-09-16T22:50:09.394Z</time>
</trkpt>
<trkpt lat="-27.6021371" lon="152.8733003">
<ele>3.653</ele>
<time>2017-09-16T22:50:12.389Z</time>
</trkpt>
<trkpt lat="-27.6023817" lon="152.8726174">
<ele>4.161</ele>
<time>2017-09-16T22:50:15.346Z</time>
</trkpt>
<trkpt lat="-27.6026179" lon="152.8719083">
<ele>4.550</ele>
<time>2017-09-16T22:50:18.362Z</time>
</trkpt>
<trkpt lat="-27.6029532" lon="152.8712558">
<ele>4.814</ele>
<time>2017-09-16T22:50:21.365Z</time>
</trkpt>
<trkpt lat="-27.6031172" lon="152.8708024">
<ele>5.018</ele>
<time>2017-09-16T22:50:23.339Z</time>
</trkpt>
<trkpt lat="-27.6033723" lon="152.8701349">
<ele>5.211</ele>
<time>2017-09-16T22:50:26.291Z</time>
</trkpt>
<trkpt lat="-27.6036335" lon="152.8694687">
<ele>5.573</ele>
<time>2017-09-16T22:50:29.261Z</time>
</trkpt>
<trkpt lat="-27.6038279" lon="152.8687682">
<ele>6.311</ele>
<time>2017-09-16T22:50:32.257Z</time>
</trkpt>
<trkpt lat="-27.6039998" lon="152.8680596">
<ele>7.462</ele>
<time>2017-09-16T22:50:35.286Z</time>
</trkpt>
<trkpt lat="-27.6041500" lon="152.8676280">
<ele>8.917</ele>
<time>2017-09-16T22:50:37.248Z</time>
</trkpt>
<trkpt lat="-27.6042699" lon="152.8669535">
<ele>10.418</ele>
<time>2017-09-16T22:50:40.172Z</time>
</trkpt>
<trkpt lat="-27.6043758" lon="152.8664833">
<ele>11.768</ele>
<time>2017-09-16T22:50:42.182Z</time>
</trkpt>
<trkpt lat="-27.6045411" lon="152.8657411">
<ele>13.013</ele>
<time>2017-09-16T22:50:45.285Z</time>
</trkpt>
<trkpt lat="-27.6045579" lon="152.8649979">
<ele>14.294</ele>
<time>2017-09-16T22:50:48.249Z</time>
</trkpt>
<trkpt lat="-27.6045128" lon="152.8644890">
<ele>15.624</ele>
<time>2017-09-16T22:50:50.250Z</time>
</trkpt>
<trkpt lat="-27.6044906" lon="152.8639747">
<ele>16.829</ele>
<time>2017-09-16T22:50:52.237Z</time>
</trkpt>
<trkpt lat="-27.6043715" lon="152.8634719">
<ele>17.706</ele>
<time>2017-09-16T22:50:54.222Z</time>
</trkpt>
<trkpt lat="-27.6041786" lon="152.8627155">
<ele>18.222</ele>
<time>2017-09-16T22:50:57.205Z</time>
</trkpt>
<trkpt lat="-27.6040190" lon="152.8622186">
<ele>18.391</ele>
<time>2017-09-16T22:50:59.202Z</time>
</trkpt>
<trkpt lat="-27.6037572" lon="152.8617763">
<ele>18.202</ele>
<time>2017-09-16T22:51:01.217Z</time>
</trkpt>
<trkpt lat="-27.6034042" lon="152.8611100">
<ele>17.597</ele>
<time>2017-09-16T22:51:04.175Z</time>
</trkpt>
<trkpt lat="-27.6030002" lon="152.8605056">
<ele>16.400</ele>
<time>2017-09-16T22:51:07.090Z</time>
</trkpt>
<trkpt lat="-27.6025505" lon="152.8599313">
<ele>14.478</ele>
<time>2017-09-16T22:51:10.062Z</time>
</trkpt>
<trkpt lat="-27.6022042" lon="152.8596005">
<ele>12.032</ele>
<time>2017-09-16T22:51:12.049Z</time>
</trkpt>
<trkpt lat="-27.6017012" lon="152.8590896">
<ele>9.637</ele>
<time>2017-09-16T22:51:15.015Z</time>
</trkpt>
<trkpt lat="-27.6013921" lon="152.8587219">
<ele>7.797</ele>
<time>2017-09-16T22:51:16.985Z</time>
</trkpt>
<trkpt lat="-27.6008946" lon="152.8581926">
<ele>6.579</ele>
<time>2017-09-16T22:51:19.971Z</time>
</trkpt>
<trkpt lat="-27.6005672" lon="152.8578276">
<ele>5.734</ele>
<time>2017-09-16T22:51:21.959Z</time>
</trkpt>
<trkpt lat="-27.6002039" lon="152.8575029">
<ele>5.050</ele>
<time>2017-09-16T22:51:23.951Z</time>
</trkpt>
<trkpt lat="-27.5998909" lon="152.8571129">
<ele>4.538</ele>
<time>2017-09-16T22:51:25.967Z</time>
</trkpt>
<trkpt lat="-27.5994022" lon="152.8565769">
<ele>4.324</ele>
<time>2017-09-16T22:51:28.931Z</time>
</trkpt>
<trkpt lat="-27.5989114" lon="152.8560296">
<ele>4.554</ele>
<time>2017-09-16T22:51:31.920Z</time>
</trkpt>
<trkpt lat="-27.5986169" lon="152.8556212">
<ele>5.255</ele>
<time>2017-09-16T22:51:33.921Z</time>
</trkpt>
<trkpt lat="-27.5983548" lon="152.8551912">
<ele>6.238</ele>
<time>2017-09-16T22:51:35.901Z</time>
</trkpt>
<trkpt lat="-27.5981402" lon="152.8547280">
<ele>7.358</ele>
<time>2017-09-16T22:51:37.897Z</time>
</trkpt>
<trkpt lat="-27.5978759" lon="152.8540135">
<ele>8.682</ele>
<time>2017-09-16T22:51:40.890Z</time>
</trkpt>
<trkpt lat="-27.5977240" lon="152.8535447">
<ele>10.330</ele>
<time>2017-09-16T22:51:42.842Z</time>
</trkpt>
<trkpt lat="-27.5975576" lon="152.8528094">
<ele>12.233</ele>
<time>2017-09-16T22:51:45.813Z</time>
</trkpt>
<trkpt lat="-27.5974957" lon="152.8523133">
<ele>14.243</ele>
<time>2017-09-16T22:51:47.767Z</time>
</trkpt>
<trkpt lat="-27.5974372" lon="152.8515486">
<ele>16.370</ele>
<time>2017-09-16T22:51:50.739Z</time>
</trkpt>
<trkpt lat="-27.5974184" lon="152.8510246">
<ele>18.733</ele>
<time>2017-09-16T22:51:52.753Z</time>
</trkpt>
<trkpt lat="-27.5974123" lon="152.8505074">
<ele>21.179</ele>
<time>2017-09-16T22:51:54.741Z</time>
</trkpt>
<trkpt lat="-27.5973209" lon="152.8497483">
<ele>23.253</ele>
<time>2017-09-16T22:51:57.693Z</time>
</trkpt>
<trkpt lat="-27.5972954" lon="152.8492310">
<ele>24.648</ele>
<time>2017-09-16T22:51:59.684Z</time>
</trkpt>
<trkpt lat="-27.5972157" lon="152.8484637">
<ele>25.478</ele>
<time>2017-09-16T22:52:02.646Z</time>
</trkpt>
<trkpt lat="-27.5971471" lon="152.8479566">
<ele>25.951</ele>
<time>2017-09-16T22:52:04.613Z</time>
</trkpt>
<trkpt lat="-27.5970768" lon="152.8474524">
<ele>26.221</ele>
<time>2017-09-16T22:52:06.575Z</time>
</trkpt>
<trkpt lat="-27.5969882" lon="152.8466823">
<ele>26.367</ele>
<time>2017-09-16T22:52:09.574Z</time>
</trkpt>
<trkpt lat="-27.5968805" lon="152.8462124">
<ele>26.398</ele>
<time>2017-09-16T22:52:11.532Z</time>
</trkpt>
<trkpt lat="-27.5968512" lon="152.8455561">
<ele>26.203</ele>
<time>2017-09-16T22:52:14.363Z</time>
</trkpt>
<trkpt lat="-27.5967935" lon="152.8451335">
<ele>25.586</ele>
<time>2017-09-16T22:52:16.313Z</time>
</trkpt>
<trkpt lat="-27.5967351" lon="152.8444948">
<ele>24.586</ele>
<time>2017-09-16T22:52:19.273Z</time>
</trkpt>
<trkpt lat="-27.5966552" lon="152.8438473">
<ele>23.640</ele>
<time>2017-09-16T22:52:22.257Z</time>
</trkpt>
<trkpt lat="-27.5966990" lon="152.8431800">
<ele>23.178</ele>
<time>2017-09-16T22:52:25.289Z</time>
</trkpt>
<trkpt lat="-27.5966279" lon="152.8425309">
<ele>23.257</ele>
<time>2017-09-16T22:52:28.256Z</time>
</trkpt>
<trkpt lat="-27.5965202" lon="152.8421152">
<ele>23.685</ele>
<time>2017-09-16T22:52:30.227Z</time>
</trkpt>
<trkpt lat="-27.5962793" lon="152.8415198">
<ele>24.249</ele>
<time>2017-09-16T22:52:33.222Z</time>
</trkpt>
<trkpt lat="-27.5958866" lon="152.8410360">
<ele>24.791</ele>
<time>2017-09-16T22:52:36.216Z</time>
</trkpt>
<trkpt lat="-27.5955858" lon="152.8407543">
<ele>25.242</ele>
<time>2017-09-16T22:52:38.211Z</time>
</trkpt>
<trkpt lat="-27.5950562" lon="152.8404511">
<ele>25.620</ele>
<time>2017-09-16T22:52:41.226Z</time>
</trkpt>
<trkpt lat="-27.5947108" lon="152.8402430">
<ele>25.905</ele>
<time>2017-09-16T22:52:43.204Z</time>
</trkpt>
<trkpt lat="-27.5941736" lon="152.8399300">
<ele>26.024</ele>
<time>2017-09-16T22:52:46.200Z</time>
</trkpt>
<trkpt lat="-27.5937901" lon="152.8397085">
<ele>25.800</ele>
<time>2017-09-16T22:52:48.241Z</time>
</trkpt>
<trkpt lat="-27.5934462" lon="152.8393997">
<ele>25.097</ele>
<time>2017-09-16T22:52:50.249Z</time>
</trkpt>
<trkpt lat="-27.5928512" lon="152.8388936">
<ele>23.976</ele>
<time>2017-09-16T22:52:53.578Z</time>
</trkpt>
<trkpt lat="-27.5925342" lon="152.8385150">
<ele>22.363</ele>
<time>2017-09-16T22:52:55.627Z</time>
</trkpt>
<trkpt lat="-27.5922501" lon="152.8381235">
<ele>20.098</ele>
<time>2017-09-16T22:52:57.638Z</time>
</trkpt>
<trkpt lat="-27.5919045" lon="152.8374952">
<ele>17.411</ele>
<time>2017-09-16T22:53:00.603Z</time>
</trkpt>
<trkpt lat="-27.5917609" lon="152.8370415">
<ele>14.721</ele>
<time>2017-09-16T22:53:02.546Z</time>
</trkpt>
<trkpt lat="-27.5915865" lon="152.8366039">
<ele>12.419</ele>
<time>2017-09-16T22:53:04.488Z</time>
</trkpt>
<trkpt lat="-27.5913728" lon="152.8359269">
<ele>10.912</ele>
<time>2017-09-16T22:53:07.414Z</time>
</trkpt>
<trkpt lat="-27.5912605" lon="152.8354574">
<ele>10.311</ele>
<time>2017-09-16T22:53:09.400Z</time>
</trkpt>
<trkpt lat="-27.5911322" lon="152.8347295">
<ele>10.454</ele>
<time>2017-09-16T22:53:12.411Z</time>
</trkpt>
<trkpt lat="-27.5909949" lon="152.8342482">
<ele>11.237</ele>
<time>2017-09-16T22:53:14.448Z</time>
</trkpt>
<trkpt lat="-27.5909291" lon="152.8335094">
<ele>12.461</ele>
<time>2017-09-16T22:53:17.438Z</time>
</trkpt>
<trkpt lat="-27.5908383" lon="152.8327756">
<ele>13.770</ele>
<time>2017-09-16T22:53:20.433Z</time>
</trkpt>
<trkpt lat="-27.5907055" lon="152.8320470">
<ele>14.879</ele>
<time>2017-09-16T22:53:23.428Z</time>
</trkpt>
<trkpt lat="-27.5906225" lon="152.8315515">
<ele>15.644</ele>
<time>2017-09-16T22:53:25.439Z</time>
</trkpt>
<trkpt lat="-27.5905742" lon="152.8310580">
<ele>16.044</ele>
<time>2017-09-16T22:53:27.412Z</time>
</trkpt>
<trkpt lat="-27.5904124" lon="152.8303015">
<ele>16.115</ele>
<time>2017-09-16T22:53:30.506Z</time>
</trkpt>
<trkpt lat="-27.5903819" lon="152.8295559">
<ele>15.844</ele>
<time>2017-09-16T22:53:33.477Z</time>
</trkpt>
<trkpt lat="-27.5902586" lon="152.8290769">
<ele>15.176</ele>
<time>2017-09-16T22:53:35.462Z</time>
</trkpt>
<trkpt lat="-27.5902362" lon="152.8285646">
<ele>14.085</ele>
<time>2017-09-16T22:53:37.500Z</time>
</trkpt>
<trkpt lat="-27.5901122" lon="152.8278336">
<ele>12.639</ele>
<time>2017-09-16T22:53:40.465Z</time>
</trkpt>
<trkpt lat="-27.5900095" lon="152.8271148">
<ele>10.817</ele>
<time>2017-09-16T22:53:43.397Z</time>
</trkpt>
<trkpt lat="-27.5899512" lon="152.8266340">
<ele>8.703</ele>
<time>2017-09-16T22:53:45.365Z</time>
</trkpt>
<trkpt lat="-27.5899747" lon="152.8261307">
<ele>6.880</ele>
<time>2017-09-16T22:53:47.393Z</time>
</trkpt>
<trkpt lat="-27.5898551" lon="152.8256546">
<ele>5.978</ele>
<time>2017-09-16T22:53:49.368Z</time>
</trkpt>
<trkpt lat="-27.5897281" lon="152.8251683">
<ele>6.083</ele>
<time>2017-09-16T22:53:51.382Z</time>
</trkpt>
<trkpt lat="-27.5895725" lon="152.8246977">
<ele>6.922</ele>
<time>2017-09-16T22:53:53.366Z</time>
</trkpt>
<trkpt lat="-27.5892359" lon="152.8240394">
<ele>8.012</ele>
<time>2017-09-16T22:53:56.363Z</time>
</trkpt>
<trkpt lat="-27.5889631" lon="152.8236401">
<ele>8.800</ele>
<time>2017-09-16T22:53:58.349Z</time>
</trkpt>
<trkpt lat="-27.5886952" lon="152.8232084">
<ele>9.062</ele>
<time>2017-09-16T22:54:00.403Z</time>
</trkpt>
<trkpt lat="-27.5883909" lon="152.8228191">
<ele>8.898</ele>
<time>2017-09-16T22:54:02.403Z</time>
</trkpt>
<trkpt lat="-27.5879224" lon="152.8222539">
<ele>8.403</ele>
<time>2017-09-16T22:54:05.375Z</time>
</trkpt>
<trkpt lat="-27.5875976" lon="152.8218804">
<ele>7.563</ele>
<time>2017-09-16T22:54:07.369Z</time>
</trkpt>
<trkpt lat="-27.5872673" lon="152.8215104">
<ele>6.445</ele>
<time>2017-09-16T22:54:09.361Z</time>
</trkpt>
<trkpt lat="-27.5867889" lon="152.8209491">
<ele>5.306</ele>
<time>2017-09-16T22:54:12.325Z</time>
</trkpt>
<trkpt lat="-27.5865258" lon="152.8205205">
<ele>4.300</ele>
<time>2017-09-16T22:54:14.317Z</time>
</trkpt>
<trkpt lat="-27.5862115" lon="152.8201356">
<ele>3.445</ele>
<time>2017-09-16T22:54:16.311Z</time>
</trkpt>
<trkpt lat="-27.5857501" lon="152.8195425">
<ele>2.846</ele>
<time>2017-09-16T22:54:19.310Z</time>
</trkpt>
<trkpt lat="-27.5852662" lon="152.8189844">
<ele>2.565</ele>
<time>2017-09-16T22:54:22.278Z</time>
</trkpt>
<trkpt lat="-27.5849485" lon="152.8186028">
<ele>2.535</ele>
<time>2017-09-16T22:54:24.272Z</time>
</trkpt>
<trkpt lat="-27.5845227" lon="152.8179817">
<ele>2.698</ele>
<time>2017-09-16T22:54:27.266Z</time>
</trkpt>
<trkpt lat="-27.5841940" lon="152.8176089">
<ele>3.051</ele>
<time>2017-09-16T22:54:29.271Z</time>
</trkpt>
<trkpt lat="-27.5838638" lon="152.8172342">
<ele>3.571</ele>
<time>2017-09-16T22:54:31.283Z</time>
</trkpt>
<trkpt lat="-27.5835153" lon="152.8165545">
<ele>4.111</ele>
<time>2017-09-16T22:54:34.268Z</time>
</trkpt>
<trkpt lat="-27.5832432" lon="152.8158281">
<ele>4.535</ele>
<time>2017-09-16T22:54:37.250Z</time>
</trkpt>
<trkpt lat="-27.5830804" lon="152.8153322">
<ele>4.865</ele>
<time>2017-09-16T22:54:39.244Z</time>
</trkpt>
<trkpt lat="-27.5829544" lon="152.8148285">
<ele>5.122</ele>
<time>2017-09-16T22:54:41.224Z</time>
</trkpt>
<trkpt lat="-27.5827966" lon="152.8140621">
<ele>5.183</ele>
<time>2017-09-16T22:54:44.209Z</time>
</trkpt>
<trkpt lat="-27.5826297" lon="152.8135672">
<ele>4.946</ele>
<time>2017-09-16T22:54:46.224Z</time>
</trkpt>
<trkpt lat="-27.5825553" lon="152.8130489">
<ele>4.526</ele>
<time>2017-09-16T22:54:48.224Z</time>
</trkpt>
<trkpt lat="-27.5824265" lon="152.8125443">
<ele>4.101</ele>
<time>2017-09-16T22:54:50.221Z</time>
</trkpt>
<trkpt lat="-27.5821711" lon="152.8118203">
<ele>3.761</ele>
<time>2017-09-16T22:54:53.177Z</time>
</trkpt>
<trkpt lat="-27.5820188" lon="152.8113149">
<ele>3.566</ele>
<time>2017-09-16T22:54:55.198Z</time>
</trkpt>
<trkpt lat="-27.5815965" lon="152.8106865">
<ele>3.473</ele>
<time>2017-09-16T22:54:58.178Z</time>
</trkpt>
<trkpt lat="-27.5813113" lon="152.8102724">
<ele>3.290</ele>
<time>2017-09-16T22:55:00.163Z</time>
</trkpt>
<trkpt lat="-27.5808859" lon="152.8096510">
<ele>2.912</ele>
<time>2017-09-16T22:55:03.143Z</time>
</trkpt>
<trkpt lat="-27.5806237" lon="152.8092193">
<ele>2.432</ele>
<time>2017-09-16T22:55:05.135Z</time>
</trkpt>
<trkpt lat="-27.5803086" lon="152.8088348">
<ele>1.993</ele>
<time>2017-09-16T22:55:07.131Z</time>
</trkpt>
<trkpt lat="-27.5799253" lon="152.8081773">
<ele>1.693</ele>
<time>2017-09-16T22:55:10.131Z</time>
</trkpt>
<trkpt lat="-27.5794977" lon="152.8075629">
<ele>1.565</ele>
<time>2017-09-16T22:55:13.115Z</time>
</trkpt>
<trkpt lat="-27.5790876" lon="152.8069608">
<ele>1.555</ele>
<time>2017-09-16T22:55:16.060Z</time>
</trkpt>
<trkpt lat="-27.5788007" lon="152.8065726">
<ele>1.591</ele>
<time>2017-09-16T22:55:18.048Z</time>
</trkpt>
<trkpt lat="-27.5784346" lon="152.8059314">
<ele>1.714</ele>
<time>2017-09-16T22:55:21.046Z</time>
</trkpt>
<trkpt lat="-27.5781168" lon="152.8055634">
<ele>2.141</ele>
<time>2017-09-16T22:55:23.061Z</time>
</trkpt>
<trkpt lat="-27.5777231" lon="152.8049527">
<ele>2.916</ele>
<time>2017-09-16T22:55:26.038Z</time>
</trkpt>
<trkpt lat="-27.5774797" lon="152.8045287">
<ele>3.677</ele>
<time>2017-09-16T22:55:28.042Z</time>
</trkpt>
<trkpt lat="-27.5770257" lon="152.8039660">
<ele>4.092</ele>
<time>2017-09-16T22:55:31.050Z</time>
</trkpt>
<trkpt lat="-27.5766166" lon="152.8033602">
<ele>4.091</ele>
<time>2017-09-16T22:55:34.042Z</time>
</trkpt>
<trkpt lat="-27.5762328" lon="152.8027449">
<ele>3.625</ele>
<time>2017-09-16T22:55:37.016Z</time>
</trkpt>
<trkpt lat="-27.5760891" lon="152.8022694">
<ele>2.724</ele>
<time>2017-09-16T22:55:39.020Z</time>
</trkpt>
<trkpt lat="-27.5759561" lon="152.8017848">
<ele>1.738</ele>
<time>2017-09-16T22:55:41.038Z</time>
</trkpt>
<trkpt lat="-27.5757606" lon="152.8010621">
<ele>1.161</ele>
<time>2017-09-16T22:55:44.034Z</time>
</trkpt>
<trkpt lat="-27.5755822" lon="152.8006019">
<ele>1.341</ele>
<time>2017-09-16T22:55:46.027Z</time>
</trkpt>
<trkpt lat="-27.5753831" lon="152.7998772">
<ele>2.267</ele>
<time>2017-09-16T22:55:49.042Z</time>
</trkpt>
<trkpt lat="-27.5752355" lon="152.7994053">
<ele>3.626</ele>
<time>2017-09-16T22:55:51.033Z</time>
</trkpt>
<trkpt lat="-27.5750126" lon="152.7986886">
<ele>5.051</ele>
<time>2017-09-16T22:55:54.043Z</time>
</trkpt>
<trkpt lat="-27.5747254" lon="152.7979932">
<ele>6.260</ele>
<time>2017-09-16T22:55:57.061Z</time>
</trkpt>
<trkpt lat="-27.5745061" lon="152.7972696">
<ele>7.091</ele>
<time>2017-09-16T22:56:00.064Z</time>
</trkpt>
<trkpt lat="-27.5742411" lon="152.7965727">
<ele>7.543</ele>
<time>2017-09-16T22:56:03.042Z</time>
</trkpt>
<trkpt lat="-27.5740750" lon="152.7960935">
<ele>7.658</ele>
<time>2017-09-16T22:56:05.058Z</time>
</trkpt>
<trkpt lat="-27.5739160" lon="152.7953602">
<ele>7.530</ele>
<time>2017-09-16T22:56:08.024Z</time>
</trkpt>
<trkpt lat="-27.5738728" lon="152.7948572">
<ele>7.257</ele>
<time>2017-09-16T22:56:10.024Z</time>
</trkpt>
<trkpt lat="-27.5738240" lon="152.7941177">
<ele>6.821</ele>
<time>2017-09-16T22:56:12.985Z</time>
</trkpt>
<trkpt lat="-27.5738325" lon="152.7933773">
<ele>6.200</ele>
<time>2017-09-16T22:56:15.965Z</time>
</trkpt>
<trkpt lat="-27.5739832" lon="152.7926548">
<ele>5.548</ele>
<time>2017-09-16T22:56:18.963Z</time>
</trkpt>
<trkpt lat="-27.5741523" lon="152.7919327">
<ele>5.092</ele>
<time>2017-09-16T22:56:21.972Z</time>
</trkpt>
<trkpt lat="-27.5742688" lon="152.7911906">
<ele>4.924</ele>
<time>2017-09-16T22:56:24.993Z</time>
</trkpt>
<trkpt lat="-27.5744517" lon="152.7904772">
<ele>5.058</ele>
<time>2017-09-16T22:56:27.970Z</time>
</trkpt>
<trkpt lat="-27.5745757" lon="152.7900216">
<ele>5.515</ele>
<time>2017-09-16T22:56:29.914Z</time>
</trkpt>
<trkpt lat="-27.5746956" lon="152.7893254">
<ele>6.175</ele>
<time>2017-09-16T22:56:32.858Z</time>
</trkpt>
<trkpt lat="-27.5748487" lon="152.7888788">
<ele>6.857</ele>
<time>2017-09-16T22:56:34.854Z</time>
</trkpt>
<trkpt lat="-27.5749403" lon="152.7884204">
<ele>7.522</ele>
<time>2017-09-16T22:56:36.821Z</time>
</trkpt>
<trkpt lat="-27.5751550" lon="152.7877414">
<ele>8.234</ele>
<time>2017-09-16T22:56:39.836Z</time>
</trkpt>
<trkpt lat="-27.5752452" lon="152.7872716">
<ele>9.101</ele>
<time>2017-09-16T22:56:41.836Z</time>
</trkpt>
<trkpt lat="-27.5753121" lon="152.7867989">
<ele>10.155</ele>
<time>2017-09-16T22:56:43.829Z</time>
</trkpt>
<trkpt lat="-27.5754794" lon="152.7861135">
<ele>11.231</ele>
<time>2017-09-16T22:56:46.791Z</time>
</trkpt>
<trkpt lat="-27.5755971" lon="152.7854198">
<ele>12.253</ele>
<time>2017-09-16T22:56:49.759Z</time>
</trkpt>
<trkpt lat="-27.5757741" lon="152.7847423">
<ele>13.274</ele>
<time>2017-09-16T22:56:52.749Z</time>
</trkpt>
<trkpt lat="-27.5759241" lon="152.7842844">
<ele>14.206</ele>
<time>2017-09-16T22:56:54.785Z</time>
</trkpt>
<trkpt lat="-27.5760401" lon="152.7837948">
<ele>14.907</ele>
<time>2017-09-16T22:56:56.836Z</time>
</trkpt>
<trkpt lat="-27.5762758" lon="152.7830776">
<ele>15.340</ele>
<time>2017-09-16T22:56:59.856Z</time>
</trkpt>
<trkpt lat="-27.5764946" lon="152.7823655">
<ele>15.444</ele>
<time>2017-09-16T22:57:02.821Z</time>
</trkpt>
<trkpt lat="-27.5766068" lon="152.7818849">
<ele>15.061</ele>
<time>2017-09-16T22:57:04.783Z</time>
</trkpt>
<trkpt lat="-27.5767484" lon="152.7814055">
<ele>14.113</ele>
<time>2017-09-16T22:57:06.781Z</time>
</trkpt>
<trkpt lat="-27.5769677" lon="152.7806937">
<ele>12.722</ele>
<time>2017-09-16T22:57:09.759Z</time>
</trkpt>
<trkpt lat="-27.5771135" lon="152.7802199">
<ele>10.880</ele>
<time>2017-09-16T22:57:11.736Z</time>
</trkpt>
<trkpt lat="-27.5773324" lon="152.7795078">
<ele>8.576</ele>
<time>2017-09-16T22:57:14.714Z</time>
</trkpt>
<trkpt lat="-27.5776519" lon="152.7788450">
<ele>6.050</ele>
<time>2017-09-16T22:57:17.717Z</time>
</trkpt>
<trkpt lat="-27.5778424" lon="152.7781187">
<ele>3.842</ele>
<time>2017-09-16T22:57:20.737Z</time>
</trkpt>
<trkpt lat="-27.5780148" lon="152.7776451">
<ele>2.647</ele>
<time>2017-09-16T22:57:22.761Z</time>
</trkpt>
<trkpt lat="-27.5782387" lon="152.7769216">
<ele>2.797</ele>
<time>2017-09-16T22:57:25.765Z</time>
</trkpt>
<trkpt lat="-27.5784047" lon="152.7764463">
<ele>4.114</ele>
<time>2017-09-16T22:57:27.763Z</time>
</trkpt>
<trkpt lat="-27.5785112" lon="152.7759523">
<ele>6.108</ele>
<time>2017-09-16T22:57:29.746Z</time>
</trkpt>
<trkpt lat="-27.5786281" lon="152.7754561">
<ele>7.980</ele>
<time>2017-09-16T22:57:31.744Z</time>
</trkpt>
<trkpt lat="-27.5787742" lon="152.7747072">
<ele>9.170</ele>
<time>2017-09-16T22:57:34.725Z</time>
</trkpt>
<trkpt lat="-27.5788908" lon="152.7742115">
<ele>9.661</ele>
<time>2017-09-16T22:57:36.719Z</time>
</trkpt>
<trkpt lat="-27.5789952" lon="152.7737178">
<ele>9.662</ele>
<time>2017-09-16T22:57:38.697Z</time>
</trkpt>
<trkpt lat="-27.5792425" lon="152.7730060">
<ele>9.436</ele>
<time>2017-09-16T22:57:41.682Z</time>
</trkpt>
<trkpt lat="-27.5793391" lon="152.7724898">
<ele>9.359</ele>
<time>2017-09-16T22:57:43.721Z</time>
</trkpt>
<trkpt lat="-27.5795583" lon="152.7717403">
<ele>9.814</ele>
<time>2017-09-16T22:57:46.726Z</time>
</trkpt>
<trkpt lat="-27.5796981" lon="152.7712394">
<ele>11.047</ele>
<time>2017-09-16T22:57:48.716Z</time>
</trkpt>
<trkpt lat="-27.5798412" lon="152.7707472">
<ele>13.060</ele>
<time>2017-09-16T22:57:50.681Z</time>
</trkpt>
<trkpt lat="-27.5799576" lon="152.7702529">
<ele>15.482</ele>
<time>2017-09-16T22:57:52.638Z</time>
</trkpt>
<trkpt lat="-27.5800712" lon="152.7697484">
<ele>17.771</ele>
<time>2017-09-16T22:57:54.651Z</time>
</trkpt>
<trkpt lat="-27.5802930" lon="152.7690151">
<ele>19.625</ele>
<time>2017-09-16T22:57:57.645Z</time>
</trkpt>
<trkpt lat="-27.5804330" lon="152.7685206">
<ele>21.198</ele>
<time>2017-09-16T22:57:59.639Z</time>
</trkpt>
<trkpt lat="-27.5805062" lon="152.7677612">
<ele>22.831</ele>
<time>2017-09-16T22:58:02.605Z</time>
</trkpt>
<trkpt lat="-27.5805349" lon="152.7672661">
<ele>24.626</ele>
<time>2017-09-16T22:58:04.570Z</time>
</trkpt>
<trkpt lat="-27.5805817" lon="152.7665609">
<ele>26.435</ele>
<time>2017-09-16T22:58:07.460Z</time>
</trkpt>
<trkpt lat="-27.5806565" lon="152.7658769">
<ele>28.077</ele>
<time>2017-09-16T22:58:10.383Z</time>
</trkpt>
<trkpt lat="-27.5807929" lon="152.7654447">
<ele>29.408</ele>
<time>2017-09-16T22:58:12.358Z</time>
</trkpt>
<trkpt lat="-27.5808959" lon="152.7649923">
<ele>30.301</ele>
<time>2017-09-16T22:58:14.367Z</time>
</trkpt>
<trkpt lat="-27.5809677" lon="152.7645338">
<ele>30.697</ele>
<time>2017-09-16T22:58:16.358Z</time>
</trkpt>
<trkpt lat="-27.5811001" lon="152.7638361">
<ele>30.661</ele>
<time>2017-09-16T22:58:19.381Z</time>
</trkpt>
<trkpt lat="-27.5812681" lon="152.7631530">
<ele>30.165</ele>
<time>2017-09-16T22:58:22.354Z</time>
</trkpt>
<trkpt lat="-27.5813963" lon="152.7626856">
<ele>29.147</ele>
<time>2017-09-16T22:58:24.389Z</time>
</trkpt>
<trkpt lat="-27.5815115" lon="152.7622192">
<ele>27.880</ele>
<time>2017-09-16T22:58:26.381Z</time>
</trkpt>
<trkpt lat="-27.5816140" lon="152.7617435">
<ele>26.889</ele>
<time>2017-09-16T22:58:28.371Z</time>
</trkpt>
<trkpt lat="-27.5817532" lon="152.7610290">
<ele>26.471</ele>
<time>2017-09-16T22:58:31.343Z</time>
</trkpt>
<trkpt lat="-27.5817571" lon="152.7603066">
<ele>26.656</ele>
<time>2017-09-16T22:58:34.308Z</time>
</trkpt>
<trkpt lat="-27.5817536" lon="152.7595891">
<ele>27.384</ele>
<time>2017-09-16T22:58:37.277Z</time>
</trkpt>
<trkpt lat="-27.5817904" lon="152.7591188">
<ele>28.487</ele>
<time>2017-09-16T22:58:39.242Z</time>
</trkpt>
<trkpt lat="-27.5817855" lon="152.7586396">
<ele>29.705</ele>
<time>2017-09-16T22:58:41.246Z</time>
</trkpt>
<trkpt lat="-27.5817541" lon="152.7579293">
<ele>30.877</ele>
<time>2017-09-16T22:58:44.243Z</time>
</trkpt>
<trkpt lat="-27.5816663" lon="152.7572458">
<ele>32.090</ele>
<time>2017-09-16T22:58:47.190Z</time>
</trkpt>
<trkpt lat="-27.5815803" lon="152.7567852">
<ele>33.573</ele>
<time>2017-09-16T22:58:49.200Z</time>
</trkpt>
<trkpt lat="-27.5814613" lon="152.7563311">
<ele>35.274</ele>
<time>2017-09-16T22:58:51.202Z</time>
</trkpt>
<trkpt lat="-27.5812158" lon="152.7556432">
<ele>36.859</ele>
<time>2017-09-16T22:58:54.288Z</time>
</trkpt>
<trkpt lat="-27.5809358" lon="152.7549801">
<ele>38.278</ele>
<time>2017-09-16T22:58:57.299Z</time>
</trkpt>
<trkpt lat="-27.5808174" lon="152.7545185">
<ele>39.912</ele>
<time>2017-09-16T22:58:59.265Z</time>
</trkpt>
<trkpt lat="-27.5807057" lon="152.7538198">
<ele>42.007</ele>
<time>2017-09-16T22:59:02.196Z</time>
</trkpt>
<trkpt lat="-27.5806842" lon="152.7531003">
<ele>44.486</ele>
<time>2017-09-16T22:59:05.183Z</time>
</trkpt>
<trkpt lat="-27.5806193" lon="152.7526213">
<ele>47.082</ele>
<time>2017-09-16T22:59:07.197Z</time>
</trkpt>
<trkpt lat="-27.5805952" lon="152.7518856">
<ele>49.305</ele>
<time>2017-09-16T22:59:10.232Z</time>
</trkpt>
<trkpt lat="-27.5805976" lon="152.7513950">
<ele>50.669</ele>
<time>2017-09-16T22:59:12.229Z</time>
</trkpt>
<trkpt lat="-27.5804978" lon="152.7506965">
<ele>51.097</ele>
<time>2017-09-16T22:59:15.121Z</time>
</trkpt>
<trkpt lat="-27.5803161" lon="152.7499768">
<ele>50.693</ele>
<time>2017-09-16T22:59:18.166Z</time>
</trkpt>
<trkpt lat="-27.5800367" lon="152.7492921">
<ele>49.515</ele>
<time>2017-09-16T22:59:21.170Z</time>
</trkpt>
<trkpt lat="-27.5797150" lon="152.7486425">
<ele>47.697</ele>
<time>2017-09-16T22:59:24.120Z</time>
</trkpt>
<trkpt lat="-27.5795662" lon="152.7481731">
<ele>45.463</ele>
<time>2017-09-16T22:59:26.105Z</time>
</trkpt>
<trkpt lat="-27.5794118" lon="152.7474441">
<ele>43.092</ele>
<time>2017-09-16T22:59:29.109Z</time>
</trkpt>
<trkpt lat="-27.5792764" lon="152.7467152">
<ele>40.717</ele>
<time>2017-09-16T22:59:32.093Z</time>
</trkpt>
<trkpt lat="-27.5792356" lon="152.7459766">
<ele>38.180</ele>
<time>2017-09-16T22:59:35.058Z</time>
</trkpt>
<trkpt lat="-27.5793061" lon="152.7454613">
<ele>35.493</ele>
<time>2017-09-16T22:59:37.133Z</time>
</trkpt>
<trkpt lat="-27.5793469" lon="152.7446786">
<ele>32.987</ele>
<time>2017-09-16T22:59:40.200Z</time>
</trkpt>
<trkpt lat="-27.5792851" lon="152.7439076">
<ele>30.708</ele>
<time>2017-09-16T22:59:43.209Z</time>
</trkpt>
<trkpt lat="-27.5793026" lon="152.7431561">
<ele>28.390</ele>
<time>2017-09-16T22:59:46.147Z</time>
</trkpt>
<trkpt lat="-27.5792943" lon="152.7423836">
<ele>26.096</ele>
<time>2017-09-16T22:59:49.177Z</time>
</trkpt>
<trkpt lat="-27.5792524" lon="152.7416144">
<ele>24.270</ele>
<time>2017-09-16T22:59:52.187Z</time>
</trkpt>
<trkpt lat="-27.5792611" lon="152.7411096">
<ele>23.134</ele>
<time>2017-09-16T22:59:54.157Z</time>
</trkpt>
<trkpt lat="-27.5792415" lon="152.7405977">
<ele>22.507</ele>
<time>2017-09-16T22:59:56.161Z</time>
</trkpt>
<trkpt lat="-27.5792568" lon="152.7398431">
<ele>22.164</ele>
<time>2017-09-16T22:59:59.127Z</time>
</trkpt>
<trkpt lat="-27.5792769" lon="152.7393313">
<ele>22.021</ele>
<time>2017-09-16T23:00:01.144Z</time>
</trkpt>
<trkpt lat="-27.5793350" lon="152.7388260">
<ele>22.103</ele>
<time>2017-09-16T23:00:03.142Z</time>
</trkpt>
<trkpt lat="-27.5795312" lon="152.7380871">
<ele>22.511</ele>
<time>2017-09-16T23:00:06.150Z</time>
</trkpt>
<trkpt lat="-27.5796501" lon="152.7375921">
<ele>23.347</ele>
<time>2017-09-16T23:00:08.142Z</time>
</trkpt>
<trkpt lat="-27.5797910" lon="152.7371076">
<ele>24.508</ele>
<time>2017-09-16T23:00:10.120Z</time>
</trkpt>
<trkpt lat="-27.5798609" lon="152.7366028">
<ele>25.595</ele>
<time>2017-09-16T23:00:12.105Z</time>
</trkpt>
<trkpt lat="-27.5800382" lon="152.7358865">
<ele>26.228</ele>
<time>2017-09-16T23:00:15.028Z</time>
</trkpt>
<trkpt lat="-27.5801986" lon="152.7351526">
<ele>26.302</ele>
<time>2017-09-16T23:00:18.037Z</time>
</trkpt>
<trkpt lat="-27.5803024" lon="152.7346686">
<ele>25.848</ele>
<time>2017-09-16T23:00:20.027Z</time>
</trkpt>
<trkpt lat="-27.5804834" lon="152.7339556">
<ele>25.062</ele>
<time>2017-09-16T23:00:23.002Z</time>
</trkpt>
<trkpt lat="-27.5806419" lon="152.7332551">
<ele>24.360</ele>
<time>2017-09-16T23:00:25.933Z</time>
</trkpt>
<trkpt lat="-27.5807022" lon="152.7325294">
<ele>24.160</ele>
<time>2017-09-16T23:00:28.912Z</time>
</trkpt>
<trkpt lat="-27.5807900" lon="152.7318088">
<ele>24.696</ele>
<time>2017-09-16T23:00:31.887Z</time>
</trkpt>
<trkpt lat="-27.5807836" lon="152.7310956">
<ele>25.910</ele>
<time>2017-09-16T23:00:34.819Z</time>
</trkpt>
<trkpt lat="-27.5808033" lon="152.7304564">
<ele>27.410</ele>
<time>2017-09-16T23:00:37.542Z</time>
</trkpt>
<trkpt lat="-27.5807629" lon="152.7300260">
<ele>28.762</ele>
<time>2017-09-16T23:00:39.451Z</time>
</trkpt>
<trkpt lat="-27.5806944" lon="152.7295912">
<ele>29.831</ele>
<time>2017-09-16T23:00:41.475Z</time>
</trkpt>
<trkpt lat="-27.5806312" lon="152.7289342">
<ele>30.744</ele>
<time>2017-09-16T23:00:44.484Z</time>
</trkpt>
<trkpt lat="-27.5806127" lon="152.7284889">
<ele>31.803</ele>
<time>2017-09-16T23:00:46.497Z</time>
</trkpt>
<trkpt lat="-27.5805362" lon="152.7278387">
<ele>33.317</ele>
<time>2017-09-16T23:00:49.437Z</time>
</trkpt>
<trkpt lat="-27.5804936" lon="152.7271821">
<ele>35.477</ele>
<time>2017-09-16T23:00:52.390Z</time>
</trkpt>
<trkpt lat="-27.5804007" lon="152.7265326">
<ele>38.372</ele>
<time>2017-09-16T23:00:55.352Z</time>
</trkpt>
<trkpt lat="-27.5803732" lon="152.7261192">
<ele>41.758</ele>
<time>2017-09-16T23:00:57.228Z</time>
</trkpt>
<trkpt lat="-27.5803348" lon="152.7257275">
<ele>44.882</ele>
<time>2017-09-16T23:00:59.053Z</time>
</trkpt>
<trkpt lat="-27.5803722" lon="152.7251672">
<ele>47.076</ele>
<time>2017-09-16T23:01:01.809Z</time>
</trkpt>
<trkpt lat="-27.5803084" lon="152.7246332">
<ele>48.304</ele>
<time>2017-09-16T23:01:04.602Z</time>
</trkpt>
<trkpt lat="-27.5802487" lon="152.7241378">
<ele>48.899</ele>
<time>2017-09-16T23:01:07.343Z</time>
</trkpt>
<trkpt lat="-27.5803104" lon="152.7237483">
<ele>49.048</ele>
<time>2017-09-16T23:01:09.619Z</time>
</trkpt>
<trkpt lat="-27.5805513" lon="152.7235403">
<ele>48.748</ele>
<time>2017-09-16T23:01:11.818Z</time>
</trkpt>
<trkpt lat="-27.5807783" lon="152.7234955">
<ele>47.998</ele>
<time>2017-09-16T23:01:13.630Z</time>
</trkpt>
<trkpt lat="-27.5810890" lon="152.7236171">
<ele>46.991</ele>
<time>2017-09-16T23:01:16.544Z</time>
</trkpt>
<trkpt lat="-27.5812581" lon="152.7239247">
<ele>45.970</ele>
<time>2017-09-16T23:01:19.498Z</time>
</trkpt>
<trkpt lat="-27.5811756" lon="152.7243635">
<ele>45.112</ele>
<time>2017-09-16T23:01:23.263Z</time>
</trkpt>
<trkpt lat="-27.5810121" lon="152.7245948">
<ele>44.728</ele>
<time>2017-09-16T23:01:25.692Z</time>
</trkpt>
<trkpt lat="-27.5806371" lon="152.7247841">
<ele>45.135</ele>
<time>2017-09-16T23:01:29.196Z</time>
</trkpt>
<trkpt lat="-27.5802742" lon="152.7249347">
<ele>46.559</ele>
<time>2017-09-16T23:01:32.141Z</time>
</trkpt>
<trkpt lat="-27.5800573" lon="152.7249836">
<ele>48.959</ele>
<time>2017-09-16T23:01:33.830Z</time>
</trkpt>
<trkpt lat="-27.5797743" lon="152.7250706">
<ele>51.549</ele>
<time>2017-09-16T23:01:36.179Z</time>
</trkpt>
<trkpt lat="-27.5796221" lon="152.7250379">
<ele>53.299</ele>
<time>2017-09-16T23:01:37.544Z</time>
</trkpt>
<trkpt lat="-27.5793904" lon="152.7248810">
<ele>53.893</ele>
<time>2017-09-16T23:01:40.126Z</time>
</trkpt>
<trkpt lat="-27.5791703" lon="152.7247485">
<ele>53.714</ele>
<time>2017-09-16T23:01:42.978Z</time>
</trkpt>
<trkpt lat="-27.5790406" lon="152.7246541">
<ele>53.314</ele>
<time>2017-09-16T23:01:44.837Z</time>
</trkpt>
<trkpt lat="-27.5788218" lon="152.7247646">
<ele>53.031</ele>
<time>2017-09-16T23:01:47.625Z</time>
</trkpt>
<trkpt lat="-27.5785176" lon="152.7249835">
<ele>53.033</ele>
<time>2017-09-16T23:01:51.951Z</time>
</trkpt>
<trkpt lat="-27.5781303" lon="152.7252108">
<ele>53.644</ele>
<time>2017-09-16T23:01:56.402Z</time>
</trkpt>
<trkpt lat="-27.5778943" lon="152.7254161">
<ele>55.299</ele>
<time>2017-09-16T23:01:58.765Z</time>
</trkpt>
<trkpt lat="-27.5774743" lon="152.7256262">
<ele>57.909</ele>
<time>2017-09-16T23:02:01.960Z</time>
</trkpt>
<trkpt lat="-27.5772083" lon="152.7257679">
<ele>60.784</ele>
<time>2017-09-16T23:02:03.904Z</time>
</trkpt>
<trkpt lat="-27.5769282" lon="152.7259022">
<ele>63.196</ele>
<time>2017-09-16T23:02:05.896Z</time>
</trkpt>
<trkpt lat="-27.5764744" lon="152.7259501">
<ele>64.687</ele>
<time>2017-09-16T23:02:08.898Z</time>
</trkpt>
<trkpt lat="-27.5761635" lon="152.7259380">
<ele>65.175</ele>
<time>2017-09-16T23:02:10.949Z</time>
</trkpt>
<trkpt lat="-27.5757165" lon="152.7257954">
<ele>65.011</ele>
<time>2017-09-16T23:02:13.973Z</time>
</trkpt>
<trkpt lat="-27.5754363" lon="152.7256211">
<ele>64.559</ele>
<time>2017-09-16T23:02:16.034Z</time>
</trkpt>
<trkpt lat="-27.5751564" lon="152.7254455">
<ele>63.949</ele>
<time>2017-09-16T23:02:18.063Z</time>
</trkpt>
<trkpt lat="-27.5747686" lon="152.7250825">
<ele>63.167</ele>
<time>2017-09-16T23:02:21.196Z</time>
</trkpt>
<trkpt lat="-27.5745539" lon="152.7246365">
<ele>62.109</ele>
<time>2017-09-16T23:02:23.880Z</time>
</trkpt>
<trkpt lat="-27.5743728" lon="152.7241874">
<ele>60.758</ele>
<time>2017-09-16T23:02:26.220Z</time>
</trkpt>
<trkpt lat="-27.5741108" lon="152.7235983">
<ele>59.332</ele>
<time>2017-09-16T23:02:29.177Z</time>
</trkpt>
<trkpt lat="-27.5739445" lon="152.7231982">
<ele>58.181</ele>
<time>2017-09-16T23:02:31.159Z</time>
</trkpt>
<trkpt lat="-27.5737235" lon="152.7228446">
<ele>57.616</ele>
<time>2017-09-16T23:02:33.118Z</time>
</trkpt>
<trkpt lat="-27.5734280" lon="152.7222821">
<ele>57.795</ele>
<time>2017-09-16T23:02:36.103Z</time>
</trkpt>
<trkpt lat="-27.5732712" lon="152.7218791">
<ele>58.657</ele>
<time>2017-09-16T23:02:38.115Z</time>
</trkpt>
<trkpt lat="-27.5729380" lon="152.7213231">
<ele>59.801</ele>
<time>2017-09-16T23:02:41.161Z</time>
</trkpt>
<trkpt lat="-27.5726656" lon="152.7210066">
<ele>60.592</ele>
<time>2017-09-16T23:02:43.147Z</time>
</trkpt>
<trkpt lat="-27.5721760" lon="152.7206133">
<ele>60.626</ele>
<time>2017-09-16T23:02:46.152Z</time>
</trkpt>
<trkpt lat="-27.5718191" lon="152.7204061">
<ele>59.536</ele>
<time>2017-09-16T23:02:48.136Z</time>
</trkpt>
<trkpt lat="-27.5712600" lon="152.7201934">
<ele>57.123</ele>
<time>2017-09-16T23:02:51.078Z</time>
</trkpt>
<trkpt lat="-27.5708981" lon="152.7200418">
<ele>53.809</ele>
<time>2017-09-16T23:02:53.031Z</time>
</trkpt>
<trkpt lat="-27.5703707" lon="152.7197892">
<ele>50.545</ele>
<time>2017-09-16T23:02:55.981Z</time>
</trkpt>
<trkpt lat="-27.5700304" lon="152.7195692">
<ele>48.318</ele>
<time>2017-09-16T23:02:58.010Z</time>
</trkpt>
<trkpt lat="-27.5696623" lon="152.7194185">
<ele>47.520</ele>
<time>2017-09-16T23:03:00.030Z</time>
</trkpt>
<trkpt lat="-27.5691111" lon="152.7191615">
<ele>47.673</ele>
<time>2017-09-16T23:03:03.076Z</time>
</trkpt>
<trkpt lat="-27.5687580" lon="152.7189794">
<ele>48.016</ele>
<time>2017-09-16T23:03:05.051Z</time>
</trkpt>
<trkpt lat="-27.5682423" lon="152.7187093">
<ele>48.110</ele>
<time>2017-09-16T23:03:07.965Z</time>
</trkpt>
<trkpt lat="-27.5678871" lon="152.7185411">
<ele>48.042</ele>
<time>2017-09-16T23:03:09.961Z</time>
</trkpt>
<trkpt lat="-27.5675255" lon="152.7183827">
<ele>48.153</ele>
<time>2017-09-16T23:03:11.978Z</time>
</trkpt>
<trkpt lat="-27.5669455" lon="152.7182365">
<ele>48.727</ele>
<time>2017-09-16T23:03:15.028Z</time>
</trkpt>
<trkpt lat="-27.5663617" lon="152.7181129">
<ele>49.846</ele>
<time>2017-09-16T23:03:18.043Z</time>
</trkpt>
<trkpt lat="-27.5659689" lon="152.7180620">
<ele>51.341</ele>
<time>2017-09-16T23:03:20.050Z</time>
</trkpt>
<trkpt lat="-27.5655819" lon="152.7180009">
<ele>52.812</ele>
<time>2017-09-16T23:03:22.037Z</time>
</trkpt>
<trkpt lat="-27.5649912" lon="152.7179330">
<ele>53.823</ele>
<time>2017-09-16T23:03:25.051Z</time>
</trkpt>
<trkpt lat="-27.5646087" lon="152.7178556">
<ele>54.186</ele>
<time>2017-09-16T23:03:27.021Z</time>
</trkpt>
<trkpt lat="-27.5640308" lon="152.7177362">
<ele>54.067</ele>
<time>2017-09-16T23:03:30.006Z</time>
</trkpt>
<trkpt lat="-27.5636573" lon="152.7176223">
<ele>53.820</ele>
<time>2017-09-16T23:03:31.977Z</time>
</trkpt>
<trkpt lat="-27.5631600" lon="152.7172636">
<ele>53.722</ele>
<time>2017-09-16T23:03:34.992Z</time>
</trkpt>
<trkpt lat="-27.5628212" lon="152.7170318">
<ele>53.816</ele>
<time>2017-09-16T23:03:37.012Z</time>
</trkpt>
<trkpt lat="-27.5624977" lon="152.7167872">
<ele>53.950</ele>
<time>2017-09-16T23:03:38.994Z</time>
</trkpt>
<trkpt lat="-27.5619561" lon="152.7165305">
<ele>53.994</ele>
<time>2017-09-16T23:03:41.989Z</time>
</trkpt>
<trkpt lat="-27.5613592" lon="152.7164571">
<ele>53.997</ele>
<time>2017-09-16T23:03:45.045Z</time>
</trkpt>
<trkpt lat="-27.5609563" lon="152.7164382">
<ele>54.036</ele>
<time>2017-09-16T23:03:47.096Z</time>
</trkpt>
<trkpt lat="-27.5603633" lon="152.7164530">
<ele>54.098</ele>
<time>2017-09-16T23:03:50.115Z</time>
</trkpt>
<trkpt lat="-27.5599848" lon="152.7165091">
<ele>54.139</ele>
<time>2017-09-16T23:03:52.071Z</time>
</trkpt>
<trkpt lat="-27.5595901" lon="152.7165269">
<ele>54.193</ele>
<time>2017-09-16T23:03:54.116Z</time>
</trkpt>
<trkpt lat="-27.5590168" lon="152.7164809">
<ele>54.440</ele>
<time>2017-09-16T23:03:57.098Z</time>
</trkpt>
<trkpt lat="-27.5584863" lon="152.7161582">
<ele>55.303</ele>
<time>2017-09-16T23:04:00.189Z</time>
</trkpt>
<trkpt lat="-27.5581509" lon="152.7159269">
<ele>57.235</ele>
<time>2017-09-16T23:04:02.188Z</time>
</trkpt>
<trkpt lat="-27.5576883" lon="152.7155127">
<ele>60.008</ele>
<time>2017-09-16T23:04:05.186Z</time>
</trkpt>
<trkpt lat="-27.5573691" lon="152.7152508">
<ele>62.890</ele>
<time>2017-09-16T23:04:07.185Z</time>
</trkpt>
<trkpt lat="-27.5570561" lon="152.7149872">
<ele>65.423</ele>
<time>2017-09-16T23:04:09.158Z</time>
</trkpt>
<trkpt lat="-27.5565515" lon="152.7146461">
<ele>67.436</ele>
<time>2017-09-16T23:04:12.135Z</time>
</trkpt>
<trkpt lat="-27.5560989" lon="152.7142387">
<ele>68.866</ele>
<time>2017-09-16T23:04:15.086Z</time>
</trkpt>
<trkpt lat="-27.5558233" lon="152.7139244">
<ele>69.837</ele>
<time>2017-09-16T23:04:17.099Z</time>
</trkpt>
<trkpt lat="-27.5555200" lon="152.7133786">
<ele>70.554</ele>
<time>2017-09-16T23:04:20.081Z</time>
</trkpt>
<trkpt lat="-27.5552218" lon="152.7128177">
<ele>71.314</ele>
<time>2017-09-16T23:04:23.187Z</time>
</trkpt>
<trkpt lat="-27.5549931" lon="152.7125094">
<ele>72.505</ele>
<time>2017-09-16T23:04:25.140Z</time>
</trkpt>
<trkpt lat="-27.5546272" lon="152.7123165">
<ele>74.239</ele>
<time>2017-09-16T23:04:27.420Z</time>
</trkpt>
<trkpt lat="-27.5541000" lon="152.7123541">
<ele>76.189</ele>
<time>2017-09-16T23:04:30.491Z</time>
</trkpt>
<trkpt lat="-27.5536413" lon="152.7126423">
<ele>78.136</ele>
<time>2017-09-16T23:04:33.543Z</time>
</trkpt>
<trkpt lat="-27.5533510" lon="152.7129360">
<ele>80.206</ele>
<time>2017-09-16T23:04:35.700Z</time>
</trkpt>
<trkpt lat="-27.5529417" lon="152.7134285">
<ele>82.322</ele>
<time>2017-09-16T23:04:38.778Z</time>
</trkpt>
<trkpt lat="-27.5526675" lon="152.7137188">
<ele>84.236</ele>
<time>2017-09-16T23:04:40.722Z</time>
</trkpt>
<trkpt lat="-27.5523291" lon="152.7138800">
<ele>85.945</ele>
<time>2017-09-16T23:04:42.694Z</time>
</trkpt>
<trkpt lat="-27.5519422" lon="152.7139024">
<ele>87.641</ele>
<time>2017-09-16T23:04:44.776Z</time>
</trkpt>
<trkpt lat="-27.5512581" lon="152.7135808">
<ele>89.410</ele>
<time>2017-09-16T23:04:48.507Z</time>
</trkpt>
<trkpt lat="-27.5508805" lon="152.7133402">
<ele>91.171</ele>
<time>2017-09-16T23:04:50.589Z</time>
</trkpt>
<trkpt lat="-27.5503364" lon="152.7130600">
<ele>92.606</ele>
<time>2017-09-16T23:04:53.491Z</time>
</trkpt>
<trkpt lat="-27.5500166" lon="152.7128508">
<ele>93.336</ele>
<time>2017-09-16T23:04:55.391Z</time>
</trkpt>
<trkpt lat="-27.5495330" lon="152.7126668">
<ele>93.264</ele>
<time>2017-09-16T23:04:58.243Z</time>
</trkpt>
<trkpt lat="-27.5491333" lon="152.7129540">
<ele>92.542</ele>
<time>2017-09-16T23:05:01.180Z</time>
</trkpt>
<trkpt lat="-27.5488964" lon="152.7133193">
<ele>91.275</ele>
<time>2017-09-16T23:05:03.523Z</time>
</trkpt>
<trkpt lat="-27.5485481" lon="152.7138512">
<ele>89.769</ele>
<time>2017-09-16T23:05:06.662Z</time>
</trkpt>
<trkpt lat="-27.5482570" lon="152.7143486">
<ele>88.484</ele>
<time>2017-09-16T23:05:09.533Z</time>
</trkpt>
<trkpt lat="-27.5480612" lon="152.7146785">
<ele>87.485</ele>
<time>2017-09-16T23:05:11.537Z</time>
</trkpt>
<trkpt lat="-27.5477671" lon="152.7149079">
<ele>86.522</ele>
<time>2017-09-16T23:05:13.548Z</time>
</trkpt>
<trkpt lat="-27.5473681" lon="152.7149436">
<ele>85.568</ele>
<time>2017-09-16T23:05:15.756Z</time>
</trkpt>
<trkpt lat="-27.5468338" lon="152.7147841">
<ele>84.770</ele>
<time>2017-09-16T23:05:18.734Z</time>
</trkpt>
<trkpt lat="-27.5465343" lon="152.7144967">
<ele>84.217</ele>
<time>2017-09-16T23:05:20.764Z</time>
</trkpt>
<trkpt lat="-27.5462687" lon="152.7141395">
<ele>83.928</ele>
<time>2017-09-16T23:05:22.851Z</time>
</trkpt>
<trkpt lat="-27.5459214" lon="152.7135755">
<ele>83.763</ele>
<time>2017-09-16T23:05:25.912Z</time>
</trkpt>
<trkpt lat="-27.5455497" lon="152.7130734">
<ele>83.354</ele>
<time>2017-09-16T23:05:28.879Z</time>
</trkpt>
<trkpt lat="-27.5452650" lon="152.7127983">
<ele>82.474</ele>
<time>2017-09-16T23:05:30.836Z</time>
</trkpt>
<trkpt lat="-27.5448444" lon="152.7123653">
<ele>81.406</ele>
<time>2017-09-16T23:05:33.817Z</time>
</trkpt>
<trkpt lat="-27.5445144" lon="152.7121344">
<ele>80.493</ele>
<time>2017-09-16T23:05:35.827Z</time>
</trkpt>
<trkpt lat="-27.5439725" lon="152.7118574">
<ele>79.541</ele>
<time>2017-09-16T23:05:38.874Z</time>
</trkpt>
<trkpt lat="-27.5435843" lon="152.7117654">
<ele>77.964</ele>
<time>2017-09-16T23:05:40.901Z</time>
</trkpt>
<trkpt lat="-27.5431948" lon="152.7116803">
<ele>75.645</ele>
<time>2017-09-16T23:05:42.933Z</time>
</trkpt>
<trkpt lat="-27.5426024" lon="152.7116307">
<ele>73.193</ele>
<time>2017-09-16T23:05:45.985Z</time>
</trkpt>
<trkpt lat="-27.5422385" lon="152.7114837">
<ele>71.125</ele>
<time>2017-09-16T23:05:47.985Z</time>
</trkpt>
<trkpt lat="-27.5418969" lon="152.7112673">
<ele>69.546</ele>
<time>2017-09-16T23:05:50.008Z</time>
</trkpt>
<trkpt lat="-27.5413680" lon="152.7110029">
<ele>68.513</ele>
<time>2017-09-16T23:05:52.980Z</time>
</trkpt>
<trkpt lat="-27.5409948" lon="152.7108544">
<ele>67.970</ele>
<time>2017-09-16T23:05:55.001Z</time>
</trkpt>
<trkpt lat="-27.5404480" lon="152.7106268">
<ele>67.748</ele>
<time>2017-09-16T23:05:57.988Z</time>
</trkpt>
<trkpt lat="-27.5400973" lon="152.7104536">
<ele>67.894</ele>
<time>2017-09-16T23:05:59.976Z</time>
</trkpt>
<trkpt lat="-27.5397562" lon="152.7102506">
<ele>68.530</ele>
<time>2017-09-16T23:06:01.979Z</time>
</trkpt>
<trkpt lat="-27.5393481" lon="152.7097974">
<ele>69.427</ele>
<time>2017-09-16T23:06:04.934Z</time>
</trkpt>
<trkpt lat="-27.5392282" lon="152.7091227">
<ele>70.226</ele>
<time>2017-09-16T23:06:08.076Z</time>
</trkpt>
<trkpt lat="-27.5391149" lon="152.7087262">
<ele>70.922</ele>
<time>2017-09-16T23:06:10.029Z</time>
</trkpt>
<trkpt lat="-27.5390289" lon="152.7083258">
<ele>71.543</ele>
<time>2017-09-16T23:06:11.991Z</time>
</trkpt>
<trkpt lat="-27.5388112" lon="152.7079466">
<ele>71.895</ele>
<time>2017-09-16T23:06:14.112Z</time>
</trkpt>
<trkpt lat="-27.5384903" lon="152.7076363">
<ele>71.668</ele>
<time>2017-09-16T23:06:16.262Z</time>
</trkpt>
<trkpt lat="-27.5379249" lon="152.7073560">
<ele>70.600</ele>
<time>2017-09-16T23:06:19.348Z</time>
</trkpt>
<trkpt lat="-27.5373578" lon="152.7071931">
<ele>68.708</ele>
<time>2017-09-16T23:06:22.312Z</time>
</trkpt>
<trkpt lat="-27.5369865" lon="152.7071080">
<ele>66.385</ele>
<time>2017-09-16T23:06:24.255Z</time>
</trkpt>
<trkpt lat="-27.5364235" lon="152.7069362">
<ele>64.132</ele>
<time>2017-09-16T23:06:27.224Z</time>
</trkpt>
<trkpt lat="-27.5360495" lon="152.7068329">
<ele>61.965</ele>
<time>2017-09-16T23:06:29.158Z</time>
</trkpt>
<trkpt lat="-27.5356560" lon="152.7067255">
<ele>59.885</ele>
<time>2017-09-16T23:06:31.165Z</time>
</trkpt>
<trkpt lat="-27.5352740" lon="152.7065609">
<ele>58.557</ele>
<time>2017-09-16T23:06:33.181Z</time>
</trkpt>
<trkpt lat="-27.5348798" lon="152.7064555">
<ele>59.137</ele>
<time>2017-09-16T23:06:35.191Z</time>
</trkpt>
<trkpt lat="-27.5344635" lon="152.7063370">
<ele>61.883</ele>
<time>2017-09-16T23:06:37.352Z</time>
</trkpt>
<trkpt lat="-27.5340895" lon="152.7062683">
<ele>65.197</ele>
<time>2017-09-16T23:06:39.294Z</time>
</trkpt>
<trkpt lat="-27.5335080" lon="152.7062486">
<ele>66.709</ele>
<time>2017-09-16T23:06:42.287Z</time>
</trkpt>
<trkpt lat="-27.5331096" lon="152.7062476">
<ele>65.716</ele>
<time>2017-09-16T23:06:44.303Z</time>
</trkpt>
<trkpt lat="-27.5325131" lon="152.7062708">
<ele>63.490</ele>
<time>2017-09-16T23:06:47.308Z</time>
</trkpt>
<trkpt lat="-27.5321219" lon="152.7062604">
<ele>61.334</ele>
<time>2017-09-16T23:06:49.308Z</time>
</trkpt>
<trkpt lat="-27.5315581" lon="152.7062266">
<ele>59.366</ele>
<time>2017-09-16T23:06:52.249Z</time>
</trkpt>
<trkpt lat="-27.5310377" lon="152.7062532">
<ele>57.706</ele>
<time>2017-09-16T23:06:55.004Z</time>
</trkpt>
<trkpt lat="-27.5306388" lon="152.7062295">
<ele>57.071</ele>
<time>2017-09-16T23:06:57.079Z</time>
</trkpt>
<trkpt lat="-27.5300164" lon="152.7062114">
<ele>57.961</ele>
<time>2017-09-16T23:07:00.236Z</time>
</trkpt>
<trkpt lat="-27.5294188" lon="152.7061790">
<ele>60.119</ele>
<time>2017-09-16T23:07:03.255Z</time>
</trkpt>
<trkpt lat="-27.5288277" lon="152.7061664">
<ele>62.911</ele>
<time>2017-09-16T23:07:06.279Z</time>
</trkpt>
<trkpt lat="-27.5282429" lon="152.7061463">
<ele>65.965</ele>
<time>2017-09-16T23:07:09.310Z</time>
</trkpt>
<trkpt lat="-27.5276683" lon="152.7061150">
<ele>69.029</ele>
<time>2017-09-16T23:07:12.244Z</time>
</trkpt>
<trkpt lat="-27.5271011" lon="152.7058946">
<ele>71.471</ele>
<time>2017-09-16T23:07:15.132Z</time>
</trkpt>
<trkpt lat="-27.5267361" lon="152.7056458">
<ele>72.452</ele>
<time>2017-09-16T23:07:17.114Z</time>
</trkpt>
<trkpt lat="-27.5261924" lon="152.7051190">
<ele>71.775</ele>
<time>2017-09-16T23:07:20.514Z</time>
</trkpt>
<trkpt lat="-27.5257297" lon="152.7046883">
<ele>69.848</ele>
<time>2017-09-16T23:07:23.480Z</time>
</trkpt>
<trkpt lat="-27.5253539" lon="152.7041940">
<ele>67.164</ele>
<time>2017-09-16T23:07:26.410Z</time>
</trkpt>
<trkpt lat="-27.5252152" lon="152.7037574">
<ele>64.226</ele>
<time>2017-09-16T23:07:28.494Z</time>
</trkpt>
<trkpt lat="-27.5250537" lon="152.7031040">
<ele>61.491</ele>
<time>2017-09-16T23:07:31.536Z</time>
</trkpt>
<trkpt lat="-27.5249017" lon="152.7026902">
<ele>58.770</ele>
<time>2017-09-16T23:07:33.558Z</time>
</trkpt>
<trkpt lat="-27.5247839" lon="152.7022761">
<ele>56.067</ele>
<time>2017-09-16T23:07:35.553Z</time>
</trkpt>
<trkpt lat="-27.5246970" lon="152.7018613">
<ele>54.294</ele>
<time>2017-09-16T23:07:37.546Z</time>
</trkpt>
<trkpt lat="-27.5245436" lon="152.7014646">
<ele>54.286</ele>
<time>2017-09-16T23:07:39.536Z</time>
</trkpt>
<trkpt lat="-27.5244032" lon="152.7008108">
<ele>55.841</ele>
<time>2017-09-16T23:07:42.568Z</time>
</trkpt>
<trkpt lat="-27.5241256" lon="152.7002248">
<ele>57.888</ele>
<time>2017-09-16T23:07:45.537Z</time>
</trkpt>
<trkpt lat="-27.5238828" lon="152.6998698">
<ele>59.093</ele>
<time>2017-09-16T23:07:47.554Z</time>
</trkpt>
<trkpt lat="-27.5234000" lon="152.6994955">
<ele>59.013</ele>
<time>2017-09-16T23:07:50.531Z</time>
</trkpt>
<trkpt lat="-27.5229129" lon="152.6991371">
<ele>58.098</ele>
<time>2017-09-16T23:07:53.501Z</time>
</trkpt>
<trkpt lat="-27.5223489" lon="152.6989734">
<ele>56.915</ele>
<time>2017-09-16T23:07:56.490Z</time>
</trkpt>
<trkpt lat="-27.5219541" lon="152.6990079">
<ele>55.909</ele>
<time>2017-09-16T23:07:58.527Z</time>
</trkpt>
<trkpt lat="-27.5215656" lon="152.6990831">
<ele>55.383</ele>
<time>2017-09-16T23:08:00.557Z</time>
</trkpt>
<trkpt lat="-27.5209987" lon="152.6991397">
<ele>55.294</ele>
<time>2017-09-16T23:08:03.475Z</time>
</trkpt>
<trkpt lat="-27.5205721" lon="152.6991895">
<ele>55.388</ele>
<time>2017-09-16T23:08:05.657Z</time>
</trkpt>
<trkpt lat="-27.5201736" lon="152.6992538">
<ele>55.499</ele>
<time>2017-09-16T23:08:07.749Z</time>
</trkpt>
<trkpt lat="-27.5196093" lon="152.6993184">
<ele>55.568</ele>
<time>2017-09-16T23:08:10.858Z</time>
</trkpt>
<trkpt lat="-27.5191297" lon="152.6993813">
<ele>55.549</ele>
<time>2017-09-16T23:08:13.759Z</time>
</trkpt>
<trkpt lat="-27.5188283" lon="152.6994045">
<ele>55.131</ele>
<time>2017-09-16T23:08:15.706Z</time>
</trkpt>
<trkpt lat="-27.5183539" lon="152.6994565">
<ele>53.958</ele>
<time>2017-09-16T23:08:18.775Z</time>
</trkpt>
<trkpt lat="-27.5180525" lon="152.6994967">
<ele>52.063</ele>
<time>2017-09-16T23:08:20.725Z</time>
</trkpt>
<trkpt lat="-27.5177524" lon="152.6995353">
<ele>49.794</ele>
<time>2017-09-16T23:08:22.681Z</time>
</trkpt>
<trkpt lat="-27.5173021" lon="152.6995801">
<ele>47.517</ele>
<time>2017-09-16T23:08:25.618Z</time>
</trkpt>
<trkpt lat="-27.5170079" lon="152.6996052">
<ele>45.327</ele>
<time>2017-09-16T23:08:27.540Z</time>
</trkpt>
<trkpt lat="-27.5165412" lon="152.6996779">
<ele>43.149</ele>
<time>2017-09-16T23:08:30.611Z</time>
</trkpt>
<trkpt lat="-27.5162454" lon="152.6997244">
<ele>41.063</ele>
<time>2017-09-16T23:08:32.550Z</time>
</trkpt>
<trkpt lat="-27.5157703" lon="152.6997433">
<ele>39.176</ele>
<time>2017-09-16T23:08:35.616Z</time>
</trkpt>
<trkpt lat="-27.5153037" lon="152.6998125">
<ele>37.455</ele>
<time>2017-09-16T23:08:38.615Z</time>
</trkpt>
<trkpt lat="-27.5149853" lon="152.6998838">
<ele>35.710</ele>
<time>2017-09-16T23:08:40.690Z</time>
</trkpt>
<trkpt lat="-27.5145439" lon="152.6999556">
<ele>33.882</ele>
<time>2017-09-16T23:08:43.543Z</time>
</trkpt>
<trkpt lat="-27.5140816" lon="152.7000509">
<ele>32.392</ele>
<time>2017-09-16T23:08:46.657Z</time>
</trkpt>
<trkpt lat="-27.5138392" lon="152.7000937">
<ele>31.919</ele>
<time>2017-09-16T23:08:48.643Z</time>
</trkpt>
<trkpt lat="-27.5135348" lon="152.7001310">
<ele>32.706</ele>
<time>2017-09-16T23:08:51.706Z</time>
</trkpt>
<trkpt lat="-27.5133358" lon="152.7001391">
<ele>34.172</ele>
<time>2017-09-16T23:08:54.595Z</time>
</trkpt>
<trkpt lat="-27.5132653" lon="152.7000037">
<ele>35.438</ele>
<time>2017-09-16T23:08:56.895Z</time>
</trkpt>
<trkpt lat="-27.5132191" lon="152.6998034">
<ele>36.087</ele>
<time>2017-09-16T23:08:59.056Z</time>
</trkpt>
<trkpt lat="-27.5132350" lon="152.6993595">
<ele>36.285</ele>
<time>2017-09-16T23:09:02.493Z</time>
</trkpt>
<trkpt lat="-27.5131258" lon="152.6988868">
<ele>36.572</ele>
<time>2017-09-16T23:09:05.586Z</time>
</trkpt>
<trkpt lat="-27.5130244" lon="152.6985450">
<ele>37.375</ele>
<time>2017-09-16T23:09:07.553Z</time>
</trkpt>
<trkpt lat="-27.5129182" lon="152.6979650">
<ele>38.581</ele>
<time>2017-09-16T23:09:10.555Z</time>
</trkpt>
<trkpt lat="-27.5128632" lon="152.6975228">
<ele>39.768</ele>
<time>2017-09-16T23:09:12.605Z</time>
</trkpt>
<trkpt lat="-27.5127882" lon="152.6968566">
<ele>40.670</ele>
<time>2017-09-16T23:09:15.651Z</time>
</trkpt>
<trkpt lat="-27.5127370" lon="152.6964462">
<ele>41.200</ele>
<time>2017-09-16T23:09:17.565Z</time>
</trkpt>
<trkpt lat="-27.5126661" lon="152.6960224">
<ele>41.299</ele>
<time>2017-09-16T23:09:19.546Z</time>
</trkpt>
<trkpt lat="-27.5126267" lon="152.6955826">
<ele>41.069</ele>
<time>2017-09-16T23:09:21.547Z</time>
</trkpt>
<trkpt lat="-27.5124719" lon="152.6949457">
<ele>40.802</ele>
<time>2017-09-16T23:09:24.540Z</time>
</trkpt>
<trkpt lat="-27.5122733" lon="152.6943338">
<ele>40.697</ele>
<time>2017-09-16T23:09:27.500Z</time>
</trkpt>
<trkpt lat="-27.5121051" lon="152.6939456">
<ele>40.672</ele>
<time>2017-09-16T23:09:29.450Z</time>
</trkpt>
<trkpt lat="-27.5118506" lon="152.6933559">
<ele>40.608</ele>
<time>2017-09-16T23:09:32.412Z</time>
</trkpt>
<trkpt lat="-27.5115950" lon="152.6927716">
<ele>40.678</ele>
<time>2017-09-16T23:09:35.351Z</time>
</trkpt>
<trkpt lat="-27.5113823" lon="152.6921363">
<ele>41.182</ele>
<time>2017-09-16T23:09:38.383Z</time>
</trkpt>
<trkpt lat="-27.5112031" lon="152.6917371">
<ele>42.064</ele>
<time>2017-09-16T23:09:40.370Z</time>
</trkpt>
<trkpt lat="-27.5109172" lon="152.6911430">
<ele>42.992</ele>
<time>2017-09-16T23:09:43.373Z</time>
</trkpt>
<trkpt lat="-27.5107827" lon="152.6907225">
<ele>43.867</ele>
<time>2017-09-16T23:09:45.366Z</time>
</trkpt>
<trkpt lat="-27.5106381" lon="152.6903025">
<ele>44.778</ele>
<time>2017-09-16T23:09:47.407Z</time>
</trkpt>
<trkpt lat="-27.5103644" lon="152.6897425">
<ele>45.695</ele>
<time>2017-09-16T23:09:50.374Z</time>
</trkpt>
<trkpt lat="-27.5102337" lon="152.6893525">
<ele>46.616</ele>
<time>2017-09-16T23:09:52.428Z</time>
</trkpt>
<trkpt lat="-27.5100355" lon="152.6888406">
<ele>47.564</ele>
<time>2017-09-16T23:09:55.349Z</time>
</trkpt>
<trkpt lat="-27.5098060" lon="152.6884013">
<ele>48.330</ele>
<time>2017-09-16T23:09:58.311Z</time>
</trkpt>
<trkpt lat="-27.5096291" lon="152.6882182">
<ele>48.599</ele>
<time>2017-09-16T23:10:00.065Z</time>
</trkpt>
<trkpt lat="-27.5093561" lon="152.6881655">
<ele>48.365</ele>
<time>2017-09-16T23:10:02.018Z</time>
</trkpt>
<trkpt lat="-27.5088807" lon="152.6883418">
<ele>47.971</ele>
<time>2017-09-16T23:10:05.234Z</time>
</trkpt>
<trkpt lat="-27.5085031" lon="152.6884113">
<ele>47.863</ele>
<time>2017-09-16T23:10:07.444Z</time>
</trkpt>
<trkpt lat="-27.5079562" lon="152.6884816">
<ele>48.150</ele>
<time>2017-09-16T23:10:10.510Z</time>
</trkpt>
<trkpt lat="-27.5076201" lon="152.6885983">
<ele>48.313</ele>
<time>2017-09-16T23:10:12.457Z</time>
</trkpt>
<trkpt lat="-27.5070832" lon="152.6886634">
<ele>47.626</ele>
<time>2017-09-16T23:10:15.461Z</time>
</trkpt>
<trkpt lat="-27.5067390" lon="152.6887235">
<ele>45.769</ele>
<time>2017-09-16T23:10:17.402Z</time>
</trkpt>
<trkpt lat="-27.5063895" lon="152.6888164">
<ele>42.949</ele>
<time>2017-09-16T23:10:19.437Z</time>
</trkpt>
<trkpt lat="-27.5058874" lon="152.6889056">
<ele>39.800</ele>
<time>2017-09-16T23:10:22.485Z</time>
</trkpt>
<trkpt lat="-27.5054539" lon="152.6889066">
<ele>36.904</ele>
<time>2017-09-16T23:10:25.289Z</time>
</trkpt>
<trkpt lat="-27.5052063" lon="152.6887093">
<ele>34.400</ele>
<time>2017-09-16T23:10:27.161Z</time>
</trkpt>
<trkpt lat="-27.5049851" lon="152.6883043">
<ele>32.467</ele>
<time>2017-09-16T23:10:29.489Z</time>
</trkpt>
<trkpt lat="-27.5046220" lon="152.6877469">
<ele>31.464</ele>
<time>2017-09-16T23:10:32.678Z</time>
</trkpt>
<trkpt lat="-27.5042634" lon="152.6872310">
<ele>31.571</ele>
<time>2017-09-16T23:10:35.677Z</time>
</trkpt>
<trkpt lat="-27.5039475" lon="152.6867158">
<ele>32.562</ele>
<time>2017-09-16T23:10:38.671Z</time>
</trkpt>
<trkpt lat="-27.5037062" lon="152.6862082">
<ele>33.824</ele>
<time>2017-09-16T23:10:41.450Z</time>
</trkpt>
<trkpt lat="-27.5037885" lon="152.6855244">
<ele>34.718</ele>
<time>2017-09-16T23:10:44.609Z</time>
</trkpt>
<trkpt lat="-27.5038037" lon="152.6848476">
<ele>35.021</ele>
<time>2017-09-16T23:10:47.622Z</time>
</trkpt>
<trkpt lat="-27.5037957" lon="152.6841874">
<ele>34.892</ele>
<time>2017-09-16T23:10:50.583Z</time>
</trkpt>
<trkpt lat="-27.5038476" lon="152.6835241">
<ele>34.766</ele>
<time>2017-09-16T23:10:53.574Z</time>
</trkpt>
<trkpt lat="-27.5038601" lon="152.6828565">
<ele>35.126</ele>
<time>2017-09-16T23:10:56.576Z</time>
</trkpt>
<trkpt lat="-27.5039033" lon="152.6824153">
<ele>36.135</ele>
<time>2017-09-16T23:10:58.567Z</time>
</trkpt>
<trkpt lat="-27.5039163" lon="152.6819711">
<ele>37.540</ele>
<time>2017-09-16T23:11:00.549Z</time>
</trkpt>
<trkpt lat="-27.5039089" lon="152.6813038">
<ele>38.940</ele>
<time>2017-09-16T23:11:03.538Z</time>
</trkpt>
<trkpt lat="-27.5038895" lon="152.6808640">
<ele>40.231</ele>
<time>2017-09-16T23:11:05.545Z</time>
</trkpt>
<trkpt lat="-27.5039124" lon="152.6802177">
<ele>41.583</ele>
<time>2017-09-16T23:11:08.480Z</time>
</trkpt>
<trkpt lat="-27.5039255" lon="152.6795393">
<ele>43.412</ele>
<time>2017-09-16T23:11:11.494Z</time>
</trkpt>
<trkpt lat="-27.5039280" lon="152.6790837">
<ele>45.918</ele>
<time>2017-09-16T23:11:13.494Z</time>
</trkpt>
<trkpt lat="-27.5039240" lon="152.6784097">
<ele>48.545</ele>
<time>2017-09-16T23:11:16.459Z</time>
</trkpt>
<trkpt lat="-27.5039142" lon="152.6779542">
<ele>50.687</ele>
<time>2017-09-16T23:11:18.470Z</time>
</trkpt>
<trkpt lat="-27.5039068" lon="152.6775048">
<ele>52.197</ele>
<time>2017-09-16T23:11:20.480Z</time>
</trkpt>
<trkpt lat="-27.5039072" lon="152.6768519">
<ele>52.863</ele>
<time>2017-09-16T23:11:23.429Z</time>
</trkpt>
<trkpt lat="-27.5039711" lon="152.6764172">
<ele>52.738</ele>
<time>2017-09-16T23:11:25.433Z</time>
</trkpt>
<trkpt lat="-27.5039343" lon="152.6759828">
<ele>52.375</ele>
<time>2017-09-16T23:11:27.409Z</time>
</trkpt>
<trkpt lat="-27.5039474" lon="152.6755348">
<ele>52.250</ele>
<time>2017-09-16T23:11:29.422Z</time>
</trkpt>
<trkpt lat="-27.5039603" lon="152.6748649">
<ele>52.512</ele>
<time>2017-09-16T23:11:32.416Z</time>
</trkpt>
<trkpt lat="-27.5039687" lon="152.6744132">
<ele>53.278</ele>
<time>2017-09-16T23:11:34.426Z</time>
</trkpt>
<trkpt lat="-27.5039482" lon="152.6737416">
<ele>54.383</ele>
<time>2017-09-16T23:11:37.423Z</time>
</trkpt>
<trkpt lat="-27.5039317" lon="152.6730812">
<ele>55.228</ele>
<time>2017-09-16T23:11:40.391Z</time>
</trkpt>
<trkpt lat="-27.5038854" lon="152.6726416">
<ele>55.484</ele>
<time>2017-09-16T23:11:42.387Z</time>
</trkpt>
<trkpt lat="-27.5038323" lon="152.6721981">
<ele>55.477</ele>
<time>2017-09-16T23:11:44.435Z</time>
</trkpt>
<trkpt lat="-27.5037020" lon="152.6715899">
<ele>55.541</ele>
<time>2017-09-16T23:11:47.483Z</time>
</trkpt>
<trkpt lat="-27.5036589" lon="152.6712726">
<ele>55.513</ele>
<time>2017-09-16T23:11:49.438Z</time>
</trkpt>
<trkpt lat="-27.5036272" lon="152.6708855">
<ele>55.011</ele>
<time>2017-09-16T23:11:52.255Z</time>
</trkpt>
<trkpt lat="-27.5036093" lon="152.6705867">
<ele>53.878</ele>
<time>2017-09-16T23:11:55.019Z</time>
</trkpt>
<trkpt lat="-27.5036392" lon="152.6703495">
<ele>52.138</ele>
<time>2017-09-16T23:11:57.797Z</time>
</trkpt>
<trkpt lat="-27.5036282" lon="152.6702216">
<ele>49.994</ele>
<time>2017-09-16T23:11:59.645Z</time>
</trkpt>
<trkpt lat="-27.5035971" lon="152.6701198">
<ele>47.908</ele>
<time>2017-09-16T23:12:01.496Z</time>
</trkpt>
<trkpt lat="-27.5036378" lon="152.6700093">
<ele>46.280</ele>
<time>2017-09-16T23:12:03.996Z</time>
</trkpt>
<trkpt lat="-27.5036378" lon="152.6700093">
<ele>45.267</ele>
<time>2017-09-16T23:12:06.996Z</time>
</trkpt>
<trkpt lat="-27.5036378" lon="152.6700093">
<ele>44.871</ele>
<time>2017-09-16T23:12:32.831Z</time>
</trkpt>
<trkpt lat="-27.5035494" lon="152.6698767">
<ele>44.913</ele>
<time>2017-09-16T23:12:38.918Z</time>
</trkpt>
<trkpt lat="-27.5030680" lon="152.6698793">
<ele>44.964</ele>
<time>2017-09-16T23:12:43.301Z</time>
</trkpt>
<trkpt lat="-27.5027302" lon="152.6698919">
<ele>44.765</ele>
<time>2017-09-16T23:12:45.224Z</time>
</trkpt>
<trkpt lat="-27.5022082" lon="152.6699154">
<ele>44.685</ele>
<time>2017-09-16T23:12:48.012Z</time>
</trkpt>
<trkpt lat="-27.5016859" lon="152.6699350">
<ele>45.327</ele>
<time>2017-09-16T23:12:51.061Z</time>
</trkpt>
<trkpt lat="-27.5013508" lon="152.6699269">
<ele>46.530</ele>
<time>2017-09-16T23:12:53.997Z</time>
</trkpt>
<trkpt lat="-27.5012275" lon="152.6699233">
<ele>47.229</ele>
<time>2017-09-16T23:12:55.721Z</time>
</trkpt>
<trkpt lat="-27.5011293" lon="152.6699245">
<ele>46.574</ele>
<time>2017-09-16T23:12:57.996Z</time>
</trkpt>
<trkpt lat="-27.5011293" lon="152.6699245">
<ele>45.027</ele>
<time>2017-09-16T23:13:01.996Z</time>
</trkpt>
<trkpt lat="-27.5011293" lon="152.6699245">
<ele>43.954</ele>
<time>2017-09-16T23:13:03.917Z</time>
</trkpt>
<trkpt lat="-27.5008729" lon="152.6699944">
<ele>43.981</ele>
<time>2017-09-16T23:13:12.600Z</time>
</trkpt>
<trkpt lat="-27.5005150" lon="152.6700143">
<ele>44.399</ele>
<time>2017-09-16T23:13:15.162Z</time>
</trkpt>
<trkpt lat="-27.5000805" lon="152.6700155">
<ele>44.486</ele>
<time>2017-09-16T23:13:17.279Z</time>
</trkpt>
<trkpt lat="-27.4992928" lon="152.6700461">
<ele>44.729</ele>
<time>2017-09-16T23:13:20.596Z</time>
</trkpt>
<trkpt lat="-27.4985926" lon="152.6700841">
<ele>45.920</ele>
<time>2017-09-16T23:13:23.498Z</time>
</trkpt>
<trkpt lat="-27.4981528" lon="152.6701404">
<ele>47.647</ele>
<time>2017-09-16T23:13:25.393Z</time>
</trkpt>
<trkpt lat="-27.4974678" lon="152.6701747">
<ele>48.773</ele>
<time>2017-09-16T23:13:28.348Z</time>
</trkpt>
<trkpt lat="-27.4970066" lon="152.6702054">
<ele>48.821</ele>
<time>2017-09-16T23:13:30.339Z</time>
</trkpt>
<trkpt lat="-27.4963128" lon="152.6702419">
<ele>48.073</ele>
<time>2017-09-16T23:13:33.336Z</time>
</trkpt>
<trkpt lat="-27.4958547" lon="152.6702651">
<ele>46.849</ele>
<time>2017-09-16T23:13:35.320Z</time>
</trkpt>
<trkpt lat="-27.4951693" lon="152.6702552">
<ele>45.280</ele>
<time>2017-09-16T23:13:38.292Z</time>
</trkpt>
<trkpt lat="-27.4947141" lon="152.6702490">
<ele>43.525</ele>
<time>2017-09-16T23:13:40.263Z</time>
</trkpt>
<trkpt lat="-27.4940237" lon="152.6701658">
<ele>41.816</ele>
<time>2017-09-16T23:13:43.252Z</time>
</trkpt>
<trkpt lat="-27.4935651" lon="152.6700852">
<ele>40.353</ele>
<time>2017-09-16T23:13:45.254Z</time>
</trkpt>
<trkpt lat="-27.4931094" lon="152.6700182">
<ele>39.326</ele>
<time>2017-09-16T23:13:47.265Z</time>
</trkpt>
<trkpt lat="-27.4924517" lon="152.6698975">
<ele>38.811</ele>
<time>2017-09-16T23:13:50.226Z</time>
</trkpt>
<trkpt lat="-27.4918066" lon="152.6697246">
<ele>38.695</ele>
<time>2017-09-16T23:13:53.180Z</time>
</trkpt>
<trkpt lat="-27.4911348" lon="152.6696103">
<ele>38.886</ele>
<time>2017-09-16T23:13:56.170Z</time>
</trkpt>
<trkpt lat="-27.4906897" lon="152.6694902">
<ele>39.459</ele>
<time>2017-09-16T23:13:58.187Z</time>
</trkpt>
<trkpt lat="-27.4902484" lon="152.6694414">
<ele>40.387</ele>
<time>2017-09-16T23:14:00.173Z</time>
</trkpt>
<trkpt lat="-27.4896022" lon="152.6693013">
<ele>41.431</ele>
<time>2017-09-16T23:14:03.137Z</time>
</trkpt>
<trkpt lat="-27.4891697" lon="152.6692211">
<ele>42.412</ele>
<time>2017-09-16T23:14:05.110Z</time>
</trkpt>
<trkpt lat="-27.4887264" lon="152.6691588">
<ele>43.191</ele>
<time>2017-09-16T23:14:07.111Z</time>
</trkpt>
<trkpt lat="-27.4880810" lon="152.6689786">
<ele>43.579</ele>
<time>2017-09-16T23:14:10.077Z</time>
</trkpt>
<trkpt lat="-27.4874115" lon="152.6688595">
<ele>43.386</ele>
<time>2017-09-16T23:14:13.096Z</time>
</trkpt>
<trkpt lat="-27.4869639" lon="152.6688035">
<ele>42.715</ele>
<time>2017-09-16T23:14:15.109Z</time>
</trkpt>
<trkpt lat="-27.4865232" lon="152.6687249">
<ele>41.978</ele>
<time>2017-09-16T23:14:17.095Z</time>
</trkpt>
<trkpt lat="-27.4860760" lon="152.6686465">
<ele>41.369</ele>
<time>2017-09-16T23:14:19.101Z</time>
</trkpt>
<trkpt lat="-27.4854138" lon="152.6685138">
<ele>40.670</ele>
<time>2017-09-16T23:14:22.096Z</time>
</trkpt>
<trkpt lat="-27.4847432" lon="152.6683481">
<ele>39.570</ele>
<time>2017-09-16T23:14:25.172Z</time>
</trkpt>
<trkpt lat="-27.4843134" lon="152.6682608">
<ele>37.858</ele>
<time>2017-09-16T23:14:27.131Z</time>
</trkpt>
<trkpt lat="-27.4836446" lon="152.6681362">
<ele>35.825</ele>
<time>2017-09-16T23:14:30.169Z</time>
</trkpt>
<trkpt lat="-27.4829962" lon="152.6680052">
<ele>34.118</ele>
<time>2017-09-16T23:14:33.116Z</time>
</trkpt>
<trkpt lat="-27.4825577" lon="152.6679282">
<ele>33.058</ele>
<time>2017-09-16T23:14:35.100Z</time>
</trkpt>
<trkpt lat="-27.4819032" lon="152.6677642">
<ele>32.574</ele>
<time>2017-09-16T23:14:38.096Z</time>
</trkpt>
<trkpt lat="-27.4814603" lon="152.6677129">
<ele>32.505</ele>
<time>2017-09-16T23:14:40.084Z</time>
</trkpt>
<trkpt lat="-27.4810204" lon="152.6676356">
<ele>32.651</ele>
<time>2017-09-16T23:14:42.056Z</time>
</trkpt>
<trkpt lat="-27.4802908" lon="152.6675799">
<ele>32.837</ele>
<time>2017-09-16T23:14:45.257Z</time>
</trkpt>
<trkpt lat="-27.4798298" lon="152.6675840">
<ele>33.008</ele>
<time>2017-09-16T23:14:47.230Z</time>
</trkpt>
<trkpt lat="-27.4791339" lon="152.6676436">
<ele>33.213</ele>
<time>2017-09-16T23:14:50.204Z</time>
</trkpt>
<trkpt lat="-27.4786747" lon="152.6676573">
<ele>33.529</ele>
<time>2017-09-16T23:14:52.182Z</time>
</trkpt>
<trkpt lat="-27.4780012" lon="152.6676815">
<ele>34.019</ele>
<time>2017-09-16T23:14:55.088Z</time>
</trkpt>
<trkpt lat="-27.4775396" lon="152.6676689">
<ele>34.708</ele>
<time>2017-09-16T23:14:57.054Z</time>
</trkpt>
<trkpt lat="-27.4768462" lon="152.6675374">
<ele>35.553</ele>
<time>2017-09-16T23:15:00.036Z</time>
</trkpt>
<trkpt lat="-27.4763941" lon="152.6673797">
<ele>36.542</ele>
<time>2017-09-16T23:15:02.043Z</time>
</trkpt>
<trkpt lat="-27.4757353" lon="152.6671037">
<ele>37.677</ele>
<time>2017-09-16T23:15:05.030Z</time>
</trkpt>
<trkpt lat="-27.4753129" lon="152.6668824">
<ele>39.007</ele>
<time>2017-09-16T23:15:07.017Z</time>
</trkpt>
<trkpt lat="-27.4747172" lon="152.6664644">
<ele>40.521</ele>
<time>2017-09-16T23:15:10.003Z</time>
</trkpt>
<trkpt lat="-27.4741912" lon="152.6659247">
<ele>42.117</ele>
<time>2017-09-16T23:15:13.016Z</time>
</trkpt>
<trkpt lat="-27.4738403" lon="152.6655721">
<ele>43.749</ele>
<time>2017-09-16T23:15:15.001Z</time>
</trkpt>
<trkpt lat="-27.4733079" lon="152.6650422">
<ele>45.320</ele>
<time>2017-09-16T23:15:17.996Z</time>
</trkpt>
<trkpt lat="-27.4729297" lon="152.6647181">
<ele>46.621</ele>
<time>2017-09-16T23:15:19.992Z</time>
</trkpt>
<trkpt lat="-27.4723703" lon="152.6642268">
<ele>47.592</ele>
<time>2017-09-16T23:15:22.972Z</time>
</trkpt>
<trkpt lat="-27.4720097" lon="152.6638831">
<ele>48.370</ele>
<time>2017-09-16T23:15:24.964Z</time>
</trkpt>
<trkpt lat="-27.4716238" lon="152.6635897">
<ele>49.079</ele>
<time>2017-09-16T23:15:26.935Z</time>
</trkpt>
<trkpt lat="-27.4712199" lon="152.6633166">
<ele>49.703</ele>
<time>2017-09-16T23:15:28.917Z</time>
</trkpt>
<trkpt lat="-27.4705770" lon="152.6629577">
<ele>50.209</ele>
<time>2017-09-16T23:15:31.933Z</time>
</trkpt>
<trkpt lat="-27.4699084" lon="152.6627070">
<ele>50.674</ele>
<time>2017-09-16T23:15:34.909Z</time>
</trkpt>
<trkpt lat="-27.4692244" lon="152.6625278">
<ele>51.207</ele>
<time>2017-09-16T23:15:37.878Z</time>
</trkpt>
<trkpt lat="-27.4687607" lon="152.6624362">
<ele>51.951</ele>
<time>2017-09-16T23:15:39.863Z</time>
</trkpt>
<trkpt lat="-27.4680692" lon="152.6622678">
<ele>52.889</ele>
<time>2017-09-16T23:15:42.844Z</time>
</trkpt>
<trkpt lat="-27.4673562" lon="152.6621099">
<ele>53.978</ele>
<time>2017-09-16T23:15:45.907Z</time>
</trkpt>
<trkpt lat="-27.4666748" lon="152.6619275">
<ele>55.381</ele>
<time>2017-09-16T23:15:48.875Z</time>
</trkpt>
<trkpt lat="-27.4659897" lon="152.6617386">
<ele>57.041</ele>
<time>2017-09-16T23:15:51.864Z</time>
</trkpt>
<trkpt lat="-27.4652951" lon="152.6615700">
<ele>58.621</ele>
<time>2017-09-16T23:15:54.858Z</time>
</trkpt>
<trkpt lat="-27.4648328" lon="152.6614119">
<ele>60.030</ele>
<time>2017-09-16T23:15:56.879Z</time>
</trkpt>
<trkpt lat="-27.4641832" lon="152.6610806">
<ele>61.207</ele>
<time>2017-09-16T23:15:59.874Z</time>
</trkpt>
<trkpt lat="-27.4635694" lon="152.6606941">
<ele>61.934</ele>
<time>2017-09-16T23:16:02.883Z</time>
</trkpt>
<trkpt lat="-27.4632050" lon="152.6604163">
<ele>62.158</ele>
<time>2017-09-16T23:16:04.913Z</time>
</trkpt>
<trkpt lat="-27.4626970" lon="152.6600611">
<ele>61.902</ele>
<time>2017-09-16T23:16:07.814Z</time>
</trkpt>
<trkpt lat="-27.4623734" lon="152.6598344">
<ele>60.962</ele>
<time>2017-09-16T23:16:09.755Z</time>
</trkpt>
<trkpt lat="-27.4620481" lon="152.6595930">
<ele>59.309</ele>
<time>2017-09-16T23:16:11.755Z</time>
</trkpt>
<trkpt lat="-27.4615437" lon="152.6592918">
<ele>57.375</ele>
<time>2017-09-16T23:16:14.721Z</time>
</trkpt>
<trkpt lat="-27.4612314" lon="152.6590686">
<ele>55.563</ele>
<time>2017-09-16T23:16:16.681Z</time>
</trkpt>
<trkpt lat="-27.4609109" lon="152.6588497">
<ele>54.032</ele>
<time>2017-09-16T23:16:18.648Z</time>
</trkpt>
<trkpt lat="-27.4604416" lon="152.6584689">
<ele>52.859</ele>
<time>2017-09-16T23:16:21.659Z</time>
</trkpt>
<trkpt lat="-27.4601337" lon="152.6582147">
<ele>51.939</ele>
<time>2017-09-16T23:16:23.667Z</time>
</trkpt>
<trkpt lat="-27.4598475" lon="152.6579480">
<ele>51.100</ele>
<time>2017-09-16T23:16:25.670Z</time>
</trkpt>
<trkpt lat="-27.4595881" lon="152.6576764">
<ele>50.305</ele>
<time>2017-09-16T23:16:27.689Z</time>
</trkpt>
<trkpt lat="-27.4592254" lon="152.6573170">
<ele>49.535</ele>
<time>2017-09-16T23:16:30.628Z</time>
</trkpt>
<trkpt lat="-27.4589287" lon="152.6569598">
<ele>48.596</ele>
<time>2017-09-16T23:16:33.494Z</time>
</trkpt>
<trkpt lat="-27.4586663" lon="152.6565755">
<ele>47.220</ele>
<time>2017-09-16T23:16:36.453Z</time>
</trkpt>
<trkpt lat="-27.4583639" lon="152.6562392">
<ele>45.361</ele>
<time>2017-09-16T23:16:39.393Z</time>
</trkpt>
<trkpt lat="-27.4581872" lon="152.6559869">
<ele>43.293</ele>
<time>2017-09-16T23:16:41.365Z</time>
</trkpt>
<trkpt lat="-27.4579205" lon="152.6555955">
<ele>41.431</ele>
<time>2017-09-16T23:16:44.396Z</time>
</trkpt>
<trkpt lat="-27.4577160" lon="152.6553661">
<ele>40.016</ele>
<time>2017-09-16T23:16:46.395Z</time>
</trkpt>
<trkpt lat="-27.4575372" lon="152.6551080">
<ele>39.013</ele>
<time>2017-09-16T23:16:48.406Z</time>
</trkpt>
<trkpt lat="-27.4572309" lon="152.6547702">
<ele>38.302</ele>
<time>2017-09-16T23:16:51.365Z</time>
</trkpt>
<trkpt lat="-27.4570404" lon="152.6545210">
<ele>37.827</ele>
<time>2017-09-16T23:16:53.374Z</time>
</trkpt>
<trkpt lat="-27.4567224" lon="152.6541918">
<ele>37.566</ele>
<time>2017-09-16T23:16:56.349Z</time>
</trkpt>
<trkpt lat="-27.4563760" lon="152.6538972">
<ele>37.519</ele>
<time>2017-09-16T23:16:59.340Z</time>
</trkpt>
<trkpt lat="-27.4561680" lon="152.6536723">
<ele>37.669</ele>
<time>2017-09-16T23:17:01.327Z</time>
</trkpt>
<trkpt lat="-27.4559737" lon="152.6534286">
<ele>37.969</ele>
<time>2017-09-16T23:17:03.338Z</time>
</trkpt>
<trkpt lat="-27.4557585" lon="152.6532251">
<ele>38.299</ele>
<time>2017-09-16T23:17:05.337Z</time>
</trkpt>
<trkpt lat="-27.4554808" lon="152.6529107">
<ele>38.541</ele>
<time>2017-09-16T23:17:08.249Z</time>
</trkpt>
<trkpt lat="-27.4552485" lon="152.6525739">
<ele>38.615</ele>
<time>2017-09-16T23:17:11.175Z</time>
</trkpt>
<trkpt lat="-27.4549743" lon="152.6522770">
<ele>38.499</ele>
<time>2017-09-16T23:17:14.143Z</time>
</trkpt>
<trkpt lat="-27.4547704" lon="152.6520991">
<ele>38.240</ele>
<time>2017-09-16T23:17:16.204Z</time>
</trkpt>
<trkpt lat="-27.4545677" lon="152.6517840">
<ele>37.901</ele>
<time>2017-09-16T23:17:19.136Z</time>
</trkpt>
<trkpt lat="-27.4544218" lon="152.6516313">
<ele>37.464</ele>
<time>2017-09-16T23:17:21.059Z</time>
</trkpt>
<trkpt lat="-27.4542778" lon="152.6515123">
<ele>36.917</ele>
<time>2017-09-16T23:17:22.993Z</time>
</trkpt>
<trkpt lat="-27.4541348" lon="152.6513033">
<ele>36.347</ele>
<time>2017-09-16T23:17:25.812Z</time>
</trkpt>
<trkpt lat="-27.4540352" lon="152.6512112">
<ele>35.813</ele>
<time>2017-09-16T23:17:27.728Z</time>
</trkpt>
<trkpt lat="-27.4539406" lon="152.6511155">
<ele>35.308</ele>
<time>2017-09-16T23:17:29.998Z</time>
</trkpt>
<trkpt lat="-27.4539406" lon="152.6511155">
<ele>34.912</ele>
<time>2017-09-16T23:17:37.998Z</time>
</trkpt>
<trkpt lat="-27.4539406" lon="152.6511155">
<ele>34.730</ele>
<time>2017-09-16T23:17:57.818Z</time>
</trkpt>
<trkpt lat="-27.4537998" lon="152.6509262">
<ele>34.737</ele>
<time>2017-09-16T23:18:05.229Z</time>
</trkpt>
<trkpt lat="-27.4536835" lon="152.6507958">
<ele>34.683</ele>
<time>2017-09-16T23:18:08.250Z</time>
</trkpt>
<trkpt lat="-27.4535832" lon="152.6507118">
<ele>34.404</ele>
<time>2017-09-16T23:18:10.721Z</time>
</trkpt>
<trkpt lat="-27.4535936" lon="152.6505569">
<ele>34.081</ele>
<time>2017-09-16T23:18:13.999Z</time>
</trkpt>
<trkpt lat="-27.4536808" lon="152.6504396">
<ele>33.913</ele>
<time>2017-09-16T23:18:16.529Z</time>
</trkpt>
<trkpt lat="-27.4537989" lon="152.6504016">
<ele>33.868</ele>
<time>2017-09-16T23:18:18.290Z</time>
</trkpt>
<trkpt lat="-27.4540451" lon="152.6503899">
<ele>33.916</ele>
<time>2017-09-16T23:18:21.280Z</time>
</trkpt>
<trkpt lat="-27.4542729" lon="152.6503747">
<ele>34.099</ele>
<time>2017-09-16T23:18:23.715Z</time>
</trkpt>
<trkpt lat="-27.4544581" lon="152.6503420">
<ele>34.510</ele>
<time>2017-09-16T23:18:25.572Z</time>
</trkpt>
<trkpt lat="-27.4546670" lon="152.6502820">
<ele>35.177</ele>
<time>2017-09-16T23:18:27.565Z</time>
</trkpt>
<trkpt lat="-27.4549168" lon="152.6502445">
<ele>35.951</ele>
<time>2017-09-16T23:18:29.679Z</time>
</trkpt>
<trkpt lat="-27.4551767" lon="152.6502054">
<ele>36.650</ele>
<time>2017-09-16T23:18:31.719Z</time>
</trkpt>
<trkpt lat="-27.4555833" lon="152.6501731">
<ele>37.251</ele>
<time>2017-09-16T23:18:34.709Z</time>
</trkpt>
<trkpt lat="-27.4558577" lon="152.6501405">
<ele>37.879</ele>
<time>2017-09-16T23:18:36.718Z</time>
</trkpt>
<trkpt lat="-27.4562623" lon="152.6500765">
<ele>38.673</ele>
<time>2017-09-16T23:18:39.711Z</time>
</trkpt>
<trkpt lat="-27.4565357" lon="152.6500303">
<ele>39.614</ele>
<time>2017-09-16T23:18:41.733Z</time>
</trkpt>
<trkpt lat="-27.4569421" lon="152.6499716">
<ele>40.495</ele>
<time>2017-09-16T23:18:44.717Z</time>
</trkpt>
<trkpt lat="-27.4573480" lon="152.6499077">
<ele>41.162</ele>
<time>2017-09-16T23:18:47.707Z</time>
</trkpt>
<trkpt lat="-27.4576163" lon="152.6498557">
<ele>41.711</ele>
<time>2017-09-16T23:18:49.698Z</time>
</trkpt>
<trkpt lat="-27.4580208" lon="152.6497911">
<ele>42.295</ele>
<time>2017-09-16T23:18:52.684Z</time>
</trkpt>
<trkpt lat="-27.4582909" lon="152.6497480">
<ele>42.969</ele>
<time>2017-09-16T23:18:54.673Z</time>
</trkpt>
<trkpt lat="-27.4585606" lon="152.6496980">
<ele>43.748</ele>
<time>2017-09-16T23:18:56.659Z</time>
</trkpt>
<trkpt lat="-27.4589694" lon="152.6496243">
<ele>44.578</ele>
<time>2017-09-16T23:18:59.671Z</time>
</trkpt>
<trkpt lat="-27.4593777" lon="152.6495610">
<ele>45.462</ele>
<time>2017-09-16T23:19:02.592Z</time>
</trkpt>
<trkpt lat="-27.4596596" lon="152.6495219">
<ele>46.486</ele>
<time>2017-09-16T23:19:04.503Z</time>
</trkpt>
<trkpt lat="-27.4599582" lon="152.6494699">
<ele>47.629</ele>
<time>2017-09-16T23:19:06.447Z</time>
</trkpt>
<trkpt lat="-27.4604413" lon="152.6493923">
<ele>48.820</ele>
<time>2017-09-16T23:19:09.438Z</time>
</trkpt>
<trkpt lat="-27.4609388" lon="152.6493158">
<ele>50.230</ele>
<time>2017-09-16T23:19:12.401Z</time>
</trkpt>
<trkpt lat="-27.4614510" lon="152.6492186">
<ele>52.200</ele>
<time>2017-09-16T23:19:15.392Z</time>
</trkpt>
<trkpt lat="-27.4619653" lon="152.6491232">
<ele>54.898</ele>
<time>2017-09-16T23:19:18.312Z</time>
</trkpt>
<trkpt lat="-27.4623377" lon="152.6490562">
<ele>57.895</ele>
<time>2017-09-16T23:19:20.366Z</time>
</trkpt>
<trkpt lat="-27.4627130" lon="152.6490013">
<ele>60.247</ele>
<time>2017-09-16T23:19:22.392Z</time>
</trkpt>
<trkpt lat="-27.4630755" lon="152.6489096">
<ele>61.363</ele>
<time>2017-09-16T23:19:24.350Z</time>
</trkpt>
<trkpt lat="-27.4634518" lon="152.6487787">
<ele>61.612</ele>
<time>2017-09-16T23:19:26.423Z</time>
</trkpt>
<trkpt lat="-27.4640077" lon="152.6486353">
<ele>61.958</ele>
<time>2017-09-16T23:19:29.453Z</time>
</trkpt>
<trkpt lat="-27.4645507" lon="152.6484975">
<ele>62.947</ele>
<time>2017-09-16T23:19:32.421Z</time>
</trkpt>
<trkpt lat="-27.4651022" lon="152.6483353">
<ele>64.184</ele>
<time>2017-09-16T23:19:35.441Z</time>
</trkpt>
<trkpt lat="-27.4654657" lon="152.6482091">
<ele>65.367</ele>
<time>2017-09-16T23:19:37.436Z</time>
</trkpt>
<trkpt lat="-27.4660290" lon="152.6480996">
<ele>66.856</ele>
<time>2017-09-16T23:19:40.403Z</time>
</trkpt>
<trkpt lat="-27.4666285" lon="152.6479274">
<ele>68.918</ele>
<time>2017-09-16T23:19:43.594Z</time>
</trkpt>
<trkpt lat="-27.4670052" lon="152.6478835">
<ele>71.328</ele>
<time>2017-09-16T23:19:45.568Z</time>
</trkpt>
<trkpt lat="-27.4673819" lon="152.6478272">
<ele>73.513</ele>
<time>2017-09-16T23:19:47.573Z</time>
</trkpt>
<trkpt lat="-27.4679239" lon="152.6477702">
<ele>74.914</ele>
<time>2017-09-16T23:19:50.446Z</time>
</trkpt>
<trkpt lat="-27.4683054" lon="152.6477150">
<ele>75.404</ele>
<time>2017-09-16T23:19:52.461Z</time>
</trkpt>
<trkpt lat="-27.4688733" lon="152.6476234">
<ele>75.212</ele>
<time>2017-09-16T23:19:55.457Z</time>
</trkpt>
<trkpt lat="-27.4694470" lon="152.6475754">
<ele>74.567</ele>
<time>2017-09-16T23:19:58.462Z</time>
</trkpt>
<trkpt lat="-27.4699934" lon="152.6473850">
<ele>73.510</ele>
<time>2017-09-16T23:20:01.426Z</time>
</trkpt>
<trkpt lat="-27.4705470" lon="152.6471374">
<ele>72.135</ele>
<time>2017-09-16T23:20:04.522Z</time>
</trkpt>
<trkpt lat="-27.4708826" lon="152.6469551">
<ele>70.739</ele>
<time>2017-09-16T23:20:06.482Z</time>
</trkpt>
<trkpt lat="-27.4713863" lon="152.6466757">
<ele>69.660</ele>
<time>2017-09-16T23:20:09.434Z</time>
</trkpt>
<trkpt lat="-27.4719129" lon="152.6463732">
<ele>69.085</ele>
<time>2017-09-16T23:20:12.553Z</time>
</trkpt>
<trkpt lat="-27.4722027" lon="152.6461086">
<ele>69.059</ele>
<time>2017-09-16T23:20:14.529Z</time>
</trkpt>
<trkpt lat="-27.4727303" lon="152.6458591">
<ele>69.483</ele>
<time>2017-09-16T23:20:17.541Z</time>
</trkpt>
<trkpt lat="-27.4730879" lon="152.6457092">
<ele>70.037</ele>
<time>2017-09-16T23:20:19.513Z</time>
</trkpt>
<trkpt lat="-27.4734596" lon="152.6455898">
<ele>70.330</ele>
<time>2017-09-16T23:20:21.483Z</time>
</trkpt>
<trkpt lat="-27.4740384" lon="152.6454587">
<ele>70.263</ele>
<time>2017-09-16T23:20:24.467Z</time>
</trkpt>
<trkpt lat="-27.4746278" lon="152.6453345">
<ele>70.039</ele>
<time>2017-09-16T23:20:27.486Z</time>
</trkpt>
<trkpt lat="-27.4750209" lon="152.6452503">
<ele>69.906</ele>
<time>2017-09-16T23:20:29.517Z</time>
</trkpt>
<trkpt lat="-27.4755910" lon="152.6451437">
<ele>69.995</ele>
<time>2017-09-16T23:20:32.444Z</time>
</trkpt>
<trkpt lat="-27.4759923" lon="152.6451044">
<ele>70.337</ele>
<time>2017-09-16T23:20:34.450Z</time>
</trkpt>
<trkpt lat="-27.4764005" lon="152.6450743">
<ele>70.795</ele>
<time>2017-09-16T23:20:36.477Z</time>
</trkpt>
<trkpt lat="-27.4770097" lon="152.6450520">
<ele>70.936</ele>
<time>2017-09-16T23:20:39.492Z</time>
</trkpt>
<trkpt lat="-27.4774124" lon="152.6450601">
<ele>70.073</ele>
<time>2017-09-16T23:20:41.493Z</time>
</trkpt>
<trkpt lat="-27.4778276" lon="152.6450331">
<ele>67.903</ele>
<time>2017-09-16T23:20:43.572Z</time>
</trkpt>
<trkpt lat="-27.4784297" lon="152.6449906">
<ele>64.935</ele>
<time>2017-09-16T23:20:46.595Z</time>
</trkpt>
<trkpt lat="-27.4788620" lon="152.6449461">
<ele>61.712</ele>
<time>2017-09-16T23:20:48.772Z</time>
</trkpt>
<trkpt lat="-27.4794370" lon="152.6448031">
<ele>58.468</ele>
<time>2017-09-16T23:20:51.720Z</time>
</trkpt>
<trkpt lat="-27.4798232" lon="152.6446898">
<ele>55.334</ele>
<time>2017-09-16T23:20:53.717Z</time>
</trkpt>
<trkpt lat="-27.4804086" lon="152.6445190">
<ele>52.318</ele>
<time>2017-09-16T23:20:56.777Z</time>
</trkpt>
<trkpt lat="-27.4809643" lon="152.6443824">
<ele>49.317</ele>
<time>2017-09-16T23:20:59.690Z</time>
</trkpt>
<trkpt lat="-27.4813413" lon="152.6442829">
<ele>46.291</ele>
<time>2017-09-16T23:21:01.676Z</time>
</trkpt>
<trkpt lat="-27.4817254" lon="152.6441953">
<ele>43.515</ele>
<time>2017-09-16T23:21:03.687Z</time>
</trkpt>
<trkpt lat="-27.4822939" lon="152.6440542">
<ele>41.611</ele>
<time>2017-09-16T23:21:06.672Z</time>
</trkpt>
<trkpt lat="-27.4828674" lon="152.6439145">
<ele>40.806</ele>
<time>2017-09-16T23:21:09.660Z</time>
</trkpt>
<trkpt lat="-27.4834490" lon="152.6437994">
<ele>40.994</ele>
<time>2017-09-16T23:21:12.672Z</time>
</trkpt>
<trkpt lat="-27.4840210" lon="152.6436713">
<ele>42.017</ele>
<time>2017-09-16T23:21:15.680Z</time>
</trkpt>
<trkpt lat="-27.4844026" lon="152.6436139">
<ele>43.434</ele>
<time>2017-09-16T23:21:17.689Z</time>
</trkpt>
<trkpt lat="-27.4847731" lon="152.6435378">
<ele>44.678</ele>
<time>2017-09-16T23:21:19.664Z</time>
</trkpt>
<trkpt lat="-27.4853289" lon="152.6434435">
<ele>45.626</ele>
<time>2017-09-16T23:21:22.616Z</time>
</trkpt>
<trkpt lat="-27.4856983" lon="152.6433657">
<ele>46.647</ele>
<time>2017-09-16T23:21:24.573Z</time>
</trkpt>
<trkpt lat="-27.4862673" lon="152.6432161">
<ele>48.159</ele>
<time>2017-09-16T23:21:27.568Z</time>
</trkpt>
<trkpt lat="-27.4868449" lon="152.6431045">
<ele>50.304</ele>
<time>2017-09-16T23:21:30.545Z</time>
</trkpt>
<trkpt lat="-27.4872415" lon="152.6430256">
<ele>52.650</ele>
<time>2017-09-16T23:21:32.587Z</time>
</trkpt>
<trkpt lat="-27.4878309" lon="152.6429453">
<ele>54.342</ele>
<time>2017-09-16T23:21:35.598Z</time>
</trkpt>
<trkpt lat="-27.4882180" lon="152.6428425">
<ele>54.701</ele>
<time>2017-09-16T23:21:37.620Z</time>
</trkpt>
<trkpt lat="-27.4887959" lon="152.6427164">
<ele>53.650</ele>
<time>2017-09-16T23:21:40.627Z</time>
</trkpt>
<trkpt lat="-27.4893720" lon="152.6426234">
<ele>51.476</ele>
<time>2017-09-16T23:21:43.622Z</time>
</trkpt>
<trkpt lat="-27.4897558" lon="152.6425479">
<ele>48.534</ele>
<time>2017-09-16T23:21:45.634Z</time>
</trkpt>
<trkpt lat="-27.4903269" lon="152.6424253">
<ele>45.249</ele>
<time>2017-09-16T23:21:48.660Z</time>
</trkpt>
<trkpt lat="-27.4907103" lon="152.6423809">
<ele>41.951</ele>
<time>2017-09-16T23:21:50.695Z</time>
</trkpt>
<trkpt lat="-27.4912611" lon="152.6422837">
<ele>38.791</ele>
<time>2017-09-16T23:21:53.655Z</time>
</trkpt>
<trkpt lat="-27.4918302" lon="152.6421896">
<ele>36.071</ele>
<time>2017-09-16T23:21:56.684Z</time>
</trkpt>
<trkpt lat="-27.4922079" lon="152.6421571">
<ele>34.119</ele>
<time>2017-09-16T23:21:58.673Z</time>
</trkpt>
<trkpt lat="-27.4925834" lon="152.6420699">
<ele>33.005</ele>
<time>2017-09-16T23:22:00.690Z</time>
</trkpt>
<trkpt lat="-27.4931392" lon="152.6419643">
<ele>32.565</ele>
<time>2017-09-16T23:22:03.657Z</time>
</trkpt>
<trkpt lat="-27.4937046" lon="152.6418691">
<ele>32.471</ele>
<time>2017-09-16T23:22:06.673Z</time>
</trkpt>
<trkpt lat="-27.4940822" lon="152.6417932">
<ele>32.502</ele>
<time>2017-09-16T23:22:08.711Z</time>
</trkpt>
<trkpt lat="-27.4944532" lon="152.6417278">
<ele>32.602</ele>
<time>2017-09-16T23:22:10.712Z</time>
</trkpt>
<trkpt lat="-27.4949982" lon="152.6416074">
<ele>32.820</ele>
<time>2017-09-16T23:22:13.663Z</time>
</trkpt>
<trkpt lat="-27.4955511" lon="152.6415107">
<ele>33.291</ele>
<time>2017-09-16T23:22:16.631Z</time>
</trkpt>
<trkpt lat="-27.4961068" lon="152.6413924">
<ele>34.175</ele>
<time>2017-09-16T23:22:19.613Z</time>
</trkpt>
<trkpt lat="-27.4966764" lon="152.6412871">
<ele>35.520</ele>
<time>2017-09-16T23:22:22.641Z</time>
</trkpt>
<trkpt lat="-27.4970502" lon="152.6412100">
<ele>37.073</ele>
<time>2017-09-16T23:22:24.624Z</time>
</trkpt>
<trkpt lat="-27.4974330" lon="152.6411122">
<ele>38.335</ele>
<time>2017-09-16T23:22:26.656Z</time>
</trkpt>
<trkpt lat="-27.4980062" lon="152.6409699">
<ele>38.943</ele>
<time>2017-09-16T23:22:29.674Z</time>
</trkpt>
<trkpt lat="-27.4983932" lon="152.6408982">
<ele>38.697</ele>
<time>2017-09-16T23:22:31.706Z</time>
</trkpt>
<trkpt lat="-27.4987821" lon="152.6408861">
<ele>37.545</ele>
<time>2017-09-16T23:22:33.742Z</time>
</trkpt>
<trkpt lat="-27.4991571" lon="152.6408126">
<ele>35.789</ele>
<time>2017-09-16T23:22:35.741Z</time>
</trkpt>
<trkpt lat="-27.4997161" lon="152.6407116">
<ele>33.933</ele>
<time>2017-09-16T23:22:38.724Z</time>
</trkpt>
<trkpt lat="-27.5000869" lon="152.6406166">
<ele>32.290</ele>
<time>2017-09-16T23:22:40.736Z</time>
</trkpt>
<trkpt lat="-27.5006358" lon="152.6405309">
<ele>31.006</ele>
<time>2017-09-16T23:22:43.681Z</time>
</trkpt>
<trkpt lat="-27.5010161" lon="152.6404852">
<ele>30.126</ele>
<time>2017-09-16T23:22:45.716Z</time>
</trkpt>
<trkpt lat="-27.5015659" lon="152.6403786">
<ele>29.641</ele>
<time>2017-09-16T23:22:48.677Z</time>
</trkpt>
<trkpt lat="-27.5021310" lon="152.6402751">
<ele>29.566</ele>
<time>2017-09-16T23:22:51.685Z</time>
</trkpt>
<trkpt lat="-27.5025045" lon="152.6401959">
<ele>29.923</ele>
<time>2017-09-16T23:22:53.641Z</time>
</trkpt>
<trkpt lat="-27.5028854" lon="152.6401217">
<ele>30.518</ele>
<time>2017-09-16T23:22:55.582Z</time>
</trkpt>
<trkpt lat="-27.5035087" lon="152.6399723">
<ele>31.042</ele>
<time>2017-09-16T23:22:58.624Z</time>
</trkpt>
<trkpt lat="-27.5039209" lon="152.6399228">
<ele>31.446</ele>
<time>2017-09-16T23:23:00.529Z</time>
</trkpt>
<trkpt lat="-27.5045921" lon="152.6398205">
<ele>31.967</ele>
<time>2017-09-16T23:23:03.573Z</time>
</trkpt>
<trkpt lat="-27.5052593" lon="152.6397003">
<ele>32.859</ele>
<time>2017-09-16T23:23:06.590Z</time>
</trkpt>
<trkpt lat="-27.5057030" lon="152.6396029">
<ele>34.115</ele>
<time>2017-09-16T23:23:08.625Z</time>
</trkpt>
<trkpt lat="-27.5061379" lon="152.6395436">
<ele>35.444</ele>
<time>2017-09-16T23:23:10.610Z</time>
</trkpt>
<trkpt lat="-27.5068005" lon="152.6394208">
<ele>36.505</ele>
<time>2017-09-16T23:23:13.684Z</time>
</trkpt>
<trkpt lat="-27.5072183" lon="152.6393330">
<ele>37.121</ele>
<time>2017-09-16T23:23:15.647Z</time>
</trkpt>
<trkpt lat="-27.5078633" lon="152.6391908">
<ele>37.285</ele>
<time>2017-09-16T23:23:18.693Z</time>
</trkpt>
<trkpt lat="-27.5082941" lon="152.6391191">
<ele>37.027</ele>
<time>2017-09-16T23:23:20.712Z</time>
</trkpt>
<trkpt lat="-27.5089376" lon="152.6390389">
<ele>36.427</ele>
<time>2017-09-16T23:23:23.704Z</time>
</trkpt>
<trkpt lat="-27.5093824" lon="152.6389410">
<ele>35.689</ele>
<time>2017-09-16T23:23:25.801Z</time>
</trkpt>
<trkpt lat="-27.5100161" lon="152.6388328">
<ele>35.003</ele>
<time>2017-09-16T23:23:28.779Z</time>
</trkpt>
<trkpt lat="-27.5104428" lon="152.6387565">
<ele>34.457</ele>
<time>2017-09-16T23:23:30.774Z</time>
</trkpt>
<trkpt lat="-27.5108761" lon="152.6386917">
<ele>34.114</ele>
<time>2017-09-16T23:23:32.780Z</time>
</trkpt>
<trkpt lat="-27.5113057" lon="152.6386016">
<ele>33.981</ele>
<time>2017-09-16T23:23:34.781Z</time>
</trkpt>
<trkpt lat="-27.5119517" lon="152.6385043">
<ele>33.994</ele>
<time>2017-09-16T23:23:37.785Z</time>
</trkpt>
<trkpt lat="-27.5125940" lon="152.6383870">
<ele>34.067</ele>
<time>2017-09-16T23:23:40.806Z</time>
</trkpt>
<trkpt lat="-27.5130150" lon="152.6382950">
<ele>34.291</ele>
<time>2017-09-16T23:23:42.837Z</time>
</trkpt>
<trkpt lat="-27.5134441" lon="152.6382207">
<ele>34.897</ele>
<time>2017-09-16T23:23:44.950Z</time>
</trkpt>
<trkpt lat="-27.5140207" lon="152.6381397">
<ele>35.943</ele>
<time>2017-09-16T23:23:47.992Z</time>
</trkpt>
<trkpt lat="-27.5145581" lon="152.6379926">
<ele>37.081</ele>
<time>2017-09-16T23:23:51.059Z</time>
</trkpt>
<trkpt lat="-27.5150736" lon="152.6379208">
<ele>37.831</ele>
<time>2017-09-16T23:23:54.199Z</time>
</trkpt>
<trkpt lat="-27.5153860" lon="152.6378599">
<ele>38.065</ele>
<time>2017-09-16T23:23:56.194Z</time>
</trkpt>
<trkpt lat="-27.5158389" lon="152.6378097">
<ele>38.050</ele>
<time>2017-09-16T23:23:59.138Z</time>
</trkpt>
<trkpt lat="-27.5162944" lon="152.6377145">
<ele>38.105</ele>
<time>2017-09-16T23:24:02.244Z</time>
</trkpt>
<trkpt lat="-27.5165784" lon="152.6376555">
<ele>38.554</ele>
<time>2017-09-16T23:24:04.304Z</time>
</trkpt>
<trkpt lat="-27.5168538" lon="152.6375965">
<ele>39.494</ele>
<time>2017-09-16T23:24:06.392Z</time>
</trkpt>
<trkpt lat="-27.5172342" lon="152.6375133">
<ele>40.530</ele>
<time>2017-09-16T23:24:09.653Z</time>
</trkpt>
<trkpt lat="-27.5174609" lon="152.6374860">
<ele>41.148</ele>
<time>2017-09-16T23:24:11.973Z</time>
</trkpt>
<trkpt lat="-27.5176544" lon="152.6374227">
<ele>41.158</ele>
<time>2017-09-16T23:24:15.483Z</time>
</trkpt>
<trkpt lat="-27.5177998" lon="152.6373871">
<ele>40.550</ele>
<time>2017-09-16T23:24:19.868Z</time>
</trkpt>
<trkpt lat="-27.5179057" lon="152.6374292">
<ele>39.379</ele>
<time>2017-09-16T23:24:22.133Z</time>
</trkpt>
<trkpt lat="-27.5179267" lon="152.6373285">
<ele>37.765</ele>
<time>2017-09-16T23:24:23.629Z</time>
</trkpt>
<trkpt lat="-27.5178799" lon="152.6372140">
<ele>35.954</ele>
<time>2017-09-16T23:24:25.142Z</time>
</trkpt>
<trkpt lat="-27.5177487" lon="152.6370055">
<ele>34.445</ele>
<time>2017-09-16T23:24:27.864Z</time>
</trkpt>
<trkpt lat="-27.5176404" lon="152.6368668">
<ele>33.729</ele>
<time>2017-09-16T23:24:29.489Z</time>
</trkpt>
<trkpt lat="-27.5175066" lon="152.6367202">
<ele>33.841</ele>
<time>2017-09-16T23:24:31.068Z</time>
</trkpt>
<trkpt lat="-27.5173528" lon="152.6365150">
<ele>34.510</ele>
<time>2017-09-16T23:24:32.964Z</time>
</trkpt>
<trkpt lat="-27.5170903" lon="152.6361465">
<ele>35.557</ele>
<time>2017-09-16T23:24:35.860Z</time>
</trkpt>
<trkpt lat="-27.5168661" lon="152.6358565">
<ele>37.069</ele>
<time>2017-09-16T23:24:38.087Z</time>
</trkpt>
<trkpt lat="-27.5167074" lon="152.6355603">
<ele>39.083</ele>
<time>2017-09-16T23:24:40.091Z</time>
</trkpt>
<trkpt lat="-27.5165380" lon="152.6352771">
<ele>41.319</ele>
<time>2017-09-16T23:24:42.099Z</time>
</trkpt>
<trkpt lat="-27.5163255" lon="152.6348554">
<ele>43.390</ele>
<time>2017-09-16T23:24:45.088Z</time>
</trkpt>
<trkpt lat="-27.5162028" lon="152.6345635">
<ele>44.967</ele>
<time>2017-09-16T23:24:47.089Z</time>
</trkpt>
<trkpt lat="-27.5160195" lon="152.6341186">
<ele>45.817</ele>
<time>2017-09-16T23:24:50.029Z</time>
</trkpt>
<trkpt lat="-27.5159072" lon="152.6337995">
<ele>45.940</ele>
<time>2017-09-16T23:24:52.085Z</time>
</trkpt>
<trkpt lat="-27.5158190" lon="152.6334809">
<ele>45.537</ele>
<time>2017-09-16T23:24:54.156Z</time>
</trkpt>
<trkpt lat="-27.5156626" lon="152.6332130">
<ele>44.913</ele>
<time>2017-09-16T23:24:56.191Z</time>
</trkpt>
<trkpt lat="-27.5154520" lon="152.6328122">
<ele>44.372</ele>
<time>2017-09-16T23:24:59.179Z</time>
</trkpt>
<trkpt lat="-27.5152089" lon="152.6326391">
<ele>44.101</ele>
<time>2017-09-16T23:25:01.237Z</time>
</trkpt>
<trkpt lat="-27.5148444" lon="152.6323919">
<ele>44.137</ele>
<time>2017-09-16T23:25:04.209Z</time>
</trkpt>
<trkpt lat="-27.5146041" lon="152.6322212">
<ele>44.332</ele>
<time>2017-09-16T23:25:06.173Z</time>
</trkpt>
<trkpt lat="-27.5142506" lon="152.6319351">
<ele>44.444</ele>
<time>2017-09-16T23:25:09.122Z</time>
</trkpt>
<trkpt lat="-27.5140088" lon="152.6317145">
<ele>44.172</ele>
<time>2017-09-16T23:25:11.213Z</time>
</trkpt>
<trkpt lat="-27.5136307" lon="152.6314300">
<ele>43.288</ele>
<time>2017-09-16T23:25:14.351Z</time>
</trkpt>
<trkpt lat="-27.5133829" lon="152.6312462">
<ele>41.706</ele>
<time>2017-09-16T23:25:16.503Z</time>
</trkpt>
<trkpt lat="-27.5131377" lon="152.6310230">
<ele>39.587</ele>
<time>2017-09-16T23:25:18.865Z</time>
</trkpt>
<trkpt lat="-27.5128114" lon="152.6307730">
<ele>37.339</ele>
<time>2017-09-16T23:25:21.937Z</time>
</trkpt>
<trkpt lat="-27.5125024" lon="152.6305512">
<ele>35.187</ele>
<time>2017-09-16T23:25:24.770Z</time>
</trkpt>
<trkpt lat="-27.5122892" lon="152.6303937">
<ele>33.093</ele>
<time>2017-09-16T23:25:26.641Z</time>
</trkpt>
<trkpt lat="-27.5120888" lon="152.6302077">
<ele>31.289</ele>
<time>2017-09-16T23:25:28.516Z</time>
</trkpt>
<trkpt lat="-27.5117668" lon="152.6299223">
<ele>30.156</ele>
<time>2017-09-16T23:25:31.402Z</time>
</trkpt>
<trkpt lat="-27.5115284" lon="152.6297494">
<ele>29.717</ele>
<time>2017-09-16T23:25:33.412Z</time>
</trkpt>
<trkpt lat="-27.5111691" lon="152.6294927">
<ele>29.702</ele>
<time>2017-09-16T23:25:36.478Z</time>
</trkpt>
<trkpt lat="-27.5109431" lon="152.6293174">
<ele>29.866</ele>
<time>2017-09-16T23:25:38.440Z</time>
</trkpt>
<trkpt lat="-27.5107376" lon="152.6290991">
<ele>30.041</ele>
<time>2017-09-16T23:25:40.450Z</time>
</trkpt>
<trkpt lat="-27.5103711" lon="152.6288535">
<ele>30.139</ele>
<time>2017-09-16T23:25:43.451Z</time>
</trkpt>
<trkpt lat="-27.5101612" lon="152.6286480">
<ele>30.149</ele>
<time>2017-09-16T23:25:45.387Z</time>
</trkpt>
<trkpt lat="-27.5099308" lon="152.6284480">
<ele>30.070</ele>
<time>2017-09-16T23:25:47.411Z</time>
</trkpt>
<trkpt lat="-27.5095715" lon="152.6281753">
<ele>29.904</ele>
<time>2017-09-16T23:25:50.450Z</time>
</trkpt>
<trkpt lat="-27.5092404" lon="152.6278590">
<ele>29.687</ele>
<time>2017-09-16T23:25:53.535Z</time>
</trkpt>
<trkpt lat="-27.5088876" lon="152.6276014">
<ele>29.450</ele>
<time>2017-09-16T23:25:56.538Z</time>
</trkpt>
<trkpt lat="-27.5086447" lon="152.6274232">
<ele>29.234</ele>
<time>2017-09-16T23:25:58.606Z</time>
</trkpt>
<trkpt lat="-27.5083238" lon="152.6271123">
<ele>29.123</ele>
<time>2017-09-16T23:26:01.617Z</time>
</trkpt>
<trkpt lat="-27.5081057" lon="152.6268902">
<ele>29.250</ele>
<time>2017-09-16T23:26:03.691Z</time>
</trkpt>
<trkpt lat="-27.5077954" lon="152.6265573">
<ele>29.662</ele>
<time>2017-09-16T23:26:06.684Z</time>
</trkpt>
<trkpt lat="-27.5074974" lon="152.6262013">
<ele>30.277</ele>
<time>2017-09-16T23:26:09.716Z</time>
</trkpt>
<trkpt lat="-27.5071749" lon="152.6258977">
<ele>30.994</ele>
<time>2017-09-16T23:26:12.665Z</time>
</trkpt>
<trkpt lat="-27.5068461" lon="152.6255955">
<ele>31.755</ele>
<time>2017-09-16T23:26:15.659Z</time>
</trkpt>
<trkpt lat="-27.5065399" lon="152.6252662">
<ele>32.554</ele>
<time>2017-09-16T23:26:18.583Z</time>
</trkpt>
<trkpt lat="-27.5063436" lon="152.6250501">
<ele>33.425</ele>
<time>2017-09-16T23:26:20.235Z</time>
</trkpt>
<trkpt lat="-27.5061145" lon="152.6248038">
<ele>34.309</ele>
<time>2017-09-16T23:26:22.066Z</time>
</trkpt>
<trkpt lat="-27.5056935" lon="152.6243691">
<ele>35.187</ele>
<time>2017-09-16T23:26:25.017Z</time>
</trkpt>
<trkpt lat="-27.5053836" lon="152.6240762">
<ele>36.394</ele>
<time>2017-09-16T23:26:27.093Z</time>
</trkpt>
<trkpt lat="-27.5051212" lon="152.6237575">
<ele>38.157</ele>
<time>2017-09-16T23:26:29.118Z</time>
</trkpt>
<trkpt lat="-27.5048421" lon="152.6234778">
<ele>40.089</ele>
<time>2017-09-16T23:26:31.097Z</time>
</trkpt>
<trkpt lat="-27.5045715" lon="152.6231955">
<ele>41.702</ele>
<time>2017-09-16T23:26:33.046Z</time>
</trkpt>
<trkpt lat="-27.5041516" lon="152.6227419">
<ele>42.947</ele>
<time>2017-09-16T23:26:36.092Z</time>
</trkpt>
<trkpt lat="-27.5038491" lon="152.6224751">
<ele>44.072</ele>
<time>2017-09-16T23:26:38.112Z</time>
</trkpt>
<trkpt lat="-27.5034225" lon="152.6220591">
<ele>45.261</ele>
<time>2017-09-16T23:26:41.086Z</time>
</trkpt>
<trkpt lat="-27.5031489" lon="152.6217570">
<ele>46.439</ele>
<time>2017-09-16T23:26:43.104Z</time>
</trkpt>
<trkpt lat="-27.5028498" lon="152.6214963">
<ele>47.446</ele>
<time>2017-09-16T23:26:45.100Z</time>
</trkpt>
<trkpt lat="-27.5025829" lon="152.6211949">
<ele>48.209</ele>
<time>2017-09-16T23:26:47.099Z</time>
</trkpt>
<trkpt lat="-27.5021515" lon="152.6207794">
<ele>48.736</ele>
<time>2017-09-16T23:26:50.097Z</time>
</trkpt>
<trkpt lat="-27.5018678" lon="152.6204945">
<ele>49.092</ele>
<time>2017-09-16T23:26:52.099Z</time>
</trkpt>
<trkpt lat="-27.5014650" lon="152.6200341">
<ele>49.359</ele>
<time>2017-09-16T23:26:55.124Z</time>
</trkpt>
<trkpt lat="-27.5010597" lon="152.6195804">
<ele>49.673</ele>
<time>2017-09-16T23:26:58.156Z</time>
</trkpt>
<trkpt lat="-27.5007748" lon="152.6192936">
<ele>50.065</ele>
<time>2017-09-16T23:27:00.206Z</time>
</trkpt>
<trkpt lat="-27.5005551" lon="152.6189555">
<ele>50.385</ele>
<time>2017-09-16T23:27:02.209Z</time>
</trkpt>
<trkpt lat="-27.5002715" lon="152.6184180">
<ele>50.463</ele>
<time>2017-09-16T23:27:05.219Z</time>
</trkpt>
<trkpt lat="-27.5001119" lon="152.6180336">
<ele>50.320</ele>
<time>2017-09-16T23:27:07.288Z</time>
</trkpt>
<trkpt lat="-27.4999696" lon="152.6174432">
<ele>50.207</ele>
<time>2017-09-16T23:27:10.314Z</time>
</trkpt>
<trkpt lat="-27.4999186" lon="152.6170386">
<ele>50.545</ele>
<time>2017-09-16T23:27:12.288Z</time>
</trkpt>
<trkpt lat="-27.4998593" lon="152.6166151">
<ele>51.620</ele>
<time>2017-09-16T23:27:14.336Z</time>
</trkpt>
<trkpt lat="-27.4996902" lon="152.6160012">
<ele>53.422</ele>
<time>2017-09-16T23:27:17.375Z</time>
</trkpt>
<trkpt lat="-27.4995971" lon="152.6155917">
<ele>56.041</ele>
<time>2017-09-16T23:27:19.368Z</time>
</trkpt>
<trkpt lat="-27.4994124" lon="152.6149927">
<ele>59.677</ele>
<time>2017-09-16T23:27:22.347Z</time>
</trkpt>
<trkpt lat="-27.4992440" lon="152.6143766">
<ele>64.264</ele>
<time>2017-09-16T23:27:25.439Z</time>
</trkpt>
<trkpt lat="-27.4990670" lon="152.6138001">
<ele>69.648</ele>
<time>2017-09-16T23:27:28.426Z</time>
</trkpt>
<trkpt lat="-27.4988891" lon="152.6134454">
<ele>75.801</ele>
<time>2017-09-16T23:27:30.394Z</time>
</trkpt>
<trkpt lat="-27.4985142" lon="152.6129618">
<ele>82.256</ele>
<time>2017-09-16T23:27:33.385Z</time>
</trkpt>
<trkpt lat="-27.4982812" lon="152.6126144">
<ele>88.337</ele>
<time>2017-09-16T23:27:35.398Z</time>
</trkpt>
<trkpt lat="-27.4980098" lon="152.6123047">
<ele>93.702</ele>
<time>2017-09-16T23:27:37.481Z</time>
</trkpt>
<trkpt lat="-27.4977481" lon="152.6120018">
<ele>98.244</ele>
<time>2017-09-16T23:27:39.556Z</time>
</trkpt>
<trkpt lat="-27.4974750" lon="152.6116348">
<ele>102.090</ele>
<time>2017-09-16T23:27:41.986Z</time>
</trkpt>
<trkpt lat="-27.4973135" lon="152.6113306">
<ele>105.605</ele>
<time>2017-09-16T23:27:43.785Z</time>
</trkpt>
<trkpt lat="-27.4971610" lon="152.6109607">
<ele>108.861</ele>
<time>2017-09-16T23:27:45.853Z</time>
</trkpt>
<trkpt lat="-27.4968908" lon="152.6106338">
<ele>111.947</ele>
<time>2017-09-16T23:27:48.132Z</time>
</trkpt>
<trkpt lat="-27.4966660" lon="152.6104291">
<ele>115.228</ele>
<time>2017-09-16T23:27:49.951Z</time>
</trkpt>
<trkpt lat="-27.4963949" lon="152.6100456">
<ele>118.713</ele>
<time>2017-09-16T23:27:52.972Z</time>
</trkpt>
<trkpt lat="-27.4962018" lon="152.6097940">
<ele>122.037</ele>
<time>2017-09-16T23:27:55.021Z</time>
</trkpt>
<trkpt lat="-27.4959289" lon="152.6094093">
<ele>124.972</ele>
<time>2017-09-16T23:27:58.016Z</time>
</trkpt>
<trkpt lat="-27.4957363" lon="152.6091313">
<ele>127.634</ele>
<time>2017-09-16T23:28:00.086Z</time>
</trkpt>
<trkpt lat="-27.4956803" lon="152.6087948">
<ele>130.293</ele>
<time>2017-09-16T23:28:02.056Z</time>
</trkpt>
<trkpt lat="-27.4956499" lon="152.6084511">
<ele>133.011</ele>
<time>2017-09-16T23:28:04.062Z</time>
</trkpt>
<trkpt lat="-27.4956438" lon="152.6081175">
<ele>135.675</ele>
<time>2017-09-16T23:28:06.032Z</time>
</trkpt>
<trkpt lat="-27.4956044" lon="152.6076069">
<ele>138.259</ele>
<time>2017-09-16T23:28:09.052Z</time>
</trkpt>
<trkpt lat="-27.4955565" lon="152.6071235">
<ele>140.691</ele>
<time>2017-09-16T23:28:11.981Z</time>
</trkpt>
<trkpt lat="-27.4953148" lon="152.6067572">
<ele>142.778</ele>
<time>2017-09-16T23:28:14.868Z</time>
</trkpt>
<trkpt lat="-27.4951005" lon="152.6065307">
<ele>144.230</ele>
<time>2017-09-16T23:28:16.963Z</time>
</trkpt>
<trkpt lat="-27.4948346" lon="152.6064225">
<ele>144.950</ele>
<time>2017-09-16T23:28:18.948Z</time>
</trkpt>
<trkpt lat="-27.4944002" lon="152.6063808">
<ele>145.297</ele>
<time>2017-09-16T23:28:21.999Z</time>
</trkpt>
<trkpt lat="-27.4941342" lon="152.6062788">
<ele>145.907</ele>
<time>2017-09-16T23:28:23.997Z</time>
</trkpt>
<trkpt lat="-27.4939280" lon="152.6060574">
<ele>147.015</ele>
<time>2017-09-16T23:28:26.040Z</time>
</trkpt>
<trkpt lat="-27.4936157" lon="152.6056638">
<ele>148.153</ele>
<time>2017-09-16T23:28:29.270Z</time>
</trkpt>
<trkpt lat="-27.4934068" lon="152.6054378">
<ele>148.830</ele>
<time>2017-09-16T23:28:31.230Z</time>
</trkpt>
<trkpt lat="-27.4931861" lon="152.6052270">
<ele>148.987</ele>
<time>2017-09-16T23:28:33.208Z</time>
</trkpt>
<trkpt lat="-27.4929341" lon="152.6048486">
<ele>148.688</ele>
<time>2017-09-16T23:28:36.036Z</time>
</trkpt>
<trkpt lat="-27.4927958" lon="152.6041655">
<ele>147.636</ele>
<time>2017-09-16T23:28:39.861Z</time>
</trkpt>
<trkpt lat="-27.4925979" lon="152.6038664">
<ele>145.899</ele>
<time>2017-09-16T23:28:41.830Z</time>
</trkpt>
<trkpt lat="-27.4922659" lon="152.6035192">
<ele>144.604</ele>
<time>2017-09-16T23:28:44.579Z</time>
</trkpt>
<trkpt lat="-27.4920574" lon="152.6032686">
<ele>144.877</ele>
<time>2017-09-16T23:28:46.519Z</time>
</trkpt>
<trkpt lat="-27.4917432" lon="152.6029245">
<ele>146.384</ele>
<time>2017-09-16T23:28:49.421Z</time>
</trkpt>
<trkpt lat="-27.4915103" lon="152.6024935">
<ele>148.109</ele>
<time>2017-09-16T23:28:52.427Z</time>
</trkpt>
<trkpt lat="-27.4913921" lon="152.6021645">
<ele>149.604</ele>
<time>2017-09-16T23:28:54.495Z</time>
</trkpt>
<trkpt lat="-27.4912237" lon="152.6016812">
<ele>150.756</ele>
<time>2017-09-16T23:28:57.481Z</time>
</trkpt>
<trkpt lat="-27.4911086" lon="152.6013579">
<ele>151.070</ele>
<time>2017-09-16T23:28:59.466Z</time>
</trkpt>
<trkpt lat="-27.4907785" lon="152.6009820">
<ele>150.243</ele>
<time>2017-09-16T23:29:02.492Z</time>
</trkpt>
<trkpt lat="-27.4904940" lon="152.6008320">
<ele>148.822</ele>
<time>2017-09-16T23:29:04.551Z</time>
</trkpt>
<trkpt lat="-27.4901565" lon="152.6004679">
<ele>147.802</ele>
<time>2017-09-16T23:29:07.614Z</time>
</trkpt>
<trkpt lat="-27.4899805" lon="152.6001737">
<ele>148.144</ele>
<time>2017-09-16T23:29:09.665Z</time>
</trkpt>
<trkpt lat="-27.4897755" lon="152.5996919">
<ele>150.087</ele>
<time>2017-09-16T23:29:12.767Z</time>
</trkpt>
<trkpt lat="-27.4896931" lon="152.5993632">
<ele>152.544</ele>
<time>2017-09-16T23:29:14.751Z</time>
</trkpt>
<trkpt lat="-27.4895771" lon="152.5988722">
<ele>154.370</ele>
<time>2017-09-16T23:29:17.699Z</time>
</trkpt>
<trkpt lat="-27.4894858" lon="152.5985390">
<ele>156.039</ele>
<time>2017-09-16T23:29:19.722Z</time>
</trkpt>
<trkpt lat="-27.4893599" lon="152.5982194">
<ele>158.612</ele>
<time>2017-09-16T23:29:21.743Z</time>
</trkpt>
<trkpt lat="-27.4892220" lon="152.5979038">
<ele>162.213</ele>
<time>2017-09-16T23:29:23.779Z</time>
</trkpt>
<trkpt lat="-27.4890211" lon="152.5974472">
<ele>166.295</ele>
<time>2017-09-16T23:29:26.753Z</time>
</trkpt>
<trkpt lat="-27.4888569" lon="152.5969649">
<ele>170.867</ele>
<time>2017-09-16T23:29:29.802Z</time>
</trkpt>
<trkpt lat="-27.4887927" lon="152.5964799">
<ele>176.259</ele>
<time>2017-09-16T23:29:32.733Z</time>
</trkpt>
<trkpt lat="-27.4887315" lon="152.5961622">
<ele>182.069</ele>
<time>2017-09-16T23:29:34.687Z</time>
</trkpt>
<trkpt lat="-27.4886285" lon="152.5956621">
<ele>186.833</ele>
<time>2017-09-16T23:29:37.744Z</time>
</trkpt>
<trkpt lat="-27.4885970" lon="152.5953315">
<ele>189.188</ele>
<time>2017-09-16T23:29:39.727Z</time>
</trkpt>
<trkpt lat="-27.4885596" lon="152.5948442">
<ele>189.244</ele>
<time>2017-09-16T23:29:42.704Z</time>
</trkpt>
<trkpt lat="-27.4884184" lon="152.5945500">
<ele>188.118</ele>
<time>2017-09-16T23:29:44.733Z</time>
</trkpt>
<trkpt lat="-27.4882032" lon="152.5942969">
<ele>186.476</ele>
<time>2017-09-16T23:29:46.738Z</time>
</trkpt>
<trkpt lat="-27.4879546" lon="152.5940324">
<ele>184.404</ele>
<time>2017-09-16T23:29:48.818Z</time>
</trkpt>
<trkpt lat="-27.4877367" lon="152.5937361">
<ele>182.310</ele>
<time>2017-09-16T23:29:50.851Z</time>
</trkpt>
<trkpt lat="-27.4875253" lon="152.5934536">
<ele>181.171</ele>
<time>2017-09-16T23:29:52.842Z</time>
</trkpt>
<trkpt lat="-27.4871308" lon="152.5932762">
<ele>181.327</ele>
<time>2017-09-16T23:29:55.523Z</time>
</trkpt>
<trkpt lat="-27.4866439" lon="152.5932628">
<ele>181.921</ele>
<time>2017-09-16T23:29:58.690Z</time>
</trkpt>
<trkpt lat="-27.4863442" lon="152.5932473">
<ele>181.956</ele>
<time>2017-09-16T23:30:00.651Z</time>
</trkpt>
<trkpt lat="-27.4860374" lon="152.5932077">
<ele>181.252</ele>
<time>2017-09-16T23:30:02.692Z</time>
</trkpt>
<trkpt lat="-27.4855842" lon="152.5931186">
<ele>180.367</ele>
<time>2017-09-16T23:30:05.729Z</time>
</trkpt>
<trkpt lat="-27.4853172" lon="152.5929325">
<ele>179.860</ele>
<time>2017-09-16T23:30:07.807Z</time>
</trkpt>
<trkpt lat="-27.4850614" lon="152.5927586">
<ele>179.794</ele>
<time>2017-09-16T23:30:09.785Z</time>
</trkpt>
<trkpt lat="-27.4846998" lon="152.5924695">
<ele>179.959</ele>
<time>2017-09-16T23:30:12.723Z</time>
</trkpt>
<trkpt lat="-27.4843472" lon="152.5921710">
<ele>180.106</ele>
<time>2017-09-16T23:30:15.663Z</time>
</trkpt>
<trkpt lat="-27.4840493" lon="152.5921337">
<ele>180.003</ele>
<time>2017-09-16T23:30:17.684Z</time>
</trkpt>
<trkpt lat="-27.4836174" lon="152.5921755">
<ele>179.528</ele>
<time>2017-09-16T23:30:20.604Z</time>
</trkpt>
<trkpt lat="-27.4831622" lon="152.5921152">
<ele>178.719</ele>
<time>2017-09-16T23:30:23.635Z</time>
</trkpt>
<trkpt lat="-27.4828729" lon="152.5920684">
<ele>177.543</ele>
<time>2017-09-16T23:30:25.523Z</time>
</trkpt>
<trkpt lat="-27.4824130" lon="152.5919667">
<ele>175.914</ele>
<time>2017-09-16T23:30:28.522Z</time>
</trkpt>
<trkpt lat="-27.4819979" lon="152.5919079">
<ele>173.617</ele>
<time>2017-09-16T23:30:31.276Z</time>
</trkpt>
<trkpt lat="-27.4816895" lon="152.5918748">
<ele>170.893</ele>
<time>2017-09-16T23:30:33.327Z</time>
</trkpt>
<trkpt lat="-27.4812273" lon="152.5917985">
<ele>168.776</ele>
<time>2017-09-16T23:30:36.311Z</time>
</trkpt>
<trkpt lat="-27.4807731" lon="152.5917025">
<ele>167.656</ele>
<time>2017-09-16T23:30:39.269Z</time>
</trkpt>
<trkpt lat="-27.4804780" lon="152.5916588">
<ele>166.671</ele>
<time>2017-09-16T23:30:41.209Z</time>
</trkpt>
<trkpt lat="-27.4801696" lon="152.5916124">
<ele>165.173</ele>
<time>2017-09-16T23:30:43.243Z</time>
</trkpt>
<trkpt lat="-27.4797175" lon="152.5914987">
<ele>163.100</ele>
<time>2017-09-16T23:30:46.269Z</time>
</trkpt>
<trkpt lat="-27.4794302" lon="152.5913838">
<ele>160.150</ele>
<time>2017-09-16T23:30:48.272Z</time>
</trkpt>
<trkpt lat="-27.4791410" lon="152.5912912">
<ele>156.509</ele>
<time>2017-09-16T23:30:50.262Z</time>
</trkpt>
<trkpt lat="-27.4788335" lon="152.5912392">
<ele>153.395</ele>
<time>2017-09-16T23:30:52.310Z</time>
</trkpt>
<trkpt lat="-27.4785189" lon="152.5912249">
<ele>151.493</ele>
<time>2017-09-16T23:30:54.337Z</time>
</trkpt>
<trkpt lat="-27.4780052" lon="152.5912620">
<ele>150.200</ele>
<time>2017-09-16T23:30:57.519Z</time>
</trkpt>
<trkpt lat="-27.4775111" lon="152.5913088">
<ele>148.469</ele>
<time>2017-09-16T23:31:00.498Z</time>
</trkpt>
<trkpt lat="-27.4770139" lon="152.5913155">
<ele>145.156</ele>
<time>2017-09-16T23:31:03.503Z</time>
</trkpt>
<trkpt lat="-27.4765579" lon="152.5912333">
<ele>139.819</ele>
<time>2017-09-16T23:31:06.397Z</time>
</trkpt>
<trkpt lat="-27.4762478" lon="152.5911966">
<ele>133.290</ele>
<time>2017-09-16T23:31:08.449Z</time>
</trkpt>
<trkpt lat="-27.4758446" lon="152.5910440">
<ele>126.991</ele>
<time>2017-09-16T23:31:11.368Z</time>
</trkpt>
<trkpt lat="-27.4754696" lon="152.5907571">
<ele>121.301</ele>
<time>2017-09-16T23:31:14.475Z</time>
</trkpt>
<trkpt lat="-27.4753095" lon="152.5904136">
<ele>115.349</ele>
<time>2017-09-16T23:31:16.708Z</time>
</trkpt>
<trkpt lat="-27.4751665" lon="152.5900647">
<ele>108.884</ele>
<time>2017-09-16T23:31:18.833Z</time>
</trkpt>
<trkpt lat="-27.4748476" lon="152.5896225">
<ele>102.857</ele>
<time>2017-09-16T23:31:21.916Z</time>
</trkpt>
<trkpt lat="-27.4745579" lon="152.5893760">
<ele>97.601</ele>
<time>2017-09-16T23:31:24.095Z</time>
</trkpt>
<trkpt lat="-27.4741804" lon="152.5890079">
<ele>92.805</ele>
<time>2017-09-16T23:31:27.093Z</time>
</trkpt>
<trkpt lat="-27.4739191" lon="152.5887795">
<ele>88.664</ele>
<time>2017-09-16T23:31:29.092Z</time>
</trkpt>
<trkpt lat="-27.4736432" lon="152.5885680">
<ele>85.794</ele>
<time>2017-09-16T23:31:31.119Z</time>
</trkpt>
<trkpt lat="-27.4733774" lon="152.5883482">
<ele>84.671</ele>
<time>2017-09-16T23:31:33.157Z</time>
</trkpt>
<trkpt lat="-27.4730029" lon="152.5880270">
<ele>85.266</ele>
<time>2017-09-16T23:31:36.119Z</time>
</trkpt>
<trkpt lat="-27.4727335" lon="152.5878617">
<ele>86.959</ele>
<time>2017-09-16T23:31:38.079Z</time>
</trkpt>
<trkpt lat="-27.4723482" lon="152.5875510">
<ele>88.896</ele>
<time>2017-09-16T23:31:41.113Z</time>
</trkpt>
<trkpt lat="-27.4720817" lon="152.5873740">
<ele>90.428</ele>
<time>2017-09-16T23:31:43.115Z</time>
</trkpt>
<trkpt lat="-27.4718284" lon="152.5871899">
<ele>91.341</ele>
<time>2017-09-16T23:31:45.089Z</time>
</trkpt>
<trkpt lat="-27.4714535" lon="152.5869200">
<ele>91.677</ele>
<time>2017-09-16T23:31:48.006Z</time>
</trkpt>
<trkpt lat="-27.4712458" lon="152.5866389">
<ele>91.253</ele>
<time>2017-09-16T23:31:50.081Z</time>
</trkpt>
<trkpt lat="-27.4709175" lon="152.5865428">
<ele>89.776</ele>
<time>2017-09-16T23:31:52.155Z</time>
</trkpt>
<trkpt lat="-27.4706037" lon="152.5863867">
<ele>87.299</ele>
<time>2017-09-16T23:31:54.243Z</time>
</trkpt>
<trkpt lat="-27.4702040" lon="152.5860757">
<ele>84.045</ele>
<time>2017-09-16T23:31:57.329Z</time>
</trkpt>
<trkpt lat="-27.4697450" lon="152.5861072">
<ele>80.017</ele>
<time>2017-09-16T23:32:00.417Z</time>
</trkpt>
<trkpt lat="-27.4692959" lon="152.5861377">
<ele>75.663</ele>
<time>2017-09-16T23:32:03.455Z</time>
</trkpt>
<trkpt lat="-27.4690251" lon="152.5861609">
<ele>72.015</ele>
<time>2017-09-16T23:32:05.458Z</time>
</trkpt>
<trkpt lat="-27.4687122" lon="152.5861065">
<ele>69.630</ele>
<time>2017-09-16T23:32:08.099Z</time>
</trkpt>
<trkpt lat="-27.4685308" lon="152.5860529">
<ele>67.927</ele>
<time>2017-09-16T23:32:10.062Z</time>
</trkpt>
<trkpt lat="-27.4683556" lon="152.5858661">
<ele>66.097</ele>
<time>2017-09-16T23:32:13.197Z</time>
</trkpt>
<trkpt lat="-27.4682426" lon="152.5857834">
<ele>63.803</ele>
<time>2017-09-16T23:32:15.792Z</time>
</trkpt>
<trkpt lat="-27.4681704" lon="152.5858480">
<ele>61.047</ele>
<time>2017-09-16T23:32:18.456Z</time>
</trkpt>
<trkpt lat="-27.4681075" lon="152.5859394">
<ele>58.194</ele>
<time>2017-09-16T23:32:21.222Z</time>
</trkpt>
<trkpt lat="-27.4680656" lon="152.5860729">
<ele>55.972</ele>
<time>2017-09-16T23:32:24.136Z</time>
</trkpt>
<trkpt lat="-27.4680126" lon="152.5861913">
<ele>54.677</ele>
<time>2017-09-16T23:32:26.999Z</time>
</trkpt>
<trkpt lat="-27.4680126" lon="152.5861913">
<ele>54.078</ele>
<time>2017-09-16T23:32:30.999Z</time>
</trkpt>
<trkpt lat="-27.4680126" lon="152.5861913">
<ele>53.888</ele>
<time>2017-09-16T23:32:42.396Z</time>
</trkpt>
<trkpt lat="-27.4678115" lon="152.5861731">
<ele>53.907</ele>
<time>2017-09-16T23:32:49.679Z</time>
</trkpt>
<trkpt lat="-27.4677358" lon="152.5861180">
<ele>53.849</ele>
<time>2017-09-16T23:32:52.174Z</time>
</trkpt>
<trkpt lat="-27.4676303" lon="152.5860855">
<ele>53.577</ele>
<time>2017-09-16T23:32:54.128Z</time>
</trkpt>
<trkpt lat="-27.4674903" lon="152.5861746">
<ele>53.320</ele>
<time>2017-09-16T23:32:56.292Z</time>
</trkpt>
<trkpt lat="-27.4672476" lon="152.5862432">
<ele>53.320</ele>
<time>2017-09-16T23:32:59.722Z</time>
</trkpt>
<trkpt lat="-27.4670526" lon="152.5862714">
<ele>53.481</ele>
<time>2017-09-16T23:33:02.929Z</time>
</trkpt>
<trkpt lat="-27.4668299" lon="152.5862968">
<ele>53.556</ele>
<time>2017-09-16T23:33:07.972Z</time>
</trkpt>
<trkpt lat="-27.4667022" lon="152.5863079">
<ele>53.419</ele>
<time>2017-09-16T23:33:10.608Z</time>
</trkpt>
<trkpt lat="-27.4664270" lon="152.5863409">
<ele>53.177</ele>
<time>2017-09-16T23:33:14.252Z</time>
</trkpt>
<trkpt lat="-27.4661379" lon="152.5863058">
<ele>53.175</ele>
<time>2017-09-16T23:33:16.731Z</time>
</trkpt>
<trkpt lat="-27.4657478" lon="152.5862541">
<ele>53.686</ele>
<time>2017-09-16T23:33:19.632Z</time>
</trkpt>
<trkpt lat="-27.4654490" lon="152.5862849">
<ele>54.673</ele>
<time>2017-09-16T23:33:21.655Z</time>
</trkpt>
<trkpt lat="-27.4651537" lon="152.5863009">
<ele>55.884</ele>
<time>2017-09-16T23:33:23.619Z</time>
</trkpt>
<trkpt lat="-27.4648497" lon="152.5862878">
<ele>56.957</ele>
<time>2017-09-16T23:33:25.641Z</time>
</trkpt>
<trkpt lat="-27.4643938" lon="152.5862655">
<ele>57.584</ele>
<time>2017-09-16T23:33:28.688Z</time>
</trkpt>
<trkpt lat="-27.4641082" lon="152.5862886">
<ele>57.713</ele>
<time>2017-09-16T23:33:30.622Z</time>
</trkpt>
<trkpt lat="-27.4638275" lon="152.5862914">
<ele>57.517</ele>
<time>2017-09-16T23:33:32.525Z</time>
</trkpt>
<trkpt lat="-27.4633786" lon="152.5863286">
<ele>57.312</ele>
<time>2017-09-16T23:33:35.567Z</time>
</trkpt>
<trkpt lat="-27.4630845" lon="152.5863841">
<ele>57.341</ele>
<time>2017-09-16T23:33:37.578Z</time>
</trkpt>
<trkpt lat="-27.4627911" lon="152.5864098">
<ele>57.575</ele>
<time>2017-09-16T23:33:39.567Z</time>
</trkpt>
<trkpt lat="-27.4624761" lon="152.5864439">
<ele>57.886</ele>
<time>2017-09-16T23:33:41.708Z</time>
</trkpt>
<trkpt lat="-27.4622368" lon="152.5864606">
<ele>58.224</ele>
<time>2017-09-16T23:33:43.328Z</time>
</trkpt>
<trkpt lat="-27.4619101" lon="152.5864947">
<ele>58.599</ele>
<time>2017-09-16T23:33:45.536Z</time>
</trkpt>
<trkpt lat="-27.4614694" lon="152.5864931">
<ele>58.981</ele>
<time>2017-09-16T23:33:48.497Z</time>
</trkpt>
<trkpt lat="-27.4610364" lon="152.5864222">
<ele>59.333</ele>
<time>2017-09-16T23:33:51.428Z</time>
</trkpt>
<trkpt lat="-27.4607419" lon="152.5863480">
<ele>59.640</ele>
<time>2017-09-16T23:33:53.436Z</time>
</trkpt>
<trkpt lat="-27.4604461" lon="152.5862857">
<ele>59.876</ele>
<time>2017-09-16T23:33:55.442Z</time>
</trkpt>
<trkpt lat="-27.4601552" lon="152.5862300">
<ele>60.021</ele>
<time>2017-09-16T23:33:57.428Z</time>
</trkpt>
<trkpt lat="-27.4598661" lon="152.5861919">
<ele>60.096</ele>
<time>2017-09-16T23:33:59.392Z</time>
</trkpt>
<trkpt lat="-27.4594213" lon="152.5862114">
<ele>60.106</ele>
<time>2017-09-16T23:34:02.396Z</time>
</trkpt>
<trkpt lat="-27.4589993" lon="152.5863227">
<ele>60.054</ele>
<time>2017-09-16T23:34:05.312Z</time>
</trkpt>
<trkpt lat="-27.4585497" lon="152.5864393">
<ele>59.967</ele>
<time>2017-09-16T23:34:08.381Z</time>
</trkpt>
<trkpt lat="-27.4580932" lon="152.5865090">
<ele>59.877</ele>
<time>2017-09-16T23:34:11.413Z</time>
</trkpt>
<trkpt lat="-27.4577981" lon="152.5865131">
<ele>59.813</ele>
<time>2017-09-16T23:34:13.465Z</time>
</trkpt>
<trkpt lat="-27.4574196" lon="152.5866108">
<ele>59.777</ele>
<time>2017-09-16T23:34:16.402Z</time>
</trkpt>
<trkpt lat="-27.4572264" lon="152.5866272">
<ele>59.639</ele>
<time>2017-09-16T23:34:18.109Z</time>
</trkpt>
<trkpt lat="-27.4568834" lon="152.5866629">
<ele>59.256</ele>
<time>2017-09-16T23:34:21.567Z</time>
</trkpt>
<trkpt lat="-27.4567620" lon="152.5866579">
<ele>58.587</ele>
<time>2017-09-16T23:34:23.411Z</time>
</trkpt>
<trkpt lat="-27.4566763" lon="152.5866160">
<ele>57.696</ele>
<time>2017-09-16T23:34:24.999Z</time>
</trkpt>
<trkpt lat="-27.4566763" lon="152.5866160">
<ele>56.833</ele>
<time>2017-09-16T23:34:27.998Z</time>
</trkpt>
<trkpt lat="-27.4566763" lon="152.5866160">
<ele>56.377</ele>
<time>2017-09-16T23:34:32.697Z</time>
</trkpt>
<trkpt lat="-27.4566002" lon="152.5863785">
<ele>56.394</ele>
<time>2017-09-16T23:34:37.233Z</time>
</trkpt>
<trkpt lat="-27.4566037" lon="152.5861094">
<ele>56.346</ele>
<time>2017-09-16T23:34:39.401Z</time>
</trkpt>
<trkpt lat="-27.4564999" lon="152.5856723">
<ele>55.838</ele>
<time>2017-09-16T23:34:42.439Z</time>
</trkpt>
<trkpt lat="-27.4564575" lon="152.5853396">
<ele>55.378</ele>
<time>2017-09-16T23:34:44.455Z</time>
</trkpt>
<trkpt lat="-27.4563857" lon="152.5850152">
<ele>55.554</ele>
<time>2017-09-16T23:34:46.421Z</time>
</trkpt>
<trkpt lat="-27.4563840" lon="152.5846799">
<ele>56.193</ele>
<time>2017-09-16T23:34:48.413Z</time>
</trkpt>
<trkpt lat="-27.4563168" lon="152.5843773">
<ele>56.856</ele>
<time>2017-09-16T23:34:50.325Z</time>
</trkpt>
<trkpt lat="-27.4562570" lon="152.5839256">
<ele>57.349</ele>
<time>2017-09-16T23:34:53.191Z</time>
</trkpt>
<trkpt lat="-27.4562278" lon="152.5836245">
<ele>57.705</ele>
<time>2017-09-16T23:34:55.137Z</time>
</trkpt>
<trkpt lat="-27.4561750" lon="152.5831790">
<ele>57.997</ele>
<time>2017-09-16T23:34:58.054Z</time>
</trkpt>
<trkpt lat="-27.4561070" lon="152.5829022">
<ele>58.292</ele>
<time>2017-09-16T23:34:59.973Z</time>
</trkpt>
<trkpt lat="-27.4560553" lon="152.5824882">
<ele>58.627</ele>
<time>2017-09-16T23:35:02.849Z</time>
</trkpt>
<trkpt lat="-27.4560053" lon="152.5820950">
<ele>59.021</ele>
<time>2017-09-16T23:35:05.705Z</time>
</trkpt>
<trkpt lat="-27.4560019" lon="152.5818646">
<ele>59.444</ele>
<time>2017-09-16T23:35:07.544Z</time>
</trkpt>
<trkpt lat="-27.4560052" lon="152.5817066">
<ele>59.779</ele>
<time>2017-09-16T23:35:08.999Z</time>
</trkpt>
<trkpt lat="-27.4560052" lon="152.5817066">
<ele>59.905</ele>
<time>2017-09-16T23:35:13.999Z</time>
</trkpt>
<trkpt lat="-27.4560052" lon="152.5817066">
<ele>59.861</ele>
<time>2017-09-16T23:35:15.642Z</time>
</trkpt>
<trkpt lat="-27.4560313" lon="152.5814412">
<ele>59.768</ele>
<time>2017-09-16T23:35:20.478Z</time>
</trkpt>
<trkpt lat="-27.4559477" lon="152.5812359">
<ele>59.728</ele>
<time>2017-09-16T23:35:22.545Z</time>
</trkpt>
<trkpt lat="-27.4558390" lon="152.5808536">
<ele>59.767</ele>
<time>2017-09-16T23:35:25.697Z</time>
</trkpt>
<trkpt lat="-27.4558052" lon="152.5805652">
<ele>60.065</ele>
<time>2017-09-16T23:35:27.732Z</time>
</trkpt>
<trkpt lat="-27.4557677" lon="152.5802796">
<ele>60.865</ele>
<time>2017-09-16T23:35:29.793Z</time>
</trkpt>
<trkpt lat="-27.4556600" lon="152.5800502">
<ele>62.043</ele>
<time>2017-09-16T23:35:31.649Z</time>
</trkpt>
<trkpt lat="-27.4553170" lon="152.5798492">
<ele>63.206</ele>
<time>2017-09-16T23:35:34.651Z</time>
</trkpt>
<trkpt lat="-27.4550180" lon="152.5798319">
<ele>64.272</ele>
<time>2017-09-16T23:35:36.790Z</time>
</trkpt>
<trkpt lat="-27.4547004" lon="152.5799057">
<ele>65.431</ele>
<time>2017-09-16T23:35:38.998Z</time>
</trkpt>
<trkpt lat="-27.4542831" lon="152.5800134">
<ele>66.785</ele>
<time>2017-09-16T23:35:41.899Z</time>
</trkpt>
<trkpt lat="-27.4539926" lon="152.5800803">
<ele>68.409</ele>
<time>2017-09-16T23:35:43.911Z</time>
</trkpt>
<trkpt lat="-27.4535240" lon="152.5801420">
<ele>70.268</ele>
<time>2017-09-16T23:35:47.118Z</time>
</trkpt>
<trkpt lat="-27.4530803" lon="152.5801796">
<ele>72.057</ele>
<time>2017-09-16T23:35:50.140Z</time>
</trkpt>
<trkpt lat="-27.4527006" lon="152.5802552">
<ele>73.525</ele>
<time>2017-09-16T23:35:52.736Z</time>
</trkpt>
<trkpt lat="-27.4523061" lon="152.5803553">
<ele>74.590</ele>
<time>2017-09-16T23:35:55.458Z</time>
</trkpt>
<trkpt lat="-27.4520285" lon="152.5804036">
<ele>75.290</ele>
<time>2017-09-16T23:35:57.362Z</time>
</trkpt>
<trkpt lat="-27.4515962" lon="152.5804858">
<ele>75.829</ele>
<time>2017-09-16T23:36:00.334Z</time>
</trkpt>
<trkpt lat="-27.4513066" lon="152.5805077">
<ele>76.312</ele>
<time>2017-09-16T23:36:02.291Z</time>
</trkpt>
<trkpt lat="-27.4508704" lon="152.5804735">
<ele>76.653</ele>
<time>2017-09-16T23:36:05.253Z</time>
</trkpt>
<trkpt lat="-27.4504776" lon="152.5802946">
<ele>76.772</ele>
<time>2017-09-16T23:36:08.143Z</time>
</trkpt>
<trkpt lat="-27.4502372" lon="152.5801070">
<ele>76.563</ele>
<time>2017-09-16T23:36:10.147Z</time>
</trkpt>
<trkpt lat="-27.4499577" lon="152.5797269">
<ele>75.917</ele>
<time>2017-09-16T23:36:13.162Z</time>
</trkpt>
<trkpt lat="-27.4497914" lon="152.5794596">
<ele>74.842</ele>
<time>2017-09-16T23:36:15.158Z</time>
</trkpt>
<trkpt lat="-27.4497007" lon="152.5791506">
<ele>73.500</ele>
<time>2017-09-16T23:36:17.155Z</time>
</trkpt>
<trkpt lat="-27.4496226" lon="152.5786724">
<ele>72.156</ele>
<time>2017-09-16T23:36:20.148Z</time>
</trkpt>
<trkpt lat="-27.4495425" lon="152.5781887">
<ele>70.914</ele>
<time>2017-09-16T23:36:23.179Z</time>
</trkpt>
<trkpt lat="-27.4495287" lon="152.5778617">
<ele>69.645</ele>
<time>2017-09-16T23:36:25.195Z</time>
</trkpt>
<trkpt lat="-27.4494974" lon="152.5775330">
<ele>68.409</ele>
<time>2017-09-16T23:36:27.227Z</time>
</trkpt>
<trkpt lat="-27.4494091" lon="152.5770513">
<ele>67.471</ele>
<time>2017-09-16T23:36:30.232Z</time>
</trkpt>
<trkpt lat="-27.4493620" lon="152.5767247">
<ele>66.936</ele>
<time>2017-09-16T23:36:32.238Z</time>
</trkpt>
<trkpt lat="-27.4492979" lon="152.5764067">
<ele>66.699</ele>
<time>2017-09-16T23:36:34.233Z</time>
</trkpt>
<trkpt lat="-27.4492787" lon="152.5760825">
<ele>66.609</ele>
<time>2017-09-16T23:36:36.218Z</time>
</trkpt>
<trkpt lat="-27.4492301" lon="152.5755826">
<ele>66.531</ele>
<time>2017-09-16T23:36:39.243Z</time>
</trkpt>
<trkpt lat="-27.4491341" lon="152.5752587">
<ele>66.230</ele>
<time>2017-09-16T23:36:41.278Z</time>
</trkpt>
<trkpt lat="-27.4490410" lon="152.5747738">
<ele>65.508</ele>
<time>2017-09-16T23:36:44.261Z</time>
</trkpt>
<trkpt lat="-27.4490000" lon="152.5744415">
<ele>64.347</ele>
<time>2017-09-16T23:36:46.302Z</time>
</trkpt>
<trkpt lat="-27.4489098" lon="152.5739563">
<ele>62.911</ele>
<time>2017-09-16T23:36:49.331Z</time>
</trkpt>
<trkpt lat="-27.4488622" lon="152.5734709">
<ele>61.471</ele>
<time>2017-09-16T23:36:52.328Z</time>
</trkpt>
<trkpt lat="-27.4488188" lon="152.5731469">
<ele>60.272</ele>
<time>2017-09-16T23:36:54.422Z</time>
</trkpt>
<trkpt lat="-27.4487009" lon="152.5727392">
<ele>59.438</ele>
<time>2017-09-16T23:36:57.698Z</time>
</trkpt>
<trkpt lat="-27.4486609" lon="152.5724656">
<ele>58.918</ele>
<time>2017-09-16T23:37:00.270Z</time>
</trkpt>
<trkpt lat="-27.4486632" lon="152.5722468">
<ele>58.494</ele>
<time>2017-09-16T23:37:02.132Z</time>
</trkpt>
<trkpt lat="-27.4486135" lon="152.5718484">
<ele>58.113</ele>
<time>2017-09-16T23:37:05.242Z</time>
</trkpt>
<trkpt lat="-27.4485844" lon="152.5715758">
<ele>57.940</ele>
<time>2017-09-16T23:37:07.171Z</time>
</trkpt>
<trkpt lat="-27.4485473" lon="152.5712960">
<ele>58.123</ele>
<time>2017-09-16T23:37:09.029Z</time>
</trkpt>
<trkpt lat="-27.4484914" lon="152.5709694">
<ele>58.731</ele>
<time>2017-09-16T23:37:11.048Z</time>
</trkpt>
<trkpt lat="-27.4484276" lon="152.5706249">
<ele>59.795</ele>
<time>2017-09-16T23:37:13.160Z</time>
</trkpt>
<trkpt lat="-27.4483680" lon="152.5701485">
<ele>61.235</ele>
<time>2017-09-16T23:37:16.116Z</time>
</trkpt>
<trkpt lat="-27.4483344" lon="152.5698350">
<ele>62.924</ele>
<time>2017-09-16T23:37:18.069Z</time>
</trkpt>
<trkpt lat="-27.4482735" lon="152.5695131">
<ele>64.712</ele>
<time>2017-09-16T23:37:20.088Z</time>
</trkpt>
<trkpt lat="-27.4482308" lon="152.5691861">
<ele>66.322</ele>
<time>2017-09-16T23:37:22.095Z</time>
</trkpt>
<trkpt lat="-27.4481726" lon="152.5688712">
<ele>67.438</ele>
<time>2017-09-16T23:37:23.931Z</time>
</trkpt>
<trkpt lat="-27.4480822" lon="152.5683285">
<ele>67.959</ele>
<time>2017-09-16T23:37:26.864Z</time>
</trkpt>
<trkpt lat="-27.4479990" lon="152.5679232">
<ele>67.991</ele>
<time>2017-09-16T23:37:28.812Z</time>
</trkpt>
<trkpt lat="-27.4479523" lon="152.5672364">
<ele>67.768</ele>
<time>2017-09-16T23:37:31.964Z</time>
</trkpt>
<trkpt lat="-27.4478150" lon="152.5665954">
<ele>67.468</ele>
<time>2017-09-16T23:37:34.976Z</time>
</trkpt>
<trkpt lat="-27.4477444" lon="152.5659456">
<ele>67.047</ele>
<time>2017-09-16T23:37:37.979Z</time>
</trkpt>
<trkpt lat="-27.4476799" lon="152.5655161">
<ele>66.419</ele>
<time>2017-09-16T23:37:39.983Z</time>
</trkpt>
<trkpt lat="-27.4475907" lon="152.5648779">
<ele>65.705</ele>
<time>2017-09-16T23:37:42.969Z</time>
</trkpt>
<trkpt lat="-27.4475462" lon="152.5644544">
<ele>65.104</ele>
<time>2017-09-16T23:37:44.945Z</time>
</trkpt>
<trkpt lat="-27.4474810" lon="152.5640254">
<ele>64.741</ele>
<time>2017-09-16T23:37:46.954Z</time>
</trkpt>
<trkpt lat="-27.4474267" lon="152.5635935">
<ele>64.701</ele>
<time>2017-09-16T23:37:48.945Z</time>
</trkpt>
<trkpt lat="-27.4473119" lon="152.5629377">
<ele>65.098</ele>
<time>2017-09-16T23:37:51.966Z</time>
</trkpt>
<trkpt lat="-27.4472223" lon="152.5622836">
<ele>66.023</ele>
<time>2017-09-16T23:37:54.937Z</time>
</trkpt>
<trkpt lat="-27.4470984" lon="152.5616305">
<ele>67.165</ele>
<time>2017-09-16T23:37:57.957Z</time>
</trkpt>
<trkpt lat="-27.4470026" lon="152.5609936">
<ele>67.969</ele>
<time>2017-09-16T23:38:00.907Z</time>
</trkpt>
<trkpt lat="-27.4469233" lon="152.5605679">
<ele>68.113</ele>
<time>2017-09-16T23:38:02.896Z</time>
</trkpt>
<trkpt lat="-27.4468845" lon="152.5601355">
<ele>67.645</ele>
<time>2017-09-16T23:38:04.873Z</time>
</trkpt>
<trkpt lat="-27.4468307" lon="152.5596929">
<ele>66.861</ele>
<time>2017-09-16T23:38:06.897Z</time>
</trkpt>
<trkpt lat="-27.4467339" lon="152.5592684">
<ele>66.112</ele>
<time>2017-09-16T23:38:08.893Z</time>
</trkpt>
<trkpt lat="-27.4466431" lon="152.5586190">
<ele>65.606</ele>
<time>2017-09-16T23:38:11.902Z</time>
</trkpt>
<trkpt lat="-27.4465435" lon="152.5579783">
<ele>65.536</ele>
<time>2017-09-16T23:38:14.879Z</time>
</trkpt>
<trkpt lat="-27.4464708" lon="152.5575443">
<ele>66.066</ele>
<time>2017-09-16T23:38:16.895Z</time>
</trkpt>
<trkpt lat="-27.4463930" lon="152.5568918">
<ele>67.117</ele>
<time>2017-09-16T23:38:19.924Z</time>
</trkpt>
<trkpt lat="-27.4462796" lon="152.5562629">
<ele>68.422</ele>
<time>2017-09-16T23:38:22.896Z</time>
</trkpt>
<trkpt lat="-27.4462129" lon="152.5558340">
<ele>69.846</ele>
<time>2017-09-16T23:38:24.896Z</time>
</trkpt>
<trkpt lat="-27.4460997" lon="152.5551964">
<ele>71.315</ele>
<time>2017-09-16T23:38:27.878Z</time>
</trkpt>
<trkpt lat="-27.4460633" lon="152.5547595">
<ele>72.817</ele>
<time>2017-09-16T23:38:29.888Z</time>
</trkpt>
<trkpt lat="-27.4459830" lon="152.5543234">
<ele>74.445</ele>
<time>2017-09-16T23:38:31.922Z</time>
</trkpt>
<trkpt lat="-27.4459044" lon="152.5536688">
<ele>76.168</ele>
<time>2017-09-16T23:38:34.931Z</time>
</trkpt>
<trkpt lat="-27.4458428" lon="152.5530088">
<ele>77.762</ele>
<time>2017-09-16T23:38:37.951Z</time>
</trkpt>
<trkpt lat="-27.4456942" lon="152.5523694">
<ele>79.024</ele>
<time>2017-09-16T23:38:40.970Z</time>
</trkpt>
<trkpt lat="-27.4456318" lon="152.5519445">
<ele>79.923</ele>
<time>2017-09-16T23:38:42.944Z</time>
</trkpt>
<trkpt lat="-27.4455359" lon="152.5512866">
<ele>80.626</ele>
<time>2017-09-16T23:38:45.992Z</time>
</trkpt>
<trkpt lat="-27.4454505" lon="152.5508583">
<ele>81.484</ele>
<time>2017-09-16T23:38:47.988Z</time>
</trkpt>
<trkpt lat="-27.4453526" lon="152.5502017">
<ele>82.747</ele>
<time>2017-09-16T23:38:51.011Z</time>
</trkpt>
<trkpt lat="-27.4452645" lon="152.5497679">
<ele>84.389</ele>
<time>2017-09-16T23:38:53.039Z</time>
</trkpt>
<trkpt lat="-27.4452172" lon="152.5491248">
<ele>86.261</ele>
<time>2017-09-16T23:38:56.023Z</time>
</trkpt>
<trkpt lat="-27.4451617" lon="152.5487042">
<ele>88.353</ele>
<time>2017-09-16T23:38:58.096Z</time>
</trkpt>
<trkpt lat="-27.4450378" lon="152.5481293">
<ele>90.590</ele>
<time>2017-09-16T23:39:01.133Z</time>
</trkpt>
<trkpt lat="-27.4450049" lon="152.5477633">
<ele>92.782</ele>
<time>2017-09-16T23:39:03.236Z</time>
</trkpt>
<trkpt lat="-27.4448794" lon="152.5474810">
<ele>94.806</ele>
<time>2017-09-16T23:39:05.148Z</time>
</trkpt>
<trkpt lat="-27.4445175" lon="152.5472775">
<ele>96.558</ele>
<time>2017-09-16T23:39:07.843Z</time>
</trkpt>
<trkpt lat="-27.4440456" lon="152.5472852">
<ele>98.041</ele>
<time>2017-09-16T23:39:10.759Z</time>
</trkpt>
<trkpt lat="-27.4436966" lon="152.5473488">
<ele>99.603</ele>
<time>2017-09-16T23:39:12.730Z</time>
</trkpt>
<trkpt lat="-27.4433290" lon="152.5474049">
<ele>101.341</ele>
<time>2017-09-16T23:39:14.722Z</time>
</trkpt>
<trkpt lat="-27.4429627" lon="152.5475130">
<ele>102.824</ele>
<time>2017-09-16T23:39:16.732Z</time>
</trkpt>
<trkpt lat="-27.4424103" lon="152.5476087">
<ele>103.672</ele>
<time>2017-09-16T23:39:19.710Z</time>
</trkpt>
<trkpt lat="-27.4420005" lon="152.5476777">
<ele>103.793</ele>
<time>2017-09-16T23:39:21.982Z</time>
</trkpt>
<trkpt lat="-27.4414718" lon="152.5477946">
<ele>103.295</ele>
<time>2017-09-16T23:39:25.068Z</time>
</trkpt>
<trkpt lat="-27.4411508" lon="152.5478271">
<ele>102.365</ele>
<time>2017-09-16T23:39:27.213Z</time>
</trkpt>
<trkpt lat="-27.4407720" lon="152.5478830">
<ele>101.105</ele>
<time>2017-09-16T23:39:30.433Z</time>
</trkpt>
<trkpt lat="-27.4406186" lon="152.5478859">
<ele>99.309</ele>
<time>2017-09-16T23:39:32.035Z</time>
</trkpt>
<trkpt lat="-27.4404878" lon="152.5475873">
<ele>96.830</ele>
<time>2017-09-16T23:39:34.659Z</time>
</trkpt>
<trkpt lat="-27.4405107" lon="152.5472482">
<ele>93.950</ele>
<time>2017-09-16T23:39:36.705Z</time>
</trkpt>
<trkpt lat="-27.4404710" lon="152.5468666">
<ele>91.287</ele>
<time>2017-09-16T23:39:38.648Z</time>
</trkpt>
<trkpt lat="-27.4403495" lon="152.5462200">
<ele>89.381</ele>
<time>2017-09-16T23:39:41.736Z</time>
</trkpt>
<trkpt lat="-27.4402863" lon="152.5457707">
<ele>88.377</ele>
<time>2017-09-16T23:39:43.769Z</time>
</trkpt>
<trkpt lat="-27.4401761" lon="152.5451005">
<ele>87.913</ele>
<time>2017-09-16T23:39:46.823Z</time>
</trkpt>
<trkpt lat="-27.4401120" lon="152.5445994">
<ele>87.405</ele>
<time>2017-09-16T23:39:49.102Z</time>
</trkpt>
<trkpt lat="-27.4400298" lon="152.5441901">
<ele>86.457</ele>
<time>2017-09-16T23:39:51.006Z</time>
</trkpt>
<trkpt lat="-27.4399109" lon="152.5435599">
<ele>85.194</ele>
<time>2017-09-16T23:39:53.928Z</time>
</trkpt>
<trkpt lat="-27.4398541" lon="152.5431175">
<ele>83.819</ele>
<time>2017-09-16T23:39:55.953Z</time>
</trkpt>
<trkpt lat="-27.4397949" lon="152.5426840">
<ele>82.340</ele>
<time>2017-09-16T23:39:57.941Z</time>
</trkpt>
<trkpt lat="-27.4397432" lon="152.5422501">
<ele>80.889</ele>
<time>2017-09-16T23:39:59.929Z</time>
</trkpt>
<trkpt lat="-27.4396441" lon="152.5416092">
<ele>79.638</ele>
<time>2017-09-16T23:40:02.884Z</time>
</trkpt>
<trkpt lat="-27.4395567" lon="152.5411811">
<ele>78.495</ele>
<time>2017-09-16T23:40:04.887Z</time>
</trkpt>
<trkpt lat="-27.4395606" lon="152.5405301">
<ele>77.362</ele>
<time>2017-09-16T23:40:07.855Z</time>
</trkpt>
<trkpt lat="-27.4396668" lon="152.5400986">
<ele>76.278</ele>
<time>2017-09-16T23:40:09.883Z</time>
</trkpt>
<trkpt lat="-27.4398361" lon="152.5394592">
<ele>75.293</ele>
<time>2017-09-16T23:40:12.835Z</time>
</trkpt>
<trkpt lat="-27.4400963" lon="152.5388119">
<ele>74.438</ele>
<time>2017-09-16T23:40:15.847Z</time>
</trkpt>
<trkpt lat="-27.4405160" lon="152.5382656">
<ele>73.719</ele>
<time>2017-09-16T23:40:18.823Z</time>
</trkpt>
<trkpt lat="-27.4409683" lon="152.5377424">
<ele>73.140</ele>
<time>2017-09-16T23:40:21.857Z</time>
</trkpt>
<trkpt lat="-27.4413822" lon="152.5372295">
<ele>72.840</ele>
<time>2017-09-16T23:40:24.821Z</time>
</trkpt>
<trkpt lat="-27.4416520" lon="152.5368785">
<ele>72.979</ele>
<time>2017-09-16T23:40:26.737Z</time>
</trkpt>
<trkpt lat="-27.4419962" lon="152.5361841">
<ele>73.630</ele>
<time>2017-09-16T23:40:29.907Z</time>
</trkpt>
<trkpt lat="-27.4422139" lon="152.5357459">
<ele>74.837</ele>
<time>2017-09-16T23:40:31.885Z</time>
</trkpt>
<trkpt lat="-27.4424698" lon="152.5350480">
<ele>76.291</ele>
<time>2017-09-16T23:40:34.864Z</time>
</trkpt>
<trkpt lat="-27.4425025" lon="152.5342967">
<ele>77.401</ele>
<time>2017-09-16T23:40:37.751Z</time>
</trkpt>
<trkpt lat="-27.4425035" lon="152.5337160">
<ele>77.916</ele>
<time>2017-09-16T23:40:39.857Z</time>
</trkpt>
<trkpt lat="-27.4424753" lon="152.5331576">
<ele>78.160</ele>
<time>2017-09-16T23:40:41.863Z</time>
</trkpt>
<trkpt lat="-27.4424361" lon="152.5326060">
<ele>78.541</ele>
<time>2017-09-16T23:40:43.849Z</time>
</trkpt>
<trkpt lat="-27.4423582" lon="152.5317789">
<ele>79.083</ele>
<time>2017-09-16T23:40:46.859Z</time>
</trkpt>
<trkpt lat="-27.4422344" lon="152.5309816">
<ele>79.540</ele>
<time>2017-09-16T23:40:49.814Z</time>
</trkpt>
<trkpt lat="-27.4420287" lon="152.5301918">
<ele>79.802</ele>
<time>2017-09-16T23:40:52.819Z</time>
</trkpt>
<trkpt lat="-27.4419219" lon="152.5293744">
<ele>79.894</ele>
<time>2017-09-16T23:40:55.831Z</time>
</trkpt>
<trkpt lat="-27.4417186" lon="152.5285921">
<ele>79.885</ele>
<time>2017-09-16T23:40:58.801Z</time>
</trkpt>
<trkpt lat="-27.4415988" lon="152.5280619">
<ele>79.845</ele>
<time>2017-09-16T23:41:00.784Z</time>
</trkpt>
<trkpt lat="-27.4414871" lon="152.5275222">
<ele>79.788</ele>
<time>2017-09-16T23:41:02.786Z</time>
</trkpt>
<trkpt lat="-27.4413705" lon="152.5269946">
<ele>79.690</ele>
<time>2017-09-16T23:41:04.758Z</time>
</trkpt>
<trkpt lat="-27.4412010" lon="152.5262006">
<ele>79.552</ele>
<time>2017-09-16T23:41:07.732Z</time>
</trkpt>
<trkpt lat="-27.4410154" lon="152.5254012">
<ele>79.426</ele>
<time>2017-09-16T23:41:10.746Z</time>
</trkpt>
<trkpt lat="-27.4409339" lon="152.5248651">
<ele>79.385</ele>
<time>2017-09-16T23:41:12.733Z</time>
</trkpt>
<trkpt lat="-27.4407629" lon="152.5240698">
<ele>79.488</ele>
<time>2017-09-16T23:41:15.725Z</time>
</trkpt>
<trkpt lat="-27.4406119" lon="152.5232710">
<ele>79.734</ele>
<time>2017-09-16T23:41:18.698Z</time>
</trkpt>
<trkpt lat="-27.4404635" lon="152.5227398">
<ele>80.052</ele>
<time>2017-09-16T23:41:20.709Z</time>
</trkpt>
<trkpt lat="-27.4402567" lon="152.5219535">
<ele>80.384</ele>
<time>2017-09-16T23:41:23.679Z</time>
</trkpt>
<trkpt lat="-27.4400945" lon="152.5211543">
<ele>80.702</ele>
<time>2017-09-16T23:41:26.666Z</time>
</trkpt>
<trkpt lat="-27.4399524" lon="152.5203452">
<ele>80.941</ele>
<time>2017-09-16T23:41:29.676Z</time>
</trkpt>
<trkpt lat="-27.4398161" lon="152.5195448">
<ele>81.053</ele>
<time>2017-09-16T23:41:32.649Z</time>
</trkpt>
<trkpt lat="-27.4396387" lon="152.5187552">
<ele>80.989</ele>
<time>2017-09-16T23:41:35.625Z</time>
</trkpt>
<trkpt lat="-27.4395100" lon="152.5182317">
<ele>80.753</ele>
<time>2017-09-16T23:41:37.605Z</time>
</trkpt>
<trkpt lat="-27.4393309" lon="152.5174226">
<ele>80.494</ele>
<time>2017-09-16T23:41:40.634Z</time>
</trkpt>
<trkpt lat="-27.4391967" lon="152.5166210">
<ele>80.318</ele>
<time>2017-09-16T23:41:43.628Z</time>
</trkpt>
<trkpt lat="-27.4390101" lon="152.5158519">
<ele>80.177</ele>
<time>2017-09-16T23:41:46.607Z</time>
</trkpt>
<trkpt lat="-27.4388520" lon="152.5153554">
<ele>79.971</ele>
<time>2017-09-16T23:41:48.562Z</time>
</trkpt>
<trkpt lat="-27.4385682" lon="152.5149039">
<ele>79.648</ele>
<time>2017-09-16T23:41:50.591Z</time>
</trkpt>
<trkpt lat="-27.4382920" lon="152.5144592">
<ele>79.323</ele>
<time>2017-09-16T23:41:52.589Z</time>
</trkpt>
<trkpt lat="-27.4378435" lon="152.5138231">
<ele>79.157</ele>
<time>2017-09-16T23:41:55.588Z</time>
</trkpt>
<trkpt lat="-27.4375857" lon="152.5133600">
<ele>79.225</ele>
<time>2017-09-16T23:41:57.596Z</time>
</trkpt>
<trkpt lat="-27.4373161" lon="152.5129010">
<ele>79.470</ele>
<time>2017-09-16T23:41:59.602Z</time>
</trkpt>
<trkpt lat="-27.4370469" lon="152.5124357">
<ele>79.707</ele>
<time>2017-09-16T23:42:01.617Z</time>
</trkpt>
<trkpt lat="-27.4366571" lon="152.5117346">
<ele>79.780</ele>
<time>2017-09-16T23:42:04.626Z</time>
</trkpt>
<trkpt lat="-27.4363714" lon="152.5113027">
<ele>79.630</ele>
<time>2017-09-16T23:42:06.591Z</time>
</trkpt>
<trkpt lat="-27.4359775" lon="152.5106140">
<ele>79.332</ele>
<time>2017-09-16T23:42:09.582Z</time>
</trkpt>
<trkpt lat="-27.4355616" lon="152.5099416">
<ele>79.235</ele>
<time>2017-09-16T23:42:12.583Z</time>
</trkpt>
<trkpt lat="-27.4353163" lon="152.5094703">
<ele>79.529</ele>
<time>2017-09-16T23:42:14.588Z</time>
</trkpt>
<trkpt lat="-27.4350109" lon="152.5090397">
<ele>79.931</ele>
<time>2017-09-16T23:42:16.598Z</time>
</trkpt>
<trkpt lat="-27.4346224" lon="152.5083411">
<ele>80.082</ele>
<time>2017-09-16T23:42:19.594Z</time>
</trkpt>
<trkpt lat="-27.4343429" lon="152.5078966">
<ele>79.848</ele>
<time>2017-09-16T23:42:21.567Z</time>
</trkpt>
<trkpt lat="-27.4340794" lon="152.5074315">
<ele>79.339</ele>
<time>2017-09-16T23:42:23.567Z</time>
</trkpt>
<trkpt lat="-27.4336920" lon="152.5067313">
<ele>78.869</ele>
<time>2017-09-16T23:42:26.562Z</time>
</trkpt>
<trkpt lat="-27.4334075" lon="152.5062824">
<ele>78.587</ele>
<time>2017-09-16T23:42:28.565Z</time>
</trkpt>
<trkpt lat="-27.4331175" lon="152.5058352">
<ele>78.425</ele>
<time>2017-09-16T23:42:30.574Z</time>
</trkpt>
<trkpt lat="-27.4328470" lon="152.5053769">
<ele>78.342</ele>
<time>2017-09-16T23:42:32.568Z</time>
</trkpt>
<trkpt lat="-27.4324319" lon="152.5046914">
<ele>78.269</ele>
<time>2017-09-16T23:42:35.573Z</time>
</trkpt>
<trkpt lat="-27.4321591" lon="152.5042395">
<ele>78.031</ele>
<time>2017-09-16T23:42:37.557Z</time>
</trkpt>
<trkpt lat="-27.4318869" lon="152.5037880">
<ele>77.550</ele>
<time>2017-09-16T23:42:39.543Z</time>
</trkpt>
<trkpt lat="-27.4314997" lon="152.5030902">
<ele>76.989</ele>
<time>2017-09-16T23:42:42.540Z</time>
</trkpt>
<trkpt lat="-27.4311083" lon="152.5024009">
<ele>76.573</ele>
<time>2017-09-16T23:42:45.518Z</time>
</trkpt>
<trkpt lat="-27.4306948" lon="152.5017175">
<ele>76.333</ele>
<time>2017-09-16T23:42:48.527Z</time>
</trkpt>
<trkpt lat="-27.4304020" lon="152.5012855">
<ele>76.079</ele>
<time>2017-09-16T23:42:50.508Z</time>
</trkpt>
<trkpt lat="-27.4301702" lon="152.5008021">
<ele>75.658</ele>
<time>2017-09-16T23:42:52.513Z</time>
</trkpt>
<trkpt lat="-27.4298798" lon="152.5003624">
<ele>75.140</ele>
<time>2017-09-16T23:42:54.511Z</time>
</trkpt>
<trkpt lat="-27.4296079" lon="152.4999083">
<ele>74.724</ele>
<time>2017-09-16T23:42:56.521Z</time>
</trkpt>
<trkpt lat="-27.4293912" lon="152.4991368">
<ele>74.617</ele>
<time>2017-09-16T23:42:59.501Z</time>
</trkpt>
<trkpt lat="-27.4293327" lon="152.4985859">
<ele>74.926</ele>
<time>2017-09-16T23:43:01.533Z</time>
</trkpt>
<trkpt lat="-27.4292845" lon="152.4980371">
<ele>75.469</ele>
<time>2017-09-16T23:43:03.544Z</time>
</trkpt>
<trkpt lat="-27.4291439" lon="152.4972362">
<ele>75.989</ele>
<time>2017-09-16T23:43:06.517Z</time>
</trkpt>
<trkpt lat="-27.4290963" lon="152.4966814">
<ele>76.436</ele>
<time>2017-09-16T23:43:08.546Z</time>
</trkpt>
<trkpt lat="-27.4289943" lon="152.4958749">
<ele>76.814</ele>
<time>2017-09-16T23:43:11.514Z</time>
</trkpt>
<trkpt lat="-27.4289225" lon="152.4953285">
<ele>77.182</ele>
<time>2017-09-16T23:43:13.532Z</time>
</trkpt>
<trkpt lat="-27.4288096" lon="152.4945214">
<ele>77.686</ele>
<time>2017-09-16T23:43:16.522Z</time>
</trkpt>
<trkpt lat="-27.4287369" lon="152.4939763">
<ele>78.300</ele>
<time>2017-09-16T23:43:18.540Z</time>
</trkpt>
<trkpt lat="-27.4286459" lon="152.4931659">
<ele>78.822</ele>
<time>2017-09-16T23:43:21.571Z</time>
</trkpt>
<trkpt lat="-27.4286258" lon="152.4926571">
<ele>79.091</ele>
<time>2017-09-16T23:43:23.532Z</time>
</trkpt>
<trkpt lat="-27.4287163" lon="152.4921523">
<ele>79.102</ele>
<time>2017-09-16T23:43:25.521Z</time>
</trkpt>
<trkpt lat="-27.4288752" lon="152.4916557">
<ele>78.994</ele>
<time>2017-09-16T23:43:27.587Z</time>
</trkpt>
<trkpt lat="-27.4291055" lon="152.4909719">
<ele>78.898</ele>
<time>2017-09-16T23:43:30.560Z</time>
</trkpt>
<trkpt lat="-27.4292463" lon="152.4905563">
<ele>78.783</ele>
<time>2017-09-16T23:43:32.551Z</time>
</trkpt>
<trkpt lat="-27.4293736" lon="152.4901833">
<ele>78.461</ele>
<time>2017-09-16T23:43:34.516Z</time>
</trkpt>
<trkpt lat="-27.4294457" lon="152.4898308">
<ele>77.796</ele>
<time>2017-09-16T23:43:36.533Z</time>
</trkpt>
<trkpt lat="-27.4295055" lon="152.4893674">
<ele>76.843</ele>
<time>2017-09-16T23:43:39.516Z</time>
</trkpt>
<trkpt lat="-27.4296101" lon="152.4890073">
<ele>75.581</ele>
<time>2017-09-16T23:43:42.408Z</time>
</trkpt>
<trkpt lat="-27.4296391" lon="152.4887974">
<ele>73.823</ele>
<time>2017-09-16T23:43:44.327Z</time>
</trkpt>
<trkpt lat="-27.4296968" lon="152.4886224">
<ele>71.685</ele>
<time>2017-09-16T23:43:46.256Z</time>
</trkpt>
<trkpt lat="-27.4297337" lon="152.4884716">
<ele>69.644</ele>
<time>2017-09-16T23:43:48.257Z</time>
</trkpt>
<trkpt lat="-27.4297583" lon="152.4883179">
<ele>67.989</ele>
<time>2017-09-16T23:43:50.710Z</time>
</trkpt>
<trkpt lat="-27.4298680" lon="152.4882604">
<ele>66.675</ele>
<time>2017-09-16T23:43:53.850Z</time>
</trkpt>
<trkpt lat="-27.4299605" lon="152.4881412">
<ele>65.586</ele>
<time>2017-09-16T23:43:58.721Z</time>
</trkpt>
<trkpt lat="-27.4302391" lon="152.4880858">
<ele>64.779</ele>
<time>2017-09-16T23:44:03.605Z</time>
</trkpt>
<trkpt lat="-27.4306009" lon="152.4880260">
<ele>64.524</ele>
<time>2017-09-16T23:44:06.855Z</time>
</trkpt>
<trkpt lat="-27.4310222" lon="152.4879649">
<ele>65.101</ele>
<time>2017-09-16T23:44:10.108Z</time>
</trkpt>
<trkpt lat="-27.4314646" lon="152.4878893">
<ele>66.574</ele>
<time>2017-09-16T23:44:13.254Z</time>
</trkpt>
<trkpt lat="-27.4317329" lon="152.4878502">
<ele>68.652</ele>
<time>2017-09-16T23:44:15.171Z</time>
</trkpt>
<trkpt lat="-27.4319799" lon="152.4877869">
<ele>70.705</ele>
<time>2017-09-16T23:44:17.187Z</time>
</trkpt>
<trkpt lat="-27.4322621" lon="152.4877221">
<ele>72.105</ele>
<time>2017-09-16T23:44:19.855Z</time>
</trkpt>
<trkpt lat="-27.4323981" lon="152.4877237">
<ele>72.686</ele>
<time>2017-09-16T23:44:21.520Z</time>
</trkpt>
<trkpt lat="-27.4323640" lon="152.4875553">
<ele>72.662</ele>
<time>2017-09-16T23:44:23.873Z</time>
</trkpt>
<trkpt lat="-27.4322989" lon="152.4872211">
<ele>72.341</ele>
<time>2017-09-16T23:44:27.629Z</time>
</trkpt>
<trkpt lat="-27.4322606" lon="152.4867912">
<ele>72.048</ele>
<time>2017-09-16T23:44:30.799Z</time>
</trkpt>
<trkpt lat="-27.4321987" lon="152.4862526">
<ele>72.193</ele>
<time>2017-09-16T23:44:33.973Z</time>
</trkpt>
<trkpt lat="-27.4321083" lon="152.4858486">
<ele>73.221</ele>
<time>2017-09-16T23:44:36.044Z</time>
</trkpt>
<trkpt lat="-27.4320268" lon="152.4851912">
<ele>75.110</ele>
<time>2017-09-16T23:44:39.107Z</time>
</trkpt>
<trkpt lat="-27.4319794" lon="152.4847261">
<ele>77.427</ele>
<time>2017-09-16T23:44:41.131Z</time>
</trkpt>
<trkpt lat="-27.4318702" lon="152.4840190">
<ele>79.735</ele>
<time>2017-09-16T23:44:44.151Z</time>
</trkpt>
<trkpt lat="-27.4318085" lon="152.4835266">
<ele>81.617</ele>
<time>2017-09-16T23:44:46.198Z</time>
</trkpt>
<trkpt lat="-27.4317312" lon="152.4830348">
<ele>82.874</ele>
<time>2017-09-16T23:44:48.273Z</time>
</trkpt>
<trkpt lat="-27.4316414" lon="152.4823586">
<ele>83.591</ele>
<time>2017-09-16T23:44:51.192Z</time>
</trkpt>
<trkpt lat="-27.4314619" lon="152.4817016">
<ele>83.846</ele>
<time>2017-09-16T23:44:54.149Z</time>
</trkpt>
<trkpt lat="-27.4311437" lon="152.4810315">
<ele>83.787</ele>
<time>2017-09-16T23:44:57.265Z</time>
</trkpt>
<trkpt lat="-27.4308337" lon="152.4803566">
<ele>83.579</ele>
<time>2017-09-16T23:45:00.311Z</time>
</trkpt>
<trkpt lat="-27.4305797" lon="152.4799524">
<ele>83.157</ele>
<time>2017-09-16T23:45:02.264Z</time>
</trkpt>
<trkpt lat="-27.4300994" lon="152.4792882">
<ele>82.396</ele>
<time>2017-09-16T23:45:05.529Z</time>
</trkpt>
<trkpt lat="-27.4296653" lon="152.4786838">
<ele>81.352</ele>
<time>2017-09-16T23:45:08.420Z</time>
</trkpt>
<trkpt lat="-27.4293712" lon="152.4782991">
<ele>80.133</ele>
<time>2017-09-16T23:45:10.312Z</time>
</trkpt>
<trkpt lat="-27.4290583" lon="152.4779023">
<ele>78.965</ele>
<time>2017-09-16T23:45:12.281Z</time>
</trkpt>
<trkpt lat="-27.4287403" lon="152.4774741">
<ele>78.211</ele>
<time>2017-09-16T23:45:14.324Z</time>
</trkpt>
<trkpt lat="-27.4281580" lon="152.4769536">
<ele>78.034</ele>
<time>2017-09-16T23:45:17.368Z</time>
</trkpt>
<trkpt lat="-27.4277628" lon="152.4766247">
<ele>78.271</ele>
<time>2017-09-16T23:45:19.380Z</time>
</trkpt>
<trkpt lat="-27.4273723" lon="152.4762910">
<ele>78.595</ele>
<time>2017-09-16T23:45:21.391Z</time>
</trkpt>
<trkpt lat="-27.4268151" lon="152.4757657">
<ele>78.751</ele>
<time>2017-09-16T23:45:24.391Z</time>
</trkpt>
<trkpt lat="-27.4262378" lon="152.4752977">
<ele>78.656</ele>
<time>2017-09-16T23:45:27.369Z</time>
</trkpt>
<trkpt lat="-27.4259264" lon="152.4748984">
<ele>78.302</ele>
<time>2017-09-16T23:45:29.363Z</time>
</trkpt>
<trkpt lat="-27.4256204" lon="152.4744802">
<ele>77.829</ele>
<time>2017-09-16T23:45:31.375Z</time>
</trkpt>
<trkpt lat="-27.4252059" lon="152.4737953">
<ele>77.508</ele>
<time>2017-09-16T23:45:34.434Z</time>
</trkpt>
<trkpt lat="-27.4247726" lon="152.4731521">
<ele>77.577</ele>
<time>2017-09-16T23:45:37.418Z</time>
</trkpt>
<trkpt lat="-27.4245005" lon="152.4726913">
<ele>78.065</ele>
<time>2017-09-16T23:45:39.464Z</time>
</trkpt>
<trkpt lat="-27.4240667" lon="152.4720344">
<ele>78.693</ele>
<time>2017-09-16T23:45:42.479Z</time>
</trkpt>
<trkpt lat="-27.4236405" lon="152.4713350">
<ele>79.134</ele>
<time>2017-09-16T23:45:45.579Z</time>
</trkpt>
<trkpt lat="-27.4233372" lon="152.4709008">
<ele>79.332</ele>
<time>2017-09-16T23:45:47.583Z</time>
</trkpt>
<trkpt lat="-27.4230584" lon="152.4704659">
<ele>79.385</ele>
<time>2017-09-16T23:45:49.559Z</time>
</trkpt>
<trkpt lat="-27.4226675" lon="152.4698220">
<ele>79.366</ele>
<time>2017-09-16T23:45:52.500Z</time>
</trkpt>
<trkpt lat="-27.4224786" lon="152.4693752">
<ele>79.258</ele>
<time>2017-09-16T23:45:54.407Z</time>
</trkpt>
<trkpt lat="-27.4223105" lon="152.4686125">
<ele>79.059</ele>
<time>2017-09-16T23:45:57.392Z</time>
</trkpt>
<trkpt lat="-27.4222631" lon="152.4680435">
<ele>78.925</ele>
<time>2017-09-16T23:45:59.493Z</time>
</trkpt>
<trkpt lat="-27.4221744" lon="152.4672358">
<ele>79.044</ele>
<time>2017-09-16T23:46:02.474Z</time>
</trkpt>
<trkpt lat="-27.4221448" lon="152.4666842">
<ele>79.400</ele>
<time>2017-09-16T23:46:04.490Z</time>
</trkpt>
<trkpt lat="-27.4220666" lon="152.4658614">
<ele>79.809</ele>
<time>2017-09-16T23:46:07.498Z</time>
</trkpt>
<trkpt lat="-27.4219711" lon="152.4653184">
<ele>80.198</ele>
<time>2017-09-16T23:46:09.505Z</time>
</trkpt>
<trkpt lat="-27.4219221" lon="152.4647704">
<ele>80.632</ele>
<time>2017-09-16T23:46:11.507Z</time>
</trkpt>
<trkpt lat="-27.4218582" lon="152.4639579">
<ele>81.115</ele>
<time>2017-09-16T23:46:14.479Z</time>
</trkpt>
<trkpt lat="-27.4217696" lon="152.4634162">
<ele>81.530</ele>
<time>2017-09-16T23:46:16.483Z</time>
</trkpt>
<trkpt lat="-27.4216928" lon="152.4625980">
<ele>81.732</ele>
<time>2017-09-16T23:46:19.472Z</time>
</trkpt>
<trkpt lat="-27.4216315" lon="152.4617846">
<ele>81.703</ele>
<time>2017-09-16T23:46:22.438Z</time>
</trkpt>
<trkpt lat="-27.4215708" lon="152.4612379">
<ele>81.624</ele>
<time>2017-09-16T23:46:24.448Z</time>
</trkpt>
<trkpt lat="-27.4215136" lon="152.4607004">
<ele>81.707</ele>
<time>2017-09-16T23:46:26.429Z</time>
</trkpt>
<trkpt lat="-27.4214253" lon="152.4598847">
<ele>82.020</ele>
<time>2017-09-16T23:46:29.430Z</time>
</trkpt>
<trkpt lat="-27.4213682" lon="152.4593391">
<ele>82.419</ele>
<time>2017-09-16T23:46:31.430Z</time>
</trkpt>
<trkpt lat="-27.4212455" lon="152.4585288">
<ele>82.688</ele>
<time>2017-09-16T23:46:34.424Z</time>
</trkpt>
<trkpt lat="-27.4212126" lon="152.4579803">
<ele>82.762</ele>
<time>2017-09-16T23:46:36.430Z</time>
</trkpt>
<trkpt lat="-27.4211809" lon="152.4574356">
<ele>82.722</ele>
<time>2017-09-16T23:46:38.469Z</time>
</trkpt>
<trkpt lat="-27.4211087" lon="152.4569375">
<ele>82.662</ele>
<time>2017-09-16T23:46:40.496Z</time>
</trkpt>
<trkpt lat="-27.4210349" lon="152.4562709">
<ele>82.481</ele>
<time>2017-09-16T23:46:43.371Z</time>
</trkpt>
<trkpt lat="-27.4209578" lon="152.4556423">
<ele>81.883</ele>
<time>2017-09-16T23:46:46.252Z</time>
</trkpt>
<trkpt lat="-27.4208056" lon="152.4550239">
<ele>80.854</ele>
<time>2017-09-16T23:46:49.231Z</time>
</trkpt>
<trkpt lat="-27.4205490" lon="152.4544662">
<ele>79.861</ele>
<time>2017-09-16T23:46:52.197Z</time>
</trkpt>
<trkpt lat="-27.4203745" lon="152.4540989">
<ele>79.318</ele>
<time>2017-09-16T23:46:54.221Z</time>
</trkpt>
<trkpt lat="-27.4202278" lon="152.4537607">
<ele>79.263</ele>
<time>2017-09-16T23:46:56.226Z</time>
</trkpt>
<trkpt lat="-27.4201172" lon="152.4534873">
<ele>79.487</ele>
<time>2017-09-16T23:46:58.200Z</time>
</trkpt>
<trkpt lat="-27.4199824" lon="152.4531869">
<ele>79.715</ele>
<time>2017-09-16T23:47:00.905Z</time>
</trkpt>
<trkpt lat="-27.4198713" lon="152.4529669">
<ele>79.679</ele>
<time>2017-09-16T23:47:03.541Z</time>
</trkpt>
<trkpt lat="-27.4198441" lon="152.4528646">
<ele>79.245</ele>
<time>2017-09-16T23:47:04.998Z</time>
</trkpt>
<trkpt lat="-27.4198441" lon="152.4528646">
<ele>78.607</ele>
<time>2017-09-16T23:47:09.998Z</time>
</trkpt>
<trkpt lat="-27.4198441" lon="152.4528646">
<ele>78.204</ele>
<time>2017-09-16T23:47:15.710Z</time>
</trkpt>
<trkpt lat="-27.4199050" lon="152.4526614">
<ele>78.195</ele>
<time>2017-09-16T23:47:23.053Z</time>
</trkpt>
<trkpt lat="-27.4199867" lon="152.4525603">
<ele>78.155</ele>
<time>2017-09-16T23:47:25.761Z</time>
</trkpt>
<trkpt lat="-27.4200649" lon="152.4524122">
<ele>77.740</ele>
<time>2017-09-16T23:47:29.002Z</time>
</trkpt>
<trkpt lat="-27.4201299" lon="152.4522848">
<ele>77.251</ele>
<time>2017-09-16T23:47:31.675Z</time>
</trkpt>
<trkpt lat="-27.4201721" lon="152.4521858">
<ele>77.043</ele>
<time>2017-09-16T23:47:33.595Z</time>
</trkpt>
<trkpt lat="-27.4202797" lon="152.4520700">
<ele>77.053</ele>
<time>2017-09-16T23:47:36.474Z</time>
</trkpt>
<trkpt lat="-27.4203028" lon="152.4519057">
<ele>77.115</ele>
<time>2017-09-16T23:47:39.274Z</time>
</trkpt>
<trkpt lat="-27.4204191" lon="152.4517855">
<ele>77.143</ele>
<time>2017-09-16T23:47:42.219Z</time>
</trkpt>
<trkpt lat="-27.4204427" lon="152.4516674">
<ele>77.139</ele>
<time>2017-09-16T23:47:44.196Z</time>
</trkpt>
<trkpt lat="-27.4205201" lon="152.4515221">
<ele>77.131</ele>
<time>2017-09-16T23:47:46.964Z</time>
</trkpt>
<trkpt lat="-27.4206557" lon="152.4514118">
<ele>77.136</ele>
<time>2017-09-16T23:47:50.060Z</time>
</trkpt>
<trkpt lat="-27.4207117" lon="152.4513219">
<ele>77.163</ele>
<time>2017-09-16T23:47:51.854Z</time>
</trkpt>
<trkpt lat="-27.4208091" lon="152.4511836">
<ele>77.199</ele>
<time>2017-09-16T23:47:54.729Z</time>
</trkpt>
<trkpt lat="-27.4209003" lon="152.4511581">
<ele>77.215</ele>
<time>2017-09-16T23:47:56.588Z</time>
</trkpt>
<trkpt lat="-27.4209692" lon="152.4510502">
<ele>77.180</ele>
<time>2017-09-16T23:47:59.295Z</time>
</trkpt>
<trkpt lat="-27.4210897" lon="152.4510475">
<ele>77.076</ele>
<time>2017-09-16T23:48:02.362Z</time>
</trkpt>
<trkpt lat="-27.4211885" lon="152.4510101">
<ele>76.924</ele>
<time>2017-09-16T23:48:04.998Z</time>
</trkpt>
<trkpt lat="-27.4211885" lon="152.4510101">
<ele>76.784</ele>
<time>2017-09-16T23:48:12.998Z</time>
</trkpt>
<trkpt lat="-27.4211885" lon="152.4510101">
<ele>76.704</ele>
<time>2017-09-17T00:02:56.182Z</time>
</trkpt>
<trkpt lat="-27.4214121" lon="152.4508403">
<ele>76.699</ele>
<time>2017-09-17T00:03:15.656Z</time>
</trkpt>
<trkpt lat="-27.4214734" lon="152.4507656">
<ele>76.817</ele>
<time>2017-09-17T00:03:19.474Z</time>
</trkpt>
<trkpt lat="-27.4215051" lon="152.4506633">
<ele>77.049</ele>
<time>2017-09-17T00:03:23.529Z</time>
</trkpt>
<trkpt lat="-27.4215374" lon="152.4505516">
<ele>77.240</ele>
<time>2017-09-17T00:03:27.827Z</time>
</trkpt>
<trkpt lat="-27.4215557" lon="152.4504517">
<ele>77.271</ele>
<time>2017-09-17T00:03:31.560Z</time>
</trkpt>
<trkpt lat="-27.4215703" lon="152.4503302">
<ele>77.181</ele>
<time>2017-09-17T00:03:35.738Z</time>
</trkpt>
<trkpt lat="-27.4215524" lon="152.4502026">
<ele>77.063</ele>
<time>2017-09-17T00:03:39.573Z</time>
</trkpt>
<trkpt lat="-27.4215341" lon="152.4500762">
<ele>76.993</ele>
<time>2017-09-17T00:03:43.190Z</time>
</trkpt>
<trkpt lat="-27.4214817" lon="152.4499555">
<ele>76.994</ele>
<time>2017-09-17T00:03:47.052Z</time>
</trkpt>
<trkpt lat="-27.4214029" lon="152.4498650">
<ele>77.046</ele>
<time>2017-09-17T00:03:50.816Z</time>
</trkpt>
<trkpt lat="-27.4213195" lon="152.4497800">
<ele>77.112</ele>
<time>2017-09-17T00:03:54.366Z</time>
</trkpt>
<trkpt lat="-27.4212202" lon="152.4497362">
<ele>77.157</ele>
<time>2017-09-17T00:03:57.333Z</time>
</trkpt>
<trkpt lat="-27.4211232" lon="152.4496827">
<ele>77.176</ele>
<time>2017-09-17T00:04:00.163Z</time>
</trkpt>
<trkpt lat="-27.4210256" lon="152.4496203">
<ele>77.183</ele>
<time>2017-09-17T00:04:03.118Z</time>
</trkpt>
<trkpt lat="-27.4209305" lon="152.4495664">
<ele>77.193</ele>
<time>2017-09-17T00:04:05.963Z</time>
</trkpt>
<trkpt lat="-27.4208341" lon="152.4495089">
<ele>77.219</ele>
<time>2017-09-17T00:04:08.830Z</time>
</trkpt>
<trkpt lat="-27.4207304" lon="152.4494495">
<ele>77.261</ele>
<time>2017-09-17T00:04:11.824Z</time>
</trkpt>
<trkpt lat="-27.4206190" lon="152.4494087">
<ele>77.310</ele>
<time>2017-09-17T00:04:14.804Z</time>
</trkpt>
<trkpt lat="-27.4205016" lon="152.4493779">
<ele>77.362</ele>
<time>2017-09-17T00:04:17.760Z</time>
</trkpt>
<trkpt lat="-27.4203765" lon="152.4493590">
<ele>77.420</ele>
<time>2017-09-17T00:04:20.812Z</time>
</trkpt>
<trkpt lat="-27.4202632" lon="152.4493313">
<ele>77.480</ele>
<time>2017-09-17T00:04:23.810Z</time>
</trkpt>
<trkpt lat="-27.4201655" lon="152.4492904">
<ele>77.532</ele>
<time>2017-09-17T00:04:26.611Z</time>
</trkpt>
<trkpt lat="-27.4200578" lon="152.4492591">
<ele>77.564</ele>
<time>2017-09-17T00:04:29.480Z</time>
</trkpt>
<trkpt lat="-27.4199458" lon="152.4492203">
<ele>77.578</ele>
<time>2017-09-17T00:04:32.337Z</time>
</trkpt>
<trkpt lat="-27.4198239" lon="152.4491686">
<ele>77.589</ele>
<time>2017-09-17T00:04:35.380Z</time>
</trkpt>
<trkpt lat="-27.4196961" lon="152.4491596">
<ele>77.626</ele>
<time>2017-09-17T00:04:38.331Z</time>
</trkpt>
<trkpt lat="-27.4195735" lon="152.4491610">
<ele>77.713</ele>
<time>2017-09-17T00:04:41.138Z</time>
</trkpt>
<trkpt lat="-27.4194384" lon="152.4491890">
<ele>77.842</ele>
<time>2017-09-17T00:04:44.134Z</time>
</trkpt>
<trkpt lat="-27.4193413" lon="152.4492134">
<ele>78.001</ele>
<time>2017-09-17T00:04:46.174Z</time>
</trkpt>
<trkpt lat="-27.4191987" lon="152.4492104">
<ele>78.187</ele>
<time>2017-09-17T00:04:49.077Z</time>
</trkpt>
<trkpt lat="-27.4190622" lon="152.4492480">
<ele>78.394</ele>
<time>2017-09-17T00:04:52.001Z</time>
</trkpt>
<trkpt lat="-27.4189745" lon="152.4492743">
<ele>78.629</ele>
<time>2017-09-17T00:04:53.891Z</time>
</trkpt>
<trkpt lat="-27.4188722" lon="152.4492869">
<ele>78.907</ele>
<time>2017-09-17T00:04:55.914Z</time>
</trkpt>
<trkpt lat="-27.4187661" lon="152.4493019">
<ele>79.218</ele>
<time>2017-09-17T00:04:57.956Z</time>
</trkpt>
<trkpt lat="-27.4186719" lon="152.4493040">
<ele>79.535</ele>
<time>2017-09-17T00:04:59.838Z</time>
</trkpt>
<trkpt lat="-27.4185398" lon="152.4493371">
<ele>79.822</ele>
<time>2017-09-17T00:05:02.701Z</time>
</trkpt>
<trkpt lat="-27.4184110" lon="152.4493450">
<ele>80.070</ele>
<time>2017-09-17T00:05:05.642Z</time>
</trkpt>
<trkpt lat="-27.4183209" lon="152.4493607">
<ele>80.295</ele>
<time>2017-09-17T00:05:07.999Z</time>
</trkpt>
<trkpt lat="-27.4183209" lon="152.4493607">
<ele>80.480</ele>
<time>2017-09-17T00:05:10.999Z</time>
</trkpt>
<trkpt lat="-27.4183209" lon="152.4493607">
<ele>80.555</ele>
<time>2017-09-17T00:05:16.413Z</time>
</trkpt>
<trkpt lat="-27.4183743" lon="152.4495665">
<ele>80.512</ele>
<time>2017-09-17T00:05:21.639Z</time>
</trkpt>
<trkpt lat="-27.4184437" lon="152.4497702">
<ele>80.560</ele>
<time>2017-09-17T00:05:24.790Z</time>
</trkpt>
<trkpt lat="-27.4184947" lon="152.4499116">
<ele>80.892</ele>
<time>2017-09-17T00:05:26.825Z</time>
</trkpt>
<trkpt lat="-27.4185655" lon="152.4501416">
<ele>81.374</ele>
<time>2017-09-17T00:05:29.933Z</time>
</trkpt>
<trkpt lat="-27.4186620" lon="152.4503772">
<ele>81.770</ele>
<time>2017-09-17T00:05:32.866Z</time>
</trkpt>
<trkpt lat="-27.4187397" lon="152.4505645">
<ele>82.061</ele>
<time>2017-09-17T00:05:34.741Z</time>
</trkpt>
<trkpt lat="-27.4188472" lon="152.4507960">
<ele>82.344</ele>
<time>2017-09-17T00:05:36.786Z</time>
</trkpt>
<trkpt lat="-27.4189751" lon="152.4510438">
<ele>82.743</ele>
<time>2017-09-17T00:05:38.738Z</time>
</trkpt>
<trkpt lat="-27.4191685" lon="152.4514739">
<ele>83.341</ele>
<time>2017-09-17T00:05:41.806Z</time>
</trkpt>
<trkpt lat="-27.4192997" lon="152.4517801">
<ele>84.108</ele>
<time>2017-09-17T00:05:43.735Z</time>
</trkpt>
<trkpt lat="-27.4195274" lon="152.4523102">
<ele>84.864</ele>
<time>2017-09-17T00:05:46.806Z</time>
</trkpt>
<trkpt lat="-27.4198103" lon="152.4528779">
<ele>85.500</ele>
<time>2017-09-17T00:05:49.868Z</time>
</trkpt>
<trkpt lat="-27.4199786" lon="152.4532840">
<ele>86.109</ele>
<time>2017-09-17T00:05:51.863Z</time>
</trkpt>
<trkpt lat="-27.4202352" lon="152.4538988">
<ele>86.737</ele>
<time>2017-09-17T00:05:54.877Z</time>
</trkpt>
<trkpt lat="-27.4204353" lon="152.4542893">
<ele>87.221</ele>
<time>2017-09-17T00:05:56.904Z</time>
</trkpt>
<trkpt lat="-27.4207023" lon="152.4548794">
<ele>87.371</ele>
<time>2017-09-17T00:05:59.904Z</time>
</trkpt>
<trkpt lat="-27.4208973" lon="152.4552902">
<ele>87.018</ele>
<time>2017-09-17T00:06:02.008Z</time>
</trkpt>
<trkpt lat="-27.4210277" lon="152.4559347">
<ele>86.146</ele>
<time>2017-09-17T00:06:04.988Z</time>
</trkpt>
<trkpt lat="-27.4211028" lon="152.4565903">
<ele>84.901</ele>
<time>2017-09-17T00:06:07.971Z</time>
</trkpt>
<trkpt lat="-27.4211255" lon="152.4570295">
<ele>83.377</ele>
<time>2017-09-17T00:06:09.867Z</time>
</trkpt>
<trkpt lat="-27.4212212" lon="152.4577373">
<ele>81.883</ele>
<time>2017-09-17T00:06:12.804Z</time>
</trkpt>
<trkpt lat="-27.4212361" lon="152.4582745">
<ele>80.941</ele>
<time>2017-09-17T00:06:14.822Z</time>
</trkpt>
<trkpt lat="-27.4212890" lon="152.4588294">
<ele>80.810</ele>
<time>2017-09-17T00:06:16.847Z</time>
</trkpt>
<trkpt lat="-27.4213959" lon="152.4596394">
<ele>81.418</ele>
<time>2017-09-17T00:06:19.800Z</time>
</trkpt>
<trkpt lat="-27.4214291" lon="152.4601986">
<ele>82.453</ele>
<time>2017-09-17T00:06:21.835Z</time>
</trkpt>
<trkpt lat="-27.4215295" lon="152.4609980">
<ele>83.421</ele>
<time>2017-09-17T00:06:24.806Z</time>
</trkpt>
<trkpt lat="-27.4215795" lon="152.4615288">
<ele>84.056</ele>
<time>2017-09-17T00:06:26.788Z</time>
</trkpt>
<trkpt lat="-27.4216693" lon="152.4623321">
<ele>84.389</ele>
<time>2017-09-17T00:06:29.790Z</time>
</trkpt>
<trkpt lat="-27.4217149" lon="152.4628742">
<ele>84.486</ele>
<time>2017-09-17T00:06:31.801Z</time>
</trkpt>
<trkpt lat="-27.4217650" lon="152.4634111">
<ele>84.378</ele>
<time>2017-09-17T00:06:33.788Z</time>
</trkpt>
<trkpt lat="-27.4218366" lon="152.4639503">
<ele>84.182</ele>
<time>2017-09-17T00:06:35.795Z</time>
</trkpt>
<trkpt lat="-27.4218973" lon="152.4647603">
<ele>84.032</ele>
<time>2017-09-17T00:06:38.787Z</time>
</trkpt>
<trkpt lat="-27.4219591" lon="152.4652956">
<ele>83.952</ele>
<time>2017-09-17T00:06:40.774Z</time>
</trkpt>
<trkpt lat="-27.4220261" lon="152.4661033">
<ele>83.891</ele>
<time>2017-09-17T00:06:43.763Z</time>
</trkpt>
<trkpt lat="-27.4220808" lon="152.4666447">
<ele>83.861</ele>
<time>2017-09-17T00:06:45.764Z</time>
</trkpt>
<trkpt lat="-27.4221378" lon="152.4671879">
<ele>83.903</ele>
<time>2017-09-17T00:06:47.769Z</time>
</trkpt>
<trkpt lat="-27.4222029" lon="152.4677240">
<ele>84.013</ele>
<time>2017-09-17T00:06:49.761Z</time>
</trkpt>
<trkpt lat="-27.4222809" lon="152.4685267">
<ele>84.175</ele>
<time>2017-09-17T00:06:52.748Z</time>
</trkpt>
<trkpt lat="-27.4223516" lon="152.4690506">
<ele>84.347</ele>
<time>2017-09-17T00:06:54.775Z</time>
</trkpt>
<trkpt lat="-27.4225494" lon="152.4697645">
<ele>84.429</ele>
<time>2017-09-17T00:06:57.757Z</time>
</trkpt>
<trkpt lat="-27.4227873" lon="152.4701346">
<ele>84.213</ele>
<time>2017-09-17T00:06:59.665Z</time>
</trkpt>
<trkpt lat="-27.4232020" lon="152.4706831">
<ele>83.578</ele>
<time>2017-09-17T00:07:02.663Z</time>
</trkpt>
<trkpt lat="-27.4234583" lon="152.4710748">
<ele>82.650</ele>
<time>2017-09-17T00:07:04.677Z</time>
</trkpt>
<trkpt lat="-27.4238207" lon="152.4716600">
<ele>81.746</ele>
<time>2017-09-17T00:07:07.661Z</time>
</trkpt>
<trkpt lat="-27.4241796" lon="152.4722264">
<ele>81.121</ele>
<time>2017-09-17T00:07:10.605Z</time>
</trkpt>
<trkpt lat="-27.4244474" lon="152.4725899">
<ele>80.717</ele>
<time>2017-09-17T00:07:12.603Z</time>
</trkpt>
<trkpt lat="-27.4246694" lon="152.4729900">
<ele>80.317</ele>
<time>2017-09-17T00:07:14.599Z</time>
</trkpt>
<trkpt lat="-27.4249271" lon="152.4733528">
<ele>79.853</ele>
<time>2017-09-17T00:07:16.543Z</time>
</trkpt>
<trkpt lat="-27.4252952" lon="152.4739485">
<ele>79.416</ele>
<time>2017-09-17T00:07:19.560Z</time>
</trkpt>
<trkpt lat="-27.4256542" lon="152.4745361">
<ele>79.115</ele>
<time>2017-09-17T00:07:22.569Z</time>
</trkpt>
<trkpt lat="-27.4259890" lon="152.4750910">
<ele>78.928</ele>
<time>2017-09-17T00:07:25.490Z</time>
</trkpt>
<trkpt lat="-27.4262870" lon="152.4754034">
<ele>78.614</ele>
<time>2017-09-17T00:07:27.480Z</time>
</trkpt>
<trkpt lat="-27.4267914" lon="152.4758323">
<ele>78.090</ele>
<time>2017-09-17T00:07:30.513Z</time>
</trkpt>
<trkpt lat="-27.4272909" lon="152.4762745">
<ele>77.752</ele>
<time>2017-09-17T00:07:33.501Z</time>
</trkpt>
<trkpt lat="-27.4276205" lon="152.4766003">
<ele>77.980</ele>
<time>2017-09-17T00:07:35.520Z</time>
</trkpt>
<trkpt lat="-27.4279779" lon="152.4768857">
<ele>78.576</ele>
<time>2017-09-17T00:07:37.519Z</time>
</trkpt>
<trkpt lat="-27.4283297" lon="152.4771738">
<ele>79.148</ele>
<time>2017-09-17T00:07:39.504Z</time>
</trkpt>
<trkpt lat="-27.4286796" lon="152.4774737">
<ele>79.514</ele>
<time>2017-09-17T00:07:41.490Z</time>
</trkpt>
<trkpt lat="-27.4291754" lon="152.4780001">
<ele>79.666</ele>
<time>2017-09-17T00:07:44.505Z</time>
</trkpt>
<trkpt lat="-27.4296081" lon="152.4786199">
<ele>79.794</ele>
<time>2017-09-17T00:07:47.528Z</time>
</trkpt>
<trkpt lat="-27.4299182" lon="152.4790163">
<ele>80.066</ele>
<time>2017-09-17T00:07:49.538Z</time>
</trkpt>
<trkpt lat="-27.4303350" lon="152.4796354">
<ele>80.278</ele>
<time>2017-09-17T00:07:52.508Z</time>
</trkpt>
<trkpt lat="-27.4305988" lon="152.4800640">
<ele>80.224</ele>
<time>2017-09-17T00:07:54.513Z</time>
</trkpt>
<trkpt lat="-27.4309828" lon="152.4807146">
<ele>80.070</ele>
<time>2017-09-17T00:07:57.498Z</time>
</trkpt>
<trkpt lat="-27.4311856" lon="152.4812022">
<ele>80.237</ele>
<time>2017-09-17T00:07:59.535Z</time>
</trkpt>
<trkpt lat="-27.4313332" lon="152.4816863">
<ele>81.061</ele>
<time>2017-09-17T00:08:01.493Z</time>
</trkpt>
<trkpt lat="-27.4315720" lon="152.4821292">
<ele>82.434</ele>
<time>2017-09-17T00:08:03.490Z</time>
</trkpt>
<trkpt lat="-27.4317159" lon="152.4826152">
<ele>83.981</ele>
<time>2017-09-17T00:08:05.463Z</time>
</trkpt>
<trkpt lat="-27.4317898" lon="152.4833999">
<ele>85.462</ele>
<time>2017-09-17T00:08:08.508Z</time>
</trkpt>
<trkpt lat="-27.4318796" lon="152.4841682">
<ele>86.795</ele>
<time>2017-09-17T00:08:11.567Z</time>
</trkpt>
<trkpt lat="-27.4319807" lon="152.4848688">
<ele>87.852</ele>
<time>2017-09-17T00:08:14.534Z</time>
</trkpt>
<trkpt lat="-27.4320283" lon="152.4852953">
<ele>88.371</ele>
<time>2017-09-17T00:08:16.494Z</time>
</trkpt>
<trkpt lat="-27.4320627" lon="152.4857048">
<ele>88.246</ele>
<time>2017-09-17T00:08:18.579Z</time>
</trkpt>
<trkpt lat="-27.4321378" lon="152.4861973">
<ele>87.666</ele>
<time>2017-09-17T00:08:21.532Z</time>
</trkpt>
<trkpt lat="-27.4321614" lon="152.4865614">
<ele>86.593</ele>
<time>2017-09-17T00:08:24.290Z</time>
</trkpt>
<trkpt lat="-27.4321804" lon="152.4867453">
<ele>84.728</ele>
<time>2017-09-17T00:08:26.172Z</time>
</trkpt>
<trkpt lat="-27.4321937" lon="152.4869467">
<ele>82.286</ele>
<time>2017-09-17T00:08:28.635Z</time>
</trkpt>
<trkpt lat="-27.4322151" lon="152.4870916">
<ele>79.849</ele>
<time>2017-09-17T00:08:30.999Z</time>
</trkpt>
<trkpt lat="-27.4322151" lon="152.4870916">
<ele>77.891</ele>
<time>2017-09-17T00:08:35.999Z</time>
</trkpt>
<trkpt lat="-27.4322151" lon="152.4870916">
<ele>76.920</ele>
<time>2017-09-17T00:09:21.142Z</time>
</trkpt>
<trkpt lat="-27.4322890" lon="152.4872817">
<ele>76.985</ele>
<time>2017-09-17T00:09:27.016Z</time>
</trkpt>
<trkpt lat="-27.4322953" lon="152.4873999">
<ele>76.818</ele>
<time>2017-09-17T00:09:28.656Z</time>
</trkpt>
<trkpt lat="-27.4323270" lon="152.4875849">
<ele>75.504</ele>
<time>2017-09-17T00:09:30.998Z</time>
</trkpt>
<trkpt lat="-27.4323270" lon="152.4875849">
<ele>73.927</ele>
<time>2017-09-17T00:09:35.998Z</time>
</trkpt>
<trkpt lat="-27.4323270" lon="152.4875849">
<ele>73.204</ele>
<time>2017-09-17T00:09:36.098Z</time>
</trkpt>
<trkpt lat="-27.4322063" lon="152.4877416">
<ele>73.265</ele>
<time>2017-09-17T00:09:43.214Z</time>
</trkpt>
<trkpt lat="-27.4319854" lon="152.4877833">
<ele>73.451</ele>
<time>2017-09-17T00:09:45.475Z</time>
</trkpt>
<trkpt lat="-27.4316345" lon="152.4878250">
<ele>73.316</ele>
<time>2017-09-17T00:09:48.192Z</time>
</trkpt>
<trkpt lat="-27.4313400" lon="152.4878881">
<ele>73.228</ele>
<time>2017-09-17T00:09:50.028Z</time>
</trkpt>
<trkpt lat="-27.4308016" lon="152.4879755">
<ele>73.711</ele>
<time>2017-09-17T00:09:52.971Z</time>
</trkpt>
<trkpt lat="-27.4303651" lon="152.4880511">
<ele>74.792</ele>
<time>2017-09-17T00:09:54.953Z</time>
</trkpt>
<trkpt lat="-27.4298869" lon="152.4881484">
<ele>76.230</ele>
<time>2017-09-17T00:09:56.977Z</time>
</trkpt>
<trkpt lat="-27.4291453" lon="152.4882655">
<ele>77.656</ele>
<time>2017-09-17T00:10:00.037Z</time>
</trkpt>
<trkpt lat="-27.4284132" lon="152.4883594">
<ele>78.648</ele>
<time>2017-09-17T00:10:03.053Z</time>
</trkpt>
<trkpt lat="-27.4279385" lon="152.4884328">
<ele>79.070</ele>
<time>2017-09-17T00:10:05.035Z</time>
</trkpt>
<trkpt lat="-27.4272262" lon="152.4885879">
<ele>79.091</ele>
<time>2017-09-17T00:10:08.030Z</time>
</trkpt>
<trkpt lat="-27.4267428" lon="152.4886462">
<ele>78.885</ele>
<time>2017-09-17T00:10:10.026Z</time>
</trkpt>
<trkpt lat="-27.4260093" lon="152.4887536">
<ele>78.563</ele>
<time>2017-09-17T00:10:13.062Z</time>
</trkpt>
<trkpt lat="-27.4252911" lon="152.4889295">
<ele>78.274</ele>
<time>2017-09-17T00:10:16.074Z</time>
</trkpt>
<trkpt lat="-27.4245663" lon="152.4890546">
<ele>78.102</ele>
<time>2017-09-17T00:10:19.064Z</time>
</trkpt>
<trkpt lat="-27.4240781" lon="152.4891295">
<ele>78.028</ele>
<time>2017-09-17T00:10:21.074Z</time>
</trkpt>
<trkpt lat="-27.4233558" lon="152.4892442">
<ele>78.032</ele>
<time>2017-09-17T00:10:24.059Z</time>
</trkpt>
<trkpt lat="-27.4228738" lon="152.4893252">
<ele>78.145</ele>
<time>2017-09-17T00:10:26.053Z</time>
</trkpt>
<trkpt lat="-27.4223953" lon="152.4894225">
<ele>78.406</ele>
<time>2017-09-17T00:10:28.038Z</time>
</trkpt>
<trkpt lat="-27.4216680" lon="152.4895576">
<ele>78.714</ele>
<time>2017-09-17T00:10:31.049Z</time>
</trkpt>
<trkpt lat="-27.4211829" lon="152.4896131">
<ele>78.847</ele>
<time>2017-09-17T00:10:33.042Z</time>
</trkpt>
<trkpt lat="-27.4204399" lon="152.4897164">
<ele>78.749</ele>
<time>2017-09-17T00:10:36.095Z</time>
</trkpt>
<trkpt lat="-27.4199411" lon="152.4897894">
<ele>78.591</ele>
<time>2017-09-17T00:10:38.143Z</time>
</trkpt>
<trkpt lat="-27.4192388" lon="152.4899613">
<ele>78.568</ele>
<time>2017-09-17T00:10:41.078Z</time>
</trkpt>
<trkpt lat="-27.4187605" lon="152.4900331">
<ele>78.686</ele>
<time>2017-09-17T00:10:43.055Z</time>
</trkpt>
<trkpt lat="-27.4182788" lon="152.4901263">
<ele>78.806</ele>
<time>2017-09-17T00:10:45.056Z</time>
</trkpt>
<trkpt lat="-27.4177908" lon="152.4902075">
<ele>78.833</ele>
<time>2017-09-17T00:10:47.078Z</time>
</trkpt>
<trkpt lat="-27.4170757" lon="152.4903134">
<ele>78.816</ele>
<time>2017-09-17T00:10:50.035Z</time>
</trkpt>
<trkpt lat="-27.4165910" lon="152.4903885">
<ele>78.906</ele>
<time>2017-09-17T00:10:52.041Z</time>
</trkpt>
<trkpt lat="-27.4158661" lon="152.4904971">
<ele>79.324</ele>
<time>2017-09-17T00:10:55.040Z</time>
</trkpt>
<trkpt lat="-27.4153955" lon="152.4906356">
<ele>80.185</ele>
<time>2017-09-17T00:10:57.027Z</time>
</trkpt>
<trkpt lat="-27.4146637" lon="152.4907485">
<ele>81.265</ele>
<time>2017-09-17T00:11:00.033Z</time>
</trkpt>
<trkpt lat="-27.4139304" lon="152.4908354">
<ele>82.343</ele>
<time>2017-09-17T00:11:03.028Z</time>
</trkpt>
<trkpt lat="-27.4134489" lon="152.4909009">
<ele>83.312</ele>
<time>2017-09-17T00:11:04.999Z</time>
</trkpt>
<trkpt lat="-27.4129621" lon="152.4909895">
<ele>83.879</ele>
<time>2017-09-17T00:11:06.995Z</time>
</trkpt>
<trkpt lat="-27.4124757" lon="152.4911059">
<ele>83.788</ele>
<time>2017-09-17T00:11:09.005Z</time>
</trkpt>
<trkpt lat="-27.4119932" lon="152.4911914">
<ele>83.130</ele>
<time>2017-09-17T00:11:10.987Z</time>
</trkpt>
<trkpt lat="-27.4112627" lon="152.4912883">
<ele>82.181</ele>
<time>2017-09-17T00:11:13.974Z</time>
</trkpt>
<trkpt lat="-27.4107796" lon="152.4913832">
<ele>81.316</ele>
<time>2017-09-17T00:11:15.973Z</time>
</trkpt>
<trkpt lat="-27.4100528" lon="152.4914679">
<ele>80.804</ele>
<time>2017-09-17T00:11:18.960Z</time>
</trkpt>
<trkpt lat="-27.4095763" lon="152.4915864">
<ele>80.645</ele>
<time>2017-09-17T00:11:20.957Z</time>
</trkpt>
<trkpt lat="-27.4088521" lon="152.4917263">
<ele>80.756</ele>
<time>2017-09-17T00:11:23.961Z</time>
</trkpt>
<trkpt lat="-27.4083679" lon="152.4918125">
<ele>81.172</ele>
<time>2017-09-17T00:11:25.964Z</time>
</trkpt>
<trkpt lat="-27.4078848" lon="152.4918648">
<ele>81.939</ele>
<time>2017-09-17T00:11:27.955Z</time>
</trkpt>
<trkpt lat="-27.4071612" lon="152.4919737">
<ele>82.972</ele>
<time>2017-09-17T00:11:30.960Z</time>
</trkpt>
<trkpt lat="-27.4066869" lon="152.4920633">
<ele>84.081</ele>
<time>2017-09-17T00:11:32.943Z</time>
</trkpt>
<trkpt lat="-27.4062109" lon="152.4921613">
<ele>85.025</ele>
<time>2017-09-17T00:11:34.927Z</time>
</trkpt>
<trkpt lat="-27.4054879" lon="152.4923077">
<ele>85.645</ele>
<time>2017-09-17T00:11:37.931Z</time>
</trkpt>
<trkpt lat="-27.4050073" lon="152.4923995">
<ele>86.048</ele>
<time>2017-09-17T00:11:39.920Z</time>
</trkpt>
<trkpt lat="-27.4045117" lon="152.4924718">
<ele>86.422</ele>
<time>2017-09-17T00:11:41.951Z</time>
</trkpt>
<trkpt lat="-27.4040230" lon="152.4925099">
<ele>86.851</ele>
<time>2017-09-17T00:11:43.948Z</time>
</trkpt>
<trkpt lat="-27.4032945" lon="152.4926403">
<ele>87.519</ele>
<time>2017-09-17T00:11:46.966Z</time>
</trkpt>
<trkpt lat="-27.4025716" lon="152.4927602">
<ele>88.618</ele>
<time>2017-09-17T00:11:49.970Z</time>
</trkpt>
<trkpt lat="-27.4018608" lon="152.4929113">
<ele>89.950</ele>
<time>2017-09-17T00:11:53.076Z</time>
</trkpt>
<trkpt lat="-27.4012189" lon="152.4930049">
<ele>91.022</ele>
<time>2017-09-17T00:11:56.139Z</time>
</trkpt>
<trkpt lat="-27.4008429" lon="152.4930348">
<ele>91.461</ele>
<time>2017-09-17T00:11:58.096Z</time>
</trkpt>
<trkpt lat="-27.4002879" lon="152.4931532">
<ele>91.297</ele>
<time>2017-09-17T00:12:01.058Z</time>
</trkpt>
<trkpt lat="-27.3999137" lon="152.4932156">
<ele>90.889</ele>
<time>2017-09-17T00:12:03.042Z</time>
</trkpt>
<trkpt lat="-27.3995351" lon="152.4932710">
<ele>90.566</ele>
<time>2017-09-17T00:12:05.053Z</time>
</trkpt>
<trkpt lat="-27.3989769" lon="152.4933921">
<ele>90.400</ele>
<time>2017-09-17T00:12:08.072Z</time>
</trkpt>
<trkpt lat="-27.3986087" lon="152.4934488">
<ele>90.332</ele>
<time>2017-09-17T00:12:10.085Z</time>
</trkpt>
<trkpt lat="-27.3982492" lon="152.4934889">
<ele>90.366</ele>
<time>2017-09-17T00:12:12.189Z</time>
</trkpt>
<trkpt lat="-27.3977659" lon="152.4935700">
<ele>90.511</ele>
<time>2017-09-17T00:12:15.313Z</time>
</trkpt>
<trkpt lat="-27.3974869" lon="152.4936135">
<ele>90.626</ele>
<time>2017-09-17T00:12:17.273Z</time>
</trkpt>
<trkpt lat="-27.3970765" lon="152.4937351">
<ele>90.597</ele>
<time>2017-09-17T00:12:20.215Z</time>
</trkpt>
<trkpt lat="-27.3966471" lon="152.4938287">
<ele>90.496</ele>
<time>2017-09-17T00:12:23.206Z</time>
</trkpt>
<trkpt lat="-27.3962274" lon="152.4939687">
<ele>90.555</ele>
<time>2017-09-17T00:12:26.182Z</time>
</trkpt>
<trkpt lat="-27.3958263" lon="152.4941886">
<ele>90.963</ele>
<time>2017-09-17T00:12:29.216Z</time>
</trkpt>
<trkpt lat="-27.3955739" lon="152.4943679">
<ele>91.672</ele>
<time>2017-09-17T00:12:31.248Z</time>
</trkpt>
<trkpt lat="-27.3952274" lon="152.4946588">
<ele>92.494</ele>
<time>2017-09-17T00:12:34.189Z</time>
</trkpt>
<trkpt lat="-27.3948862" lon="152.4949803">
<ele>93.268</ele>
<time>2017-09-17T00:12:37.215Z</time>
</trkpt>
<trkpt lat="-27.3946860" lon="152.4952172">
<ele>93.903</ele>
<time>2017-09-17T00:12:39.201Z</time>
</trkpt>
<trkpt lat="-27.3945178" lon="152.4954840">
<ele>94.421</ele>
<time>2017-09-17T00:12:41.185Z</time>
</trkpt>
<trkpt lat="-27.3942729" lon="152.4958981">
<ele>94.862</ele>
<time>2017-09-17T00:12:44.181Z</time>
</trkpt>
<trkpt lat="-27.3940495" lon="152.4963367">
<ele>95.242</ele>
<time>2017-09-17T00:12:47.199Z</time>
</trkpt>
<trkpt lat="-27.3939432" lon="152.4966553">
<ele>95.619</ele>
<time>2017-09-17T00:12:49.227Z</time>
</trkpt>
<trkpt lat="-27.3938755" lon="152.4969780">
<ele>96.070</ele>
<time>2017-09-17T00:12:51.201Z</time>
</trkpt>
<trkpt lat="-27.3937549" lon="152.4974487">
<ele>96.651</ele>
<time>2017-09-17T00:12:54.103Z</time>
</trkpt>
<trkpt lat="-27.3936824" lon="152.4979494">
<ele>97.388</ele>
<time>2017-09-17T00:12:57.108Z</time>
</trkpt>
<trkpt lat="-27.3936295" lon="152.4984437">
<ele>98.230</ele>
<time>2017-09-17T00:13:00.049Z</time>
</trkpt>
<trkpt lat="-27.3935617" lon="152.4987712">
<ele>98.965</ele>
<time>2017-09-17T00:13:02.014Z</time>
</trkpt>
<trkpt lat="-27.3935121" lon="152.4991519">
<ele>99.333</ele>
<time>2017-09-17T00:13:04.291Z</time>
</trkpt>
<trkpt lat="-27.3933514" lon="152.4996086">
<ele>99.249</ele>
<time>2017-09-17T00:13:07.241Z</time>
</trkpt>
<trkpt lat="-27.3932069" lon="152.4998826">
<ele>98.761</ele>
<time>2017-09-17T00:13:09.163Z</time>
</trkpt>
<trkpt lat="-27.3928918" lon="152.5002345">
<ele>98.014</ele>
<time>2017-09-17T00:13:12.174Z</time>
</trkpt>
<trkpt lat="-27.3925696" lon="152.5005904">
<ele>97.256</ele>
<time>2017-09-17T00:13:15.244Z</time>
</trkpt>
<trkpt lat="-27.3923523" lon="152.5008341">
<ele>96.663</ele>
<time>2017-09-17T00:13:17.318Z</time>
</trkpt>
<trkpt lat="-27.3920598" lon="152.5012107">
<ele>96.294</ele>
<time>2017-09-17T00:13:20.312Z</time>
</trkpt>
<trkpt lat="-27.3918457" lon="152.5014346">
<ele>96.194</ele>
<time>2017-09-17T00:13:22.313Z</time>
</trkpt>
<trkpt lat="-27.3915665" lon="152.5017775">
<ele>96.299</ele>
<time>2017-09-17T00:13:25.193Z</time>
</trkpt>
<trkpt lat="-27.3912640" lon="152.5021308">
<ele>96.452</ele>
<time>2017-09-17T00:13:28.241Z</time>
</trkpt>
<trkpt lat="-27.3910712" lon="152.5023836">
<ele>96.540</ele>
<time>2017-09-17T00:13:30.360Z</time>
</trkpt>
<trkpt lat="-27.3908768" lon="152.5025934">
<ele>96.563</ele>
<time>2017-09-17T00:13:32.423Z</time>
</trkpt>
<trkpt lat="-27.3906750" lon="152.5029112">
<ele>96.545</ele>
<time>2017-09-17T00:13:35.518Z</time>
</trkpt>
<trkpt lat="-27.3905400" lon="152.5030538">
<ele>96.468</ele>
<time>2017-09-17T00:13:37.450Z</time>
</trkpt>
<trkpt lat="-27.3905453" lon="152.5033550">
<ele>96.281</ele>
<time>2017-09-17T00:13:39.994Z</time>
</trkpt>
<trkpt lat="-27.3906357" lon="152.5037676">
<ele>96.024</ele>
<time>2017-09-17T00:13:43.083Z</time>
</trkpt>
<trkpt lat="-27.3906949" lon="152.5040707">
<ele>95.981</ele>
<time>2017-09-17T00:13:45.042Z</time>
</trkpt>
<trkpt lat="-27.3907665" lon="152.5045683">
<ele>96.448</ele>
<time>2017-09-17T00:13:48.141Z</time>
</trkpt>
<trkpt lat="-27.3907984" lon="152.5050495">
<ele>97.413</ele>
<time>2017-09-17T00:13:51.096Z</time>
</trkpt>
<trkpt lat="-27.3908398" lon="152.5053686">
<ele>98.612</ele>
<time>2017-09-17T00:13:53.072Z</time>
</trkpt>
<trkpt lat="-27.3908869" lon="152.5057093">
<ele>99.741</ele>
<time>2017-09-17T00:13:55.164Z</time>
</trkpt>
<trkpt lat="-27.3909212" lon="152.5060225">
<ele>100.585</ele>
<time>2017-09-17T00:13:57.042Z</time>
</trkpt>
<trkpt lat="-27.3910192" lon="152.5065294">
<ele>101.194</ele>
<time>2017-09-17T00:14:00.103Z</time>
</trkpt>
<trkpt lat="-27.3910584" lon="152.5068598">
<ele>101.835</ele>
<time>2017-09-17T00:14:02.076Z</time>
</trkpt>
<trkpt lat="-27.3911118" lon="152.5071765">
<ele>102.619</ele>
<time>2017-09-17T00:14:03.980Z</time>
</trkpt>
<trkpt lat="-27.3912018" lon="152.5076840">
<ele>103.344</ele>
<time>2017-09-17T00:14:06.992Z</time>
</trkpt>
<trkpt lat="-27.3912672" lon="152.5081929">
<ele>103.877</ele>
<time>2017-09-17T00:14:09.853Z</time>
</trkpt>
<trkpt lat="-27.3913026" lon="152.5085907">
<ele>104.394</ele>
<time>2017-09-17T00:14:11.767Z</time>
</trkpt>
<trkpt lat="-27.3914141" lon="152.5092815">
<ele>105.147</ele>
<time>2017-09-17T00:14:14.953Z</time>
</trkpt>
<trkpt lat="-27.3914701" lon="152.5099463">
<ele>106.242</ele>
<time>2017-09-17T00:14:17.968Z</time>
</trkpt>
<trkpt lat="-27.3915297" lon="152.5103703">
<ele>107.468</ele>
<time>2017-09-17T00:14:19.957Z</time>
</trkpt>
<trkpt lat="-27.3916214" lon="152.5107972">
<ele>108.413</ele>
<time>2017-09-17T00:14:21.964Z</time>
</trkpt>
<trkpt lat="-27.3916759" lon="152.5112038">
<ele>108.899</ele>
<time>2017-09-17T00:14:23.816Z</time>
</trkpt>
<trkpt lat="-27.3917477" lon="152.5116809">
<ele>109.050</ele>
<time>2017-09-17T00:14:26.000Z</time>
</trkpt>
<trkpt lat="-27.3918319" lon="152.5122898">
<ele>109.036</ele>
<time>2017-09-17T00:14:28.784Z</time>
</trkpt>
<trkpt lat="-27.3918702" lon="152.5127689">
<ele>108.863</ele>
<time>2017-09-17T00:14:30.937Z</time>
</trkpt>
<trkpt lat="-27.3919598" lon="152.5134200">
<ele>108.390</ele>
<time>2017-09-17T00:14:33.872Z</time>
</trkpt>
<trkpt lat="-27.3920617" lon="152.5141127">
<ele>107.581</ele>
<time>2017-09-17T00:14:37.006Z</time>
</trkpt>
<trkpt lat="-27.3921420" lon="152.5145298">
<ele>106.537</ele>
<time>2017-09-17T00:14:38.917Z</time>
</trkpt>
<trkpt lat="-27.3921856" lon="152.5149627">
<ele>105.450</ele>
<time>2017-09-17T00:14:40.947Z</time>
</trkpt>
<trkpt lat="-27.3922460" lon="152.5153542">
<ele>104.484</ele>
<time>2017-09-17T00:14:43.008Z</time>
</trkpt>
<trkpt lat="-27.3923114" lon="152.5158834">
<ele>103.535</ele>
<time>2017-09-17T00:14:46.009Z</time>
</trkpt>
<trkpt lat="-27.3923223" lon="152.5162015">
<ele>102.346</ele>
<time>2017-09-17T00:14:48.003Z</time>
</trkpt>
<trkpt lat="-27.3923712" lon="152.5165105">
<ele>100.915</ele>
<time>2017-09-17T00:14:50.151Z</time>
</trkpt>
<trkpt lat="-27.3923801" lon="152.5167795">
<ele>99.444</ele>
<time>2017-09-17T00:14:52.354Z</time>
</trkpt>
<trkpt lat="-27.3924304" lon="152.5169784">
<ele>98.034</ele>
<time>2017-09-17T00:14:54.656Z</time>
</trkpt>
<trkpt lat="-27.3924082" lon="152.5170988">
<ele>96.639</ele>
<time>2017-09-17T00:14:56.375Z</time>
</trkpt>
<trkpt lat="-27.3922954" lon="152.5171992">
<ele>95.241</ele>
<time>2017-09-17T00:14:58.204Z</time>
</trkpt>
<trkpt lat="-27.3919649" lon="152.5172257">
<ele>93.890</ele>
<time>2017-09-17T00:15:01.339Z</time>
</trkpt>
<trkpt lat="-27.3916624" lon="152.5172961">
<ele>92.806</ele>
<time>2017-09-17T00:15:03.282Z</time>
</trkpt>
<trkpt lat="-27.3910725" lon="152.5173919">
<ele>92.340</ele>
<time>2017-09-17T00:15:06.424Z</time>
</trkpt>
<trkpt lat="-27.3906189" lon="152.5174854">
<ele>92.768</ele>
<time>2017-09-17T00:15:08.450Z</time>
</trkpt>
<trkpt lat="-27.3898787" lon="152.5176061">
<ele>93.984</ele>
<time>2017-09-17T00:15:11.536Z</time>
</trkpt>
<trkpt lat="-27.3891345" lon="152.5177733">
<ele>95.675</ele>
<time>2017-09-17T00:15:14.574Z</time>
</trkpt>
<trkpt lat="-27.3886577" lon="152.5178456">
<ele>97.582</ele>
<time>2017-09-17T00:15:16.547Z</time>
</trkpt>
<trkpt lat="-27.3879522" lon="152.5179508">
<ele>99.356</ele>
<time>2017-09-17T00:15:19.499Z</time>
</trkpt>
<trkpt lat="-27.3872426" lon="152.5181079">
<ele>100.636</ele>
<time>2017-09-17T00:15:22.508Z</time>
</trkpt>
<trkpt lat="-27.3867727" lon="152.5182106">
<ele>101.443</ele>
<time>2017-09-17T00:15:24.499Z</time>
</trkpt>
<trkpt lat="-27.3860642" lon="152.5183332">
<ele>102.013</ele>
<time>2017-09-17T00:15:27.480Z</time>
</trkpt>
<trkpt lat="-27.3855915" lon="152.5184231">
<ele>102.542</ele>
<time>2017-09-17T00:15:29.466Z</time>
</trkpt>
<trkpt lat="-27.3851116" lon="152.5185168">
<ele>103.059</ele>
<time>2017-09-17T00:15:31.472Z</time>
</trkpt>
<trkpt lat="-27.3843867" lon="152.5186370">
<ele>103.447</ele>
<time>2017-09-17T00:15:34.484Z</time>
</trkpt>
<trkpt lat="-27.3836695" lon="152.5187797">
<ele>103.620</ele>
<time>2017-09-17T00:15:37.478Z</time>
</trkpt>
<trkpt lat="-27.3831951" lon="152.5189003">
<ele>103.637</ele>
<time>2017-09-17T00:15:39.474Z</time>
</trkpt>
<trkpt lat="-27.3827163" lon="152.5189890">
<ele>103.561</ele>
<time>2017-09-17T00:15:41.462Z</time>
</trkpt>
<trkpt lat="-27.3819973" lon="152.5191269">
<ele>103.406</ele>
<time>2017-09-17T00:15:44.445Z</time>
</trkpt>
<trkpt lat="-27.3815128" lon="152.5192482">
<ele>103.090</ele>
<time>2017-09-17T00:15:46.466Z</time>
</trkpt>
<trkpt lat="-27.3810312" lon="152.5193819">
<ele>102.481</ele>
<time>2017-09-17T00:15:48.489Z</time>
</trkpt>
<trkpt lat="-27.3803096" lon="152.5194987">
<ele>101.553</ele>
<time>2017-09-17T00:15:51.478Z</time>
</trkpt>
<trkpt lat="-27.3798373" lon="152.5196035">
<ele>100.375</ele>
<time>2017-09-17T00:15:53.464Z</time>
</trkpt>
<trkpt lat="-27.3793730" lon="152.5197412">
<ele>99.147</ele>
<time>2017-09-17T00:15:55.443Z</time>
</trkpt>
<trkpt lat="-27.3789290" lon="152.5199521">
<ele>98.108</ele>
<time>2017-09-17T00:15:57.435Z</time>
</trkpt>
<trkpt lat="-27.3782989" lon="152.5203410">
<ele>97.285</ele>
<time>2017-09-17T00:16:00.413Z</time>
</trkpt>
<trkpt lat="-27.3778904" lon="152.5206338">
<ele>96.684</ele>
<time>2017-09-17T00:16:02.422Z</time>
</trkpt>
<trkpt lat="-27.3772520" lon="152.5210100">
<ele>96.432</ele>
<time>2017-09-17T00:16:05.405Z</time>
</trkpt>
<trkpt lat="-27.3768345" lon="152.5212847">
<ele>96.707</ele>
<time>2017-09-17T00:16:07.405Z</time>
</trkpt>
<trkpt lat="-27.3762049" lon="152.5216802">
<ele>97.576</ele>
<time>2017-09-17T00:16:10.391Z</time>
</trkpt>
<trkpt lat="-27.3757874" lon="152.5219276">
<ele>98.997</ele>
<time>2017-09-17T00:16:12.402Z</time>
</trkpt>
<trkpt lat="-27.3754129" lon="152.5221759">
<ele>100.796</ele>
<time>2017-09-17T00:16:14.414Z</time>
</trkpt>
<trkpt lat="-27.3749149" lon="152.5225049">
<ele>102.544</ele>
<time>2017-09-17T00:16:17.289Z</time>
</trkpt>
<trkpt lat="-27.3744253" lon="152.5227893">
<ele>103.886</ele>
<time>2017-09-17T00:16:20.223Z</time>
</trkpt>
<trkpt lat="-27.3741120" lon="152.5230152">
<ele>105.001</ele>
<time>2017-09-17T00:16:22.217Z</time>
</trkpt>
<trkpt lat="-27.3737786" lon="152.5232141">
<ele>106.164</ele>
<time>2017-09-17T00:16:24.224Z</time>
</trkpt>
<trkpt lat="-27.3732978" lon="152.5235252">
<ele>107.364</ele>
<time>2017-09-17T00:16:27.203Z</time>
</trkpt>
<trkpt lat="-27.3728274" lon="152.5238114">
<ele>108.491</ele>
<time>2017-09-17T00:16:30.189Z</time>
</trkpt>
<trkpt lat="-27.3724073" lon="152.5240863">
<ele>109.418</ele>
<time>2017-09-17T00:16:33.125Z</time>
</trkpt>
<trkpt lat="-27.3720362" lon="152.5243199">
<ele>109.959</ele>
<time>2017-09-17T00:16:35.971Z</time>
</trkpt>
<trkpt lat="-27.3718170" lon="152.5244875">
<ele>110.017</ele>
<time>2017-09-17T00:16:37.952Z</time>
</trkpt>
<trkpt lat="-27.3714902" lon="152.5246337">
<ele>109.663</ele>
<time>2017-09-17T00:16:40.837Z</time>
</trkpt>
<trkpt lat="-27.3713242" lon="152.5247294">
<ele>109.049</ele>
<time>2017-09-17T00:16:42.700Z</time>
</trkpt>
<trkpt lat="-27.3711410" lon="152.5247919">
<ele>108.349</ele>
<time>2017-09-17T00:16:44.999Z</time>
</trkpt>
<trkpt lat="-27.3711410" lon="152.5247919">
<ele>107.766</ele>
<time>2017-09-17T00:16:49.999Z</time>
</trkpt>
<trkpt lat="-27.3711410" lon="152.5247919">
<ele>107.481</ele>
<time>2017-09-17T00:16:51.944Z</time>
</trkpt>
<trkpt lat="-27.3710944" lon="152.5250759">
<ele>107.467</ele>
<time>2017-09-17T00:16:56.326Z</time>
</trkpt>
<trkpt lat="-27.3712120" lon="152.5254277">
<ele>107.556</ele>
<time>2017-09-17T00:16:59.073Z</time>
</trkpt>
<trkpt lat="-27.3713094" lon="152.5259421">
<ele>107.626</ele>
<time>2017-09-17T00:17:02.156Z</time>
</trkpt>
<trkpt lat="-27.3713972" lon="152.5263185">
<ele>107.854</ele>
<time>2017-09-17T00:17:04.059Z</time>
</trkpt>
<trkpt lat="-27.3714773" lon="152.5267638">
<ele>108.498</ele>
<time>2017-09-17T00:17:06.026Z</time>
</trkpt>
<trkpt lat="-27.3714990" lon="152.5274849">
<ele>109.502</ele>
<time>2017-09-17T00:17:09.009Z</time>
</trkpt>
<trkpt lat="-27.3715362" lon="152.5279976">
<ele>110.634</ele>
<time>2017-09-17T00:17:11.023Z</time>
</trkpt>
<trkpt lat="-27.3715327" lon="152.5287869">
<ele>111.620</ele>
<time>2017-09-17T00:17:14.041Z</time>
</trkpt>
<trkpt lat="-27.3714863" lon="152.5293335">
<ele>112.125</ele>
<time>2017-09-17T00:17:16.070Z</time>
</trkpt>
<trkpt lat="-27.3714701" lon="152.5301639">
<ele>112.029</ele>
<time>2017-09-17T00:17:19.130Z</time>
</trkpt>
<trkpt lat="-27.3714371" lon="152.5307043">
<ele>111.433</ele>
<time>2017-09-17T00:17:21.133Z</time>
</trkpt>
<trkpt lat="-27.3714161" lon="152.5312470">
<ele>110.595</ele>
<time>2017-09-17T00:17:23.149Z</time>
</trkpt>
<trkpt lat="-27.3713699" lon="152.5320540">
<ele>109.893</ele>
<time>2017-09-17T00:17:26.146Z</time>
</trkpt>
<trkpt lat="-27.3712946" lon="152.5328815">
<ele>109.620</ele>
<time>2017-09-17T00:17:29.213Z</time>
</trkpt>
<trkpt lat="-27.3712694" lon="152.5337036">
<ele>109.827</ele>
<time>2017-09-17T00:17:32.236Z</time>
</trkpt>
<trkpt lat="-27.3712254" lon="152.5342315">
<ele>110.333</ele>
<time>2017-09-17T00:17:34.185Z</time>
</trkpt>
<trkpt lat="-27.3711872" lon="152.5350435">
<ele>111.029</ele>
<time>2017-09-17T00:17:37.173Z</time>
</trkpt>
<trkpt lat="-27.3711619" lon="152.5355895">
<ele>112.155</ele>
<time>2017-09-17T00:17:39.182Z</time>
</trkpt>
<trkpt lat="-27.3711426" lon="152.5361286">
<ele>113.760</ele>
<time>2017-09-17T00:17:41.168Z</time>
</trkpt>
<trkpt lat="-27.3711058" lon="152.5366724">
<ele>115.452</ele>
<time>2017-09-17T00:17:43.179Z</time>
</trkpt>
<trkpt lat="-27.3710870" lon="152.5374887">
<ele>116.954</ele>
<time>2017-09-17T00:17:46.185Z</time>
</trkpt>
<trkpt lat="-27.3710401" lon="152.5380309">
<ele>118.401</ele>
<time>2017-09-17T00:17:48.175Z</time>
</trkpt>
<trkpt lat="-27.3710162" lon="152.5385767">
<ele>120.066</ele>
<time>2017-09-17T00:17:50.159Z</time>
</trkpt>
<trkpt lat="-27.3709911" lon="152.5391288">
<ele>122.071</ele>
<time>2017-09-17T00:17:52.157Z</time>
</trkpt>
<trkpt lat="-27.3709640" lon="152.5399550">
<ele>124.323</ele>
<time>2017-09-17T00:17:55.141Z</time>
</trkpt>
<trkpt lat="-27.3709506" lon="152.5405100">
<ele>126.567</ele>
<time>2017-09-17T00:17:57.140Z</time>
</trkpt>
<trkpt lat="-27.3709205" lon="152.5410640">
<ele>128.475</ele>
<time>2017-09-17T00:17:59.133Z</time>
</trkpt>
<trkpt lat="-27.3708965" lon="152.5418962">
<ele>129.927</ele>
<time>2017-09-17T00:18:02.116Z</time>
</trkpt>
<trkpt lat="-27.3708497" lon="152.5427283">
<ele>131.046</ele>
<time>2017-09-17T00:18:05.089Z</time>
</trkpt>
<trkpt lat="-27.3708729" lon="152.5432859">
<ele>131.935</ele>
<time>2017-09-17T00:18:07.086Z</time>
</trkpt>
<trkpt lat="-27.3709432" lon="152.5438290">
<ele>132.608</ele>
<time>2017-09-17T00:18:09.063Z</time>
</trkpt>
<trkpt lat="-27.3711066" lon="152.5446227">
<ele>133.110</ele>
<time>2017-09-17T00:18:11.997Z</time>
</trkpt>
<trkpt lat="-27.3712623" lon="152.5454352">
<ele>133.561</ele>
<time>2017-09-17T00:18:14.983Z</time>
</trkpt>
<trkpt lat="-27.3713909" lon="152.5459682">
<ele>134.092</ele>
<time>2017-09-17T00:18:16.967Z</time>
</trkpt>
<trkpt lat="-27.3715577" lon="152.5464859">
<ele>134.726</ele>
<time>2017-09-17T00:18:18.950Z</time>
</trkpt>
<trkpt lat="-27.3718277" lon="152.5472602">
<ele>135.357</ele>
<time>2017-09-17T00:18:21.953Z</time>
</trkpt>
<trkpt lat="-27.3719715" lon="152.5477856">
<ele>135.883</ele>
<time>2017-09-17T00:18:23.969Z</time>
</trkpt>
<trkpt lat="-27.3722184" lon="152.5485288">
<ele>136.232</ele>
<time>2017-09-17T00:18:26.896Z</time>
</trkpt>
<trkpt lat="-27.3723777" lon="152.5490401">
<ele>136.241</ele>
<time>2017-09-17T00:18:28.894Z</time>
</trkpt>
<trkpt lat="-27.3725843" lon="152.5495296">
<ele>135.754</ele>
<time>2017-09-17T00:18:30.894Z</time>
</trkpt>
<trkpt lat="-27.3727394" lon="152.5500417">
<ele>134.885</ele>
<time>2017-09-17T00:18:32.895Z</time>
</trkpt>
<trkpt lat="-27.3729189" lon="152.5505426">
<ele>133.957</ele>
<time>2017-09-17T00:18:34.886Z</time>
</trkpt>
<trkpt lat="-27.3731665" lon="152.5513044">
<ele>133.143</ele>
<time>2017-09-17T00:18:37.865Z</time>
</trkpt>
<trkpt lat="-27.3733619" lon="152.5518019">
<ele>132.490</ele>
<time>2017-09-17T00:18:39.857Z</time>
</trkpt>
<trkpt lat="-27.3735483" lon="152.5523014">
<ele>132.019</ele>
<time>2017-09-17T00:18:41.844Z</time>
</trkpt>
<trkpt lat="-27.3739198" lon="152.5530130">
<ele>131.672</ele>
<time>2017-09-17T00:18:44.870Z</time>
</trkpt>
<trkpt lat="-27.3743622" lon="152.5536592">
<ele>131.407</ele>
<time>2017-09-17T00:18:47.867Z</time>
</trkpt>
<trkpt lat="-27.3748052" lon="152.5543099">
<ele>131.252</ele>
<time>2017-09-17T00:18:50.896Z</time>
</trkpt>
<trkpt lat="-27.3751126" lon="152.5547195">
<ele>131.238</ele>
<time>2017-09-17T00:18:52.868Z</time>
</trkpt>
<trkpt lat="-27.3756031" lon="152.5553343">
<ele>131.335</ele>
<time>2017-09-17T00:18:55.895Z</time>
</trkpt>
<trkpt lat="-27.3759435" lon="152.5557175">
<ele>131.425</ele>
<time>2017-09-17T00:18:57.874Z</time>
</trkpt>
<trkpt lat="-27.3763266" lon="152.5560551">
<ele>131.406</ele>
<time>2017-09-17T00:18:59.868Z</time>
</trkpt>
<trkpt lat="-27.3766783" lon="152.5564355">
<ele>131.290</ele>
<time>2017-09-17T00:19:01.867Z</time>
</trkpt>
<trkpt lat="-27.3772296" lon="152.5569778">
<ele>131.092</ele>
<time>2017-09-17T00:19:04.878Z</time>
</trkpt>
<trkpt lat="-27.3775891" lon="152.5573368">
<ele>130.651</ele>
<time>2017-09-17T00:19:06.857Z</time>
</trkpt>
<trkpt lat="-27.3781093" lon="152.5579115">
<ele>129.851</ele>
<time>2017-09-17T00:19:09.851Z</time>
</trkpt>
<trkpt lat="-27.3784550" lon="152.5583008">
<ele>128.657</ele>
<time>2017-09-17T00:19:11.860Z</time>
</trkpt>
<trkpt lat="-27.3790003" lon="152.5588421">
<ele>127.187</ele>
<time>2017-09-17T00:19:14.859Z</time>
</trkpt>
<trkpt lat="-27.3794977" lon="152.5594316">
<ele>125.928</ele>
<time>2017-09-17T00:19:17.849Z</time>
</trkpt>
<trkpt lat="-27.3798340" lon="152.5598177">
<ele>125.416</ele>
<time>2017-09-17T00:19:19.842Z</time>
</trkpt>
<trkpt lat="-27.3801614" lon="152.5602149">
<ele>125.735</ele>
<time>2017-09-17T00:19:21.836Z</time>
</trkpt>
<trkpt lat="-27.3804886" lon="152.5606140">
<ele>126.582</ele>
<time>2017-09-17T00:19:23.819Z</time>
</trkpt>
<trkpt lat="-27.3808166" lon="152.5610214">
<ele>127.487</ele>
<time>2017-09-17T00:19:25.825Z</time>
</trkpt>
<trkpt lat="-27.3811042" lon="152.5614607">
<ele>128.198</ele>
<time>2017-09-17T00:19:27.828Z</time>
</trkpt>
<trkpt lat="-27.3814129" lon="152.5618666">
<ele>128.847</ele>
<time>2017-09-17T00:19:29.794Z</time>
</trkpt>
<trkpt lat="-27.3817414" lon="152.5622678">
<ele>129.662</ele>
<time>2017-09-17T00:19:31.801Z</time>
</trkpt>
<trkpt lat="-27.3821653" lon="152.5629338">
<ele>130.605</ele>
<time>2017-09-17T00:19:34.810Z</time>
</trkpt>
<trkpt lat="-27.3826530" lon="152.5635307">
<ele>131.569</ele>
<time>2017-09-17T00:19:37.778Z</time>
</trkpt>
<trkpt lat="-27.3829478" lon="152.5639632">
<ele>132.624</ele>
<time>2017-09-17T00:19:39.767Z</time>
</trkpt>
<trkpt lat="-27.3832571" lon="152.5643879">
<ele>133.729</ele>
<time>2017-09-17T00:19:41.765Z</time>
</trkpt>
<trkpt lat="-27.3835554" lon="152.5648217">
<ele>134.662</ele>
<time>2017-09-17T00:19:43.762Z</time>
</trkpt>
<trkpt lat="-27.3838785" lon="152.5652191">
<ele>135.363</ele>
<time>2017-09-17T00:19:45.728Z</time>
</trkpt>
<trkpt lat="-27.3841503" lon="152.5656757">
<ele>135.951</ele>
<time>2017-09-17T00:19:47.736Z</time>
</trkpt>
<trkpt lat="-27.3844357" lon="152.5661152">
<ele>136.495</ele>
<time>2017-09-17T00:19:49.728Z</time>
</trkpt>
<trkpt lat="-27.3849116" lon="152.5667278">
<ele>137.004</ele>
<time>2017-09-17T00:19:52.718Z</time>
</trkpt>
<trkpt lat="-27.3852012" lon="152.5671540">
<ele>137.560</ele>
<time>2017-09-17T00:19:54.693Z</time>
</trkpt>
<trkpt lat="-27.3854990" lon="152.5675793">
<ele>138.221</ele>
<time>2017-09-17T00:19:56.676Z</time>
</trkpt>
<trkpt lat="-27.3858052" lon="152.5679984">
<ele>138.935</ele>
<time>2017-09-17T00:19:58.655Z</time>
</trkpt>
<trkpt lat="-27.3862739" lon="152.5686336">
<ele>139.649</ele>
<time>2017-09-17T00:20:01.666Z</time>
</trkpt>
<trkpt lat="-27.3866377" lon="152.5693405">
<ele>140.538</ele>
<time>2017-09-17T00:20:04.652Z</time>
</trkpt>
<trkpt lat="-27.3869688" lon="152.5700676">
<ele>141.862</ele>
<time>2017-09-17T00:20:07.641Z</time>
</trkpt>
<trkpt lat="-27.3871527" lon="152.5705713">
<ele>143.597</ele>
<time>2017-09-17T00:20:09.627Z</time>
</trkpt>
<trkpt lat="-27.3873840" lon="152.5713453">
<ele>145.388</ele>
<time>2017-09-17T00:20:12.601Z</time>
</trkpt>
<trkpt lat="-27.3875137" lon="152.5718749">
<ele>146.992</ele>
<time>2017-09-17T00:20:14.599Z</time>
</trkpt>
<trkpt lat="-27.3876445" lon="152.5726789">
<ele>148.406</ele>
<time>2017-09-17T00:20:17.569Z</time>
</trkpt>
<trkpt lat="-27.3877123" lon="152.5734983">
<ele>149.688</ele>
<time>2017-09-17T00:20:20.557Z</time>
</trkpt>
<trkpt lat="-27.3877250" lon="152.5740449">
<ele>150.759</ele>
<time>2017-09-17T00:20:22.543Z</time>
</trkpt>
<trkpt lat="-27.3877406" lon="152.5745914">
<ele>151.433</ele>
<time>2017-09-17T00:20:24.527Z</time>
</trkpt>
<trkpt lat="-27.3877439" lon="152.5754196">
<ele>151.591</ele>
<time>2017-09-17T00:20:27.523Z</time>
</trkpt>
<trkpt lat="-27.3877642" lon="152.5762377">
<ele>151.118</ele>
<time>2017-09-17T00:20:30.486Z</time>
</trkpt>
<trkpt lat="-27.3877573" lon="152.5767844">
<ele>149.831</ele>
<time>2017-09-17T00:20:32.486Z</time>
</trkpt>
<trkpt lat="-27.3877678" lon="152.5775920">
<ele>147.896</ele>
<time>2017-09-17T00:20:35.456Z</time>
</trkpt>
<trkpt lat="-27.3877509" lon="152.5781392">
<ele>145.657</ele>
<time>2017-09-17T00:20:37.482Z</time>
</trkpt>
<trkpt lat="-27.3877678" lon="152.5786714">
<ele>143.287</ele>
<time>2017-09-17T00:20:39.462Z</time>
</trkpt>
<trkpt lat="-27.3877776" lon="152.5794913">
<ele>141.013</ele>
<time>2017-09-17T00:20:42.493Z</time>
</trkpt>
<trkpt lat="-27.3877996" lon="152.5803194">
<ele>139.109</ele>
<time>2017-09-17T00:20:45.507Z</time>
</trkpt>
<trkpt lat="-27.3877907" lon="152.5808718">
<ele>137.515</ele>
<time>2017-09-17T00:20:47.503Z</time>
</trkpt>
<trkpt lat="-27.3877780" lon="152.5816976">
<ele>136.034</ele>
<time>2017-09-17T00:20:50.506Z</time>
</trkpt>
<trkpt lat="-27.3878379" lon="152.5825037">
<ele>134.632</ele>
<time>2017-09-17T00:20:53.484Z</time>
</trkpt>
<trkpt lat="-27.3878951" lon="152.5830396">
<ele>133.423</ele>
<time>2017-09-17T00:20:55.469Z</time>
</trkpt>
<trkpt lat="-27.3880089" lon="152.5838551">
<ele>132.576</ele>
<time>2017-09-17T00:20:58.475Z</time>
</trkpt>
<trkpt lat="-27.3880906" lon="152.5843938">
<ele>132.077</ele>
<time>2017-09-17T00:21:00.461Z</time>
</trkpt>
<trkpt lat="-27.3881997" lon="152.5849162">
<ele>131.665</ele>
<time>2017-09-17T00:21:02.418Z</time>
</trkpt>
<trkpt lat="-27.3883927" lon="152.5857009">
<ele>131.190</ele>
<time>2017-09-17T00:21:05.384Z</time>
</trkpt>
<trkpt lat="-27.3886084" lon="152.5864843">
<ele>130.652</ele>
<time>2017-09-17T00:21:08.367Z</time>
</trkpt>
<trkpt lat="-27.3888156" lon="152.5872710">
<ele>130.043</ele>
<time>2017-09-17T00:21:11.362Z</time>
</trkpt>
<trkpt lat="-27.3890826" lon="152.5880301">
<ele>129.282</ele>
<time>2017-09-17T00:21:14.350Z</time>
</trkpt>
<trkpt lat="-27.3892624" lon="152.5885323">
<ele>128.237</ele>
<time>2017-09-17T00:21:16.323Z</time>
</trkpt>
<trkpt lat="-27.3895723" lon="152.5892797">
<ele>126.928</ele>
<time>2017-09-17T00:21:19.324Z</time>
</trkpt>
<trkpt lat="-27.3897557" lon="152.5897860">
<ele>125.475</ele>
<time>2017-09-17T00:21:21.322Z</time>
</trkpt>
<trkpt lat="-27.3900260" lon="152.5905354">
<ele>123.987</ele>
<time>2017-09-17T00:21:24.287Z</time>
</trkpt>
<trkpt lat="-27.3902936" lon="152.5912909">
<ele>122.497</ele>
<time>2017-09-17T00:21:27.269Z</time>
</trkpt>
<trkpt lat="-27.3905466" lon="152.5920589">
<ele>120.941</ele>
<time>2017-09-17T00:21:30.293Z</time>
</trkpt>
<trkpt lat="-27.3906868" lon="152.5925432">
<ele>119.348</ele>
<time>2017-09-17T00:21:32.262Z</time>
</trkpt>
<trkpt lat="-27.3908274" lon="152.5929982">
<ele>117.776</ele>
<time>2017-09-17T00:21:34.247Z</time>
</trkpt>
<trkpt lat="-27.3910118" lon="152.5936424">
<ele>116.089</ele>
<time>2017-09-17T00:21:37.186Z</time>
</trkpt>
<trkpt lat="-27.3911137" lon="152.5940533">
<ele>114.066</ele>
<time>2017-09-17T00:21:39.204Z</time>
</trkpt>
<trkpt lat="-27.3912314" lon="152.5946192">
<ele>111.665</ele>
<time>2017-09-17T00:21:42.244Z</time>
</trkpt>
<trkpt lat="-27.3912971" lon="152.5948889">
<ele>108.938</ele>
<time>2017-09-17T00:21:44.087Z</time>
</trkpt>
<trkpt lat="-27.3913676" lon="152.5951121">
<ele>105.928</ele>
<time>2017-09-17T00:21:45.852Z</time>
</trkpt>
<trkpt lat="-27.3914431" lon="152.5953866">
<ele>102.945</ele>
<time>2017-09-17T00:21:47.913Z</time>
</trkpt>
<trkpt lat="-27.3915540" lon="152.5958754">
<ele>100.620</ele>
<time>2017-09-17T00:21:51.120Z</time>
</trkpt>
<trkpt lat="-27.3916049" lon="152.5962107">
<ele>99.301</ele>
<time>2017-09-17T00:21:53.119Z</time>
</trkpt>
<trkpt lat="-27.3916549" lon="152.5965523">
<ele>98.842</ele>
<time>2017-09-17T00:21:55.103Z</time>
</trkpt>
<trkpt lat="-27.3917900" lon="152.5970724">
<ele>98.829</ele>
<time>2017-09-17T00:21:58.085Z</time>
</trkpt>
<trkpt lat="-27.3918821" lon="152.5974573">
<ele>98.936</ele>
<time>2017-09-17T00:22:00.106Z</time>
</trkpt>
<trkpt lat="-27.3919532" lon="152.5978743">
<ele>99.026</ele>
<time>2017-09-17T00:22:02.129Z</time>
</trkpt>
<trkpt lat="-27.3920300" lon="152.5983039">
<ele>99.164</ele>
<time>2017-09-17T00:22:04.132Z</time>
</trkpt>
<trkpt lat="-27.3920943" lon="152.5989796">
<ele>99.414</ele>
<time>2017-09-17T00:22:07.184Z</time>
</trkpt>
<trkpt lat="-27.3921772" lon="152.5994172">
<ele>99.675</ele>
<time>2017-09-17T00:22:09.185Z</time>
</trkpt>
<trkpt lat="-27.3922689" lon="152.6000778">
<ele>99.840</ele>
<time>2017-09-17T00:22:12.183Z</time>
</trkpt>
<trkpt lat="-27.3923649" lon="152.6007331">
<ele>99.924</ele>
<time>2017-09-17T00:22:15.161Z</time>
</trkpt>
<trkpt lat="-27.3924707" lon="152.6013911">
<ele>99.909</ele>
<time>2017-09-17T00:22:18.153Z</time>
</trkpt>
<trkpt lat="-27.3925435" lon="152.6018283">
<ele>99.782</ele>
<time>2017-09-17T00:22:20.147Z</time>
</trkpt>
<trkpt lat="-27.3926027" lon="152.6022669">
<ele>99.621</ele>
<time>2017-09-17T00:22:22.138Z</time>
</trkpt>
<trkpt lat="-27.3927348" lon="152.6029207">
<ele>99.541</ele>
<time>2017-09-17T00:22:25.147Z</time>
</trkpt>
<trkpt lat="-27.3927904" lon="152.6033584">
<ele>99.583</ele>
<time>2017-09-17T00:22:27.131Z</time>
</trkpt>
<trkpt lat="-27.3928518" lon="152.6037959">
<ele>99.699</ele>
<time>2017-09-17T00:22:29.120Z</time>
</trkpt>
<trkpt lat="-27.3929399" lon="152.6044561">
<ele>99.812</ele>
<time>2017-09-17T00:22:32.118Z</time>
</trkpt>
<trkpt lat="-27.3930531" lon="152.6051155">
<ele>99.918</ele>
<time>2017-09-17T00:22:35.128Z</time>
</trkpt>
<trkpt lat="-27.3931456" lon="152.6055486">
<ele>100.038</ele>
<time>2017-09-17T00:22:37.112Z</time>
</trkpt>
<trkpt lat="-27.3932529" lon="152.6059746">
<ele>100.139</ele>
<time>2017-09-17T00:22:39.082Z</time>
</trkpt>
<trkpt lat="-27.3933893" lon="152.6063926">
<ele>100.189</ele>
<time>2017-09-17T00:22:41.068Z</time>
</trkpt>
<trkpt lat="-27.3935912" lon="152.6070180">
<ele>100.215</ele>
<time>2017-09-17T00:22:44.042Z</time>
</trkpt>
<trkpt lat="-27.3937505" lon="152.6074231">
<ele>100.251</ele>
<time>2017-09-17T00:22:46.027Z</time>
</trkpt>
<trkpt lat="-27.3939983" lon="152.6080227">
<ele>100.304</ele>
<time>2017-09-17T00:22:49.000Z</time>
</trkpt>
<trkpt lat="-27.3941700" lon="152.6084191">
<ele>100.377</ele>
<time>2017-09-17T00:22:50.978Z</time>
</trkpt>
<trkpt lat="-27.3944232" lon="152.6090354">
<ele>100.462</ele>
<time>2017-09-17T00:22:54.012Z</time>
</trkpt>
<trkpt lat="-27.3945577" lon="152.6094431">
<ele>100.485</ele>
<time>2017-09-17T00:22:55.960Z</time>
</trkpt>
<trkpt lat="-27.3947881" lon="152.6100605">
<ele>100.414</ele>
<time>2017-09-17T00:22:58.969Z</time>
</trkpt>
<trkpt lat="-27.3949576" lon="152.6104507">
<ele>100.355</ele>
<time>2017-09-17T00:23:00.919Z</time>
</trkpt>
<trkpt lat="-27.3952092" lon="152.6110640">
<ele>100.398</ele>
<time>2017-09-17T00:23:03.944Z</time>
</trkpt>
<trkpt lat="-27.3953636" lon="152.6114689">
<ele>100.483</ele>
<time>2017-09-17T00:23:05.911Z</time>
</trkpt>
<trkpt lat="-27.3956212" lon="152.6120643">
<ele>100.519</ele>
<time>2017-09-17T00:23:08.870Z</time>
</trkpt>
<trkpt lat="-27.3957764" lon="152.6124735">
<ele>100.485</ele>
<time>2017-09-17T00:23:10.860Z</time>
</trkpt>
<trkpt lat="-27.3959493" lon="152.6128701">
<ele>100.411</ele>
<time>2017-09-17T00:23:12.835Z</time>
</trkpt>
<trkpt lat="-27.3960964" lon="152.6132868">
<ele>100.357</ele>
<time>2017-09-17T00:23:14.842Z</time>
</trkpt>
<trkpt lat="-27.3963506" lon="152.6138832">
<ele>100.347</ele>
<time>2017-09-17T00:23:17.807Z</time>
</trkpt>
<trkpt lat="-27.3965844" lon="152.6144959">
<ele>100.365</ele>
<time>2017-09-17T00:23:20.796Z</time>
</trkpt>
<trkpt lat="-27.3967824" lon="152.6148836">
<ele>100.415</ele>
<time>2017-09-17T00:23:22.797Z</time>
</trkpt>
<trkpt lat="-27.3969734" lon="152.6152716">
<ele>100.500</ele>
<time>2017-09-17T00:23:24.780Z</time>
</trkpt>
<trkpt lat="-27.3972695" lon="152.6158499">
<ele>100.578</ele>
<time>2017-09-17T00:23:27.770Z</time>
</trkpt>
<trkpt lat="-27.3976073" lon="152.6163914">
<ele>100.596</ele>
<time>2017-09-17T00:23:30.746Z</time>
</trkpt>
<trkpt lat="-27.3980115" lon="152.6168802">
<ele>100.552</ele>
<time>2017-09-17T00:23:33.765Z</time>
</trkpt>
<trkpt lat="-27.3982649" lon="152.6171987">
<ele>100.497</ele>
<time>2017-09-17T00:23:35.763Z</time>
</trkpt>
<trkpt lat="-27.3984997" lon="152.6174727">
<ele>100.431</ele>
<time>2017-09-17T00:23:37.662Z</time>
</trkpt>
<trkpt lat="-27.3987190" lon="152.6177148">
<ele>100.185</ele>
<time>2017-09-17T00:23:39.558Z</time>
</trkpt>
<trkpt lat="-27.3990135" lon="152.6180187">
<ele>99.547</ele>
<time>2017-09-17T00:23:42.316Z</time>
</trkpt>
<trkpt lat="-27.3992560" lon="152.6182475">
<ele>98.488</ele>
<time>2017-09-17T00:23:44.923Z</time>
</trkpt>
<trkpt lat="-27.3994589" lon="152.6184074">
<ele>97.140</ele>
<time>2017-09-17T00:23:47.449Z</time>
</trkpt>
<trkpt lat="-27.3995117" lon="152.6185114">
<ele>95.679</ele>
<time>2017-09-17T00:23:48.712Z</time>
</trkpt>
<trkpt lat="-27.3994365" lon="152.6186706">
<ele>94.255</ele>
<time>2017-09-17T00:23:51.136Z</time>
</trkpt>
<trkpt lat="-27.3993210" lon="152.6187757">
<ele>92.865</ele>
<time>2017-09-17T00:23:53.821Z</time>
</trkpt>
<trkpt lat="-27.3992445" lon="152.6188667">
<ele>91.467</ele>
<time>2017-09-17T00:23:55.991Z</time>
</trkpt>
<trkpt lat="-27.3992020" lon="152.6189626">
<ele>90.206</ele>
<time>2017-09-17T00:23:58.204Z</time>
</trkpt>
<trkpt lat="-27.3991664" lon="152.6190620">
<ele>89.307</ele>
<time>2017-09-17T00:24:00.754Z</time>
</trkpt>
<trkpt lat="-27.3991112" lon="152.6191927">
<ele>88.837</ele>
<time>2017-09-17T00:24:04.167Z</time>
</trkpt>
<trkpt lat="-27.3990644" lon="152.6193560">
<ele>88.699</ele>
<time>2017-09-17T00:24:06.910Z</time>
</trkpt>
<trkpt lat="-27.3991606" lon="152.6195699">
<ele>88.727</ele>
<time>2017-09-17T00:24:10.198Z</time>
</trkpt>
<trkpt lat="-27.3992625" lon="152.6196858">
<ele>88.785</ele>
<time>2017-09-17T00:24:12.312Z</time>
</trkpt>
<trkpt lat="-27.3994614" lon="152.6198252">
<ele>88.809</ele>
<time>2017-09-17T00:24:15.597Z</time>
</trkpt>
<trkpt lat="-27.3995559" lon="152.6199504">
<ele>88.791</ele>
<time>2017-09-17T00:24:17.570Z</time>
</trkpt>
<trkpt lat="-27.3997370" lon="152.6201183">
<ele>88.750</ele>
<time>2017-09-17T00:24:20.660Z</time>
</trkpt>
<trkpt lat="-27.3998267" lon="152.6202449">
<ele>88.673</ele>
<time>2017-09-17T00:24:22.602Z</time>
</trkpt>
<trkpt lat="-27.3999209" lon="152.6203471">
<ele>88.526</ele>
<time>2017-09-17T00:24:24.494Z</time>
</trkpt>
<trkpt lat="-27.3999156" lon="152.6205225">
<ele>88.293</ele>
<time>2017-09-17T00:24:27.081Z</time>
</trkpt>
<trkpt lat="-27.3998984" lon="152.6207201">
<ele>87.969</ele>
<time>2017-09-17T00:24:30.273Z</time>
</trkpt>
<trkpt lat="-27.3998142" lon="152.6208281">
<ele>87.634</ele>
<time>2017-09-17T00:24:32.538Z</time>
</trkpt>
<trkpt lat="-27.3996666" lon="152.6210121">
<ele>87.431</ele>
<time>2017-09-17T00:24:36.186Z</time>
</trkpt>
<trkpt lat="-27.3995569" lon="152.6211787">
<ele>87.474</ele>
<time>2017-09-17T00:24:39.160Z</time>
</trkpt>
<trkpt lat="-27.3995192" lon="152.6213184">
<ele>87.850</ele>
<time>2017-09-17T00:24:41.320Z</time>
</trkpt>
<trkpt lat="-27.3995113" lon="152.6214874">
<ele>88.549</ele>
<time>2017-09-17T00:24:43.992Z</time>
</trkpt>
<trkpt lat="-27.3995848" lon="152.6215674">
<ele>89.431</ele>
<time>2017-09-17T00:24:46.015Z</time>
</trkpt>
<trkpt lat="-27.3996122" lon="152.6216897">
<ele>90.322</ele>
<time>2017-09-17T00:24:48.541Z</time>
</trkpt>
<trkpt lat="-27.3996902" lon="152.6217959">
<ele>91.079</ele>
<time>2017-09-17T00:24:51.523Z</time>
</trkpt>
<trkpt lat="-27.3997375" lon="152.6218940">
<ele>91.677</ele>
<time>2017-09-17T00:24:54.306Z</time>
</trkpt>
<trkpt lat="-27.3998497" lon="152.6219040">
<ele>92.157</ele>
<time>2017-09-17T00:24:58.269Z</time>
</trkpt>
<trkpt lat="-27.3999581" lon="152.6218985">
<ele>92.518</ele>
<time>2017-09-17T00:25:02.588Z</time>
</trkpt>
<trkpt lat="-27.4000662" lon="152.6218645">
<ele>92.787</ele>
<time>2017-09-17T00:25:07.650Z</time>
</trkpt>
<trkpt lat="-27.4000457" lon="152.6217576">
<ele>93.034</ele>
<time>2017-09-17T00:25:12.296Z</time>
</trkpt>
<trkpt lat="-27.4000379" lon="152.6216430">
<ele>93.263</ele>
<time>2017-09-17T00:25:16.999Z</time>
</trkpt>
<trkpt lat="-27.4000379" lon="152.6216430">
<ele>93.408</ele>
<time>2017-09-17T00:25:21.999Z</time>
</trkpt>
<trkpt lat="-27.4000379" lon="152.6216430">
<ele>93.436</ele>
<time>2017-09-17T00:46:08.644Z</time>
</trkpt>
<trkpt lat="-27.4002596" lon="152.6215534">
<ele>93.387</ele>
<time>2017-09-17T00:50:25.999Z</time>
</trkpt>
<trkpt lat="-27.4002596" lon="152.6215534">
<ele>93.327</ele>
<time>2017-09-17T00:50:28.999Z</time>
</trkpt>
<trkpt lat="-27.4002596" lon="152.6215534">
<ele>93.293</ele>
<time>2017-09-17T00:58:11.979Z</time>
</trkpt>
<trkpt lat="-27.4000899" lon="152.6216438">
<ele>93.279</ele>
<time>2017-09-17T00:58:41.321Z</time>
</trkpt>
<trkpt lat="-27.4000463" lon="152.6217464">
<ele>93.794</ele>
<time>2017-09-17T00:58:47.588Z</time>
</trkpt>
<trkpt lat="-27.4000737" lon="152.6218522">
<ele>95.217</ele>
<time>2017-09-17T00:58:53.207Z</time>
</trkpt>
<trkpt lat="-27.4001606" lon="152.6219130">
<ele>96.844</ele>
<time>2017-09-17T00:58:58.218Z</time>
</trkpt>
<trkpt lat="-27.4002566" lon="152.6219071">
<ele>97.894</ele>
<time>2017-09-17T00:59:02.033Z</time>
</trkpt>
<trkpt lat="-27.4003573" lon="152.6219077">
<ele>98.439</ele>
<time>2017-09-17T00:59:05.374Z</time>
</trkpt>
<trkpt lat="-27.4004579" lon="152.6219145">
<ele>98.767</ele>
<time>2017-09-17T00:59:08.424Z</time>
</trkpt>
<trkpt lat="-27.4005605" lon="152.6218948">
<ele>99.042</ele>
<time>2017-09-17T00:59:11.262Z</time>
</trkpt>
<trkpt lat="-27.4006756" lon="152.6218784">
<ele>99.277</ele>
<time>2017-09-17T00:59:14.177Z</time>
</trkpt>
<trkpt lat="-27.4007892" lon="152.6218617">
<ele>99.461</ele>
<time>2017-09-17T00:59:16.979Z</time>
</trkpt>
<trkpt lat="-27.4009042" lon="152.6218366">
<ele>99.610</ele>
<time>2017-09-17T00:59:19.859Z</time>
</trkpt>
<trkpt lat="-27.4010139" lon="152.6218476">
<ele>99.721</ele>
<time>2017-09-17T00:59:22.688Z</time>
</trkpt>
<trkpt lat="-27.4011511" lon="152.6218959">
<ele>99.788</ele>
<time>2017-09-17T00:59:26.464Z</time>
</trkpt>
<trkpt lat="-27.4012239" lon="152.6218051">
<ele>99.826</ele>
<time>2017-09-17T00:59:29.370Z</time>
</trkpt>
<trkpt lat="-27.4012456" lon="152.6216784">
<ele>99.856</ele>
<time>2017-09-17T00:59:32.473Z</time>
</trkpt>
<trkpt lat="-27.4012240" lon="152.6215478">
<ele>99.878</ele>
<time>2017-09-17T00:59:35.458Z</time>
</trkpt>
<trkpt lat="-27.4012087" lon="152.6214177">
<ele>99.897</ele>
<time>2017-09-17T00:59:38.214Z</time>
</trkpt>
<trkpt lat="-27.4011933" lon="152.6212798">
<ele>99.957</ele>
<time>2017-09-17T00:59:41.070Z</time>
</trkpt>
<trkpt lat="-27.4011909" lon="152.6211356">
<ele>100.120</ele>
<time>2017-09-17T00:59:44.027Z</time>
</trkpt>
<trkpt lat="-27.4011939" lon="152.6209893">
<ele>100.406</ele>
<time>2017-09-17T00:59:46.920Z</time>
</trkpt>
<trkpt lat="-27.4011922" lon="152.6208338">
<ele>100.770</ele>
<time>2017-09-17T00:59:49.941Z</time>
</trkpt>
<trkpt lat="-27.4011992" lon="152.6207258">
<ele>101.155</ele>
<time>2017-09-17T00:59:52.114Z</time>
</trkpt>
<trkpt lat="-27.4011595" lon="152.6205941">
<ele>101.531</ele>
<time>2017-09-17T00:59:54.859Z</time>
</trkpt>
<trkpt lat="-27.4010948" lon="152.6204527">
<ele>101.912</ele>
<time>2017-09-17T00:59:57.768Z</time>
</trkpt>
<trkpt lat="-27.4010561" lon="152.6203576">
<ele>102.336</ele>
<time>2017-09-17T00:59:59.633Z</time>
</trkpt>
<trkpt lat="-27.4009694" lon="152.6202200">
<ele>102.769</ele>
<time>2017-09-17T01:00:02.593Z</time>
</trkpt>
<trkpt lat="-27.4008862" lon="152.6201400">
<ele>103.100</ele>
<time>2017-09-17T01:00:04.786Z</time>
</trkpt>
<trkpt lat="-27.4007537" lon="152.6200795">
<ele>103.220</ele>
<time>2017-09-17T01:00:07.615Z</time>
</trkpt>
<trkpt lat="-27.4005988" lon="152.6200686">
<ele>103.012</ele>
<time>2017-09-17T01:00:10.514Z</time>
</trkpt>
<trkpt lat="-27.4004878" lon="152.6200843">
<ele>102.337</ele>
<time>2017-09-17T01:00:12.548Z</time>
</trkpt>
<trkpt lat="-27.4003745" lon="152.6201147">
<ele>101.222</ele>
<time>2017-09-17T01:00:14.659Z</time>
</trkpt>
<trkpt lat="-27.4002768" lon="152.6201665">
<ele>99.912</ele>
<time>2017-09-17T01:00:16.644Z</time>
</trkpt>
<trkpt lat="-27.4001933" lon="152.6202304">
<ele>98.617</ele>
<time>2017-09-17T01:00:18.552Z</time>
</trkpt>
<trkpt lat="-27.4000615" lon="152.6203055">
<ele>97.381</ele>
<time>2017-09-17T01:00:21.487Z</time>
</trkpt>
<trkpt lat="-27.3999204" lon="152.6203492">
<ele>96.086</ele>
<time>2017-09-17T01:00:24.400Z</time>
</trkpt>
<trkpt lat="-27.3998204" lon="152.6203019">
<ele>94.638</ele>
<time>2017-09-17T01:00:26.507Z</time>
</trkpt>
<trkpt lat="-27.3997407" lon="152.6202370">
<ele>93.258</ele>
<time>2017-09-17T01:00:28.414Z</time>
</trkpt>
<trkpt lat="-27.3996732" lon="152.6201555">
<ele>92.256</ele>
<time>2017-09-17T01:00:30.320Z</time>
</trkpt>
<trkpt lat="-27.3995729" lon="152.6200428">
<ele>91.678</ele>
<time>2017-09-17T01:00:32.933Z</time>
</trkpt>
<trkpt lat="-27.3994989" lon="152.6199453">
<ele>91.409</ele>
<time>2017-09-17T01:00:34.938Z</time>
</trkpt>
<trkpt lat="-27.3994273" lon="152.6198539">
<ele>91.332</ele>
<time>2017-09-17T01:00:36.905Z</time>
</trkpt>
<trkpt lat="-27.3993509" lon="152.6197745">
<ele>91.362</ele>
<time>2017-09-17T01:00:38.855Z</time>
</trkpt>
<trkpt lat="-27.3992840" lon="152.6196954">
<ele>91.457</ele>
<time>2017-09-17T01:00:40.618Z</time>
</trkpt>
<trkpt lat="-27.3991687" lon="152.6195561">
<ele>91.594</ele>
<time>2017-09-17T01:00:43.598Z</time>
</trkpt>
<trkpt lat="-27.3991025" lon="152.6194519">
<ele>91.780</ele>
<time>2017-09-17T01:00:45.591Z</time>
</trkpt>
<trkpt lat="-27.3990867" lon="152.6193373">
<ele>92.018</ele>
<time>2017-09-17T01:00:47.463Z</time>
</trkpt>
<trkpt lat="-27.3991321" lon="152.6191640">
<ele>92.266</ele>
<time>2017-09-17T01:00:50.411Z</time>
</trkpt>
<trkpt lat="-27.3991916" lon="152.6190662">
<ele>92.477</ele>
<time>2017-09-17T01:00:52.425Z</time>
</trkpt>
<trkpt lat="-27.3992432" lon="152.6189815">
<ele>92.655</ele>
<time>2017-09-17T01:00:54.409Z</time>
</trkpt>
<trkpt lat="-27.3993009" lon="152.6188737">
<ele>92.812</ele>
<time>2017-09-17T01:00:56.990Z</time>
</trkpt>
<trkpt lat="-27.3993684" lon="152.6187498">
<ele>92.958</ele>
<time>2017-09-17T01:00:59.941Z</time>
</trkpt>
<trkpt lat="-27.3994526" lon="152.6186263">
<ele>93.131</ele>
<time>2017-09-17T01:01:03.611Z</time>
</trkpt>
<trkpt lat="-27.3995371" lon="152.6185894">
<ele>93.347</ele>
<time>2017-09-17T01:01:06.998Z</time>
</trkpt>
<trkpt lat="-27.3995371" lon="152.6185894">
<ele>93.544</ele>
<time>2017-09-17T01:01:07.998Z</time>
</trkpt>
<trkpt lat="-27.3995371" lon="152.6185894">
<ele>93.626</ele>
<time>2017-09-17T01:01:11.436Z</time>
</trkpt>
<trkpt lat="-27.3997407" lon="152.6186401">
<ele>93.578</ele>
<time>2017-09-17T01:01:16.325Z</time>
</trkpt>
<trkpt lat="-27.3999329" lon="152.6187609">
<ele>93.680</ele>
<time>2017-09-17T01:01:18.482Z</time>
</trkpt>
<trkpt lat="-27.4002743" lon="152.6189926">
<ele>94.306</ele>
<time>2017-09-17T01:01:21.637Z</time>
</trkpt>
<trkpt lat="-27.4006281" lon="152.6193072">
<ele>95.553</ele>
<time>2017-09-17T01:01:24.668Z</time>
</trkpt>
<trkpt lat="-27.4010137" lon="152.6196620">
<ele>97.406</ele>
<time>2017-09-17T01:01:27.714Z</time>
</trkpt>
<trkpt lat="-27.4014297" lon="152.6200894">
<ele>99.877</ele>
<time>2017-09-17T01:01:30.918Z</time>
</trkpt>
<trkpt lat="-27.4018904" lon="152.6204480">
<ele>102.779</ele>
<time>2017-09-17T01:01:33.909Z</time>
</trkpt>
<trkpt lat="-27.4022121" lon="152.6207082">
<ele>105.816</ele>
<time>2017-09-17T01:01:35.814Z</time>
</trkpt>
<trkpt lat="-27.4025512" lon="152.6210332">
<ele>108.720</ele>
<time>2017-09-17T01:01:37.770Z</time>
</trkpt>
<trkpt lat="-27.4031403" lon="152.6214956">
<ele>111.368</ele>
<time>2017-09-17T01:01:40.826Z</time>
</trkpt>
<trkpt lat="-27.4037089" lon="152.6219880">
<ele>113.846</ele>
<time>2017-09-17T01:01:43.809Z</time>
</trkpt>
<trkpt lat="-27.4040670" lon="152.6223573">
<ele>116.082</ele>
<time>2017-09-17T01:01:45.811Z</time>
</trkpt>
<trkpt lat="-27.4045982" lon="152.6229046">
<ele>117.663</ele>
<time>2017-09-17T01:01:48.786Z</time>
</trkpt>
<trkpt lat="-27.4049657" lon="152.6232497">
<ele>118.133</ele>
<time>2017-09-17T01:01:50.776Z</time>
</trkpt>
<trkpt lat="-27.4053111" lon="152.6236230">
<ele>117.313</ele>
<time>2017-09-17T01:01:52.777Z</time>
</trkpt>
<trkpt lat="-27.4058490" lon="152.6241421">
<ele>115.428</ele>
<time>2017-09-17T01:01:55.751Z</time>
</trkpt>
<trkpt lat="-27.4062074" lon="152.6244886">
<ele>112.818</ele>
<time>2017-09-17T01:01:57.745Z</time>
</trkpt>
<trkpt lat="-27.4065747" lon="152.6248350">
<ele>109.820</ele>
<time>2017-09-17T01:01:59.760Z</time>
</trkpt>
<trkpt lat="-27.4070763" lon="152.6254165">
<ele>106.847</ele>
<time>2017-09-17T01:02:02.778Z</time>
</trkpt>
<trkpt lat="-27.4074214" lon="152.6257951">
<ele>103.944</ele>
<time>2017-09-17T01:02:04.795Z</time>
</trkpt>
<trkpt lat="-27.4077621" lon="152.6261815">
<ele>100.938</ele>
<time>2017-09-17T01:02:06.856Z</time>
</trkpt>
<trkpt lat="-27.4082567" lon="152.6267365">
<ele>98.003</ele>
<time>2017-09-17T01:02:09.911Z</time>
</trkpt>
<trkpt lat="-27.4087379" lon="152.6272485">
<ele>94.654</ele>
<time>2017-09-17T01:02:12.888Z</time>
</trkpt>
<trkpt lat="-27.4092139" lon="152.6277430">
<ele>90.431</ele>
<time>2017-09-17T01:02:15.819Z</time>
</trkpt>
<trkpt lat="-27.4096806" lon="152.6282637">
<ele>86.545</ele>
<time>2017-09-17T01:02:18.798Z</time>
</trkpt>
<trkpt lat="-27.4101565" lon="152.6287589">
<ele>84.175</ele>
<time>2017-09-17T01:02:21.751Z</time>
</trkpt>
<trkpt lat="-27.4106161" lon="152.6292823">
<ele>82.936</ele>
<time>2017-09-17T01:02:24.744Z</time>
</trkpt>
<trkpt lat="-27.4110586" lon="152.6298074">
<ele>82.181</ele>
<time>2017-09-17T01:02:27.697Z</time>
</trkpt>
<trkpt lat="-27.4113784" lon="152.6301352">
<ele>81.599</ele>
<time>2017-09-17T01:02:29.673Z</time>
</trkpt>
<trkpt lat="-27.4116952" lon="152.6304850">
<ele>81.034</ele>
<time>2017-09-17T01:02:31.682Z</time>
</trkpt>
<trkpt lat="-27.4121595" lon="152.6310218">
<ele>80.367</ele>
<time>2017-09-17T01:02:34.701Z</time>
</trkpt>
<trkpt lat="-27.4126229" lon="152.6315379">
<ele>79.436</ele>
<time>2017-09-17T01:02:37.720Z</time>
</trkpt>
<trkpt lat="-27.4129016" lon="152.6318724">
<ele>78.009</ele>
<time>2017-09-17T01:02:39.709Z</time>
</trkpt>
<trkpt lat="-27.4133353" lon="152.6323385">
<ele>76.136</ele>
<time>2017-09-17T01:02:42.699Z</time>
</trkpt>
<trkpt lat="-27.4136165" lon="152.6326465">
<ele>74.171</ele>
<time>2017-09-17T01:02:44.695Z</time>
</trkpt>
<trkpt lat="-27.4140253" lon="152.6331008">
<ele>72.448</ele>
<time>2017-09-17T01:02:47.759Z</time>
</trkpt>
<trkpt lat="-27.4143898" lon="152.6334710">
<ele>71.059</ele>
<time>2017-09-17T01:02:50.675Z</time>
</trkpt>
<trkpt lat="-27.4145932" lon="152.6336875">
<ele>69.711</ele>
<time>2017-09-17T01:02:52.684Z</time>
</trkpt>
<trkpt lat="-27.4148810" lon="152.6339308">
<ele>68.074</ele>
<time>2017-09-17T01:02:55.610Z</time>
</trkpt>
<trkpt lat="-27.4150308" lon="152.6340727">
<ele>66.160</ele>
<time>2017-09-17T01:02:57.657Z</time>
</trkpt>
<trkpt lat="-27.4151365" lon="152.6341606">
<ele>64.107</ele>
<time>2017-09-17T01:02:59.478Z</time>
</trkpt>
<trkpt lat="-27.4152018" lon="152.6342401">
<ele>62.145</ele>
<time>2017-09-17T01:03:01.116Z</time>
</trkpt>
<trkpt lat="-27.4152327" lon="152.6343699">
<ele>60.477</ele>
<time>2017-09-17T01:03:03.268Z</time>
</trkpt>
<trkpt lat="-27.4151246" lon="152.6345178">
<ele>59.066</ele>
<time>2017-09-17T01:03:05.722Z</time>
</trkpt>
<trkpt lat="-27.4149081" lon="152.6347439">
<ele>57.949</ele>
<time>2017-09-17T01:03:08.915Z</time>
</trkpt>
<trkpt lat="-27.4146609" lon="152.6350113">
<ele>57.385</ele>
<time>2017-09-17T01:03:11.981Z</time>
</trkpt>
<trkpt lat="-27.4144481" lon="152.6351884">
<ele>57.738</ele>
<time>2017-09-17T01:03:14.076Z</time>
</trkpt>
<trkpt lat="-27.4141844" lon="152.6355461">
<ele>59.138</ele>
<time>2017-09-17T01:03:17.136Z</time>
</trkpt>
<trkpt lat="-27.4139825" lon="152.6357870">
<ele>61.513</ele>
<time>2017-09-17T01:03:19.143Z</time>
</trkpt>
<trkpt lat="-27.4136557" lon="152.6362061">
<ele>64.221</ele>
<time>2017-09-17T01:03:22.297Z</time>
</trkpt>
<trkpt lat="-27.4134122" lon="152.6364817">
<ele>65.309</ele>
<time>2017-09-17T01:03:24.261Z</time>
</trkpt>
<trkpt lat="-27.4132030" lon="152.6368313">
<ele>62.980</ele>
<time>2017-09-17T01:03:26.220Z</time>
</trkpt>
<trkpt lat="-27.4129606" lon="152.6374652">
<ele>58.305</ele>
<time>2017-09-17T01:03:29.271Z</time>
</trkpt>
<trkpt lat="-27.4128793" lon="152.6381575">
<ele>54.191</ele>
<time>2017-09-17T01:03:32.256Z</time>
</trkpt>
<trkpt lat="-27.4129417" lon="152.6388558">
<ele>52.279</ele>
<time>2017-09-17T01:03:35.230Z</time>
</trkpt>
<trkpt lat="-27.4131523" lon="152.6395673">
<ele>52.199</ele>
<time>2017-09-17T01:03:38.361Z</time>
</trkpt>
<trkpt lat="-27.4133625" lon="152.6400197">
<ele>52.844</ele>
<time>2017-09-17T01:03:40.417Z</time>
</trkpt>
<trkpt lat="-27.4136754" lon="152.6406918">
<ele>53.406</ele>
<time>2017-09-17T01:03:43.408Z</time>
</trkpt>
<trkpt lat="-27.4139654" lon="152.6414014">
<ele>53.655</ele>
<time>2017-09-17T01:03:46.434Z</time>
</trkpt>
<trkpt lat="-27.4140020" lon="152.6421765">
<ele>53.543</ele>
<time>2017-09-17T01:03:49.426Z</time>
</trkpt>
<trkpt lat="-27.4139362" lon="152.6427021">
<ele>52.877</ele>
<time>2017-09-17T01:03:51.449Z</time>
</trkpt>
<trkpt lat="-27.4136435" lon="152.6434335">
<ele>51.594</ele>
<time>2017-09-17T01:03:54.469Z</time>
</trkpt>
<trkpt lat="-27.4132167" lon="152.6441060">
<ele>49.789</ele>
<time>2017-09-17T01:03:57.557Z</time>
</trkpt>
<trkpt lat="-27.4126669" lon="152.6445943">
<ele>47.586</ele>
<time>2017-09-17T01:04:00.517Z</time>
</trkpt>
<trkpt lat="-27.4122432" lon="152.6448317">
<ele>45.377</ele>
<time>2017-09-17T01:04:02.505Z</time>
</trkpt>
<trkpt lat="-27.4115645" lon="152.6450909">
<ele>43.685</ele>
<time>2017-09-17T01:04:05.496Z</time>
</trkpt>
<trkpt lat="-27.4108811" lon="152.6453270">
<ele>42.571</ele>
<time>2017-09-17T01:04:08.476Z</time>
</trkpt>
<trkpt lat="-27.4104176" lon="152.6454903">
<ele>41.807</ele>
<time>2017-09-17T01:04:10.507Z</time>
</trkpt>
<trkpt lat="-27.4097540" lon="152.6457775">
<ele>41.341</ele>
<time>2017-09-17T01:04:13.512Z</time>
</trkpt>
<trkpt lat="-27.4090930" lon="152.6460176">
<ele>41.189</ele>
<time>2017-09-17T01:04:16.514Z</time>
</trkpt>
<trkpt lat="-27.4084190" lon="152.6459806">
<ele>41.233</ele>
<time>2017-09-17T01:04:19.489Z</time>
</trkpt>
<trkpt lat="-27.4077351" lon="152.6459015">
<ele>41.394</ele>
<time>2017-09-17T01:04:22.536Z</time>
</trkpt>
<trkpt lat="-27.4070566" lon="152.6458704">
<ele>41.738</ele>
<time>2017-09-17T01:04:25.537Z</time>
</trkpt>
<trkpt lat="-27.4066080" lon="152.6459564">
<ele>42.440</ele>
<time>2017-09-17T01:04:27.541Z</time>
</trkpt>
<trkpt lat="-27.4059610" lon="152.6461831">
<ele>43.600</ele>
<time>2017-09-17T01:04:30.516Z</time>
</trkpt>
<trkpt lat="-27.4055226" lon="152.6463465">
<ele>45.230</ele>
<time>2017-09-17T01:04:32.528Z</time>
</trkpt>
<trkpt lat="-27.4049477" lon="152.6468157">
<ele>47.204</ele>
<time>2017-09-17T01:04:35.603Z</time>
</trkpt>
<trkpt lat="-27.4043033" lon="152.6471346">
<ele>49.179</ele>
<time>2017-09-17T01:04:38.642Z</time>
</trkpt>
<trkpt lat="-27.4038358" lon="152.6472116">
<ele>50.746</ele>
<time>2017-09-17T01:04:40.680Z</time>
</trkpt>
<trkpt lat="-27.4033714" lon="152.6472747">
<ele>51.659</ele>
<time>2017-09-17T01:04:42.696Z</time>
</trkpt>
<trkpt lat="-27.4029122" lon="152.6472418">
<ele>51.893</ele>
<time>2017-09-17T01:04:44.691Z</time>
</trkpt>
<trkpt lat="-27.4022385" lon="152.6471132">
<ele>51.643</ele>
<time>2017-09-17T01:04:47.662Z</time>
</trkpt>
<trkpt lat="-27.4015564" lon="152.6469839">
<ele>51.227</ele>
<time>2017-09-17T01:04:50.676Z</time>
</trkpt>
<trkpt lat="-27.4011076" lon="152.6468711">
<ele>50.993</ele>
<time>2017-09-17T01:04:52.685Z</time>
</trkpt>
<trkpt lat="-27.4006643" lon="152.6467569">
<ele>51.052</ele>
<time>2017-09-17T01:04:54.665Z</time>
</trkpt>
<trkpt lat="-27.3999776" lon="152.6466402">
<ele>51.226</ele>
<time>2017-09-17T01:04:57.677Z</time>
</trkpt>
<trkpt lat="-27.3992883" lon="152.6465215">
<ele>51.333</ele>
<time>2017-09-17T01:05:00.697Z</time>
</trkpt>
<trkpt lat="-27.3988389" lon="152.6463998">
<ele>51.353</ele>
<time>2017-09-17T01:05:02.700Z</time>
</trkpt>
<trkpt lat="-27.3981559" lon="152.6462664">
<ele>51.335</ele>
<time>2017-09-17T01:05:05.702Z</time>
</trkpt>
<trkpt lat="-27.3976994" lon="152.6462063">
<ele>51.393</ele>
<time>2017-09-17T01:05:07.697Z</time>
</trkpt>
<trkpt lat="-27.3970156" lon="152.6460968">
<ele>51.680</ele>
<time>2017-09-17T01:05:10.706Z</time>
</trkpt>
<trkpt lat="-27.3963273" lon="152.6460884">
<ele>52.220</ele>
<time>2017-09-17T01:05:13.713Z</time>
</trkpt>
<trkpt lat="-27.3958758" lon="152.6461715">
<ele>52.931</ele>
<time>2017-09-17T01:05:15.704Z</time>
</trkpt>
<trkpt lat="-27.3952202" lon="152.6464107">
<ele>53.827</ele>
<time>2017-09-17T01:05:18.692Z</time>
</trkpt>
<trkpt lat="-27.3948075" lon="152.6466544">
<ele>55.062</ele>
<time>2017-09-17T01:05:20.704Z</time>
</trkpt>
<trkpt lat="-27.3944252" lon="152.6469483">
<ele>56.612</ele>
<time>2017-09-17T01:05:22.717Z</time>
</trkpt>
<trkpt lat="-27.3940801" lon="152.6472898">
<ele>58.008</ele>
<time>2017-09-17T01:05:24.737Z</time>
</trkpt>
<trkpt lat="-27.3937503" lon="152.6476797">
<ele>58.773</ele>
<time>2017-09-17T01:05:26.861Z</time>
</trkpt>
<trkpt lat="-27.3934266" lon="152.6479941">
<ele>58.850</ele>
<time>2017-09-17T01:05:28.785Z</time>
</trkpt>
<trkpt lat="-27.3931203" lon="152.6483588">
<ele>58.435</ele>
<time>2017-09-17T01:05:30.804Z</time>
</trkpt>
<trkpt lat="-27.3926388" lon="152.6488322">
<ele>57.840</ele>
<time>2017-09-17T01:05:33.701Z</time>
</trkpt>
<trkpt lat="-27.3922580" lon="152.6490983">
<ele>57.355</ele>
<time>2017-09-17T01:05:35.720Z</time>
</trkpt>
<trkpt lat="-27.3916737" lon="152.6494540">
<ele>57.106</ele>
<time>2017-09-17T01:05:38.717Z</time>
</trkpt>
<trkpt lat="-27.3910571" lon="152.6497315">
<ele>57.080</ele>
<time>2017-09-17T01:05:41.738Z</time>
</trkpt>
<trkpt lat="-27.3906537" lon="152.6498925">
<ele>57.396</ele>
<time>2017-09-17T01:05:43.690Z</time>
</trkpt>
<trkpt lat="-27.3900031" lon="152.6500542">
<ele>58.264</ele>
<time>2017-09-17T01:05:46.721Z</time>
</trkpt>
<trkpt lat="-27.3893383" lon="152.6501245">
<ele>59.796</ele>
<time>2017-09-17T01:05:49.746Z</time>
</trkpt>
<trkpt lat="-27.3888965" lon="152.6501368">
<ele>62.068</ele>
<time>2017-09-17T01:05:51.727Z</time>
</trkpt>
<trkpt lat="-27.3884464" lon="152.6501369">
<ele>64.981</ele>
<time>2017-09-17T01:05:53.736Z</time>
</trkpt>
<trkpt lat="-27.3880033" lon="152.6501561">
<ele>67.946</ele>
<time>2017-09-17T01:05:55.709Z</time>
</trkpt>
<trkpt lat="-27.3875483" lon="152.6501541">
<ele>70.208</ele>
<time>2017-09-17T01:05:57.722Z</time>
</trkpt>
<trkpt lat="-27.3870995" lon="152.6502347">
<ele>71.377</ele>
<time>2017-09-17T01:05:59.733Z</time>
</trkpt>
<trkpt lat="-27.3866328" lon="152.6503192">
<ele>71.637</ele>
<time>2017-09-17T01:06:01.834Z</time>
</trkpt>
<trkpt lat="-27.3859999" lon="152.6505553">
<ele>71.441</ele>
<time>2017-09-17T01:06:04.802Z</time>
</trkpt>
<trkpt lat="-27.3855858" lon="152.6507341">
<ele>71.129</ele>
<time>2017-09-17T01:06:06.764Z</time>
</trkpt>
<trkpt lat="-27.3851494" lon="152.6508816">
<ele>70.773</ele>
<time>2017-09-17T01:06:08.797Z</time>
</trkpt>
<trkpt lat="-27.3845130" lon="152.6511025">
<ele>70.368</ele>
<time>2017-09-17T01:06:11.812Z</time>
</trkpt>
<trkpt lat="-27.3840838" lon="152.6511204">
<ele>70.039</ele>
<time>2017-09-17T01:06:13.793Z</time>
</trkpt>
<trkpt lat="-27.3834294" lon="152.6510238">
<ele>69.980</ele>
<time>2017-09-17T01:06:16.839Z</time>
</trkpt>
<trkpt lat="-27.3828269" lon="152.6507030">
<ele>70.417</ele>
<time>2017-09-17T01:06:19.893Z</time>
</trkpt>
<trkpt lat="-27.3824635" lon="152.6503998">
<ele>71.703</ele>
<time>2017-09-17T01:06:21.954Z</time>
</trkpt>
<trkpt lat="-27.3820173" lon="152.6498299">
<ele>73.831</ele>
<time>2017-09-17T01:06:25.007Z</time>
</trkpt>
<trkpt lat="-27.3816892" lon="152.6491428">
<ele>76.354</ele>
<time>2017-09-17T01:06:28.106Z</time>
</trkpt>
<trkpt lat="-27.3815251" lon="152.6484102">
<ele>78.746</ele>
<time>2017-09-17T01:06:31.094Z</time>
</trkpt>
<trkpt lat="-27.3814939" lon="152.6476540">
<ele>80.455</ele>
<time>2017-09-17T01:06:34.091Z</time>
</trkpt>
<trkpt lat="-27.3814552" lon="152.6469047">
<ele>81.178</ele>
<time>2017-09-17T01:06:37.070Z</time>
</trkpt>
<trkpt lat="-27.3813078" lon="152.6461776">
<ele>81.211</ele>
<time>2017-09-17T01:06:40.042Z</time>
</trkpt>
<trkpt lat="-27.3810786" lon="152.6457541">
<ele>80.918</ele>
<time>2017-09-17T01:06:42.042Z</time>
</trkpt>
<trkpt lat="-27.3808628" lon="152.6453404">
<ele>80.433</ele>
<time>2017-09-17T01:06:44.009Z</time>
</trkpt>
<trkpt lat="-27.3804259" lon="152.6448031">
<ele>79.831</ele>
<time>2017-09-17T01:06:47.004Z</time>
</trkpt>
<trkpt lat="-27.3800745" lon="152.6445330">
<ele>79.253</ele>
<time>2017-09-17T01:06:48.966Z</time>
</trkpt>
<trkpt lat="-27.3797005" lon="152.6442740">
<ele>78.848</ele>
<time>2017-09-17T01:06:50.983Z</time>
</trkpt>
<trkpt lat="-27.3790849" lon="152.6440408">
<ele>78.746</ele>
<time>2017-09-17T01:06:53.967Z</time>
</trkpt>
<trkpt lat="-27.3786619" lon="152.6439517">
<ele>79.120</ele>
<time>2017-09-17T01:06:55.936Z</time>
</trkpt>
<trkpt lat="-27.3780136" lon="152.6438892">
<ele>79.980</ele>
<time>2017-09-17T01:06:58.910Z</time>
</trkpt>
<trkpt lat="-27.3775816" lon="152.6439237">
<ele>81.287</ele>
<time>2017-09-17T01:07:00.898Z</time>
</trkpt>
<trkpt lat="-27.3771541" lon="152.6438884">
<ele>83.063</ele>
<time>2017-09-17T01:07:02.957Z</time>
</trkpt>
<trkpt lat="-27.3765900" lon="152.6436463">
<ele>85.119</ele>
<time>2017-09-17T01:07:05.961Z</time>
</trkpt>
<trkpt lat="-27.3762522" lon="152.6434220">
<ele>86.971</ele>
<time>2017-09-17T01:07:07.917Z</time>
</trkpt>
<trkpt lat="-27.3757595" lon="152.6430134">
<ele>88.261</ele>
<time>2017-09-17T01:07:10.889Z</time>
</trkpt>
<trkpt lat="-27.3753495" lon="152.6424649">
<ele>89.300</ele>
<time>2017-09-17T01:07:13.893Z</time>
</trkpt>
<trkpt lat="-27.3751544" lon="152.6420242">
<ele>90.481</ele>
<time>2017-09-17T01:07:15.928Z</time>
</trkpt>
<trkpt lat="-27.3749419" lon="152.6413277">
<ele>91.357</ele>
<time>2017-09-17T01:07:18.965Z</time>
</trkpt>
<trkpt lat="-27.3748726" lon="152.6406099">
<ele>91.526</ele>
<time>2017-09-17T01:07:21.943Z</time>
</trkpt>
<trkpt lat="-27.3749618" lon="152.6398997">
<ele>91.834</ele>
<time>2017-09-17T01:07:24.909Z</time>
</trkpt>
<trkpt lat="-27.3750804" lon="152.6394365">
<ele>93.640</ele>
<time>2017-09-17T01:07:26.892Z</time>
</trkpt>
<trkpt lat="-27.3752746" lon="152.6387351">
<ele>97.216</ele>
<time>2017-09-17T01:07:29.902Z</time>
</trkpt>
<trkpt lat="-27.3754638" lon="152.6380399">
<ele>102.115</ele>
<time>2017-09-17T01:07:32.859Z</time>
</trkpt>
<trkpt lat="-27.3756618" lon="152.6373314">
<ele>108.281</ele>
<time>2017-09-17T01:07:35.874Z</time>
</trkpt>
<trkpt lat="-27.3755153" lon="152.6366238">
<ele>115.413</ele>
<time>2017-09-17T01:07:38.886Z</time>
</trkpt>
<trkpt lat="-27.3753074" lon="152.6362252">
<ele>122.627</ele>
<time>2017-09-17T01:07:40.882Z</time>
</trkpt>
<trkpt lat="-27.3748805" lon="152.6357257">
<ele>128.979</ele>
<time>2017-09-17T01:07:43.906Z</time>
</trkpt>
<trkpt lat="-27.3745375" lon="152.6354747">
<ele>134.051</ele>
<time>2017-09-17T01:07:45.934Z</time>
</trkpt>
<trkpt lat="-27.3741420" lon="152.6352885">
<ele>137.808</ele>
<time>2017-09-17T01:07:48.014Z</time>
</trkpt>
<trkpt lat="-27.3735397" lon="152.6351984">
<ele>140.029</ele>
<time>2017-09-17T01:07:50.889Z</time>
</trkpt>
<trkpt lat="-27.3728796" lon="152.6351543">
<ele>140.911</ele>
<time>2017-09-17T01:07:53.936Z</time>
</trkpt>
<trkpt lat="-27.3722280" lon="152.6350890">
<ele>141.316</ele>
<time>2017-09-17T01:07:56.924Z</time>
</trkpt>
<trkpt lat="-27.3717936" lon="152.6350685">
<ele>141.787</ele>
<time>2017-09-17T01:07:58.935Z</time>
</trkpt>
<trkpt lat="-27.3711683" lon="152.6350145">
<ele>142.344</ele>
<time>2017-09-17T01:08:01.872Z</time>
</trkpt>
<trkpt lat="-27.3707521" lon="152.6349307">
<ele>142.971</ele>
<time>2017-09-17T01:08:03.873Z</time>
</trkpt>
<trkpt lat="-27.3703373" lon="152.6348136">
<ele>143.898</ele>
<time>2017-09-17T01:08:05.919Z</time>
</trkpt>
<trkpt lat="-27.3699375" lon="152.6346433">
<ele>145.371</ele>
<time>2017-09-17T01:08:07.997Z</time>
</trkpt>
<trkpt lat="-27.3695848" lon="152.6344065">
<ele>147.422</ele>
<time>2017-09-17T01:08:09.989Z</time>
</trkpt>
<trkpt lat="-27.3690751" lon="152.6339813">
<ele>150.016</ele>
<time>2017-09-17T01:08:13.044Z</time>
</trkpt>
<trkpt lat="-27.3687764" lon="152.6336484">
<ele>153.367</ele>
<time>2017-09-17T01:08:15.065Z</time>
</trkpt>
<trkpt lat="-27.3683273" lon="152.6331684">
<ele>157.439</ele>
<time>2017-09-17T01:08:18.064Z</time>
</trkpt>
<trkpt lat="-27.3680905" lon="152.6327868">
<ele>161.130</ele>
<time>2017-09-17T01:08:20.077Z</time>
</trkpt>
<trkpt lat="-27.3678902" lon="152.6323809">
<ele>163.227</ele>
<time>2017-09-17T01:08:22.061Z</time>
</trkpt>
<trkpt lat="-27.3676765" lon="152.6319805">
<ele>163.460</ele>
<time>2017-09-17T01:08:24.025Z</time>
</trkpt>
<trkpt lat="-27.3672753" lon="152.6313749">
<ele>161.958</ele>
<time>2017-09-17T01:08:27.143Z</time>
</trkpt>
<trkpt lat="-27.3667419" lon="152.6308414">
<ele>158.691</ele>
<time>2017-09-17T01:08:30.347Z</time>
</trkpt>
<trkpt lat="-27.3660925" lon="152.6305096">
<ele>153.800</ele>
<time>2017-09-17T01:08:33.462Z</time>
</trkpt>
<trkpt lat="-27.3655756" lon="152.6299575">
<ele>147.759</ele>
<time>2017-09-17T01:08:36.530Z</time>
</trkpt>
<trkpt lat="-27.3651307" lon="152.6293707">
<ele>141.644</ele>
<time>2017-09-17T01:08:39.453Z</time>
</trkpt>
<trkpt lat="-27.3647612" lon="152.6290636">
<ele>137.095</ele>
<time>2017-09-17T01:08:41.417Z</time>
</trkpt>
<trkpt lat="-27.3641724" lon="152.6287114">
<ele>135.041</ele>
<time>2017-09-17T01:08:44.318Z</time>
</trkpt>
<trkpt lat="-27.3637312" lon="152.6285666">
<ele>134.805</ele>
<time>2017-09-17T01:08:46.342Z</time>
</trkpt>
<trkpt lat="-27.3630479" lon="152.6285944">
<ele>134.925</ele>
<time>2017-09-17T01:08:49.332Z</time>
</trkpt>
<trkpt lat="-27.3623650" lon="152.6286731">
<ele>134.077</ele>
<time>2017-09-17T01:08:52.294Z</time>
</trkpt>
<trkpt lat="-27.3619113" lon="152.6288143">
<ele>131.853</ele>
<time>2017-09-17T01:08:54.310Z</time>
</trkpt>
<trkpt lat="-27.3612135" lon="152.6289181">
<ele>128.940</ele>
<time>2017-09-17T01:08:57.319Z</time>
</trkpt>
<trkpt lat="-27.3605153" lon="152.6288120">
<ele>125.821</ele>
<time>2017-09-17T01:09:00.320Z</time>
</trkpt>
<trkpt lat="-27.3598463" lon="152.6285654">
<ele>122.486</ele>
<time>2017-09-17T01:09:03.320Z</time>
</trkpt>
<trkpt lat="-27.3592046" lon="152.6282649">
<ele>119.201</ele>
<time>2017-09-17T01:09:06.314Z</time>
</trkpt>
<trkpt lat="-27.3585644" lon="152.6279931">
<ele>115.987</ele>
<time>2017-09-17T01:09:09.287Z</time>
</trkpt>
<trkpt lat="-27.3581278" lon="152.6278147">
<ele>112.262</ele>
<time>2017-09-17T01:09:11.310Z</time>
</trkpt>
<trkpt lat="-27.3576717" lon="152.6277594">
<ele>107.990</ele>
<time>2017-09-17T01:09:13.297Z</time>
</trkpt>
<trkpt lat="-27.3572114" lon="152.6277928">
<ele>104.227</ele>
<time>2017-09-17T01:09:15.277Z</time>
</trkpt>
<trkpt lat="-27.3567482" lon="152.6278485">
<ele>102.095</ele>
<time>2017-09-17T01:09:17.268Z</time>
</trkpt>
<trkpt lat="-27.3560635" lon="152.6280098">
<ele>101.698</ele>
<time>2017-09-17T01:09:20.246Z</time>
</trkpt>
<trkpt lat="-27.3553851" lon="152.6282263">
<ele>102.700</ele>
<time>2017-09-17T01:09:23.240Z</time>
</trkpt>
<trkpt lat="-27.3549415" lon="152.6283928">
<ele>104.740</ele>
<time>2017-09-17T01:09:25.222Z</time>
</trkpt>
<trkpt lat="-27.3542834" lon="152.6286903">
<ele>106.916</ele>
<time>2017-09-17T01:09:28.228Z</time>
</trkpt>
<trkpt lat="-27.3536027" lon="152.6288929">
<ele>108.315</ele>
<time>2017-09-17T01:09:31.215Z</time>
</trkpt>
<trkpt lat="-27.3529230" lon="152.6290992">
<ele>108.746</ele>
<time>2017-09-17T01:09:34.203Z</time>
</trkpt>
<trkpt lat="-27.3524737" lon="152.6292657">
<ele>108.469</ele>
<time>2017-09-17T01:09:36.209Z</time>
</trkpt>
<trkpt lat="-27.3517944" lon="152.6294887">
<ele>107.774</ele>
<time>2017-09-17T01:09:39.223Z</time>
</trkpt>
<trkpt lat="-27.3511260" lon="152.6297334">
<ele>106.735</ele>
<time>2017-09-17T01:09:42.233Z</time>
</trkpt>
<trkpt lat="-27.3506833" lon="152.6299097">
<ele>105.199</ele>
<time>2017-09-17T01:09:44.234Z</time>
</trkpt>
<trkpt lat="-27.3500056" lon="152.6301290">
<ele>103.199</ele>
<time>2017-09-17T01:09:47.232Z</time>
</trkpt>
<trkpt lat="-27.3495653" lon="152.6303037">
<ele>101.081</ele>
<time>2017-09-17T01:09:49.218Z</time>
</trkpt>
<trkpt lat="-27.3488980" lon="152.6305321">
<ele>99.276</ele>
<time>2017-09-17T01:09:52.190Z</time>
</trkpt>
<trkpt lat="-27.3482282" lon="152.6307727">
<ele>98.134</ele>
<time>2017-09-17T01:09:55.187Z</time>
</trkpt>
<trkpt lat="-27.3477843" lon="152.6309344">
<ele>97.818</ele>
<time>2017-09-17T01:09:57.190Z</time>
</trkpt>
<trkpt lat="-27.3471313" lon="152.6311559">
<ele>98.193</ele>
<time>2017-09-17T01:10:00.133Z</time>
</trkpt>
<trkpt lat="-27.3466951" lon="152.6313168">
<ele>99.203</ele>
<time>2017-09-17T01:10:02.110Z</time>
</trkpt>
<trkpt lat="-27.3462506" lon="152.6314868">
<ele>100.924</ele>
<time>2017-09-17T01:10:04.115Z</time>
</trkpt>
<trkpt lat="-27.3457907" lon="152.6316033">
<ele>103.208</ele>
<time>2017-09-17T01:10:06.116Z</time>
</trkpt>
<trkpt lat="-27.3453406" lon="152.6317570">
<ele>105.699</ele>
<time>2017-09-17T01:10:08.104Z</time>
</trkpt>
<trkpt lat="-27.3446255" lon="152.6317470">
<ele>107.958</ele>
<time>2017-09-17T01:10:11.131Z</time>
</trkpt>
<trkpt lat="-27.3439262" lon="152.6315566">
<ele>109.468</ele>
<time>2017-09-17T01:10:14.201Z</time>
</trkpt>
<trkpt lat="-27.3434893" lon="152.6313496">
<ele>109.727</ele>
<time>2017-09-17T01:10:16.239Z</time>
</trkpt>
<trkpt lat="-27.3429068" lon="152.6308988">
<ele>108.508</ele>
<time>2017-09-17T01:10:19.287Z</time>
</trkpt>
<trkpt lat="-27.3425777" lon="152.6305270">
<ele>105.957</ele>
<time>2017-09-17T01:10:21.300Z</time>
</trkpt>
<trkpt lat="-27.3422613" lon="152.6301009">
<ele>102.754</ele>
<time>2017-09-17T01:10:23.442Z</time>
</trkpt>
<trkpt lat="-27.3418041" lon="152.6295328">
<ele>99.853</ele>
<time>2017-09-17T01:10:26.547Z</time>
</trkpt>
<trkpt lat="-27.3413016" lon="152.6291462">
<ele>97.495</ele>
<time>2017-09-17T01:10:29.517Z</time>
</trkpt>
<trkpt lat="-27.3408931" lon="152.6291482">
<ele>95.309</ele>
<time>2017-09-17T01:10:31.561Z</time>
</trkpt>
<trkpt lat="-27.3403348" lon="152.6293429">
<ele>93.519</ele>
<time>2017-09-17T01:10:34.493Z</time>
</trkpt>
<trkpt lat="-27.3400116" lon="152.6296105">
<ele>92.691</ele>
<time>2017-09-17T01:10:36.454Z</time>
</trkpt>
<trkpt lat="-27.3396806" lon="152.6302223">
<ele>92.852</ele>
<time>2017-09-17T01:10:39.363Z</time>
</trkpt>
<trkpt lat="-27.3394752" lon="152.6309785">
<ele>93.692</ele>
<time>2017-09-17T01:10:42.378Z</time>
</trkpt>
<trkpt lat="-27.3393466" lon="152.6314961">
<ele>95.112</ele>
<time>2017-09-17T01:10:44.389Z</time>
</trkpt>
<trkpt lat="-27.3391981" lon="152.6322589">
<ele>97.035</ele>
<time>2017-09-17T01:10:47.378Z</time>
</trkpt>
<trkpt lat="-27.3389977" lon="152.6329813">
<ele>99.091</ele>
<time>2017-09-17T01:10:50.442Z</time>
</trkpt>
<trkpt lat="-27.3387455" lon="152.6336218">
<ele>100.811</ele>
<time>2017-09-17T01:10:53.389Z</time>
</trkpt>
<trkpt lat="-27.3384530" lon="152.6339586">
<ele>101.951</ele>
<time>2017-09-17T01:10:55.346Z</time>
</trkpt>
<trkpt lat="-27.3381054" lon="152.6342398">
<ele>102.683</ele>
<time>2017-09-17T01:10:57.271Z</time>
</trkpt>
<trkpt lat="-27.3376753" lon="152.6343871">
<ele>103.516</ele>
<time>2017-09-17T01:10:59.209Z</time>
</trkpt>
<trkpt lat="-27.3369734" lon="152.6345346">
<ele>105.006</ele>
<time>2017-09-17T01:11:02.277Z</time>
</trkpt>
<trkpt lat="-27.3365277" lon="152.6346655">
<ele>107.515</ele>
<time>2017-09-17T01:11:04.302Z</time>
</trkpt>
<trkpt lat="-27.3360834" lon="152.6347291">
<ele>110.734</ele>
<time>2017-09-17T01:11:06.290Z</time>
</trkpt>
<trkpt lat="-27.3354159" lon="152.6348567">
<ele>113.653</ele>
<time>2017-09-17T01:11:09.264Z</time>
</trkpt>
<trkpt lat="-27.3347115" lon="152.6350942">
<ele>115.433</ele>
<time>2017-09-17T01:11:12.417Z</time>
</trkpt>
<trkpt lat="-27.3340593" lon="152.6354048">
<ele>115.851</ele>
<time>2017-09-17T01:11:15.418Z</time>
</trkpt>
<trkpt lat="-27.3334593" lon="152.6357580">
<ele>115.040</ele>
<time>2017-09-17T01:11:18.290Z</time>
</trkpt>
<trkpt lat="-27.3330033" lon="152.6360164">
<ele>113.364</ele>
<time>2017-09-17T01:11:20.450Z</time>
</trkpt>
<trkpt lat="-27.3323621" lon="152.6363147">
<ele>111.309</ele>
<time>2017-09-17T01:11:23.381Z</time>
</trkpt>
<trkpt lat="-27.3319459" lon="152.6365466">
<ele>109.099</ele>
<time>2017-09-17T01:11:25.361Z</time>
</trkpt>
<trkpt lat="-27.3315012" lon="152.6367214">
<ele>106.871</ele>
<time>2017-09-17T01:11:27.380Z</time>
</trkpt>
<trkpt lat="-27.3308048" lon="152.6368113">
<ele>105.010</ele>
<time>2017-09-17T01:11:30.379Z</time>
</trkpt>
<trkpt lat="-27.3301040" lon="152.6367384">
<ele>103.704</ele>
<time>2017-09-17T01:11:33.390Z</time>
</trkpt>
<trkpt lat="-27.3296412" lon="152.6366059">
<ele>102.649</ele>
<time>2017-09-17T01:11:35.429Z</time>
</trkpt>
<trkpt lat="-27.3290048" lon="152.6362716">
<ele>101.608</ele>
<time>2017-09-17T01:11:38.423Z</time>
</trkpt>
<trkpt lat="-27.3284176" lon="152.6358276">
<ele>100.528</ele>
<time>2017-09-17T01:11:41.435Z</time>
</trkpt>
<trkpt lat="-27.3279388" lon="152.6352478">
<ele>99.400</ele>
<time>2017-09-17T01:11:44.441Z</time>
</trkpt>
<trkpt lat="-27.3276694" lon="152.6348080">
<ele>98.297</ele>
<time>2017-09-17T01:11:46.469Z</time>
</trkpt>
<trkpt lat="-27.3274418" lon="152.6343450">
<ele>97.307</ele>
<time>2017-09-17T01:11:48.465Z</time>
</trkpt>
<trkpt lat="-27.3272179" lon="152.6338730">
<ele>96.462</ele>
<time>2017-09-17T01:11:50.495Z</time>
</trkpt>
<trkpt lat="-27.3269762" lon="152.6334212">
<ele>95.797</ele>
<time>2017-09-17T01:11:52.556Z</time>
</trkpt>
<trkpt lat="-27.3265496" lon="152.6328661">
<ele>95.333</ele>
<time>2017-09-17T01:11:55.546Z</time>
</trkpt>
<trkpt lat="-27.3260092" lon="152.6324711">
<ele>95.014</ele>
<time>2017-09-17T01:11:58.577Z</time>
</trkpt>
<trkpt lat="-27.3256802" lon="152.6321795">
<ele>94.673</ele>
<time>2017-09-17T01:12:00.604Z</time>
</trkpt>
<trkpt lat="-27.3253546" lon="152.6319123">
<ele>94.198</ele>
<time>2017-09-17T01:12:02.573Z</time>
</trkpt>
<trkpt lat="-27.3250257" lon="152.6316542">
<ele>93.707</ele>
<time>2017-09-17T01:12:04.477Z</time>
</trkpt>
<trkpt lat="-27.3246933" lon="152.6313506">
<ele>93.372</ele>
<time>2017-09-17T01:12:06.417Z</time>
</trkpt>
<trkpt lat="-27.3241447" lon="152.6308624">
<ele>93.241</ele>
<time>2017-09-17T01:12:09.542Z</time>
</trkpt>
<trkpt lat="-27.3236546" lon="152.6303750">
<ele>93.463</ele>
<time>2017-09-17T01:12:12.549Z</time>
</trkpt>
<trkpt lat="-27.3233577" lon="152.6300448">
<ele>94.435</ele>
<time>2017-09-17T01:12:14.513Z</time>
</trkpt>
<trkpt lat="-27.3231440" lon="152.6296294">
<ele>96.329</ele>
<time>2017-09-17T01:12:16.550Z</time>
</trkpt>
<trkpt lat="-27.3227257" lon="152.6291342">
<ele>98.599</ele>
<time>2017-09-17T01:12:19.497Z</time>
</trkpt>
<trkpt lat="-27.3222393" lon="152.6287038">
<ele>100.355</ele>
<time>2017-09-17T01:12:22.483Z</time>
</trkpt>
<trkpt lat="-27.3218713" lon="152.6284873">
<ele>100.043</ele>
<time>2017-09-17T01:12:24.479Z</time>
</trkpt>
<trkpt lat="-27.3213591" lon="152.6281257">
<ele>97.223</ele>
<time>2017-09-17T01:12:27.349Z</time>
</trkpt>
<trkpt lat="-27.3209913" lon="152.6278650">
<ele>94.067</ele>
<time>2017-09-17T01:12:29.303Z</time>
</trkpt>
<trkpt lat="-27.3206529" lon="152.6274691">
<ele>92.396</ele>
<time>2017-09-17T01:12:31.414Z</time>
</trkpt>
<trkpt lat="-27.3202740" lon="152.6268074">
<ele>91.693</ele>
<time>2017-09-17T01:12:34.404Z</time>
</trkpt>
<trkpt lat="-27.3200963" lon="152.6263126">
<ele>91.033</ele>
<time>2017-09-17T01:12:36.422Z</time>
</trkpt>
<trkpt lat="-27.3198411" lon="152.6255710">
<ele>90.065</ele>
<time>2017-09-17T01:12:39.462Z</time>
</trkpt>
<trkpt lat="-27.3194978" lon="152.6248945">
<ele>89.011</ele>
<time>2017-09-17T01:12:42.490Z</time>
</trkpt>
<trkpt lat="-27.3191881" lon="152.6245253">
<ele>87.981</ele>
<time>2017-09-17T01:12:44.465Z</time>
</trkpt>
<trkpt lat="-27.3186592" lon="152.6240190">
<ele>86.851</ele>
<time>2017-09-17T01:12:47.469Z</time>
</trkpt>
<trkpt lat="-27.3180428" lon="152.6236497">
<ele>85.621</ele>
<time>2017-09-17T01:12:50.451Z</time>
</trkpt>
<trkpt lat="-27.3176181" lon="152.6234323">
<ele>84.389</ele>
<time>2017-09-17T01:12:52.436Z</time>
</trkpt>
<trkpt lat="-27.3169988" lon="152.6230696">
<ele>83.336</ele>
<time>2017-09-17T01:12:55.415Z</time>
</trkpt>
<trkpt lat="-27.3163707" lon="152.6227303">
<ele>82.701</ele>
<time>2017-09-17T01:12:58.375Z</time>
</trkpt>
<trkpt lat="-27.3157396" lon="152.6223892">
<ele>82.481</ele>
<time>2017-09-17T01:13:01.336Z</time>
</trkpt>
<trkpt lat="-27.3151139" lon="152.6220321">
<ele>82.480</ele>
<time>2017-09-17T01:13:04.293Z</time>
</trkpt>
<trkpt lat="-27.3144710" lon="152.6216873">
<ele>82.533</ele>
<time>2017-09-17T01:13:07.286Z</time>
</trkpt>
<trkpt lat="-27.3140437" lon="152.6214597">
<ele>82.459</ele>
<time>2017-09-17T01:13:09.279Z</time>
</trkpt>
<trkpt lat="-27.3134151" lon="152.6210913">
<ele>82.088</ele>
<time>2017-09-17T01:13:12.264Z</time>
</trkpt>
<trkpt lat="-27.3127890" lon="152.6207167">
<ele>81.467</ele>
<time>2017-09-17T01:13:15.243Z</time>
</trkpt>
<trkpt lat="-27.3123592" lon="152.6204928">
<ele>80.766</ele>
<time>2017-09-17T01:13:17.244Z</time>
</trkpt>
<trkpt lat="-27.3117344" lon="152.6201467">
<ele>80.115</ele>
<time>2017-09-17T01:13:20.196Z</time>
</trkpt>
<trkpt lat="-27.3111180" lon="152.6197648">
<ele>79.602</ele>
<time>2017-09-17T01:13:23.181Z</time>
</trkpt>
<trkpt lat="-27.3107366" lon="152.6194620">
<ele>79.269</ele>
<time>2017-09-17T01:13:25.156Z</time>
</trkpt>
<trkpt lat="-27.3101363" lon="152.6190588">
<ele>79.158</ele>
<time>2017-09-17T01:13:28.103Z</time>
</trkpt>
<trkpt lat="-27.3097085" lon="152.6188301">
<ele>79.247</ele>
<time>2017-09-17T01:13:30.093Z</time>
</trkpt>
<trkpt lat="-27.3092375" lon="152.6187494">
<ele>79.431</ele>
<time>2017-09-17T01:13:32.095Z</time>
</trkpt>
<trkpt lat="-27.3085385" lon="152.6185945">
<ele>79.622</ele>
<time>2017-09-17T01:13:35.120Z</time>
</trkpt>
<trkpt lat="-27.3078411" lon="152.6185402">
<ele>79.881</ele>
<time>2017-09-17T01:13:38.128Z</time>
</trkpt>
<trkpt lat="-27.3073892" lon="152.6184309">
<ele>80.449</ele>
<time>2017-09-17T01:13:40.109Z</time>
</trkpt>
<trkpt lat="-27.3069562" lon="152.6182316">
<ele>81.461</ele>
<time>2017-09-17T01:13:42.097Z</time>
</trkpt>
<trkpt lat="-27.3063484" lon="152.6178194">
<ele>82.758</ele>
<time>2017-09-17T01:13:45.106Z</time>
</trkpt>
<trkpt lat="-27.3059299" lon="152.6175844">
<ele>84.273</ele>
<time>2017-09-17T01:13:47.100Z</time>
</trkpt>
<trkpt lat="-27.3053293" lon="152.6171566">
<ele>85.984</ele>
<time>2017-09-17T01:13:50.129Z</time>
</trkpt>
<trkpt lat="-27.3049434" lon="152.6168444">
<ele>87.777</ele>
<time>2017-09-17T01:13:52.135Z</time>
</trkpt>
<trkpt lat="-27.3045630" lon="152.6165153">
<ele>89.565</ele>
<time>2017-09-17T01:13:54.164Z</time>
</trkpt>
<trkpt lat="-27.3039451" lon="152.6161653">
<ele>91.225</ele>
<time>2017-09-17T01:13:57.090Z</time>
</trkpt>
<trkpt lat="-27.3033005" lon="152.6158371">
<ele>93.005</ele>
<time>2017-09-17T01:14:00.067Z</time>
</trkpt>
<trkpt lat="-27.3028515" lon="152.6156493">
<ele>95.621</ele>
<time>2017-09-17T01:14:02.103Z</time>
</trkpt>
<trkpt lat="-27.3021659" lon="152.6155469">
<ele>98.873</ele>
<time>2017-09-17T01:14:05.099Z</time>
</trkpt>
<trkpt lat="-27.3014995" lon="152.6156316">
<ele>101.477</ele>
<time>2017-09-17T01:14:08.048Z</time>
</trkpt>
<trkpt lat="-27.3008253" lon="152.6157825">
<ele>102.157</ele>
<time>2017-09-17T01:14:11.082Z</time>
</trkpt>
<trkpt lat="-27.3003775" lon="152.6158639">
<ele>100.385</ele>
<time>2017-09-17T01:14:13.197Z</time>
</trkpt>
<trkpt lat="-27.2998026" lon="152.6159988">
<ele>96.958</ele>
<time>2017-09-17T01:14:16.289Z</time>
</trkpt>
<trkpt lat="-27.2994958" lon="152.6160016">
<ele>93.586</ele>
<time>2017-09-17T01:14:18.193Z</time>
</trkpt>
<trkpt lat="-27.2992004" lon="152.6160831">
<ele>91.376</ele>
<time>2017-09-17T01:14:19.878Z</time>
</trkpt>
<trkpt lat="-27.2986038" lon="152.6162442">
<ele>90.472</ele>
<time>2017-09-17T01:14:22.897Z</time>
</trkpt>
<trkpt lat="-27.2979215" lon="152.6163794">
<ele>90.607</ele>
<time>2017-09-17T01:14:26.066Z</time>
</trkpt>
<trkpt lat="-27.2975102" lon="152.6164917">
<ele>91.422</ele>
<time>2017-09-17T01:14:28.024Z</time>
</trkpt>
<trkpt lat="-27.2970792" lon="152.6165490">
<ele>92.414</ele>
<time>2017-09-17T01:14:30.010Z</time>
</trkpt>
<trkpt lat="-27.2966486" lon="152.6166057">
<ele>93.129</ele>
<time>2017-09-17T01:14:31.962Z</time>
</trkpt>
<trkpt lat="-27.2961959" lon="152.6165613">
<ele>93.477</ele>
<time>2017-09-17T01:14:33.954Z</time>
</trkpt>
<trkpt lat="-27.2955066" lon="152.6162897">
<ele>93.776</ele>
<time>2017-09-17T01:14:37.096Z</time>
</trkpt>
<trkpt lat="-27.2951117" lon="152.6159981">
<ele>94.394</ele>
<time>2017-09-17T01:14:39.079Z</time>
</trkpt>
<trkpt lat="-27.2947281" lon="152.6156612">
<ele>95.455</ele>
<time>2017-09-17T01:14:41.141Z</time>
</trkpt>
<trkpt lat="-27.2941780" lon="152.6151858">
<ele>96.821</ele>
<time>2017-09-17T01:14:44.114Z</time>
</trkpt>
<trkpt lat="-27.2936096" lon="152.6147392">
<ele>98.558</ele>
<time>2017-09-17T01:14:47.074Z</time>
</trkpt>
<trkpt lat="-27.2932363" lon="152.6143994">
<ele>100.522</ele>
<time>2017-09-17T01:14:49.088Z</time>
</trkpt>
<trkpt lat="-27.2926172" lon="152.6139923">
<ele>101.755</ele>
<time>2017-09-17T01:14:52.106Z</time>
</trkpt>
<trkpt lat="-27.2920395" lon="152.6135295">
<ele>101.490</ele>
<time>2017-09-17T01:14:55.124Z</time>
</trkpt>
<trkpt lat="-27.2914511" lon="152.6130932">
<ele>100.304</ele>
<time>2017-09-17T01:14:58.122Z</time>
</trkpt>
<trkpt lat="-27.2910703" lon="152.6127715">
<ele>99.376</ele>
<time>2017-09-17T01:15:00.121Z</time>
</trkpt>
<trkpt lat="-27.2904580" lon="152.6123275">
<ele>99.237</ele>
<time>2017-09-17T01:15:03.168Z</time>
</trkpt>
<trkpt lat="-27.2900661" lon="152.6120248">
<ele>99.744</ele>
<time>2017-09-17T01:15:05.151Z</time>
</trkpt>
<trkpt lat="-27.2896527" lon="152.6117519">
<ele>100.773</ele>
<time>2017-09-17T01:15:07.122Z</time>
</trkpt>
<trkpt lat="-27.2890678" lon="152.6112594">
<ele>102.170</ele>
<time>2017-09-17T01:15:10.112Z</time>
</trkpt>
<trkpt lat="-27.2884790" lon="152.6107723">
<ele>103.463</ele>
<time>2017-09-17T01:15:13.130Z</time>
</trkpt>
<trkpt lat="-27.2881182" lon="152.6103890">
<ele>104.001</ele>
<time>2017-09-17T01:15:15.204Z</time>
</trkpt>
<trkpt lat="-27.2878922" lon="152.6099111">
<ele>103.515</ele>
<time>2017-09-17T01:15:17.229Z</time>
</trkpt>
<trkpt lat="-27.2876590" lon="152.6091579">
<ele>102.548</ele>
<time>2017-09-17T01:15:20.270Z</time>
</trkpt>
<trkpt lat="-27.2875370" lon="152.6084127">
<ele>101.836</ele>
<time>2017-09-17T01:15:23.264Z</time>
</trkpt>
<trkpt lat="-27.2875509" lon="152.6079226">
<ele>101.663</ele>
<time>2017-09-17T01:15:25.288Z</time>
</trkpt>
<trkpt lat="-27.2875793" lon="152.6072147">
<ele>101.960</ele>
<time>2017-09-17T01:15:28.345Z</time>
</trkpt>
<trkpt lat="-27.2876069" lon="152.6067833">
<ele>102.624</ele>
<time>2017-09-17T01:15:30.396Z</time>
</trkpt>
<trkpt lat="-27.2876636" lon="152.6063997">
<ele>103.527</ele>
<time>2017-09-17T01:15:32.355Z</time>
</trkpt>
<trkpt lat="-27.2877001" lon="152.6058209">
<ele>104.465</ele>
<time>2017-09-17T01:15:35.302Z</time>
</trkpt>
<trkpt lat="-27.2876422" lon="152.6054259">
<ele>105.473</ele>
<time>2017-09-17T01:15:37.337Z</time>
</trkpt>
<trkpt lat="-27.2876846" lon="152.6048443">
<ele>106.805</ele>
<time>2017-09-17T01:15:40.315Z</time>
</trkpt>
<trkpt lat="-27.2876246" lon="152.6042676">
<ele>108.607</ele>
<time>2017-09-17T01:15:43.262Z</time>
</trkpt>
<trkpt lat="-27.2874727" lon="152.6036922">
<ele>110.895</ele>
<time>2017-09-17T01:15:46.272Z</time>
</trkpt>
<trkpt lat="-27.2872092" lon="152.6031599">
<ele>113.514</ele>
<time>2017-09-17T01:15:49.302Z</time>
</trkpt>
<trkpt lat="-27.2870223" lon="152.6028077">
<ele>116.213</ele>
<time>2017-09-17T01:15:51.329Z</time>
</trkpt>
<trkpt lat="-27.2868057" lon="152.6024710">
<ele>118.777</ele>
<time>2017-09-17T01:15:53.358Z</time>
</trkpt>
<trkpt lat="-27.2864066" lon="152.6020246">
<ele>120.999</ele>
<time>2017-09-17T01:15:56.402Z</time>
</trkpt>
<trkpt lat="-27.2859550" lon="152.6016437">
<ele>123.115</ele>
<time>2017-09-17T01:15:59.452Z</time>
</trkpt>
<trkpt lat="-27.2854814" lon="152.6013655">
<ele>125.771</ele>
<time>2017-09-17T01:16:02.336Z</time>
</trkpt>
<trkpt lat="-27.2851176" lon="152.6012183">
<ele>129.044</ele>
<time>2017-09-17T01:16:04.377Z</time>
</trkpt>
<trkpt lat="-27.2847561" lon="152.6010975">
<ele>132.122</ele>
<time>2017-09-17T01:16:06.338Z</time>
</trkpt>
<trkpt lat="-27.2841779" lon="152.6009947">
<ele>134.130</ele>
<time>2017-09-17T01:16:09.420Z</time>
</trkpt>
<trkpt lat="-27.2838199" lon="152.6008882">
<ele>134.768</ele>
<time>2017-09-17T01:16:11.398Z</time>
</trkpt>
<trkpt lat="-27.2834947" lon="152.6006751">
<ele>134.239</ele>
<time>2017-09-17T01:16:13.401Z</time>
</trkpt>
<trkpt lat="-27.2830222" lon="152.6001850">
<ele>132.851</ele>
<time>2017-09-17T01:16:16.805Z</time>
</trkpt>
<trkpt lat="-27.2828159" lon="152.5998170">
<ele>130.686</ele>
<time>2017-09-17T01:16:18.839Z</time>
</trkpt>
<trkpt lat="-27.2826290" lon="152.5994532">
<ele>127.882</ele>
<time>2017-09-17T01:16:20.804Z</time>
</trkpt>
<trkpt lat="-27.2823551" lon="152.5989190">
<ele>124.996</ele>
<time>2017-09-17T01:16:23.685Z</time>
</trkpt>
<trkpt lat="-27.2821635" lon="152.5985552">
<ele>122.388</ele>
<time>2017-09-17T01:16:25.620Z</time>
</trkpt>
<trkpt lat="-27.2817341" lon="152.5980687">
<ele>119.981</ele>
<time>2017-09-17T01:16:28.717Z</time>
</trkpt>
<trkpt lat="-27.2813963" lon="152.5978359">
<ele>117.716</ele>
<time>2017-09-17T01:16:30.710Z</time>
</trkpt>
<trkpt lat="-27.2810095" lon="152.5977067">
<ele>115.584</ele>
<time>2017-09-17T01:16:32.716Z</time>
</trkpt>
<trkpt lat="-27.2804185" lon="152.5975367">
<ele>113.550</ele>
<time>2017-09-17T01:16:35.747Z</time>
</trkpt>
<trkpt lat="-27.2798424" lon="152.5973452">
<ele>111.543</ele>
<time>2017-09-17T01:16:38.773Z</time>
</trkpt>
<trkpt lat="-27.2794953" lon="152.5971347">
<ele>109.441</ele>
<time>2017-09-17T01:16:40.775Z</time>
</trkpt>
<trkpt lat="-27.2791884" lon="152.5968486">
<ele>107.423</ele>
<time>2017-09-17T01:16:42.803Z</time>
</trkpt>
<trkpt lat="-27.2787918" lon="152.5963451">
<ele>105.778</ele>
<time>2017-09-17T01:16:45.865Z</time>
</trkpt>
<trkpt lat="-27.2785413" lon="152.5960135">
<ele>104.339</ele>
<time>2017-09-17T01:16:47.798Z</time>
</trkpt>
<trkpt lat="-27.2782677" lon="152.5956954">
<ele>102.930</ele>
<time>2017-09-17T01:16:49.713Z</time>
</trkpt>
<trkpt lat="-27.2778342" lon="152.5951592">
<ele>101.873</ele>
<time>2017-09-17T01:16:52.716Z</time>
</trkpt>
<trkpt lat="-27.2775396" lon="152.5948100">
<ele>101.456</ele>
<time>2017-09-17T01:16:54.684Z</time>
</trkpt>
<trkpt lat="-27.2770903" lon="152.5942796">
<ele>101.518</ele>
<time>2017-09-17T01:16:57.693Z</time>
</trkpt>
<trkpt lat="-27.2768063" lon="152.5939127">
<ele>101.467</ele>
<time>2017-09-17T01:16:59.722Z</time>
</trkpt>
<trkpt lat="-27.2763512" lon="152.5934357">
<ele>100.581</ele>
<time>2017-09-17T01:17:02.781Z</time>
</trkpt>
<trkpt lat="-27.2761509" lon="152.5930590">
<ele>98.493</ele>
<time>2017-09-17T01:17:04.727Z</time>
</trkpt>
<trkpt lat="-27.2759854" lon="152.5926394">
<ele>95.653</ele>
<time>2017-09-17T01:17:06.726Z</time>
</trkpt>
<trkpt lat="-27.2758404" lon="152.5922014">
<ele>93.157</ele>
<time>2017-09-17T01:17:08.744Z</time>
</trkpt>
<trkpt lat="-27.2756960" lon="152.5917651">
<ele>91.706</ele>
<time>2017-09-17T01:17:10.781Z</time>
</trkpt>
<trkpt lat="-27.2755877" lon="152.5913355">
<ele>91.043</ele>
<time>2017-09-17T01:17:12.763Z</time>
</trkpt>
<trkpt lat="-27.2754493" lon="152.5906934">
<ele>90.599</ele>
<time>2017-09-17T01:17:15.800Z</time>
</trkpt>
<trkpt lat="-27.2753099" lon="152.5902662">
<ele>89.948</ele>
<time>2017-09-17T01:17:17.947Z</time>
</trkpt>
<trkpt lat="-27.2750853" lon="152.5896937">
<ele>88.916</ele>
<time>2017-09-17T01:17:20.906Z</time>
</trkpt>
<trkpt lat="-27.2749477" lon="152.5892952">
<ele>87.551</ele>
<time>2017-09-17T01:17:22.899Z</time>
</trkpt>
<trkpt lat="-27.2747189" lon="152.5889454">
<ele>86.056</ele>
<time>2017-09-17T01:17:24.905Z</time>
</trkpt>
<trkpt lat="-27.2743187" lon="152.5884748">
<ele>84.626</ele>
<time>2017-09-17T01:17:27.766Z</time>
</trkpt>
<trkpt lat="-27.2739735" lon="152.5881981">
<ele>83.157</ele>
<time>2017-09-17T01:17:29.713Z</time>
</trkpt>
<trkpt lat="-27.2735737" lon="152.5879905">
<ele>81.578</ele>
<time>2017-09-17T01:17:31.579Z</time>
</trkpt>
<trkpt lat="-27.2731350" lon="152.5877694">
<ele>80.298</ele>
<time>2017-09-17T01:17:33.472Z</time>
</trkpt>
<trkpt lat="-27.2723888" lon="152.5873989">
<ele>79.704</ele>
<time>2017-09-17T01:17:36.488Z</time>
</trkpt>
<trkpt lat="-27.2719050" lon="152.5870987">
<ele>79.813</ele>
<time>2017-09-17T01:17:38.545Z</time>
</trkpt>
<trkpt lat="-27.2712423" lon="152.5866257">
<ele>80.356</ele>
<time>2017-09-17T01:17:41.601Z</time>
</trkpt>
<trkpt lat="-27.2708186" lon="152.5863293">
<ele>80.776</ele>
<time>2017-09-17T01:17:43.483Z</time>
</trkpt>
<trkpt lat="-27.2703263" lon="152.5860239">
<ele>80.730</ele>
<time>2017-09-17T01:17:45.437Z</time>
</trkpt>
<trkpt lat="-27.2697810" lon="152.5857159">
<ele>80.433</ele>
<time>2017-09-17T01:17:47.489Z</time>
</trkpt>
<trkpt lat="-27.2692649" lon="152.5853729">
<ele>80.405</ele>
<time>2017-09-17T01:17:49.593Z</time>
</trkpt>
<trkpt lat="-27.2685647" lon="152.5849508">
<ele>80.848</ele>
<time>2017-09-17T01:17:52.634Z</time>
</trkpt>
<trkpt lat="-27.2681171" lon="152.5847253">
<ele>81.179</ele>
<time>2017-09-17T01:17:54.585Z</time>
</trkpt>
<trkpt lat="-27.2674455" lon="152.5843659">
<ele>80.639</ele>
<time>2017-09-17T01:17:57.551Z</time>
</trkpt>
<trkpt lat="-27.2669865" lon="152.5841276">
<ele>79.074</ele>
<time>2017-09-17T01:17:59.587Z</time>
</trkpt>
<trkpt lat="-27.2665565" lon="152.5838627">
<ele>76.936</ele>
<time>2017-09-17T01:18:01.602Z</time>
</trkpt>
<trkpt lat="-27.2661854" lon="152.5835438">
<ele>74.830</ele>
<time>2017-09-17T01:18:03.545Z</time>
</trkpt>
<trkpt lat="-27.2657129" lon="152.5829154">
<ele>73.025</ele>
<time>2017-09-17T01:18:06.586Z</time>
</trkpt>
<trkpt lat="-27.2652233" lon="152.5823273">
<ele>71.612</ele>
<time>2017-09-17T01:18:09.554Z</time>
</trkpt>
<trkpt lat="-27.2647490" lon="152.5816951">
<ele>70.725</ele>
<time>2017-09-17T01:18:12.591Z</time>
</trkpt>
<trkpt lat="-27.2642573" lon="152.5811047">
<ele>70.289</ele>
<time>2017-09-17T01:18:15.557Z</time>
</trkpt>
<trkpt lat="-27.2637684" lon="152.5805053">
<ele>70.057</ele>
<time>2017-09-17T01:18:18.535Z</time>
</trkpt>
<trkpt lat="-27.2634490" lon="152.5800972">
<ele>69.886</ele>
<time>2017-09-17T01:18:20.527Z</time>
</trkpt>
<trkpt lat="-27.2631156" lon="152.5797044">
<ele>69.720</ele>
<time>2017-09-17T01:18:22.525Z</time>
</trkpt>
<trkpt lat="-27.2625265" lon="152.5792476">
<ele>69.483</ele>
<time>2017-09-17T01:18:25.513Z</time>
</trkpt>
<trkpt lat="-27.2621169" lon="152.5789813">
<ele>69.094</ele>
<time>2017-09-17T01:18:27.497Z</time>
</trkpt>
<trkpt lat="-27.2614834" lon="152.5786342">
<ele>68.599</ele>
<time>2017-09-17T01:18:30.437Z</time>
</trkpt>
<trkpt lat="-27.2607945" lon="152.5783909">
<ele>68.141</ele>
<time>2017-09-17T01:18:33.424Z</time>
</trkpt>
<trkpt lat="-27.2603219" lon="152.5782822">
<ele>67.769</ele>
<time>2017-09-17T01:18:35.413Z</time>
</trkpt>
<trkpt lat="-27.2596223" lon="152.5780627">
<ele>67.446</ele>
<time>2017-09-17T01:18:38.397Z</time>
</trkpt>
<trkpt lat="-27.2589019" lon="152.5779151">
<ele>67.195</ele>
<time>2017-09-17T01:18:41.406Z</time>
</trkpt>
<trkpt lat="-27.2584340" lon="152.5777854">
<ele>67.026</ele>
<time>2017-09-17T01:18:43.394Z</time>
</trkpt>
<trkpt lat="-27.2577371" lon="152.5775875">
<ele>66.890</ele>
<time>2017-09-17T01:18:46.353Z</time>
</trkpt>
<trkpt lat="-27.2570308" lon="152.5773922">
<ele>66.664</ele>
<time>2017-09-17T01:18:49.335Z</time>
</trkpt>
<trkpt lat="-27.2563480" lon="152.5770963">
<ele>66.147</ele>
<time>2017-09-17T01:18:52.316Z</time>
</trkpt>
<trkpt lat="-27.2559068" lon="152.5768446">
<ele>65.349</ele>
<time>2017-09-17T01:18:54.321Z</time>
</trkpt>
<trkpt lat="-27.2552320" lon="152.5765162">
<ele>64.587</ele>
<time>2017-09-17T01:18:57.309Z</time>
</trkpt>
<trkpt lat="-27.2547952" lon="152.5762761">
<ele>64.104</ele>
<time>2017-09-17T01:18:59.284Z</time>
</trkpt>
<trkpt lat="-27.2541125" lon="152.5759484">
<ele>63.851</ele>
<time>2017-09-17T01:19:02.289Z</time>
</trkpt>
<trkpt lat="-27.2534094" lon="152.5756842">
<ele>63.693</ele>
<time>2017-09-17T01:19:05.283Z</time>
</trkpt>
<trkpt lat="-27.2529226" lon="152.5756048">
<ele>63.593</ele>
<time>2017-09-17T01:19:07.278Z</time>
</trkpt>
<trkpt lat="-27.2524340" lon="152.5755779">
<ele>63.608</ele>
<time>2017-09-17T01:19:09.266Z</time>
</trkpt>
<trkpt lat="-27.2517003" lon="152.5755270">
<ele>63.811</ele>
<time>2017-09-17T01:19:12.265Z</time>
</trkpt>
<trkpt lat="-27.2512168" lon="152.5755012">
<ele>64.486</ele>
<time>2017-09-17T01:19:14.253Z</time>
</trkpt>
<trkpt lat="-27.2504902" lon="152.5754361">
<ele>66.023</ele>
<time>2017-09-17T01:19:17.236Z</time>
</trkpt>
<trkpt lat="-27.2500033" lon="152.5753378">
<ele>68.668</ele>
<time>2017-09-17T01:19:19.259Z</time>
</trkpt>
<trkpt lat="-27.2495410" lon="152.5751821">
<ele>72.115</ele>
<time>2017-09-17T01:19:21.235Z</time>
</trkpt>
<trkpt lat="-27.2488692" lon="152.5748319">
<ele>75.498</ele>
<time>2017-09-17T01:19:24.266Z</time>
</trkpt>
<trkpt lat="-27.2482249" lon="152.5744475">
<ele>78.425</ele>
<time>2017-09-17T01:19:27.235Z</time>
</trkpt>
<trkpt lat="-27.2477953" lon="152.5741803">
<ele>81.375</ele>
<time>2017-09-17T01:19:29.214Z</time>
</trkpt>
<trkpt lat="-27.2473547" lon="152.5739101">
<ele>84.459</ele>
<time>2017-09-17T01:19:31.230Z</time>
</trkpt>
<trkpt lat="-27.2467058" lon="152.5734887">
<ele>87.151</ele>
<time>2017-09-17T01:19:34.249Z</time>
</trkpt>
<trkpt lat="-27.2460563" lon="152.5730926">
<ele>89.031</ele>
<time>2017-09-17T01:19:37.244Z</time>
</trkpt>
<trkpt lat="-27.2453985" lon="152.5727152">
<ele>90.050</ele>
<time>2017-09-17T01:19:40.233Z</time>
</trkpt>
<trkpt lat="-27.2449520" lon="152.5724555">
<ele>90.247</ele>
<time>2017-09-17T01:19:42.254Z</time>
</trkpt>
<trkpt lat="-27.2442776" lon="152.5720890">
<ele>89.655</ele>
<time>2017-09-17T01:19:45.269Z</time>
</trkpt>
<trkpt lat="-27.2436083" lon="152.5717331">
<ele>88.182</ele>
<time>2017-09-17T01:19:48.255Z</time>
</trkpt>
<trkpt lat="-27.2429527" lon="152.5713398">
<ele>86.178</ele>
<time>2017-09-17T01:19:51.253Z</time>
</trkpt>
<trkpt lat="-27.2422551" lon="152.5710516">
<ele>84.626</ele>
<time>2017-09-17T01:19:54.249Z</time>
</trkpt>
<trkpt lat="-27.2418043" lon="152.5708235">
<ele>83.034</ele>
<time>2017-09-17T01:19:56.238Z</time>
</trkpt>
<trkpt lat="-27.2411205" lon="152.5704880">
<ele>80.095</ele>
<time>2017-09-17T01:19:59.238Z</time>
</trkpt>
<trkpt lat="-27.2404190" lon="152.5702137">
<ele>76.342</ele>
<time>2017-09-17T01:20:02.241Z</time>
</trkpt>
<trkpt lat="-27.2396993" lon="152.5700954">
<ele>72.950</ele>
<time>2017-09-17T01:20:05.203Z</time>
</trkpt>
<trkpt lat="-27.2389728" lon="152.5699696">
<ele>70.155</ele>
<time>2017-09-17T01:20:08.206Z</time>
</trkpt>
<trkpt lat="-27.2384934" lon="152.5698625">
<ele>68.152</ele>
<time>2017-09-17T01:20:10.244Z</time>
</trkpt>
<trkpt lat="-27.2380349" lon="152.5697336">
<ele>67.122</ele>
<time>2017-09-17T01:20:12.249Z</time>
</trkpt>
<trkpt lat="-27.2374236" lon="152.5692809">
<ele>66.921</ele>
<time>2017-09-17T01:20:15.327Z</time>
</trkpt>
<trkpt lat="-27.2370686" lon="152.5689146">
<ele>67.231</ele>
<time>2017-09-17T01:20:17.324Z</time>
</trkpt>
<trkpt lat="-27.2365294" lon="152.5683731">
<ele>67.722</ele>
<time>2017-09-17T01:20:20.284Z</time>
</trkpt>
<trkpt lat="-27.2359893" lon="152.5677892">
<ele>67.980</ele>
<time>2017-09-17T01:20:23.326Z</time>
</trkpt>
<trkpt lat="-27.2356123" lon="152.5674428">
<ele>67.839</ele>
<time>2017-09-17T01:20:25.319Z</time>
</trkpt>
<trkpt lat="-27.2350879" lon="152.5668914">
<ele>67.608</ele>
<time>2017-09-17T01:20:28.278Z</time>
</trkpt>
<trkpt lat="-27.2347320" lon="152.5665292">
<ele>67.911</ele>
<time>2017-09-17T01:20:30.249Z</time>
</trkpt>
<trkpt lat="-27.2343398" lon="152.5662005">
<ele>69.156</ele>
<time>2017-09-17T01:20:32.236Z</time>
</trkpt>
<trkpt lat="-27.2337264" lon="152.5657291">
<ele>71.178</ele>
<time>2017-09-17T01:20:35.238Z</time>
</trkpt>
<trkpt lat="-27.2330763" lon="152.5653160">
<ele>73.542</ele>
<time>2017-09-17T01:20:38.259Z</time>
</trkpt>
<trkpt lat="-27.2324074" lon="152.5649865">
<ele>75.911</ele>
<time>2017-09-17T01:20:41.229Z</time>
</trkpt>
<trkpt lat="-27.2319702" lon="152.5647451">
<ele>78.136</ele>
<time>2017-09-17T01:20:43.213Z</time>
</trkpt>
<trkpt lat="-27.2313736" lon="152.5642693">
<ele>80.185</ele>
<time>2017-09-17T01:20:46.164Z</time>
</trkpt>
<trkpt lat="-27.2308556" lon="152.5636593">
<ele>82.091</ele>
<time>2017-09-17T01:20:49.185Z</time>
</trkpt>
<trkpt lat="-27.2303671" lon="152.5630367">
<ele>83.736</ele>
<time>2017-09-17T01:20:52.183Z</time>
</trkpt>
<trkpt lat="-27.2300138" lon="152.5626379">
<ele>84.678</ele>
<time>2017-09-17T01:20:54.216Z</time>
</trkpt>
<trkpt lat="-27.2296879" lon="152.5622182">
<ele>84.516</ele>
<time>2017-09-17T01:20:56.234Z</time>
</trkpt>
<trkpt lat="-27.2292074" lon="152.5616023">
<ele>83.433</ele>
<time>2017-09-17T01:20:59.213Z</time>
</trkpt>
<trkpt lat="-27.2287386" lon="152.5609807">
<ele>82.127</ele>
<time>2017-09-17T01:21:02.173Z</time>
</trkpt>
<trkpt lat="-27.2284777" lon="152.5605162">
<ele>81.462</ele>
<time>2017-09-17T01:21:04.156Z</time>
</trkpt>
<trkpt lat="-27.2280365" lon="152.5598500">
<ele>81.733</ele>
<time>2017-09-17T01:21:07.140Z</time>
</trkpt>
<trkpt lat="-27.2276862" lon="152.5591175">
<ele>82.571</ele>
<time>2017-09-17T01:21:10.108Z</time>
</trkpt>
<trkpt lat="-27.2274149" lon="152.5583396">
<ele>83.431</ele>
<time>2017-09-17T01:21:13.111Z</time>
</trkpt>
<trkpt lat="-27.2271539" lon="152.5575856">
<ele>83.765</ele>
<time>2017-09-17T01:21:16.104Z</time>
</trkpt>
<trkpt lat="-27.2269262" lon="152.5571335">
<ele>82.843</ele>
<time>2017-09-17T01:21:18.147Z</time>
</trkpt>
<trkpt lat="-27.2265777" lon="152.5565101">
<ele>80.412</ele>
<time>2017-09-17T01:21:21.103Z</time>
</trkpt>
<trkpt lat="-27.2261872" lon="152.5562432">
<ele>77.118</ele>
<time>2017-09-17T01:21:23.108Z</time>
</trkpt>
<trkpt lat="-27.2254830" lon="152.5561178">
<ele>73.955</ele>
<time>2017-09-17T01:21:26.113Z</time>
</trkpt>
<trkpt lat="-27.2249786" lon="152.5561662">
<ele>71.617</ele>
<time>2017-09-17T01:21:28.179Z</time>
</trkpt>
<trkpt lat="-27.2242458" lon="152.5562104">
<ele>70.357</ele>
<time>2017-09-17T01:21:31.205Z</time>
</trkpt>
<trkpt lat="-27.2235410" lon="152.5562673">
<ele>69.807</ele>
<time>2017-09-17T01:21:34.119Z</time>
</trkpt>
<trkpt lat="-27.2230503" lon="152.5562972">
<ele>69.457</ele>
<time>2017-09-17T01:21:36.100Z</time>
</trkpt>
<trkpt lat="-27.2225532" lon="152.5563136">
<ele>69.190</ele>
<time>2017-09-17T01:21:38.088Z</time>
</trkpt>
<trkpt lat="-27.2218092" lon="152.5562113">
<ele>69.135</ele>
<time>2017-09-17T01:21:41.085Z</time>
</trkpt>
<trkpt lat="-27.2210644" lon="152.5561812">
<ele>69.769</ele>
<time>2017-09-17T01:21:44.087Z</time>
</trkpt>
<trkpt lat="-27.2203312" lon="152.5560935">
<ele>71.895</ele>
<time>2017-09-17T01:21:47.095Z</time>
</trkpt>
<trkpt lat="-27.2198583" lon="152.5560054">
<ele>75.762</ele>
<time>2017-09-17T01:21:49.071Z</time>
</trkpt>
<trkpt lat="-27.2193826" lon="152.5559505">
<ele>80.499</ele>
<time>2017-09-17T01:21:51.045Z</time>
</trkpt>
<trkpt lat="-27.2189095" lon="152.5558402">
<ele>84.795</ele>
<time>2017-09-17T01:21:53.032Z</time>
</trkpt>
<trkpt lat="-27.2181852" lon="152.5556580">
<ele>88.134</ele>
<time>2017-09-17T01:21:56.062Z</time>
</trkpt>
<trkpt lat="-27.2174655" lon="152.5554935">
<ele>91.326</ele>
<time>2017-09-17T01:21:59.033Z</time>
</trkpt>
<trkpt lat="-27.2167184" lon="152.5554226">
<ele>95.180</ele>
<time>2017-09-17T01:22:02.059Z</time>
</trkpt>
<trkpt lat="-27.2159914" lon="152.5552866">
<ele>99.019</ele>
<time>2017-09-17T01:22:05.034Z</time>
</trkpt>
<trkpt lat="-27.2154996" lon="152.5552217">
<ele>101.472</ele>
<time>2017-09-17T01:22:07.025Z</time>
</trkpt>
<trkpt lat="-27.2147709" lon="152.5550596">
<ele>102.263</ele>
<time>2017-09-17T01:22:10.015Z</time>
</trkpt>
<trkpt lat="-27.2142849" lon="152.5549889">
<ele>101.992</ele>
<time>2017-09-17T01:22:11.992Z</time>
</trkpt>
<trkpt lat="-27.2138066" lon="152.5548464">
<ele>101.250</ele>
<time>2017-09-17T01:22:13.984Z</time>
</trkpt>
<trkpt lat="-27.2133146" lon="152.5547798">
<ele>100.371</ele>
<time>2017-09-17T01:22:15.970Z</time>
</trkpt>
<trkpt lat="-27.2125666" lon="152.5548365">
<ele>99.371</ele>
<time>2017-09-17T01:22:18.982Z</time>
</trkpt>
<trkpt lat="-27.2120878" lon="152.5549797">
<ele>97.967</ele>
<time>2017-09-17T01:22:20.993Z</time>
</trkpt>
<trkpt lat="-27.2116147" lon="152.5551103">
<ele>96.031</ele>
<time>2017-09-17T01:22:22.973Z</time>
</trkpt>
<trkpt lat="-27.2108881" lon="152.5552822">
<ele>93.816</ele>
<time>2017-09-17T01:22:25.991Z</time>
</trkpt>
<trkpt lat="-27.2101744" lon="152.5554733">
<ele>91.454</ele>
<time>2017-09-17T01:22:28.977Z</time>
</trkpt>
<trkpt lat="-27.2096915" lon="152.5555899">
<ele>88.949</ele>
<time>2017-09-17T01:22:30.978Z</time>
</trkpt>
<trkpt lat="-27.2089550" lon="152.5557884">
<ele>86.824</ele>
<time>2017-09-17T01:22:34.047Z</time>
</trkpt>
<trkpt lat="-27.2084811" lon="152.5559260">
<ele>85.669</ele>
<time>2017-09-17T01:22:36.044Z</time>
</trkpt>
<trkpt lat="-27.2077873" lon="152.5561500">
<ele>85.445</ele>
<time>2017-09-17T01:22:38.987Z</time>
</trkpt>
<trkpt lat="-27.2073263" lon="152.5563239">
<ele>85.748</ele>
<time>2017-09-17T01:22:40.969Z</time>
</trkpt>
<trkpt lat="-27.2068516" lon="152.5564725">
<ele>86.258</ele>
<time>2017-09-17T01:22:42.987Z</time>
</trkpt>
<trkpt lat="-27.2061487" lon="152.5566968">
<ele>86.925</ele>
<time>2017-09-17T01:22:45.977Z</time>
</trkpt>
<trkpt lat="-27.2056760" lon="152.5568336">
<ele>87.995</ele>
<time>2017-09-17T01:22:47.952Z</time>
</trkpt>
<trkpt lat="-27.2049449" lon="152.5569398">
<ele>89.529</ele>
<time>2017-09-17T01:22:50.904Z</time>
</trkpt>
<trkpt lat="-27.2041935" lon="152.5570064">
<ele>91.015</ele>
<time>2017-09-17T01:22:53.900Z</time>
</trkpt>
<trkpt lat="-27.2036972" lon="152.5570694">
<ele>91.746</ele>
<time>2017-09-17T01:22:55.906Z</time>
</trkpt>
<trkpt lat="-27.2029702" lon="152.5571631">
<ele>91.440</ele>
<time>2017-09-17T01:22:58.872Z</time>
</trkpt>
<trkpt lat="-27.2022399" lon="152.5571966">
<ele>90.303</ele>
<time>2017-09-17T01:23:01.852Z</time>
</trkpt>
<trkpt lat="-27.2017538" lon="152.5571679">
<ele>88.952</ele>
<time>2017-09-17T01:23:03.836Z</time>
</trkpt>
<trkpt lat="-27.2010178" lon="152.5571349">
<ele>88.116</ele>
<time>2017-09-17T01:23:06.835Z</time>
</trkpt>
<trkpt lat="-27.2005264" lon="152.5570734">
<ele>88.065</ele>
<time>2017-09-17T01:23:08.832Z</time>
</trkpt>
<trkpt lat="-27.2000274" lon="152.5570793">
<ele>88.517</ele>
<time>2017-09-17T01:23:10.829Z</time>
</trkpt>
<trkpt lat="-27.1995286" lon="152.5570599">
<ele>89.051</ele>
<time>2017-09-17T01:23:12.830Z</time>
</trkpt>
<trkpt lat="-27.1987845" lon="152.5570596">
<ele>89.425</ele>
<time>2017-09-17T01:23:15.819Z</time>
</trkpt>
<trkpt lat="-27.1982857" lon="152.5570175">
<ele>89.690</ele>
<time>2017-09-17T01:23:17.837Z</time>
</trkpt>
<trkpt lat="-27.1975513" lon="152.5570066">
<ele>89.938</ele>
<time>2017-09-17T01:23:20.817Z</time>
</trkpt>
<trkpt lat="-27.1970646" lon="152.5569950">
<ele>90.102</ele>
<time>2017-09-17T01:23:22.810Z</time>
</trkpt>
<trkpt lat="-27.1963366" lon="152.5569774">
<ele>90.136</ele>
<time>2017-09-17T01:23:25.798Z</time>
</trkpt>
<trkpt lat="-27.1956048" lon="152.5569341">
<ele>90.217</ele>
<time>2017-09-17T01:23:28.806Z</time>
</trkpt>
<trkpt lat="-27.1951319" lon="152.5569011">
<ele>90.979</ele>
<time>2017-09-17T01:23:30.748Z</time>
</trkpt>
<trkpt lat="-27.1944010" lon="152.5568542">
<ele>92.950</ele>
<time>2017-09-17T01:23:33.745Z</time>
</trkpt>
<trkpt lat="-27.1936810" lon="152.5567345">
<ele>95.997</ele>
<time>2017-09-17T01:23:36.725Z</time>
</trkpt>
<trkpt lat="-27.1932140" lon="152.5565876">
<ele>99.485</ele>
<time>2017-09-17T01:23:38.705Z</time>
</trkpt>
<trkpt lat="-27.1924815" lon="152.5563725">
<ele>102.747</ele>
<time>2017-09-17T01:23:41.775Z</time>
</trkpt>
<trkpt lat="-27.1917902" lon="152.5560362">
<ele>105.822</ele>
<time>2017-09-17T01:23:44.813Z</time>
</trkpt>
<trkpt lat="-27.1913326" lon="152.5558281">
<ele>109.216</ele>
<time>2017-09-17T01:23:46.807Z</time>
</trkpt>
<trkpt lat="-27.1908874" lon="152.5556034">
<ele>112.573</ele>
<time>2017-09-17T01:23:48.777Z</time>
</trkpt>
<trkpt lat="-27.1902066" lon="152.5552446">
<ele>115.120</ele>
<time>2017-09-17T01:23:51.805Z</time>
</trkpt>
<trkpt lat="-27.1897592" lon="152.5550050">
<ele>116.851</ele>
<time>2017-09-17T01:23:53.798Z</time>
</trkpt>
<trkpt lat="-27.1890509" lon="152.5547526">
<ele>118.234</ele>
<time>2017-09-17T01:23:56.789Z</time>
</trkpt>
<trkpt lat="-27.1883089" lon="152.5548345">
<ele>119.450</ele>
<time>2017-09-17T01:23:59.804Z</time>
</trkpt>
<trkpt lat="-27.1876242" lon="152.5551334">
<ele>120.384</ele>
<time>2017-09-17T01:24:02.795Z</time>
</trkpt>
<trkpt lat="-27.1871930" lon="152.5554460">
<ele>121.257</ele>
<time>2017-09-17T01:24:04.884Z</time>
</trkpt>
<trkpt lat="-27.1866267" lon="152.5560026">
<ele>122.374</ele>
<time>2017-09-17T01:24:07.936Z</time>
</trkpt>
<trkpt lat="-27.1860623" lon="152.5565162">
<ele>123.597</ele>
<time>2017-09-17T01:24:10.891Z</time>
</trkpt>
<trkpt lat="-27.1857152" lon="152.5568719">
<ele>124.702</ele>
<time>2017-09-17T01:24:12.833Z</time>
</trkpt>
<trkpt lat="-27.1851728" lon="152.5573926">
<ele>125.663</ele>
<time>2017-09-17T01:24:15.792Z</time>
</trkpt>
<trkpt lat="-27.1846186" lon="152.5579120">
<ele>126.487</ele>
<time>2017-09-17T01:24:18.787Z</time>
</trkpt>
<trkpt lat="-27.1842000" lon="152.5582370">
<ele>127.146</ele>
<time>2017-09-17T01:24:20.893Z</time>
</trkpt>
<trkpt lat="-27.1836257" lon="152.5586897">
<ele>127.497</ele>
<time>2017-09-17T01:24:23.790Z</time>
</trkpt>
<trkpt lat="-27.1830597" lon="152.5592065">
<ele>127.326</ele>
<time>2017-09-17T01:24:26.783Z</time>
</trkpt>
<trkpt lat="-27.1826923" lon="152.5595749">
<ele>126.706</ele>
<time>2017-09-17T01:24:28.785Z</time>
</trkpt>
<trkpt lat="-27.1822561" lon="152.5602469">
<ele>126.050</ele>
<time>2017-09-17T01:24:31.786Z</time>
</trkpt>
<trkpt lat="-27.1819816" lon="152.5607230">
<ele>125.671</ele>
<time>2017-09-17T01:24:33.829Z</time>
</trkpt>
<trkpt lat="-27.1817171" lon="152.5611928">
<ele>125.501</ele>
<time>2017-09-17T01:24:35.832Z</time>
</trkpt>
<trkpt lat="-27.1814458" lon="152.5616524">
<ele>125.393</ele>
<time>2017-09-17T01:24:37.830Z</time>
</trkpt>
<trkpt lat="-27.1810310" lon="152.5623279">
<ele>125.319</ele>
<time>2017-09-17T01:24:40.816Z</time>
</trkpt>
<trkpt lat="-27.1807513" lon="152.5627755">
<ele>125.397</ele>
<time>2017-09-17T01:24:42.812Z</time>
</trkpt>
<trkpt lat="-27.1803653" lon="152.5634767">
<ele>125.791</ele>
<time>2017-09-17T01:24:45.822Z</time>
</trkpt>
<trkpt lat="-27.1799780" lon="152.5638133">
<ele>126.780</ele>
<time>2017-09-17T01:24:47.825Z</time>
</trkpt>
<trkpt lat="-27.1793211" lon="152.5642040">
<ele>128.490</ele>
<time>2017-09-17T01:24:50.855Z</time>
</trkpt>
<trkpt lat="-27.1788616" lon="152.5644196">
<ele>130.743</ele>
<time>2017-09-17T01:24:52.867Z</time>
</trkpt>
<trkpt lat="-27.1783903" lon="152.5646033">
<ele>133.221</ele>
<time>2017-09-17T01:24:54.870Z</time>
</trkpt>
<trkpt lat="-27.1779184" lon="152.5647737">
<ele>135.487</ele>
<time>2017-09-17T01:24:56.860Z</time>
</trkpt>
<trkpt lat="-27.1771967" lon="152.5649504">
<ele>137.139</ele>
<time>2017-09-17T01:24:59.838Z</time>
</trkpt>
<trkpt lat="-27.1767294" lon="152.5651244">
<ele>138.354</ele>
<time>2017-09-17T01:25:01.826Z</time>
</trkpt>
<trkpt lat="-27.1760099" lon="152.5653424">
<ele>139.436</ele>
<time>2017-09-17T01:25:04.831Z</time>
</trkpt>
<trkpt lat="-27.1755240" lon="152.5654529">
<ele>140.243</ele>
<time>2017-09-17T01:25:06.830Z</time>
</trkpt>
<trkpt lat="-27.1750560" lon="152.5656416">
<ele>140.510</ele>
<time>2017-09-17T01:25:08.844Z</time>
</trkpt>
<trkpt lat="-27.1743447" lon="152.5658825">
<ele>140.247</ele>
<time>2017-09-17T01:25:11.873Z</time>
</trkpt>
<trkpt lat="-27.1739203" lon="152.5660580">
<ele>139.584</ele>
<time>2017-09-17T01:25:13.739Z</time>
</trkpt>
<trkpt lat="-27.1733014" lon="152.5665149">
<ele>138.582</ele>
<time>2017-09-17T01:25:16.798Z</time>
</trkpt>
<trkpt lat="-27.1729373" lon="152.5668806">
<ele>137.174</ele>
<time>2017-09-17T01:25:18.822Z</time>
</trkpt>
<trkpt lat="-27.1724454" lon="152.5674742">
<ele>135.461</ele>
<time>2017-09-17T01:25:21.822Z</time>
</trkpt>
<trkpt lat="-27.1720157" lon="152.5681242">
<ele>133.949</ele>
<time>2017-09-17T01:25:24.818Z</time>
</trkpt>
<trkpt lat="-27.1717911" lon="152.5686398">
<ele>133.244</ele>
<time>2017-09-17T01:25:26.921Z</time>
</trkpt>
<trkpt lat="-27.1715017" lon="152.5693859">
<ele>133.557</ele>
<time>2017-09-17T01:25:29.891Z</time>
</trkpt>
<trkpt lat="-27.1713525" lon="152.5701700">
<ele>134.634</ele>
<time>2017-09-17T01:25:32.820Z</time>
</trkpt>
<trkpt lat="-27.1712744" lon="152.5707166">
<ele>136.115</ele>
<time>2017-09-17T01:25:34.846Z</time>
</trkpt>
<trkpt lat="-27.1711463" lon="152.5712433">
<ele>137.757</ele>
<time>2017-09-17T01:25:36.844Z</time>
</trkpt>
<trkpt lat="-27.1708515" lon="152.5719932">
<ele>139.189</ele>
<time>2017-09-17T01:25:39.846Z</time>
</trkpt>
<trkpt lat="-27.1703955" lon="152.5726289">
<ele>140.005</ele>
<time>2017-09-17T01:25:42.836Z</time>
</trkpt>
<trkpt lat="-27.1700075" lon="152.5729645">
<ele>140.105</ele>
<time>2017-09-17T01:25:44.845Z</time>
</trkpt>
<trkpt lat="-27.1693607" lon="152.5733679">
<ele>139.595</ele>
<time>2017-09-17T01:25:47.881Z</time>
</trkpt>
<trkpt lat="-27.1688885" lon="152.5735693">
<ele>138.431</ele>
<time>2017-09-17T01:25:49.959Z</time>
</trkpt>
<trkpt lat="-27.1684067" lon="152.5736611">
<ele>136.581</ele>
<time>2017-09-17T01:25:51.973Z</time>
</trkpt>
<trkpt lat="-27.1679257" lon="152.5737177">
<ele>134.396</ele>
<time>2017-09-17T01:25:53.968Z</time>
</trkpt>
<trkpt lat="-27.1672113" lon="152.5737846">
<ele>132.583</ele>
<time>2017-09-17T01:25:56.931Z</time>
</trkpt>
<trkpt lat="-27.1667406" lon="152.5738777">
<ele>131.693</ele>
<time>2017-09-17T01:25:58.917Z</time>
</trkpt>
<trkpt lat="-27.1662617" lon="152.5739170">
<ele>131.763</ele>
<time>2017-09-17T01:26:00.902Z</time>
</trkpt>
<trkpt lat="-27.1655295" lon="152.5739097">
<ele>132.402</ele>
<time>2017-09-17T01:26:03.914Z</time>
</trkpt>
<trkpt lat="-27.1647873" lon="152.5738059">
<ele>133.140</ele>
<time>2017-09-17T01:26:06.982Z</time>
</trkpt>
<trkpt lat="-27.1643329" lon="152.5736171">
<ele>133.406</ele>
<time>2017-09-17T01:26:08.957Z</time>
</trkpt>
<trkpt lat="-27.1636837" lon="152.5732357">
<ele>132.637</ele>
<time>2017-09-17T01:26:11.904Z</time>
</trkpt>
<trkpt lat="-27.1632039" lon="152.5729268">
<ele>131.083</ele>
<time>2017-09-17T01:26:14.071Z</time>
</trkpt>
<trkpt lat="-27.1627749" lon="152.5726608">
<ele>130.413</ele>
<time>2017-09-17T01:26:15.988Z</time>
</trkpt>
<trkpt lat="-27.1623104" lon="152.5724083">
<ele>131.560</ele>
<time>2017-09-17T01:26:18.037Z</time>
</trkpt>
<trkpt lat="-27.1618870" lon="152.5721313">
<ele>133.041</ele>
<time>2017-09-17T01:26:20.037Z</time>
</trkpt>
<trkpt lat="-27.1612394" lon="152.5717644">
<ele>133.040</ele>
<time>2017-09-17T01:26:23.038Z</time>
</trkpt>
<trkpt lat="-27.1608423" lon="152.5714839">
<ele>131.101</ele>
<time>2017-09-17T01:26:24.990Z</time>
</trkpt>
<trkpt lat="-27.1604229" lon="152.5712254">
<ele>127.771</ele>
<time>2017-09-17T01:26:26.967Z</time>
</trkpt>
<trkpt lat="-27.1597758" lon="152.5708617">
<ele>124.332</ele>
<time>2017-09-17T01:26:29.949Z</time>
</trkpt>
<trkpt lat="-27.1591293" lon="152.5705043">
<ele>121.914</ele>
<time>2017-09-17T01:26:32.913Z</time>
</trkpt>
<trkpt lat="-27.1587144" lon="152.5702209">
<ele>120.477</ele>
<time>2017-09-17T01:26:34.922Z</time>
</trkpt>
<trkpt lat="-27.1580861" lon="152.5698366">
<ele>119.217</ele>
<time>2017-09-17T01:26:37.889Z</time>
</trkpt>
<trkpt lat="-27.1574336" lon="152.5694846">
<ele>117.531</ele>
<time>2017-09-17T01:26:40.879Z</time>
</trkpt>
<trkpt lat="-27.1569599" lon="152.5693373">
<ele>115.399</ele>
<time>2017-09-17T01:26:42.892Z</time>
</trkpt>
<trkpt lat="-27.1562284" lon="152.5692300">
<ele>113.234</ele>
<time>2017-09-17T01:26:45.917Z</time>
</trkpt>
<trkpt lat="-27.1557402" lon="152.5692537">
<ele>111.426</ele>
<time>2017-09-17T01:26:47.917Z</time>
</trkpt>
<trkpt lat="-27.1550062" lon="152.5693337">
<ele>109.996</ele>
<time>2017-09-17T01:26:50.928Z</time>
</trkpt>
<trkpt lat="-27.1542866" lon="152.5694840">
<ele>108.549</ele>
<time>2017-09-17T01:26:53.919Z</time>
</trkpt>
<trkpt lat="-27.1538109" lon="152.5695641">
<ele>106.468</ele>
<time>2017-09-17T01:26:55.899Z</time>
</trkpt>
<trkpt lat="-27.1530873" lon="152.5696937">
<ele>103.766</ele>
<time>2017-09-17T01:26:58.921Z</time>
</trkpt>
<trkpt lat="-27.1523699" lon="152.5698026">
<ele>101.053</ele>
<time>2017-09-17T01:27:01.909Z</time>
</trkpt>
<trkpt lat="-27.1518886" lon="152.5699004">
<ele>98.521</ele>
<time>2017-09-17T01:27:03.931Z</time>
</trkpt>
<trkpt lat="-27.1514097" lon="152.5699681">
<ele>96.103</ele>
<time>2017-09-17T01:27:05.932Z</time>
</trkpt>
<trkpt lat="-27.1506889" lon="152.5699773">
<ele>94.032</ele>
<time>2017-09-17T01:27:08.921Z</time>
</trkpt>
<trkpt lat="-27.1502028" lon="152.5699135">
<ele>92.436</ele>
<time>2017-09-17T01:27:10.949Z</time>
</trkpt>
<trkpt lat="-27.1497254" lon="152.5698374">
<ele>91.218</ele>
<time>2017-09-17T01:27:12.944Z</time>
</trkpt>
<trkpt lat="-27.1492552" lon="152.5697076">
<ele>90.381</ele>
<time>2017-09-17T01:27:14.930Z</time>
</trkpt>
<trkpt lat="-27.1485744" lon="152.5693987">
<ele>89.977</ele>
<time>2017-09-17T01:27:17.925Z</time>
</trkpt>
<trkpt lat="-27.1479150" lon="152.5690362">
<ele>89.922</ele>
<time>2017-09-17T01:27:20.908Z</time>
</trkpt>
<trkpt lat="-27.1475325" lon="152.5686946">
<ele>90.068</ele>
<time>2017-09-17T01:27:22.889Z</time>
</trkpt>
<trkpt lat="-27.1471479" lon="152.5683481">
<ele>90.233</ele>
<time>2017-09-17T01:27:24.883Z</time>
</trkpt>
<trkpt lat="-27.1467644" lon="152.5680032">
<ele>90.308</ele>
<time>2017-09-17T01:27:26.868Z</time>
</trkpt>
<trkpt lat="-27.1461484" lon="152.5675406">
<ele>90.254</ele>
<time>2017-09-17T01:27:29.864Z</time>
</trkpt>
<trkpt lat="-27.1457444" lon="152.5672301">
<ele>90.068</ele>
<time>2017-09-17T01:27:31.838Z</time>
</trkpt>
<trkpt lat="-27.1450691" lon="152.5668598">
<ele>89.780</ele>
<time>2017-09-17T01:27:34.861Z</time>
</trkpt>
<trkpt lat="-27.1446404" lon="152.5665779">
<ele>89.468</ele>
<time>2017-09-17T01:27:36.858Z</time>
</trkpt>
<trkpt lat="-27.1441743" lon="152.5663766">
<ele>89.279</ele>
<time>2017-09-17T01:27:38.873Z</time>
</trkpt>
<trkpt lat="-27.1435105" lon="152.5660163">
<ele>89.279</ele>
<time>2017-09-17T01:27:41.857Z</time>
</trkpt>
<trkpt lat="-27.1430723" lon="152.5657705">
<ele>89.277</ele>
<time>2017-09-17T01:27:43.854Z</time>
</trkpt>
<trkpt lat="-27.1426303" lon="152.5655422">
<ele>89.119</ele>
<time>2017-09-17T01:27:45.836Z</time>
</trkpt>
<trkpt lat="-27.1419774" lon="152.5651743">
<ele>88.916</ele>
<time>2017-09-17T01:27:48.800Z</time>
</trkpt>
<trkpt lat="-27.1412944" lon="152.5648470">
<ele>88.810</ele>
<time>2017-09-17T01:27:51.801Z</time>
</trkpt>
<trkpt lat="-27.1408639" lon="152.5645768">
<ele>88.793</ele>
<time>2017-09-17T01:27:53.792Z</time>
</trkpt>
<trkpt lat="-27.1404263" lon="152.5643182">
<ele>88.855</ele>
<time>2017-09-17T01:27:55.789Z</time>
</trkpt>
<trkpt lat="-27.1399933" lon="152.5640509">
<ele>88.989</ele>
<time>2017-09-17T01:27:57.787Z</time>
</trkpt>
<trkpt lat="-27.1393330" lon="152.5636888">
<ele>89.135</ele>
<time>2017-09-17T01:28:00.763Z</time>
</trkpt>
<trkpt lat="-27.1387686" lon="152.5631639">
<ele>89.277</ele>
<time>2017-09-17T01:28:03.736Z</time>
</trkpt>
<trkpt lat="-27.1384715" lon="152.5627287">
<ele>89.491</ele>
<time>2017-09-17T01:28:05.739Z</time>
</trkpt>
<trkpt lat="-27.1381093" lon="152.5620279">
<ele>89.774</ele>
<time>2017-09-17T01:28:08.782Z</time>
</trkpt>
<trkpt lat="-27.1379470" lon="152.5615823">
<ele>90.004</ele>
<time>2017-09-17T01:28:10.746Z</time>
</trkpt>
<trkpt lat="-27.1378667" lon="152.5611303">
<ele>89.986</ele>
<time>2017-09-17T01:28:12.718Z</time>
</trkpt>
<trkpt lat="-27.1378147" lon="152.5604474">
<ele>89.536</ele>
<time>2017-09-17T01:28:15.657Z</time>
</trkpt>
<trkpt lat="-27.1378614" lon="152.5597533">
<ele>88.751</ele>
<time>2017-09-17T01:28:18.604Z</time>
</trkpt>
<trkpt lat="-27.1379299" lon="152.5590456">
<ele>88.029</ele>
<time>2017-09-17T01:28:21.602Z</time>
</trkpt>
<trkpt lat="-27.1379211" lon="152.5585821">
<ele>87.656</ele>
<time>2017-09-17T01:28:23.580Z</time>
</trkpt>
<trkpt lat="-27.1379864" lon="152.5578911">
<ele>87.595</ele>
<time>2017-09-17T01:28:26.552Z</time>
</trkpt>
<trkpt lat="-27.1379964" lon="152.5574230">
<ele>87.584</ele>
<time>2017-09-17T01:28:28.542Z</time>
</trkpt>
<trkpt lat="-27.1381103" lon="152.5569685">
<ele>87.399</ele>
<time>2017-09-17T01:28:30.562Z</time>
</trkpt>
<trkpt lat="-27.1381488" lon="152.5565217">
<ele>86.975</ele>
<time>2017-09-17T01:28:32.505Z</time>
</trkpt>
<trkpt lat="-27.1381382" lon="152.5560653">
<ele>86.339</ele>
<time>2017-09-17T01:28:34.533Z</time>
</trkpt>
<trkpt lat="-27.1381857" lon="152.5556331">
<ele>85.639</ele>
<time>2017-09-17T01:28:36.567Z</time>
</trkpt>
<trkpt lat="-27.1382293" lon="152.5552416">
<ele>85.061</ele>
<time>2017-09-17T01:28:38.534Z</time>
</trkpt>
<trkpt lat="-27.1382739" lon="152.5548857">
<ele>84.578</ele>
<time>2017-09-17T01:28:40.525Z</time>
</trkpt>
<trkpt lat="-27.1382845" lon="152.5545938">
<ele>84.014</ele>
<time>2017-09-17T01:28:42.511Z</time>
</trkpt>
<trkpt lat="-27.1383333" lon="152.5544156">
<ele>83.169</ele>
<time>2017-09-17T01:28:44.407Z</time>
</trkpt>
<trkpt lat="-27.1383178" lon="152.5542823">
<ele>81.897</ele>
<time>2017-09-17T01:28:46.000Z</time>
</trkpt>
<trkpt lat="-27.1383178" lon="152.5542823">
<ele>80.492</ele>
<time>2017-09-17T01:28:51.000Z</time>
</trkpt>
<trkpt lat="-27.1383178" lon="152.5542823">
<ele>79.674</ele>
<time>2017-09-17T01:29:45.079Z</time>
</trkpt>
<trkpt lat="-27.1382326" lon="152.5540299">
<ele>79.699</ele>
<time>2017-09-17T01:29:53.802Z</time>
</trkpt>
<trkpt lat="-27.1379221" lon="152.5541386">
<ele>79.391</ele>
<time>2017-09-17T01:29:57.179Z</time>
</trkpt>
<trkpt lat="-27.1375430" lon="152.5542585">
<ele>77.879</ele>
<time>2017-09-17T01:29:59.979Z</time>
</trkpt>
<trkpt lat="-27.1370592" lon="152.5544028">
<ele>76.389</ele>
<time>2017-09-17T01:30:02.891Z</time>
</trkpt>
<trkpt lat="-27.1366768" lon="152.5544749">
<ele>76.510</ele>
<time>2017-09-17T01:30:04.886Z</time>
</trkpt>
<trkpt lat="-27.1362867" lon="152.5545225">
<ele>78.117</ele>
<time>2017-09-17T01:30:06.778Z</time>
</trkpt>
<trkpt lat="-27.1356346" lon="152.5546081">
<ele>80.221</ele>
<time>2017-09-17T01:30:09.759Z</time>
</trkpt>
<trkpt lat="-27.1348827" lon="152.5546281">
<ele>82.382</ele>
<time>2017-09-17T01:30:12.951Z</time>
</trkpt>
<trkpt lat="-27.1344166" lon="152.5546160">
<ele>84.745</ele>
<time>2017-09-17T01:30:14.925Z</time>
</trkpt>
<trkpt lat="-27.1339616" lon="152.5545765">
<ele>87.042</ele>
<time>2017-09-17T01:30:16.895Z</time>
</trkpt>
<trkpt lat="-27.1332871" lon="152.5544556">
<ele>88.795</ele>
<time>2017-09-17T01:30:19.852Z</time>
</trkpt>
<trkpt lat="-27.1328389" lon="152.5543801">
<ele>90.029</ele>
<time>2017-09-17T01:30:21.816Z</time>
</trkpt>
<trkpt lat="-27.1323895" lon="152.5543025">
<ele>90.966</ele>
<time>2017-09-17T01:30:23.790Z</time>
</trkpt>
<trkpt lat="-27.1319526" lon="152.5541847">
<ele>91.685</ele>
<time>2017-09-17T01:30:25.729Z</time>
</trkpt>
<trkpt lat="-27.1312815" lon="152.5539697">
<ele>92.185</ele>
<time>2017-09-17T01:30:28.724Z</time>
</trkpt>
<trkpt lat="-27.1308421" lon="152.5537938">
<ele>92.459</ele>
<time>2017-09-17T01:30:30.725Z</time>
</trkpt>
<trkpt lat="-27.1301884" lon="152.5535582">
<ele>92.647</ele>
<time>2017-09-17T01:30:33.680Z</time>
</trkpt>
<trkpt lat="-27.1295374" lon="152.5533169">
<ele>92.898</ele>
<time>2017-09-17T01:30:36.659Z</time>
</trkpt>
<trkpt lat="-27.1290996" lon="152.5532614">
<ele>93.111</ele>
<time>2017-09-17T01:30:38.725Z</time>
</trkpt>
<trkpt lat="-27.1285841" lon="152.5529783">
<ele>92.989</ele>
<time>2017-09-17T01:30:41.582Z</time>
</trkpt>
<trkpt lat="-27.1282252" lon="152.5528112">
<ele>92.128</ele>
<time>2017-09-17T01:30:43.581Z</time>
</trkpt>
<trkpt lat="-27.1279057" lon="152.5525522">
<ele>90.496</ele>
<time>2017-09-17T01:30:45.583Z</time>
</trkpt>
<trkpt lat="-27.1274557" lon="152.5521268">
<ele>88.628</ele>
<time>2017-09-17T01:30:48.563Z</time>
</trkpt>
<trkpt lat="-27.1270315" lon="152.5516648">
<ele>86.947</ele>
<time>2017-09-17T01:30:51.547Z</time>
</trkpt>
<trkpt lat="-27.1267332" lon="152.5513761">
<ele>85.597</ele>
<time>2017-09-17T01:30:53.533Z</time>
</trkpt>
<trkpt lat="-27.1264137" lon="152.5511241">
<ele>84.741</ele>
<time>2017-09-17T01:30:55.505Z</time>
</trkpt>
<trkpt lat="-27.1260707" lon="152.5509035">
<ele>84.390</ele>
<time>2017-09-17T01:30:57.502Z</time>
</trkpt>
<trkpt lat="-27.1255187" lon="152.5506867">
<ele>84.307</ele>
<time>2017-09-17T01:31:00.464Z</time>
</trkpt>
<trkpt lat="-27.1251412" lon="152.5505949">
<ele>84.241</ele>
<time>2017-09-17T01:31:02.465Z</time>
</trkpt>
<trkpt lat="-27.1245929" lon="152.5505198">
<ele>84.064</ele>
<time>2017-09-17T01:31:05.478Z</time>
</trkpt>
<trkpt lat="-27.1242761" lon="152.5505346">
<ele>83.689</ele>
<time>2017-09-17T01:31:07.465Z</time>
</trkpt>
<trkpt lat="-27.1238553" lon="152.5505486">
<ele>83.089</ele>
<time>2017-09-17T01:31:10.260Z</time>
</trkpt>
<trkpt lat="-27.1234169" lon="152.5505735">
<ele>82.401</ele>
<time>2017-09-17T01:31:13.246Z</time>
</trkpt>
<trkpt lat="-27.1231310" lon="152.5505870">
<ele>81.841</ele>
<time>2017-09-17T01:31:15.183Z</time>
</trkpt>
<trkpt lat="-27.1226904" lon="152.5505703">
<ele>81.544</ele>
<time>2017-09-17T01:31:18.174Z</time>
</trkpt>
<trkpt lat="-27.1224064" lon="152.5505124">
<ele>81.508</ele>
<time>2017-09-17T01:31:20.139Z</time>
</trkpt>
<trkpt lat="-27.1221145" lon="152.5504942">
<ele>81.618</ele>
<time>2017-09-17T01:31:22.134Z</time>
</trkpt>
<trkpt lat="-27.1218356" lon="152.5504176">
<ele>81.739</ele>
<time>2017-09-17T01:31:24.088Z</time>
</trkpt>
<trkpt lat="-27.1215383" lon="152.5503749">
<ele>81.823</ele>
<time>2017-09-17T01:31:26.121Z</time>
</trkpt>
<trkpt lat="-27.1211052" lon="152.5503058">
<ele>81.944</ele>
<time>2017-09-17T01:31:29.081Z</time>
</trkpt>
<trkpt lat="-27.1206682" lon="152.5502329">
<ele>82.234</ele>
<time>2017-09-17T01:31:32.082Z</time>
</trkpt>
<trkpt lat="-27.1202551" lon="152.5501276">
<ele>82.703</ele>
<time>2017-09-17T01:31:35.044Z</time>
</trkpt>
<trkpt lat="-27.1199949" lon="152.5501417">
<ele>83.146</ele>
<time>2017-09-17T01:31:36.978Z</time>
</trkpt>
<trkpt lat="-27.1196543" lon="152.5503056">
<ele>83.297</ele>
<time>2017-09-17T01:31:39.835Z</time>
</trkpt>
<trkpt lat="-27.1194600" lon="152.5505022">
<ele>82.997</ele>
<time>2017-09-17T01:31:41.866Z</time>
</trkpt>
<trkpt lat="-27.1193085" lon="152.5507512">
<ele>82.361</ele>
<time>2017-09-17T01:31:43.911Z</time>
</trkpt>
<trkpt lat="-27.1190286" lon="152.5510440">
<ele>81.761</ele>
<time>2017-09-17T01:31:46.834Z</time>
</trkpt>
<trkpt lat="-27.1188397" lon="152.5512465">
<ele>81.484</ele>
<time>2017-09-17T01:31:48.849Z</time>
</trkpt>
<trkpt lat="-27.1186003" lon="152.5513727">
<ele>81.656</ele>
<time>2017-09-17T01:31:50.878Z</time>
</trkpt>
<trkpt lat="-27.1183668" lon="152.5515076">
<ele>82.348</ele>
<time>2017-09-17T01:31:52.895Z</time>
</trkpt>
<trkpt lat="-27.1181495" lon="152.5516596">
<ele>83.450</ele>
<time>2017-09-17T01:31:54.891Z</time>
</trkpt>
<trkpt lat="-27.1178236" lon="152.5518578">
<ele>84.667</ele>
<time>2017-09-17T01:31:57.809Z</time>
</trkpt>
<trkpt lat="-27.1174528" lon="152.5521021">
<ele>85.879</ele>
<time>2017-09-17T01:32:01.140Z</time>
</trkpt>
<trkpt lat="-27.1172297" lon="152.5522471">
<ele>87.292</ele>
<time>2017-09-17T01:32:03.079Z</time>
</trkpt>
<trkpt lat="-27.1170213" lon="152.5523880">
<ele>88.992</ele>
<time>2017-09-17T01:32:04.930Z</time>
</trkpt>
<trkpt lat="-27.1167089" lon="152.5526099">
<ele>90.663</ele>
<time>2017-09-17T01:32:07.827Z</time>
</trkpt>
<trkpt lat="-27.1165851" lon="152.5530020">
<ele>92.065</ele>
<time>2017-09-17T01:32:10.822Z</time>
</trkpt>
<trkpt lat="-27.1164813" lon="152.5534211">
<ele>93.363</ele>
<time>2017-09-17T01:32:13.920Z</time>
</trkpt>
<trkpt lat="-27.1161994" lon="152.5537586">
<ele>94.819</ele>
<time>2017-09-17T01:32:17.205Z</time>
</trkpt>
<trkpt lat="-27.1158127" lon="152.5538769">
<ele>96.510</ele>
<time>2017-09-17T01:32:20.537Z</time>
</trkpt>
<trkpt lat="-27.1154576" lon="152.5537301">
<ele>98.303</ele>
<time>2017-09-17T01:32:23.527Z</time>
</trkpt>
<trkpt lat="-27.1151694" lon="152.5533747">
<ele>100.032</ele>
<time>2017-09-17T01:32:26.526Z</time>
</trkpt>
<trkpt lat="-27.1149182" lon="152.5531821">
<ele>101.764</ele>
<time>2017-09-17T01:32:28.526Z</time>
</trkpt>
<trkpt lat="-27.1146411" lon="152.5530489">
<ele>103.613</ele>
<time>2017-09-17T01:32:30.574Z</time>
</trkpt>
<trkpt lat="-27.1144069" lon="152.5529293">
<ele>105.466</ele>
<time>2017-09-17T01:32:32.611Z</time>
</trkpt>
<trkpt lat="-27.1140997" lon="152.5529313">
<ele>107.081</ele>
<time>2017-09-17T01:32:35.354Z</time>
</trkpt>
<trkpt lat="-27.1139143" lon="152.5532061">
<ele>108.405</ele>
<time>2017-09-17T01:32:38.382Z</time>
</trkpt>
<trkpt lat="-27.1139546" lon="152.5535476">
<ele>109.650</ele>
<time>2017-09-17T01:32:41.262Z</time>
</trkpt>
<trkpt lat="-27.1142125" lon="152.5539377">
<ele>111.049</ele>
<time>2017-09-17T01:32:44.716Z</time>
</trkpt>
<trkpt lat="-27.1143953" lon="152.5543680">
<ele>112.804</ele>
<time>2017-09-17T01:32:47.799Z</time>
</trkpt>
<trkpt lat="-27.1144525" lon="152.5546597">
<ele>115.036</ele>
<time>2017-09-17T01:32:49.773Z</time>
</trkpt>
<trkpt lat="-27.1144835" lon="152.5549549">
<ele>117.427</ele>
<time>2017-09-17T01:32:51.773Z</time>
</trkpt>
<trkpt lat="-27.1144322" lon="152.5552492">
<ele>119.398</ele>
<time>2017-09-17T01:32:53.674Z</time>
</trkpt>
<trkpt lat="-27.1141360" lon="152.5556627">
<ele>120.661</ele>
<time>2017-09-17T01:32:56.888Z</time>
</trkpt>
<trkpt lat="-27.1137536" lon="152.5559778">
<ele>121.398</ele>
<time>2017-09-17T01:33:00.025Z</time>
</trkpt>
<trkpt lat="-27.1133806" lon="152.5562570">
<ele>121.939</ele>
<time>2017-09-17T01:33:02.959Z</time>
</trkpt>
<trkpt lat="-27.1131250" lon="152.5564808">
<ele>122.429</ele>
<time>2017-09-17T01:33:05.030Z</time>
</trkpt>
<trkpt lat="-27.1128646" lon="152.5566707">
<ele>122.862</ele>
<time>2017-09-17T01:33:07.015Z</time>
</trkpt>
<trkpt lat="-27.1125620" lon="152.5567531">
<ele>123.261</ele>
<time>2017-09-17T01:33:09.007Z</time>
</trkpt>
<trkpt lat="-27.1122577" lon="152.5568613">
<ele>123.621</ele>
<time>2017-09-17T01:33:11.084Z</time>
</trkpt>
<trkpt lat="-27.1118067" lon="152.5569662">
<ele>123.944</ele>
<time>2017-09-17T01:33:14.225Z</time>
</trkpt>
<trkpt lat="-27.1115358" lon="152.5569895">
<ele>124.222</ele>
<time>2017-09-17T01:33:16.273Z</time>
</trkpt>
<trkpt lat="-27.1113326" lon="152.5568391">
<ele>124.389</ele>
<time>2017-09-17T01:33:18.155Z</time>
</trkpt>
<trkpt lat="-27.1110883" lon="152.5564894">
<ele>124.395</ele>
<time>2017-09-17T01:33:21.336Z</time>
</trkpt>
<trkpt lat="-27.1109732" lon="152.5562504">
<ele>124.296</ele>
<time>2017-09-17T01:33:23.628Z</time>
</trkpt>
<trkpt lat="-27.1107377" lon="152.5560199">
<ele>124.122</ele>
<time>2017-09-17T01:33:27.169Z</time>
</trkpt>
<trkpt lat="-27.1105766" lon="152.5560653">
<ele>123.774</ele>
<time>2017-09-17T01:33:29.053Z</time>
</trkpt>
<trkpt lat="-27.1104461" lon="152.5563560">
<ele>123.221</ele>
<time>2017-09-17T01:33:31.528Z</time>
</trkpt>
<trkpt lat="-27.1104040" lon="152.5566194">
<ele>122.674</ele>
<time>2017-09-17T01:33:33.257Z</time>
</trkpt>
<trkpt lat="-27.1103359" lon="152.5571528">
<ele>122.457</ele>
<time>2017-09-17T01:33:36.566Z</time>
</trkpt>
<trkpt lat="-27.1102161" lon="152.5576625">
<ele>122.748</ele>
<time>2017-09-17T01:33:39.631Z</time>
</trkpt>
<trkpt lat="-27.1100111" lon="152.5579364">
<ele>123.363</ele>
<time>2017-09-17T01:33:41.553Z</time>
</trkpt>
<trkpt lat="-27.1097220" lon="152.5581624">
<ele>123.893</ele>
<time>2017-09-17T01:33:43.560Z</time>
</trkpt>
<trkpt lat="-27.1091745" lon="152.5582769">
<ele>124.154</ele>
<time>2017-09-17T01:33:46.567Z</time>
</trkpt>
<trkpt lat="-27.1087912" lon="152.5582677">
<ele>124.232</ele>
<time>2017-09-17T01:33:48.640Z</time>
</trkpt>
<trkpt lat="-27.1082466" lon="152.5582860">
<ele>124.229</ele>
<time>2017-09-17T01:33:51.710Z</time>
</trkpt>
<trkpt lat="-27.1079175" lon="152.5583749">
<ele>124.060</ele>
<time>2017-09-17T01:33:53.624Z</time>
</trkpt>
<trkpt lat="-27.1075224" lon="152.5587501">
<ele>123.542</ele>
<time>2017-09-17T01:33:56.391Z</time>
</trkpt>
<trkpt lat="-27.1070967" lon="152.5592138">
<ele>122.822</ele>
<time>2017-09-17T01:33:59.430Z</time>
</trkpt>
<trkpt lat="-27.1065809" lon="152.5595250">
<ele>122.316</ele>
<time>2017-09-17T01:34:02.509Z</time>
</trkpt>
<trkpt lat="-27.1062706" lon="152.5597178">
<ele>122.172</ele>
<time>2017-09-17T01:34:04.552Z</time>
</trkpt>
<trkpt lat="-27.1059809" lon="152.5599239">
<ele>122.224</ele>
<time>2017-09-17T01:34:06.683Z</time>
</trkpt>
<trkpt lat="-27.1056470" lon="152.5602583">
<ele>122.234</ele>
<time>2017-09-17T01:34:09.578Z</time>
</trkpt>
<trkpt lat="-27.1051946" lon="152.5603283">
<ele>122.084</ele>
<time>2017-09-17T01:34:12.403Z</time>
</trkpt>
<trkpt lat="-27.1046909" lon="152.5601846">
<ele>121.858</ele>
<time>2017-09-17T01:34:15.446Z</time>
</trkpt>
<trkpt lat="-27.1043214" lon="152.5602117">
<ele>121.617</ele>
<time>2017-09-17T01:34:17.573Z</time>
</trkpt>
<trkpt lat="-27.1039752" lon="152.5603238">
<ele>121.273</ele>
<time>2017-09-17T01:34:19.693Z</time>
</trkpt>
<trkpt lat="-27.1034877" lon="152.5603748">
<ele>120.852</ele>
<time>2017-09-17T01:34:22.606Z</time>
</trkpt>
<trkpt lat="-27.1030304" lon="152.5601398">
<ele>120.489</ele>
<time>2017-09-17T01:34:25.367Z</time>
</trkpt>
<trkpt lat="-27.1027658" lon="152.5598217">
<ele>120.242</ele>
<time>2017-09-17T01:34:27.341Z</time>
</trkpt>
<trkpt lat="-27.1024045" lon="152.5592522">
<ele>120.130</ele>
<time>2017-09-17T01:34:30.537Z</time>
</trkpt>
<trkpt lat="-27.1020819" lon="152.5587425">
<ele>120.188</ele>
<time>2017-09-17T01:34:33.810Z</time>
</trkpt>
<trkpt lat="-27.1017913" lon="152.5583433">
<ele>120.357</ele>
<time>2017-09-17T01:34:37.203Z</time>
</trkpt>
<trkpt lat="-27.1015345" lon="152.5582846">
<ele>120.341</ele>
<time>2017-09-17T01:34:39.178Z</time>
</trkpt>
<trkpt lat="-27.1011479" lon="152.5584598">
<ele>119.849</ele>
<time>2017-09-17T01:34:41.865Z</time>
</trkpt>
<trkpt lat="-27.1009060" lon="152.5589868">
<ele>119.061</ele>
<time>2017-09-17T01:34:44.669Z</time>
</trkpt>
<trkpt lat="-27.1007289" lon="152.5596689">
<ele>118.427</ele>
<time>2017-09-17T01:34:47.811Z</time>
</trkpt>
<trkpt lat="-27.1005445" lon="152.5603424">
<ele>118.636</ele>
<time>2017-09-17T01:34:51.096Z</time>
</trkpt>
<trkpt lat="-27.1004357" lon="152.5607387">
<ele>120.440</ele>
<time>2017-09-17T01:34:53.102Z</time>
</trkpt>
<trkpt lat="-27.1003110" lon="152.5613271">
<ele>123.476</ele>
<time>2017-09-17T01:34:56.108Z</time>
</trkpt>
<trkpt lat="-27.1003195" lon="152.5619254">
<ele>126.321</ele>
<time>2017-09-17T01:34:59.413Z</time>
</trkpt>
<trkpt lat="-27.1002768" lon="152.5622585">
<ele>128.086</ele>
<time>2017-09-17T01:35:01.392Z</time>
</trkpt>
<trkpt lat="-27.1000509" lon="152.5626774">
<ele>128.848</ele>
<time>2017-09-17T01:35:04.208Z</time>
</trkpt>
<trkpt lat="-27.0997801" lon="152.5628326">
<ele>129.023</ele>
<time>2017-09-17T01:35:06.059Z</time>
</trkpt>
<trkpt lat="-27.0992303" lon="152.5628378">
<ele>128.973</ele>
<time>2017-09-17T01:35:09.066Z</time>
</trkpt>
<trkpt lat="-27.0986737" lon="152.5626314">
<ele>128.876</ele>
<time>2017-09-17T01:35:12.280Z</time>
</trkpt>
<trkpt lat="-27.0983099" lon="152.5626044">
<ele>128.569</ele>
<time>2017-09-17T01:35:14.310Z</time>
</trkpt>
<trkpt lat="-27.0978102" lon="152.5628065">
<ele>127.711</ele>
<time>2017-09-17T01:35:17.243Z</time>
</trkpt>
<trkpt lat="-27.0974494" lon="152.5628664">
<ele>126.205</ele>
<time>2017-09-17T01:35:19.237Z</time>
</trkpt>
<trkpt lat="-27.0970845" lon="152.5627653">
<ele>124.465</ele>
<time>2017-09-17T01:35:21.289Z</time>
</trkpt>
<trkpt lat="-27.0965991" lon="152.5624545">
<ele>123.081</ele>
<time>2017-09-17T01:35:24.408Z</time>
</trkpt>
<trkpt lat="-27.0960879" lon="152.5623587">
<ele>122.303</ele>
<time>2017-09-17T01:35:27.491Z</time>
</trkpt>
<trkpt lat="-27.0957618" lon="152.5623609">
<ele>121.931</ele>
<time>2017-09-17T01:35:29.480Z</time>
</trkpt>
<trkpt lat="-27.0953310" lon="152.5621106">
<ele>121.669</ele>
<time>2017-09-17T01:35:32.453Z</time>
</trkpt>
<trkpt lat="-27.0950305" lon="152.5619990">
<ele>121.299</ele>
<time>2017-09-17T01:35:34.365Z</time>
</trkpt>
<trkpt lat="-27.0945168" lon="152.5619982">
<ele>120.831</ele>
<time>2017-09-17T01:35:37.420Z</time>
</trkpt>
<trkpt lat="-27.0941745" lon="152.5619355">
<ele>120.460</ele>
<time>2017-09-17T01:35:39.528Z</time>
</trkpt>
<trkpt lat="-27.0938392" lon="152.5619723">
<ele>120.305</ele>
<time>2017-09-17T01:35:41.539Z</time>
</trkpt>
<trkpt lat="-27.0935117" lon="152.5620730">
<ele>120.292</ele>
<time>2017-09-17T01:35:43.528Z</time>
</trkpt>
<trkpt lat="-27.0930089" lon="152.5619132">
<ele>120.322</ele>
<time>2017-09-17T01:35:46.491Z</time>
</trkpt>
<trkpt lat="-27.0926565" lon="152.5618300">
<ele>120.383</ele>
<time>2017-09-17T01:35:48.539Z</time>
</trkpt>
<trkpt lat="-27.0921362" lon="152.5618707">
<ele>120.512</ele>
<time>2017-09-17T01:35:51.501Z</time>
</trkpt>
<trkpt lat="-27.0918224" lon="152.5620363">
<ele>120.672</ele>
<time>2017-09-17T01:35:53.424Z</time>
</trkpt>
<trkpt lat="-27.0915432" lon="152.5622993">
<ele>120.778</ele>
<time>2017-09-17T01:35:55.449Z</time>
</trkpt>
<trkpt lat="-27.0912905" lon="152.5625892">
<ele>120.806</ele>
<time>2017-09-17T01:35:57.439Z</time>
</trkpt>
<trkpt lat="-27.0908290" lon="152.5628698">
<ele>120.786</ele>
<time>2017-09-17T01:36:00.208Z</time>
</trkpt>
<trkpt lat="-27.0902422" lon="152.5629328">
<ele>120.745</ele>
<time>2017-09-17T01:36:03.211Z</time>
</trkpt>
<trkpt lat="-27.0896539" lon="152.5629081">
<ele>120.636</ele>
<time>2017-09-17T01:36:06.361Z</time>
</trkpt>
<trkpt lat="-27.0891166" lon="152.5628215">
<ele>120.192</ele>
<time>2017-09-17T01:36:09.252Z</time>
</trkpt>
<trkpt lat="-27.0886431" lon="152.5624520">
<ele>119.365</ele>
<time>2017-09-17T01:36:12.210Z</time>
</trkpt>
<trkpt lat="-27.0883900" lon="152.5621023">
<ele>118.657</ele>
<time>2017-09-17T01:36:14.305Z</time>
</trkpt>
<trkpt lat="-27.0880760" lon="152.5615886">
<ele>118.638</ele>
<time>2017-09-17T01:36:17.416Z</time>
</trkpt>
<trkpt lat="-27.0878809" lon="152.5612500">
<ele>119.377</ele>
<time>2017-09-17T01:36:19.575Z</time>
</trkpt>
<trkpt lat="-27.0876458" lon="152.5607526">
<ele>120.388</ele>
<time>2017-09-17T01:36:23.088Z</time>
</trkpt>
<trkpt lat="-27.0875128" lon="152.5604684">
<ele>120.952</ele>
<time>2017-09-17T01:36:25.253Z</time>
</trkpt>
<trkpt lat="-27.0872827" lon="152.5600939">
<ele>120.687</ele>
<time>2017-09-17T01:36:28.528Z</time>
</trkpt>
<trkpt lat="-27.0870521" lon="152.5599764">
<ele>119.565</ele>
<time>2017-09-17T01:36:30.487Z</time>
</trkpt>
<trkpt lat="-27.0867003" lon="152.5600244">
<ele>117.844</ele>
<time>2017-09-17T01:36:33.049Z</time>
</trkpt>
<trkpt lat="-27.0864435" lon="152.5603746">
<ele>116.177</ele>
<time>2017-09-17T01:36:35.759Z</time>
</trkpt>
<trkpt lat="-27.0862274" lon="152.5608367">
<ele>115.260</ele>
<time>2017-09-17T01:36:38.828Z</time>
</trkpt>
<trkpt lat="-27.0860514" lon="152.5611099">
<ele>115.528</ele>
<time>2017-09-17T01:36:40.757Z</time>
</trkpt>
<trkpt lat="-27.0859005" lon="152.5614113">
<ele>116.983</ele>
<time>2017-09-17T01:36:42.694Z</time>
</trkpt>
<trkpt lat="-27.0855012" lon="152.5617743">
<ele>119.026</ele>
<time>2017-09-17T01:36:45.717Z</time>
</trkpt>
<trkpt lat="-27.0851658" lon="152.5618782">
<ele>121.085</ele>
<time>2017-09-17T01:36:47.598Z</time>
</trkpt>
<trkpt lat="-27.0848022" lon="152.5618915">
<ele>123.012</ele>
<time>2017-09-17T01:36:49.522Z</time>
</trkpt>
<trkpt lat="-27.0842504" lon="152.5617141">
<ele>124.676</ele>
<time>2017-09-17T01:36:52.500Z</time>
</trkpt>
<trkpt lat="-27.0838908" lon="152.5615452">
<ele>126.122</ele>
<time>2017-09-17T01:36:54.583Z</time>
</trkpt>
<trkpt lat="-27.0833788" lon="152.5613001">
<ele>127.463</ele>
<time>2017-09-17T01:36:57.875Z</time>
</trkpt>
<trkpt lat="-27.0830611" lon="152.5612017">
<ele>128.481</ele>
<time>2017-09-17T01:36:59.983Z</time>
</trkpt>
<trkpt lat="-27.0826119" lon="152.5612140">
<ele>128.963</ele>
<time>2017-09-17T01:37:02.896Z</time>
</trkpt>
<trkpt lat="-27.0823541" lon="152.5613990">
<ele>129.038</ele>
<time>2017-09-17T01:37:04.822Z</time>
</trkpt>
<trkpt lat="-27.0820717" lon="152.5618905">
<ele>129.003</ele>
<time>2017-09-17T01:37:08.020Z</time>
</trkpt>
<trkpt lat="-27.0818330" lon="152.5621041">
<ele>129.329</ele>
<time>2017-09-17T01:37:09.839Z</time>
</trkpt>
<trkpt lat="-27.0813505" lon="152.5622463">
<ele>130.311</ele>
<time>2017-09-17T01:37:12.702Z</time>
</trkpt>
<trkpt lat="-27.0809383" lon="152.5620884">
<ele>131.514</ele>
<time>2017-09-17T01:37:15.179Z</time>
</trkpt>
<trkpt lat="-27.0804866" lon="152.5617692">
<ele>132.176</ele>
<time>2017-09-17T01:37:18.200Z</time>
</trkpt>
<trkpt lat="-27.0802765" lon="152.5614485">
<ele>131.817</ele>
<time>2017-09-17T01:37:20.276Z</time>
</trkpt>
<trkpt lat="-27.0799362" lon="152.5609859">
<ele>130.401</ele>
<time>2017-09-17T01:37:23.572Z</time>
</trkpt>
<trkpt lat="-27.0795029" lon="152.5607425">
<ele>128.150</ele>
<time>2017-09-17T01:37:26.582Z</time>
</trkpt>
<trkpt lat="-27.0791834" lon="152.5607573">
<ele>125.343</ele>
<time>2017-09-17T01:37:28.483Z</time>
</trkpt>
<trkpt lat="-27.0788498" lon="152.5608355">
<ele>122.565</ele>
<time>2017-09-17T01:37:30.437Z</time>
</trkpt>
<trkpt lat="-27.0784213" lon="152.5611633">
<ele>120.493</ele>
<time>2017-09-17T01:37:33.397Z</time>
</trkpt>
<trkpt lat="-27.0782212" lon="152.5615110">
<ele>119.217</ele>
<time>2017-09-17T01:37:35.544Z</time>
</trkpt>
<trkpt lat="-27.0781405" lon="152.5618966">
<ele>118.515</ele>
<time>2017-09-17T01:37:37.594Z</time>
</trkpt>
<trkpt lat="-27.0781930" lon="152.5622892">
<ele>118.307</ele>
<time>2017-09-17T01:37:39.674Z</time>
</trkpt>
<trkpt lat="-27.0783591" lon="152.5628702">
<ele>118.540</ele>
<time>2017-09-17T01:37:42.875Z</time>
</trkpt>
<trkpt lat="-27.0785264" lon="152.5634195">
<ele>119.003</ele>
<time>2017-09-17T01:37:45.824Z</time>
</trkpt>
<trkpt lat="-27.0786463" lon="152.5637884">
<ele>119.440</ele>
<time>2017-09-17T01:37:47.833Z</time>
</trkpt>
<trkpt lat="-27.0787757" lon="152.5641713">
<ele>119.855</ele>
<time>2017-09-17T01:37:49.958Z</time>
</trkpt>
<trkpt lat="-27.0788843" lon="152.5645309">
<ele>120.492</ele>
<time>2017-09-17T01:37:51.955Z</time>
</trkpt>
<trkpt lat="-27.0790623" lon="152.5650512">
<ele>121.519</ele>
<time>2017-09-17T01:37:54.884Z</time>
</trkpt>
<trkpt lat="-27.0791524" lon="152.5656153">
<ele>122.968</ele>
<time>2017-09-17T01:37:57.909Z</time>
</trkpt>
<trkpt lat="-27.0790279" lon="152.5661646">
<ele>124.727</ele>
<time>2017-09-17T01:38:00.955Z</time>
</trkpt>
<trkpt lat="-27.0787419" lon="152.5666118">
<ele>126.527</ele>
<time>2017-09-17T01:38:03.924Z</time>
</trkpt>
<trkpt lat="-27.0784946" lon="152.5668631">
<ele>128.131</ele>
<time>2017-09-17T01:38:05.913Z</time>
</trkpt>
<trkpt lat="-27.0782015" lon="152.5670280">
<ele>129.341</ele>
<time>2017-09-17T01:38:07.840Z</time>
</trkpt>
<trkpt lat="-27.0778649" lon="152.5671069">
<ele>129.995</ele>
<time>2017-09-17T01:38:09.846Z</time>
</trkpt>
<trkpt lat="-27.0775113" lon="152.5671148">
<ele>130.123</ele>
<time>2017-09-17T01:38:11.811Z</time>
</trkpt>
<trkpt lat="-27.0770032" lon="152.5669937">
<ele>129.815</ele>
<time>2017-09-17T01:38:14.607Z</time>
</trkpt>
<trkpt lat="-27.0765768" lon="152.5665925">
<ele>129.024</ele>
<time>2017-09-17T01:38:17.567Z</time>
</trkpt>
<trkpt lat="-27.0761377" lon="152.5661587">
<ele>127.634</ele>
<time>2017-09-17T01:38:20.711Z</time>
</trkpt>
<trkpt lat="-27.0756210" lon="152.5659512">
<ele>125.579</ele>
<time>2017-09-17T01:38:23.567Z</time>
</trkpt>
<trkpt lat="-27.0752868" lon="152.5657807">
<ele>123.270</ele>
<time>2017-09-17T01:38:25.433Z</time>
</trkpt>
<trkpt lat="-27.0749710" lon="152.5655149">
<ele>121.545</ele>
<time>2017-09-17T01:38:27.420Z</time>
</trkpt>
<trkpt lat="-27.0744977" lon="152.5651075">
<ele>120.790</ele>
<time>2017-09-17T01:38:30.370Z</time>
</trkpt>
<trkpt lat="-27.0741420" lon="152.5648973">
<ele>120.533</ele>
<time>2017-09-17T01:38:32.377Z</time>
</trkpt>
<trkpt lat="-27.0737546" lon="152.5647295">
<ele>120.188</ele>
<time>2017-09-17T01:38:34.563Z</time>
</trkpt>
<trkpt lat="-27.0732276" lon="152.5644813">
<ele>119.706</ele>
<time>2017-09-17T01:38:37.708Z</time>
</trkpt>
<trkpt lat="-27.0729454" lon="152.5642667">
<ele>119.378</ele>
<time>2017-09-17T01:38:39.604Z</time>
</trkpt>
<trkpt lat="-27.0725870" lon="152.5638099">
<ele>119.345</ele>
<time>2017-09-17T01:38:42.737Z</time>
</trkpt>
<trkpt lat="-27.0722555" lon="152.5633721">
<ele>119.528</ele>
<time>2017-09-17T01:38:46.135Z</time>
</trkpt>
<trkpt lat="-27.0720897" lon="152.5630662">
<ele>119.648</ele>
<time>2017-09-17T01:38:48.447Z</time>
</trkpt>
<trkpt lat="-27.0720321" lon="152.5626215">
<ele>119.497</ele>
<time>2017-09-17T01:38:51.578Z</time>
</trkpt>
<trkpt lat="-27.0720692" lon="152.5621608">
<ele>119.195</ele>
<time>2017-09-17T01:38:55.235Z</time>
</trkpt>
<trkpt lat="-27.0720277" lon="152.5618903">
<ele>118.920</ele>
<time>2017-09-17T01:38:57.384Z</time>
</trkpt>
<trkpt lat="-27.0718402" lon="152.5617087">
<ele>118.552</ele>
<time>2017-09-17T01:38:59.476Z</time>
</trkpt>
<trkpt lat="-27.0714763" lon="152.5616529">
<ele>117.824</ele>
<time>2017-09-17T01:39:02.215Z</time>
</trkpt>
<trkpt lat="-27.0712945" lon="152.5618279">
<ele>116.641</ele>
<time>2017-09-17T01:39:03.820Z</time>
</trkpt>
<trkpt lat="-27.0711583" lon="152.5620652">
<ele>115.355</ele>
<time>2017-09-17T01:39:05.387Z</time>
</trkpt>
<trkpt lat="-27.0709481" lon="152.5625697">
<ele>114.658</ele>
<time>2017-09-17T01:39:08.338Z</time>
</trkpt>
<trkpt lat="-27.0707160" lon="152.5630525">
<ele>115.156</ele>
<time>2017-09-17T01:39:11.161Z</time>
</trkpt>
<trkpt lat="-27.0703277" lon="152.5634375">
<ele>116.904</ele>
<time>2017-09-17T01:39:14.022Z</time>
</trkpt>
<trkpt lat="-27.0698341" lon="152.5636360">
<ele>119.340</ele>
<time>2017-09-17T01:39:16.826Z</time>
</trkpt>
<trkpt lat="-27.0692598" lon="152.5637078">
<ele>121.783</ele>
<time>2017-09-17T01:39:19.946Z</time>
</trkpt>
<trkpt lat="-27.0686613" lon="152.5634577">
<ele>123.787</ele>
<time>2017-09-17T01:39:23.436Z</time>
</trkpt>
<trkpt lat="-27.0683875" lon="152.5632201">
<ele>125.027</ele>
<time>2017-09-17T01:39:25.283Z</time>
</trkpt>
<trkpt lat="-27.0680383" lon="152.5627365">
<ele>125.459</ele>
<time>2017-09-17T01:39:28.213Z</time>
</trkpt>
<trkpt lat="-27.0679064" lon="152.5623175">
<ele>125.285</ele>
<time>2017-09-17T01:39:30.294Z</time>
</trkpt>
<trkpt lat="-27.0677656" lon="152.5619212">
<ele>124.634</ele>
<time>2017-09-17T01:39:32.274Z</time>
</trkpt>
<trkpt lat="-27.0675611" lon="152.5615335">
<ele>123.521</ele>
<time>2017-09-17T01:39:34.286Z</time>
</trkpt>
<trkpt lat="-27.0670737" lon="152.5612179">
<ele>122.062</ele>
<time>2017-09-17T01:39:37.003Z</time>
</trkpt>
<trkpt lat="-27.0666934" lon="152.5610615">
<ele>120.691</ele>
<time>2017-09-17T01:39:38.916Z</time>
</trkpt>
<trkpt lat="-27.0661206" lon="152.5607890">
<ele>119.984</ele>
<time>2017-09-17T01:39:41.891Z</time>
</trkpt>
<trkpt lat="-27.0655329" lon="152.5605178">
<ele>120.116</ele>
<time>2017-09-17T01:39:45.033Z</time>
</trkpt>
<trkpt lat="-27.0649872" lon="152.5602308">
<ele>120.705</ele>
<time>2017-09-17T01:39:48.144Z</time>
</trkpt>
<trkpt lat="-27.0646189" lon="152.5600954">
<ele>121.254</ele>
<time>2017-09-17T01:39:50.191Z</time>
</trkpt>
<trkpt lat="-27.0642684" lon="152.5599143">
<ele>121.620</ele>
<time>2017-09-17T01:39:52.313Z</time>
</trkpt>
<trkpt lat="-27.0637978" lon="152.5596026">
<ele>121.943</ele>
<time>2017-09-17T01:39:55.333Z</time>
</trkpt>
<trkpt lat="-27.0635892" lon="152.5592939">
<ele>122.326</ele>
<time>2017-09-17T01:39:57.163Z</time>
</trkpt>
<trkpt lat="-27.0634428" lon="152.5587049">
<ele>122.756</ele>
<time>2017-09-17T01:39:59.909Z</time>
</trkpt>
<trkpt lat="-27.0634275" lon="152.5582677">
<ele>123.199</ele>
<time>2017-09-17T01:40:01.833Z</time>
</trkpt>
<trkpt lat="-27.0634112" lon="152.5575932">
<ele>123.587</ele>
<time>2017-09-17T01:40:04.842Z</time>
</trkpt>
<trkpt lat="-27.0634013" lon="152.5571373">
<ele>123.587</ele>
<time>2017-09-17T01:40:06.951Z</time>
</trkpt>
<trkpt lat="-27.0633458" lon="152.5564956">
<ele>122.867</ele>
<time>2017-09-17T01:40:10.013Z</time>
</trkpt>
<trkpt lat="-27.0629958" lon="152.5560167">
<ele>121.384</ele>
<time>2017-09-17T01:40:12.935Z</time>
</trkpt>
<trkpt lat="-27.0626913" lon="152.5557909">
<ele>119.125</ele>
<time>2017-09-17T01:40:14.798Z</time>
</trkpt>
<trkpt lat="-27.0621455" lon="152.5555884">
<ele>116.426</ele>
<time>2017-09-17T01:40:17.680Z</time>
</trkpt>
<trkpt lat="-27.0616912" lon="152.5551802">
<ele>114.240</ele>
<time>2017-09-17T01:40:20.591Z</time>
</trkpt>
<trkpt lat="-27.0613440" lon="152.5546132">
<ele>113.333</ele>
<time>2017-09-17T01:40:23.771Z</time>
</trkpt>
<trkpt lat="-27.0609886" lon="152.5541263">
<ele>114.096</ele>
<time>2017-09-17T01:40:26.841Z</time>
</trkpt>
<trkpt lat="-27.0607088" lon="152.5538508">
<ele>116.390</ele>
<time>2017-09-17T01:40:28.917Z</time>
</trkpt>
<trkpt lat="-27.0604069" lon="152.5536157">
<ele>119.004</ele>
<time>2017-09-17T01:40:30.990Z</time>
</trkpt>
<trkpt lat="-27.0598934" lon="152.5534556">
<ele>120.616</ele>
<time>2017-09-17T01:40:34.193Z</time>
</trkpt>
<trkpt lat="-27.0593776" lon="152.5534277">
<ele>121.243</ele>
<time>2017-09-17T01:40:37.669Z</time>
</trkpt>
<trkpt lat="-27.0589249" lon="152.5534344">
<ele>122.107</ele>
<time>2017-09-17T01:40:40.705Z</time>
</trkpt>
<trkpt lat="-27.0587057" lon="152.5536453">
<ele>124.508</ele>
<time>2017-09-17T01:40:42.498Z</time>
</trkpt>
<trkpt lat="-27.0584796" lon="152.5540865">
<ele>128.418</ele>
<time>2017-09-17T01:40:45.254Z</time>
</trkpt>
<trkpt lat="-27.0584622" lon="152.5544653">
<ele>132.764</ele>
<time>2017-09-17T01:40:47.380Z</time>
</trkpt>
<trkpt lat="-27.0583920" lon="152.5550115">
<ele>136.725</ele>
<time>2017-09-17T01:40:50.499Z</time>
</trkpt>
<trkpt lat="-27.0582214" lon="152.5553164">
<ele>140.102</ele>
<time>2017-09-17T01:40:52.490Z</time>
</trkpt>
<trkpt lat="-27.0579684" lon="152.5555473">
<ele>143.074</ele>
<time>2017-09-17T01:40:54.422Z</time>
</trkpt>
<trkpt lat="-27.0575127" lon="152.5557013">
<ele>145.972</ele>
<time>2017-09-17T01:40:57.081Z</time>
</trkpt>
<trkpt lat="-27.0569864" lon="152.5556049">
<ele>149.240</ele>
<time>2017-09-17T01:40:59.965Z</time>
</trkpt>
<trkpt lat="-27.0564294" lon="152.5554554">
<ele>153.351</ele>
<time>2017-09-17T01:41:03.166Z</time>
</trkpt>
<trkpt lat="-27.0560554" lon="152.5553415">
<ele>158.296</ele>
<time>2017-09-17T01:41:05.352Z</time>
</trkpt>
<trkpt lat="-27.0555787" lon="152.5552033">
<ele>163.509</ele>
<time>2017-09-17T01:41:07.967Z</time>
</trkpt>
<trkpt lat="-27.0552223" lon="152.5551045">
<ele>168.644</ele>
<time>2017-09-17T01:41:09.826Z</time>
</trkpt>
<trkpt lat="-27.0548442" lon="152.5550051">
<ele>173.596</ele>
<time>2017-09-17T01:41:11.765Z</time>
</trkpt>
<trkpt lat="-27.0544418" lon="152.5549092">
<ele>177.995</ele>
<time>2017-09-17T01:41:13.839Z</time>
</trkpt>
<trkpt lat="-27.0538467" lon="152.5548795">
<ele>181.410</ele>
<time>2017-09-17T01:41:16.890Z</time>
</trkpt>
<trkpt lat="-27.0532615" lon="152.5548807">
<ele>183.615</ele>
<time>2017-09-17T01:41:20.063Z</time>
</trkpt>
<trkpt lat="-27.0528874" lon="152.5548402">
<ele>184.110</ele>
<time>2017-09-17T01:41:22.134Z</time>
</trkpt>
<trkpt lat="-27.0526379" lon="152.5545720">
<ele>182.753</ele>
<time>2017-09-17T01:41:24.032Z</time>
</trkpt>
<trkpt lat="-27.0523925" lon="152.5542633">
<ele>180.630</ele>
<time>2017-09-17T01:41:26.040Z</time>
</trkpt>
<trkpt lat="-27.0520916" lon="152.5539110">
<ele>179.588</ele>
<time>2017-09-17T01:41:28.395Z</time>
</trkpt>
<trkpt lat="-27.0518291" lon="152.5536334">
<ele>180.496</ele>
<time>2017-09-17T01:41:30.390Z</time>
</trkpt>
<trkpt lat="-27.0516047" lon="152.5530289">
<ele>182.526</ele>
<time>2017-09-17T01:41:33.938Z</time>
</trkpt>
<trkpt lat="-27.0515069" lon="152.5526427">
<ele>184.282</ele>
<time>2017-09-17T01:41:36.211Z</time>
</trkpt>
<trkpt lat="-27.0514900" lon="152.5522906">
<ele>185.048</ele>
<time>2017-09-17T01:41:38.438Z</time>
</trkpt>
<trkpt lat="-27.0515597" lon="152.5519559">
<ele>184.754</ele>
<time>2017-09-17T01:41:40.917Z</time>
</trkpt>
<trkpt lat="-27.0516343" lon="152.5516181">
<ele>183.669</ele>
<time>2017-09-17T01:41:43.368Z</time>
</trkpt>
<trkpt lat="-27.0517006" lon="152.5513322">
<ele>182.153</ele>
<time>2017-09-17T01:41:45.192Z</time>
</trkpt>
<trkpt lat="-27.0516044" lon="152.5511002">
<ele>180.493</ele>
<time>2017-09-17T01:41:46.651Z</time>
</trkpt>
<trkpt lat="-27.0512082" lon="152.5509775">
<ele>178.835</ele>
<time>2017-09-17T01:41:48.965Z</time>
</trkpt>
<trkpt lat="-27.0508081" lon="152.5512347">
<ele>177.081</ele>
<time>2017-09-17T01:41:51.418Z</time>
</trkpt>
<trkpt lat="-27.0506046" lon="152.5516085">
<ele>175.362</ele>
<time>2017-09-17T01:41:53.476Z</time>
</trkpt>
<trkpt lat="-27.0503672" lon="152.5519529">
<ele>174.267</ele>
<time>2017-09-17T01:41:55.496Z</time>
</trkpt>
<trkpt lat="-27.0498619" lon="152.5522635">
<ele>174.097</ele>
<time>2017-09-17T01:41:58.467Z</time>
</trkpt>
<trkpt lat="-27.0492942" lon="152.5524722">
<ele>174.467</ele>
<time>2017-09-17T01:42:01.477Z</time>
</trkpt>
<trkpt lat="-27.0489002" lon="152.5525159">
<ele>174.565</ele>
<time>2017-09-17T01:42:03.421Z</time>
</trkpt>
<trkpt lat="-27.0484967" lon="152.5524896">
<ele>173.741</ele>
<time>2017-09-17T01:42:05.314Z</time>
</trkpt>
<trkpt lat="-27.0479056" lon="152.5523105">
<ele>172.169</ele>
<time>2017-09-17T01:42:08.015Z</time>
</trkpt>
<trkpt lat="-27.0473524" lon="152.5519186">
<ele>170.215</ele>
<time>2017-09-17T01:42:10.692Z</time>
</trkpt>
<trkpt lat="-27.0469246" lon="152.5515292">
<ele>167.740</ele>
<time>2017-09-17T01:42:12.918Z</time>
</trkpt>
<trkpt lat="-27.0465151" lon="152.5511926">
<ele>164.842</ele>
<time>2017-09-17T01:42:14.973Z</time>
</trkpt>
<trkpt lat="-27.0459697" lon="152.5506808">
<ele>162.114</ele>
<time>2017-09-17T01:42:17.856Z</time>
</trkpt>
<trkpt lat="-27.0456060" lon="152.5503244">
<ele>159.812</ele>
<time>2017-09-17T01:42:19.823Z</time>
</trkpt>
<trkpt lat="-27.0451973" lon="152.5500087">
<ele>157.750</ele>
<time>2017-09-17T01:42:21.862Z</time>
</trkpt>
<trkpt lat="-27.0446128" lon="152.5495281">
<ele>155.853</ele>
<time>2017-09-17T01:42:24.839Z</time>
</trkpt>
<trkpt lat="-27.0440426" lon="152.5490408">
<ele>154.112</ele>
<time>2017-09-17T01:42:27.778Z</time>
</trkpt>
<trkpt lat="-27.0434743" lon="152.5485193">
<ele>152.501</ele>
<time>2017-09-17T01:42:30.785Z</time>
</trkpt>
<trkpt lat="-27.0428867" lon="152.5480547">
<ele>151.060</ele>
<time>2017-09-17T01:42:33.726Z</time>
</trkpt>
<trkpt lat="-27.0424813" lon="152.5477519">
<ele>149.889</ele>
<time>2017-09-17T01:42:35.716Z</time>
</trkpt>
<trkpt lat="-27.0420541" lon="152.5475271">
<ele>149.120</ele>
<time>2017-09-17T01:42:37.642Z</time>
</trkpt>
<trkpt lat="-27.0413372" lon="152.5473872">
<ele>148.756</ele>
<time>2017-09-17T01:42:40.612Z</time>
</trkpt>
<trkpt lat="-27.0408475" lon="152.5473704">
<ele>148.475</ele>
<time>2017-09-17T01:42:42.615Z</time>
</trkpt>
<trkpt lat="-27.0403546" lon="152.5473896">
<ele>147.872</ele>
<time>2017-09-17T01:42:44.650Z</time>
</trkpt>
<trkpt lat="-27.0396258" lon="152.5473779">
<ele>146.841</ele>
<time>2017-09-17T01:42:47.620Z</time>
</trkpt>
<trkpt lat="-27.0391592" lon="152.5472699">
<ele>145.556</ele>
<time>2017-09-17T01:42:49.542Z</time>
</trkpt>
<trkpt lat="-27.0387241" lon="152.5470149">
<ele>144.362</ele>
<time>2017-09-17T01:42:51.514Z</time>
</trkpt>
<trkpt lat="-27.0380788" lon="152.5466308">
<ele>143.663</ele>
<time>2017-09-17T01:42:54.416Z</time>
</trkpt>
<trkpt lat="-27.0376014" lon="152.5463438">
<ele>143.599</ele>
<time>2017-09-17T01:42:56.631Z</time>
</trkpt>
<trkpt lat="-27.0371867" lon="152.5460540">
<ele>143.953</ele>
<time>2017-09-17T01:42:58.706Z</time>
</trkpt>
<trkpt lat="-27.0367982" lon="152.5457994">
<ele>144.407</ele>
<time>2017-09-17T01:43:00.670Z</time>
</trkpt>
<trkpt lat="-27.0361904" lon="152.5454813">
<ele>144.772</ele>
<time>2017-09-17T01:43:03.536Z</time>
</trkpt>
<trkpt lat="-27.0357962" lon="152.5452696">
<ele>145.131</ele>
<time>2017-09-17T01:43:05.353Z</time>
</trkpt>
<trkpt lat="-27.0353562" lon="152.5450264">
<ele>145.678</ele>
<time>2017-09-17T01:43:07.395Z</time>
</trkpt>
<trkpt lat="-27.0346460" lon="152.5448372">
<ele>146.350</ele>
<time>2017-09-17T01:43:10.445Z</time>
</trkpt>
<trkpt lat="-27.0341743" lon="152.5447543">
<ele>146.643</ele>
<time>2017-09-17T01:43:12.437Z</time>
</trkpt>
<trkpt lat="-27.0334633" lon="152.5447891">
<ele>146.217</ele>
<time>2017-09-17T01:43:15.363Z</time>
</trkpt>
<trkpt lat="-27.0329866" lon="152.5448484">
<ele>145.426</ele>
<time>2017-09-17T01:43:17.310Z</time>
</trkpt>
<trkpt lat="-27.0322603" lon="152.5449686">
<ele>144.887</ele>
<time>2017-09-17T01:43:20.285Z</time>
</trkpt>
<trkpt lat="-27.0317829" lon="152.5450715">
<ele>144.784</ele>
<time>2017-09-17T01:43:22.260Z</time>
</trkpt>
<trkpt lat="-27.0312930" lon="152.5451356">
<ele>144.750</ele>
<time>2017-09-17T01:43:24.262Z</time>
</trkpt>
<trkpt lat="-27.0305683" lon="152.5452392">
<ele>144.427</ele>
<time>2017-09-17T01:43:27.241Z</time>
</trkpt>
<trkpt lat="-27.0300273" lon="152.5453186">
<ele>143.825</ele>
<time>2017-09-17T01:43:29.484Z</time>
</trkpt>
<trkpt lat="-27.0293418" lon="152.5452479">
<ele>142.989</ele>
<time>2017-09-17T01:43:32.329Z</time>
</trkpt>
<trkpt lat="-27.0288717" lon="152.5451530">
<ele>141.719</ele>
<time>2017-09-17T01:43:34.302Z</time>
</trkpt>
<trkpt lat="-27.0281642" lon="152.5450005">
<ele>140.196</ele>
<time>2017-09-17T01:43:37.272Z</time>
</trkpt>
<trkpt lat="-27.0276959" lon="152.5448898">
<ele>139.410</ele>
<time>2017-09-17T01:43:39.262Z</time>
</trkpt>
<trkpt lat="-27.0272064" lon="152.5448745">
<ele>140.202</ele>
<time>2017-09-17T01:43:41.331Z</time>
</trkpt>
<trkpt lat="-27.0267514" lon="152.5449244">
<ele>142.188</ele>
<time>2017-09-17T01:43:43.280Z</time>
</trkpt>
<trkpt lat="-27.0260649" lon="152.5450503">
<ele>144.213</ele>
<time>2017-09-17T01:43:46.273Z</time>
</trkpt>
<trkpt lat="-27.0256214" lon="152.5451897">
<ele>145.429</ele>
<time>2017-09-17T01:43:48.257Z</time>
</trkpt>
<trkpt lat="-27.0249729" lon="152.5454537">
<ele>145.531</ele>
<time>2017-09-17T01:43:51.211Z</time>
</trkpt>
<trkpt lat="-27.0245662" lon="152.5457217">
<ele>144.309</ele>
<time>2017-09-17T01:43:53.253Z</time>
</trkpt>
<trkpt lat="-27.0241221" lon="152.5459030">
<ele>141.814</ele>
<time>2017-09-17T01:43:55.326Z</time>
</trkpt>
<trkpt lat="-27.0234854" lon="152.5461627">
<ele>138.749</ele>
<time>2017-09-17T01:43:58.308Z</time>
</trkpt>
<trkpt lat="-27.0230698" lon="152.5463366">
<ele>135.853</ele>
<time>2017-09-17T01:44:00.253Z</time>
</trkpt>
<trkpt lat="-27.0226457" lon="152.5465153">
<ele>133.523</ele>
<time>2017-09-17T01:44:02.227Z</time>
</trkpt>
<trkpt lat="-27.0222437" lon="152.5467376">
<ele>131.985</ele>
<time>2017-09-17T01:44:04.154Z</time>
</trkpt>
<trkpt lat="-27.0216113" lon="152.5470649">
<ele>131.249</ele>
<time>2017-09-17T01:44:07.133Z</time>
</trkpt>
<trkpt lat="-27.0211585" lon="152.5472403">
<ele>131.101</ele>
<time>2017-09-17T01:44:09.268Z</time>
</trkpt>
<trkpt lat="-27.0207310" lon="152.5473999">
<ele>131.493</ele>
<time>2017-09-17T01:44:11.343Z</time>
</trkpt>
<trkpt lat="-27.0203098" lon="152.5475097">
<ele>132.529</ele>
<time>2017-09-17T01:44:13.363Z</time>
</trkpt>
<trkpt lat="-27.0198853" lon="152.5475168">
<ele>134.083</ele>
<time>2017-09-17T01:44:15.352Z</time>
</trkpt>
<trkpt lat="-27.0192532" lon="152.5475099">
<ele>135.588</ele>
<time>2017-09-17T01:44:18.303Z</time>
</trkpt>
<trkpt lat="-27.0188271" lon="152.5474937">
<ele>136.490</ele>
<time>2017-09-17T01:44:20.290Z</time>
</trkpt>
<trkpt lat="-27.0181873" lon="152.5475061">
<ele>136.608</ele>
<time>2017-09-17T01:44:23.286Z</time>
</trkpt>
<trkpt lat="-27.0175502" lon="152.5475142">
<ele>135.936</ele>
<time>2017-09-17T01:44:26.302Z</time>
</trkpt>
<trkpt lat="-27.0171301" lon="152.5475300">
<ele>134.608</ele>
<time>2017-09-17T01:44:28.307Z</time>
</trkpt>
<trkpt lat="-27.0167130" lon="152.5475748">
<ele>133.140</ele>
<time>2017-09-17T01:44:30.297Z</time>
</trkpt>
<trkpt lat="-27.0160958" lon="152.5476708">
<ele>132.015</ele>
<time>2017-09-17T01:44:33.193Z</time>
</trkpt>
<trkpt lat="-27.0156829" lon="152.5478029">
<ele>131.229</ele>
<time>2017-09-17T01:44:35.162Z</time>
</trkpt>
<trkpt lat="-27.0150726" lon="152.5480524">
<ele>130.600</ele>
<time>2017-09-17T01:44:38.117Z</time>
</trkpt>
<trkpt lat="-27.0146673" lon="152.5482297">
<ele>130.151</ele>
<time>2017-09-17T01:44:40.099Z</time>
</trkpt>
<trkpt lat="-27.0140932" lon="152.5485927">
<ele>130.039</ele>
<time>2017-09-17T01:44:43.122Z</time>
</trkpt>
<trkpt lat="-27.0135904" lon="152.5490390">
<ele>130.481</ele>
<time>2017-09-17T01:44:46.098Z</time>
</trkpt>
<trkpt lat="-27.0131171" lon="152.5495060">
<ele>131.742</ele>
<time>2017-09-17T01:44:49.042Z</time>
</trkpt>
<trkpt lat="-27.0126800" lon="152.5500252">
<ele>133.900</ele>
<time>2017-09-17T01:44:52.055Z</time>
</trkpt>
<trkpt lat="-27.0124122" lon="152.5503850">
<ele>136.774</ele>
<time>2017-09-17T01:44:54.097Z</time>
</trkpt>
<trkpt lat="-27.0121893" lon="152.5507731">
<ele>139.908</ele>
<time>2017-09-17T01:44:56.135Z</time>
</trkpt>
<trkpt lat="-27.0118621" lon="152.5513318">
<ele>142.701</ele>
<time>2017-09-17T01:44:59.119Z</time>
</trkpt>
<trkpt lat="-27.0115114" lon="152.5518621">
<ele>144.854</ele>
<time>2017-09-17T01:45:02.065Z</time>
</trkpt>
<trkpt lat="-27.0110961" lon="152.5523362">
<ele>146.311</ele>
<time>2017-09-17T01:45:04.980Z</time>
</trkpt>
<trkpt lat="-27.0107554" lon="152.5525874">
<ele>146.819</ele>
<time>2017-09-17T01:45:06.953Z</time>
</trkpt>
<trkpt lat="-27.0101717" lon="152.5528527">
<ele>146.177</ele>
<time>2017-09-17T01:45:09.951Z</time>
</trkpt>
<trkpt lat="-27.0095988" lon="152.5531261">
<ele>144.552</ele>
<time>2017-09-17T01:45:12.849Z</time>
</trkpt>
<trkpt lat="-27.0091834" lon="152.5532671">
<ele>142.223</ele>
<time>2017-09-17T01:45:14.854Z</time>
</trkpt>
<trkpt lat="-27.0087475" lon="152.5533243">
<ele>139.610</ele>
<time>2017-09-17T01:45:16.877Z</time>
</trkpt>
<trkpt lat="-27.0083148" lon="152.5533386">
<ele>137.346</ele>
<time>2017-09-17T01:45:18.865Z</time>
</trkpt>
<trkpt lat="-27.0076490" lon="152.5532453">
<ele>135.826</ele>
<time>2017-09-17T01:45:21.928Z</time>
</trkpt>
<trkpt lat="-27.0072198" lon="152.5531259">
<ele>134.806</ele>
<time>2017-09-17T01:45:23.954Z</time>
</trkpt>
<trkpt lat="-27.0065815" lon="152.5530144">
<ele>133.792</ele>
<time>2017-09-17T01:45:26.983Z</time>
</trkpt>
<trkpt lat="-27.0061587" lon="152.5529508">
<ele>132.770</ele>
<time>2017-09-17T01:45:29.058Z</time>
</trkpt>
<trkpt lat="-27.0057613" lon="152.5528742">
<ele>132.174</ele>
<time>2017-09-17T01:45:31.020Z</time>
</trkpt>
<trkpt lat="-27.0051460" lon="152.5527985">
<ele>132.368</ele>
<time>2017-09-17T01:45:34.013Z</time>
</trkpt>
<trkpt lat="-27.0047440" lon="152.5527323">
<ele>133.648</ele>
<time>2017-09-17T01:45:35.980Z</time>
</trkpt>
<trkpt lat="-27.0043368" lon="152.5526404">
<ele>135.934</ele>
<time>2017-09-17T01:45:38.031Z</time>
</trkpt>
<trkpt lat="-27.0039317" lon="152.5525947">
<ele>138.544</ele>
<time>2017-09-17T01:45:40.096Z</time>
</trkpt>
<trkpt lat="-27.0035494" lon="152.5525227">
<ele>140.870</ele>
<time>2017-09-17T01:45:42.036Z</time>
</trkpt>
<trkpt lat="-27.0029949" lon="152.5524155">
<ele>142.688</ele>
<time>2017-09-17T01:45:44.761Z</time>
</trkpt>
<trkpt lat="-27.0023477" lon="152.5522776">
<ele>143.832</ele>
<time>2017-09-17T01:45:47.753Z</time>
</trkpt>
<trkpt lat="-27.0017084" lon="152.5521304">
<ele>144.144</ele>
<time>2017-09-17T01:45:50.580Z</time>
</trkpt>
<trkpt lat="-27.0012523" lon="152.5520242">
<ele>143.508</ele>
<time>2017-09-17T01:45:52.572Z</time>
</trkpt>
<trkpt lat="-27.0008045" lon="152.5519080">
<ele>142.096</ele>
<time>2017-09-17T01:45:54.548Z</time>
</trkpt>
<trkpt lat="-27.0001665" lon="152.5516280">
<ele>140.438</ele>
<time>2017-09-17T01:45:57.542Z</time>
</trkpt>
<trkpt lat="-26.9995864" lon="152.5512462">
<ele>138.761</ele>
<time>2017-09-17T01:46:00.486Z</time>
</trkpt>
<trkpt lat="-26.9991944" lon="152.5509923">
<ele>137.006</ele>
<time>2017-09-17T01:46:02.441Z</time>
</trkpt>
<trkpt lat="-26.9988135" lon="152.5507059">
<ele>135.481</ele>
<time>2017-09-17T01:46:04.419Z</time>
</trkpt>
<trkpt lat="-26.9982637" lon="152.5502336">
<ele>134.437</ele>
<time>2017-09-17T01:46:07.420Z</time>
</trkpt>
<trkpt lat="-26.9977272" lon="152.5497555">
<ele>133.477</ele>
<time>2017-09-17T01:46:10.446Z</time>
</trkpt>
<trkpt lat="-26.9973901" lon="152.5494240">
<ele>132.183</ele>
<time>2017-09-17T01:46:12.482Z</time>
</trkpt>
<trkpt lat="-26.9970478" lon="152.5491305">
<ele>130.703</ele>
<time>2017-09-17T01:46:14.471Z</time>
</trkpt>
<trkpt lat="-26.9965569" lon="152.5486902">
<ele>129.413</ele>
<time>2017-09-17T01:46:17.475Z</time>
</trkpt>
<trkpt lat="-26.9960284" lon="152.5483432">
<ele>128.409</ele>
<time>2017-09-17T01:46:20.464Z</time>
</trkpt>
<trkpt lat="-26.9954635" lon="152.5480757">
<ele>127.628</ele>
<time>2017-09-17T01:46:23.469Z</time>
</trkpt>
<trkpt lat="-26.9950682" lon="152.5479787">
<ele>127.103</ele>
<time>2017-09-17T01:46:25.483Z</time>
</trkpt>
<trkpt lat="-26.9946939" lon="152.5478488">
<ele>126.897</ele>
<time>2017-09-17T01:46:27.438Z</time>
</trkpt>
<trkpt lat="-26.9943347" lon="152.5476839">
<ele>126.932</ele>
<time>2017-09-17T01:46:29.366Z</time>
</trkpt>
<trkpt lat="-26.9938042" lon="152.5473620">
<ele>127.053</ele>
<time>2017-09-17T01:46:32.296Z</time>
</trkpt>
<trkpt lat="-26.9934652" lon="152.5470944">
<ele>127.199</ele>
<time>2017-09-17T01:46:34.283Z</time>
</trkpt>
<trkpt lat="-26.9931202" lon="152.5468385">
<ele>127.502</ele>
<time>2017-09-17T01:46:36.258Z</time>
</trkpt>
<trkpt lat="-26.9925940" lon="152.5464627">
<ele>128.108</ele>
<time>2017-09-17T01:46:39.195Z</time>
</trkpt>
<trkpt lat="-26.9920973" lon="152.5460430">
<ele>129.128</ele>
<time>2017-09-17T01:46:42.049Z</time>
</trkpt>
<trkpt lat="-26.9915170" lon="152.5456019">
<ele>130.429</ele>
<time>2017-09-17T01:46:45.138Z</time>
</trkpt>
<trkpt lat="-26.9909740" lon="152.5451454">
<ele>131.522</ele>
<time>2017-09-17T01:46:48.047Z</time>
</trkpt>
<trkpt lat="-26.9903706" lon="152.5447398">
<ele>132.059</ele>
<time>2017-09-17T01:46:51.055Z</time>
</trkpt>
<trkpt lat="-26.9900035" lon="152.5444446">
<ele>132.177</ele>
<time>2017-09-17T01:46:53.007Z</time>
</trkpt>
<trkpt lat="-26.9896354" lon="152.5441441">
<ele>132.228</ele>
<time>2017-09-17T01:46:54.988Z</time>
</trkpt>
<trkpt lat="-26.9892517" lon="152.5438789">
<ele>132.472</ele>
<time>2017-09-17T01:46:56.955Z</time>
</trkpt>
<trkpt lat="-26.9887037" lon="152.5434336">
<ele>133.032</ele>
<time>2017-09-17T01:47:00.062Z</time>
</trkpt>
<trkpt lat="-26.9883405" lon="152.5431907">
<ele>134.250</ele>
<time>2017-09-17T01:47:02.113Z</time>
</trkpt>
<trkpt lat="-26.9880154" lon="152.5429448">
<ele>136.331</ele>
<time>2017-09-17T01:47:04.027Z</time>
</trkpt>
<trkpt lat="-26.9877184" lon="152.5426363">
<ele>138.762</ele>
<time>2017-09-17T01:47:05.990Z</time>
</trkpt>
<trkpt lat="-26.9872258" lon="152.5421909">
<ele>140.738</ele>
<time>2017-09-17T01:47:08.943Z</time>
</trkpt>
<trkpt lat="-26.9867475" lon="152.5417188">
<ele>141.831</ele>
<time>2017-09-17T01:47:11.803Z</time>
</trkpt>
<trkpt lat="-26.9864261" lon="152.5413638">
<ele>141.878</ele>
<time>2017-09-17T01:47:13.742Z</time>
</trkpt>
<trkpt lat="-26.9860859" lon="152.5409955">
<ele>140.974</ele>
<time>2017-09-17T01:47:15.723Z</time>
</trkpt>
<trkpt lat="-26.9855420" lon="152.5404450">
<ele>139.741</ele>
<time>2017-09-17T01:47:18.724Z</time>
</trkpt>
<trkpt lat="-26.9850273" lon="152.5398382">
<ele>139.093</ele>
<time>2017-09-17T01:47:21.806Z</time>
</trkpt>
<trkpt lat="-26.9846902" lon="152.5394661">
<ele>139.670</ele>
<time>2017-09-17T01:47:23.812Z</time>
</trkpt>
<trkpt lat="-26.9841858" lon="152.5389509">
<ele>141.464</ele>
<time>2017-09-17T01:47:26.808Z</time>
</trkpt>
<trkpt lat="-26.9838478" lon="152.5386364">
<ele>143.909</ele>
<time>2017-09-17T01:47:28.730Z</time>
</trkpt>
<trkpt lat="-26.9834485" lon="152.5384029">
<ele>146.484</ele>
<time>2017-09-17T01:47:30.669Z</time>
</trkpt>
<trkpt lat="-26.9828439" lon="152.5380252">
<ele>148.759</ele>
<time>2017-09-17T01:47:33.549Z</time>
</trkpt>
<trkpt lat="-26.9822031" lon="152.5376155">
<ele>150.242</ele>
<time>2017-09-17T01:47:36.642Z</time>
</trkpt>
<trkpt lat="-26.9817661" lon="152.5374339">
<ele>150.537</ele>
<time>2017-09-17T01:47:38.808Z</time>
</trkpt>
<trkpt lat="-26.9813976" lon="152.5373171">
<ele>149.632</ele>
<time>2017-09-17T01:47:40.917Z</time>
</trkpt>
<trkpt lat="-26.9810889" lon="152.5372500">
<ele>148.079</ele>
<time>2017-09-17T01:47:42.871Z</time>
</trkpt>
<trkpt lat="-26.9808015" lon="152.5371541">
<ele>146.503</ele>
<time>2017-09-17T01:47:44.774Z</time>
</trkpt>
<trkpt lat="-26.9803296" lon="152.5370683">
<ele>145.083</ele>
<time>2017-09-17T01:47:47.649Z</time>
</trkpt>
<trkpt lat="-26.9797999" lon="152.5369622">
<ele>143.749</ele>
<time>2017-09-17T01:47:50.862Z</time>
</trkpt>
<trkpt lat="-26.9793253" lon="152.5369007">
<ele>142.404</ele>
<time>2017-09-17T01:47:53.577Z</time>
</trkpt>
<trkpt lat="-26.9789632" lon="152.5368340">
<ele>141.205</ele>
<time>2017-09-17T01:47:55.428Z</time>
</trkpt>
<trkpt lat="-26.9783094" lon="152.5367180">
<ele>140.529</ele>
<time>2017-09-17T01:47:58.481Z</time>
</trkpt>
<trkpt lat="-26.9778677" lon="152.5366127">
<ele>140.561</ele>
<time>2017-09-17T01:48:00.551Z</time>
</trkpt>
<trkpt lat="-26.9772378" lon="152.5365239">
<ele>141.170</ele>
<time>2017-09-17T01:48:03.577Z</time>
</trkpt>
<trkpt lat="-26.9768323" lon="152.5364617">
<ele>142.258</ele>
<time>2017-09-17T01:48:05.543Z</time>
</trkpt>
<trkpt lat="-26.9762150" lon="152.5363330">
<ele>143.831</ele>
<time>2017-09-17T01:48:08.520Z</time>
</trkpt>
<trkpt lat="-26.9757993" lon="152.5362786">
<ele>145.851</ele>
<time>2017-09-17T01:48:10.493Z</time>
</trkpt>
<trkpt lat="-26.9751715" lon="152.5361669">
<ele>147.943</ele>
<time>2017-09-17T01:48:13.378Z</time>
</trkpt>
<trkpt lat="-26.9747093" lon="152.5360862">
<ele>149.464</ele>
<time>2017-09-17T01:48:15.374Z</time>
</trkpt>
<trkpt lat="-26.9739755" lon="152.5359421">
<ele>150.049</ele>
<time>2017-09-17T01:48:18.433Z</time>
</trkpt>
<trkpt lat="-26.9732386" lon="152.5357671">
<ele>149.561</ele>
<time>2017-09-17T01:48:21.463Z</time>
</trkpt>
<trkpt lat="-26.9727566" lon="152.5356707">
<ele>147.862</ele>
<time>2017-09-17T01:48:23.440Z</time>
</trkpt>
<trkpt lat="-26.9720249" lon="152.5355839">
<ele>145.374</ele>
<time>2017-09-17T01:48:26.442Z</time>
</trkpt>
<trkpt lat="-26.9713091" lon="152.5355146">
<ele>143.161</ele>
<time>2017-09-17T01:48:29.419Z</time>
</trkpt>
<trkpt lat="-26.9708477" lon="152.5354115">
<ele>142.053</ele>
<time>2017-09-17T01:48:31.386Z</time>
</trkpt>
<trkpt lat="-26.9701394" lon="152.5353247">
<ele>142.230</ele>
<time>2017-09-17T01:48:34.319Z</time>
</trkpt>
<trkpt lat="-26.9696508" lon="152.5352274">
<ele>143.449</ele>
<time>2017-09-17T01:48:36.307Z</time>
</trkpt>
<trkpt lat="-26.9691591" lon="152.5351885">
<ele>145.041</ele>
<time>2017-09-17T01:48:38.257Z</time>
</trkpt>
<trkpt lat="-26.9686639" lon="152.5351377">
<ele>146.150</ele>
<time>2017-09-17T01:48:40.206Z</time>
</trkpt>
<trkpt lat="-26.9679047" lon="152.5350373">
<ele>146.298</ele>
<time>2017-09-17T01:48:43.213Z</time>
</trkpt>
<trkpt lat="-26.9671591" lon="152.5349655">
<ele>145.486</ele>
<time>2017-09-17T01:48:46.199Z</time>
</trkpt>
<trkpt lat="-26.9666706" lon="152.5348985">
<ele>144.122</ele>
<time>2017-09-17T01:48:48.207Z</time>
</trkpt>
<trkpt lat="-26.9659592" lon="152.5347849">
<ele>142.907</ele>
<time>2017-09-17T01:48:51.175Z</time>
</trkpt>
<trkpt lat="-26.9652495" lon="152.5347184">
<ele>142.435</ele>
<time>2017-09-17T01:48:54.131Z</time>
</trkpt>
<trkpt lat="-26.9645338" lon="152.5346209">
<ele>142.932</ele>
<time>2017-09-17T01:48:57.110Z</time>
</trkpt>
<trkpt lat="-26.9640578" lon="152.5345375">
<ele>143.971</ele>
<time>2017-09-17T01:48:59.097Z</time>
</trkpt>
<trkpt lat="-26.9633372" lon="152.5345251">
<ele>144.757</ele>
<time>2017-09-17T01:49:02.091Z</time>
</trkpt>
<trkpt lat="-26.9628692" lon="152.5344656">
<ele>144.889</ele>
<time>2017-09-17T01:49:04.064Z</time>
</trkpt>
<trkpt lat="-26.9624004" lon="152.5343990">
<ele>144.580</ele>
<time>2017-09-17T01:49:06.026Z</time>
</trkpt>
<trkpt lat="-26.9616835" lon="152.5343080">
<ele>144.242</ele>
<time>2017-09-17T01:49:08.989Z</time>
</trkpt>
<trkpt lat="-26.9609547" lon="152.5342275">
<ele>144.135</ele>
<time>2017-09-17T01:49:11.959Z</time>
</trkpt>
<trkpt lat="-26.9604624" lon="152.5341527">
<ele>144.445</ele>
<time>2017-09-17T01:49:13.971Z</time>
</trkpt>
<trkpt lat="-26.9597318" lon="152.5341666">
<ele>145.201</ele>
<time>2017-09-17T01:49:16.933Z</time>
</trkpt>
<trkpt lat="-26.9590123" lon="152.5343230">
<ele>146.156</ele>
<time>2017-09-17T01:49:19.891Z</time>
</trkpt>
<trkpt lat="-26.9583233" lon="152.5346562">
<ele>147.130</ele>
<time>2017-09-17T01:49:22.903Z</time>
</trkpt>
<trkpt lat="-26.9576489" lon="152.5350081">
<ele>148.247</ele>
<time>2017-09-17T01:49:25.868Z</time>
</trkpt>
<trkpt lat="-26.9572258" lon="152.5353229">
<ele>149.589</ele>
<time>2017-09-17T01:49:27.873Z</time>
</trkpt>
<trkpt lat="-26.9566619" lon="152.5358745">
<ele>150.845</ele>
<time>2017-09-17T01:49:30.872Z</time>
</trkpt>
<trkpt lat="-26.9562969" lon="152.5362044">
<ele>151.485</ele>
<time>2017-09-17T01:49:32.810Z</time>
</trkpt>
<trkpt lat="-26.9559044" lon="152.5365176">
<ele>151.259</ele>
<time>2017-09-17T01:49:34.813Z</time>
</trkpt>
<trkpt lat="-26.9555178" lon="152.5368386">
<ele>150.409</ele>
<time>2017-09-17T01:49:36.824Z</time>
</trkpt>
<trkpt lat="-26.9549630" lon="152.5373400">
<ele>149.330</ele>
<time>2017-09-17T01:49:39.800Z</time>
</trkpt>
<trkpt lat="-26.9546256" lon="152.5377291">
<ele>148.073</ele>
<time>2017-09-17T01:49:41.812Z</time>
</trkpt>
<trkpt lat="-26.9542531" lon="152.5380685">
<ele>146.614</ele>
<time>2017-09-17T01:49:43.800Z</time>
</trkpt>
<trkpt lat="-26.9536921" lon="152.5385691">
<ele>145.241</ele>
<time>2017-09-17T01:49:46.763Z</time>
</trkpt>
<trkpt lat="-26.9533213" lon="152.5389161">
<ele>144.182</ele>
<time>2017-09-17T01:49:48.764Z</time>
</trkpt>
<trkpt lat="-26.9529457" lon="152.5392506">
<ele>143.462</ele>
<time>2017-09-17T01:49:50.762Z</time>
</trkpt>
<trkpt lat="-26.9523719" lon="152.5397251">
<ele>143.059</ele>
<time>2017-09-17T01:49:53.735Z</time>
</trkpt>
<trkpt lat="-26.9518153" lon="152.5402238">
<ele>142.648</ele>
<time>2017-09-17T01:49:56.699Z</time>
</trkpt>
<trkpt lat="-26.9511973" lon="152.5406386">
<ele>141.783</ele>
<time>2017-09-17T01:49:59.683Z</time>
</trkpt>
<trkpt lat="-26.9507568" lon="152.5408438">
<ele>140.575</ele>
<time>2017-09-17T01:50:01.658Z</time>
</trkpt>
<trkpt lat="-26.9501309" lon="152.5412434">
<ele>139.561</ele>
<time>2017-09-17T01:50:04.638Z</time>
</trkpt>
<trkpt lat="-26.9494884" lon="152.5416089">
<ele>138.996</ele>
<time>2017-09-17T01:50:07.629Z</time>
</trkpt>
<trkpt lat="-26.9490666" lon="152.5418532">
<ele>138.757</ele>
<time>2017-09-17T01:50:09.644Z</time>
</trkpt>
<trkpt lat="-26.9486832" lon="152.5420995">
<ele>138.582</ele>
<time>2017-09-17T01:50:11.614Z</time>
</trkpt>
<trkpt lat="-26.9483496" lon="152.5423564">
<ele>138.069</ele>
<time>2017-09-17T01:50:13.573Z</time>
</trkpt>
<trkpt lat="-26.9480464" lon="152.5425946">
<ele>136.863</ele>
<time>2017-09-17T01:50:15.501Z</time>
</trkpt>
<trkpt lat="-26.9478016" lon="152.5429001">
<ele>135.015</ele>
<time>2017-09-17T01:50:17.473Z</time>
</trkpt>
<trkpt lat="-26.9473521" lon="152.5432487">
<ele>133.024</ele>
<time>2017-09-17T01:50:20.499Z</time>
</trkpt>
<trkpt lat="-26.9469587" lon="152.5436021">
<ele>131.393</ele>
<time>2017-09-17T01:50:23.475Z</time>
</trkpt>
<trkpt lat="-26.9467246" lon="152.5438042">
<ele>130.277</ele>
<time>2017-09-17T01:50:25.425Z</time>
</trkpt>
<trkpt lat="-26.9464992" lon="152.5439667">
<ele>129.621</ele>
<time>2017-09-17T01:50:27.406Z</time>
</trkpt>
<trkpt lat="-26.9462445" lon="152.5442370">
<ele>129.294</ele>
<time>2017-09-17T01:50:30.226Z</time>
</trkpt>
<trkpt lat="-26.9460510" lon="152.5443375">
<ele>129.055</ele>
<time>2017-09-17T01:50:32.124Z</time>
</trkpt>
<trkpt lat="-26.9457754" lon="152.5444989">
<ele>128.735</ele>
<time>2017-09-17T01:50:35.065Z</time>
</trkpt>
<trkpt lat="-26.9455188" lon="152.5445915">
<ele>128.280</ele>
<time>2017-09-17T01:50:37.882Z</time>
</trkpt>
<trkpt lat="-26.9453690" lon="152.5446427">
<ele>127.611</ele>
<time>2017-09-17T01:50:39.760Z</time>
</trkpt>
<trkpt lat="-26.9452742" lon="152.5447472">
<ele>126.762</ele>
<time>2017-09-17T01:50:41.654Z</time>
</trkpt>
<trkpt lat="-26.9451412" lon="152.5447576">
<ele>125.907</ele>
<time>2017-09-17T01:50:43.982Z</time>
</trkpt>
<trkpt lat="-26.9451196" lon="152.5448755">
<ele>125.121</ele>
<time>2017-09-17T01:50:46.999Z</time>
</trkpt>
<trkpt lat="-26.9451196" lon="152.5448755">
<ele>124.467</ele>
<time>2017-09-17T01:50:49.999Z</time>
</trkpt>
<trkpt lat="-26.9451196" lon="152.5448755">
<ele>124.115</ele>
<time>2017-09-17T01:50:53.251Z</time>
</trkpt>
<trkpt lat="-26.9450811" lon="152.5450037">
<ele>124.095</ele>
<time>2017-09-17T01:50:56.938Z</time>
</trkpt>
<trkpt lat="-26.9451807" lon="152.5452191">
<ele>124.195</ele>
<time>2017-09-17T01:50:59.514Z</time>
</trkpt>
<trkpt lat="-26.9453253" lon="152.5455796">
<ele>124.246</ele>
<time>2017-09-17T01:51:02.690Z</time>
</trkpt>
<trkpt lat="-26.9454313" lon="152.5459856">
<ele>124.321</ele>
<time>2017-09-17T01:51:05.610Z</time>
</trkpt>
<trkpt lat="-26.9455248" lon="152.5463640">
<ele>124.642</ele>
<time>2017-09-17T01:51:07.982Z</time>
</trkpt>
<trkpt lat="-26.9455702" lon="152.5468698">
<ele>125.326</ele>
<time>2017-09-17T01:51:10.817Z</time>
</trkpt>
<trkpt lat="-26.9456290" lon="152.5472656">
<ele>126.452</ele>
<time>2017-09-17T01:51:12.908Z</time>
</trkpt>
<trkpt lat="-26.9456466" lon="152.5476575">
<ele>128.017</ele>
<time>2017-09-17T01:51:14.928Z</time>
</trkpt>
<trkpt lat="-26.9456775" lon="152.5480433">
<ele>129.699</ele>
<time>2017-09-17T01:51:16.933Z</time>
</trkpt>
<trkpt lat="-26.9457439" lon="152.5484266">
<ele>131.147</ele>
<time>2017-09-17T01:51:18.963Z</time>
</trkpt>
<trkpt lat="-26.9457983" lon="152.5489899">
<ele>132.323</ele>
<time>2017-09-17T01:51:21.960Z</time>
</trkpt>
<trkpt lat="-26.9458726" lon="152.5495295">
<ele>133.319</ele>
<time>2017-09-17T01:51:24.919Z</time>
</trkpt>
<trkpt lat="-26.9459376" lon="152.5498816">
<ele>134.164</ele>
<time>2017-09-17T01:51:26.823Z</time>
</trkpt>
<trkpt lat="-26.9461279" lon="152.5504226">
<ele>134.901</ele>
<time>2017-09-17T01:51:29.762Z</time>
</trkpt>
<trkpt lat="-26.9463493" lon="152.5510068">
<ele>135.547</ele>
<time>2017-09-17T01:51:32.761Z</time>
</trkpt>
<trkpt lat="-26.9466257" lon="152.5515919">
<ele>135.930</ele>
<time>2017-09-17T01:51:35.797Z</time>
</trkpt>
<trkpt lat="-26.9469117" lon="152.5521436">
<ele>135.853</ele>
<time>2017-09-17T01:51:38.730Z</time>
</trkpt>
<trkpt lat="-26.9472406" lon="152.5526579">
<ele>135.301</ele>
<time>2017-09-17T01:51:41.629Z</time>
</trkpt>
<trkpt lat="-26.9475270" lon="152.5532394">
<ele>134.411</ele>
<time>2017-09-17T01:51:44.643Z</time>
</trkpt>
<trkpt lat="-26.9477061" lon="152.5536181">
<ele>133.530</ele>
<time>2017-09-17T01:51:46.579Z</time>
</trkpt>
<trkpt lat="-26.9479272" lon="152.5542493">
<ele>133.001</ele>
<time>2017-09-17T01:51:49.627Z</time>
</trkpt>
<trkpt lat="-26.9480186" lon="152.5547582">
<ele>132.861</ele>
<time>2017-09-17T01:51:51.935Z</time>
</trkpt>
<trkpt lat="-26.9481019" lon="152.5552265">
<ele>132.910</ele>
<time>2017-09-17T01:51:54.066Z</time>
</trkpt>
<trkpt lat="-26.9481393" lon="152.5556014">
<ele>132.961</ele>
<time>2017-09-17T01:51:55.797Z</time>
</trkpt>
<trkpt lat="-26.9480683" lon="152.5562438">
<ele>132.970</ele>
<time>2017-09-17T01:51:58.936Z</time>
</trkpt>
<trkpt lat="-26.9479930" lon="152.5567906">
<ele>132.962</ele>
<time>2017-09-17T01:52:01.963Z</time>
</trkpt>
<trkpt lat="-26.9480044" lon="152.5572738">
<ele>132.808</ele>
<time>2017-09-17T01:52:04.864Z</time>
</trkpt>
<trkpt lat="-26.9479641" lon="152.5575921">
<ele>132.266</ele>
<time>2017-09-17T01:52:06.841Z</time>
</trkpt>
<trkpt lat="-26.9479426" lon="152.5579154">
<ele>131.407</ele>
<time>2017-09-17T01:52:08.829Z</time>
</trkpt>
<trkpt lat="-26.9479050" lon="152.5582349">
<ele>130.642</ele>
<time>2017-09-17T01:52:10.794Z</time>
</trkpt>
<trkpt lat="-26.9478508" lon="152.5585582">
<ele>130.295</ele>
<time>2017-09-17T01:52:12.783Z</time>
</trkpt>
<trkpt lat="-26.9477849" lon="152.5588818">
<ele>130.356</ele>
<time>2017-09-17T01:52:14.771Z</time>
</trkpt>
<trkpt lat="-26.9477582" lon="152.5593875">
<ele>130.603</ele>
<time>2017-09-17T01:52:17.798Z</time>
</trkpt>
<trkpt lat="-26.9477210" lon="152.5597165">
<ele>130.630</ele>
<time>2017-09-17T01:52:19.787Z</time>
</trkpt>
<trkpt lat="-26.9476878" lon="152.5600403">
<ele>130.166</ele>
<time>2017-09-17T01:52:21.755Z</time>
</trkpt>
<trkpt lat="-26.9476607" lon="152.5603635">
<ele>129.422</ele>
<time>2017-09-17T01:52:23.727Z</time>
</trkpt>
<trkpt lat="-26.9476244" lon="152.5608503">
<ele>128.810</ele>
<time>2017-09-17T01:52:26.700Z</time>
</trkpt>
<trkpt lat="-26.9475702" lon="152.5611744">
<ele>128.548</ele>
<time>2017-09-17T01:52:28.689Z</time>
</trkpt>
<trkpt lat="-26.9474909" lon="152.5616674">
<ele>128.670</ele>
<time>2017-09-17T01:52:31.700Z</time>
</trkpt>
<trkpt lat="-26.9473818" lon="152.5621481">
<ele>129.003</ele>
<time>2017-09-17T01:52:34.724Z</time>
</trkpt>
<trkpt lat="-26.9473119" lon="152.5624416">
<ele>129.166</ele>
<time>2017-09-17T01:52:36.721Z</time>
</trkpt>
<trkpt lat="-26.9472105" lon="152.5628411">
<ele>128.903</ele>
<time>2017-09-17T01:52:39.586Z</time>
</trkpt>
<trkpt lat="-26.9471753" lon="152.5632555">
<ele>128.286</ele>
<time>2017-09-17T01:52:42.565Z</time>
</trkpt>
<trkpt lat="-26.9471673" lon="152.5635306">
<ele>127.483</ele>
<time>2017-09-17T01:52:44.647Z</time>
</trkpt>
<trkpt lat="-26.9471214" lon="152.5638894">
<ele>126.624</ele>
<time>2017-09-17T01:52:47.588Z</time>
</trkpt>
<trkpt lat="-26.9471222" lon="152.5640956">
<ele>125.828</ele>
<time>2017-09-17T01:52:49.679Z</time>
</trkpt>
<trkpt lat="-26.9470885" lon="152.5642321">
<ele>125.123</ele>
<time>2017-09-17T01:52:51.888Z</time>
</trkpt>
<trkpt lat="-26.9471229" lon="152.5643334">
<ele>124.433</ele>
<time>2017-09-17T01:52:54.721Z</time>
</trkpt>
<trkpt lat="-26.9472171" lon="152.5643226">
<ele>123.638</ele>
<time>2017-09-17T01:52:58.999Z</time>
</trkpt>
<trkpt lat="-26.9472171" lon="152.5643226">
<ele>122.836</ele>
<time>2017-09-17T01:52:59.999Z</time>
</trkpt>
<trkpt lat="-26.9472171" lon="152.5643226">
<ele>122.368</ele>
<time>2017-09-17T01:55:05.865Z</time>
</trkpt>
<trkpt lat="-26.9472904" lon="152.5645648">
<ele>122.351</ele>
<time>2017-09-17T01:58:01.999Z</time>
</trkpt>
<trkpt lat="-26.9472904" lon="152.5645648">
<ele>122.463</ele>
<time>2017-09-17T01:58:04.999Z</time>
</trkpt>
<trkpt lat="-26.9472904" lon="152.5645648">
<ele>122.427</ele>
<time>2017-09-17T02:50:21.744Z</time>
</trkpt>
<trkpt lat="-26.9472145" lon="152.5647448">
<ele>122.317</ele>
<time>2017-09-17T02:50:39.794Z</time>
</trkpt>
<trkpt lat="-26.9471012" lon="152.5647785">
<ele>123.039</ele>
<time>2017-09-17T02:50:42.935Z</time>
</trkpt>
<trkpt lat="-26.9470569" lon="152.5648726">
<ele>125.123</ele>
<time>2017-09-17T02:50:45.121Z</time>
</trkpt>
<trkpt lat="-26.9470332" lon="152.5650110">
<ele>127.425</ele>
<time>2017-09-17T02:50:47.579Z</time>
</trkpt>
<trkpt lat="-26.9470196" lon="152.5651292">
<ele>128.761</ele>
<time>2017-09-17T02:50:49.563Z</time>
</trkpt>
<trkpt lat="-26.9469914" lon="152.5653111">
<ele>129.268</ele>
<time>2017-09-17T02:50:52.667Z</time>
</trkpt>
<trkpt lat="-26.9470002" lon="152.5654282">
<ele>129.377</ele>
<time>2017-09-17T02:50:54.565Z</time>
</trkpt>
<trkpt lat="-26.9469808" lon="152.5655415">
<ele>129.364</ele>
<time>2017-09-17T02:50:56.357Z</time>
</trkpt>
<trkpt lat="-26.9468458" lon="152.5656520">
<ele>129.357</ele>
<time>2017-09-17T02:50:58.954Z</time>
</trkpt>
<trkpt lat="-26.9466250" lon="152.5656292">
<ele>129.459</ele>
<time>2017-09-17T02:51:02.120Z</time>
</trkpt>
<trkpt lat="-26.9464085" lon="152.5656017">
<ele>129.799</ele>
<time>2017-09-17T02:51:05.233Z</time>
</trkpt>
<trkpt lat="-26.9462674" lon="152.5655897">
<ele>130.381</ele>
<time>2017-09-17T02:51:07.226Z</time>
</trkpt>
<trkpt lat="-26.9461236" lon="152.5655732">
<ele>131.053</ele>
<time>2017-09-17T02:51:09.246Z</time>
</trkpt>
<trkpt lat="-26.9459069" lon="152.5655448">
<ele>131.678</ele>
<time>2017-09-17T02:51:12.227Z</time>
</trkpt>
<trkpt lat="-26.9457551" lon="152.5655251">
<ele>132.271</ele>
<time>2017-09-17T02:51:14.337Z</time>
</trkpt>
<trkpt lat="-26.9456104" lon="152.5655117">
<ele>132.887</ele>
<time>2017-09-17T02:51:16.385Z</time>
</trkpt>
<trkpt lat="-26.9454717" lon="152.5655019">
<ele>133.461</ele>
<time>2017-09-17T02:51:18.341Z</time>
</trkpt>
<trkpt lat="-26.9453315" lon="152.5654800">
<ele>133.898</ele>
<time>2017-09-17T02:51:20.292Z</time>
</trkpt>
<trkpt lat="-26.9451878" lon="152.5654775">
<ele>134.169</ele>
<time>2017-09-17T02:51:22.248Z</time>
</trkpt>
<trkpt lat="-26.9449653" lon="152.5654421">
<ele>134.330</ele>
<time>2017-09-17T02:51:25.240Z</time>
</trkpt>
<trkpt lat="-26.9447402" lon="152.5654102">
<ele>134.518</ele>
<time>2017-09-17T02:51:28.169Z</time>
</trkpt>
<trkpt lat="-26.9445870" lon="152.5653895">
<ele>134.803</ele>
<time>2017-09-17T02:51:30.090Z</time>
</trkpt>
<trkpt lat="-26.9443425" lon="152.5653564">
<ele>135.093</ele>
<time>2017-09-17T02:51:32.977Z</time>
</trkpt>
<trkpt lat="-26.9440793" lon="152.5653226">
<ele>135.283</ele>
<time>2017-09-17T02:51:36.050Z</time>
</trkpt>
<trkpt lat="-26.9438248" lon="152.5652879">
<ele>135.375</ele>
<time>2017-09-17T02:51:39.273Z</time>
</trkpt>
<trkpt lat="-26.9436672" lon="152.5652591">
<ele>135.415</ele>
<time>2017-09-17T02:51:41.482Z</time>
</trkpt>
<trkpt lat="-26.9434605" lon="152.5652310">
<ele>135.428</ele>
<time>2017-09-17T02:51:44.912Z</time>
</trkpt>
<trkpt lat="-26.9432899" lon="152.5652156">
<ele>135.350</ele>
<time>2017-09-17T02:51:48.528Z</time>
</trkpt>
<trkpt lat="-26.9431907" lon="152.5651992">
<ele>135.066</ele>
<time>2017-09-17T02:51:50.976Z</time>
</trkpt>
<trkpt lat="-26.9430888" lon="152.5652037">
<ele>134.600</ele>
<time>2017-09-17T02:51:53.395Z</time>
</trkpt>
<trkpt lat="-26.9429828" lon="152.5652261">
<ele>134.147</ele>
<time>2017-09-17T02:51:55.446Z</time>
</trkpt>
<trkpt lat="-26.9428971" lon="152.5654002">
<ele>133.871</ele>
<time>2017-09-17T02:51:58.126Z</time>
</trkpt>
<trkpt lat="-26.9429425" lon="152.5656763">
<ele>133.786</ele>
<time>2017-09-17T02:52:01.249Z</time>
</trkpt>
<trkpt lat="-26.9429186" lon="152.5659970">
<ele>133.782</ele>
<time>2017-09-17T02:52:04.542Z</time>
</trkpt>
<trkpt lat="-26.9429036" lon="152.5661981">
<ele>133.677</ele>
<time>2017-09-17T02:52:06.637Z</time>
</trkpt>
<trkpt lat="-26.9428506" lon="152.5664881">
<ele>133.305</ele>
<time>2017-09-17T02:52:09.709Z</time>
</trkpt>
<trkpt lat="-26.9428183" lon="152.5666845">
<ele>132.630</ele>
<time>2017-09-17T02:52:11.893Z</time>
</trkpt>
<trkpt lat="-26.9428095" lon="152.5668695">
<ele>131.782</ele>
<time>2017-09-17T02:52:14.112Z</time>
</trkpt>
<trkpt lat="-26.9428162" lon="152.5670350">
<ele>130.972</ele>
<time>2017-09-17T02:52:16.179Z</time>
</trkpt>
<trkpt lat="-26.9428141" lon="152.5672726">
<ele>130.317</ele>
<time>2017-09-17T02:52:19.102Z</time>
</trkpt>
<trkpt lat="-26.9428052" lon="152.5674373">
<ele>129.721</ele>
<time>2017-09-17T02:52:21.059Z</time>
</trkpt>
<trkpt lat="-26.9427877" lon="152.5677021">
<ele>129.159</ele>
<time>2017-09-17T02:52:23.896Z</time>
</trkpt>
<trkpt lat="-26.9427697" lon="152.5678955">
<ele>128.815</ele>
<time>2017-09-17T02:52:25.764Z</time>
</trkpt>
<trkpt lat="-26.9427539" lon="152.5681028">
<ele>128.821</ele>
<time>2017-09-17T02:52:27.630Z</time>
</trkpt>
<trkpt lat="-26.9427113" lon="152.5684610">
<ele>129.083</ele>
<time>2017-09-17T02:52:30.386Z</time>
</trkpt>
<trkpt lat="-26.9426694" lon="152.5689019">
<ele>129.427</ele>
<time>2017-09-17T02:52:33.342Z</time>
</trkpt>
<trkpt lat="-26.9426389" lon="152.5692183">
<ele>129.823</ele>
<time>2017-09-17T02:52:35.301Z</time>
</trkpt>
<trkpt lat="-26.9426024" lon="152.5695470">
<ele>130.386</ele>
<time>2017-09-17T02:52:37.276Z</time>
</trkpt>
<trkpt lat="-26.9425517" lon="152.5698827">
<ele>131.081</ele>
<time>2017-09-17T02:52:39.297Z</time>
</trkpt>
<trkpt lat="-26.9424499" lon="152.5703710">
<ele>131.661</ele>
<time>2017-09-17T02:52:42.283Z</time>
</trkpt>
<trkpt lat="-26.9423096" lon="152.5708490">
<ele>131.973</ele>
<time>2017-09-17T02:52:45.285Z</time>
</trkpt>
<trkpt lat="-26.9421987" lon="152.5711566">
<ele>132.112</ele>
<time>2017-09-17T02:52:47.288Z</time>
</trkpt>
<trkpt lat="-26.9420867" lon="152.5714573">
<ele>132.220</ele>
<time>2017-09-17T02:52:49.295Z</time>
</trkpt>
<trkpt lat="-26.9419748" lon="152.5717498">
<ele>132.319</ele>
<time>2017-09-17T02:52:51.301Z</time>
</trkpt>
<trkpt lat="-26.9418146" lon="152.5721778">
<ele>132.387</ele>
<time>2017-09-17T02:52:54.248Z</time>
</trkpt>
<trkpt lat="-26.9417126" lon="152.5724663">
<ele>132.445</ele>
<time>2017-09-17T02:52:56.208Z</time>
</trkpt>
<trkpt lat="-26.9415539" lon="152.5729048">
<ele>132.575</ele>
<time>2017-09-17T02:52:59.099Z</time>
</trkpt>
<trkpt lat="-26.9413799" lon="152.5733784">
<ele>132.979</ele>
<time>2017-09-17T02:53:02.007Z</time>
</trkpt>
<trkpt lat="-26.9411780" lon="152.5738985">
<ele>133.830</ele>
<time>2017-09-17T02:53:05.054Z</time>
</trkpt>
<trkpt lat="-26.9410297" lon="152.5742282">
<ele>134.991</ele>
<time>2017-09-17T02:53:07.052Z</time>
</trkpt>
<trkpt lat="-26.9409255" lon="152.5745628">
<ele>136.022</ele>
<time>2017-09-17T02:53:09.024Z</time>
</trkpt>
<trkpt lat="-26.9407455" lon="152.5750482">
<ele>136.637</ele>
<time>2017-09-17T02:53:11.953Z</time>
</trkpt>
<trkpt lat="-26.9405340" lon="152.5755264">
<ele>136.974</ele>
<time>2017-09-17T02:53:14.910Z</time>
</trkpt>
<trkpt lat="-26.9403847" lon="152.5760409">
<ele>137.366</ele>
<time>2017-09-17T02:53:17.868Z</time>
</trkpt>
<trkpt lat="-26.9401719" lon="152.5765410">
<ele>137.936</ele>
<time>2017-09-17T02:53:20.781Z</time>
</trkpt>
<trkpt lat="-26.9399378" lon="152.5770787">
<ele>138.565</ele>
<time>2017-09-17T02:53:23.771Z</time>
</trkpt>
<trkpt lat="-26.9398335" lon="152.5774759">
<ele>139.253</ele>
<time>2017-09-17T02:53:25.754Z</time>
</trkpt>
<trkpt lat="-26.9396953" lon="152.5778671">
<ele>140.097</ele>
<time>2017-09-17T02:53:27.701Z</time>
</trkpt>
<trkpt lat="-26.9394376" lon="152.5784630">
<ele>140.940</ele>
<time>2017-09-17T02:53:30.711Z</time>
</trkpt>
<trkpt lat="-26.9392051" lon="152.5790713">
<ele>141.672</ele>
<time>2017-09-17T02:53:33.703Z</time>
</trkpt>
<trkpt lat="-26.9389863" lon="152.5796703">
<ele>142.414</ele>
<time>2017-09-17T02:53:36.678Z</time>
</trkpt>
<trkpt lat="-26.9387539" lon="152.5802481">
<ele>143.097</ele>
<time>2017-09-17T02:53:39.616Z</time>
</trkpt>
<trkpt lat="-26.9385970" lon="152.5806961">
<ele>143.571</ele>
<time>2017-09-17T02:53:41.808Z</time>
</trkpt>
<trkpt lat="-26.9384254" lon="152.5810819">
<ele>144.041</ele>
<time>2017-09-17T02:53:43.743Z</time>
</trkpt>
<trkpt lat="-26.9381713" lon="152.5816606">
<ele>144.943</ele>
<time>2017-09-17T02:53:46.642Z</time>
</trkpt>
<trkpt lat="-26.9380416" lon="152.5823012">
<ele>146.789</ele>
<time>2017-09-17T02:53:49.628Z</time>
</trkpt>
<trkpt lat="-26.9379791" lon="152.5827179">
<ele>149.890</ele>
<time>2017-09-17T02:53:51.584Z</time>
</trkpt>
<trkpt lat="-26.9379594" lon="152.5831413">
<ele>153.670</ele>
<time>2017-09-17T02:53:53.542Z</time>
</trkpt>
<trkpt lat="-26.9380049" lon="152.5837947">
<ele>157.027</ele>
<time>2017-09-17T02:53:56.548Z</time>
</trkpt>
<trkpt lat="-26.9380714" lon="152.5842231">
<ele>159.787</ele>
<time>2017-09-17T02:53:58.536Z</time>
</trkpt>
<trkpt lat="-26.9382386" lon="152.5848380">
<ele>162.373</ele>
<time>2017-09-17T02:54:01.526Z</time>
</trkpt>
<trkpt lat="-26.9383583" lon="152.5852142">
<ele>164.684</ele>
<time>2017-09-17T02:54:03.481Z</time>
</trkpt>
<trkpt lat="-26.9385069" lon="152.5857830">
<ele>166.300</ele>
<time>2017-09-17T02:54:06.462Z</time>
</trkpt>
<trkpt lat="-26.9386204" lon="152.5861398">
<ele>167.153</ele>
<time>2017-09-17T02:54:08.472Z</time>
</trkpt>
<trkpt lat="-26.9386704" lon="152.5864779">
<ele>167.494</ele>
<time>2017-09-17T02:54:10.620Z</time>
</trkpt>
<trkpt lat="-26.9388001" lon="152.5868191">
<ele>167.576</ele>
<time>2017-09-17T02:54:13.763Z</time>
</trkpt>
<trkpt lat="-26.9387988" lon="152.5869814">
<ele>167.317</ele>
<time>2017-09-17T02:54:15.813Z</time>
</trkpt>
<trkpt lat="-26.9388210" lon="152.5870863">
<ele>166.566</ele>
<time>2017-09-17T02:54:17.639Z</time>
</trkpt>
<trkpt lat="-26.9388633" lon="152.5871915">
<ele>165.560</ele>
<time>2017-09-17T02:54:19.689Z</time>
</trkpt>
<trkpt lat="-26.9388564" lon="152.5873131">
<ele>164.788</ele>
<time>2017-09-17T02:54:22.000Z</time>
</trkpt>
<trkpt lat="-26.9388564" lon="152.5873131">
<ele>164.442</ele>
<time>2017-09-17T02:54:29.000Z</time>
</trkpt>
<trkpt lat="-26.9388564" lon="152.5873131">
<ele>164.365</ele>
<time>2017-09-17T02:54:29.100Z</time>
</trkpt>
<trkpt lat="-26.9391045" lon="152.5874803">
<ele>164.385</ele>
<time>2017-09-17T02:54:34.286Z</time>
</trkpt>
<trkpt lat="-26.9392805" lon="152.5875586">
<ele>164.551</ele>
<time>2017-09-17T02:54:36.174Z</time>
</trkpt>
<trkpt lat="-26.9394397" lon="152.5878950">
<ele>165.003</ele>
<time>2017-09-17T02:54:39.210Z</time>
</trkpt>
<trkpt lat="-26.9395173" lon="152.5881572">
<ele>165.918</ele>
<time>2017-09-17T02:54:41.491Z</time>
</trkpt>
<trkpt lat="-26.9396792" lon="152.5884118">
<ele>167.362</ele>
<time>2017-09-17T02:54:44.787Z</time>
</trkpt>
<trkpt lat="-26.9397069" lon="152.5885596">
<ele>169.073</ele>
<time>2017-09-17T02:54:46.758Z</time>
</trkpt>
<trkpt lat="-26.9398312" lon="152.5887144">
<ele>170.710</ele>
<time>2017-09-17T02:54:49.424Z</time>
</trkpt>
<trkpt lat="-26.9399394" lon="152.5888425">
<ele>172.203</ele>
<time>2017-09-17T02:54:51.395Z</time>
</trkpt>
<trkpt lat="-26.9401051" lon="152.5890639">
<ele>173.580</ele>
<time>2017-09-17T02:54:54.292Z</time>
</trkpt>
<trkpt lat="-26.9403269" lon="152.5892661">
<ele>174.798</ele>
<time>2017-09-17T02:54:57.287Z</time>
</trkpt>
<trkpt lat="-26.9405117" lon="152.5895270">
<ele>175.704</ele>
<time>2017-09-17T02:55:00.264Z</time>
</trkpt>
<trkpt lat="-26.9406780" lon="152.5896684">
<ele>176.184</ele>
<time>2017-09-17T02:55:02.288Z</time>
</trkpt>
<trkpt lat="-26.9408256" lon="152.5898287">
<ele>176.271</ele>
<time>2017-09-17T02:55:04.310Z</time>
</trkpt>
<trkpt lat="-26.9409920" lon="152.5901069">
<ele>176.134</ele>
<time>2017-09-17T02:55:07.280Z</time>
</trkpt>
<trkpt lat="-26.9411338" lon="152.5902632">
<ele>175.903</ele>
<time>2017-09-17T02:55:09.214Z</time>
</trkpt>
<trkpt lat="-26.9412626" lon="152.5904499">
<ele>175.646</ele>
<time>2017-09-17T02:55:11.156Z</time>
</trkpt>
<trkpt lat="-26.9414617" lon="152.5907559">
<ele>175.407</ele>
<time>2017-09-17T02:55:14.111Z</time>
</trkpt>
<trkpt lat="-26.9416148" lon="152.5909576">
<ele>175.139</ele>
<time>2017-09-17T02:55:16.036Z</time>
</trkpt>
<trkpt lat="-26.9417920" lon="152.5911649">
<ele>174.624</ele>
<time>2017-09-17T02:55:18.045Z</time>
</trkpt>
<trkpt lat="-26.9419226" lon="152.5914246">
<ele>173.599</ele>
<time>2017-09-17T02:55:20.088Z</time>
</trkpt>
<trkpt lat="-26.9420419" lon="152.5916844">
<ele>172.009</ele>
<time>2017-09-17T02:55:22.046Z</time>
</trkpt>
<trkpt lat="-26.9420677" lon="152.5921572">
<ele>170.056</ele>
<time>2017-09-17T02:55:25.139Z</time>
</trkpt>
<trkpt lat="-26.9420716" lon="152.5925085">
<ele>167.934</ele>
<time>2017-09-17T02:55:27.320Z</time>
</trkpt>
<trkpt lat="-26.9421329" lon="152.5929898">
<ele>165.782</ele>
<time>2017-09-17T02:55:30.235Z</time>
</trkpt>
<trkpt lat="-26.9421868" lon="152.5933363">
<ele>163.774</ele>
<time>2017-09-17T02:55:32.277Z</time>
</trkpt>
<trkpt lat="-26.9422419" lon="152.5936849">
<ele>162.010</ele>
<time>2017-09-17T02:55:34.304Z</time>
</trkpt>
<trkpt lat="-26.9422677" lon="152.5940373">
<ele>160.396</ele>
<time>2017-09-17T02:55:36.256Z</time>
</trkpt>
<trkpt lat="-26.9423214" lon="152.5943957">
<ele>158.653</ele>
<time>2017-09-17T02:55:38.152Z</time>
</trkpt>
<trkpt lat="-26.9423529" lon="152.5950085">
<ele>156.564</ele>
<time>2017-09-17T02:55:41.303Z</time>
</trkpt>
<trkpt lat="-26.9423773" lon="152.5953931">
<ele>154.128</ele>
<time>2017-09-17T02:55:43.291Z</time>
</trkpt>
<trkpt lat="-26.9425277" lon="152.5959475">
<ele>151.625</ele>
<time>2017-09-17T02:55:46.260Z</time>
</trkpt>
<trkpt lat="-26.9426497" lon="152.5963162">
<ele>149.666</ele>
<time>2017-09-17T02:55:48.277Z</time>
</trkpt>
<trkpt lat="-26.9427773" lon="152.5968755">
<ele>148.668</ele>
<time>2017-09-17T02:55:51.225Z</time>
</trkpt>
<trkpt lat="-26.9429150" lon="152.5972493">
<ele>148.656</ele>
<time>2017-09-17T02:55:53.241Z</time>
</trkpt>
<trkpt lat="-26.9430487" lon="152.5976098">
<ele>149.484</ele>
<time>2017-09-17T02:55:55.135Z</time>
</trkpt>
<trkpt lat="-26.9434759" lon="152.5979885">
<ele>150.755</ele>
<time>2017-09-17T02:55:57.942Z</time>
</trkpt>
<trkpt lat="-26.9438353" lon="152.5982582">
<ele>152.052</ele>
<time>2017-09-17T02:55:59.990Z</time>
</trkpt>
<trkpt lat="-26.9441749" lon="152.5985546">
<ele>153.091</ele>
<time>2017-09-17T02:56:02.019Z</time>
</trkpt>
<trkpt lat="-26.9446904" lon="152.5989497">
<ele>153.483</ele>
<time>2017-09-17T02:56:05.004Z</time>
</trkpt>
<trkpt lat="-26.9451953" lon="152.5993791">
<ele>152.744</ele>
<time>2017-09-17T02:56:08.033Z</time>
</trkpt>
<trkpt lat="-26.9456987" lon="152.5998626">
<ele>150.653</ele>
<time>2017-09-17T02:56:11.110Z</time>
</trkpt>
<trkpt lat="-26.9460509" lon="152.6001427">
<ele>147.665</ele>
<time>2017-09-17T02:56:13.048Z</time>
</trkpt>
<trkpt lat="-26.9464258" lon="152.6004298">
<ele>144.745</ele>
<time>2017-09-17T02:56:15.067Z</time>
</trkpt>
<trkpt lat="-26.9467771" lon="152.6007486">
<ele>142.617</ele>
<time>2017-09-17T02:56:17.084Z</time>
</trkpt>
<trkpt lat="-26.9472880" lon="152.6012228">
<ele>141.375</ele>
<time>2017-09-17T02:56:20.074Z</time>
</trkpt>
<trkpt lat="-26.9478657" lon="152.6015439">
<ele>140.648</ele>
<time>2017-09-17T02:56:23.015Z</time>
</trkpt>
<trkpt lat="-26.9482701" lon="152.6017200">
<ele>140.011</ele>
<time>2017-09-17T02:56:25.004Z</time>
</trkpt>
<trkpt lat="-26.9486621" lon="152.6019265">
<ele>139.396</ele>
<time>2017-09-17T02:56:26.989Z</time>
</trkpt>
<trkpt lat="-26.9492560" lon="152.6022118">
<ele>139.013</ele>
<time>2017-09-17T02:56:29.956Z</time>
</trkpt>
<trkpt lat="-26.9496484" lon="152.6024202">
<ele>139.028</ele>
<time>2017-09-17T02:56:31.969Z</time>
</trkpt>
<trkpt lat="-26.9502552" lon="152.6026587">
<ele>139.388</ele>
<time>2017-09-17T02:56:34.985Z</time>
</trkpt>
<trkpt lat="-26.9506440" lon="152.6028322">
<ele>139.817</ele>
<time>2017-09-17T02:56:36.989Z</time>
</trkpt>
<trkpt lat="-26.9510219" lon="152.6030170">
<ele>139.994</ele>
<time>2017-09-17T02:56:38.984Z</time>
</trkpt>
<trkpt lat="-26.9513959" lon="152.6031903">
<ele>139.723</ele>
<time>2017-09-17T02:56:40.940Z</time>
</trkpt>
<trkpt lat="-26.9517609" lon="152.6034131">
<ele>139.054</ele>
<time>2017-09-17T02:56:42.956Z</time>
</trkpt>
<trkpt lat="-26.9523143" lon="152.6036924">
<ele>138.359</ele>
<time>2017-09-17T02:56:45.921Z</time>
</trkpt>
<trkpt lat="-26.9528669" lon="152.6039760">
<ele>138.056</ele>
<time>2017-09-17T02:56:48.908Z</time>
</trkpt>
<trkpt lat="-26.9532373" lon="152.6041494">
<ele>138.200</ele>
<time>2017-09-17T02:56:50.934Z</time>
</trkpt>
<trkpt lat="-26.9537170" lon="152.6045126">
<ele>138.446</ele>
<time>2017-09-17T02:56:53.892Z</time>
</trkpt>
<trkpt lat="-26.9540323" lon="152.6047834">
<ele>138.407</ele>
<time>2017-09-17T02:56:55.880Z</time>
</trkpt>
<trkpt lat="-26.9544580" lon="152.6052762">
<ele>138.030</ele>
<time>2017-09-17T02:56:58.907Z</time>
</trkpt>
<trkpt lat="-26.9548500" lon="152.6058104">
<ele>137.448</ele>
<time>2017-09-17T02:57:01.944Z</time>
</trkpt>
<trkpt lat="-26.9551293" lon="152.6061359">
<ele>136.799</ele>
<time>2017-09-17T02:57:03.903Z</time>
</trkpt>
<trkpt lat="-26.9555328" lon="152.6066725">
<ele>136.210</ele>
<time>2017-09-17T02:57:06.916Z</time>
</trkpt>
<trkpt lat="-26.9559613" lon="152.6071809">
<ele>135.760</ele>
<time>2017-09-17T02:57:09.911Z</time>
</trkpt>
<trkpt lat="-26.9564976" lon="152.6075273">
<ele>135.427</ele>
<time>2017-09-17T02:57:12.905Z</time>
</trkpt>
<trkpt lat="-26.9568683" lon="152.6077285">
<ele>135.187</ele>
<time>2017-09-17T02:57:14.907Z</time>
</trkpt>
<trkpt lat="-26.9573868" lon="152.6081016">
<ele>135.000</ele>
<time>2017-09-17T02:57:17.889Z</time>
</trkpt>
<trkpt lat="-26.9577565" lon="152.6083218">
<ele>134.817</ele>
<time>2017-09-17T02:57:19.876Z</time>
</trkpt>
<trkpt lat="-26.9583248" lon="152.6087091">
<ele>134.631</ele>
<time>2017-09-17T02:57:23.043Z</time>
</trkpt>
<trkpt lat="-26.9588428" lon="152.6090669">
<ele>134.549</ele>
<time>2017-09-17T02:57:26.004Z</time>
</trkpt>
<trkpt lat="-26.9591805" lon="152.6093135">
<ele>134.712</ele>
<time>2017-09-17T02:57:27.982Z</time>
</trkpt>
<trkpt lat="-26.9595619" lon="152.6095550">
<ele>135.127</ele>
<time>2017-09-17T02:57:30.107Z</time>
</trkpt>
<trkpt lat="-26.9601024" lon="152.6098801">
<ele>135.595</ele>
<time>2017-09-17T02:57:33.102Z</time>
</trkpt>
<trkpt lat="-26.9604491" lon="152.6100986">
<ele>135.877</ele>
<time>2017-09-17T02:57:35.089Z</time>
</trkpt>
<trkpt lat="-26.9609048" lon="152.6105280">
<ele>135.928</ele>
<time>2017-09-17T02:57:38.103Z</time>
</trkpt>
<trkpt lat="-26.9611591" lon="152.6108505">
<ele>135.869</ele>
<time>2017-09-17T02:57:40.074Z</time>
</trkpt>
<trkpt lat="-26.9613734" lon="152.6112129">
<ele>135.845</ele>
<time>2017-09-17T02:57:42.086Z</time>
</trkpt>
<trkpt lat="-26.9616855" lon="152.6117513">
<ele>135.985</ele>
<time>2017-09-17T02:57:45.068Z</time>
</trkpt>
<trkpt lat="-26.9618998" lon="152.6121123">
<ele>136.566</ele>
<time>2017-09-17T02:57:47.068Z</time>
</trkpt>
<trkpt lat="-26.9621184" lon="152.6124698">
<ele>137.976</ele>
<time>2017-09-17T02:57:49.043Z</time>
</trkpt>
<trkpt lat="-26.9623252" lon="152.6128540">
<ele>140.072</ele>
<time>2017-09-17T02:57:51.064Z</time>
</trkpt>
<trkpt lat="-26.9625581" lon="152.6132007">
<ele>141.981</ele>
<time>2017-09-17T02:57:53.009Z</time>
</trkpt>
<trkpt lat="-26.9628833" lon="152.6137569">
<ele>142.913</ele>
<time>2017-09-17T02:57:55.994Z</time>
</trkpt>
<trkpt lat="-26.9631280" lon="152.6141044">
<ele>142.428</ele>
<time>2017-09-17T02:57:58.024Z</time>
</trkpt>
<trkpt lat="-26.9633477" lon="152.6144537">
<ele>140.530</ele>
<time>2017-09-17T02:58:00.022Z</time>
</trkpt>
<trkpt lat="-26.9635118" lon="152.6148457">
<ele>138.049</ele>
<time>2017-09-17T02:58:02.012Z</time>
</trkpt>
<trkpt lat="-26.9636408" lon="152.6155008">
<ele>136.039</ele>
<time>2017-09-17T02:58:05.047Z</time>
</trkpt>
<trkpt lat="-26.9636796" lon="152.6159465">
<ele>134.902</ele>
<time>2017-09-17T02:58:07.059Z</time>
</trkpt>
<trkpt lat="-26.9637644" lon="152.6163816">
<ele>134.511</ele>
<time>2017-09-17T02:58:09.069Z</time>
</trkpt>
<trkpt lat="-26.9638325" lon="152.6168150">
<ele>134.606</ele>
<time>2017-09-17T02:58:11.057Z</time>
</trkpt>
<trkpt lat="-26.9639543" lon="152.6174673">
<ele>134.922</ele>
<time>2017-09-17T02:58:14.060Z</time>
</trkpt>
<trkpt lat="-26.9639896" lon="152.6179122">
<ele>135.179</ele>
<time>2017-09-17T02:58:16.062Z</time>
</trkpt>
<trkpt lat="-26.9641377" lon="152.6185614">
<ele>135.213</ele>
<time>2017-09-17T02:58:19.093Z</time>
</trkpt>
<trkpt lat="-26.9641427" lon="152.6192107">
<ele>135.100</ele>
<time>2017-09-17T02:58:22.082Z</time>
</trkpt>
<trkpt lat="-26.9639806" lon="152.6195996">
<ele>134.988</ele>
<time>2017-09-17T02:58:24.055Z</time>
</trkpt>
<trkpt lat="-26.9636205" lon="152.6201293">
<ele>134.994</ele>
<time>2017-09-17T02:58:27.109Z</time>
</trkpt>
<trkpt lat="-26.9633774" lon="152.6204758">
<ele>135.140</ele>
<time>2017-09-17T02:58:29.148Z</time>
</trkpt>
<trkpt lat="-26.9631284" lon="152.6208035">
<ele>135.315</ele>
<time>2017-09-17T02:58:31.125Z</time>
</trkpt>
<trkpt lat="-26.9629137" lon="152.6211666">
<ele>135.304</ele>
<time>2017-09-17T02:58:33.089Z</time>
</trkpt>
<trkpt lat="-26.9625515" lon="152.6217014">
<ele>134.932</ele>
<time>2017-09-17T02:58:36.090Z</time>
</trkpt>
<trkpt lat="-26.9622983" lon="152.6220482">
<ele>134.239</ele>
<time>2017-09-17T02:58:38.094Z</time>
</trkpt>
<trkpt lat="-26.9619362" lon="152.6225830">
<ele>133.530</ele>
<time>2017-09-17T02:58:41.103Z</time>
</trkpt>
<trkpt lat="-26.9616848" lon="152.6231879">
<ele>133.105</ele>
<time>2017-09-17T02:58:44.089Z</time>
</trkpt>
<trkpt lat="-26.9615892" lon="152.6236349">
<ele>133.039</ele>
<time>2017-09-17T02:58:46.135Z</time>
</trkpt>
<trkpt lat="-26.9615253" lon="152.6240917">
<ele>133.216</ele>
<time>2017-09-17T02:58:48.198Z</time>
</trkpt>
<trkpt lat="-26.9615710" lon="152.6247560">
<ele>133.504</ele>
<time>2017-09-17T02:58:51.188Z</time>
</trkpt>
<trkpt lat="-26.9616658" lon="152.6251902">
<ele>133.776</ele>
<time>2017-09-17T02:58:53.204Z</time>
</trkpt>
<trkpt lat="-26.9618382" lon="152.6255957">
<ele>133.907</ele>
<time>2017-09-17T02:58:55.220Z</time>
</trkpt>
<trkpt lat="-26.9620141" lon="152.6259948">
<ele>133.837</ele>
<time>2017-09-17T02:58:57.210Z</time>
</trkpt>
<trkpt lat="-26.9622457" lon="152.6266127">
<ele>133.661</ele>
<time>2017-09-17T02:59:00.194Z</time>
</trkpt>
<trkpt lat="-26.9624147" lon="152.6270152">
<ele>133.547</ele>
<time>2017-09-17T02:59:02.167Z</time>
</trkpt>
<trkpt lat="-26.9625423" lon="152.6274463">
<ele>133.637</ele>
<time>2017-09-17T02:59:04.196Z</time>
</trkpt>
<trkpt lat="-26.9628390" lon="152.6280264">
<ele>133.953</ele>
<time>2017-09-17T02:59:07.187Z</time>
</trkpt>
<trkpt lat="-26.9630848" lon="152.6286446">
<ele>134.323</ele>
<time>2017-09-17T02:59:10.197Z</time>
</trkpt>
<trkpt lat="-26.9632897" lon="152.6292882">
<ele>134.559</ele>
<time>2017-09-17T02:59:13.220Z</time>
</trkpt>
<trkpt lat="-26.9634898" lon="152.6296926">
<ele>134.634</ele>
<time>2017-09-17T02:59:15.245Z</time>
</trkpt>
<trkpt lat="-26.9636446" lon="152.6301115">
<ele>134.599</ele>
<time>2017-09-17T02:59:17.238Z</time>
</trkpt>
<trkpt lat="-26.9639387" lon="152.6307061">
<ele>134.446</ele>
<time>2017-09-17T02:59:20.244Z</time>
</trkpt>
<trkpt lat="-26.9640723" lon="152.6311304">
<ele>134.097</ele>
<time>2017-09-17T02:59:22.234Z</time>
</trkpt>
<trkpt lat="-26.9642778" lon="152.6315309">
<ele>133.615</ele>
<time>2017-09-17T02:59:24.270Z</time>
</trkpt>
<trkpt lat="-26.9645197" lon="152.6321572">
<ele>133.227</ele>
<time>2017-09-17T02:59:27.290Z</time>
</trkpt>
<trkpt lat="-26.9646551" lon="152.6325878">
<ele>133.160</ele>
<time>2017-09-17T02:59:29.397Z</time>
</trkpt>
<trkpt lat="-26.9647144" lon="152.6332097">
<ele>133.480</ele>
<time>2017-09-17T02:59:32.624Z</time>
</trkpt>
<trkpt lat="-26.9646535" lon="152.6335617">
<ele>134.058</ele>
<time>2017-09-17T02:59:34.852Z</time>
</trkpt>
<trkpt lat="-26.9646403" lon="152.6339630">
<ele>134.631</ele>
<time>2017-09-17T02:59:37.880Z</time>
</trkpt>
<trkpt lat="-26.9646990" lon="152.6343331">
<ele>134.618</ele>
<time>2017-09-17T02:59:40.822Z</time>
</trkpt>
<trkpt lat="-26.9647271" lon="152.6347097">
<ele>133.435</ele>
<time>2017-09-17T02:59:43.767Z</time>
</trkpt>
<trkpt lat="-26.9647077" lon="152.6349535">
<ele>131.330</ele>
<time>2017-09-17T02:59:45.630Z</time>
</trkpt>
<trkpt lat="-26.9647187" lon="152.6353673">
<ele>129.201</ele>
<time>2017-09-17T02:59:48.350Z</time>
</trkpt>
<trkpt lat="-26.9647100" lon="152.6358796">
<ele>127.747</ele>
<time>2017-09-17T02:59:51.242Z</time>
</trkpt>
<trkpt lat="-26.9646956" lon="152.6362718">
<ele>127.305</ele>
<time>2017-09-17T02:59:53.211Z</time>
</trkpt>
<trkpt lat="-26.9647259" lon="152.6366926">
<ele>127.804</ele>
<time>2017-09-17T02:59:55.196Z</time>
</trkpt>
<trkpt lat="-26.9648998" lon="152.6373246">
<ele>128.813</ele>
<time>2017-09-17T02:59:58.207Z</time>
</trkpt>
<trkpt lat="-26.9650632" lon="152.6379748">
<ele>129.887</ele>
<time>2017-09-17T03:00:01.201Z</time>
</trkpt>
<trkpt lat="-26.9651820" lon="152.6384144">
<ele>130.821</ele>
<time>2017-09-17T03:00:03.203Z</time>
</trkpt>
<trkpt lat="-26.9652483" lon="152.6388755">
<ele>131.610</ele>
<time>2017-09-17T03:00:05.233Z</time>
</trkpt>
<trkpt lat="-26.9653356" lon="152.6393189">
<ele>132.231</ele>
<time>2017-09-17T03:00:07.219Z</time>
</trkpt>
<trkpt lat="-26.9654691" lon="152.6399830">
<ele>132.578</ele>
<time>2017-09-17T03:00:10.203Z</time>
</trkpt>
<trkpt lat="-26.9655431" lon="152.6404554">
<ele>132.726</ele>
<time>2017-09-17T03:00:12.300Z</time>
</trkpt>
<trkpt lat="-26.9656847" lon="152.6408875">
<ele>132.865</ele>
<time>2017-09-17T03:00:14.312Z</time>
</trkpt>
<trkpt lat="-26.9657586" lon="152.6415674">
<ele>133.075</ele>
<time>2017-09-17T03:00:17.314Z</time>
</trkpt>
<trkpt lat="-26.9657730" lon="152.6420218">
<ele>133.404</ele>
<time>2017-09-17T03:00:19.312Z</time>
</trkpt>
<trkpt lat="-26.9657797" lon="152.6426998">
<ele>133.826</ele>
<time>2017-09-17T03:00:22.285Z</time>
</trkpt>
<trkpt lat="-26.9658007" lon="152.6431519">
<ele>134.237</ele>
<time>2017-09-17T03:00:24.264Z</time>
</trkpt>
<trkpt lat="-26.9658414" lon="152.6438331">
<ele>134.625</ele>
<time>2017-09-17T03:00:27.246Z</time>
</trkpt>
<trkpt lat="-26.9658633" lon="152.6445162">
<ele>135.018</ele>
<time>2017-09-17T03:00:30.234Z</time>
</trkpt>
<trkpt lat="-26.9658725" lon="152.6449685">
<ele>135.430</ele>
<time>2017-09-17T03:00:32.210Z</time>
</trkpt>
<trkpt lat="-26.9659137" lon="152.6456506">
<ele>135.918</ele>
<time>2017-09-17T03:00:35.190Z</time>
</trkpt>
<trkpt lat="-26.9659584" lon="152.6461063">
<ele>136.616</ele>
<time>2017-09-17T03:00:37.185Z</time>
</trkpt>
<trkpt lat="-26.9659495" lon="152.6467927">
<ele>137.577</ele>
<time>2017-09-17T03:00:40.176Z</time>
</trkpt>
<trkpt lat="-26.9659363" lon="152.6474703">
<ele>138.706</ele>
<time>2017-09-17T03:00:43.140Z</time>
</trkpt>
<trkpt lat="-26.9659294" lon="152.6481437">
<ele>139.867</ele>
<time>2017-09-17T03:00:46.095Z</time>
</trkpt>
<trkpt lat="-26.9659175" lon="152.6488236">
<ele>140.821</ele>
<time>2017-09-17T03:00:49.083Z</time>
</trkpt>
<trkpt lat="-26.9658791" lon="152.6492722">
<ele>141.369</ele>
<time>2017-09-17T03:00:51.066Z</time>
</trkpt>
<trkpt lat="-26.9658748" lon="152.6497214">
<ele>141.662</ele>
<time>2017-09-17T03:00:53.038Z</time>
</trkpt>
<trkpt lat="-26.9659146" lon="152.6503972">
<ele>142.079</ele>
<time>2017-09-17T03:00:56.001Z</time>
</trkpt>
<trkpt lat="-26.9660677" lon="152.6510649">
<ele>142.943</ele>
<time>2017-09-17T03:00:59.007Z</time>
</trkpt>
<trkpt lat="-26.9661708" lon="152.6515059">
<ele>144.176</ele>
<time>2017-09-17T03:01:00.989Z</time>
</trkpt>
<trkpt lat="-26.9662762" lon="152.6519526">
<ele>145.275</ele>
<time>2017-09-17T03:01:03.002Z</time>
</trkpt>
<trkpt lat="-26.9663980" lon="152.6526236">
<ele>145.858</ele>
<time>2017-09-17T03:01:05.991Z</time>
</trkpt>
<trkpt lat="-26.9664660" lon="152.6530752">
<ele>145.842</ele>
<time>2017-09-17T03:01:07.986Z</time>
</trkpt>
<trkpt lat="-26.9666672" lon="152.6537187">
<ele>145.360</ele>
<time>2017-09-17T03:01:10.954Z</time>
</trkpt>
<trkpt lat="-26.9668050" lon="152.6541512">
<ele>144.782</ele>
<time>2017-09-17T03:01:12.949Z</time>
</trkpt>
<trkpt lat="-26.9669515" lon="152.6548234">
<ele>144.442</ele>
<time>2017-09-17T03:01:15.947Z</time>
</trkpt>
<trkpt lat="-26.9670943" lon="152.6552592">
<ele>144.503</ele>
<time>2017-09-17T03:01:17.946Z</time>
</trkpt>
<trkpt lat="-26.9672778" lon="152.6559208">
<ele>145.057</ele>
<time>2017-09-17T03:01:20.927Z</time>
</trkpt>
<trkpt lat="-26.9675035" lon="152.6565623">
<ele>145.938</ele>
<time>2017-09-17T03:01:23.892Z</time>
</trkpt>
<trkpt lat="-26.9677442" lon="152.6572115">
<ele>146.739</ele>
<time>2017-09-17T03:01:26.906Z</time>
</trkpt>
<trkpt lat="-26.9679781" lon="152.6575970">
<ele>147.068</ele>
<time>2017-09-17T03:01:28.899Z</time>
</trkpt>
<trkpt lat="-26.9681886" lon="152.6579972">
<ele>146.805</ele>
<time>2017-09-17T03:01:30.894Z</time>
</trkpt>
<trkpt lat="-26.9684746" lon="152.6586074">
<ele>146.254</ele>
<time>2017-09-17T03:01:33.856Z</time>
</trkpt>
<trkpt lat="-26.9688605" lon="152.6591512">
<ele>145.755</ele>
<time>2017-09-17T03:01:36.828Z</time>
</trkpt>
<trkpt lat="-26.9691311" lon="152.6595037">
<ele>145.179</ele>
<time>2017-09-17T03:01:38.827Z</time>
</trkpt>
<trkpt lat="-26.9695060" lon="152.6600479">
<ele>144.135</ele>
<time>2017-09-17T03:01:41.846Z</time>
</trkpt>
<trkpt lat="-26.9699386" lon="152.6604768">
<ele>142.588</ele>
<time>2017-09-17T03:01:44.875Z</time>
</trkpt>
<trkpt lat="-26.9704221" lon="152.6607258">
<ele>141.043</ele>
<time>2017-09-17T03:01:48.029Z</time>
</trkpt>
<trkpt lat="-26.9708165" lon="152.6609657">
<ele>139.958</ele>
<time>2017-09-17T03:01:51.231Z</time>
</trkpt>
<trkpt lat="-26.9711211" lon="152.6611317">
<ele>139.371</ele>
<time>2017-09-17T03:01:54.142Z</time>
</trkpt>
<trkpt lat="-26.9712993" lon="152.6612392">
<ele>139.287</ele>
<time>2017-09-17T03:01:56.072Z</time>
</trkpt>
<trkpt lat="-26.9715418" lon="152.6614493">
<ele>139.797</ele>
<time>2017-09-17T03:01:58.743Z</time>
</trkpt>
<trkpt lat="-26.9715275" lon="152.6619169">
<ele>140.847</ele>
<time>2017-09-17T03:02:01.828Z</time>
</trkpt>
<trkpt lat="-26.9715821" lon="152.6625172">
<ele>142.304</ele>
<time>2017-09-17T03:02:05.242Z</time>
</trkpt>
<trkpt lat="-26.9716107" lon="152.6629072">
<ele>143.945</ele>
<time>2017-09-17T03:02:07.245Z</time>
</trkpt>
<trkpt lat="-26.9716712" lon="152.6634905">
<ele>145.330</ele>
<time>2017-09-17T03:02:10.191Z</time>
</trkpt>
<trkpt lat="-26.9717189" lon="152.6640925">
<ele>146.062</ele>
<time>2017-09-17T03:02:13.134Z</time>
</trkpt>
<trkpt lat="-26.9718287" lon="152.6647109">
<ele>145.983</ele>
<time>2017-09-17T03:02:16.085Z</time>
</trkpt>
<trkpt lat="-26.9718473" lon="152.6651559">
<ele>144.950</ele>
<time>2017-09-17T03:02:18.080Z</time>
</trkpt>
<trkpt lat="-26.9717981" lon="152.6658291">
<ele>142.996</ele>
<time>2017-09-17T03:02:21.144Z</time>
</trkpt>
<trkpt lat="-26.9717198" lon="152.6664472">
<ele>140.552</ele>
<time>2017-09-17T03:02:24.074Z</time>
</trkpt>
<trkpt lat="-26.9716954" lon="152.6668635">
<ele>138.165</ele>
<time>2017-09-17T03:02:26.056Z</time>
</trkpt>
<trkpt lat="-26.9716729" lon="152.6672866">
<ele>136.310</ele>
<time>2017-09-17T03:02:28.075Z</time>
</trkpt>
<trkpt lat="-26.9716188" lon="152.6678958">
<ele>135.243</ele>
<time>2017-09-17T03:02:31.014Z</time>
</trkpt>
<trkpt lat="-26.9715945" lon="152.6683010">
<ele>134.850</ele>
<time>2017-09-17T03:02:33.001Z</time>
</trkpt>
<trkpt lat="-26.9715566" lon="152.6686919">
<ele>134.933</ele>
<time>2017-09-17T03:02:34.987Z</time>
</trkpt>
<trkpt lat="-26.9715086" lon="152.6690677">
<ele>135.438</ele>
<time>2017-09-17T03:02:36.955Z</time>
</trkpt>
<trkpt lat="-26.9714804" lon="152.6694467">
<ele>136.371</ele>
<time>2017-09-17T03:02:38.944Z</time>
</trkpt>
<trkpt lat="-26.9714774" lon="152.6698260">
<ele>137.667</ele>
<time>2017-09-17T03:02:40.953Z</time>
</trkpt>
<trkpt lat="-26.9714616" lon="152.6701932">
<ele>139.139</ele>
<time>2017-09-17T03:02:42.970Z</time>
</trkpt>
<trkpt lat="-26.9714314" lon="152.6707181">
<ele>140.488</ele>
<time>2017-09-17T03:02:45.923Z</time>
</trkpt>
<trkpt lat="-26.9713991" lon="152.6712357">
<ele>141.470</ele>
<time>2017-09-17T03:02:48.871Z</time>
</trkpt>
<trkpt lat="-26.9713643" lon="152.6715863">
<ele>142.018</ele>
<time>2017-09-17T03:02:50.832Z</time>
</trkpt>
<trkpt lat="-26.9713629" lon="152.6719489">
<ele>142.147</ele>
<time>2017-09-17T03:02:52.763Z</time>
</trkpt>
<trkpt lat="-26.9713544" lon="152.6725150">
<ele>141.948</ele>
<time>2017-09-17T03:02:55.624Z</time>
</trkpt>
<trkpt lat="-26.9712864" lon="152.6731597">
<ele>141.635</ele>
<time>2017-09-17T03:02:58.642Z</time>
</trkpt>
<trkpt lat="-26.9712905" lon="152.6736267">
<ele>141.527</ele>
<time>2017-09-17T03:03:00.556Z</time>
</trkpt>
<trkpt lat="-26.9712384" lon="152.6744234">
<ele>141.817</ele>
<time>2017-09-17T03:03:03.602Z</time>
</trkpt>
<trkpt lat="-26.9712257" lon="152.6752749">
<ele>142.611</ele>
<time>2017-09-17T03:03:06.653Z</time>
</trkpt>
<trkpt lat="-26.9712131" lon="152.6758291">
<ele>143.744</ele>
<time>2017-09-17T03:03:08.668Z</time>
</trkpt>
<trkpt lat="-26.9711565" lon="152.6763519">
<ele>144.668</ele>
<time>2017-09-17T03:03:10.720Z</time>
</trkpt>
<trkpt lat="-26.9710709" lon="152.6770641">
<ele>144.861</ele>
<time>2017-09-17T03:03:13.681Z</time>
</trkpt>
<trkpt lat="-26.9710541" lon="152.6775068">
<ele>144.116</ele>
<time>2017-09-17T03:03:15.625Z</time>
</trkpt>
<trkpt lat="-26.9710421" lon="152.6779546">
<ele>142.636</ele>
<time>2017-09-17T03:03:17.605Z</time>
</trkpt>
<trkpt lat="-26.9709760" lon="152.6784000">
<ele>141.159</ele>
<time>2017-09-17T03:03:19.585Z</time>
</trkpt>
<trkpt lat="-26.9709677" lon="152.6790925">
<ele>140.295</ele>
<time>2017-09-17T03:03:22.584Z</time>
</trkpt>
<trkpt lat="-26.9709136" lon="152.6795526">
<ele>140.075</ele>
<time>2017-09-17T03:03:24.553Z</time>
</trkpt>
<trkpt lat="-26.9709001" lon="152.6802561">
<ele>140.214</ele>
<time>2017-09-17T03:03:27.596Z</time>
</trkpt>
<trkpt lat="-26.9708587" lon="152.6808985">
<ele>140.434</ele>
<time>2017-09-17T03:03:30.545Z</time>
</trkpt>
<trkpt lat="-26.9709384" lon="152.6815049">
<ele>140.517</ele>
<time>2017-09-17T03:03:33.472Z</time>
</trkpt>
<trkpt lat="-26.9710001" lon="152.6821173">
<ele>140.299</ele>
<time>2017-09-17T03:03:36.405Z</time>
</trkpt>
<trkpt lat="-26.9709887" lon="152.6825521">
<ele>139.677</ele>
<time>2017-09-17T03:03:38.428Z</time>
</trkpt>
<trkpt lat="-26.9710617" lon="152.6831891">
<ele>138.824</ele>
<time>2017-09-17T03:03:41.428Z</time>
</trkpt>
<trkpt lat="-26.9710556" lon="152.6835990">
<ele>138.162</ele>
<time>2017-09-17T03:03:43.386Z</time>
</trkpt>
<trkpt lat="-26.9710692" lon="152.6840103">
<ele>137.939</ele>
<time>2017-09-17T03:03:45.327Z</time>
</trkpt>
<trkpt lat="-26.9710962" lon="152.6846513">
<ele>138.098</ele>
<time>2017-09-17T03:03:48.251Z</time>
</trkpt>
<trkpt lat="-26.9711544" lon="152.6851181">
<ele>138.503</ele>
<time>2017-09-17T03:03:50.292Z</time>
</trkpt>
<trkpt lat="-26.9711896" lon="152.6858183">
<ele>138.967</ele>
<time>2017-09-17T03:03:53.300Z</time>
</trkpt>
<trkpt lat="-26.9712242" lon="152.6862789">
<ele>139.334</ele>
<time>2017-09-17T03:03:55.289Z</time>
</trkpt>
<trkpt lat="-26.9712884" lon="152.6867329">
<ele>139.602</ele>
<time>2017-09-17T03:03:57.268Z</time>
</trkpt>
<trkpt lat="-26.9713552" lon="152.6874165">
<ele>139.823</ele>
<time>2017-09-17T03:04:00.249Z</time>
</trkpt>
<trkpt lat="-26.9713604" lon="152.6880951">
<ele>139.988</ele>
<time>2017-09-17T03:04:03.245Z</time>
</trkpt>
<trkpt lat="-26.9713773" lon="152.6885335">
<ele>140.264</ele>
<time>2017-09-17T03:04:05.200Z</time>
</trkpt>
<trkpt lat="-26.9713928" lon="152.6892060">
<ele>140.917</ele>
<time>2017-09-17T03:04:08.186Z</time>
</trkpt>
<trkpt lat="-26.9713279" lon="152.6898778">
<ele>141.895</ele>
<time>2017-09-17T03:04:11.187Z</time>
</trkpt>
<trkpt lat="-26.9712350" lon="152.6902999">
<ele>142.920</ele>
<time>2017-09-17T03:04:13.147Z</time>
</trkpt>
<trkpt lat="-26.9710157" lon="152.6909109">
<ele>143.912</ele>
<time>2017-09-17T03:04:16.130Z</time>
</trkpt>
<trkpt lat="-26.9708438" lon="152.6913054">
<ele>145.130</ele>
<time>2017-09-17T03:04:18.119Z</time>
</trkpt>
<trkpt lat="-26.9706500" lon="152.6916871">
<ele>146.782</ele>
<time>2017-09-17T03:04:20.108Z</time>
</trkpt>
<trkpt lat="-26.9704676" lon="152.6920850">
<ele>148.613</ele>
<time>2017-09-17T03:04:22.133Z</time>
</trkpt>
<trkpt lat="-26.9701942" lon="152.6924019">
<ele>150.265</ele>
<time>2017-09-17T03:04:24.121Z</time>
</trkpt>
<trkpt lat="-26.9697607" lon="152.6928568">
<ele>151.648</ele>
<time>2017-09-17T03:04:27.104Z</time>
</trkpt>
<trkpt lat="-26.9694613" lon="152.6931579">
<ele>152.716</ele>
<time>2017-09-17T03:04:29.107Z</time>
</trkpt>
<trkpt lat="-26.9690394" lon="152.6936280">
<ele>153.386</ele>
<time>2017-09-17T03:04:32.069Z</time>
</trkpt>
<trkpt lat="-26.9687612" lon="152.6939473">
<ele>153.480</ele>
<time>2017-09-17T03:04:34.058Z</time>
</trkpt>
<trkpt lat="-26.9683438" lon="152.6944231">
<ele>152.802</ele>
<time>2017-09-17T03:04:37.038Z</time>
</trkpt>
<trkpt lat="-26.9679446" lon="152.6949295">
<ele>151.434</ele>
<time>2017-09-17T03:04:40.071Z</time>
</trkpt>
<trkpt lat="-26.9676704" lon="152.6952454">
<ele>149.717</ele>
<time>2017-09-17T03:04:42.055Z</time>
</trkpt>
<trkpt lat="-26.9672659" lon="152.6957314">
<ele>148.073</ele>
<time>2017-09-17T03:04:45.044Z</time>
</trkpt>
<trkpt lat="-26.9668613" lon="152.6962195">
<ele>146.861</ele>
<time>2017-09-17T03:04:48.035Z</time>
</trkpt>
<trkpt lat="-26.9664497" lon="152.6966965">
<ele>146.201</ele>
<time>2017-09-17T03:04:51.013Z</time>
</trkpt>
<trkpt lat="-26.9660517" lon="152.6971910">
<ele>146.135</ele>
<time>2017-09-17T03:04:53.988Z</time>
</trkpt>
<trkpt lat="-26.9657807" lon="152.6975207">
<ele>146.918</ele>
<time>2017-09-17T03:04:55.976Z</time>
</trkpt>
<trkpt lat="-26.9654945" lon="152.6978402">
<ele>148.588</ele>
<time>2017-09-17T03:04:57.974Z</time>
</trkpt>
<trkpt lat="-26.9651981" lon="152.6981512">
<ele>150.562</ele>
<time>2017-09-17T03:04:59.968Z</time>
</trkpt>
<trkpt lat="-26.9647494" lon="152.6986186">
<ele>152.236</ele>
<time>2017-09-17T03:05:02.968Z</time>
</trkpt>
<trkpt lat="-26.9643022" lon="152.6990785">
<ele>153.538</ele>
<time>2017-09-17T03:05:05.943Z</time>
</trkpt>
<trkpt lat="-26.9639564" lon="152.6993049">
<ele>154.483</ele>
<time>2017-09-17T03:05:07.909Z</time>
</trkpt>
<trkpt lat="-26.9634061" lon="152.6996168">
<ele>154.795</ele>
<time>2017-09-17T03:05:10.918Z</time>
</trkpt>
<trkpt lat="-26.9630757" lon="152.6999000">
<ele>153.998</ele>
<time>2017-09-17T03:05:12.928Z</time>
</trkpt>
<trkpt lat="-26.9626869" lon="152.7000830">
<ele>151.960</ele>
<time>2017-09-17T03:05:14.969Z</time>
</trkpt>
<trkpt lat="-26.9623506" lon="152.7003342">
<ele>149.215</ele>
<time>2017-09-17T03:05:16.954Z</time>
</trkpt>
<trkpt lat="-26.9618147" lon="152.7006251">
<ele>146.443</ele>
<time>2017-09-17T03:05:19.913Z</time>
</trkpt>
<trkpt lat="-26.9612558" lon="152.7008693">
<ele>144.055</ele>
<time>2017-09-17T03:05:22.898Z</time>
</trkpt>
<trkpt lat="-26.9606699" lon="152.7010412">
<ele>142.304</ele>
<time>2017-09-17T03:05:25.887Z</time>
</trkpt>
<trkpt lat="-26.9600776" lon="152.7011893">
<ele>141.191</ele>
<time>2017-09-17T03:05:28.853Z</time>
</trkpt>
<trkpt lat="-26.9594814" lon="152.7013889">
<ele>140.492</ele>
<time>2017-09-17T03:05:31.864Z</time>
</trkpt>
<trkpt lat="-26.9589158" lon="152.7016903">
<ele>139.978</ele>
<time>2017-09-17T03:05:34.864Z</time>
</trkpt>
<trkpt lat="-26.9585154" lon="152.7018568">
<ele>139.432</ele>
<time>2017-09-17T03:05:36.887Z</time>
</trkpt>
<trkpt lat="-26.9579421" lon="152.7021750">
<ele>138.693</ele>
<time>2017-09-17T03:05:39.912Z</time>
</trkpt>
<trkpt lat="-26.9575585" lon="152.7023481">
<ele>137.702</ele>
<time>2017-09-17T03:05:41.876Z</time>
</trkpt>
<trkpt lat="-26.9569821" lon="152.7026543">
<ele>136.598</ele>
<time>2017-09-17T03:05:44.894Z</time>
</trkpt>
<trkpt lat="-26.9564288" lon="152.7030280">
<ele>135.644</ele>
<time>2017-09-17T03:05:47.930Z</time>
</trkpt>
<trkpt lat="-26.9559085" lon="152.7034395">
<ele>134.887</ele>
<time>2017-09-17T03:05:50.923Z</time>
</trkpt>
<trkpt lat="-26.9555887" lon="152.7037487">
<ele>134.180</ele>
<time>2017-09-17T03:05:52.913Z</time>
</trkpt>
<trkpt lat="-26.9552820" lon="152.7040756">
<ele>133.573</ele>
<time>2017-09-17T03:05:54.913Z</time>
</trkpt>
<trkpt lat="-26.9549860" lon="152.7044109">
<ele>133.170</ele>
<time>2017-09-17T03:05:56.924Z</time>
</trkpt>
<trkpt lat="-26.9545500" lon="152.7048839">
<ele>132.954</ele>
<time>2017-09-17T03:05:59.890Z</time>
</trkpt>
<trkpt lat="-26.9543467" lon="152.7052681">
<ele>132.961</ele>
<time>2017-09-17T03:06:01.891Z</time>
</trkpt>
<trkpt lat="-26.9542666" lon="152.7057332">
<ele>133.418</ele>
<time>2017-09-17T03:06:04.037Z</time>
</trkpt>
<trkpt lat="-26.9541991" lon="152.7061653">
<ele>134.376</ele>
<time>2017-09-17T03:06:06.063Z</time>
</trkpt>
<trkpt lat="-26.9540747" lon="152.7065899">
<ele>135.457</ele>
<time>2017-09-17T03:06:08.134Z</time>
</trkpt>
<trkpt lat="-26.9539073" lon="152.7072622">
<ele>136.235</ele>
<time>2017-09-17T03:06:11.299Z</time>
</trkpt>
<trkpt lat="-26.9538308" lon="152.7079320">
<ele>136.764</ele>
<time>2017-09-17T03:06:14.286Z</time>
</trkpt>
<trkpt lat="-26.9537937" lon="152.7083797">
<ele>137.415</ele>
<time>2017-09-17T03:06:16.287Z</time>
</trkpt>
<trkpt lat="-26.9537388" lon="152.7090261">
<ele>138.240</ele>
<time>2017-09-17T03:06:19.194Z</time>
</trkpt>
<trkpt lat="-26.9538325" lon="152.7096948">
<ele>138.972</ele>
<time>2017-09-17T03:06:22.207Z</time>
</trkpt>
<trkpt lat="-26.9541649" lon="152.7103084">
<ele>139.452</ele>
<time>2017-09-17T03:06:25.356Z</time>
</trkpt>
<trkpt lat="-26.9543190" lon="152.7107511">
<ele>139.434</ele>
<time>2017-09-17T03:06:27.446Z</time>
</trkpt>
<trkpt lat="-26.9545510" lon="152.7113687">
<ele>138.649</ele>
<time>2017-09-17T03:06:30.409Z</time>
</trkpt>
<trkpt lat="-26.9546733" lon="152.7118008">
<ele>137.324</ele>
<time>2017-09-17T03:06:32.417Z</time>
</trkpt>
<trkpt lat="-26.9547679" lon="152.7124599">
<ele>136.026</ele>
<time>2017-09-17T03:06:35.370Z</time>
</trkpt>
<trkpt lat="-26.9549081" lon="152.7131166">
<ele>135.104</ele>
<time>2017-09-17T03:06:38.352Z</time>
</trkpt>
<trkpt lat="-26.9550578" lon="152.7137660">
<ele>134.602</ele>
<time>2017-09-17T03:06:41.312Z</time>
</trkpt>
<trkpt lat="-26.9551539" lon="152.7144334">
<ele>134.523</ele>
<time>2017-09-17T03:06:44.287Z</time>
</trkpt>
<trkpt lat="-26.9552736" lon="152.7150984">
<ele>134.955</ele>
<time>2017-09-17T03:06:47.275Z</time>
</trkpt>
<trkpt lat="-26.9553628" lon="152.7157488">
<ele>135.717</ele>
<time>2017-09-17T03:06:50.194Z</time>
</trkpt>
<trkpt lat="-26.9552986" lon="152.7164225">
<ele>136.329</ele>
<time>2017-09-17T03:06:53.211Z</time>
</trkpt>
<trkpt lat="-26.9552488" lon="152.7168647">
<ele>136.486</ele>
<time>2017-09-17T03:06:55.192Z</time>
</trkpt>
<trkpt lat="-26.9551878" lon="152.7173092">
<ele>136.288</ele>
<time>2017-09-17T03:06:57.181Z</time>
</trkpt>
<trkpt lat="-26.9551457" lon="152.7179874">
<ele>136.010</ele>
<time>2017-09-17T03:07:00.175Z</time>
</trkpt>
<trkpt lat="-26.9551104" lon="152.7186637">
<ele>135.829</ele>
<time>2017-09-17T03:07:03.153Z</time>
</trkpt>
<trkpt lat="-26.9551890" lon="152.7191053">
<ele>135.749</ele>
<time>2017-09-17T03:07:05.131Z</time>
</trkpt>
<trkpt lat="-26.9552747" lon="152.7195506">
<ele>135.775</ele>
<time>2017-09-17T03:07:07.131Z</time>
</trkpt>
<trkpt lat="-26.9553807" lon="152.7199938">
<ele>135.931</ele>
<time>2017-09-17T03:07:09.151Z</time>
</trkpt>
<trkpt lat="-26.9554725" lon="152.7206630">
<ele>136.241</ele>
<time>2017-09-17T03:07:12.152Z</time>
</trkpt>
<trkpt lat="-26.9556434" lon="152.7213106">
<ele>136.668</ele>
<time>2017-09-17T03:07:15.153Z</time>
</trkpt>
<trkpt lat="-26.9558933" lon="152.7219303">
<ele>137.275</ele>
<time>2017-09-17T03:07:18.168Z</time>
</trkpt>
<trkpt lat="-26.9559571" lon="152.7223694">
<ele>138.318</ele>
<time>2017-09-17T03:07:20.154Z</time>
</trkpt>
<trkpt lat="-26.9559356" lon="152.7228211">
<ele>139.647</ele>
<time>2017-09-17T03:07:22.160Z</time>
</trkpt>
<trkpt lat="-26.9558960" lon="152.7235116">
<ele>140.507</ele>
<time>2017-09-17T03:07:25.215Z</time>
</trkpt>
<trkpt lat="-26.9556472" lon="152.7241254">
<ele>140.457</ele>
<time>2017-09-17T03:07:28.201Z</time>
</trkpt>
<trkpt lat="-26.9553629" lon="152.7244805">
<ele>139.819</ele>
<time>2017-09-17T03:07:30.301Z</time>
</trkpt>
<trkpt lat="-26.9550276" lon="152.7250577">
<ele>139.169</ele>
<time>2017-09-17T03:07:33.324Z</time>
</trkpt>
<trkpt lat="-26.9548230" lon="152.7254514">
<ele>138.862</ele>
<time>2017-09-17T03:07:35.327Z</time>
</trkpt>
<trkpt lat="-26.9545031" lon="152.7260278">
<ele>138.939</ele>
<time>2017-09-17T03:07:38.325Z</time>
</trkpt>
<trkpt lat="-26.9543090" lon="152.7264159">
<ele>139.326</ele>
<time>2017-09-17T03:07:40.312Z</time>
</trkpt>
<trkpt lat="-26.9540673" lon="152.7270285">
<ele>140.042</ele>
<time>2017-09-17T03:07:43.304Z</time>
</trkpt>
<trkpt lat="-26.9539679" lon="152.7274693">
<ele>141.421</ele>
<time>2017-09-17T03:07:45.311Z</time>
</trkpt>
<trkpt lat="-26.9537452" lon="152.7280999">
<ele>143.550</ele>
<time>2017-09-17T03:07:48.320Z</time>
</trkpt>
<trkpt lat="-26.9535390" lon="152.7284634">
<ele>145.845</ele>
<time>2017-09-17T03:07:50.280Z</time>
</trkpt>
<trkpt lat="-26.9532306" lon="152.7287335">
<ele>147.656</ele>
<time>2017-09-17T03:07:52.300Z</time>
</trkpt>
<trkpt lat="-26.9528734" lon="152.7289066">
<ele>148.827</ele>
<time>2017-09-17T03:07:54.331Z</time>
</trkpt>
<trkpt lat="-26.9523693" lon="152.7292006">
<ele>149.560</ele>
<time>2017-09-17T03:07:57.328Z</time>
</trkpt>
<trkpt lat="-26.9520384" lon="152.7293965">
<ele>150.233</ele>
<time>2017-09-17T03:07:59.314Z</time>
</trkpt>
<trkpt lat="-26.9517068" lon="152.7296059">
<ele>151.019</ele>
<time>2017-09-17T03:08:01.287Z</time>
</trkpt>
<trkpt lat="-26.9513049" lon="152.7298283">
<ele>151.847</ele>
<time>2017-09-17T03:08:03.531Z</time>
</trkpt>
<trkpt lat="-26.9507793" lon="152.7300884">
<ele>152.605</ele>
<time>2017-09-17T03:08:06.364Z</time>
</trkpt>
<trkpt lat="-26.9502231" lon="152.7303757">
<ele>153.193</ele>
<time>2017-09-17T03:08:09.362Z</time>
</trkpt>
<trkpt lat="-26.9498507" lon="152.7305688">
<ele>153.448</ele>
<time>2017-09-17T03:08:11.367Z</time>
</trkpt>
<trkpt lat="-26.9492913" lon="152.7308472">
<ele>153.204</ele>
<time>2017-09-17T03:08:14.365Z</time>
</trkpt>
<trkpt lat="-26.9489312" lon="152.7310583">
<ele>152.329</ele>
<time>2017-09-17T03:08:16.354Z</time>
</trkpt>
<trkpt lat="-26.9485518" lon="152.7312592">
<ele>150.955</ele>
<time>2017-09-17T03:08:18.394Z</time>
</trkpt>
<trkpt lat="-26.9482150" lon="152.7315422">
<ele>149.577</ele>
<time>2017-09-17T03:08:20.434Z</time>
</trkpt>
<trkpt lat="-26.9478707" lon="152.7317865">
<ele>148.643</ele>
<time>2017-09-17T03:08:22.413Z</time>
</trkpt>
<trkpt lat="-26.9473910" lon="152.7322163">
<ele>148.276</ele>
<time>2017-09-17T03:08:25.393Z</time>
</trkpt>
<trkpt lat="-26.9469147" lon="152.7326756">
<ele>148.432</ele>
<time>2017-09-17T03:08:28.430Z</time>
</trkpt>
<trkpt lat="-26.9467188" lon="152.7330860">
<ele>149.138</ele>
<time>2017-09-17T03:08:30.442Z</time>
</trkpt>
<trkpt lat="-26.9465951" lon="152.7338112">
<ele>150.379</ele>
<time>2017-09-17T03:08:33.646Z</time>
</trkpt>
<trkpt lat="-26.9464844" lon="152.7345069">
<ele>151.914</ele>
<time>2017-09-17T03:08:36.752Z</time>
</trkpt>
<trkpt lat="-26.9464956" lon="152.7351592">
<ele>153.310</ele>
<time>2017-09-17T03:08:39.678Z</time>
</trkpt>
<trkpt lat="-26.9466667" lon="152.7355733">
<ele>154.061</ele>
<time>2017-09-17T03:08:41.723Z</time>
</trkpt>
<trkpt lat="-26.9470212" lon="152.7361339">
<ele>153.973</ele>
<time>2017-09-17T03:08:44.739Z</time>
</trkpt>
<trkpt lat="-26.9474835" lon="152.7366083">
<ele>153.120</ele>
<time>2017-09-17T03:08:47.767Z</time>
</trkpt>
<trkpt lat="-26.9477931" lon="152.7369090">
<ele>151.321</ele>
<time>2017-09-17T03:08:49.780Z</time>
</trkpt>
<trkpt lat="-26.9482065" lon="152.7373808">
<ele>148.691</ele>
<time>2017-09-17T03:08:52.728Z</time>
</trkpt>
<trkpt lat="-26.9484253" lon="152.7380024">
<ele>145.984</ele>
<time>2017-09-17T03:08:55.727Z</time>
</trkpt>
<trkpt lat="-26.9484890" lon="152.7386810">
<ele>143.985</ele>
<time>2017-09-17T03:08:58.751Z</time>
</trkpt>
<trkpt lat="-26.9485579" lon="152.7393675">
<ele>143.349</ele>
<time>2017-09-17T03:09:01.762Z</time>
</trkpt>
<trkpt lat="-26.9486421" lon="152.7398169">
<ele>144.072</ele>
<time>2017-09-17T03:09:03.755Z</time>
</trkpt>
<trkpt lat="-26.9487571" lon="152.7404834">
<ele>145.087</ele>
<time>2017-09-17T03:09:06.724Z</time>
</trkpt>
<trkpt lat="-26.9488221" lon="152.7409262">
<ele>145.235</ele>
<time>2017-09-17T03:09:08.705Z</time>
</trkpt>
<trkpt lat="-26.9489370" lon="152.7415826">
<ele>144.278</ele>
<time>2017-09-17T03:09:11.660Z</time>
</trkpt>
<trkpt lat="-26.9490152" lon="152.7420217">
<ele>142.864</ele>
<time>2017-09-17T03:09:13.649Z</time>
</trkpt>
<trkpt lat="-26.9490811" lon="152.7424629">
<ele>141.776</ele>
<time>2017-09-17T03:09:15.636Z</time>
</trkpt>
<trkpt lat="-26.9492340" lon="152.7431144">
<ele>141.247</ele>
<time>2017-09-17T03:09:18.622Z</time>
</trkpt>
<trkpt lat="-26.9494667" lon="152.7437401">
<ele>141.175</ele>
<time>2017-09-17T03:09:21.620Z</time>
</trkpt>
<trkpt lat="-26.9496115" lon="152.7441625">
<ele>141.409</ele>
<time>2017-09-17T03:09:23.611Z</time>
</trkpt>
<trkpt lat="-26.9498946" lon="152.7447588">
<ele>141.798</ele>
<time>2017-09-17T03:09:26.579Z</time>
</trkpt>
<trkpt lat="-26.9502801" lon="152.7452905">
<ele>142.160</ele>
<time>2017-09-17T03:09:29.586Z</time>
</trkpt>
<trkpt lat="-26.9505440" lon="152.7456338">
<ele>142.444</ele>
<time>2017-09-17T03:09:31.575Z</time>
</trkpt>
<trkpt lat="-26.9508374" lon="152.7459479">
<ele>142.746</ele>
<time>2017-09-17T03:09:33.572Z</time>
</trkpt>
<trkpt lat="-26.9511906" lon="152.7461808">
<ele>143.172</ele>
<time>2017-09-17T03:09:35.573Z</time>
</trkpt>
<trkpt lat="-26.9516575" lon="152.7466364">
<ele>143.750</ele>
<time>2017-09-17T03:09:38.578Z</time>
</trkpt>
<trkpt lat="-26.9520558" lon="152.7471601">
<ele>144.354</ele>
<time>2017-09-17T03:09:41.557Z</time>
</trkpt>
<trkpt lat="-26.9522625" lon="152.7475546">
<ele>144.883</ele>
<time>2017-09-17T03:09:43.552Z</time>
</trkpt>
<trkpt lat="-26.9525405" lon="152.7481647">
<ele>145.351</ele>
<time>2017-09-17T03:09:46.539Z</time>
</trkpt>
<trkpt lat="-26.9526107" lon="152.7486192">
<ele>145.889</ele>
<time>2017-09-17T03:09:48.547Z</time>
</trkpt>
<trkpt lat="-26.9526136" lon="152.7493064">
<ele>146.814</ele>
<time>2017-09-17T03:09:51.531Z</time>
</trkpt>
<trkpt lat="-26.9525019" lon="152.7497467">
<ele>148.330</ele>
<time>2017-09-17T03:09:53.503Z</time>
</trkpt>
<trkpt lat="-26.9522544" lon="152.7503849">
<ele>150.007</ele>
<time>2017-09-17T03:09:56.494Z</time>
</trkpt>
<trkpt lat="-26.9520522" lon="152.7507882">
<ele>151.127</ele>
<time>2017-09-17T03:09:58.484Z</time>
</trkpt>
<trkpt lat="-26.9517873" lon="152.7514148">
<ele>151.420</ele>
<time>2017-09-17T03:10:01.464Z</time>
</trkpt>
<trkpt lat="-26.9516083" lon="152.7518374">
<ele>151.075</ele>
<time>2017-09-17T03:10:03.466Z</time>
</trkpt>
<trkpt lat="-26.9513755" lon="152.7524875">
<ele>150.330</ele>
<time>2017-09-17T03:10:06.468Z</time>
</trkpt>
<trkpt lat="-26.9511193" lon="152.7531147">
<ele>149.354</ele>
<time>2017-09-17T03:10:09.442Z</time>
</trkpt>
<trkpt lat="-26.9508942" lon="152.7537551">
<ele>148.257</ele>
<time>2017-09-17T03:10:12.432Z</time>
</trkpt>
<trkpt lat="-26.9508075" lon="152.7541887">
<ele>147.281</ele>
<time>2017-09-17T03:10:14.395Z</time>
</trkpt>
<trkpt lat="-26.9507000" lon="152.7546175">
<ele>146.699</ele>
<time>2017-09-17T03:10:16.372Z</time>
</trkpt>
<trkpt lat="-26.9506010" lon="152.7550533">
<ele>146.456</ele>
<time>2017-09-17T03:10:18.365Z</time>
</trkpt>
<trkpt lat="-26.9504458" lon="152.7556949">
<ele>146.221</ele>
<time>2017-09-17T03:10:21.312Z</time>
</trkpt>
<trkpt lat="-26.9503502" lon="152.7561250">
<ele>145.704</ele>
<time>2017-09-17T03:10:23.277Z</time>
</trkpt>
<trkpt lat="-26.9501622" lon="152.7567674">
<ele>144.899</ele>
<time>2017-09-17T03:10:26.266Z</time>
</trkpt>
<trkpt lat="-26.9500317" lon="152.7574287">
<ele>144.053</ele>
<time>2017-09-17T03:10:29.251Z</time>
</trkpt>
<trkpt lat="-26.9499419" lon="152.7578626">
<ele>143.298</ele>
<time>2017-09-17T03:10:31.218Z</time>
</trkpt>
<trkpt lat="-26.9497744" lon="152.7582663">
<ele>142.600</ele>
<time>2017-09-17T03:10:33.188Z</time>
</trkpt>
<trkpt lat="-26.9495492" lon="152.7586319">
<ele>142.033</ele>
<time>2017-09-17T03:10:35.155Z</time>
</trkpt>
<trkpt lat="-26.9491189" lon="152.7591177">
<ele>141.687</ele>
<time>2017-09-17T03:10:38.180Z</time>
</trkpt>
<trkpt lat="-26.9488173" lon="152.7594148">
<ele>141.485</ele>
<time>2017-09-17T03:10:40.167Z</time>
</trkpt>
<trkpt lat="-26.9483665" lon="152.7598846">
<ele>141.306</ele>
<time>2017-09-17T03:10:43.216Z</time>
</trkpt>
<trkpt lat="-26.9479126" lon="152.7603344">
<ele>141.075</ele>
<time>2017-09-17T03:10:46.218Z</time>
</trkpt>
<trkpt lat="-26.9476160" lon="152.7606475">
<ele>140.797</ele>
<time>2017-09-17T03:10:48.233Z</time>
</trkpt>
<trkpt lat="-26.9472401" lon="152.7611683">
<ele>140.531</ele>
<time>2017-09-17T03:10:51.183Z</time>
</trkpt>
<trkpt lat="-26.9469193" lon="152.7617495">
<ele>140.324</ele>
<time>2017-09-17T03:10:54.186Z</time>
</trkpt>
<trkpt lat="-26.9467739" lon="152.7621753">
<ele>140.234</ele>
<time>2017-09-17T03:10:56.189Z</time>
</trkpt>
<trkpt lat="-26.9466405" lon="152.7628390">
<ele>140.326</ele>
<time>2017-09-17T03:10:59.178Z</time>
</trkpt>
<trkpt lat="-26.9466138" lon="152.7635163">
<ele>140.559</ele>
<time>2017-09-17T03:11:02.159Z</time>
</trkpt>
<trkpt lat="-26.9466424" lon="152.7639615">
<ele>140.806</ele>
<time>2017-09-17T03:11:04.179Z</time>
</trkpt>
<trkpt lat="-26.9467250" lon="152.7645743">
<ele>140.931</ele>
<time>2017-09-17T03:11:07.164Z</time>
</trkpt>
<trkpt lat="-26.9468770" lon="152.7650990">
<ele>140.800</ele>
<time>2017-09-17T03:11:10.123Z</time>
</trkpt>
<trkpt lat="-26.9469332" lon="152.7654136">
<ele>140.206</ele>
<time>2017-09-17T03:11:12.044Z</time>
</trkpt>
<trkpt lat="-26.9470576" lon="152.7658425">
<ele>139.061</ele>
<time>2017-09-17T03:11:14.864Z</time>
</trkpt>
<trkpt lat="-26.9471531" lon="152.7661428">
<ele>137.605</ele>
<time>2017-09-17T03:11:16.905Z</time>
</trkpt>
<trkpt lat="-26.9472007" lon="152.7664395">
<ele>136.289</ele>
<time>2017-09-17T03:11:18.863Z</time>
</trkpt>
<trkpt lat="-26.9472626" lon="152.7667349">
<ele>135.482</ele>
<time>2017-09-17T03:11:20.841Z</time>
</trkpt>
<trkpt lat="-26.9473700" lon="152.7671957">
<ele>135.223</ele>
<time>2017-09-17T03:11:23.879Z</time>
</trkpt>
<trkpt lat="-26.9474871" lon="152.7674970">
<ele>135.272</ele>
<time>2017-09-17T03:11:25.904Z</time>
</trkpt>
<trkpt lat="-26.9475496" lon="152.7678225">
<ele>135.426</ele>
<time>2017-09-17T03:11:27.921Z</time>
</trkpt>
<trkpt lat="-26.9476132" lon="152.7681482">
<ele>135.647</ele>
<time>2017-09-17T03:11:29.933Z</time>
</trkpt>
<trkpt lat="-26.9477260" lon="152.7686229">
<ele>136.015</ele>
<time>2017-09-17T03:11:32.899Z</time>
</trkpt>
<trkpt lat="-26.9478620" lon="152.7691034">
<ele>136.693</ele>
<time>2017-09-17T03:11:35.924Z</time>
</trkpt>
<trkpt lat="-26.9479644" lon="152.7694208">
<ele>137.631</ele>
<time>2017-09-17T03:11:37.941Z</time>
</trkpt>
<trkpt lat="-26.9481251" lon="152.7698799">
<ele>138.440</ele>
<time>2017-09-17T03:11:40.897Z</time>
</trkpt>
<trkpt lat="-26.9482431" lon="152.7701901">
<ele>138.926</ele>
<time>2017-09-17T03:11:42.928Z</time>
</trkpt>
<trkpt lat="-26.9482946" lon="152.7705137">
<ele>139.225</ele>
<time>2017-09-17T03:11:44.960Z</time>
</trkpt>
<trkpt lat="-26.9483975" lon="152.7709465">
<ele>139.386</ele>
<time>2017-09-17T03:11:47.887Z</time>
</trkpt>
<trkpt lat="-26.9483634" lon="152.7713542">
<ele>139.307</ele>
<time>2017-09-17T03:11:50.783Z</time>
</trkpt>
<trkpt lat="-26.9484382" lon="152.7717465">
<ele>138.879</ele>
<time>2017-09-17T03:11:53.772Z</time>
</trkpt>
<trkpt lat="-26.9484915" lon="152.7719769">
<ele>138.128</ele>
<time>2017-09-17T03:11:55.645Z</time>
</trkpt>
<trkpt lat="-26.9485298" lon="152.7722146">
<ele>137.268</ele>
<time>2017-09-17T03:11:57.620Z</time>
</trkpt>
<trkpt lat="-26.9485525" lon="152.7725693">
<ele>136.525</ele>
<time>2017-09-17T03:12:00.604Z</time>
</trkpt>
<trkpt lat="-26.9485916" lon="152.7727905">
<ele>136.026</ele>
<time>2017-09-17T03:12:02.567Z</time>
</trkpt>
<trkpt lat="-26.9485802" lon="152.7731320">
<ele>135.784</ele>
<time>2017-09-17T03:12:05.614Z</time>
</trkpt>
<trkpt lat="-26.9486593" lon="152.7734413">
<ele>135.722</ele>
<time>2017-09-17T03:12:08.600Z</time>
</trkpt>
<trkpt lat="-26.9486925" lon="152.7737094">
<ele>135.719</ele>
<time>2017-09-17T03:12:11.376Z</time>
</trkpt>
<trkpt lat="-26.9486834" lon="152.7738473">
<ele>135.595</ele>
<time>2017-09-17T03:12:13.000Z</time>
</trkpt>
<trkpt lat="-26.9486834" lon="152.7738473">
<ele>135.285</ele>
<time>2017-09-17T03:12:19.000Z</time>
</trkpt>
<trkpt lat="-26.9486834" lon="152.7738473">
<ele>135.013</ele>
<time>2017-09-17T03:12:33.359Z</time>
</trkpt>
<trkpt lat="-26.9487150" lon="152.7740968">
<ele>134.962</ele>
<time>2017-09-17T03:12:44.013Z</time>
</trkpt>
<trkpt lat="-26.9487689" lon="152.7741858">
<ele>134.665</ele>
<time>2017-09-17T03:12:47.000Z</time>
</trkpt>
<trkpt lat="-26.9487689" lon="152.7741858">
<ele>133.766</ele>
<time>2017-09-17T03:12:52.000Z</time>
</trkpt>
<trkpt lat="-26.9487689" lon="152.7741858">
<ele>132.965</ele>
<time>2017-09-17T03:12:57.001Z</time>
</trkpt>
<trkpt lat="-26.9487017" lon="152.7743440">
<ele>132.919</ele>
<time>2017-09-17T03:13:04.000Z</time>
</trkpt>
<trkpt lat="-26.9487017" lon="152.7743440">
<ele>133.159</ele>
<time>2017-09-17T03:13:16.000Z</time>
</trkpt>
<trkpt lat="-26.9487017" lon="152.7743440">
<ele>133.135</ele>
<time>2017-09-17T03:13:25.129Z</time>
</trkpt>
<trkpt lat="-26.9486171" lon="152.7745677">
<ele>132.965</ele>
<time>2017-09-17T03:13:31.678Z</time>
</trkpt>
<trkpt lat="-26.9487377" lon="152.7747598">
<ele>133.099</ele>
<time>2017-09-17T03:13:33.716Z</time>
</trkpt>
<trkpt lat="-26.9490217" lon="152.7751036">
<ele>133.769</ele>
<time>2017-09-17T03:13:36.941Z</time>
</trkpt>
<trkpt lat="-26.9493153" lon="152.7754862">
<ele>134.995</ele>
<time>2017-09-17T03:13:40.037Z</time>
</trkpt>
<trkpt lat="-26.9495050" lon="152.7757318">
<ele>136.691</ele>
<time>2017-09-17T03:13:42.046Z</time>
</trkpt>
<trkpt lat="-26.9496993" lon="152.7759721">
<ele>138.439</ele>
<time>2017-09-17T03:13:44.090Z</time>
</trkpt>
<trkpt lat="-26.9499044" lon="152.7761878">
<ele>139.691</ele>
<time>2017-09-17T03:13:46.098Z</time>
</trkpt>
<trkpt lat="-26.9502617" lon="152.7764357">
<ele>140.384</ele>
<time>2017-09-17T03:13:49.061Z</time>
</trkpt>
<trkpt lat="-26.9506800" lon="152.7765804">
<ele>140.829</ele>
<time>2017-09-17T03:13:52.081Z</time>
</trkpt>
<trkpt lat="-26.9511057" lon="152.7767160">
<ele>141.363</ele>
<time>2017-09-17T03:13:55.117Z</time>
</trkpt>
<trkpt lat="-26.9513805" lon="152.7768138">
<ele>142.169</ele>
<time>2017-09-17T03:13:57.121Z</time>
</trkpt>
<trkpt lat="-26.9516544" lon="152.7769069">
<ele>143.151</ele>
<time>2017-09-17T03:13:59.129Z</time>
</trkpt>
<trkpt lat="-26.9519262" lon="152.7769903">
<ele>144.130</ele>
<time>2017-09-17T03:14:01.115Z</time>
</trkpt>
<trkpt lat="-26.9522001" lon="152.7770793">
<ele>145.059</ele>
<time>2017-09-17T03:14:03.107Z</time>
</trkpt>
<trkpt lat="-26.9526148" lon="152.7772191">
<ele>145.922</ele>
<time>2017-09-17T03:14:06.107Z</time>
</trkpt>
<trkpt lat="-26.9528953" lon="152.7773056">
<ele>146.752</ele>
<time>2017-09-17T03:14:08.115Z</time>
</trkpt>
<trkpt lat="-26.9533071" lon="152.7774408">
<ele>147.654</ele>
<time>2017-09-17T03:14:11.321Z</time>
</trkpt>
<trkpt lat="-26.9535390" lon="152.7775171">
<ele>148.641</ele>
<time>2017-09-17T03:14:13.567Z</time>
</trkpt>
<trkpt lat="-26.9537202" lon="152.7775795">
<ele>149.523</ele>
<time>2017-09-17T03:14:15.552Z</time>
</trkpt>
<trkpt lat="-26.9538865" lon="152.7776420">
<ele>150.032</ele>
<time>2017-09-17T03:14:17.422Z</time>
</trkpt>
<trkpt lat="-26.9540749" lon="152.7777001">
<ele>150.112</ele>
<time>2017-09-17T03:14:19.658Z</time>
</trkpt>
<trkpt lat="-26.9542364" lon="152.7777526">
<ele>149.969</ele>
<time>2017-09-17T03:14:22.013Z</time>
</trkpt>
<trkpt lat="-26.9543839" lon="152.7777959">
<ele>149.790</ele>
<time>2017-09-17T03:14:24.737Z</time>
</trkpt>
<trkpt lat="-26.9545374" lon="152.7778453">
<ele>149.560</ele>
<time>2017-09-17T03:14:26.987Z</time>
</trkpt>
<trkpt lat="-26.9547122" lon="152.7779019">
<ele>149.247</ele>
<time>2017-09-17T03:14:28.962Z</time>
</trkpt>
<trkpt lat="-26.9550143" lon="152.7779894">
<ele>149.036</ele>
<time>2017-09-17T03:14:32.225Z</time>
</trkpt>
<trkpt lat="-26.9551984" lon="152.7780518">
<ele>149.091</ele>
<time>2017-09-17T03:14:34.177Z</time>
</trkpt>
<trkpt lat="-26.9554942" lon="152.7781561">
<ele>149.305</ele>
<time>2017-09-17T03:14:37.200Z</time>
</trkpt>
<trkpt lat="-26.9558157" lon="152.7782387">
<ele>149.532</ele>
<time>2017-09-17T03:14:40.148Z</time>
</trkpt>
<trkpt lat="-26.9561671" lon="152.7783287">
<ele>149.841</ele>
<time>2017-09-17T03:14:43.099Z</time>
</trkpt>
<trkpt lat="-26.9564230" lon="152.7784070">
<ele>150.532</ele>
<time>2017-09-17T03:14:45.074Z</time>
</trkpt>
<trkpt lat="-26.9568357" lon="152.7785286">
<ele>151.643</ele>
<time>2017-09-17T03:14:48.144Z</time>
</trkpt>
<trkpt lat="-26.9571070" lon="152.7786200">
<ele>152.720</ele>
<time>2017-09-17T03:14:50.150Z</time>
</trkpt>
<trkpt lat="-26.9575206" lon="152.7787344">
<ele>153.363</ele>
<time>2017-09-17T03:14:53.130Z</time>
</trkpt>
<trkpt lat="-26.9579493" lon="152.7788419">
<ele>153.584</ele>
<time>2017-09-17T03:14:56.152Z</time>
</trkpt>
<trkpt lat="-26.9583740" lon="152.7789667">
<ele>153.544</ele>
<time>2017-09-17T03:14:59.151Z</time>
</trkpt>
<trkpt lat="-26.9586621" lon="152.7790470">
<ele>153.363</ele>
<time>2017-09-17T03:15:01.198Z</time>
</trkpt>
<trkpt lat="-26.9590757" lon="152.7791668">
<ele>153.116</ele>
<time>2017-09-17T03:15:04.196Z</time>
</trkpt>
<trkpt lat="-26.9593473" lon="152.7792347">
<ele>152.818</ele>
<time>2017-09-17T03:15:06.175Z</time>
</trkpt>
<trkpt lat="-26.9596201" lon="152.7793104">
<ele>152.431</ele>
<time>2017-09-17T03:15:08.166Z</time>
</trkpt>
<trkpt lat="-26.9600320" lon="152.7794220">
<ele>151.986</ele>
<time>2017-09-17T03:15:11.164Z</time>
</trkpt>
<trkpt lat="-26.9603043" lon="152.7795034">
<ele>151.582</ele>
<time>2017-09-17T03:15:13.159Z</time>
</trkpt>
<trkpt lat="-26.9605738" lon="152.7795969">
<ele>151.285</ele>
<time>2017-09-17T03:15:15.152Z</time>
</trkpt>
<trkpt lat="-26.9608422" lon="152.7797003">
<ele>151.084</ele>
<time>2017-09-17T03:15:17.159Z</time>
</trkpt>
<trkpt lat="-26.9612358" lon="152.7798836">
<ele>150.923</ele>
<time>2017-09-17T03:15:20.178Z</time>
</trkpt>
<trkpt lat="-26.9614882" lon="152.7800280">
<ele>150.773</ele>
<time>2017-09-17T03:15:22.173Z</time>
</trkpt>
<trkpt lat="-26.9617400" lon="152.7801804">
<ele>150.642</ele>
<time>2017-09-17T03:15:24.170Z</time>
</trkpt>
<trkpt lat="-26.9621210" lon="152.7803994">
<ele>150.523</ele>
<time>2017-09-17T03:15:27.155Z</time>
</trkpt>
<trkpt lat="-26.9625013" lon="152.7806173">
<ele>150.352</ele>
<time>2017-09-17T03:15:30.127Z</time>
</trkpt>
<trkpt lat="-26.9628895" lon="152.7808280">
<ele>150.099</ele>
<time>2017-09-17T03:15:33.074Z</time>
</trkpt>
<trkpt lat="-26.9631496" lon="152.7809826">
<ele>149.705</ele>
<time>2017-09-17T03:15:34.981Z</time>
</trkpt>
<trkpt lat="-26.9634387" lon="152.7811493">
<ele>149.099</ele>
<time>2017-09-17T03:15:36.916Z</time>
</trkpt>
<trkpt lat="-26.9639139" lon="152.7814206">
<ele>148.398</ele>
<time>2017-09-17T03:15:39.944Z</time>
</trkpt>
<trkpt lat="-26.9642283" lon="152.7816321">
<ele>147.851</ele>
<time>2017-09-17T03:15:41.923Z</time>
</trkpt>
<trkpt lat="-26.9647322" lon="152.7818936">
<ele>147.576</ele>
<time>2017-09-17T03:15:44.886Z</time>
</trkpt>
<trkpt lat="-26.9650800" lon="152.7820637">
<ele>147.506</ele>
<time>2017-09-17T03:15:46.870Z</time>
</trkpt>
<trkpt lat="-26.9655712" lon="152.7824012">
<ele>147.510</ele>
<time>2017-09-17T03:15:49.848Z</time>
</trkpt>
<trkpt lat="-26.9660673" lon="152.7827516">
<ele>147.592</ele>
<time>2017-09-17T03:15:52.834Z</time>
</trkpt>
<trkpt lat="-26.9663903" lon="152.7830080">
<ele>147.979</ele>
<time>2017-09-17T03:15:54.839Z</time>
</trkpt>
<trkpt lat="-26.9666979" lon="152.7832738">
<ele>148.874</ele>
<time>2017-09-17T03:15:56.828Z</time>
</trkpt>
<trkpt lat="-26.9671345" lon="152.7836933">
<ele>150.145</ele>
<time>2017-09-17T03:15:59.780Z</time>
</trkpt>
<trkpt lat="-26.9674446" lon="152.7839564">
<ele>151.675</ele>
<time>2017-09-17T03:16:01.748Z</time>
</trkpt>
<trkpt lat="-26.9679019" lon="152.7843856">
<ele>153.522</ele>
<time>2017-09-17T03:16:04.751Z</time>
</trkpt>
<trkpt lat="-26.9683870" lon="152.7847635">
<ele>155.627</ele>
<time>2017-09-17T03:16:07.704Z</time>
</trkpt>
<trkpt lat="-26.9688439" lon="152.7852025">
<ele>157.847</ele>
<time>2017-09-17T03:16:10.666Z</time>
</trkpt>
<trkpt lat="-26.9693223" lon="152.7856421">
<ele>160.036</ele>
<time>2017-09-17T03:16:13.698Z</time>
</trkpt>
<trkpt lat="-26.9697839" lon="152.7860541">
<ele>161.906</ele>
<time>2017-09-17T03:16:16.626Z</time>
</trkpt>
<trkpt lat="-26.9702308" lon="152.7865089">
<ele>163.195</ele>
<time>2017-09-17T03:16:19.631Z</time>
</trkpt>
<trkpt lat="-26.9705542" lon="152.7867719">
<ele>163.854</ele>
<time>2017-09-17T03:16:21.630Z</time>
</trkpt>
<trkpt lat="-26.9708728" lon="152.7870342">
<ele>164.018</ele>
<time>2017-09-17T03:16:23.639Z</time>
</trkpt>
<trkpt lat="-26.9711832" lon="152.7872904">
<ele>163.844</ele>
<time>2017-09-17T03:16:25.609Z</time>
</trkpt>
<trkpt lat="-26.9716811" lon="152.7876418">
<ele>163.486</ele>
<time>2017-09-17T03:16:28.602Z</time>
</trkpt>
<trkpt lat="-26.9720233" lon="152.7878668">
<ele>163.073</ele>
<time>2017-09-17T03:16:30.598Z</time>
</trkpt>
<trkpt lat="-26.9723841" lon="152.7880663">
<ele>162.717</ele>
<time>2017-09-17T03:16:32.597Z</time>
</trkpt>
<trkpt lat="-26.9727201" lon="152.7883203">
<ele>162.461</ele>
<time>2017-09-17T03:16:34.584Z</time>
</trkpt>
<trkpt lat="-26.9732377" lon="152.7887141">
<ele>162.285</ele>
<time>2017-09-17T03:16:37.640Z</time>
</trkpt>
<trkpt lat="-26.9735769" lon="152.7889396">
<ele>162.140</ele>
<time>2017-09-17T03:16:39.568Z</time>
</trkpt>
<trkpt lat="-26.9739210" lon="152.7891874">
<ele>162.005</ele>
<time>2017-09-17T03:16:41.557Z</time>
</trkpt>
<trkpt lat="-26.9742707" lon="152.7894458">
<ele>161.921</ele>
<time>2017-09-17T03:16:43.578Z</time>
</trkpt>
<trkpt lat="-26.9747946" lon="152.7898206">
<ele>162.000</ele>
<time>2017-09-17T03:16:46.595Z</time>
</trkpt>
<trkpt lat="-26.9753243" lon="152.7901445">
<ele>162.242</ele>
<time>2017-09-17T03:16:49.582Z</time>
</trkpt>
<trkpt lat="-26.9756500" lon="152.7903733">
<ele>162.382</ele>
<time>2017-09-17T03:16:51.506Z</time>
</trkpt>
<trkpt lat="-26.9759908" lon="152.7906174">
<ele>162.235</ele>
<time>2017-09-17T03:16:53.508Z</time>
</trkpt>
<trkpt lat="-26.9765117" lon="152.7909911">
<ele>162.018</ele>
<time>2017-09-17T03:16:56.589Z</time>
</trkpt>
<trkpt lat="-26.9769970" lon="152.7913387">
<ele>162.020</ele>
<time>2017-09-17T03:16:59.521Z</time>
</trkpt>
<trkpt lat="-26.9773137" lon="152.7915800">
<ele>162.378</ele>
<time>2017-09-17T03:17:01.461Z</time>
</trkpt>
<trkpt lat="-26.9778337" lon="152.7919276">
<ele>163.065</ele>
<time>2017-09-17T03:17:04.477Z</time>
</trkpt>
<trkpt lat="-26.9781757" lon="152.7921683">
<ele>163.872</ele>
<time>2017-09-17T03:17:06.468Z</time>
</trkpt>
<trkpt lat="-26.9786769" lon="152.7925398">
<ele>164.540</ele>
<time>2017-09-17T03:17:09.430Z</time>
</trkpt>
<trkpt lat="-26.9792166" lon="152.7928763">
<ele>165.065</ele>
<time>2017-09-17T03:17:12.451Z</time>
</trkpt>
<trkpt lat="-26.9797489" lon="152.7932306">
<ele>165.583</ele>
<time>2017-09-17T03:17:15.444Z</time>
</trkpt>
<trkpt lat="-26.9800687" lon="152.7935273">
<ele>166.032</ele>
<time>2017-09-17T03:17:17.428Z</time>
</trkpt>
<trkpt lat="-26.9806115" lon="152.7938969">
<ele>166.091</ele>
<time>2017-09-17T03:17:20.418Z</time>
</trkpt>
<trkpt lat="-26.9810088" lon="152.7941188">
<ele>165.507</ele>
<time>2017-09-17T03:17:22.468Z</time>
</trkpt>
<trkpt lat="-26.9815949" lon="152.7943970">
<ele>164.501</ele>
<time>2017-09-17T03:17:25.445Z</time>
</trkpt>
<trkpt lat="-26.9820171" lon="152.7945983">
<ele>163.501</ele>
<time>2017-09-17T03:17:27.687Z</time>
</trkpt>
<trkpt lat="-26.9825511" lon="152.7948586">
<ele>162.648</ele>
<time>2017-09-17T03:17:30.608Z</time>
</trkpt>
<trkpt lat="-26.9828950" lon="152.7949829">
<ele>161.952</ele>
<time>2017-09-17T03:17:32.541Z</time>
</trkpt>
<trkpt lat="-26.9833965" lon="152.7951746">
<ele>161.475</ele>
<time>2017-09-17T03:17:35.549Z</time>
</trkpt>
<trkpt lat="-26.9838372" lon="152.7953623">
<ele>161.266</ele>
<time>2017-09-17T03:17:38.425Z</time>
</trkpt>
<trkpt lat="-26.9842599" lon="152.7955618">
<ele>161.420</ele>
<time>2017-09-17T03:17:41.349Z</time>
</trkpt>
<trkpt lat="-26.9845281" lon="152.7957224">
<ele>161.939</ele>
<time>2017-09-17T03:17:43.351Z</time>
</trkpt>
<trkpt lat="-26.9849268" lon="152.7959253">
<ele>162.595</ele>
<time>2017-09-17T03:17:46.261Z</time>
</trkpt>
<trkpt lat="-26.9851712" lon="152.7961178">
<ele>163.107</ele>
<time>2017-09-17T03:17:48.260Z</time>
</trkpt>
<trkpt lat="-26.9854156" lon="152.7962881">
<ele>163.447</ele>
<time>2017-09-17T03:17:50.235Z</time>
</trkpt>
<trkpt lat="-26.9857660" lon="152.7965235">
<ele>163.708</ele>
<time>2017-09-17T03:17:53.170Z</time>
</trkpt>
<trkpt lat="-26.9860722" lon="152.7967563">
<ele>163.899</ele>
<time>2017-09-17T03:17:56.114Z</time>
</trkpt>
<trkpt lat="-26.9863038" lon="152.7969724">
<ele>163.966</ele>
<time>2017-09-17T03:17:58.870Z</time>
</trkpt>
<trkpt lat="-26.9865043" lon="152.7971780">
<ele>163.906</ele>
<time>2017-09-17T03:18:01.651Z</time>
</trkpt>
<trkpt lat="-26.9866426" lon="152.7973249">
<ele>163.840</ele>
<time>2017-09-17T03:18:03.641Z</time>
</trkpt>
<trkpt lat="-26.9867665" lon="152.7974945">
<ele>163.874</ele>
<time>2017-09-17T03:18:05.658Z</time>
</trkpt>
<trkpt lat="-26.9869136" lon="152.7976347">
<ele>163.977</ele>
<time>2017-09-17T03:18:07.691Z</time>
</trkpt>
<trkpt lat="-26.9870362" lon="152.7977629">
<ele>164.037</ele>
<time>2017-09-17T03:18:09.653Z</time>
</trkpt>
<trkpt lat="-26.9871003" lon="152.7978436">
<ele>163.984</ele>
<time>2017-09-17T03:18:11.001Z</time>
</trkpt>
<trkpt lat="-26.9871952" lon="152.7979621">
<ele>163.780</ele>
<time>2017-09-17T03:18:13.672Z</time>
</trkpt>
<trkpt lat="-26.9874728" lon="152.7982366">
<ele>163.472</ele>
<time>2017-09-17T03:18:18.864Z</time>
</trkpt>
<trkpt lat="-26.9878017" lon="152.7986009">
<ele>163.400</ele>
<time>2017-09-17T03:18:22.274Z</time>
</trkpt>
<trkpt lat="-26.9880194" lon="152.7988605">
<ele>163.965</ele>
<time>2017-09-17T03:18:24.317Z</time>
</trkpt>
<trkpt lat="-26.9882104" lon="152.7991447">
<ele>165.047</ele>
<time>2017-09-17T03:18:26.343Z</time>
</trkpt>
<trkpt lat="-26.9884196" lon="152.7993846">
<ele>166.125</ele>
<time>2017-09-17T03:18:28.277Z</time>
</trkpt>
<trkpt lat="-26.9887476" lon="152.7997397">
<ele>166.855</ele>
<time>2017-09-17T03:18:31.236Z</time>
</trkpt>
<trkpt lat="-26.9890633" lon="152.8001440">
<ele>167.203</ele>
<time>2017-09-17T03:18:34.289Z</time>
</trkpt>
<trkpt lat="-26.9893241" lon="152.8005889">
<ele>167.353</ele>
<time>2017-09-17T03:18:37.256Z</time>
</trkpt>
<trkpt lat="-26.9895879" lon="152.8010802">
<ele>167.498</ele>
<time>2017-09-17T03:18:40.347Z</time>
</trkpt>
<trkpt lat="-26.9898214" lon="152.8013608">
<ele>167.579</ele>
<time>2017-09-17T03:18:42.353Z</time>
</trkpt>
<trkpt lat="-26.9901738" lon="152.8018050">
<ele>167.418</ele>
<time>2017-09-17T03:18:45.392Z</time>
</trkpt>
<trkpt lat="-26.9904199" lon="152.8020957">
<ele>166.922</ele>
<time>2017-09-17T03:18:47.394Z</time>
</trkpt>
<trkpt lat="-26.9908013" lon="152.8025274">
<ele>166.232</ele>
<time>2017-09-17T03:18:50.401Z</time>
</trkpt>
<trkpt lat="-26.9911521" lon="152.8029452">
<ele>165.724</ele>
<time>2017-09-17T03:18:53.282Z</time>
</trkpt>
<trkpt lat="-26.9913709" lon="152.8032564">
<ele>165.775</ele>
<time>2017-09-17T03:18:55.260Z</time>
</trkpt>
<trkpt lat="-26.9916128" lon="152.8036088">
<ele>166.490</ele>
<time>2017-09-17T03:18:57.360Z</time>
</trkpt>
<trkpt lat="-26.9918859" lon="152.8039588">
<ele>167.681</ele>
<time>2017-09-17T03:18:59.421Z</time>
</trkpt>
<trkpt lat="-26.9922598" lon="152.8045713">
<ele>169.042</ele>
<time>2017-09-17T03:19:02.509Z</time>
</trkpt>
<trkpt lat="-26.9924567" lon="152.8050387">
<ele>170.422</ele>
<time>2017-09-17T03:19:04.567Z</time>
</trkpt>
<trkpt lat="-26.9926242" lon="152.8054968">
<ele>171.756</ele>
<time>2017-09-17T03:19:06.530Z</time>
</trkpt>
<trkpt lat="-26.9928435" lon="152.8062243">
<ele>172.930</ele>
<time>2017-09-17T03:19:09.572Z</time>
</trkpt>
<trkpt lat="-26.9929559" lon="152.8069656">
<ele>173.967</ele>
<time>2017-09-17T03:19:12.543Z</time>
</trkpt>
<trkpt lat="-26.9929722" lon="152.8077403">
<ele>174.916</ele>
<time>2017-09-17T03:19:15.581Z</time>
</trkpt>
<trkpt lat="-26.9929846" lon="152.8082611">
<ele>175.556</ele>
<time>2017-09-17T03:19:17.596Z</time>
</trkpt>
<trkpt lat="-26.9929298" lon="152.8087708">
<ele>175.711</ele>
<time>2017-09-17T03:19:19.583Z</time>
</trkpt>
<trkpt lat="-26.9928181" lon="152.8092626">
<ele>175.452</ele>
<time>2017-09-17T03:19:21.554Z</time>
</trkpt>
<trkpt lat="-26.9926534" lon="152.8099985">
<ele>175.001</ele>
<time>2017-09-17T03:19:24.514Z</time>
</trkpt>
<trkpt lat="-26.9926108" lon="152.8107430">
<ele>174.684</ele>
<time>2017-09-17T03:19:27.463Z</time>
</trkpt>
<trkpt lat="-26.9926660" lon="152.8112294">
<ele>174.631</ele>
<time>2017-09-17T03:19:29.444Z</time>
</trkpt>
<trkpt lat="-26.9927016" lon="152.8119593">
<ele>174.690</ele>
<time>2017-09-17T03:19:32.432Z</time>
</trkpt>
<trkpt lat="-26.9926043" lon="152.8124404">
<ele>174.591</ele>
<time>2017-09-17T03:19:34.450Z</time>
</trkpt>
<trkpt lat="-26.9923206" lon="152.8130818">
<ele>174.195</ele>
<time>2017-09-17T03:19:37.419Z</time>
</trkpt>
<trkpt lat="-26.9920552" lon="152.8134224">
<ele>173.547</ele>
<time>2017-09-17T03:19:39.372Z</time>
</trkpt>
<trkpt lat="-26.9918104" lon="152.8137471">
<ele>172.789</ele>
<time>2017-09-17T03:19:41.304Z</time>
</trkpt>
<trkpt lat="-26.9916368" lon="152.8140886">
<ele>172.130</ele>
<time>2017-09-17T03:19:43.209Z</time>
</trkpt>
<trkpt lat="-26.9915849" lon="152.8146567">
<ele>171.639</ele>
<time>2017-09-17T03:19:46.145Z</time>
</trkpt>
<trkpt lat="-26.9917081" lon="152.8152099">
<ele>170.974</ele>
<time>2017-09-17T03:19:49.129Z</time>
</trkpt>
<trkpt lat="-26.9918550" lon="152.8155443">
<ele>169.717</ele>
<time>2017-09-17T03:19:51.091Z</time>
</trkpt>
<trkpt lat="-26.9920378" lon="152.8158803">
<ele>167.857</ele>
<time>2017-09-17T03:19:53.117Z</time>
</trkpt>
<trkpt lat="-26.9922798" lon="152.8161888">
<ele>165.728</ele>
<time>2017-09-17T03:19:55.156Z</time>
</trkpt>
<trkpt lat="-26.9925746" lon="152.8164285">
<ele>163.521</ele>
<time>2017-09-17T03:19:57.174Z</time>
</trkpt>
<trkpt lat="-26.9929674" lon="152.8166027">
<ele>161.127</ele>
<time>2017-09-17T03:19:59.491Z</time>
</trkpt>
<trkpt lat="-26.9935613" lon="152.8167456">
<ele>158.394</ele>
<time>2017-09-17T03:20:02.726Z</time>
</trkpt>
<trkpt lat="-26.9940908" lon="152.8169609">
<ele>154.877</ele>
<time>2017-09-17T03:20:05.647Z</time>
</trkpt>
<trkpt lat="-26.9944425" lon="152.8171454">
<ele>150.083</ele>
<time>2017-09-17T03:20:07.625Z</time>
</trkpt>
<trkpt lat="-26.9949219" lon="152.8175084">
<ele>144.417</ele>
<time>2017-09-17T03:20:10.541Z</time>
</trkpt>
<trkpt lat="-26.9952133" lon="152.8178112">
<ele>138.557</ele>
<time>2017-09-17T03:20:12.533Z</time>
</trkpt>
<trkpt lat="-26.9955312" lon="152.8183674">
<ele>132.836</ele>
<time>2017-09-17T03:20:15.494Z</time>
</trkpt>
<trkpt lat="-26.9957428" lon="152.8189810">
<ele>127.527</ele>
<time>2017-09-17T03:20:18.474Z</time>
</trkpt>
<trkpt lat="-26.9958893" lon="152.8193851">
<ele>122.581</ele>
<time>2017-09-17T03:20:20.470Z</time>
</trkpt>
<trkpt lat="-26.9961276" lon="152.8199680">
<ele>117.982</ele>
<time>2017-09-17T03:20:23.442Z</time>
</trkpt>
<trkpt lat="-26.9963230" lon="152.8203114">
<ele>114.189</ele>
<time>2017-09-17T03:20:25.379Z</time>
</trkpt>
<trkpt lat="-26.9965591" lon="152.8206356">
<ele>111.581</ele>
<time>2017-09-17T03:20:27.380Z</time>
</trkpt>
<trkpt lat="-26.9968483" lon="152.8209700">
<ele>110.248</ele>
<time>2017-09-17T03:20:29.480Z</time>
</trkpt>
<trkpt lat="-26.9972316" lon="152.8215629">
<ele>109.796</ele>
<time>2017-09-17T03:20:32.540Z</time>
</trkpt>
<trkpt lat="-26.9976779" lon="152.8221600">
<ele>109.311</ele>
<time>2017-09-17T03:20:35.616Z</time>
</trkpt>
<trkpt lat="-26.9979701" lon="152.8225479">
<ele>107.806</ele>
<time>2017-09-17T03:20:37.593Z</time>
</trkpt>
<trkpt lat="-26.9982377" lon="152.8229508">
<ele>105.012</ele>
<time>2017-09-17T03:20:39.585Z</time>
</trkpt>
<trkpt lat="-26.9986883" lon="152.8234678">
<ele>101.049</ele>
<time>2017-09-17T03:20:42.528Z</time>
</trkpt>
<trkpt lat="-26.9989369" lon="152.8238365">
<ele>95.495</ele>
<time>2017-09-17T03:20:44.475Z</time>
</trkpt>
<trkpt lat="-26.9992271" lon="152.8244564">
<ele>88.634</ele>
<time>2017-09-17T03:20:47.456Z</time>
</trkpt>
<trkpt lat="-26.9993367" lon="152.8249252">
<ele>82.626</ele>
<time>2017-09-17T03:20:49.490Z</time>
</trkpt>
<trkpt lat="-26.9994794" lon="152.8256326">
<ele>79.333</ele>
<time>2017-09-17T03:20:52.496Z</time>
</trkpt>
<trkpt lat="-26.9995246" lon="152.8263411">
<ele>78.844</ele>
<time>2017-09-17T03:20:55.448Z</time>
</trkpt>
<trkpt lat="-26.9995155" lon="152.8268148">
<ele>80.381</ele>
<time>2017-09-17T03:20:57.434Z</time>
</trkpt>
<trkpt lat="-26.9995112" lon="152.8272824">
<ele>82.853</ele>
<time>2017-09-17T03:20:59.416Z</time>
</trkpt>
<trkpt lat="-26.9994964" lon="152.8279557">
<ele>84.982</ele>
<time>2017-09-17T03:21:02.336Z</time>
</trkpt>
<trkpt lat="-26.9996625" lon="152.8286028">
<ele>86.035</ele>
<time>2017-09-17T03:21:05.292Z</time>
</trkpt>
<trkpt lat="-26.9998588" lon="152.8290127">
<ele>85.950</ele>
<time>2017-09-17T03:21:07.309Z</time>
</trkpt>
<trkpt lat="-27.0002098" lon="152.8295865">
<ele>85.004</ele>
<time>2017-09-17T03:21:10.299Z</time>
</trkpt>
<trkpt lat="-27.0006889" lon="152.8300411">
<ele>83.515</ele>
<time>2017-09-17T03:21:13.297Z</time>
</trkpt>
<trkpt lat="-27.0012798" lon="152.8303474">
<ele>81.564</ele>
<time>2017-09-17T03:21:16.345Z</time>
</trkpt>
<trkpt lat="-27.0016893" lon="152.8304986">
<ele>79.109</ele>
<time>2017-09-17T03:21:18.344Z</time>
</trkpt>
<trkpt lat="-27.0020939" lon="152.8306695">
<ele>76.486</ele>
<time>2017-09-17T03:21:20.345Z</time>
</trkpt>
<trkpt lat="-27.0024998" lon="152.8308603">
<ele>74.359</ele>
<time>2017-09-17T03:21:22.355Z</time>
</trkpt>
<trkpt lat="-27.0029093" lon="152.8310503">
<ele>73.171</ele>
<time>2017-09-17T03:21:24.348Z</time>
</trkpt>
<trkpt lat="-27.0035300" lon="152.8313677">
<ele>72.910</ele>
<time>2017-09-17T03:21:27.370Z</time>
</trkpt>
<trkpt lat="-27.0039682" lon="152.8315546">
<ele>73.380</ele>
<time>2017-09-17T03:21:29.395Z</time>
</trkpt>
<trkpt lat="-27.0046137" lon="152.8318854">
<ele>74.310</ele>
<time>2017-09-17T03:21:32.405Z</time>
</trkpt>
<trkpt lat="-27.0052549" lon="152.8322207">
<ele>75.235</ele>
<time>2017-09-17T03:21:35.394Z</time>
</trkpt>
<trkpt lat="-27.0058188" lon="152.8326662">
<ele>75.649</ele>
<time>2017-09-17T03:21:38.362Z</time>
</trkpt>
<trkpt lat="-27.0061586" lon="152.8332737">
<ele>75.185</ele>
<time>2017-09-17T03:21:41.257Z</time>
</trkpt>
<trkpt lat="-27.0063914" lon="152.8339482">
<ele>73.719</ele>
<time>2017-09-17T03:21:44.278Z</time>
</trkpt>
<trkpt lat="-27.0064639" lon="152.8344243">
<ele>71.763</ele>
<time>2017-09-17T03:21:46.277Z</time>
</trkpt>
<trkpt lat="-27.0064914" lon="152.8351384">
<ele>70.228</ele>
<time>2017-09-17T03:21:49.238Z</time>
</trkpt>
<trkpt lat="-27.0065433" lon="152.8358416">
<ele>69.530</ele>
<time>2017-09-17T03:21:52.195Z</time>
</trkpt>
<trkpt lat="-27.0066576" lon="152.8363172">
<ele>69.423</ele>
<time>2017-09-17T03:21:54.243Z</time>
</trkpt>
<trkpt lat="-27.0069586" lon="152.8369443">
<ele>69.644</ele>
<time>2017-09-17T03:21:57.202Z</time>
</trkpt>
<trkpt lat="-27.0073816" lon="152.8374346">
<ele>70.409</ele>
<time>2017-09-17T03:22:00.098Z</time>
</trkpt>
<trkpt lat="-27.0076908" lon="152.8377583">
<ele>72.212</ele>
<time>2017-09-17T03:22:02.119Z</time>
</trkpt>
<trkpt lat="-27.0079854" lon="152.8380772">
<ele>74.994</ele>
<time>2017-09-17T03:22:04.082Z</time>
</trkpt>
<trkpt lat="-27.0084007" lon="152.8385841">
<ele>77.981</ele>
<time>2017-09-17T03:22:07.062Z</time>
</trkpt>
<trkpt lat="-27.0088655" lon="152.8390459">
<ele>80.382</ele>
<time>2017-09-17T03:22:10.082Z</time>
</trkpt>
<trkpt lat="-27.0093111" lon="152.8394949">
<ele>81.820</ele>
<time>2017-09-17T03:22:13.052Z</time>
</trkpt>
<trkpt lat="-27.0096885" lon="152.8399374">
<ele>82.450</ele>
<time>2017-09-17T03:22:15.915Z</time>
</trkpt>
<trkpt lat="-27.0099554" lon="152.8402363">
<ele>82.905</ele>
<time>2017-09-17T03:22:17.937Z</time>
</trkpt>
<trkpt lat="-27.0102790" lon="152.8404908">
<ele>83.714</ele>
<time>2017-09-17T03:22:20.011Z</time>
</trkpt>
<trkpt lat="-27.0105898" lon="152.8407365">
<ele>84.869</ele>
<time>2017-09-17T03:22:21.986Z</time>
</trkpt>
<trkpt lat="-27.0110928" lon="152.8410869">
<ele>86.070</ele>
<time>2017-09-17T03:22:25.026Z</time>
</trkpt>
<trkpt lat="-27.0114790" lon="152.8412725">
<ele>86.982</ele>
<time>2017-09-17T03:22:27.097Z</time>
</trkpt>
<trkpt lat="-27.0118859" lon="152.8414139">
<ele>87.304</ele>
<time>2017-09-17T03:22:29.118Z</time>
</trkpt>
<trkpt lat="-27.0122967" lon="152.8415526">
<ele>86.911</ele>
<time>2017-09-17T03:22:31.121Z</time>
</trkpt>
<trkpt lat="-27.0129331" lon="152.8417032">
<ele>85.989</ele>
<time>2017-09-17T03:22:34.141Z</time>
</trkpt>
<trkpt lat="-27.0133699" lon="152.8417836">
<ele>84.958</ele>
<time>2017-09-17T03:22:36.190Z</time>
</trkpt>
<trkpt lat="-27.0140306" lon="152.8418911">
<ele>84.177</ele>
<time>2017-09-17T03:22:39.258Z</time>
</trkpt>
<trkpt lat="-27.0144672" lon="152.8419860">
<ele>83.695</ele>
<time>2017-09-17T03:22:41.272Z</time>
</trkpt>
<trkpt lat="-27.0151105" lon="152.8421553">
<ele>83.312</ele>
<time>2017-09-17T03:22:44.240Z</time>
</trkpt>
<trkpt lat="-27.0157532" lon="152.8423694">
<ele>82.798</ele>
<time>2017-09-17T03:22:47.226Z</time>
</trkpt>
<trkpt lat="-27.0161718" lon="152.8425882">
<ele>82.030</ele>
<time>2017-09-17T03:22:49.251Z</time>
</trkpt>
<trkpt lat="-27.0165980" lon="152.8428267">
<ele>81.103</ele>
<time>2017-09-17T03:22:51.302Z</time>
</trkpt>
<trkpt lat="-27.0170128" lon="152.8430603">
<ele>80.254</ele>
<time>2017-09-17T03:22:53.287Z</time>
</trkpt>
<trkpt lat="-27.0175667" lon="152.8434843">
<ele>79.593</ele>
<time>2017-09-17T03:22:56.194Z</time>
</trkpt>
<trkpt lat="-27.0179431" lon="152.8437883">
<ele>79.130</ele>
<time>2017-09-17T03:22:58.220Z</time>
</trkpt>
<trkpt lat="-27.0184750" lon="152.8442907">
<ele>78.897</ele>
<time>2017-09-17T03:23:01.233Z</time>
</trkpt>
<trkpt lat="-27.0189460" lon="152.8448560">
<ele>78.858</ele>
<time>2017-09-17T03:23:04.205Z</time>
</trkpt>
<trkpt lat="-27.0193886" lon="152.8455074">
<ele>78.949</ele>
<time>2017-09-17T03:23:07.287Z</time>
</trkpt>
<trkpt lat="-27.0196953" lon="152.8459149">
<ele>79.118</ele>
<time>2017-09-17T03:23:09.265Z</time>
</trkpt>
<trkpt lat="-27.0200934" lon="152.8465441">
<ele>79.241</ele>
<time>2017-09-17T03:23:12.181Z</time>
</trkpt>
<trkpt lat="-27.0204014" lon="152.8469334">
<ele>79.098</ele>
<time>2017-09-17T03:23:14.175Z</time>
</trkpt>
<trkpt lat="-27.0209556" lon="152.8474250">
<ele>78.542</ele>
<time>2017-09-17T03:23:17.189Z</time>
</trkpt>
<trkpt lat="-27.0215940" lon="152.8478536">
<ele>77.586</ele>
<time>2017-09-17T03:23:20.350Z</time>
</trkpt>
<trkpt lat="-27.0220093" lon="152.8480939">
<ele>76.473</ele>
<time>2017-09-17T03:23:22.326Z</time>
</trkpt>
<trkpt lat="-27.0224491" lon="152.8483066">
<ele>75.619</ele>
<time>2017-09-17T03:23:24.317Z</time>
</trkpt>
<trkpt lat="-27.0230702" lon="152.8486944">
<ele>75.274</ele>
<time>2017-09-17T03:23:27.246Z</time>
</trkpt>
<trkpt lat="-27.0234901" lon="152.8489197">
<ele>75.302</ele>
<time>2017-09-17T03:23:29.202Z</time>
</trkpt>
<trkpt lat="-27.0240516" lon="152.8493761">
<ele>75.431</ele>
<time>2017-09-17T03:23:32.168Z</time>
</trkpt>
<trkpt lat="-27.0244102" lon="152.8497394">
<ele>75.484</ele>
<time>2017-09-17T03:23:34.221Z</time>
</trkpt>
<trkpt lat="-27.0247121" lon="152.8501480">
<ele>75.429</ele>
<time>2017-09-17T03:23:36.217Z</time>
</trkpt>
<trkpt lat="-27.0251296" lon="152.8507642">
<ele>75.246</ele>
<time>2017-09-17T03:23:39.157Z</time>
</trkpt>
<trkpt lat="-27.0254274" lon="152.8511536">
<ele>74.849</ele>
<time>2017-09-17T03:23:41.127Z</time>
</trkpt>
<trkpt lat="-27.0258972" lon="152.8517410">
<ele>74.191</ele>
<time>2017-09-17T03:23:44.126Z</time>
</trkpt>
<trkpt lat="-27.0264196" lon="152.8522656">
<ele>73.292</ele>
<time>2017-09-17T03:23:47.083Z</time>
</trkpt>
<trkpt lat="-27.0270166" lon="152.8527079">
<ele>72.242</ele>
<time>2017-09-17T03:23:50.070Z</time>
</trkpt>
<trkpt lat="-27.0276829" lon="152.8530152">
<ele>71.296</ele>
<time>2017-09-17T03:23:53.068Z</time>
</trkpt>
<trkpt lat="-27.0281158" lon="152.8531690">
<ele>70.725</ele>
<time>2017-09-17T03:23:54.996Z</time>
</trkpt>
<trkpt lat="-27.0287484" lon="152.8533575">
<ele>70.485</ele>
<time>2017-09-17T03:23:57.886Z</time>
</trkpt>
<trkpt lat="-27.0291831" lon="152.8533866">
<ele>70.373</ele>
<time>2017-09-17T03:23:59.852Z</time>
</trkpt>
<trkpt lat="-27.0298561" lon="152.8534594">
<ele>70.333</ele>
<time>2017-09-17T03:24:02.874Z</time>
</trkpt>
<trkpt lat="-27.0303011" lon="152.8534564">
<ele>70.487</ele>
<time>2017-09-17T03:24:04.865Z</time>
</trkpt>
<trkpt lat="-27.0307163" lon="152.8535753">
<ele>70.872</ele>
<time>2017-09-17T03:24:06.818Z</time>
</trkpt>
<trkpt lat="-27.0313250" lon="152.8537919">
<ele>71.311</ele>
<time>2017-09-17T03:24:09.788Z</time>
</trkpt>
<trkpt lat="-27.0317064" lon="152.8539852">
<ele>71.652</ele>
<time>2017-09-17T03:24:11.766Z</time>
</trkpt>
<trkpt lat="-27.0322490" lon="152.8543266">
<ele>71.893</ele>
<time>2017-09-17T03:24:14.745Z</time>
</trkpt>
<trkpt lat="-27.0327976" lon="152.8546687">
<ele>72.051</ele>
<time>2017-09-17T03:24:17.752Z</time>
</trkpt>
<trkpt lat="-27.0333688" lon="152.8550210">
<ele>72.119</ele>
<time>2017-09-17T03:24:20.802Z</time>
</trkpt>
<trkpt lat="-27.0337487" lon="152.8552346">
<ele>72.064</ele>
<time>2017-09-17T03:24:22.767Z</time>
</trkpt>
<trkpt lat="-27.0341302" lon="152.8554406">
<ele>71.846</ele>
<time>2017-09-17T03:24:24.744Z</time>
</trkpt>
<trkpt lat="-27.0345091" lon="152.8556407">
<ele>71.508</ele>
<time>2017-09-17T03:24:26.718Z</time>
</trkpt>
<trkpt lat="-27.0348689" lon="152.8558299">
<ele>71.072</ele>
<time>2017-09-17T03:24:28.631Z</time>
</trkpt>
<trkpt lat="-27.0351819" lon="152.8560504">
<ele>70.502</ele>
<time>2017-09-17T03:24:30.488Z</time>
</trkpt>
<trkpt lat="-27.0356176" lon="152.8563391">
<ele>69.914</ele>
<time>2017-09-17T03:24:33.225Z</time>
</trkpt>
<trkpt lat="-27.0358624" lon="152.8565395">
<ele>69.541</ele>
<time>2017-09-17T03:24:34.981Z</time>
</trkpt>
<trkpt lat="-27.0360497" lon="152.8567377">
<ele>69.440</ele>
<time>2017-09-17T03:24:36.607Z</time>
</trkpt>
<trkpt lat="-27.0363144" lon="152.8570336">
<ele>69.502</ele>
<time>2017-09-17T03:24:39.283Z</time>
</trkpt>
<trkpt lat="-27.0365271" lon="152.8572188">
<ele>69.617</ele>
<time>2017-09-17T03:24:41.330Z</time>
</trkpt>
<trkpt lat="-27.0368353" lon="152.8574819">
<ele>69.786</ele>
<time>2017-09-17T03:24:44.279Z</time>
</trkpt>
<trkpt lat="-27.0370195" lon="152.8576999">
<ele>70.169</ele>
<time>2017-09-17T03:24:46.298Z</time>
</trkpt>
<trkpt lat="-27.0372202" lon="152.8578836">
<ele>70.841</ele>
<time>2017-09-17T03:24:48.258Z</time>
</trkpt>
<trkpt lat="-27.0375213" lon="152.8581318">
<ele>71.643</ele>
<time>2017-09-17T03:24:51.104Z</time>
</trkpt>
<trkpt lat="-27.0378133" lon="152.8583868">
<ele>72.502</ele>
<time>2017-09-17T03:24:53.985Z</time>
</trkpt>
<trkpt lat="-27.0380984" lon="152.8586163">
<ele>73.463</ele>
<time>2017-09-17T03:24:56.796Z</time>
</trkpt>
<trkpt lat="-27.0382724" lon="152.8587809">
<ele>74.342</ele>
<time>2017-09-17T03:24:58.664Z</time>
</trkpt>
<trkpt lat="-27.0384694" lon="152.8589175">
<ele>74.886</ele>
<time>2017-09-17T03:25:00.615Z</time>
</trkpt>
<trkpt lat="-27.0387708" lon="152.8591257">
<ele>75.128</ele>
<time>2017-09-17T03:25:03.627Z</time>
</trkpt>
<trkpt lat="-27.0390179" lon="152.8593766">
<ele>75.259</ele>
<time>2017-09-17T03:25:06.467Z</time>
</trkpt>
<trkpt lat="-27.0392112" lon="152.8594874">
<ele>75.415</ele>
<time>2017-09-17T03:25:08.348Z</time>
</trkpt>
<trkpt lat="-27.0394232" lon="152.8596728">
<ele>75.614</ele>
<time>2017-09-17T03:25:10.757Z</time>
</trkpt>
<trkpt lat="-27.0395351" lon="152.8597771">
<ele>75.775</ele>
<time>2017-09-17T03:25:12.178Z</time>
</trkpt>
<trkpt lat="-27.0396289" lon="152.8598500">
<ele>75.804</ele>
<time>2017-09-17T03:25:13.311Z</time>
</trkpt>
<trkpt lat="-27.0397285" lon="152.8599652">
<ele>75.661</ele>
<time>2017-09-17T03:25:14.864Z</time>
</trkpt>
<trkpt lat="-27.0398423" lon="152.8601997">
<ele>75.414</ele>
<time>2017-09-17T03:25:17.976Z</time>
</trkpt>
<trkpt lat="-27.0399689" lon="152.8603784">
<ele>75.253</ele>
<time>2017-09-17T03:25:21.389Z</time>
</trkpt>
<trkpt lat="-27.0400423" lon="152.8604853">
<ele>75.270</ele>
<time>2017-09-17T03:25:23.265Z</time>
</trkpt>
<trkpt lat="-27.0401874" lon="152.8604772">
<ele>75.285</ele>
<time>2017-09-17T03:25:25.274Z</time>
</trkpt>
<trkpt lat="-27.0404131" lon="152.8604293">
<ele>75.144</ele>
<time>2017-09-17T03:25:28.375Z</time>
</trkpt>
<trkpt lat="-27.0404874" lon="152.8605798">
<ele>74.973</ele>
<time>2017-09-17T03:25:30.556Z</time>
</trkpt>
<trkpt lat="-27.0406656" lon="152.8608257">
<ele>74.980</ele>
<time>2017-09-17T03:25:34.479Z</time>
</trkpt>
<trkpt lat="-27.0409145" lon="152.8610332">
<ele>75.392</ele>
<time>2017-09-17T03:25:38.149Z</time>
</trkpt>
<trkpt lat="-27.0411149" lon="152.8611302">
<ele>76.470</ele>
<time>2017-09-17T03:25:40.347Z</time>
</trkpt>
<trkpt lat="-27.0413572" lon="152.8611347">
<ele>78.151</ele>
<time>2017-09-17T03:25:42.698Z</time>
</trkpt>
<trkpt lat="-27.0417196" lon="152.8611585">
<ele>80.071</ele>
<time>2017-09-17T03:25:45.894Z</time>
</trkpt>
<trkpt lat="-27.0420996" lon="152.8612187">
<ele>82.081</ele>
<time>2017-09-17T03:25:49.054Z</time>
</trkpt>
<trkpt lat="-27.0423152" lon="152.8612412">
<ele>84.188</ele>
<time>2017-09-17T03:25:50.786Z</time>
</trkpt>
<trkpt lat="-27.0425003" lon="152.8612950">
<ele>86.042</ele>
<time>2017-09-17T03:25:52.341Z</time>
</trkpt>
<trkpt lat="-27.0426949" lon="152.8613808">
<ele>87.162</ele>
<time>2017-09-17T03:25:54.183Z</time>
</trkpt>
<trkpt lat="-27.0430198" lon="152.8617160">
<ele>87.450</ele>
<time>2017-09-17T03:25:58.320Z</time>
</trkpt>
<trkpt lat="-27.0433175" lon="152.8620295">
<ele>86.998</ele>
<time>2017-09-17T03:26:01.650Z</time>
</trkpt>
<trkpt lat="-27.0435123" lon="152.8622610">
<ele>85.782</ele>
<time>2017-09-17T03:26:03.787Z</time>
</trkpt>
<trkpt lat="-27.0437332" lon="152.8625939">
<ele>83.956</ele>
<time>2017-09-17T03:26:06.556Z</time>
</trkpt>
<trkpt lat="-27.0439202" lon="152.8628530">
<ele>81.933</ele>
<time>2017-09-17T03:26:08.780Z</time>
</trkpt>
<trkpt lat="-27.0441104" lon="152.8631116">
<ele>80.158</ele>
<time>2017-09-17T03:26:10.896Z</time>
</trkpt>
<trkpt lat="-27.0442486" lon="152.8633853">
<ele>78.914</ele>
<time>2017-09-17T03:26:12.804Z</time>
</trkpt>
<trkpt lat="-27.0444665" lon="152.8637600">
<ele>78.124</ele>
<time>2017-09-17T03:26:15.612Z</time>
</trkpt>
<trkpt lat="-27.0446387" lon="152.8639920">
<ele>77.467</ele>
<time>2017-09-17T03:26:17.569Z</time>
</trkpt>
<trkpt lat="-27.0448573" lon="152.8643594">
<ele>76.858</ele>
<time>2017-09-17T03:26:20.516Z</time>
</trkpt>
<trkpt lat="-27.0450401" lon="152.8647664">
<ele>76.382</ele>
<time>2017-09-17T03:26:23.556Z</time>
</trkpt>
<trkpt lat="-27.0452943" lon="152.8651437">
<ele>75.976</ele>
<time>2017-09-17T03:26:26.662Z</time>
</trkpt>
<trkpt lat="-27.0455177" lon="152.8653395">
<ele>75.539</ele>
<time>2017-09-17T03:26:28.716Z</time>
</trkpt>
<trkpt lat="-27.0458268" lon="152.8656573">
<ele>75.106</ele>
<time>2017-09-17T03:26:31.717Z</time>
</trkpt>
<trkpt lat="-27.0460717" lon="152.8659743">
<ele>74.641</ele>
<time>2017-09-17T03:26:34.472Z</time>
</trkpt>
<trkpt lat="-27.0462571" lon="152.8661450">
<ele>74.130</ele>
<time>2017-09-17T03:26:36.304Z</time>
</trkpt>
<trkpt lat="-27.0465469" lon="152.8664182">
<ele>73.725</ele>
<time>2017-09-17T03:26:39.351Z</time>
</trkpt>
<trkpt lat="-27.0467449" lon="152.8666257">
<ele>73.601</ele>
<time>2017-09-17T03:26:41.499Z</time>
</trkpt>
<trkpt lat="-27.0470372" lon="152.8669623">
<ele>73.730</ele>
<time>2017-09-17T03:26:44.631Z</time>
</trkpt>
<trkpt lat="-27.0473562" lon="152.8672716">
<ele>73.792</ele>
<time>2017-09-17T03:26:47.663Z</time>
</trkpt>
<trkpt lat="-27.0475892" lon="152.8674846">
<ele>73.451</ele>
<time>2017-09-17T03:26:49.770Z</time>
</trkpt>
<trkpt lat="-27.0478909" lon="152.8678411">
<ele>72.794</ele>
<time>2017-09-17T03:26:52.761Z</time>
</trkpt>
<trkpt lat="-27.0481760" lon="152.8681977">
<ele>72.135</ele>
<time>2017-09-17T03:26:55.689Z</time>
</trkpt>
<trkpt lat="-27.0483593" lon="152.8684809">
<ele>71.592</ele>
<time>2017-09-17T03:26:57.818Z</time>
</trkpt>
<trkpt lat="-27.0485123" lon="152.8688111">
<ele>71.135</ele>
<time>2017-09-17T03:26:59.971Z</time>
</trkpt>
<trkpt lat="-27.0488033" lon="152.8692647">
<ele>70.692</ele>
<time>2017-09-17T03:27:03.023Z</time>
</trkpt>
<trkpt lat="-27.0490019" lon="152.8695564">
<ele>70.203</ele>
<time>2017-09-17T03:27:05.005Z</time>
</trkpt>
<trkpt lat="-27.0492396" lon="152.8697784">
<ele>69.742</ele>
<time>2017-09-17T03:27:06.902Z</time>
</trkpt>
<trkpt lat="-27.0496341" lon="152.8699787">
<ele>69.337</ele>
<time>2017-09-17T03:27:09.688Z</time>
</trkpt>
<trkpt lat="-27.0498882" lon="152.8701392">
<ele>68.839</ele>
<time>2017-09-17T03:27:11.623Z</time>
</trkpt>
<trkpt lat="-27.0503006" lon="152.8703668">
<ele>68.237</ele>
<time>2017-09-17T03:27:14.681Z</time>
</trkpt>
<trkpt lat="-27.0506043" lon="152.8704600">
<ele>67.747</ele>
<time>2017-09-17T03:27:16.732Z</time>
</trkpt>
<trkpt lat="-27.0509415" lon="152.8705103">
<ele>67.554</ele>
<time>2017-09-17T03:27:18.881Z</time>
</trkpt>
<trkpt lat="-27.0514653" lon="152.8705182">
<ele>67.630</ele>
<time>2017-09-17T03:27:22.041Z</time>
</trkpt>
<trkpt lat="-27.0520035" lon="152.8706061">
<ele>67.634</ele>
<time>2017-09-17T03:27:25.153Z</time>
</trkpt>
<trkpt lat="-27.0523835" lon="152.8706746">
<ele>67.011</ele>
<time>2017-09-17T03:27:27.254Z</time>
</trkpt>
<trkpt lat="-27.0527706" lon="152.8706936">
<ele>65.466</ele>
<time>2017-09-17T03:27:29.287Z</time>
</trkpt>
<trkpt lat="-27.0533546" lon="152.8707512">
<ele>63.269</ele>
<time>2017-09-17T03:27:32.302Z</time>
</trkpt>
<trkpt lat="-27.0537332" lon="152.8708131">
<ele>60.684</ele>
<time>2017-09-17T03:27:34.262Z</time>
</trkpt>
<trkpt lat="-27.0540878" lon="152.8708721">
<ele>57.868</ele>
<time>2017-09-17T03:27:36.139Z</time>
</trkpt>
<trkpt lat="-27.0544421" lon="152.8709371">
<ele>55.441</ele>
<time>2017-09-17T03:27:38.090Z</time>
</trkpt>
<trkpt lat="-27.0549418" lon="152.8710223">
<ele>54.059</ele>
<time>2017-09-17T03:27:40.970Z</time>
</trkpt>
<trkpt lat="-27.0554424" lon="152.8711289">
<ele>53.689</ele>
<time>2017-09-17T03:27:43.967Z</time>
</trkpt>
<trkpt lat="-27.0558105" lon="152.8711589">
<ele>53.859</ele>
<time>2017-09-17T03:27:46.115Z</time>
</trkpt>
<trkpt lat="-27.0563844" lon="152.8712146">
<ele>53.994</ele>
<time>2017-09-17T03:27:49.299Z</time>
</trkpt>
<trkpt lat="-27.0569144" lon="152.8713338">
<ele>53.501</ele>
<time>2017-09-17T03:27:52.234Z</time>
</trkpt>
<trkpt lat="-27.0572715" lon="152.8713889">
<ele>52.053</ele>
<time>2017-09-17T03:27:54.204Z</time>
</trkpt>
<trkpt lat="-27.0576285" lon="152.8714029">
<ele>50.003</ele>
<time>2017-09-17T03:27:56.174Z</time>
</trkpt>
<trkpt lat="-27.0581518" lon="152.8714667">
<ele>48.106</ele>
<time>2017-09-17T03:27:59.109Z</time>
</trkpt>
<trkpt lat="-27.0585108" lon="152.8714722">
<ele>46.750</ele>
<time>2017-09-17T03:28:01.131Z</time>
</trkpt>
<trkpt lat="-27.0588601" lon="152.8715217">
<ele>45.849</ele>
<time>2017-09-17T03:28:03.121Z</time>
</trkpt>
<trkpt lat="-27.0594068" lon="152.8716132">
<ele>45.242</ele>
<time>2017-09-17T03:28:06.201Z</time>
</trkpt>
<trkpt lat="-27.0597829" lon="152.8716824">
<ele>44.830</ele>
<time>2017-09-17T03:28:08.267Z</time>
</trkpt>
<trkpt lat="-27.0601615" lon="152.8717338">
<ele>44.508</ele>
<time>2017-09-17T03:28:10.280Z</time>
</trkpt>
<trkpt lat="-27.0607496" lon="152.8716038">
<ele>44.141</ele>
<time>2017-09-17T03:28:13.384Z</time>
</trkpt>
<trkpt lat="-27.0611420" lon="152.8715018">
<ele>43.579</ele>
<time>2017-09-17T03:28:15.431Z</time>
</trkpt>
<trkpt lat="-27.0615284" lon="152.8713295">
<ele>42.875</ele>
<time>2017-09-17T03:28:17.492Z</time>
</trkpt>
<trkpt lat="-27.0620512" lon="152.8709555">
<ele>42.306</ele>
<time>2017-09-17T03:28:20.519Z</time>
</trkpt>
<trkpt lat="-27.0624618" lon="152.8705079">
<ele>42.033</ele>
<time>2017-09-17T03:28:23.401Z</time>
</trkpt>
<trkpt lat="-27.0627371" lon="152.8702200">
<ele>41.958</ele>
<time>2017-09-17T03:28:25.350Z</time>
</trkpt>
<trkpt lat="-27.0630853" lon="152.8700196">
<ele>41.929</ele>
<time>2017-09-17T03:28:27.395Z</time>
</trkpt>
<trkpt lat="-27.0634913" lon="152.8699176">
<ele>41.871</ele>
<time>2017-09-17T03:28:29.520Z</time>
</trkpt>
<trkpt lat="-27.0640936" lon="152.8698461">
<ele>41.868</ele>
<time>2017-09-17T03:28:32.530Z</time>
</trkpt>
<trkpt lat="-27.0644880" lon="152.8697952">
<ele>42.096</ele>
<time>2017-09-17T03:28:34.503Z</time>
</trkpt>
<trkpt lat="-27.0650997" lon="152.8696568">
<ele>42.667</ele>
<time>2017-09-17T03:28:37.566Z</time>
</trkpt>
<trkpt lat="-27.0654952" lon="152.8695656">
<ele>43.748</ele>
<time>2017-09-17T03:28:39.535Z</time>
</trkpt>
<trkpt lat="-27.0660630" lon="152.8694807">
<ele>45.428</ele>
<time>2017-09-17T03:28:42.403Z</time>
</trkpt>
<trkpt lat="-27.0666136" lon="152.8695701">
<ele>47.709</ele>
<time>2017-09-17T03:28:45.291Z</time>
</trkpt>
<trkpt lat="-27.0671752" lon="152.8698308">
<ele>50.699</ele>
<time>2017-09-17T03:28:48.452Z</time>
</trkpt>
<trkpt lat="-27.0675298" lon="152.8699849">
<ele>54.214</ele>
<time>2017-09-17T03:28:50.408Z</time>
</trkpt>
<trkpt lat="-27.0680622" lon="152.8702355">
<ele>57.285</ele>
<time>2017-09-17T03:28:53.383Z</time>
</trkpt>
<trkpt lat="-27.0686460" lon="152.8704178">
<ele>58.812</ele>
<time>2017-09-17T03:28:56.459Z</time>
</trkpt>
<trkpt lat="-27.0692391" lon="152.8706568">
<ele>58.383</ele>
<time>2017-09-17T03:28:59.529Z</time>
</trkpt>
<trkpt lat="-27.0696754" lon="152.8707998">
<ele>56.378</ele>
<time>2017-09-17T03:29:01.658Z</time>
</trkpt>
<trkpt lat="-27.0701155" lon="152.8709145">
<ele>53.748</ele>
<time>2017-09-17T03:29:03.706Z</time>
</trkpt>
<trkpt lat="-27.0708133" lon="152.8709648">
<ele>51.662</ele>
<time>2017-09-17T03:29:06.767Z</time>
</trkpt>
<trkpt lat="-27.0715127" lon="152.8710688">
<ele>50.744</ele>
<time>2017-09-17T03:29:09.788Z</time>
</trkpt>
<trkpt lat="-27.0719585" lon="152.8710624">
<ele>51.159</ele>
<time>2017-09-17T03:29:11.719Z</time>
</trkpt>
<trkpt lat="-27.0723896" lon="152.8710571">
<ele>52.881</ele>
<time>2017-09-17T03:29:13.648Z</time>
</trkpt>
<trkpt lat="-27.0727880" lon="152.8710823">
<ele>55.404</ele>
<time>2017-09-17T03:29:15.512Z</time>
</trkpt>
<trkpt lat="-27.0731810" lon="152.8711487">
<ele>57.924</ele>
<time>2017-09-17T03:29:17.437Z</time>
</trkpt>
<trkpt lat="-27.0737471" lon="152.8714644">
<ele>59.787</ele>
<time>2017-09-17T03:29:20.486Z</time>
</trkpt>
<trkpt lat="-27.0741199" lon="152.8717312">
<ele>60.687</ele>
<time>2017-09-17T03:29:22.541Z</time>
</trkpt>
<trkpt lat="-27.0746903" lon="152.8721274">
<ele>60.555</ele>
<time>2017-09-17T03:29:25.558Z</time>
</trkpt>
<trkpt lat="-27.0750905" lon="152.8723151">
<ele>59.051</ele>
<time>2017-09-17T03:29:27.503Z</time>
</trkpt>
<trkpt lat="-27.0755450" lon="152.8723805">
<ele>56.246</ele>
<time>2017-09-17T03:29:29.552Z</time>
</trkpt>
<trkpt lat="-27.0762691" lon="152.8724387">
<ele>53.161</ele>
<time>2017-09-17T03:29:32.721Z</time>
</trkpt>
<trkpt lat="-27.0767401" lon="152.8723406">
<ele>50.713</ele>
<time>2017-09-17T03:29:34.759Z</time>
</trkpt>
<trkpt lat="-27.0774142" lon="152.8721091">
<ele>49.196</ele>
<time>2017-09-17T03:29:37.752Z</time>
</trkpt>
<trkpt lat="-27.0778294" lon="152.8719288">
<ele>48.743</ele>
<time>2017-09-17T03:29:39.679Z</time>
</trkpt>
<trkpt lat="-27.0782386" lon="152.8717975">
<ele>49.318</ele>
<time>2017-09-17T03:29:41.580Z</time>
</trkpt>
<trkpt lat="-27.0786337" lon="152.8716654">
<ele>50.662</ele>
<time>2017-09-17T03:29:43.482Z</time>
</trkpt>
<trkpt lat="-27.0791871" lon="152.8714571">
<ele>52.486</ele>
<time>2017-09-17T03:29:46.316Z</time>
</trkpt>
<trkpt lat="-27.0797077" lon="152.8712809">
<ele>54.722</ele>
<time>2017-09-17T03:29:49.125Z</time>
</trkpt>
<trkpt lat="-27.0800665" lon="152.8712203">
<ele>57.315</ele>
<time>2017-09-17T03:29:51.074Z</time>
</trkpt>
<trkpt lat="-27.0804144" lon="152.8710947">
<ele>59.857</ele>
<time>2017-09-17T03:29:53.078Z</time>
</trkpt>
<trkpt lat="-27.0809395" lon="152.8708654">
<ele>61.857</ele>
<time>2017-09-17T03:29:56.126Z</time>
</trkpt>
<trkpt lat="-27.0815104" lon="152.8706954">
<ele>63.303</ele>
<time>2017-09-17T03:29:59.214Z</time>
</trkpt>
<trkpt lat="-27.0818933" lon="152.8705734">
<ele>64.618</ele>
<time>2017-09-17T03:30:01.241Z</time>
</trkpt>
<trkpt lat="-27.0824475" lon="152.8703358">
<ele>66.082</ele>
<time>2017-09-17T03:30:04.224Z</time>
</trkpt>
<trkpt lat="-27.0828147" lon="152.8702156">
<ele>67.779</ele>
<time>2017-09-17T03:30:06.160Z</time>
</trkpt>
<trkpt lat="-27.0833617" lon="152.8700667">
<ele>69.720</ele>
<time>2017-09-17T03:30:09.077Z</time>
</trkpt>
<trkpt lat="-27.0837045" lon="152.8699347">
<ele>71.615</ele>
<time>2017-09-17T03:30:11.001Z</time>
</trkpt>
<trkpt lat="-27.0839877" lon="152.8696779">
<ele>72.966</ele>
<time>2017-09-17T03:30:12.978Z</time>
</trkpt>
<trkpt lat="-27.0843583" lon="152.8691880">
<ele>73.519</ele>
<time>2017-09-17T03:30:16.069Z</time>
</trkpt>
<trkpt lat="-27.0845770" lon="152.8688139">
<ele>73.349</ele>
<time>2017-09-17T03:30:18.163Z</time>
</trkpt>
<trkpt lat="-27.0848452" lon="152.8684793">
<ele>72.833</ele>
<time>2017-09-17T03:30:20.214Z</time>
</trkpt>
<trkpt lat="-27.0852065" lon="152.8679956">
<ele>72.443</ele>
<time>2017-09-17T03:30:23.104Z</time>
</trkpt>
<trkpt lat="-27.0855448" lon="152.8675366">
<ele>72.592</ele>
<time>2017-09-17T03:30:25.952Z</time>
</trkpt>
<trkpt lat="-27.0857647" lon="152.8672141">
<ele>73.262</ele>
<time>2017-09-17T03:30:27.955Z</time>
</trkpt>
<trkpt lat="-27.0861191" lon="152.8667275">
<ele>73.948</ele>
<time>2017-09-17T03:30:31.042Z</time>
</trkpt>
<trkpt lat="-27.0864187" lon="152.8662307">
<ele>74.026</ele>
<time>2017-09-17T03:30:33.991Z</time>
</trkpt>
<trkpt lat="-27.0867898" lon="152.8658451">
<ele>72.826</ele>
<time>2017-09-17T03:30:37.018Z</time>
</trkpt>
<trkpt lat="-27.0871490" lon="152.8658212">
<ele>69.417</ele>
<time>2017-09-17T03:30:39.312Z</time>
</trkpt>
<trkpt lat="-27.0876578" lon="152.8657131">
<ele>64.038</ele>
<time>2017-09-17T03:30:42.362Z</time>
</trkpt>
<trkpt lat="-27.0882084" lon="152.8656257">
<ele>58.816</ele>
<time>2017-09-17T03:30:45.381Z</time>
</trkpt>
<trkpt lat="-27.0887098" lon="152.8652330">
<ele>55.536</ele>
<time>2017-09-17T03:30:48.520Z</time>
</trkpt>
<trkpt lat="-27.0890098" lon="152.8648848">
<ele>54.156</ele>
<time>2017-09-17T03:30:50.595Z</time>
</trkpt>
<trkpt lat="-27.0892798" lon="152.8645331">
<ele>54.200</ele>
<time>2017-09-17T03:30:52.543Z</time>
</trkpt>
<trkpt lat="-27.0895388" lon="152.8641874">
<ele>55.420</ele>
<time>2017-09-17T03:30:54.477Z</time>
</trkpt>
<trkpt lat="-27.0898833" lon="152.8637017">
<ele>57.374</ele>
<time>2017-09-17T03:30:57.305Z</time>
</trkpt>
<trkpt lat="-27.0902093" lon="152.8632760">
<ele>59.616</ele>
<time>2017-09-17T03:31:00.092Z</time>
</trkpt>
<trkpt lat="-27.0904242" lon="152.8630239">
<ele>61.937</ele>
<time>2017-09-17T03:31:01.940Z</time>
</trkpt>
<trkpt lat="-27.0907620" lon="152.8627543">
<ele>64.019</ele>
<time>2017-09-17T03:31:04.624Z</time>
</trkpt>
<trkpt lat="-27.0910794" lon="152.8626818">
<ele>65.628</ele>
<time>2017-09-17T03:31:06.791Z</time>
</trkpt>
<trkpt lat="-27.0916243" lon="152.8626916">
<ele>66.832</ele>
<time>2017-09-17T03:31:10.243Z</time>
</trkpt>
<trkpt lat="-27.0919808" lon="152.8627041">
<ele>67.634</ele>
<time>2017-09-17T03:31:12.379Z</time>
</trkpt>
<trkpt lat="-27.0923240" lon="152.8626104">
<ele>67.910</ele>
<time>2017-09-17T03:31:14.477Z</time>
</trkpt>
<trkpt lat="-27.0928237" lon="152.8623976">
<ele>67.587</ele>
<time>2017-09-17T03:31:17.612Z</time>
</trkpt>
<trkpt lat="-27.0932526" lon="152.8619303">
<ele>66.342</ele>
<time>2017-09-17T03:31:20.843Z</time>
</trkpt>
<trkpt lat="-27.0934910" lon="152.8615785">
<ele>63.870</ele>
<time>2017-09-17T03:31:22.831Z</time>
</trkpt>
<trkpt lat="-27.0937903" lon="152.8610599">
<ele>60.851</ele>
<time>2017-09-17T03:31:25.689Z</time>
</trkpt>
<trkpt lat="-27.0940070" lon="152.8607337">
<ele>58.609</ele>
<time>2017-09-17T03:31:27.644Z</time>
</trkpt>
<trkpt lat="-27.0942731" lon="152.8604735">
<ele>57.721</ele>
<time>2017-09-17T03:31:29.592Z</time>
</trkpt>
<trkpt lat="-27.0947560" lon="152.8602056">
<ele>57.892</ele>
<time>2017-09-17T03:31:32.608Z</time>
</trkpt>
<trkpt lat="-27.0952480" lon="152.8600079">
<ele>58.841</ele>
<time>2017-09-17T03:31:35.606Z</time>
</trkpt>
<trkpt lat="-27.0955403" lon="152.8599240">
<ele>60.628</ele>
<time>2017-09-17T03:31:37.421Z</time>
</trkpt>
<trkpt lat="-27.0958006" lon="152.8599424">
<ele>63.084</ele>
<time>2017-09-17T03:31:39.122Z</time>
</trkpt>
<trkpt lat="-27.0960822" lon="152.8600365">
<ele>65.528</ele>
<time>2017-09-17T03:31:41.141Z</time>
</trkpt>
<trkpt lat="-27.0964042" lon="152.8602249">
<ele>67.291</ele>
<time>2017-09-17T03:31:43.499Z</time>
</trkpt>
<trkpt lat="-27.0968543" lon="152.8606177">
<ele>68.152</ele>
<time>2017-09-17T03:31:46.738Z</time>
</trkpt>
<trkpt lat="-27.0973253" lon="152.8610060">
<ele>68.071</ele>
<time>2017-09-17T03:31:49.832Z</time>
</trkpt>
<trkpt lat="-27.0977618" lon="152.8614038">
<ele>66.946</ele>
<time>2017-09-17T03:31:52.820Z</time>
</trkpt>
<trkpt lat="-27.0981683" lon="152.8617807">
<ele>64.896</ele>
<time>2017-09-17T03:31:55.760Z</time>
</trkpt>
<trkpt lat="-27.0986492" lon="152.8619361">
<ele>62.457</ele>
<time>2017-09-17T03:31:58.704Z</time>
</trkpt>
<trkpt lat="-27.0990223" lon="152.8619296">
<ele>60.146</ele>
<time>2017-09-17T03:32:00.832Z</time>
</trkpt>
<trkpt lat="-27.0995972" lon="152.8617940">
<ele>58.337</ele>
<time>2017-09-17T03:32:03.960Z</time>
</trkpt>
<trkpt lat="-27.1001489" lon="152.8616520">
<ele>57.298</ele>
<time>2017-09-17T03:32:06.945Z</time>
</trkpt>
<trkpt lat="-27.1006418" lon="152.8616083">
<ele>57.035</ele>
<time>2017-09-17T03:32:09.731Z</time>
</trkpt>
<trkpt lat="-27.1009262" lon="152.8615604">
<ele>57.445</ele>
<time>2017-09-17T03:32:11.479Z</time>
</trkpt>
<trkpt lat="-27.1012738" lon="152.8615305">
<ele>58.528</ele>
<time>2017-09-17T03:32:13.592Z</time>
</trkpt>
<trkpt lat="-27.1018008" lon="152.8615682">
<ele>60.238</ele>
<time>2017-09-17T03:32:16.656Z</time>
</trkpt>
<trkpt lat="-27.1021250" lon="152.8615215">
<ele>62.465</ele>
<time>2017-09-17T03:32:18.585Z</time>
</trkpt>
<trkpt lat="-27.1024589" lon="152.8614886">
<ele>64.859</ele>
<time>2017-09-17T03:32:20.622Z</time>
</trkpt>
<trkpt lat="-27.1029236" lon="152.8618660">
<ele>66.863</ele>
<time>2017-09-17T03:32:23.885Z</time>
</trkpt>
<trkpt lat="-27.1032354" lon="152.8621972">
<ele>68.400</ele>
<time>2017-09-17T03:32:26.121Z</time>
</trkpt>
<trkpt lat="-27.1035689" lon="152.8624501">
<ele>69.807</ele>
<time>2017-09-17T03:32:28.174Z</time>
</trkpt>
<trkpt lat="-27.1039078" lon="152.8626671">
<ele>71.208</ele>
<time>2017-09-17T03:32:30.144Z</time>
</trkpt>
<trkpt lat="-27.1042561" lon="152.8628791">
<ele>72.554</ele>
<time>2017-09-17T03:32:32.155Z</time>
</trkpt>
<trkpt lat="-27.1047644" lon="152.8631756">
<ele>73.701</ele>
<time>2017-09-17T03:32:35.125Z</time>
</trkpt>
<trkpt lat="-27.1052168" lon="152.8634427">
<ele>74.392</ele>
<time>2017-09-17T03:32:37.938Z</time>
</trkpt>
<trkpt lat="-27.1057224" lon="152.8634973">
<ele>74.554</ele>
<time>2017-09-17T03:32:40.858Z</time>
</trkpt>
<trkpt lat="-27.1060998" lon="152.8634657">
<ele>74.390</ele>
<time>2017-09-17T03:32:42.964Z</time>
</trkpt>
<trkpt lat="-27.1064863" lon="152.8634571">
<ele>74.173</ele>
<time>2017-09-17T03:32:45.014Z</time>
</trkpt>
<trkpt lat="-27.1070274" lon="152.8634346">
<ele>74.018</ele>
<time>2017-09-17T03:32:47.884Z</time>
</trkpt>
<trkpt lat="-27.1073967" lon="152.8633596">
<ele>73.738</ele>
<time>2017-09-17T03:32:49.886Z</time>
</trkpt>
<trkpt lat="-27.1080350" lon="152.8633190">
<ele>72.996</ele>
<time>2017-09-17T03:32:53.091Z</time>
</trkpt>
<trkpt lat="-27.1084759" lon="152.8633013">
<ele>71.463</ele>
<time>2017-09-17T03:32:55.143Z</time>
</trkpt>
<trkpt lat="-27.1089029" lon="152.8632528">
<ele>69.181</ele>
<time>2017-09-17T03:32:57.116Z</time>
</trkpt>
<trkpt lat="-27.1095295" lon="152.8632039">
<ele>66.712</ele>
<time>2017-09-17T03:33:00.064Z</time>
</trkpt>
<trkpt lat="-27.1101417" lon="152.8631426">
<ele>64.351</ele>
<time>2017-09-17T03:33:03.035Z</time>
</trkpt>
<trkpt lat="-27.1107354" lon="152.8630796">
<ele>61.787</ele>
<time>2017-09-17T03:33:06.011Z</time>
</trkpt>
<trkpt lat="-27.1112939" lon="152.8629296">
<ele>58.899</ele>
<time>2017-09-17T03:33:08.966Z</time>
</trkpt>
<trkpt lat="-27.1116177" lon="152.8626751">
<ele>56.015</ele>
<time>2017-09-17T03:33:11.005Z</time>
</trkpt>
<trkpt lat="-27.1120333" lon="152.8622080">
<ele>53.617</ele>
<time>2017-09-17T03:33:14.014Z</time>
</trkpt>
<trkpt lat="-27.1124073" lon="152.8617315">
<ele>51.994</ele>
<time>2017-09-17T03:33:16.959Z</time>
</trkpt>
<trkpt lat="-27.1127768" lon="152.8612578">
<ele>50.979</ele>
<time>2017-09-17T03:33:19.943Z</time>
</trkpt>
<trkpt lat="-27.1131004" lon="152.8610267">
<ele>50.327</ele>
<time>2017-09-17T03:33:21.994Z</time>
</trkpt>
<trkpt lat="-27.1136304" lon="152.8607936">
<ele>49.952</ele>
<time>2017-09-17T03:33:25.024Z</time>
</trkpt>
<trkpt lat="-27.1139688" lon="152.8605961">
<ele>49.688</ele>
<time>2017-09-17T03:33:27.039Z</time>
</trkpt>
<trkpt lat="-27.1144536" lon="152.8603098">
<ele>49.243</ele>
<time>2017-09-17T03:33:29.965Z</time>
</trkpt>
<trkpt lat="-27.1149051" lon="152.8600695">
<ele>48.315</ele>
<time>2017-09-17T03:33:32.803Z</time>
</trkpt>
<trkpt lat="-27.1150912" lon="152.8597644">
<ele>46.765</ele>
<time>2017-09-17T03:33:34.779Z</time>
</trkpt>
<trkpt lat="-27.1153372" lon="152.8592955">
<ele>44.873</ele>
<time>2017-09-17T03:33:37.775Z</time>
</trkpt>
<trkpt lat="-27.1155958" lon="152.8590546">
<ele>43.166</ele>
<time>2017-09-17T03:33:39.892Z</time>
</trkpt>
<trkpt lat="-27.1158420" lon="152.8588624">
<ele>42.027</ele>
<time>2017-09-17T03:33:41.839Z</time>
</trkpt>
<trkpt lat="-27.1162993" lon="152.8588081">
<ele>41.529</ele>
<time>2017-09-17T03:33:44.823Z</time>
</trkpt>
<trkpt lat="-27.1166493" lon="152.8587418">
<ele>41.505</ele>
<time>2017-09-17T03:33:46.954Z</time>
</trkpt>
<trkpt lat="-27.1170015" lon="152.8586263">
<ele>41.705</ele>
<time>2017-09-17T03:33:49.006Z</time>
</trkpt>
<trkpt lat="-27.1174767" lon="152.8583233">
<ele>42.001</ele>
<time>2017-09-17T03:33:51.985Z</time>
</trkpt>
<trkpt lat="-27.1179883" lon="152.8581033">
<ele>42.487</ele>
<time>2017-09-17T03:33:54.972Z</time>
</trkpt>
<trkpt lat="-27.1185705" lon="152.8581337">
<ele>43.401</ele>
<time>2017-09-17T03:33:58.085Z</time>
</trkpt>
<trkpt lat="-27.1191222" lon="152.8581605">
<ele>44.943</ele>
<time>2017-09-17T03:34:01.082Z</time>
</trkpt>
<trkpt lat="-27.1194535" lon="152.8581629">
<ele>47.162</ele>
<time>2017-09-17T03:34:03.010Z</time>
</trkpt>
<trkpt lat="-27.1199464" lon="152.8581599">
<ele>49.802</ele>
<time>2017-09-17T03:34:05.974Z</time>
</trkpt>
<trkpt lat="-27.1204469" lon="152.8580515">
<ele>52.105</ele>
<time>2017-09-17T03:34:09.019Z</time>
</trkpt>
<trkpt lat="-27.1209210" lon="152.8579579">
<ele>53.243</ele>
<time>2017-09-17T03:34:11.913Z</time>
</trkpt>
<trkpt lat="-27.1211536" lon="152.8579165">
<ele>52.873</ele>
<time>2017-09-17T03:34:13.489Z</time>
</trkpt>
<trkpt lat="-27.1213007" lon="152.8578802">
<ele>51.166</ele>
<time>2017-09-17T03:34:14.673Z</time>
</trkpt>
<trkpt lat="-27.1215747" lon="152.8580461">
<ele>48.584</ele>
<time>2017-09-17T03:34:17.939Z</time>
</trkpt>
<trkpt lat="-27.1216364" lon="152.8582196">
<ele>45.516</ele>
<time>2017-09-17T03:34:19.863Z</time>
</trkpt>
<trkpt lat="-27.1217197" lon="152.8584503">
<ele>42.296</ele>
<time>2017-09-17T03:34:22.212Z</time>
</trkpt>
<trkpt lat="-27.1217611" lon="152.8586581">
<ele>39.366</ele>
<time>2017-09-17T03:34:24.132Z</time>
</trkpt>
<trkpt lat="-27.1218153" lon="152.8588077">
<ele>36.974</ele>
<time>2017-09-17T03:34:25.670Z</time>
</trkpt>
<trkpt lat="-27.1219300" lon="152.8590483">
<ele>35.073</ele>
<time>2017-09-17T03:34:28.646Z</time>
</trkpt>
<trkpt lat="-27.1218682" lon="152.8594004">
<ele>33.607</ele>
<time>2017-09-17T03:34:32.749Z</time>
</trkpt>
<trkpt lat="-27.1217148" lon="152.8598641">
<ele>32.628</ele>
<time>2017-09-17T03:34:36.682Z</time>
</trkpt>
<trkpt lat="-27.1218408" lon="152.8601945">
<ele>32.462</ele>
<time>2017-09-17T03:34:39.350Z</time>
</trkpt>
<trkpt lat="-27.1220507" lon="152.8603300">
<ele>33.387</ele>
<time>2017-09-17T03:34:41.730Z</time>
</trkpt>
<trkpt lat="-27.1224211" lon="152.8602798">
<ele>35.126</ele>
<time>2017-09-17T03:34:45.426Z</time>
</trkpt>
<trkpt lat="-27.1226750" lon="152.8602387">
<ele>37.267</ele>
<time>2017-09-17T03:34:48.188Z</time>
</trkpt>
<trkpt lat="-27.1228052" lon="152.8601868">
<ele>39.614</ele>
<time>2017-09-17T03:34:50.119Z</time>
</trkpt>
<trkpt lat="-27.1229422" lon="152.8601780">
<ele>41.740</ele>
<time>2017-09-17T03:34:52.374Z</time>
</trkpt>
<trkpt lat="-27.1230913" lon="152.8601410">
<ele>43.180</ele>
<time>2017-09-17T03:34:55.272Z</time>
</trkpt>
<trkpt lat="-27.1232457" lon="152.8601434">
<ele>44.017</ele>
<time>2017-09-17T03:34:57.746Z</time>
</trkpt>
<trkpt lat="-27.1233623" lon="152.8601096">
<ele>44.601</ele>
<time>2017-09-17T03:34:59.778Z</time>
</trkpt>
<trkpt lat="-27.1234356" lon="152.8600492">
<ele>45.050</ele>
<time>2017-09-17T03:35:01.673Z</time>
</trkpt>
<trkpt lat="-27.1235213" lon="152.8600165">
<ele>45.318</ele>
<time>2017-09-17T03:35:04.741Z</time>
</trkpt>
<trkpt lat="-27.1236557" lon="152.8600149">
<ele>45.475</ele>
<time>2017-09-17T03:35:08.999Z</time>
</trkpt>
<trkpt lat="-27.1236557" lon="152.8600149">
<ele>45.624</ele>
<time>2017-09-17T03:35:13.999Z</time>
</trkpt>
<trkpt lat="-27.1236557" lon="152.8600149">
<ele>45.717</ele>
<time>2017-09-17T03:35:14.099Z</time>
</trkpt>
<trkpt lat="-27.1238672" lon="152.8604231">
<ele>45.694</ele>
<time>2017-09-17T03:35:20.014Z</time>
</trkpt>
<trkpt lat="-27.1239074" lon="152.8607724">
<ele>46.371</ele>
<time>2017-09-17T03:35:22.106Z</time>
</trkpt>
<trkpt lat="-27.1239809" lon="152.8613613">
<ele>48.681</ele>
<time>2017-09-17T03:35:25.324Z</time>
</trkpt>
<trkpt lat="-27.1240317" lon="152.8617253">
<ele>52.181</ele>
<time>2017-09-17T03:35:27.239Z</time>
</trkpt>
<trkpt lat="-27.1240917" lon="152.8622758">
<ele>55.500</ele>
<time>2017-09-17T03:35:30.120Z</time>
</trkpt>
<trkpt lat="-27.1241197" lon="152.8626509">
<ele>57.634</ele>
<time>2017-09-17T03:35:32.055Z</time>
</trkpt>
<trkpt lat="-27.1242302" lon="152.8630162">
<ele>58.097</ele>
<time>2017-09-17T03:35:33.943Z</time>
</trkpt>
<trkpt lat="-27.1243014" lon="152.8636522">
<ele>56.928</ele>
<time>2017-09-17T03:35:36.960Z</time>
</trkpt>
<trkpt lat="-27.1243670" lon="152.8640906">
<ele>54.555</ele>
<time>2017-09-17T03:35:38.952Z</time>
</trkpt>
<trkpt lat="-27.1244122" lon="152.8645418">
<ele>51.836</ele>
<time>2017-09-17T03:35:40.968Z</time>
</trkpt>
<trkpt lat="-27.1244571" lon="152.8649774">
<ele>49.673</ele>
<time>2017-09-17T03:35:42.988Z</time>
</trkpt>
<trkpt lat="-27.1245369" lon="152.8655936">
<ele>48.429</ele>
<time>2017-09-17T03:35:45.941Z</time>
</trkpt>
<trkpt lat="-27.1245806" lon="152.8661974">
<ele>47.900</ele>
<time>2017-09-17T03:35:48.877Z</time>
</trkpt>
<trkpt lat="-27.1246667" lon="152.8667928">
<ele>47.893</ele>
<time>2017-09-17T03:35:51.818Z</time>
</trkpt>
<trkpt lat="-27.1247276" lon="152.8671852">
<ele>48.641</ele>
<time>2017-09-17T03:35:53.797Z</time>
</trkpt>
<trkpt lat="-27.1247994" lon="152.8675588">
<ele>50.355</ele>
<time>2017-09-17T03:35:55.715Z</time>
</trkpt>
<trkpt lat="-27.1248524" lon="152.8679489">
<ele>52.599</ele>
<time>2017-09-17T03:35:57.659Z</time>
</trkpt>
<trkpt lat="-27.1248965" lon="152.8685661">
<ele>54.709</ele>
<time>2017-09-17T03:36:00.686Z</time>
</trkpt>
<trkpt lat="-27.1249942" lon="152.8691620">
<ele>56.256</ele>
<time>2017-09-17T03:36:03.569Z</time>
</trkpt>
<trkpt lat="-27.1250620" lon="152.8698169">
<ele>56.838</ele>
<time>2017-09-17T03:36:06.554Z</time>
</trkpt>
<trkpt lat="-27.1251483" lon="152.8702655">
<ele>56.236</ele>
<time>2017-09-17T03:36:08.537Z</time>
</trkpt>
<trkpt lat="-27.1252383" lon="152.8709546">
<ele>54.818</ele>
<time>2017-09-17T03:36:11.516Z</time>
</trkpt>
<trkpt lat="-27.1253316" lon="152.8716387">
<ele>53.274</ele>
<time>2017-09-17T03:36:14.443Z</time>
</trkpt>
<trkpt lat="-27.1253962" lon="152.8723532">
<ele>52.003</ele>
<time>2017-09-17T03:36:17.438Z</time>
</trkpt>
<trkpt lat="-27.1254868" lon="152.8728200">
<ele>51.132</ele>
<time>2017-09-17T03:36:19.412Z</time>
</trkpt>
<trkpt lat="-27.1255562" lon="152.8732958">
<ele>50.761</ele>
<time>2017-09-17T03:36:21.407Z</time>
</trkpt>
<trkpt lat="-27.1256545" lon="152.8739993">
<ele>50.933</ele>
<time>2017-09-17T03:36:24.373Z</time>
</trkpt>
<trkpt lat="-27.1257182" lon="152.8744621">
<ele>51.722</ele>
<time>2017-09-17T03:36:26.352Z</time>
</trkpt>
<trkpt lat="-27.1258107" lon="152.8749149">
<ele>53.026</ele>
<time>2017-09-17T03:36:28.341Z</time>
</trkpt>
<trkpt lat="-27.1258394" lon="152.8755975">
<ele>54.459</ele>
<time>2017-09-17T03:36:31.282Z</time>
</trkpt>
<trkpt lat="-27.1259094" lon="152.8760520">
<ele>55.607</ele>
<time>2017-09-17T03:36:33.269Z</time>
</trkpt>
<trkpt lat="-27.1260144" lon="152.8767216">
<ele>56.115</ele>
<time>2017-09-17T03:36:36.197Z</time>
</trkpt>
<trkpt lat="-27.1260805" lon="152.8774105">
<ele>55.602</ele>
<time>2017-09-17T03:36:39.144Z</time>
</trkpt>
<trkpt lat="-27.1261416" lon="152.8781384">
<ele>54.001</ele>
<time>2017-09-17T03:36:42.176Z</time>
</trkpt>
<trkpt lat="-27.1261188" lon="152.8786202">
<ele>51.832</ele>
<time>2017-09-17T03:36:44.213Z</time>
</trkpt>
<trkpt lat="-27.1261177" lon="152.8792693">
<ele>49.978</ele>
<time>2017-09-17T03:36:47.055Z</time>
</trkpt>
<trkpt lat="-27.1260929" lon="152.8797115">
<ele>49.012</ele>
<time>2017-09-17T03:36:49.046Z</time>
</trkpt>
<trkpt lat="-27.1260987" lon="152.8801811">
<ele>48.932</ele>
<time>2017-09-17T03:36:51.208Z</time>
</trkpt>
<trkpt lat="-27.1261323" lon="152.8807319">
<ele>49.318</ele>
<time>2017-09-17T03:36:53.876Z</time>
</trkpt>
<trkpt lat="-27.1261299" lon="152.8810979">
<ele>49.602</ele>
<time>2017-09-17T03:36:55.814Z</time>
</trkpt>
<trkpt lat="-27.1261801" lon="152.8815967">
<ele>49.320</ele>
<time>2017-09-17T03:36:58.725Z</time>
</trkpt>
<trkpt lat="-27.1261769" lon="152.8819979">
<ele>48.152</ele>
<time>2017-09-17T03:37:01.564Z</time>
</trkpt>
<trkpt lat="-27.1261660" lon="152.8822435">
<ele>45.957</ele>
<time>2017-09-17T03:37:03.839Z</time>
</trkpt>
<trkpt lat="-27.1263030" lon="152.8823467">
<ele>43.125</ele>
<time>2017-09-17T03:37:06.130Z</time>
</trkpt>
<trkpt lat="-27.1267491" lon="152.8822517">
<ele>40.619</ele>
<time>2017-09-17T03:37:10.955Z</time>
</trkpt>
<trkpt lat="-27.1269942" lon="152.8821895">
<ele>39.204</ele>
<time>2017-09-17T03:37:12.835Z</time>
</trkpt>
<trkpt lat="-27.1274500" lon="152.8821195">
<ele>38.939</ele>
<time>2017-09-17T03:37:15.921Z</time>
</trkpt>
<trkpt lat="-27.1279481" lon="152.8819934">
<ele>39.557</ele>
<time>2017-09-17T03:37:19.021Z</time>
</trkpt>
<trkpt lat="-27.1284640" lon="152.8818922">
<ele>40.788</ele>
<time>2017-09-17T03:37:22.009Z</time>
</trkpt>
<trkpt lat="-27.1288247" lon="152.8818501">
<ele>42.272</ele>
<time>2017-09-17T03:37:24.017Z</time>
</trkpt>
<trkpt lat="-27.1293340" lon="152.8817523">
<ele>43.679</ele>
<time>2017-09-17T03:37:26.906Z</time>
</trkpt>
<trkpt lat="-27.1296640" lon="152.8816276">
<ele>44.983</ele>
<time>2017-09-17T03:37:28.899Z</time>
</trkpt>
<trkpt lat="-27.1300663" lon="152.8812984">
<ele>46.389</ele>
<time>2017-09-17T03:37:31.775Z</time>
</trkpt>
<trkpt lat="-27.1304316" lon="152.8808775">
<ele>48.150</ele>
<time>2017-09-17T03:37:34.787Z</time>
</trkpt>
<trkpt lat="-27.1307441" lon="152.8804061">
<ele>50.450</ele>
<time>2017-09-17T03:37:37.789Z</time>
</trkpt>
<trkpt lat="-27.1310339" lon="152.8799408">
<ele>53.242</ele>
<time>2017-09-17T03:37:40.748Z</time>
</trkpt>
<trkpt lat="-27.1311861" lon="152.8796096">
<ele>56.119</ele>
<time>2017-09-17T03:37:42.689Z</time>
</trkpt>
<trkpt lat="-27.1313744" lon="152.8790342">
<ele>58.607</ele>
<time>2017-09-17T03:37:45.804Z</time>
</trkpt>
<trkpt lat="-27.1315802" lon="152.8785010">
<ele>60.724</ele>
<time>2017-09-17T03:37:48.734Z</time>
</trkpt>
<trkpt lat="-27.1317262" lon="152.8781652">
<ele>62.821</ele>
<time>2017-09-17T03:37:50.700Z</time>
</trkpt>
<trkpt lat="-27.1320131" lon="152.8777581">
<ele>64.720</ele>
<time>2017-09-17T03:37:53.551Z</time>
</trkpt>
<trkpt lat="-27.1323832" lon="152.8774176">
<ele>65.891</ele>
<time>2017-09-17T03:37:56.542Z</time>
</trkpt>
<trkpt lat="-27.1327135" lon="152.8770080">
<ele>66.175</ele>
<time>2017-09-17T03:37:59.545Z</time>
</trkpt>
<trkpt lat="-27.1329513" lon="152.8767419">
<ele>65.778</ele>
<time>2017-09-17T03:38:01.592Z</time>
</trkpt>
<trkpt lat="-27.1333255" lon="152.8764259">
<ele>65.013</ele>
<time>2017-09-17T03:38:04.485Z</time>
</trkpt>
<trkpt lat="-27.1336210" lon="152.8762404">
<ele>64.241</ele>
<time>2017-09-17T03:38:06.534Z</time>
</trkpt>
<trkpt lat="-27.1340751" lon="152.8760080">
<ele>63.772</ele>
<time>2017-09-17T03:38:09.486Z</time>
</trkpt>
<trkpt lat="-27.1345541" lon="152.8757798">
<ele>63.747</ele>
<time>2017-09-17T03:38:12.534Z</time>
</trkpt>
<trkpt lat="-27.1348495" lon="152.8755758">
<ele>64.262</ele>
<time>2017-09-17T03:38:14.533Z</time>
</trkpt>
<trkpt lat="-27.1351290" lon="152.8753286">
<ele>65.445</ele>
<time>2017-09-17T03:38:16.560Z</time>
</trkpt>
<trkpt lat="-27.1355622" lon="152.8750004">
<ele>67.250</ele>
<time>2017-09-17T03:38:19.524Z</time>
</trkpt>
<trkpt lat="-27.1358707" lon="152.8748017">
<ele>69.674</ele>
<time>2017-09-17T03:38:21.540Z</time>
</trkpt>
<trkpt lat="-27.1362068" lon="152.8746672">
<ele>72.294</ele>
<time>2017-09-17T03:38:23.556Z</time>
</trkpt>
<trkpt lat="-27.1365751" lon="152.8746556">
<ele>73.913</ele>
<time>2017-09-17T03:38:25.658Z</time>
</trkpt>
<trkpt lat="-27.1369115" lon="152.8747020">
<ele>74.018</ele>
<time>2017-09-17T03:38:27.639Z</time>
</trkpt>
<trkpt lat="-27.1374288" lon="152.8747696">
<ele>74.823</ele>
<time>2017-09-17T03:38:30.750Z</time>
</trkpt>
<trkpt lat="-27.1379376" lon="152.8746439">
<ele>78.543</ele>
<time>2017-09-17T03:38:33.818Z</time>
</trkpt>
<trkpt lat="-27.1384147" lon="152.8744146">
<ele>83.601</ele>
<time>2017-09-17T03:38:36.774Z</time>
</trkpt>
<trkpt lat="-27.1386912" lon="152.8741583">
<ele>86.980</ele>
<time>2017-09-17T03:38:38.788Z</time>
</trkpt>
<trkpt lat="-27.1390800" lon="152.8737852">
<ele>88.063</ele>
<time>2017-09-17T03:38:41.666Z</time>
</trkpt>
<trkpt lat="-27.1394993" lon="152.8733331">
<ele>87.747</ele>
<time>2017-09-17T03:38:44.863Z</time>
</trkpt>
<trkpt lat="-27.1397903" lon="152.8728092">
<ele>86.981</ele>
<time>2017-09-17T03:38:47.771Z</time>
</trkpt>
<trkpt lat="-27.1399876" lon="152.8724480">
<ele>86.286</ele>
<time>2017-09-17T03:38:49.753Z</time>
</trkpt>
<trkpt lat="-27.1402394" lon="152.8718899">
<ele>85.629</ele>
<time>2017-09-17T03:38:52.720Z</time>
</trkpt>
<trkpt lat="-27.1404155" lon="152.8713154">
<ele>84.636</ele>
<time>2017-09-17T03:38:55.659Z</time>
</trkpt>
<trkpt lat="-27.1405573" lon="152.8709398">
<ele>83.085</ele>
<time>2017-09-17T03:38:57.657Z</time>
</trkpt>
<trkpt lat="-27.1407213" lon="152.8705798">
<ele>81.113</ele>
<time>2017-09-17T03:38:59.639Z</time>
</trkpt>
<trkpt lat="-27.1411690" lon="152.8702009">
<ele>78.918</ele>
<time>2017-09-17T03:39:02.677Z</time>
</trkpt>
<trkpt lat="-27.1415017" lon="152.8699585">
<ele>76.189</ele>
<time>2017-09-17T03:39:04.750Z</time>
</trkpt>
<trkpt lat="-27.1420812" lon="152.8698094">
<ele>72.636</ele>
<time>2017-09-17T03:39:07.785Z</time>
</trkpt>
<trkpt lat="-27.1424731" lon="152.8698332">
<ele>68.748</ele>
<time>2017-09-17T03:39:09.808Z</time>
</trkpt>
<trkpt lat="-27.1428408" lon="152.8698725">
<ele>65.599</ele>
<time>2017-09-17T03:39:11.779Z</time>
</trkpt>
<trkpt lat="-27.1431840" lon="152.8699325">
<ele>63.991</ele>
<time>2017-09-17T03:39:13.701Z</time>
</trkpt>
<trkpt lat="-27.1437017" lon="152.8699820">
<ele>63.869</ele>
<time>2017-09-17T03:39:16.611Z</time>
</trkpt>
<trkpt lat="-27.1442493" lon="152.8700982">
<ele>64.479</ele>
<time>2017-09-17T03:39:19.625Z</time>
</trkpt>
<trkpt lat="-27.1447935" lon="152.8703257">
<ele>65.157</ele>
<time>2017-09-17T03:39:22.605Z</time>
</trkpt>
<trkpt lat="-27.1453483" lon="152.8706705">
<ele>65.648</ele>
<time>2017-09-17T03:39:25.689Z</time>
</trkpt>
<trkpt lat="-27.1458905" lon="152.8710234">
<ele>66.032</ele>
<time>2017-09-17T03:39:28.689Z</time>
</trkpt>
<trkpt lat="-27.1462210" lon="152.8712537">
<ele>66.367</ele>
<time>2017-09-17T03:39:30.607Z</time>
</trkpt>
<trkpt lat="-27.1465165" lon="152.8715403">
<ele>66.627</ele>
<time>2017-09-17T03:39:32.562Z</time>
</trkpt>
<trkpt lat="-27.1468867" lon="152.8721180">
<ele>66.839</ele>
<time>2017-09-17T03:39:35.725Z</time>
</trkpt>
<trkpt lat="-27.1472571" lon="152.8726505">
<ele>67.159</ele>
<time>2017-09-17T03:39:38.748Z</time>
</trkpt>
<trkpt lat="-27.1476330" lon="152.8731384">
<ele>67.721</ele>
<time>2017-09-17T03:39:41.676Z</time>
</trkpt>
<trkpt lat="-27.1479916" lon="152.8736567">
<ele>68.376</ele>
<time>2017-09-17T03:39:44.630Z</time>
</trkpt>
<trkpt lat="-27.1482721" lon="152.8740345">
<ele>69.001</ele>
<time>2017-09-17T03:39:46.716Z</time>
</trkpt>
<trkpt lat="-27.1485373" lon="152.8744273">
<ele>69.744</ele>
<time>2017-09-17T03:39:48.750Z</time>
</trkpt>
<trkpt lat="-27.1489068" lon="152.8749506">
<ele>70.745</ele>
<time>2017-09-17T03:39:51.576Z</time>
</trkpt>
<trkpt lat="-27.1493146" lon="152.8754549">
<ele>72.278</ele>
<time>2017-09-17T03:39:54.554Z</time>
</trkpt>
<trkpt lat="-27.1497774" lon="152.8758841">
<ele>74.212</ele>
<time>2017-09-17T03:39:57.505Z</time>
</trkpt>
<trkpt lat="-27.1501169" lon="152.8761222">
<ele>74.934</ele>
<time>2017-09-17T03:39:59.504Z</time>
</trkpt>
<trkpt lat="-27.1505465" lon="152.8764908">
<ele>73.527</ele>
<time>2017-09-17T03:40:02.313Z</time>
</trkpt>
<trkpt lat="-27.1509192" lon="152.8768475">
<ele>71.825</ele>
<time>2017-09-17T03:40:05.083Z</time>
</trkpt>
<trkpt lat="-27.1511599" lon="152.8770904">
<ele>71.988</ele>
<time>2017-09-17T03:40:07.043Z</time>
</trkpt>
<trkpt lat="-27.1515645" lon="152.8774382">
<ele>74.019</ele>
<time>2017-09-17T03:40:10.064Z</time>
</trkpt>
<trkpt lat="-27.1518460" lon="152.8776709">
<ele>76.746</ele>
<time>2017-09-17T03:40:12.075Z</time>
</trkpt>
<trkpt lat="-27.1523379" lon="152.8778307">
<ele>79.118</ele>
<time>2017-09-17T03:40:15.025Z</time>
</trkpt>
<trkpt lat="-27.1526788" lon="152.8779375">
<ele>80.564</ele>
<time>2017-09-17T03:40:17.056Z</time>
</trkpt>
<trkpt lat="-27.1531576" lon="152.8782457">
<ele>80.877</ele>
<time>2017-09-17T03:40:20.111Z</time>
</trkpt>
<trkpt lat="-27.1536034" lon="152.8786311">
<ele>80.009</ele>
<time>2017-09-17T03:40:23.102Z</time>
</trkpt>
<trkpt lat="-27.1539036" lon="152.8789076">
<ele>78.048</ele>
<time>2017-09-17T03:40:25.140Z</time>
</trkpt>
<trkpt lat="-27.1543058" lon="152.8792960">
<ele>75.556</ele>
<time>2017-09-17T03:40:28.000Z</time>
</trkpt>
<trkpt lat="-27.1545924" lon="152.8794886">
<ele>72.935</ele>
<time>2017-09-17T03:40:30.000Z</time>
</trkpt>
<trkpt lat="-27.1550041" lon="152.8796153">
<ele>70.479</ele>
<time>2017-09-17T03:40:33.000Z</time>
</trkpt>
<trkpt lat="-27.1554140" lon="152.8796997">
<ele>69.790</ele>
<time>2017-09-17T03:40:36.028Z</time>
</trkpt>
<trkpt lat="-27.1556792" lon="152.8797310">
<ele>72.400</ele>
<time>2017-09-17T03:40:38.367Z</time>
</trkpt>
<trkpt lat="-27.1558376" lon="152.8798001">
<ele>76.787</ele>
<time>2017-09-17T03:40:40.284Z</time>
</trkpt>
<trkpt lat="-27.1560605" lon="152.8798209">
<ele>79.883</ele>
<time>2017-09-17T03:40:43.423Z</time>
</trkpt>
<trkpt lat="-27.1563370" lon="152.8798669">
<ele>80.561</ele>
<time>2017-09-17T03:40:47.202Z</time>
</trkpt>
<trkpt lat="-27.1565696" lon="152.8799479">
<ele>79.732</ele>
<time>2017-09-17T03:40:50.103Z</time>
</trkpt>
<trkpt lat="-27.1567105" lon="152.8799887">
<ele>78.544</ele>
<time>2017-09-17T03:40:51.849Z</time>
</trkpt>
<trkpt lat="-27.1568650" lon="152.8800850">
<ele>77.595</ele>
<time>2017-09-17T03:40:54.023Z</time>
</trkpt>
<trkpt lat="-27.1571292" lon="152.8801907">
<ele>77.054</ele>
<time>2017-09-17T03:40:57.264Z</time>
</trkpt>
<trkpt lat="-27.1573175" lon="152.8802481">
<ele>76.894</ele>
<time>2017-09-17T03:40:59.376Z</time>
</trkpt>
<trkpt lat="-27.1575024" lon="152.8803636">
<ele>76.979</ele>
<time>2017-09-17T03:41:01.544Z</time>
</trkpt>
<trkpt lat="-27.1577661" lon="152.8806078">
<ele>77.125</ele>
<time>2017-09-17T03:41:04.795Z</time>
</trkpt>
<trkpt lat="-27.1579714" lon="152.8807794">
<ele>77.216</ele>
<time>2017-09-17T03:41:07.038Z</time>
</trkpt>
<trkpt lat="-27.1582860" lon="152.8811269">
<ele>77.239</ele>
<time>2017-09-17T03:41:10.351Z</time>
</trkpt>
<trkpt lat="-27.1585022" lon="152.8813959">
<ele>77.411</ele>
<time>2017-09-17T03:41:12.522Z</time>
</trkpt>
<trkpt lat="-27.1587485" lon="152.8817948">
<ele>77.948</ele>
<time>2017-09-17T03:41:15.487Z</time>
</trkpt>
<trkpt lat="-27.1588177" lon="152.8820804">
<ele>78.629</ele>
<time>2017-09-17T03:41:17.449Z</time>
</trkpt>
<trkpt lat="-27.1588802" lon="152.8823446">
<ele>79.061</ele>
<time>2017-09-17T03:41:19.426Z</time>
</trkpt>
<trkpt lat="-27.1589070" lon="152.8825762">
<ele>79.097</ele>
<time>2017-09-17T03:41:21.291Z</time>
</trkpt>
<trkpt lat="-27.1588584" lon="152.8827925">
<ele>78.756</ele>
<time>2017-09-17T03:41:23.191Z</time>
</trkpt>
<trkpt lat="-27.1585226" lon="152.8831039">
<ele>78.247</ele>
<time>2017-09-17T03:41:26.854Z</time>
</trkpt>
<trkpt lat="-27.1581336" lon="152.8833039">
<ele>77.870</ele>
<time>2017-09-17T03:41:30.110Z</time>
</trkpt>
<trkpt lat="-27.1579307" lon="152.8834026">
<ele>77.753</ele>
<time>2017-09-17T03:41:32.033Z</time>
</trkpt>
<trkpt lat="-27.1577654" lon="152.8834629">
<ele>77.824</ele>
<time>2017-09-17T03:41:34.018Z</time>
</trkpt>
<trkpt lat="-27.1576327" lon="152.8835214">
<ele>77.823</ele>
<time>2017-09-17T03:41:36.000Z</time>
</trkpt>
<trkpt lat="-27.1576327" lon="152.8835214">
<ele>77.585</ele>
<time>2017-09-17T03:41:39.000Z</time>
</trkpt>
<trkpt lat="-27.1576327" lon="152.8835214">
<ele>77.337</ele>
<time>2017-09-17T03:41:40.542Z</time>
</trkpt>
<trkpt lat="-27.1575017" lon="152.8835906">
<ele>77.304</ele>
<time>2017-09-17T03:41:45.284Z</time>
</trkpt>
<trkpt lat="-27.1573725" lon="152.8836869">
<ele>77.235</ele>
<time>2017-09-17T03:41:47.630Z</time>
</trkpt>
<trkpt lat="-27.1571829" lon="152.8838222">
<ele>76.892</ele>
<time>2017-09-17T03:41:50.479Z</time>
</trkpt>
<trkpt lat="-27.1568947" lon="152.8840810">
<ele>76.611</ele>
<time>2017-09-17T03:41:54.177Z</time>
</trkpt>
<trkpt lat="-27.1566988" lon="152.8844039">
<ele>76.837</ele>
<time>2017-09-17T03:41:57.195Z</time>
</trkpt>
<trkpt lat="-27.1565271" lon="152.8845989">
<ele>77.431</ele>
<time>2017-09-17T03:41:59.263Z</time>
</trkpt>
<trkpt lat="-27.1563924" lon="152.8849970">
<ele>77.889</ele>
<time>2017-09-17T03:42:02.569Z</time>
</trkpt>
<trkpt lat="-27.1563323" lon="152.8853541">
<ele>77.809</ele>
<time>2017-09-17T03:42:05.887Z</time>
</trkpt>
<trkpt lat="-27.1562382" lon="152.8856027">
<ele>77.231</ele>
<time>2017-09-17T03:42:08.886Z</time>
</trkpt>
<trkpt lat="-27.1561875" lon="152.8857572">
<ele>76.550</ele>
<time>2017-09-17T03:42:10.501Z</time>
</trkpt>
<trkpt lat="-27.1560609" lon="152.8859841">
<ele>76.040</ele>
<time>2017-09-17T03:42:12.655Z</time>
</trkpt>
<trkpt lat="-27.1559105" lon="152.8863939">
<ele>75.719</ele>
<time>2017-09-17T03:42:15.609Z</time>
</trkpt>
<trkpt lat="-27.1557391" lon="152.8868331">
<ele>75.578</ele>
<time>2017-09-17T03:42:18.855Z</time>
</trkpt>
<trkpt lat="-27.1555833" lon="152.8871977">
<ele>75.768</ele>
<time>2017-09-17T03:42:21.861Z</time>
</trkpt>
<trkpt lat="-27.1554942" lon="152.8874358">
<ele>76.579</ele>
<time>2017-09-17T03:42:23.794Z</time>
</trkpt>
<trkpt lat="-27.1553176" lon="152.8878294">
<ele>77.837</ele>
<time>2017-09-17T03:42:27.417Z</time>
</trkpt>
<trkpt lat="-27.1552808" lon="152.8880792">
<ele>78.874</ele>
<time>2017-09-17T03:42:30.206Z</time>
</trkpt>
<trkpt lat="-27.1552461" lon="152.8882202">
<ele>79.333</ele>
<time>2017-09-17T03:42:31.884Z</time>
</trkpt>
<trkpt lat="-27.1551817" lon="152.8883449">
<ele>79.396</ele>
<time>2017-09-17T03:42:33.486Z</time>
</trkpt>
<trkpt lat="-27.1550804" lon="152.8886145">
<ele>79.527</ele>
<time>2017-09-17T03:42:36.533Z</time>
</trkpt>
<trkpt lat="-27.1549441" lon="152.8889061">
<ele>80.507</ele>
<time>2017-09-17T03:42:39.799Z</time>
</trkpt>
<trkpt lat="-27.1548699" lon="152.8890631">
<ele>82.870</ele>
<time>2017-09-17T03:42:41.430Z</time>
</trkpt>
<trkpt lat="-27.1547319" lon="152.8893852">
<ele>85.984</ele>
<time>2017-09-17T03:42:44.581Z</time>
</trkpt>
<trkpt lat="-27.1546816" lon="152.8896097">
<ele>88.523</ele>
<time>2017-09-17T03:42:46.754Z</time>
</trkpt>
<trkpt lat="-27.1545787" lon="152.8899068">
<ele>89.799</ele>
<time>2017-09-17T03:42:50.106Z</time>
</trkpt>
<trkpt lat="-27.1544658" lon="152.8901673">
<ele>89.926</ele>
<time>2017-09-17T03:42:54.644Z</time>
</trkpt>
<trkpt lat="-27.1544011" lon="152.8902684">
<ele>89.319</ele>
<time>2017-09-17T03:42:57.333Z</time>
</trkpt>
<trkpt lat="-27.1543564" lon="152.8904071">
<ele>88.544</ele>
<time>2017-09-17T03:43:01.226Z</time>
</trkpt>
<trkpt lat="-27.1542857" lon="152.8905565">
<ele>88.094</ele>
<time>2017-09-17T03:43:03.787Z</time>
</trkpt>
<trkpt lat="-27.1542067" lon="152.8906361">
<ele>88.070</ele>
<time>2017-09-17T03:43:05.051Z</time>
</trkpt>
<trkpt lat="-27.1540871" lon="152.8905600">
<ele>88.273</ele>
<time>2017-09-17T03:43:06.552Z</time>
</trkpt>
<trkpt lat="-27.1537902" lon="152.8904718">
<ele>88.484</ele>
<time>2017-09-17T03:43:09.347Z</time>
</trkpt>
<trkpt lat="-27.1535898" lon="152.8903858">
<ele>88.616</ele>
<time>2017-09-17T03:43:11.166Z</time>
</trkpt>
<trkpt lat="-27.1532436" lon="152.8902609">
<ele>88.606</ele>
<time>2017-09-17T03:43:13.821Z</time>
</trkpt>
<trkpt lat="-27.1528108" lon="152.8901347">
<ele>88.059</ele>
<time>2017-09-17T03:43:16.643Z</time>
</trkpt>
<trkpt lat="-27.1525001" lon="152.8899821">
<ele>86.280</ele>
<time>2017-09-17T03:43:18.672Z</time>
</trkpt>
<trkpt lat="-27.1519901" lon="152.8900730">
<ele>83.244</ele>
<time>2017-09-17T03:43:21.739Z</time>
</trkpt>
<trkpt lat="-27.1516072" lon="152.8901462">
<ele>80.197</ele>
<time>2017-09-17T03:43:24.143Z</time>
</trkpt>
<trkpt lat="-27.1511693" lon="152.8902059">
<ele>78.521</ele>
<time>2017-09-17T03:43:27.230Z</time>
</trkpt>
<trkpt lat="-27.1507888" lon="152.8902954">
<ele>78.783</ele>
<time>2017-09-17T03:43:29.959Z</time>
</trkpt>
<trkpt lat="-27.1503619" lon="152.8903285">
<ele>80.589</ele>
<time>2017-09-17T03:43:32.660Z</time>
</trkpt>
<trkpt lat="-27.1498135" lon="152.8902527">
<ele>82.682</ele>
<time>2017-09-17T03:43:36.119Z</time>
</trkpt>
<trkpt lat="-27.1494982" lon="152.8902632">
<ele>83.593</ele>
<time>2017-09-17T03:43:38.212Z</time>
</trkpt>
<trkpt lat="-27.1492303" lon="152.8903767">
<ele>82.788</ele>
<time>2017-09-17T03:43:40.118Z</time>
</trkpt>
<trkpt lat="-27.1490193" lon="152.8906140">
<ele>81.003</ele>
<time>2017-09-17T03:43:42.090Z</time>
</trkpt>
<trkpt lat="-27.1487496" lon="152.8910407">
<ele>79.435</ele>
<time>2017-09-17T03:43:45.136Z</time>
</trkpt>
<trkpt lat="-27.1485551" lon="152.8913219">
<ele>79.118</ele>
<time>2017-09-17T03:43:47.241Z</time>
</trkpt>
<trkpt lat="-27.1483261" lon="152.8917447">
<ele>80.183</ele>
<time>2017-09-17T03:43:50.444Z</time>
</trkpt>
<trkpt lat="-27.1481708" lon="152.8919879">
<ele>81.119</ele>
<time>2017-09-17T03:43:52.473Z</time>
</trkpt>
<trkpt lat="-27.1478193" lon="152.8921796">
<ele>80.740</ele>
<time>2017-09-17T03:43:55.512Z</time>
</trkpt>
<trkpt lat="-27.1475829" lon="152.8922911">
<ele>79.928</ele>
<time>2017-09-17T03:43:57.486Z</time>
</trkpt>
<trkpt lat="-27.1473885" lon="152.8924851">
<ele>79.718</ele>
<time>2017-09-17T03:43:59.441Z</time>
</trkpt>
<trkpt lat="-27.1472614" lon="152.8929025">
<ele>79.817</ele>
<time>2017-09-17T03:44:02.187Z</time>
</trkpt>
<trkpt lat="-27.1473141" lon="152.8934113">
<ele>79.610</ele>
<time>2017-09-17T03:44:05.077Z</time>
</trkpt>
<trkpt lat="-27.1473931" lon="152.8939575">
<ele>79.004</ele>
<time>2017-09-17T03:44:08.096Z</time>
</trkpt>
<trkpt lat="-27.1474471" lon="152.8943177">
<ele>78.140</ele>
<time>2017-09-17T03:44:10.107Z</time>
</trkpt>
<trkpt lat="-27.1475013" lon="152.8948486">
<ele>77.045</ele>
<time>2017-09-17T03:44:12.946Z</time>
</trkpt>
<trkpt lat="-27.1476358" lon="152.8954192">
<ele>75.641</ele>
<time>2017-09-17T03:44:15.618Z</time>
</trkpt>
<trkpt lat="-27.1476982" lon="152.8958814">
<ele>73.734</ele>
<time>2017-09-17T03:44:17.544Z</time>
</trkpt>
<trkpt lat="-27.1477935" lon="152.8966472">
<ele>71.629</ele>
<time>2017-09-17T03:44:20.703Z</time>
</trkpt>
<trkpt lat="-27.1478289" lon="152.8971370">
<ele>70.543</ele>
<time>2017-09-17T03:44:22.870Z</time>
</trkpt>
<trkpt lat="-27.1478590" lon="152.8975718">
<ele>71.090</ele>
<time>2017-09-17T03:44:24.903Z</time>
</trkpt>
<trkpt lat="-27.1479472" lon="152.8981490">
<ele>72.318</ele>
<time>2017-09-17T03:44:27.770Z</time>
</trkpt>
<trkpt lat="-27.1480173" lon="152.8985530">
<ele>72.129</ele>
<time>2017-09-17T03:44:29.784Z</time>
</trkpt>
<trkpt lat="-27.1481129" lon="152.8991478">
<ele>69.590</ele>
<time>2017-09-17T03:44:32.665Z</time>
</trkpt>
<trkpt lat="-27.1481820" lon="152.8995672">
<ele>66.019</ele>
<time>2017-09-17T03:44:34.615Z</time>
</trkpt>
<trkpt lat="-27.1482134" lon="152.9000177">
<ele>62.831</ele>
<time>2017-09-17T03:44:36.651Z</time>
</trkpt>
<trkpt lat="-27.1482777" lon="152.9004482">
<ele>60.217</ele>
<time>2017-09-17T03:44:38.613Z</time>
</trkpt>
<trkpt lat="-27.1483372" lon="152.9011129">
<ele>58.394</ele>
<time>2017-09-17T03:44:41.637Z</time>
</trkpt>
<trkpt lat="-27.1484441" lon="152.9017386">
<ele>57.576</ele>
<time>2017-09-17T03:44:44.704Z</time>
</trkpt>
<trkpt lat="-27.1485307" lon="152.9022899">
<ele>57.656</ele>
<time>2017-09-17T03:44:47.427Z</time>
</trkpt>
<trkpt lat="-27.1486066" lon="152.9029225">
<ele>58.174</ele>
<time>2017-09-17T03:44:50.330Z</time>
</trkpt>
<trkpt lat="-27.1486676" lon="152.9033790">
<ele>58.759</ele>
<time>2017-09-17T03:44:52.379Z</time>
</trkpt>
<trkpt lat="-27.1487613" lon="152.9040305">
<ele>59.237</ele>
<time>2017-09-17T03:44:55.366Z</time>
</trkpt>
<trkpt lat="-27.1488526" lon="152.9047012">
<ele>59.344</ele>
<time>2017-09-17T03:44:58.351Z</time>
</trkpt>
<trkpt lat="-27.1489353" lon="152.9051628">
<ele>58.818</ele>
<time>2017-09-17T03:45:00.307Z</time>
</trkpt>
<trkpt lat="-27.1489795" lon="152.9056525">
<ele>57.865</ele>
<time>2017-09-17T03:45:02.352Z</time>
</trkpt>
<trkpt lat="-27.1490554" lon="152.9061165">
<ele>56.971</ele>
<time>2017-09-17T03:45:04.426Z</time>
</trkpt>
<trkpt lat="-27.1490990" lon="152.9067243">
<ele>56.346</ele>
<time>2017-09-17T03:45:07.347Z</time>
</trkpt>
<trkpt lat="-27.1492480" lon="152.9072678">
<ele>55.888</ele>
<time>2017-09-17T03:45:10.182Z</time>
</trkpt>
<trkpt lat="-27.1493145" lon="152.9078675">
<ele>55.523</ele>
<time>2017-09-17T03:45:13.171Z</time>
</trkpt>
<trkpt lat="-27.1493664" lon="152.9084607">
<ele>55.247</ele>
<time>2017-09-17T03:45:16.067Z</time>
</trkpt>
<trkpt lat="-27.1494287" lon="152.9088861">
<ele>55.038</ele>
<time>2017-09-17T03:45:18.113Z</time>
</trkpt>
<trkpt lat="-27.1495526" lon="152.9095052">
<ele>54.890</ele>
<time>2017-09-17T03:45:21.176Z</time>
</trkpt>
<trkpt lat="-27.1495965" lon="152.9100957">
<ele>55.115</ele>
<time>2017-09-17T03:45:24.189Z</time>
</trkpt>
<trkpt lat="-27.1496654" lon="152.9104530">
<ele>56.087</ele>
<time>2017-09-17T03:45:26.152Z</time>
</trkpt>
<trkpt lat="-27.1497253" lon="152.9110035">
<ele>57.609</ele>
<time>2017-09-17T03:45:29.170Z</time>
</trkpt>
<trkpt lat="-27.1497813" lon="152.9113555">
<ele>59.148</ele>
<time>2017-09-17T03:45:31.191Z</time>
</trkpt>
<trkpt lat="-27.1498333" lon="152.9116844">
<ele>60.415</ele>
<time>2017-09-17T03:45:33.176Z</time>
</trkpt>
<trkpt lat="-27.1499197" lon="152.9119918">
<ele>61.310</ele>
<time>2017-09-17T03:45:35.165Z</time>
</trkpt>
<trkpt lat="-27.1499573" lon="152.9124718">
<ele>61.893</ele>
<time>2017-09-17T03:45:38.198Z</time>
</trkpt>
<trkpt lat="-27.1500252" lon="152.9129223">
<ele>62.468</ele>
<time>2017-09-17T03:45:41.161Z</time>
</trkpt>
<trkpt lat="-27.1500571" lon="152.9133660">
<ele>63.475</ele>
<time>2017-09-17T03:45:44.051Z</time>
</trkpt>
<trkpt lat="-27.1499891" lon="152.9138283">
<ele>64.942</ele>
<time>2017-09-17T03:45:46.979Z</time>
</trkpt>
<trkpt lat="-27.1499944" lon="152.9141592">
<ele>66.266</ele>
<time>2017-09-17T03:45:48.929Z</time>
</trkpt>
<trkpt lat="-27.1499728" lon="152.9146805">
<ele>66.885</ele>
<time>2017-09-17T03:45:51.979Z</time>
</trkpt>
<trkpt lat="-27.1499684" lon="152.9150153">
<ele>66.642</ele>
<time>2017-09-17T03:45:53.963Z</time>
</trkpt>
<trkpt lat="-27.1499470" lon="152.9153441">
<ele>65.755</ele>
<time>2017-09-17T03:45:55.944Z</time>
</trkpt>
<trkpt lat="-27.1499532" lon="152.9156706">
<ele>64.751</ele>
<time>2017-09-17T03:45:57.895Z</time>
</trkpt>
<trkpt lat="-27.1499871" lon="152.9160108">
<ele>64.011</ele>
<time>2017-09-17T03:45:59.848Z</time>
</trkpt>
<trkpt lat="-27.1499619" lon="152.9165591">
<ele>63.426</ele>
<time>2017-09-17T03:46:02.875Z</time>
</trkpt>
<trkpt lat="-27.1499756" lon="152.9169306">
<ele>62.547</ele>
<time>2017-09-17T03:46:04.890Z</time>
</trkpt>
<trkpt lat="-27.1499837" lon="152.9174680">
<ele>61.070</ele>
<time>2017-09-17T03:46:07.893Z</time>
</trkpt>
<trkpt lat="-27.1499535" lon="152.9179745">
<ele>59.227</ele>
<time>2017-09-17T03:46:10.833Z</time>
</trkpt>
<trkpt lat="-27.1499688" lon="152.9183194">
<ele>57.554</ele>
<time>2017-09-17T03:46:12.814Z</time>
</trkpt>
<trkpt lat="-27.1499531" lon="152.9188513">
<ele>56.467</ele>
<time>2017-09-17T03:46:15.812Z</time>
</trkpt>
<trkpt lat="-27.1498587" lon="152.9192011">
<ele>56.043</ele>
<time>2017-09-17T03:46:17.840Z</time>
</trkpt>
<trkpt lat="-27.1497233" lon="152.9197278">
<ele>55.973</ele>
<time>2017-09-17T03:46:20.820Z</time>
</trkpt>
<trkpt lat="-27.1495904" lon="152.9202834">
<ele>55.863</ele>
<time>2017-09-17T03:46:23.863Z</time>
</trkpt>
<trkpt lat="-27.1494887" lon="152.9206391">
<ele>55.613</ele>
<time>2017-09-17T03:46:25.844Z</time>
</trkpt>
<trkpt lat="-27.1494671" lon="152.9210123">
<ele>55.381</ele>
<time>2017-09-17T03:46:27.834Z</time>
</trkpt>
<trkpt lat="-27.1494524" lon="152.9215816">
<ele>55.343</ele>
<time>2017-09-17T03:46:30.869Z</time>
</trkpt>
<trkpt lat="-27.1495692" lon="152.9221273">
<ele>55.654</ele>
<time>2017-09-17T03:46:33.867Z</time>
</trkpt>
<trkpt lat="-27.1497284" lon="152.9224593">
<ele>56.393</ele>
<time>2017-09-17T03:46:35.895Z</time>
</trkpt>
<trkpt lat="-27.1499913" lon="152.9229122">
<ele>57.386</ele>
<time>2017-09-17T03:46:38.807Z</time>
</trkpt>
<trkpt lat="-27.1503152" lon="152.9233307">
<ele>58.312</ele>
<time>2017-09-17T03:46:41.817Z</time>
</trkpt>
<trkpt lat="-27.1505002" lon="152.9236195">
<ele>58.934</ele>
<time>2017-09-17T03:46:43.699Z</time>
</trkpt>
<trkpt lat="-27.1506819" lon="152.9241684">
<ele>59.096</ele>
<time>2017-09-17T03:46:46.612Z</time>
</trkpt>
<trkpt lat="-27.1508396" lon="152.9248055">
<ele>58.475</ele>
<time>2017-09-17T03:46:49.675Z</time>
</trkpt>
<trkpt lat="-27.1508786" lon="152.9252351">
<ele>56.791</ele>
<time>2017-09-17T03:46:51.682Z</time>
</trkpt>
<trkpt lat="-27.1509722" lon="152.9258401">
<ele>54.493</ele>
<time>2017-09-17T03:46:54.627Z</time>
</trkpt>
<trkpt lat="-27.1510205" lon="152.9262265">
<ele>52.469</ele>
<time>2017-09-17T03:46:56.626Z</time>
</trkpt>
<trkpt lat="-27.1510360" lon="152.9265734">
<ele>51.158</ele>
<time>2017-09-17T03:46:58.618Z</time>
</trkpt>
<trkpt lat="-27.1511320" lon="152.9270168">
<ele>50.405</ele>
<time>2017-09-17T03:47:01.536Z</time>
</trkpt>
<trkpt lat="-27.1511246" lon="152.9272588">
<ele>49.648</ele>
<time>2017-09-17T03:47:03.592Z</time>
</trkpt>
<trkpt lat="-27.1511699" lon="152.9274936">
<ele>48.288</ele>
<time>2017-09-17T03:47:06.213Z</time>
</trkpt>
<trkpt lat="-27.1512581" lon="152.9276135">
<ele>46.094</ele>
<time>2017-09-17T03:47:08.628Z</time>
</trkpt>
<trkpt lat="-27.1513310" lon="152.9276950">
<ele>43.149</ele>
<time>2017-09-17T03:47:11.083Z</time>
</trkpt>
<trkpt lat="-27.1513714" lon="152.9278033">
<ele>39.827</ele>
<time>2017-09-17T03:47:13.999Z</time>
</trkpt>
<trkpt lat="-27.1513714" lon="152.9278033">
<ele>36.979</ele>
<time>2017-09-17T03:47:18.999Z</time>
</trkpt>
<trkpt lat="-27.1513714" lon="152.9278033">
<ele>35.588</ele>
<time>2017-09-17T03:47:37.011Z</time>
</trkpt>
<trkpt lat="-27.1515144" lon="152.9279678">
<ele>35.715</ele>
<time>2017-09-17T03:47:43.704Z</time>
</trkpt>
<trkpt lat="-27.1516812" lon="152.9278648">
<ele>35.475</ele>
<time>2017-09-17T03:47:45.562Z</time>
</trkpt>
<trkpt lat="-27.1519011" lon="152.9276302">
<ele>33.541</ele>
<time>2017-09-17T03:47:47.524Z</time>
</trkpt>
<trkpt lat="-27.1522852" lon="152.9271141">
<ele>31.350</ele>
<time>2017-09-17T03:47:50.777Z</time>
</trkpt>
<trkpt lat="-27.1526758" lon="152.9265380">
<ele>30.729</ele>
<time>2017-09-17T03:47:54.019Z</time>
</trkpt>
<trkpt lat="-27.1530238" lon="152.9260410">
<ele>31.730</ele>
<time>2017-09-17T03:47:56.924Z</time>
</trkpt>
<trkpt lat="-27.1532876" lon="152.9257428">
<ele>33.418</ele>
<time>2017-09-17T03:47:58.880Z</time>
</trkpt>
<trkpt lat="-27.1536588" lon="152.9252505">
<ele>34.810</ele>
<time>2017-09-17T03:48:01.861Z</time>
</trkpt>
<trkpt lat="-27.1540993" lon="152.9248414">
<ele>35.645</ele>
<time>2017-09-17T03:48:04.779Z</time>
</trkpt>
<trkpt lat="-27.1546540" lon="152.9245785">
<ele>36.101</ele>
<time>2017-09-17T03:48:07.804Z</time>
</trkpt>
<trkpt lat="-27.1550319" lon="152.9244570">
<ele>36.503</ele>
<time>2017-09-17T03:48:09.809Z</time>
</trkpt>
<trkpt lat="-27.1555766" lon="152.9242854">
<ele>37.400</ele>
<time>2017-09-17T03:48:12.718Z</time>
</trkpt>
<trkpt lat="-27.1559458" lon="152.9241414">
<ele>39.219</ele>
<time>2017-09-17T03:48:14.741Z</time>
</trkpt>
<trkpt lat="-27.1564811" lon="152.9239510">
<ele>41.729</ele>
<time>2017-09-17T03:48:17.696Z</time>
</trkpt>
<trkpt lat="-27.1570243" lon="152.9238094">
<ele>44.268</ele>
<time>2017-09-17T03:48:20.798Z</time>
</trkpt>
<trkpt lat="-27.1574819" lon="152.9236769">
<ele>46.365</ele>
<time>2017-09-17T03:48:23.726Z</time>
</trkpt>
<trkpt lat="-27.1577338" lon="152.9235962">
<ele>47.890</ele>
<time>2017-09-17T03:48:25.652Z</time>
</trkpt>
<trkpt lat="-27.1580724" lon="152.9234556">
<ele>48.839</ele>
<time>2017-09-17T03:48:28.433Z</time>
</trkpt>
<trkpt lat="-27.1584671" lon="152.9232853">
<ele>49.424</ele>
<time>2017-09-17T03:48:31.683Z</time>
</trkpt>
<trkpt lat="-27.1588503" lon="152.9231953">
<ele>50.068</ele>
<time>2017-09-17T03:48:34.595Z</time>
</trkpt>
<trkpt lat="-27.1590968" lon="152.9231060">
<ele>51.136</ele>
<time>2017-09-17T03:48:36.581Z</time>
</trkpt>
<trkpt lat="-27.1594443" lon="152.9229580">
<ele>52.582</ele>
<time>2017-09-17T03:48:39.527Z</time>
</trkpt>
<trkpt lat="-27.1596891" lon="152.9228852">
<ele>54.022</ele>
<time>2017-09-17T03:48:41.544Z</time>
</trkpt>
<trkpt lat="-27.1600790" lon="152.9226815">
<ele>55.131</ele>
<time>2017-09-17T03:48:44.827Z</time>
</trkpt>
<trkpt lat="-27.1603003" lon="152.9225525">
<ele>55.914</ele>
<time>2017-09-17T03:48:46.652Z</time>
</trkpt>
<trkpt lat="-27.1605357" lon="152.9224490">
<ele>56.475</ele>
<time>2017-09-17T03:48:48.506Z</time>
</trkpt>
<trkpt lat="-27.1608604" lon="152.9221902">
<ele>56.794</ele>
<time>2017-09-17T03:48:51.358Z</time>
</trkpt>
<trkpt lat="-27.1612454" lon="152.9219584">
<ele>56.860</ele>
<time>2017-09-17T03:48:54.352Z</time>
</trkpt>
<trkpt lat="-27.1614809" lon="152.9217660">
<ele>56.764</ele>
<time>2017-09-17T03:48:56.308Z</time>
</trkpt>
<trkpt lat="-27.1617435" lon="152.9216059">
<ele>56.544</ele>
<time>2017-09-17T03:48:58.267Z</time>
</trkpt>
<trkpt lat="-27.1621312" lon="152.9213087">
<ele>56.230</ele>
<time>2017-09-17T03:49:01.210Z</time>
</trkpt>
<trkpt lat="-27.1624270" lon="152.9211049">
<ele>55.881</ele>
<time>2017-09-17T03:49:03.212Z</time>
</trkpt>
<trkpt lat="-27.1628197" lon="152.9208601">
<ele>55.562</ele>
<time>2017-09-17T03:49:05.678Z</time>
</trkpt>
<trkpt lat="-27.1631109" lon="152.9206928">
<ele>55.341</ele>
<time>2017-09-17T03:49:07.487Z</time>
</trkpt>
<trkpt lat="-27.1635546" lon="152.9204232">
<ele>55.281</ele>
<time>2017-09-17T03:49:10.335Z</time>
</trkpt>
<trkpt lat="-27.1638435" lon="152.9202290">
<ele>55.410</ele>
<time>2017-09-17T03:49:12.310Z</time>
</trkpt>
<trkpt lat="-27.1642763" lon="152.9199735">
<ele>55.669</ele>
<time>2017-09-17T03:49:15.241Z</time>
</trkpt>
<trkpt lat="-27.1645859" lon="152.9198732">
<ele>55.917</ele>
<time>2017-09-17T03:49:17.177Z</time>
</trkpt>
<trkpt lat="-27.1650378" lon="152.9196002">
<ele>56.050</ele>
<time>2017-09-17T03:49:20.200Z</time>
</trkpt>
<trkpt lat="-27.1653570" lon="152.9194482">
<ele>56.038</ele>
<time>2017-09-17T03:49:22.184Z</time>
</trkpt>
<trkpt lat="-27.1656987" lon="152.9193413">
<ele>55.919</ele>
<time>2017-09-17T03:49:24.185Z</time>
</trkpt>
<trkpt lat="-27.1660161" lon="152.9192053">
<ele>55.807</ele>
<time>2017-09-17T03:49:26.114Z</time>
</trkpt>
<trkpt lat="-27.1664835" lon="152.9189913">
<ele>55.826</ele>
<time>2017-09-17T03:49:29.018Z</time>
</trkpt>
<trkpt lat="-27.1667926" lon="152.9188383">
<ele>56.058</ele>
<time>2017-09-17T03:49:30.973Z</time>
</trkpt>
<trkpt lat="-27.1671231" lon="152.9186956">
<ele>56.524</ele>
<time>2017-09-17T03:49:32.997Z</time>
</trkpt>
<trkpt lat="-27.1676109" lon="152.9184884">
<ele>57.112</ele>
<time>2017-09-17T03:49:35.990Z</time>
</trkpt>
<trkpt lat="-27.1680577" lon="152.9182991">
<ele>57.665</ele>
<time>2017-09-17T03:49:38.832Z</time>
</trkpt>
<trkpt lat="-27.1685033" lon="152.9181218">
<ele>58.140</ele>
<time>2017-09-17T03:49:41.763Z</time>
</trkpt>
<trkpt lat="-27.1689207" lon="152.9179047">
<ele>58.586</ele>
<time>2017-09-17T03:49:44.689Z</time>
</trkpt>
<trkpt lat="-27.1692150" lon="152.9178033">
<ele>59.065</ele>
<time>2017-09-17T03:49:46.680Z</time>
</trkpt>
<trkpt lat="-27.1695002" lon="152.9176789">
<ele>59.604</ele>
<time>2017-09-17T03:49:48.657Z</time>
</trkpt>
<trkpt lat="-27.1699401" lon="152.9175308">
<ele>60.173</ele>
<time>2017-09-17T03:49:51.584Z</time>
</trkpt>
<trkpt lat="-27.1703060" lon="152.9175137">
<ele>60.865</ele>
<time>2017-09-17T03:49:53.778Z</time>
</trkpt>
<trkpt lat="-27.1706681" lon="152.9175584">
<ele>61.809</ele>
<time>2017-09-17T03:49:55.817Z</time>
</trkpt>
<trkpt lat="-27.1712340" lon="152.9176434">
<ele>62.921</ele>
<time>2017-09-17T03:49:58.872Z</time>
</trkpt>
<trkpt lat="-27.1717447" lon="152.9179049">
<ele>64.035</ele>
<time>2017-09-17T03:50:01.808Z</time>
</trkpt>
<trkpt lat="-27.1720847" lon="152.9181429">
<ele>64.956</ele>
<time>2017-09-17T03:50:03.910Z</time>
</trkpt>
<trkpt lat="-27.1724723" lon="152.9186426">
<ele>65.393</ele>
<time>2017-09-17T03:50:06.997Z</time>
</trkpt>
<trkpt lat="-27.1728384" lon="152.9191537">
<ele>65.118</ele>
<time>2017-09-17T03:50:10.011Z</time>
</trkpt>
<trkpt lat="-27.1732436" lon="152.9196315">
<ele>64.133</ele>
<time>2017-09-17T03:50:13.013Z</time>
</trkpt>
<trkpt lat="-27.1735209" lon="152.9199441">
<ele>62.654</ele>
<time>2017-09-17T03:50:15.008Z</time>
</trkpt>
<trkpt lat="-27.1739417" lon="152.9204296">
<ele>61.112</ele>
<time>2017-09-17T03:50:18.039Z</time>
</trkpt>
<trkpt lat="-27.1741985" lon="152.9207741">
<ele>59.706</ele>
<time>2017-09-17T03:50:20.011Z</time>
</trkpt>
<trkpt lat="-27.1746275" lon="152.9212703">
<ele>58.158</ele>
<time>2017-09-17T03:50:22.995Z</time>
</trkpt>
<trkpt lat="-27.1750776" lon="152.9218032">
<ele>55.999</ele>
<time>2017-09-17T03:50:26.098Z</time>
</trkpt>
<trkpt lat="-27.1755302" lon="152.9222990">
<ele>53.108</ele>
<time>2017-09-17T03:50:29.101Z</time>
</trkpt>
<trkpt lat="-27.1758020" lon="152.9226303">
<ele>49.985</ele>
<time>2017-09-17T03:50:31.032Z</time>
</trkpt>
<trkpt lat="-27.1762375" lon="152.9231062">
<ele>47.505</ele>
<time>2017-09-17T03:50:33.965Z</time>
</trkpt>
<trkpt lat="-27.1765011" lon="152.9234508">
<ele>46.175</ele>
<time>2017-09-17T03:50:35.944Z</time>
</trkpt>
<trkpt lat="-27.1769144" lon="152.9238988">
<ele>45.905</ele>
<time>2017-09-17T03:50:38.886Z</time>
</trkpt>
<trkpt lat="-27.1772543" lon="152.9243110">
<ele>46.272</ele>
<time>2017-09-17T03:50:41.733Z</time>
</trkpt>
<trkpt lat="-27.1775618" lon="152.9246462">
<ele>46.813</ele>
<time>2017-09-17T03:50:44.516Z</time>
</trkpt>
<trkpt lat="-27.1778185" lon="152.9249180">
<ele>47.004</ele>
<time>2017-09-17T03:50:47.157Z</time>
</trkpt>
<trkpt lat="-27.1779499" lon="152.9250732">
<ele>46.436</ele>
<time>2017-09-17T03:50:48.858Z</time>
</trkpt>
<trkpt lat="-27.1780340" lon="152.9252315">
<ele>45.237</ele>
<time>2017-09-17T03:50:50.558Z</time>
</trkpt>
<trkpt lat="-27.1781519" lon="152.9254299">
<ele>43.972</ele>
<time>2017-09-17T03:50:53.136Z</time>
</trkpt>
<trkpt lat="-27.1782494" lon="152.9255490">
<ele>43.019</ele>
<time>2017-09-17T03:50:55.015Z</time>
</trkpt>
<trkpt lat="-27.1783296" lon="152.9257221">
<ele>42.425</ele>
<time>2017-09-17T03:50:57.252Z</time>
</trkpt>
<trkpt lat="-27.1784768" lon="152.9258465">
<ele>42.151</ele>
<time>2017-09-17T03:50:59.363Z</time>
</trkpt>
<trkpt lat="-27.1788120" lon="152.9260491">
<ele>42.096</ele>
<time>2017-09-17T03:51:02.930Z</time>
</trkpt>
<trkpt lat="-27.1790210" lon="152.9263095">
<ele>42.225</ele>
<time>2017-09-17T03:51:05.200Z</time>
</trkpt>
<trkpt lat="-27.1793495" lon="152.9267008">
<ele>42.662</ele>
<time>2017-09-17T03:51:08.289Z</time>
</trkpt>
<trkpt lat="-27.1795879" lon="152.9269324">
<ele>43.444</ele>
<time>2017-09-17T03:51:10.263Z</time>
</trkpt>
<trkpt lat="-27.1799419" lon="152.9272887">
<ele>44.375</ele>
<time>2017-09-17T03:51:13.228Z</time>
</trkpt>
<trkpt lat="-27.1802972" lon="152.9276316">
<ele>45.291</ele>
<time>2017-09-17T03:51:16.155Z</time>
</trkpt>
<trkpt lat="-27.1806907" lon="152.9278913">
<ele>46.182</ele>
<time>2017-09-17T03:51:19.056Z</time>
</trkpt>
<trkpt lat="-27.1811166" lon="152.9280905">
<ele>46.935</ele>
<time>2017-09-17T03:51:22.019Z</time>
</trkpt>
<trkpt lat="-27.1815226" lon="152.9283176">
<ele>47.247</ele>
<time>2017-09-17T03:51:25.014Z</time>
</trkpt>
<trkpt lat="-27.1818185" lon="152.9284948">
<ele>46.982</ele>
<time>2017-09-17T03:51:27.363Z</time>
</trkpt>
<trkpt lat="-27.1822284" lon="152.9287402">
<ele>46.331</ele>
<time>2017-09-17T03:51:30.617Z</time>
</trkpt>
<trkpt lat="-27.1824826" lon="152.9288618">
<ele>45.673</ele>
<time>2017-09-17T03:51:32.553Z</time>
</trkpt>
<trkpt lat="-27.1828476" lon="152.9290385">
<ele>45.290</ele>
<time>2017-09-17T03:51:35.509Z</time>
</trkpt>
<trkpt lat="-27.1831776" lon="152.9291937">
<ele>45.279</ele>
<time>2017-09-17T03:51:38.320Z</time>
</trkpt>
<trkpt lat="-27.1834060" lon="152.9293218">
<ele>45.657</ele>
<time>2017-09-17T03:51:40.371Z</time>
</trkpt>
<trkpt lat="-27.1836750" lon="152.9294794">
<ele>46.364</ele>
<time>2017-09-17T03:51:43.016Z</time>
</trkpt>
<trkpt lat="-27.1839031" lon="152.9296514">
<ele>47.236</ele>
<time>2017-09-17T03:51:45.713Z</time>
</trkpt>
<trkpt lat="-27.1840941" lon="152.9296631">
<ele>48.158</ele>
<time>2017-09-17T03:51:47.869Z</time>
</trkpt>
<trkpt lat="-27.1841358" lon="152.9294840">
<ele>49.020</ele>
<time>2017-09-17T03:51:49.986Z</time>
</trkpt>
<trkpt lat="-27.1841508" lon="152.9291184">
<ele>49.654</ele>
<time>2017-09-17T03:51:54.091Z</time>
</trkpt>
<trkpt lat="-27.1841519" lon="152.9287370">
<ele>50.106</ele>
<time>2017-09-17T03:51:57.331Z</time>
</trkpt>
<trkpt lat="-27.1842436" lon="152.9283294">
<ele>50.744</ele>
<time>2017-09-17T03:52:00.529Z</time>
</trkpt>
<trkpt lat="-27.1843264" lon="152.9280449">
<ele>51.930</ele>
<time>2017-09-17T03:52:02.678Z</time>
</trkpt>
<trkpt lat="-27.1844584" lon="152.9277965">
<ele>53.639</ele>
<time>2017-09-17T03:52:04.675Z</time>
</trkpt>
<trkpt lat="-27.1847136" lon="152.9274482">
<ele>55.438</ele>
<time>2017-09-17T03:52:07.703Z</time>
</trkpt>
<trkpt lat="-27.1849136" lon="152.9269823">
<ele>57.008</ele>
<time>2017-09-17T03:52:10.911Z</time>
</trkpt>
<trkpt lat="-27.1851005" lon="152.9266883">
<ele>58.478</ele>
<time>2017-09-17T03:52:12.984Z</time>
</trkpt>
<trkpt lat="-27.1853527" lon="152.9262800">
<ele>59.929</ele>
<time>2017-09-17T03:52:15.835Z</time>
</trkpt>
<trkpt lat="-27.1856250" lon="152.9261146">
<ele>61.267</ele>
<time>2017-09-17T03:52:17.861Z</time>
</trkpt>
<trkpt lat="-27.1858724" lon="152.9258772">
<ele>62.524</ele>
<time>2017-09-17T03:52:19.952Z</time>
</trkpt>
<trkpt lat="-27.1862134" lon="152.9255266">
<ele>63.757</ele>
<time>2017-09-17T03:52:22.927Z</time>
</trkpt>
<trkpt lat="-27.1864481" lon="152.9253414">
<ele>64.979</ele>
<time>2017-09-17T03:52:24.846Z</time>
</trkpt>
<trkpt lat="-27.1866436" lon="152.9251335">
<ele>66.217</ele>
<time>2017-09-17T03:52:26.722Z</time>
</trkpt>
<trkpt lat="-27.1869015" lon="152.9247735">
<ele>67.372</ele>
<time>2017-09-17T03:52:29.664Z</time>
</trkpt>
<trkpt lat="-27.1871044" lon="152.9243203">
<ele>68.343</ele>
<time>2017-09-17T03:52:32.775Z</time>
</trkpt>
<trkpt lat="-27.1871854" lon="152.9237638">
<ele>69.200</ele>
<time>2017-09-17T03:52:35.979Z</time>
</trkpt>
<trkpt lat="-27.1871810" lon="152.9231708">
<ele>70.044</ele>
<time>2017-09-17T03:52:39.110Z</time>
</trkpt>
<trkpt lat="-27.1870158" lon="152.9226756">
<ele>70.994</ele>
<time>2017-09-17T03:52:41.928Z</time>
</trkpt>
<trkpt lat="-27.1868607" lon="152.9223585">
<ele>72.174</ele>
<time>2017-09-17T03:52:43.941Z</time>
</trkpt>
<trkpt lat="-27.1866021" lon="152.9218785">
<ele>73.355</ele>
<time>2017-09-17T03:52:46.992Z</time>
</trkpt>
<trkpt lat="-27.1863597" lon="152.9213727">
<ele>74.113</ele>
<time>2017-09-17T03:52:49.995Z</time>
</trkpt>
<trkpt lat="-27.1861385" lon="152.9208722">
<ele>74.386</ele>
<time>2017-09-17T03:52:52.913Z</time>
</trkpt>
<trkpt lat="-27.1860114" lon="152.9205189">
<ele>74.445</ele>
<time>2017-09-17T03:52:54.921Z</time>
</trkpt>
<trkpt lat="-27.1859659" lon="152.9201275">
<ele>74.527</ele>
<time>2017-09-17T03:52:56.984Z</time>
</trkpt>
<trkpt lat="-27.1859256" lon="152.9197571">
<ele>74.692</ele>
<time>2017-09-17T03:52:58.925Z</time>
</trkpt>
<trkpt lat="-27.1858800" lon="152.9193870">
<ele>74.920</ele>
<time>2017-09-17T03:53:00.879Z</time>
</trkpt>
<trkpt lat="-27.1856902" lon="152.9188171">
<ele>75.246</ele>
<time>2017-09-17T03:53:03.976Z</time>
</trkpt>
<trkpt lat="-27.1855597" lon="152.9184371">
<ele>75.778</ele>
<time>2017-09-17T03:53:05.980Z</time>
</trkpt>
<trkpt lat="-27.1854638" lon="152.9178552">
<ele>76.528</ele>
<time>2017-09-17T03:53:08.896Z</time>
</trkpt>
<trkpt lat="-27.1854074" lon="152.9172830">
<ele>77.249</ele>
<time>2017-09-17T03:53:11.778Z</time>
</trkpt>
<trkpt lat="-27.1853329" lon="152.9169342">
<ele>77.931</ele>
<time>2017-09-17T03:53:13.648Z</time>
</trkpt>
<trkpt lat="-27.1852411" lon="152.9163966">
<ele>78.858</ele>
<time>2017-09-17T03:53:16.611Z</time>
</trkpt>
<trkpt lat="-27.1851895" lon="152.9158562">
<ele>80.099</ele>
<time>2017-09-17T03:53:19.572Z</time>
</trkpt>
<trkpt lat="-27.1851480" lon="152.9154629">
<ele>81.499</ele>
<time>2017-09-17T03:53:21.702Z</time>
</trkpt>
<trkpt lat="-27.1850592" lon="152.9148469">
<ele>82.822</ele>
<time>2017-09-17T03:53:24.958Z</time>
</trkpt>
<trkpt lat="-27.1850165" lon="152.9145179">
<ele>83.911</ele>
<time>2017-09-17T03:53:26.706Z</time>
</trkpt>
<trkpt lat="-27.1849791" lon="152.9141664">
<ele>84.820</ele>
<time>2017-09-17T03:53:28.633Z</time>
</trkpt>
<trkpt lat="-27.1848685" lon="152.9136587">
<ele>85.499</ele>
<time>2017-09-17T03:53:31.518Z</time>
</trkpt>
<trkpt lat="-27.1845867" lon="152.9131474">
<ele>85.926</ele>
<time>2017-09-17T03:53:34.703Z</time>
</trkpt>
<trkpt lat="-27.1843985" lon="152.9128034">
<ele>86.336</ele>
<time>2017-09-17T03:53:36.727Z</time>
</trkpt>
<trkpt lat="-27.1842309" lon="152.9121927">
<ele>86.930</ele>
<time>2017-09-17T03:53:39.816Z</time>
</trkpt>
<trkpt lat="-27.1841532" lon="152.9115358">
<ele>87.839</ele>
<time>2017-09-17T03:53:42.879Z</time>
</trkpt>
<trkpt lat="-27.1840341" lon="152.9109281">
<ele>89.424</ele>
<time>2017-09-17T03:53:45.756Z</time>
</trkpt>
<trkpt lat="-27.1838874" lon="152.9105724">
<ele>91.508</ele>
<time>2017-09-17T03:53:47.645Z</time>
</trkpt>
<trkpt lat="-27.1836695" lon="152.9102530">
<ele>92.985</ele>
<time>2017-09-17T03:53:49.653Z</time>
</trkpt>
<trkpt lat="-27.1833802" lon="152.9098289">
<ele>92.943</ele>
<time>2017-09-17T03:53:52.481Z</time>
</trkpt>
<trkpt lat="-27.1832061" lon="152.9093998">
<ele>91.766</ele>
<time>2017-09-17T03:53:55.170Z</time>
</trkpt>
<trkpt lat="-27.1832435" lon="152.9088923">
<ele>90.932</ele>
<time>2017-09-17T03:53:58.188Z</time>
</trkpt>
<trkpt lat="-27.1834117" lon="152.9083676">
<ele>91.780</ele>
<time>2017-09-17T03:54:01.398Z</time>
</trkpt>
<trkpt lat="-27.1834954" lon="152.9078963">
<ele>94.110</ele>
<time>2017-09-17T03:54:04.206Z</time>
</trkpt>
<trkpt lat="-27.1833236" lon="152.9075678">
<ele>96.508</ele>
<time>2017-09-17T03:54:06.707Z</time>
</trkpt>
<trkpt lat="-27.1830680" lon="152.9074354">
<ele>97.837</ele>
<time>2017-09-17T03:54:08.941Z</time>
</trkpt>
<trkpt lat="-27.1826698" lon="152.9072383">
<ele>98.062</ele>
<time>2017-09-17T03:54:12.238Z</time>
</trkpt>
<trkpt lat="-27.1824405" lon="152.9070261">
<ele>97.597</ele>
<time>2017-09-17T03:54:14.325Z</time>
</trkpt>
<trkpt lat="-27.1822344" lon="152.9065195">
<ele>96.623</ele>
<time>2017-09-17T03:54:17.528Z</time>
</trkpt>
<trkpt lat="-27.1821971" lon="152.9059368">
<ele>94.960</ele>
<time>2017-09-17T03:54:20.627Z</time>
</trkpt>
<trkpt lat="-27.1822663" lon="152.9055559">
<ele>92.348</ele>
<time>2017-09-17T03:54:22.618Z</time>
</trkpt>
<trkpt lat="-27.1825465" lon="152.9049816">
<ele>89.138</ele>
<time>2017-09-17T03:54:25.928Z</time>
</trkpt>
<trkpt lat="-27.1829130" lon="152.9045993">
<ele>86.041</ele>
<time>2017-09-17T03:54:28.802Z</time>
</trkpt>
<trkpt lat="-27.1832387" lon="152.9041841">
<ele>83.105</ele>
<time>2017-09-17T03:54:31.731Z</time>
</trkpt>
<trkpt lat="-27.1834144" lon="152.9039014">
<ele>79.995</ele>
<time>2017-09-17T03:54:33.635Z</time>
</trkpt>
<trkpt lat="-27.1835834" lon="152.9034176">
<ele>76.842</ele>
<time>2017-09-17T03:54:36.587Z</time>
</trkpt>
<trkpt lat="-27.1837059" lon="152.9031167">
<ele>73.872</ele>
<time>2017-09-17T03:54:38.498Z</time>
</trkpt>
<trkpt lat="-27.1837737" lon="152.9027130">
<ele>70.970</ele>
<time>2017-09-17T03:54:41.063Z</time>
</trkpt>
<trkpt lat="-27.1839081" lon="152.9023194">
<ele>68.119</ele>
<time>2017-09-17T03:54:44.004Z</time>
</trkpt>
<trkpt lat="-27.1839702" lon="152.9020797">
<ele>65.828</ele>
<time>2017-09-17T03:54:45.904Z</time>
</trkpt>
<trkpt lat="-27.1840452" lon="152.9018327">
<ele>65.686</ele>
<time>2017-09-17T03:54:48.128Z</time>
</trkpt>
<trkpt lat="-27.1841689" lon="152.9017230">
<ele>68.229</ele>
<time>2017-09-17T03:54:49.746Z</time>
</trkpt>
<trkpt lat="-27.1843375" lon="152.9017753">
<ele>68.376</ele>
<time>2017-09-17T03:54:52.082Z</time>
</trkpt>
<trkpt lat="-27.1845278" lon="152.9019102">
<ele>62.344</ele>
<time>2017-09-17T03:54:55.348Z</time>
</trkpt>
<trkpt lat="-27.1848691" lon="152.9021514">
<ele>54.740</ele>
<time>2017-09-17T03:54:59.248Z</time>
</trkpt>
<trkpt lat="-27.1851698" lon="152.9023173">
<ele>50.756</ele>
<time>2017-09-17T03:55:01.691Z</time>
</trkpt>
<trkpt lat="-27.1854911" lon="152.9024717">
<ele>50.173</ele>
<time>2017-09-17T03:55:03.819Z</time>
</trkpt>
<trkpt lat="-27.1858323" lon="152.9027498">
<ele>51.185</ele>
<time>2017-09-17T03:55:06.288Z</time>
</trkpt>
<trkpt lat="-27.1862114" lon="152.9029371">
<ele>52.342</ele>
<time>2017-09-17T03:55:08.776Z</time>
</trkpt>
<trkpt lat="-27.1864862" lon="152.9031479">
<ele>52.951</ele>
<time>2017-09-17T03:55:10.832Z</time>
</trkpt>
<trkpt lat="-27.1868071" lon="152.9034765">
<ele>52.870</ele>
<time>2017-09-17T03:55:13.660Z</time>
</trkpt>
<trkpt lat="-27.1871075" lon="152.9035531">
<ele>52.236</ele>
<time>2017-09-17T03:55:15.699Z</time>
</trkpt>
<trkpt lat="-27.1877152" lon="152.9036042">
<ele>51.411</ele>
<time>2017-09-17T03:55:19.265Z</time>
</trkpt>
<trkpt lat="-27.1881341" lon="152.9037042">
<ele>50.946</ele>
<time>2017-09-17T03:55:21.521Z</time>
</trkpt>
<trkpt lat="-27.1886594" lon="152.9037751">
<ele>51.128</ele>
<time>2017-09-17T03:55:24.301Z</time>
</trkpt>
<trkpt lat="-27.1892152" lon="152.9038810">
<ele>51.664</ele>
<time>2017-09-17T03:55:27.237Z</time>
</trkpt>
<trkpt lat="-27.1895663" lon="152.9040210">
<ele>52.103</ele>
<time>2017-09-17T03:55:29.156Z</time>
</trkpt>
<trkpt lat="-27.1898763" lon="152.9041916">
<ele>52.273</ele>
<time>2017-09-17T03:55:30.985Z</time>
</trkpt>
<trkpt lat="-27.1902824" lon="152.9045231">
<ele>52.203</ele>
<time>2017-09-17T03:55:33.826Z</time>
</trkpt>
<trkpt lat="-27.1904197" lon="152.9049242">
<ele>51.997</ele>
<time>2017-09-17T03:55:35.969Z</time>
</trkpt>
<trkpt lat="-27.1904845" lon="152.9053985">
<ele>51.989</ele>
<time>2017-09-17T03:55:38.166Z</time>
</trkpt>
<trkpt lat="-27.1905339" lon="152.9060196">
<ele>52.675</ele>
<time>2017-09-17T03:55:40.985Z</time>
</trkpt>
<trkpt lat="-27.1906115" lon="152.9064209">
<ele>53.944</ele>
<time>2017-09-17T03:55:43.253Z</time>
</trkpt>
<trkpt lat="-27.1907152" lon="152.9065526">
<ele>54.572</ele>
<time>2017-09-17T03:55:44.333Z</time>
</trkpt>
<trkpt lat="-27.1909803" lon="152.9065659">
<ele>53.547</ele>
<time>2017-09-17T03:55:46.864Z</time>
</trkpt>
<trkpt lat="-27.1913493" lon="152.9063936">
<ele>51.380</ele>
<time>2017-09-17T03:55:50.069Z</time>
</trkpt>
<trkpt lat="-27.1920138" lon="152.9062186">
<ele>49.378</ele>
<time>2017-09-17T03:55:53.478Z</time>
</trkpt>
<trkpt lat="-27.1924614" lon="152.9061127">
<ele>48.731</ele>
<time>2017-09-17T03:55:55.560Z</time>
</trkpt>
<trkpt lat="-27.1928766" lon="152.9060714">
<ele>50.009</ele>
<time>2017-09-17T03:55:57.571Z</time>
</trkpt>
<trkpt lat="-27.1933644" lon="152.9059548">
<ele>52.676</ele>
<time>2017-09-17T03:56:00.268Z</time>
</trkpt>
<trkpt lat="-27.1936486" lon="152.9059557">
<ele>55.669</ele>
<time>2017-09-17T03:56:02.048Z</time>
</trkpt>
<trkpt lat="-27.1941034" lon="152.9061067">
<ele>58.230</ele>
<time>2017-09-17T03:56:05.098Z</time>
</trkpt>
<trkpt lat="-27.1944353" lon="152.9061455">
<ele>60.208</ele>
<time>2017-09-17T03:56:07.162Z</time>
</trkpt>
<trkpt lat="-27.1947773" lon="152.9061505">
<ele>62.065</ele>
<time>2017-09-17T03:56:09.218Z</time>
</trkpt>
<trkpt lat="-27.1952857" lon="152.9061939">
<ele>64.339</ele>
<time>2017-09-17T03:56:12.220Z</time>
</trkpt>
<trkpt lat="-27.1956582" lon="152.9063100">
<ele>67.149</ele>
<time>2017-09-17T03:56:14.341Z</time>
</trkpt>
<trkpt lat="-27.1961791" lon="152.9066026">
<ele>70.095</ele>
<time>2017-09-17T03:56:17.355Z</time>
</trkpt>
<trkpt lat="-27.1965234" lon="152.9067865">
<ele>72.712</ele>
<time>2017-09-17T03:56:19.324Z</time>
</trkpt>
<trkpt lat="-27.1970352" lon="152.9070428">
<ele>74.926</ele>
<time>2017-09-17T03:56:22.272Z</time>
</trkpt>
<trkpt lat="-27.1973658" lon="152.9071697">
<ele>77.042</ele>
<time>2017-09-17T03:56:24.211Z</time>
</trkpt>
<trkpt lat="-27.1978133" lon="152.9072701">
<ele>79.418</ele>
<time>2017-09-17T03:56:26.996Z</time>
</trkpt>
<trkpt lat="-27.1981086" lon="152.9073905">
<ele>82.215</ele>
<time>2017-09-17T03:56:29.012Z</time>
</trkpt>
<trkpt lat="-27.1984394" lon="152.9075014">
<ele>85.095</ele>
<time>2017-09-17T03:56:31.106Z</time>
</trkpt>
<trkpt lat="-27.1989342" lon="152.9076488">
<ele>87.304</ele>
<time>2017-09-17T03:56:34.095Z</time>
</trkpt>
<trkpt lat="-27.1992334" lon="152.9077940">
<ele>88.069</ele>
<time>2017-09-17T03:56:36.022Z</time>
</trkpt>
<trkpt lat="-27.1995036" lon="152.9079566">
<ele>87.347</ele>
<time>2017-09-17T03:56:37.912Z</time>
</trkpt>
<trkpt lat="-27.1997475" lon="152.9081794">
<ele>85.938</ele>
<time>2017-09-17T03:56:39.915Z</time>
</trkpt>
<trkpt lat="-27.2000482" lon="152.9085767">
<ele>84.754</ele>
<time>2017-09-17T03:56:42.964Z</time>
</trkpt>
<trkpt lat="-27.2002466" lon="152.9087611">
<ele>83.919</ele>
<time>2017-09-17T03:56:44.782Z</time>
</trkpt>
<trkpt lat="-27.2005993" lon="152.9086239">
<ele>83.089</ele>
<time>2017-09-17T03:56:47.696Z</time>
</trkpt>
<trkpt lat="-27.2008225" lon="152.9082574">
<ele>82.204</ele>
<time>2017-09-17T03:56:50.895Z</time>
</trkpt>
<trkpt lat="-27.2009226" lon="152.9077013">
<ele>81.371</ele>
<time>2017-09-17T03:56:54.339Z</time>
</trkpt>
<trkpt lat="-27.2010170" lon="152.9071394">
<ele>80.383</ele>
<time>2017-09-17T03:56:57.462Z</time>
</trkpt>
<trkpt lat="-27.2011413" lon="152.9066786">
<ele>78.854</ele>
<time>2017-09-17T03:57:00.203Z</time>
</trkpt>
<trkpt lat="-27.2014268" lon="152.9063107">
<ele>76.658</ele>
<time>2017-09-17T03:57:03.091Z</time>
</trkpt>
<trkpt lat="-27.2019939" lon="152.9060551">
<ele>74.281</ele>
<time>2017-09-17T03:57:06.623Z</time>
</trkpt>
<trkpt lat="-27.2023214" lon="152.9058421">
<ele>72.506</ele>
<time>2017-09-17T03:57:08.613Z</time>
</trkpt>
<trkpt lat="-27.2028637" lon="152.9055766">
<ele>71.592</ele>
<time>2017-09-17T03:57:11.746Z</time>
</trkpt>
<trkpt lat="-27.2031875" lon="152.9054196">
<ele>70.938</ele>
<time>2017-09-17T03:57:13.648Z</time>
</trkpt>
<trkpt lat="-27.2037119" lon="152.9052068">
<ele>69.855</ele>
<time>2017-09-17T03:57:16.678Z</time>
</trkpt>
<trkpt lat="-27.2040491" lon="152.9050977">
<ele>68.272</ele>
<time>2017-09-17T03:57:18.636Z</time>
</trkpt>
<trkpt lat="-27.2045525" lon="152.9050274">
<ele>66.657</ele>
<time>2017-09-17T03:57:21.594Z</time>
</trkpt>
<trkpt lat="-27.2050866" lon="152.9050757">
<ele>65.457</ele>
<time>2017-09-17T03:57:24.822Z</time>
</trkpt>
<trkpt lat="-27.2054183" lon="152.9050960">
<ele>64.772</ele>
<time>2017-09-17T03:57:26.805Z</time>
</trkpt>
<trkpt lat="-27.2057415" lon="152.9050983">
<ele>64.448</ele>
<time>2017-09-17T03:57:28.739Z</time>
</trkpt>
<trkpt lat="-27.2062130" lon="152.9050721">
<ele>64.255</ele>
<time>2017-09-17T03:57:31.637Z</time>
</trkpt>
<trkpt lat="-27.2064982" lon="152.9051384">
<ele>63.765</ele>
<time>2017-09-17T03:57:33.502Z</time>
</trkpt>
<trkpt lat="-27.2069012" lon="152.9053376">
<ele>62.704</ele>
<time>2017-09-17T03:57:36.365Z</time>
</trkpt>
<trkpt lat="-27.2071403" lon="152.9055534">
<ele>61.070</ele>
<time>2017-09-17T03:57:38.355Z</time>
</trkpt>
<trkpt lat="-27.2074124" lon="152.9057441">
<ele>58.909</ele>
<time>2017-09-17T03:57:40.360Z</time>
</trkpt>
<trkpt lat="-27.2077213" lon="152.9058988">
<ele>56.730</ele>
<time>2017-09-17T03:57:42.392Z</time>
</trkpt>
<trkpt lat="-27.2080834" lon="152.9059184">
<ele>54.910</ele>
<time>2017-09-17T03:57:44.517Z</time>
</trkpt>
<trkpt lat="-27.2086249" lon="152.9058396">
<ele>52.293</ele>
<time>2017-09-17T03:57:47.640Z</time>
</trkpt>
<trkpt lat="-27.2089363" lon="152.9056496">
<ele>48.104</ele>
<time>2017-09-17T03:57:49.594Z</time>
</trkpt>
<trkpt lat="-27.2093588" lon="152.9051852">
<ele>43.974</ele>
<time>2017-09-17T03:57:52.715Z</time>
</trkpt>
<trkpt lat="-27.2096361" lon="152.9048757">
<ele>42.202</ele>
<time>2017-09-17T03:57:54.729Z</time>
</trkpt>
<trkpt lat="-27.2099546" lon="152.9046288">
<ele>43.354</ele>
<time>2017-09-17T03:57:56.732Z</time>
</trkpt>
<trkpt lat="-27.2104829" lon="152.9043933">
<ele>46.226</ele>
<time>2017-09-17T03:57:59.704Z</time>
</trkpt>
<trkpt lat="-27.2108418" lon="152.9043076">
<ele>50.198</ele>
<time>2017-09-17T03:58:01.703Z</time>
</trkpt>
<trkpt lat="-27.2113032" lon="152.9041101">
<ele>55.374</ele>
<time>2017-09-17T03:58:04.548Z</time>
</trkpt>
<trkpt lat="-27.2116994" lon="152.9037895">
<ele>60.622</ele>
<time>2017-09-17T03:58:07.509Z</time>
</trkpt>
<trkpt lat="-27.2119520" lon="152.9035394">
<ele>64.601</ele>
<time>2017-09-17T03:58:09.536Z</time>
</trkpt>
<trkpt lat="-27.2123041" lon="152.9031426">
<ele>67.177</ele>
<time>2017-09-17T03:58:12.500Z</time>
</trkpt>
<trkpt lat="-27.2125446" lon="152.9028565">
<ele>68.740</ele>
<time>2017-09-17T03:58:14.535Z</time>
</trkpt>
<trkpt lat="-27.2128132" lon="152.9025981">
<ele>69.821</ele>
<time>2017-09-17T03:58:16.560Z</time>
</trkpt>
<trkpt lat="-27.2132883" lon="152.9022945">
<ele>70.818</ele>
<time>2017-09-17T03:58:19.730Z</time>
</trkpt>
<trkpt lat="-27.2135647" lon="152.9020895">
<ele>71.782</ele>
<time>2017-09-17T03:58:21.705Z</time>
</trkpt>
<trkpt lat="-27.2139816" lon="152.9018455">
<ele>72.538</ele>
<time>2017-09-17T03:58:24.575Z</time>
</trkpt>
<trkpt lat="-27.2142416" lon="152.9016743">
<ele>73.043</ele>
<time>2017-09-17T03:58:26.473Z</time>
</trkpt>
<trkpt lat="-27.2146184" lon="152.9013575">
<ele>73.512</ele>
<time>2017-09-17T03:58:29.477Z</time>
</trkpt>
<trkpt lat="-27.2148144" lon="152.9010758">
<ele>74.281</ele>
<time>2017-09-17T03:58:31.498Z</time>
</trkpt>
<trkpt lat="-27.2150054" lon="152.9008077">
<ele>75.522</ele>
<time>2017-09-17T03:58:33.449Z</time>
</trkpt>
<trkpt lat="-27.2153225" lon="152.9004386">
<ele>77.055</ele>
<time>2017-09-17T03:58:36.438Z</time>
</trkpt>
<trkpt lat="-27.2155436" lon="152.9002493">
<ele>78.623</ele>
<time>2017-09-17T03:58:38.347Z</time>
</trkpt>
<trkpt lat="-27.2159401" lon="152.9001394">
<ele>80.115</ele>
<time>2017-09-17T03:58:41.324Z</time>
</trkpt>
<trkpt lat="-27.2163403" lon="152.9001838">
<ele>81.607</ele>
<time>2017-09-17T03:58:44.344Z</time>
</trkpt>
<trkpt lat="-27.2166107" lon="152.9003223">
<ele>83.344</ele>
<time>2017-09-17T03:58:46.506Z</time>
</trkpt>
<trkpt lat="-27.2169899" lon="152.9006175">
<ele>85.213</ele>
<time>2017-09-17T03:58:49.721Z</time>
</trkpt>
<trkpt lat="-27.2172849" lon="152.9009965">
<ele>86.637</ele>
<time>2017-09-17T03:58:52.749Z</time>
</trkpt>
<trkpt lat="-27.2174974" lon="152.9012326">
<ele>87.176</ele>
<time>2017-09-17T03:58:54.771Z</time>
</trkpt>
<trkpt lat="-27.2177162" lon="152.9014416">
<ele>86.808</ele>
<time>2017-09-17T03:58:56.719Z</time>
</trkpt>
<trkpt lat="-27.2179559" lon="152.9016136">
<ele>85.793</ele>
<time>2017-09-17T03:58:58.632Z</time>
</trkpt>
<trkpt lat="-27.2182650" lon="152.9016986">
<ele>84.428</ele>
<time>2017-09-17T03:59:00.671Z</time>
</trkpt>
<trkpt lat="-27.2186001" lon="152.9017904">
<ele>82.987</ele>
<time>2017-09-17T03:59:02.756Z</time>
</trkpt>
<trkpt lat="-27.2190592" lon="152.9019707">
<ele>81.764</ele>
<time>2017-09-17T03:59:05.681Z</time>
</trkpt>
<trkpt lat="-27.2195371" lon="152.9020383">
<ele>80.976</ele>
<time>2017-09-17T03:59:08.645Z</time>
</trkpt>
<trkpt lat="-27.2198538" lon="152.9021217">
<ele>80.721</ele>
<time>2017-09-17T03:59:10.713Z</time>
</trkpt>
<trkpt lat="-27.2201989" lon="152.9023663">
<ele>80.887</ele>
<time>2017-09-17T03:59:13.449Z</time>
</trkpt>
<trkpt lat="-27.2204356" lon="152.9028258">
<ele>81.093</ele>
<time>2017-09-17T03:59:16.619Z</time>
</trkpt>
<trkpt lat="-27.2206633" lon="152.9033151">
<ele>80.872</ele>
<time>2017-09-17T03:59:19.785Z</time>
</trkpt>
<trkpt lat="-27.2207434" lon="152.9036298">
<ele>79.927</ele>
<time>2017-09-17T03:59:21.766Z</time>
</trkpt>
<trkpt lat="-27.2208685" lon="152.9038789">
<ele>78.386</ele>
<time>2017-09-17T03:59:23.585Z</time>
</trkpt>
<trkpt lat="-27.2211221" lon="152.9040525">
<ele>76.723</ele>
<time>2017-09-17T03:59:25.639Z</time>
</trkpt>
<trkpt lat="-27.2215506" lon="152.9043291">
<ele>75.343</ele>
<time>2017-09-17T03:59:28.761Z</time>
</trkpt>
<trkpt lat="-27.2219783" lon="152.9046024">
<ele>74.291</ele>
<time>2017-09-17T03:59:31.757Z</time>
</trkpt>
<trkpt lat="-27.2224038" lon="152.9048370">
<ele>73.418</ele>
<time>2017-09-17T03:59:34.726Z</time>
</trkpt>
<trkpt lat="-27.2226035" lon="152.9051152">
<ele>72.728</ele>
<time>2017-09-17T03:59:36.766Z</time>
</trkpt>
<trkpt lat="-27.2227542" lon="152.9054441">
<ele>72.334</ele>
<time>2017-09-17T03:59:38.922Z</time>
</trkpt>
<trkpt lat="-27.2229500" lon="152.9058791">
<ele>72.201</ele>
<time>2017-09-17T03:59:41.867Z</time>
</trkpt>
<trkpt lat="-27.2231294" lon="152.9061003">
<ele>72.122</ele>
<time>2017-09-17T03:59:43.776Z</time>
</trkpt>
<trkpt lat="-27.2233771" lon="152.9062494">
<ele>71.941</ele>
<time>2017-09-17T03:59:45.792Z</time>
</trkpt>
<trkpt lat="-27.2237991" lon="152.9064667">
<ele>71.773</ele>
<time>2017-09-17T03:59:48.974Z</time>
</trkpt>
<trkpt lat="-27.2241249" lon="152.9065823">
<ele>71.907</ele>
<time>2017-09-17T03:59:51.142Z</time>
</trkpt>
<trkpt lat="-27.2245548" lon="152.9067830">
<ele>72.485</ele>
<time>2017-09-17T03:59:54.177Z</time>
</trkpt>
<trkpt lat="-27.2247645" lon="152.9068671">
<ele>73.468</ele>
<time>2017-09-17T03:59:55.944Z</time>
</trkpt>
<trkpt lat="-27.2249333" lon="152.9068590">
<ele>74.786</ele>
<time>2017-09-17T03:59:57.489Z</time>
</trkpt>
<trkpt lat="-27.2251014" lon="152.9067334">
<ele>76.380</ele>
<time>2017-09-17T03:59:59.338Z</time>
</trkpt>
<trkpt lat="-27.2253436" lon="152.9062784">
<ele>78.123</ele>
<time>2017-09-17T04:00:02.770Z</time>
</trkpt>
<trkpt lat="-27.2255669" lon="152.9058329">
<ele>79.886</ele>
<time>2017-09-17T04:00:05.733Z</time>
</trkpt>
<trkpt lat="-27.2257305" lon="152.9054646">
<ele>81.395</ele>
<time>2017-09-17T04:00:08.158Z</time>
</trkpt>
<trkpt lat="-27.2260406" lon="152.9051017">
<ele>82.307</ele>
<time>2017-09-17T04:00:11.160Z</time>
</trkpt>
<trkpt lat="-27.2263849" lon="152.9048395">
<ele>82.558</ele>
<time>2017-09-17T04:00:14.127Z</time>
</trkpt>
<trkpt lat="-27.2266948" lon="152.9046515">
<ele>82.316</ele>
<time>2017-09-17T04:00:17.007Z</time>
</trkpt>
<trkpt lat="-27.2270148" lon="152.9046376">
<ele>81.499</ele>
<time>2017-09-17T04:00:20.210Z</time>
</trkpt>
<trkpt lat="-27.2271468" lon="152.9047306">
<ele>79.775</ele>
<time>2017-09-17T04:00:22.008Z</time>
</trkpt>
<trkpt lat="-27.2273193" lon="152.9049742">
<ele>77.344</ele>
<time>2017-09-17T04:00:25.310Z</time>
</trkpt>
<trkpt lat="-27.2274341" lon="152.9051846">
<ele>74.925</ele>
<time>2017-09-17T04:00:28.183Z</time>
</trkpt>
<trkpt lat="-27.2275019" lon="152.9052917">
<ele>72.825</ele>
<time>2017-09-17T04:00:30.599Z</time>
</trkpt>
<trkpt lat="-27.2275915" lon="152.9052775">
<ele>70.963</ele>
<time>2017-09-17T04:00:33.000Z</time>
</trkpt>
<trkpt lat="-27.2275915" lon="152.9052775">
<ele>69.539</ele>
<time>2017-09-17T04:00:34.999Z</time>
</trkpt>
<trkpt lat="-27.2275915" lon="152.9052775">
<ele>68.888</ele>
<time>2017-09-17T04:00:35.099Z</time>
</trkpt>
<trkpt lat="-27.2277825" lon="152.9052993">
<ele>68.936</ele>
<time>2017-09-17T04:00:41.195Z</time>
</trkpt>
<trkpt lat="-27.2279512" lon="152.9054089">
<ele>68.832</ele>
<time>2017-09-17T04:00:43.255Z</time>
</trkpt>
<trkpt lat="-27.2281539" lon="152.9056795">
<ele>68.005</ele>
<time>2017-09-17T04:00:45.536Z</time>
</trkpt>
<trkpt lat="-27.2283900" lon="152.9060221">
<ele>67.247</ele>
<time>2017-09-17T04:00:47.876Z</time>
</trkpt>
<trkpt lat="-27.2287390" lon="152.9064509">
<ele>67.626</ele>
<time>2017-09-17T04:00:50.897Z</time>
</trkpt>
<trkpt lat="-27.2291300" lon="152.9067977">
<ele>69.102</ele>
<time>2017-09-17T04:00:53.836Z</time>
</trkpt>
<trkpt lat="-27.2295162" lon="152.9071328">
<ele>70.860</ele>
<time>2017-09-17T04:00:56.730Z</time>
</trkpt>
<trkpt lat="-27.2299309" lon="152.9074966">
<ele>72.185</ele>
<time>2017-09-17T04:00:59.763Z</time>
</trkpt>
<trkpt lat="-27.2302225" lon="152.9077482">
<ele>73.109</ele>
<time>2017-09-17T04:01:01.779Z</time>
</trkpt>
<trkpt lat="-27.2305309" lon="152.9079790">
<ele>74.059</ele>
<time>2017-09-17T04:01:03.774Z</time>
</trkpt>
<trkpt lat="-27.2308578" lon="152.9081776">
<ele>75.104</ele>
<time>2017-09-17T04:01:05.747Z</time>
</trkpt>
<trkpt lat="-27.2312853" lon="152.9086046">
<ele>75.995</ele>
<time>2017-09-17T04:01:08.748Z</time>
</trkpt>
<trkpt lat="-27.2317319" lon="152.9090108">
<ele>76.581</ele>
<time>2017-09-17T04:01:11.703Z</time>
</trkpt>
<trkpt lat="-27.2320497" lon="152.9092847">
<ele>76.837</ele>
<time>2017-09-17T04:01:13.681Z</time>
</trkpt>
<trkpt lat="-27.2323172" lon="152.9096477">
<ele>76.826</ele>
<time>2017-09-17T04:01:15.656Z</time>
</trkpt>
<trkpt lat="-27.2326045" lon="152.9100268">
<ele>76.686</ele>
<time>2017-09-17T04:01:17.685Z</time>
</trkpt>
<trkpt lat="-27.2330216" lon="152.9106093">
<ele>76.658</ele>
<time>2017-09-17T04:01:20.747Z</time>
</trkpt>
<trkpt lat="-27.2333782" lon="152.9111930">
<ele>76.860</ele>
<time>2017-09-17T04:01:23.678Z</time>
</trkpt>
<trkpt lat="-27.2335905" lon="152.9116144">
<ele>77.098</ele>
<time>2017-09-17T04:01:25.642Z</time>
</trkpt>
<trkpt lat="-27.2338290" lon="152.9120432">
<ele>77.108</ele>
<time>2017-09-17T04:01:27.650Z</time>
</trkpt>
<trkpt lat="-27.2341190" lon="152.9124389">
<ele>76.897</ele>
<time>2017-09-17T04:01:29.662Z</time>
</trkpt>
<trkpt lat="-27.2344413" lon="152.9131091">
<ele>76.643</ele>
<time>2017-09-17T04:01:32.628Z</time>
</trkpt>
<trkpt lat="-27.2346894" lon="152.9135364">
<ele>76.448</ele>
<time>2017-09-17T04:01:34.570Z</time>
</trkpt>
<trkpt lat="-27.2350705" lon="152.9142173">
<ele>76.118</ele>
<time>2017-09-17T04:01:37.579Z</time>
</trkpt>
<trkpt lat="-27.2355567" lon="152.9148313">
<ele>75.164</ele>
<time>2017-09-17T04:01:40.616Z</time>
</trkpt>
<trkpt lat="-27.2358406" lon="152.9152528">
<ele>73.218</ele>
<time>2017-09-17T04:01:42.673Z</time>
</trkpt>
<trkpt lat="-27.2362838" lon="152.9157650">
<ele>70.683</ele>
<time>2017-09-17T04:01:45.573Z</time>
</trkpt>
<trkpt lat="-27.2367325" lon="152.9162776">
<ele>68.383</ele>
<time>2017-09-17T04:01:48.536Z</time>
</trkpt>
<trkpt lat="-27.2370945" lon="152.9165603">
<ele>66.692</ele>
<time>2017-09-17T04:01:50.490Z</time>
</trkpt>
<trkpt lat="-27.2376273" lon="152.9170736">
<ele>65.602</ele>
<time>2017-09-17T04:01:53.530Z</time>
</trkpt>
<trkpt lat="-27.2380097" lon="152.9173676">
<ele>65.181</ele>
<time>2017-09-17T04:01:55.526Z</time>
</trkpt>
<trkpt lat="-27.2383759" lon="152.9176565">
<ele>65.383</ele>
<time>2017-09-17T04:01:57.505Z</time>
</trkpt>
<trkpt lat="-27.2389692" lon="152.9179700">
<ele>65.876</ele>
<time>2017-09-17T04:02:00.502Z</time>
</trkpt>
<trkpt lat="-27.2395185" lon="152.9182970">
<ele>66.381</ele>
<time>2017-09-17T04:02:03.491Z</time>
</trkpt>
<trkpt lat="-27.2400550" lon="152.9185258">
<ele>66.944</ele>
<time>2017-09-17T04:02:06.437Z</time>
</trkpt>
<trkpt lat="-27.2405536" lon="152.9186909">
<ele>67.775</ele>
<time>2017-09-17T04:02:09.282Z</time>
</trkpt>
<trkpt lat="-27.2408923" lon="152.9188461">
<ele>69.086</ele>
<time>2017-09-17T04:02:11.261Z</time>
</trkpt>
<trkpt lat="-27.2412572" lon="152.9190323">
<ele>71.101</ele>
<time>2017-09-17T04:02:13.259Z</time>
</trkpt>
<trkpt lat="-27.2418787" lon="152.9192604">
<ele>73.551</ele>
<time>2017-09-17T04:02:16.318Z</time>
</trkpt>
<trkpt lat="-27.2423056" lon="152.9194481">
<ele>75.527</ele>
<time>2017-09-17T04:02:18.380Z</time>
</trkpt>
<trkpt lat="-27.2428993" lon="152.9197078">
<ele>76.457</ele>
<time>2017-09-17T04:02:21.363Z</time>
</trkpt>
<trkpt lat="-27.2433917" lon="152.9199847">
<ele>76.670</ele>
<time>2017-09-17T04:02:24.192Z</time>
</trkpt>
<trkpt lat="-27.2436819" lon="152.9201955">
<ele>76.921</ele>
<time>2017-09-17T04:02:26.135Z</time>
</trkpt>
<trkpt lat="-27.2439581" lon="152.9204174">
<ele>79.275</ele>
<time>2017-09-17T04:02:28.100Z</time>
</trkpt>
<trkpt lat="-27.2442420" lon="152.9206281">
<ele>84.862</ele>
<time>2017-09-17T04:02:30.085Z</time>
</trkpt>
<trkpt lat="-27.2445318" lon="152.9208330">
<ele>91.019</ele>
<time>2017-09-17T04:02:32.111Z</time>
</trkpt>
<trkpt lat="-27.2447829" lon="152.9210465">
<ele>94.772</ele>
<time>2017-09-17T04:02:33.987Z</time>
</trkpt>
<trkpt lat="-27.2451872" lon="152.9213932">
<ele>96.314</ele>
<time>2017-09-17T04:02:36.957Z</time>
</trkpt>
<trkpt lat="-27.2454794" lon="152.9216450">
<ele>96.922</ele>
<time>2017-09-17T04:02:38.986Z</time>
</trkpt>
<trkpt lat="-27.2459357" lon="152.9220450">
<ele>97.292</ele>
<time>2017-09-17T04:02:42.064Z</time>
</trkpt>
<trkpt lat="-27.2463046" lon="152.9225505">
<ele>97.476</ele>
<time>2017-09-17T04:02:45.087Z</time>
</trkpt>
<trkpt lat="-27.2465528" lon="152.9228757">
<ele>97.346</ele>
<time>2017-09-17T04:02:47.041Z</time>
</trkpt>
<trkpt lat="-27.2469197" lon="152.9234087">
<ele>96.861</ele>
<time>2017-09-17T04:02:50.052Z</time>
</trkpt>
<trkpt lat="-27.2471366" lon="152.9237984">
<ele>96.120</ele>
<time>2017-09-17T04:02:52.059Z</time>
</trkpt>
<trkpt lat="-27.2473488" lon="152.9241910">
<ele>95.140</ele>
<time>2017-09-17T04:02:54.074Z</time>
</trkpt>
<trkpt lat="-27.2475425" lon="152.9245749">
<ele>93.717</ele>
<time>2017-09-17T04:02:56.045Z</time>
</trkpt>
<trkpt lat="-27.2478082" lon="152.9251478">
<ele>91.780</ele>
<time>2017-09-17T04:02:58.990Z</time>
</trkpt>
<trkpt lat="-27.2479451" lon="152.9255323">
<ele>89.440</ele>
<time>2017-09-17T04:03:00.949Z</time>
</trkpt>
<trkpt lat="-27.2481522" lon="152.9260865">
<ele>86.909</ele>
<time>2017-09-17T04:03:03.882Z</time>
</trkpt>
<trkpt lat="-27.2482625" lon="152.9264569">
<ele>84.270</ele>
<time>2017-09-17T04:03:05.863Z</time>
</trkpt>
<trkpt lat="-27.2483612" lon="152.9268210">
<ele>81.387</ele>
<time>2017-09-17T04:03:07.845Z</time>
</trkpt>
<trkpt lat="-27.2485167" lon="152.9273560">
<ele>78.251</ele>
<time>2017-09-17T04:03:10.816Z</time>
</trkpt>
<trkpt lat="-27.2485972" lon="152.9277199">
<ele>74.854</ele>
<time>2017-09-17T04:03:12.777Z</time>
</trkpt>
<trkpt lat="-27.2487055" lon="152.9283089">
<ele>71.171</ele>
<time>2017-09-17T04:03:15.861Z</time>
</trkpt>
<trkpt lat="-27.2486753" lon="152.9287115">
<ele>67.394</ele>
<time>2017-09-17T04:03:17.910Z</time>
</trkpt>
<trkpt lat="-27.2484509" lon="152.9292101">
<ele>63.911</ele>
<time>2017-09-17T04:03:20.812Z</time>
</trkpt>
<trkpt lat="-27.2482275" lon="152.9296632">
<ele>61.253</ele>
<time>2017-09-17T04:03:23.668Z</time>
</trkpt>
<trkpt lat="-27.2481151" lon="152.9299478">
<ele>59.651</ele>
<time>2017-09-17T04:03:25.515Z</time>
</trkpt>
<trkpt lat="-27.2479301" lon="152.9303747">
<ele>58.849</ele>
<time>2017-09-17T04:03:28.400Z</time>
</trkpt>
<trkpt lat="-27.2478081" lon="152.9306934">
<ele>58.578</ele>
<time>2017-09-17T04:03:30.441Z</time>
</trkpt>
<trkpt lat="-27.2477550" lon="152.9310516">
<ele>58.487</ele>
<time>2017-09-17T04:03:32.489Z</time>
</trkpt>
<trkpt lat="-27.2477917" lon="152.9316121">
<ele>58.186</ele>
<time>2017-09-17T04:03:35.555Z</time>
</trkpt>
<trkpt lat="-27.2479191" lon="152.9319615">
<ele>57.456</ele>
<time>2017-09-17T04:03:37.571Z</time>
</trkpt>
<trkpt lat="-27.2481090" lon="152.9322830">
<ele>56.315</ele>
<time>2017-09-17T04:03:39.624Z</time>
</trkpt>
<trkpt lat="-27.2484722" lon="152.9326736">
<ele>54.987</ele>
<time>2017-09-17T04:03:42.660Z</time>
</trkpt>
<trkpt lat="-27.2487274" lon="152.9328840">
<ele>53.658</ele>
<time>2017-09-17T04:03:44.610Z</time>
</trkpt>
<trkpt lat="-27.2491047" lon="152.9332179">
<ele>52.378</ele>
<time>2017-09-17T04:03:47.581Z</time>
</trkpt>
<trkpt lat="-27.2493436" lon="152.9334544">
<ele>51.195</ele>
<time>2017-09-17T04:03:49.552Z</time>
</trkpt>
<trkpt lat="-27.2497027" lon="152.9338108">
<ele>50.187</ele>
<time>2017-09-17T04:03:52.521Z</time>
</trkpt>
<trkpt lat="-27.2500834" lon="152.9341821">
<ele>49.445</ele>
<time>2017-09-17T04:03:55.593Z</time>
</trkpt>
<trkpt lat="-27.2504002" lon="152.9346180">
<ele>48.979</ele>
<time>2017-09-17T04:03:58.577Z</time>
</trkpt>
<trkpt lat="-27.2506941" lon="152.9350963">
<ele>48.578</ele>
<time>2017-09-17T04:04:01.605Z</time>
</trkpt>
<trkpt lat="-27.2509187" lon="152.9353988">
<ele>47.773</ele>
<time>2017-09-17T04:04:03.640Z</time>
</trkpt>
<trkpt lat="-27.2510820" lon="152.9357341">
<ele>46.314</ele>
<time>2017-09-17T04:04:05.616Z</time>
</trkpt>
<trkpt lat="-27.2512251" lon="152.9360929">
<ele>44.584</ele>
<time>2017-09-17T04:04:07.637Z</time>
</trkpt>
<trkpt lat="-27.2513954" lon="152.9366540">
<ele>43.075</ele>
<time>2017-09-17T04:04:10.654Z</time>
</trkpt>
<trkpt lat="-27.2515455" lon="152.9370137">
<ele>41.702</ele>
<time>2017-09-17T04:04:12.692Z</time>
</trkpt>
<trkpt lat="-27.2517773" lon="152.9372745">
<ele>40.205</ele>
<time>2017-09-17T04:04:14.659Z</time>
</trkpt>
<trkpt lat="-27.2520296" lon="152.9375167">
<ele>38.663</ele>
<time>2017-09-17T04:04:16.716Z</time>
</trkpt>
<trkpt lat="-27.2522690" lon="152.9377609">
<ele>37.326</ele>
<time>2017-09-17T04:04:18.731Z</time>
</trkpt>
<trkpt lat="-27.2526205" lon="152.9381187">
<ele>36.249</ele>
<time>2017-09-17T04:04:21.692Z</time>
</trkpt>
<trkpt lat="-27.2528615" lon="152.9383641">
<ele>35.392</ele>
<time>2017-09-17T04:04:23.718Z</time>
</trkpt>
<trkpt lat="-27.2530455" lon="152.9386775">
<ele>34.797</ele>
<time>2017-09-17T04:04:25.740Z</time>
</trkpt>
<trkpt lat="-27.2532424" lon="152.9390170">
<ele>34.553</ele>
<time>2017-09-17T04:04:27.808Z</time>
</trkpt>
<trkpt lat="-27.2535475" lon="152.9395300">
<ele>34.640</ele>
<time>2017-09-17T04:04:30.843Z</time>
</trkpt>
<trkpt lat="-27.2538226" lon="152.9400652">
<ele>34.952</ele>
<time>2017-09-17T04:04:33.833Z</time>
</trkpt>
<trkpt lat="-27.2540771" lon="152.9406190">
<ele>35.511</ele>
<time>2017-09-17T04:04:36.837Z</time>
</trkpt>
<trkpt lat="-27.2542176" lon="152.9409853">
<ele>36.599</ele>
<time>2017-09-17T04:04:38.815Z</time>
</trkpt>
<trkpt lat="-27.2544058" lon="152.9414992">
<ele>38.303</ele>
<time>2017-09-17T04:04:41.708Z</time>
</trkpt>
<trkpt lat="-27.2544965" lon="152.9418243">
<ele>40.126</ele>
<time>2017-09-17T04:04:43.628Z</time>
</trkpt>
<trkpt lat="-27.2546132" lon="152.9422841">
<ele>41.424</ele>
<time>2017-09-17T04:04:46.475Z</time>
</trkpt>
<trkpt lat="-27.2547242" lon="152.9427411">
<ele>41.850</ele>
<time>2017-09-17T04:04:49.398Z</time>
</trkpt>
<trkpt lat="-27.2547971" lon="152.9430825">
<ele>41.298</ele>
<time>2017-09-17T04:04:51.462Z</time>
</trkpt>
<trkpt lat="-27.2548981" lon="152.9434335">
<ele>40.003</ele>
<time>2017-09-17T04:04:53.503Z</time>
</trkpt>
<trkpt lat="-27.2549850" lon="152.9437967">
<ele>38.516</ele>
<time>2017-09-17T04:04:55.502Z</time>
</trkpt>
<trkpt lat="-27.2551021" lon="152.9443664">
<ele>37.267</ele>
<time>2017-09-17T04:04:58.514Z</time>
</trkpt>
<trkpt lat="-27.2551479" lon="152.9447678">
<ele>36.227</ele>
<time>2017-09-17T04:05:00.521Z</time>
</trkpt>
<trkpt lat="-27.2551700" lon="152.9453874">
<ele>35.097</ele>
<time>2017-09-17T04:05:03.532Z</time>
</trkpt>
<trkpt lat="-27.2551748" lon="152.9457925">
<ele>33.394</ele>
<time>2017-09-17T04:05:05.521Z</time>
</trkpt>
<trkpt lat="-27.2551915" lon="152.9463804">
<ele>30.837</ele>
<time>2017-09-17T04:05:08.466Z</time>
</trkpt>
<trkpt lat="-27.2551819" lon="152.9469772">
<ele>27.731</ele>
<time>2017-09-17T04:05:11.456Z</time>
</trkpt>
<trkpt lat="-27.2551525" lon="152.9473535">
<ele>24.783</ele>
<time>2017-09-17T04:05:13.373Z</time>
</trkpt>
<trkpt lat="-27.2551672" lon="152.9477083">
<ele>22.674</ele>
<time>2017-09-17T04:05:15.242Z</time>
</trkpt>
<trkpt lat="-27.2552124" lon="152.9480771">
<ele>21.693</ele>
<time>2017-09-17T04:05:17.230Z</time>
</trkpt>
<trkpt lat="-27.2553950" lon="152.9486397">
<ele>21.602</ele>
<time>2017-09-17T04:05:20.306Z</time>
</trkpt>
<trkpt lat="-27.2555886" lon="152.9489877">
<ele>22.175</ele>
<time>2017-09-17T04:05:22.329Z</time>
</trkpt>
<trkpt lat="-27.2558463" lon="152.9492879">
<ele>23.170</ele>
<time>2017-09-17T04:05:24.366Z</time>
</trkpt>
<trkpt lat="-27.2562683" lon="152.9496635">
<ele>24.082</ele>
<time>2017-09-17T04:05:27.331Z</time>
</trkpt>
<trkpt lat="-27.2565891" lon="152.9498446">
<ele>24.429</ele>
<time>2017-09-17T04:05:29.329Z</time>
</trkpt>
<trkpt lat="-27.2569191" lon="152.9500187">
<ele>24.026</ele>
<time>2017-09-17T04:05:31.358Z</time>
</trkpt>
<trkpt lat="-27.2573825" lon="152.9503309">
<ele>22.967</ele>
<time>2017-09-17T04:05:34.343Z</time>
</trkpt>
<trkpt lat="-27.2577048" lon="152.9505424">
<ele>21.347</ele>
<time>2017-09-17T04:05:36.391Z</time>
</trkpt>
<trkpt lat="-27.2581211" lon="152.9509477">
<ele>19.225</ele>
<time>2017-09-17T04:05:39.405Z</time>
</trkpt>
<trkpt lat="-27.2583034" lon="152.9513278">
<ele>16.816</ele>
<time>2017-09-17T04:05:41.507Z</time>
</trkpt>
<trkpt lat="-27.2585792" lon="152.9518533">
<ele>14.555</ele>
<time>2017-09-17T04:05:44.513Z</time>
</trkpt>
<trkpt lat="-27.2587522" lon="152.9521605">
<ele>12.944</ele>
<time>2017-09-17T04:05:46.385Z</time>
</trkpt>
<trkpt lat="-27.2589063" lon="152.9524384">
<ele>12.081</ele>
<time>2017-09-17T04:05:48.196Z</time>
</trkpt>
<trkpt lat="-27.2591110" lon="152.9528539">
<ele>11.542</ele>
<time>2017-09-17T04:05:51.048Z</time>
</trkpt>
<trkpt lat="-27.2592727" lon="152.9531136">
<ele>10.923</ele>
<time>2017-09-17T04:05:53.015Z</time>
</trkpt>
<trkpt lat="-27.2594887" lon="152.9535558">
<ele>10.029</ele>
<time>2017-09-17T04:05:56.064Z</time>
</trkpt>
<trkpt lat="-27.2597664" lon="152.9540069">
<ele>8.754</ele>
<time>2017-09-17T04:05:59.179Z</time>
</trkpt>
<trkpt lat="-27.2599337" lon="152.9543133">
<ele>7.215</ele>
<time>2017-09-17T04:06:01.159Z</time>
</trkpt>
<trkpt lat="-27.2600652" lon="152.9545925">
<ele>5.896</ele>
<time>2017-09-17T04:06:02.986Z</time>
</trkpt>
<trkpt lat="-27.2602717" lon="152.9549852">
<ele>5.251</ele>
<time>2017-09-17T04:06:05.874Z</time>
</trkpt>
<trkpt lat="-27.2604846" lon="152.9553451">
<ele>5.222</ele>
<time>2017-09-17T04:06:08.760Z</time>
</trkpt>
<trkpt lat="-27.2607209" lon="152.9557526">
<ele>5.466</ele>
<time>2017-09-17T04:06:11.894Z</time>
</trkpt>
<trkpt lat="-27.2609790" lon="152.9561179">
<ele>5.697</ele>
<time>2017-09-17T04:06:14.786Z</time>
</trkpt>
<trkpt lat="-27.2612592" lon="152.9564591">
<ele>5.635</ele>
<time>2017-09-17T04:06:17.720Z</time>
</trkpt>
<trkpt lat="-27.2614642" lon="152.9566658">
<ele>4.759</ele>
<time>2017-09-17T04:06:19.717Z</time>
</trkpt>
<trkpt lat="-27.2617341" lon="152.9569154">
<ele>2.850</ele>
<time>2017-09-17T04:06:22.457Z</time>
</trkpt>
<trkpt lat="-27.2618726" lon="152.9570458">
<ele>0.288</ele>
<time>2017-09-17T04:06:24.050Z</time>
</trkpt>
<trkpt lat="-27.2620372" lon="152.9571826">
<ele>0.000</ele>
<time>2017-09-17T04:06:26.248Z</time>
</trkpt>
<trkpt lat="-27.2621790" lon="152.9573268">
<ele>0.000</ele>
<time>2017-09-17T04:06:28.696Z</time>
</trkpt>
<trkpt lat="-27.2622551" lon="152.9574316">
<ele>0.000</ele>
<time>2017-09-17T04:06:30.512Z</time>
</trkpt>
<trkpt lat="-27.2623263" lon="152.9575097">
<ele>0.000</ele>
<time>2017-09-17T04:06:32.119Z</time>
</trkpt>
<trkpt lat="-27.2624273" lon="152.9576015">
<ele>0.000</ele>
<time>2017-09-17T04:06:34.381Z</time>
</trkpt>
<trkpt lat="-27.2625054" lon="152.9576767">
<ele>0.000</ele>
<time>2017-09-17T04:06:36.369Z</time>
</trkpt>
<trkpt lat="-27.2625888" lon="152.9577955">
<ele>0.000</ele>
<time>2017-09-17T04:06:39.501Z</time>
</trkpt>
<trkpt lat="-27.2627260" lon="152.9578145">
<ele>0.000</ele>
<time>2017-09-17T04:06:43.542Z</time>
</trkpt>
<trkpt lat="-27.2628556" lon="152.9576956">
<ele>0.000</ele>
<time>2017-09-17T04:06:47.967Z</time>
</trkpt>
<trkpt lat="-27.2629703" lon="152.9574661">
<ele>0.000</ele>
<time>2017-09-17T04:06:51.242Z</time>
</trkpt>
<trkpt lat="-27.2632760" lon="152.9572003">
<ele>0.000</ele>
<time>2017-09-17T04:06:54.983Z</time>
</trkpt>
<trkpt lat="-27.2636132" lon="152.9570034">
<ele>0.000</ele>
<time>2017-09-17T04:06:58.112Z</time>
</trkpt>
<trkpt lat="-27.2638802" lon="152.9568900">
<ele>0.000</ele>
<time>2017-09-17T04:07:00.239Z</time>
</trkpt>
<trkpt lat="-27.2643042" lon="152.9566797">
<ele>0.000</ele>
<time>2017-09-17T04:07:03.383Z</time>
</trkpt>
<trkpt lat="-27.2645960" lon="152.9565772">
<ele>0.000</ele>
<time>2017-09-17T04:07:05.372Z</time>
</trkpt>
<trkpt lat="-27.2650280" lon="152.9563986">
<ele>0.000</ele>
<time>2017-09-17T04:07:08.414Z</time>
</trkpt>
<trkpt lat="-27.2654000" lon="152.9562303">
<ele>0.000</ele>
<time>2017-09-17T04:07:11.317Z</time>
</trkpt>
<trkpt lat="-27.2657283" lon="152.9561544">
<ele>0.000</ele>
<time>2017-09-17T04:07:14.075Z</time>
</trkpt>
<trkpt lat="-27.2659735" lon="152.9561744">
<ele>0.000</ele>
<time>2017-09-17T04:07:16.174Z</time>
</trkpt>
<trkpt lat="-27.2663136" lon="152.9563508">
<ele>0.000</ele>
<time>2017-09-17T04:07:19.243Z</time>
</trkpt>
<trkpt lat="-27.2665463" lon="152.9564647">
<ele>0.000</ele>
<time>2017-09-17T04:07:21.265Z</time>
</trkpt>
<trkpt lat="-27.2669040" lon="152.9565749">
<ele>0.000</ele>
<time>2017-09-17T04:07:24.330Z</time>
</trkpt>
<trkpt lat="-27.2672133" lon="152.9565204">
<ele>0.000</ele>
<time>2017-09-17T04:07:27.154Z</time>
</trkpt>
<trkpt lat="-27.2674178" lon="152.9564155">
<ele>0.000</ele>
<time>2017-09-17T04:07:29.263Z</time>
</trkpt>
<trkpt lat="-27.2675536" lon="152.9560588">
<ele>0.000</ele>
<time>2017-09-17T04:07:32.405Z</time>
</trkpt>
<trkpt lat="-27.2675305" lon="152.9557616">
<ele>0.000</ele>
<time>2017-09-17T04:07:34.594Z</time>
</trkpt>
<trkpt lat="-27.2675935" lon="152.9552896">
<ele>0.000</ele>
<time>2017-09-17T04:07:37.797Z</time>
</trkpt>
<trkpt lat="-27.2675975" lon="152.9547904">
<ele>0.000</ele>
<time>2017-09-17T04:07:40.936Z</time>
</trkpt>
<trkpt lat="-27.2676008" lon="152.9544602">
<ele>0.000</ele>
<time>2017-09-17T04:07:42.952Z</time>
</trkpt>
<trkpt lat="-27.2676166" lon="152.9541269">
<ele>0.000</ele>
<time>2017-09-17T04:07:45.027Z</time>
</trkpt>
<trkpt lat="-27.2678498" lon="152.9537304">
<ele>0.000</ele>
<time>2017-09-17T04:07:48.049Z</time>
</trkpt>
<trkpt lat="-27.2681095" lon="152.9535416">
<ele>0.000</ele>
<time>2017-09-17T04:07:50.244Z</time>
</trkpt>
<trkpt lat="-27.2684971" lon="152.9533809">
<ele>0.000</ele>
<time>2017-09-17T04:07:53.232Z</time>
</trkpt>
<trkpt lat="-27.2687396" lon="152.9533095">
<ele>2.173</ele>
<time>2017-09-17T04:07:55.226Z</time>
</trkpt>
<trkpt lat="-27.2690835" lon="152.9532300">
<ele>3.975</ele>
<time>2017-09-17T04:07:58.338Z</time>
</trkpt>
<trkpt lat="-27.2692407" lon="152.9531773">
<ele>4.603</ele>
<time>2017-09-17T04:08:00.226Z</time>
</trkpt>
<trkpt lat="-27.2693452" lon="152.9531328">
<ele>4.088</ele>
<time>2017-09-17T04:08:02.026Z</time>
</trkpt>
<trkpt lat="-27.2694397" lon="152.9531041">
<ele>2.914</ele>
<time>2017-09-17T04:08:03.998Z</time>
</trkpt>
<trkpt lat="-27.2694397" lon="152.9531041">
<ele>1.755</ele>
<time>2017-09-17T04:08:09.998Z</time>
</trkpt>
<trkpt lat="-27.2694397" lon="152.9531041">
<ele>1.165</ele>
<time>2017-09-17T04:08:13.148Z</time>
</trkpt>
<trkpt lat="-27.2696302" lon="152.9529121">
<ele>1.220</ele>
<time>2017-09-17T04:08:19.819Z</time>
</trkpt>
<trkpt lat="-27.2696187" lon="152.9526512">
<ele>1.143</ele>
<time>2017-09-17T04:08:22.310Z</time>
</trkpt>
<trkpt lat="-27.2695697" lon="152.9523759">
<ele>0.372</ele>
<time>2017-09-17T04:08:24.553Z</time>
</trkpt>
<trkpt lat="-27.2694773" lon="152.9521416">
<ele>0.000</ele>
<time>2017-09-17T04:08:26.397Z</time>
</trkpt>
<trkpt lat="-27.2694396" lon="152.9516717">
<ele>0.000</ele>
<time>2017-09-17T04:08:29.395Z</time>
</trkpt>
<trkpt lat="-27.2693641" lon="152.9513459">
<ele>0.000</ele>
<time>2017-09-17T04:08:31.333Z</time>
</trkpt>
<trkpt lat="-27.2692876" lon="152.9508250">
<ele>0.426</ele>
<time>2017-09-17T04:08:34.254Z</time>
</trkpt>
<trkpt lat="-27.2692405" lon="152.9504741">
<ele>1.778</ele>
<time>2017-09-17T04:08:36.188Z</time>
</trkpt>
<trkpt lat="-27.2692149" lon="152.9501158">
<ele>3.370</ele>
<time>2017-09-17T04:08:38.108Z</time>
</trkpt>
<trkpt lat="-27.2691218" lon="152.9495657">
<ele>4.956</ele>
<time>2017-09-17T04:08:41.018Z</time>
</trkpt>
<trkpt lat="-27.2690361" lon="152.9489881">
<ele>6.422</ele>
<time>2017-09-17T04:08:43.953Z</time>
</trkpt>
<trkpt lat="-27.2689686" lon="152.9485841">
<ele>7.833</ele>
<time>2017-09-17T04:08:45.951Z</time>
</trkpt>
<trkpt lat="-27.2688986" lon="152.9479961">
<ele>9.149</ele>
<time>2017-09-17T04:08:48.860Z</time>
</trkpt>
<trkpt lat="-27.2688311" lon="152.9474276">
<ele>10.271</ele>
<time>2017-09-17T04:08:51.737Z</time>
</trkpt>
<trkpt lat="-27.2687588" lon="152.9470661">
<ele>11.147</ele>
<time>2017-09-17T04:08:53.741Z</time>
</trkpt>
<trkpt lat="-27.2686898" lon="152.9465717">
<ele>11.726</ele>
<time>2017-09-17T04:08:56.643Z</time>
</trkpt>
<trkpt lat="-27.2686224" lon="152.9461279">
<ele>12.015</ele>
<time>2017-09-17T04:08:59.435Z</time>
</trkpt>
<trkpt lat="-27.2685808" lon="152.9458191">
<ele>12.143</ele>
<time>2017-09-17T04:09:01.345Z</time>
</trkpt>
<trkpt lat="-27.2685458" lon="152.9453127">
<ele>12.270</ele>
<time>2017-09-17T04:09:04.355Z</time>
</trkpt>
<trkpt lat="-27.2684661" lon="152.9449875">
<ele>12.595</ele>
<time>2017-09-17T04:09:06.297Z</time>
</trkpt>
<trkpt lat="-27.2684189" lon="152.9446529">
<ele>13.305</ele>
<time>2017-09-17T04:09:08.226Z</time>
</trkpt>
<trkpt lat="-27.2683668" lon="152.9441402">
<ele>14.383</ele>
<time>2017-09-17T04:09:11.137Z</time>
</trkpt>
<trkpt lat="-27.2682929" lon="152.9438050">
<ele>15.590</ele>
<time>2017-09-17T04:09:13.039Z</time>
</trkpt>
<trkpt lat="-27.2682457" lon="152.9434413">
<ele>16.586</ele>
<time>2017-09-17T04:09:15.009Z</time>
</trkpt>
<trkpt lat="-27.2681736" lon="152.9428889">
<ele>17.120</ele>
<time>2017-09-17T04:09:17.944Z</time>
</trkpt>
<trkpt lat="-27.2681105" lon="152.9425156">
<ele>17.236</ele>
<time>2017-09-17T04:09:19.924Z</time>
</trkpt>
<trkpt lat="-27.2680647" lon="152.9421621">
<ele>17.225</ele>
<time>2017-09-17T04:09:21.830Z</time>
</trkpt>
<trkpt lat="-27.2680495" lon="152.9418285">
<ele>17.364</ele>
<time>2017-09-17T04:09:23.718Z</time>
</trkpt>
<trkpt lat="-27.2680213" lon="152.9415216">
<ele>17.849</ele>
<time>2017-09-17T04:09:25.603Z</time>
</trkpt>
<trkpt lat="-27.2679677" lon="152.9411148">
<ele>18.793</ele>
<time>2017-09-17T04:09:28.320Z</time>
</trkpt>
<trkpt lat="-27.2680313" lon="152.9407823">
<ele>20.097</ele>
<time>2017-09-17T04:09:30.898Z</time>
</trkpt>
<trkpt lat="-27.2682442" lon="152.9406771">
<ele>21.417</ele>
<time>2017-09-17T04:09:32.997Z</time>
</trkpt>
<trkpt lat="-27.2685282" lon="152.9407023">
<ele>22.482</ele>
<time>2017-09-17T04:09:35.258Z</time>
</trkpt>
<trkpt lat="-27.2690323" lon="152.9407417">
<ele>23.341</ele>
<time>2017-09-17T04:09:38.621Z</time>
</trkpt>
<trkpt lat="-27.2693634" lon="152.9407154">
<ele>24.264</ele>
<time>2017-09-17T04:09:40.648Z</time>
</trkpt>
<trkpt lat="-27.2698375" lon="152.9406998">
<ele>25.372</ele>
<time>2017-09-17T04:09:43.583Z</time>
</trkpt>
<trkpt lat="-27.2702816" lon="152.9407227">
<ele>26.451</ele>
<time>2017-09-17T04:09:46.469Z</time>
</trkpt>
<trkpt lat="-27.2705540" lon="152.9407494">
<ele>27.199</ele>
<time>2017-09-17T04:09:48.350Z</time>
</trkpt>
<trkpt lat="-27.2708114" lon="152.9407928">
<ele>27.502</ele>
<time>2017-09-17T04:09:50.220Z</time>
</trkpt>
<trkpt lat="-27.2710634" lon="152.9407922">
<ele>27.443</ele>
<time>2017-09-17T04:09:52.108Z</time>
</trkpt>
<trkpt lat="-27.2714001" lon="152.9408354">
<ele>27.188</ele>
<time>2017-09-17T04:09:54.872Z</time>
</trkpt>
<trkpt lat="-27.2715920" lon="152.9408697">
<ele>26.779</ele>
<time>2017-09-17T04:09:56.659Z</time>
</trkpt>
<trkpt lat="-27.2718609" lon="152.9408486">
<ele>26.213</ele>
<time>2017-09-17T04:09:59.376Z</time>
</trkpt>
<trkpt lat="-27.2721247" lon="152.9408761">
<ele>25.625</ele>
<time>2017-09-17T04:10:02.205Z</time>
</trkpt>
<trkpt lat="-27.2723493" lon="152.9408589">
<ele>25.185</ele>
<time>2017-09-17T04:10:04.790Z</time>
</trkpt>
<trkpt lat="-27.2724352" lon="152.9407843">
<ele>24.951</ele>
<time>2017-09-17T04:10:06.086Z</time>
</trkpt>
<trkpt lat="-27.2724544" lon="152.9406632">
<ele>24.859</ele>
<time>2017-09-17T04:10:07.698Z</time>
</trkpt>
<trkpt lat="-27.2724897" lon="152.9404440">
<ele>24.795</ele>
<time>2017-09-17T04:10:11.338Z</time>
</trkpt>
<trkpt lat="-27.2725697" lon="152.9403373">
<ele>24.729</ele>
<time>2017-09-17T04:10:13.810Z</time>
</trkpt>
<trkpt lat="-27.2727716" lon="152.9402884">
<ele>24.759</ele>
<time>2017-09-17T04:10:17.307Z</time>
</trkpt>
<trkpt lat="-27.2729645" lon="152.9402714">
<ele>25.059</ele>
<time>2017-09-17T04:10:20.259Z</time>
</trkpt>
<trkpt lat="-27.2731528" lon="152.9402547">
<ele>25.728</ele>
<time>2017-09-17T04:10:23.203Z</time>
</trkpt>
<trkpt lat="-27.2732634" lon="152.9401791">
<ele>26.689</ele>
<time>2017-09-17T04:10:25.319Z</time>
</trkpt>
<trkpt lat="-27.2733234" lon="152.9400630">
<ele>27.696</ele>
<time>2017-09-17T04:10:27.414Z</time>
</trkpt>
<trkpt lat="-27.2733508" lon="152.9399562">
<ele>28.425</ele>
<time>2017-09-17T04:10:29.276Z</time>
</trkpt>
<trkpt lat="-27.2734573" lon="152.9398031">
<ele>28.739</ele>
<time>2017-09-17T04:10:32.699Z</time>
</trkpt>
<trkpt lat="-27.2736080" lon="152.9398253">
<ele>28.766</ele>
<time>2017-09-17T04:10:35.660Z</time>
</trkpt>
<trkpt lat="-27.2736920" lon="152.9399100">
<ele>28.719</ele>
<time>2017-09-17T04:10:37.801Z</time>
</trkpt>
<trkpt lat="-27.2737809" lon="152.9399517">
<ele>28.780</ele>
<time>2017-09-17T04:10:39.658Z</time>
</trkpt>
<trkpt lat="-27.2739112" lon="152.9399627">
<ele>29.022</ele>
<time>2017-09-17T04:10:42.334Z</time>
</trkpt>
<trkpt lat="-27.2740028" lon="152.9399658">
<ele>29.386</ele>
<time>2017-09-17T04:10:44.349Z</time>
</trkpt>
<trkpt lat="-27.2740648" lon="152.9398426">
<ele>29.736</ele>
<time>2017-09-17T04:10:47.270Z</time>
</trkpt>
<trkpt lat="-27.2740731" lon="152.9397383">
<ele>29.957</ele>
<time>2017-09-17T04:10:49.402Z</time>
</trkpt>
<trkpt lat="-27.2740402" lon="152.9396195">
<ele>30.015</ele>
<time>2017-09-17T04:10:52.090Z</time>
</trkpt>
<trkpt lat="-27.2738629" lon="152.9396040">
<ele>29.900</ele>
<time>2017-09-17T04:10:56.572Z</time>
</trkpt>
<trkpt lat="-27.2737273" lon="152.9396355">
<ele>29.601</ele>
<time>2017-09-17T04:10:59.711Z</time>
</trkpt>
<trkpt lat="-27.2736201" lon="152.9396753">
<ele>29.148</ele>
<time>2017-09-17T04:11:02.081Z</time>
</trkpt>
<trkpt lat="-27.2734915" lon="152.9396347">
<ele>28.633</ele>
<time>2017-09-17T04:11:05.095Z</time>
</trkpt>
<trkpt lat="-27.2733742" lon="152.9396070">
<ele>28.127</ele>
<time>2017-09-17T04:11:08.313Z</time>
</trkpt>
<trkpt lat="-27.2732749" lon="152.9396364">
<ele>27.632</ele>
<time>2017-09-17T04:11:11.599Z</time>
</trkpt>
<trkpt lat="-27.2731853" lon="152.9396761">
<ele>27.177</ele>
<time>2017-09-17T04:11:14.892Z</time>
</trkpt>
<trkpt lat="-27.2730706" lon="152.9397010">
<ele>26.841</ele>
<time>2017-09-17T04:11:19.998Z</time>
</trkpt>
<trkpt lat="-27.2730706" lon="152.9397010">
<ele>26.654</ele>
<time>2017-09-17T04:11:22.998Z</time>
</trkpt>
<trkpt lat="-27.2730706" lon="152.9397010">
<ele>26.587</ele>
<time>2017-09-17T04:46:12.120Z</time>
</trkpt>
<trkpt lat="-27.2729738" lon="152.9398973">
<ele>26.588</ele>
<time>2017-09-17T04:46:26.128Z</time>
</trkpt>
<trkpt lat="-27.2728989" lon="152.9399843">
<ele>26.494</ele>
<time>2017-09-17T04:46:29.710Z</time>
</trkpt>
<trkpt lat="-27.2728627" lon="152.9400869">
<ele>26.213</ele>
<time>2017-09-17T04:46:32.426Z</time>
</trkpt>
<trkpt lat="-27.2728218" lon="152.9402091">
<ele>25.950</ele>
<time>2017-09-17T04:46:35.061Z</time>
</trkpt>
<trkpt lat="-27.2726943" lon="152.9402933">
<ele>25.902</ele>
<time>2017-09-17T04:46:37.935Z</time>
</trkpt>
<trkpt lat="-27.2725397" lon="152.9403593">
<ele>25.982</ele>
<time>2017-09-17T04:46:41.223Z</time>
</trkpt>
<trkpt lat="-27.2724170" lon="152.9404434">
<ele>25.993</ele>
<time>2017-09-17T04:46:44.489Z</time>
</trkpt>
<trkpt lat="-27.2723798" lon="152.9405856">
<ele>25.752</ele>
<time>2017-09-17T04:46:48.208Z</time>
</trkpt>
<trkpt lat="-27.2723652" lon="152.9407005">
<ele>25.227</ele>
<time>2017-09-17T04:46:51.711Z</time>
</trkpt>
<trkpt lat="-27.2723281" lon="152.9407967">
<ele>24.543</ele>
<time>2017-09-17T04:46:53.629Z</time>
</trkpt>
<trkpt lat="-27.2720760" lon="152.9408309">
<ele>23.918</ele>
<time>2017-09-17T04:46:57.036Z</time>
</trkpt>
<trkpt lat="-27.2718621" lon="152.9408386">
<ele>23.557</ele>
<time>2017-09-17T04:46:59.035Z</time>
</trkpt>
<trkpt lat="-27.2715111" lon="152.9408441">
<ele>23.491</ele>
<time>2017-09-17T04:47:02.007Z</time>
</trkpt>
<trkpt lat="-27.2712417" lon="152.9408330">
<ele>23.641</ele>
<time>2017-09-17T04:47:03.978Z</time>
</trkpt>
<trkpt lat="-27.2709536" lon="152.9408186">
<ele>23.961</ele>
<time>2017-09-17T04:47:05.933Z</time>
</trkpt>
<trkpt lat="-27.2704917" lon="152.9407958">
<ele>24.479</ele>
<time>2017-09-17T04:47:08.968Z</time>
</trkpt>
<trkpt lat="-27.2700284" lon="152.9407913">
<ele>25.256</ele>
<time>2017-09-17T04:47:11.987Z</time>
</trkpt>
<trkpt lat="-27.2695819" lon="152.9407552">
<ele>26.211</ele>
<time>2017-09-17T04:47:14.985Z</time>
</trkpt>
<trkpt lat="-27.2691489" lon="152.9407354">
<ele>27.043</ele>
<time>2017-09-17T04:47:18.017Z</time>
</trkpt>
<trkpt lat="-27.2687517" lon="152.9407090">
<ele>27.418</ele>
<time>2017-09-17T04:47:21.068Z</time>
</trkpt>
<trkpt lat="-27.2684189" lon="152.9406792">
<ele>27.173</ele>
<time>2017-09-17T04:47:24.017Z</time>
</trkpt>
<trkpt lat="-27.2681247" lon="152.9407084">
<ele>26.418</ele>
<time>2017-09-17T04:47:26.945Z</time>
</trkpt>
<trkpt lat="-27.2679913" lon="152.9408640">
<ele>25.456</ele>
<time>2017-09-17T04:47:28.757Z</time>
</trkpt>
<trkpt lat="-27.2679350" lon="152.9413017">
<ele>24.647</ele>
<time>2017-09-17T04:47:32.041Z</time>
</trkpt>
<trkpt lat="-27.2679875" lon="152.9415912">
<ele>24.318</ele>
<time>2017-09-17T04:47:33.751Z</time>
</trkpt>
<trkpt lat="-27.2680675" lon="152.9421425">
<ele>24.631</ele>
<time>2017-09-17T04:47:36.711Z</time>
</trkpt>
<trkpt lat="-27.2681207" lon="152.9425537">
<ele>25.315</ele>
<time>2017-09-17T04:47:38.667Z</time>
</trkpt>
<trkpt lat="-27.2681774" lon="152.9429877">
<ele>25.876</ele>
<time>2017-09-17T04:47:40.671Z</time>
</trkpt>
<trkpt lat="-27.2682580" lon="152.9436384">
<ele>25.948</ele>
<time>2017-09-17T04:47:43.680Z</time>
</trkpt>
<trkpt lat="-27.2683124" lon="152.9440531">
<ele>25.237</ele>
<time>2017-09-17T04:47:45.628Z</time>
</trkpt>
<trkpt lat="-27.2683968" lon="152.9444868">
<ele>23.876</ele>
<time>2017-09-17T04:47:47.695Z</time>
</trkpt>
<trkpt lat="-27.2684486" lon="152.9449051">
<ele>22.625</ele>
<time>2017-09-17T04:47:49.650Z</time>
</trkpt>
<trkpt lat="-27.2685470" lon="152.9455408">
<ele>22.131</ele>
<time>2017-09-17T04:47:52.613Z</time>
</trkpt>
<trkpt lat="-27.2686111" lon="152.9459795">
<ele>22.415</ele>
<time>2017-09-17T04:47:54.626Z</time>
</trkpt>
<trkpt lat="-27.2686526" lon="152.9464094">
<ele>23.036</ele>
<time>2017-09-17T04:47:56.594Z</time>
</trkpt>
<trkpt lat="-27.2687414" lon="152.9470450">
<ele>23.414</ele>
<time>2017-09-17T04:47:59.542Z</time>
</trkpt>
<trkpt lat="-27.2688479" lon="152.9476888">
<ele>23.217</ele>
<time>2017-09-17T04:48:02.541Z</time>
</trkpt>
<trkpt lat="-27.2689024" lon="152.9481204">
<ele>22.431</ele>
<time>2017-09-17T04:48:04.507Z</time>
</trkpt>
<trkpt lat="-27.2689907" lon="152.9487806">
<ele>21.319</ele>
<time>2017-09-17T04:48:07.502Z</time>
</trkpt>
<trkpt lat="-27.2690464" lon="152.9492151">
<ele>20.204</ele>
<time>2017-09-17T04:48:09.453Z</time>
</trkpt>
<trkpt lat="-27.2691475" lon="152.9499134">
<ele>19.182</ele>
<time>2017-09-17T04:48:12.582Z</time>
</trkpt>
<trkpt lat="-27.2692147" lon="152.9503413">
<ele>18.143</ele>
<time>2017-09-17T04:48:14.587Z</time>
</trkpt>
<trkpt lat="-27.2692989" lon="152.9509138">
<ele>17.116</ele>
<time>2017-09-17T04:48:17.453Z</time>
</trkpt>
<trkpt lat="-27.2693748" lon="152.9514348">
<ele>16.135</ele>
<time>2017-09-17T04:48:20.332Z</time>
</trkpt>
<trkpt lat="-27.2694461" lon="152.9519218">
<ele>14.800</ele>
<time>2017-09-17T04:48:23.290Z</time>
</trkpt>
<trkpt lat="-27.2694933" lon="152.9523424">
<ele>12.616</ele>
<time>2017-09-17T04:48:26.142Z</time>
</trkpt>
<trkpt lat="-27.2695395" lon="152.9525759">
<ele>9.709</ele>
<time>2017-09-17T04:48:28.032Z</time>
</trkpt>
<trkpt lat="-27.2695629" lon="152.9527802">
<ele>6.749</ele>
<time>2017-09-17T04:48:30.089Z</time>
</trkpt>
<trkpt lat="-27.2695817" lon="152.9529395">
<ele>4.373</ele>
<time>2017-09-17T04:48:31.999Z</time>
</trkpt>
<trkpt lat="-27.2695817" lon="152.9529395">
<ele>2.891</ele>
<time>2017-09-17T04:48:36.999Z</time>
</trkpt>
<trkpt lat="-27.2695817" lon="152.9529395">
<ele>2.331</ele>
<time>2017-09-17T04:48:38.130Z</time>
</trkpt>
<trkpt lat="-27.2698040" lon="152.9530177">
<ele>2.420</ele>
<time>2017-09-17T04:48:43.334Z</time>
</trkpt>
<trkpt lat="-27.2701121" lon="152.9528147">
<ele>2.182</ele>
<time>2017-09-17T04:48:46.741Z</time>
</trkpt>
<trkpt lat="-27.2703696" lon="152.9526903">
<ele>1.029</ele>
<time>2017-09-17T04:48:48.745Z</time>
</trkpt>
<trkpt lat="-27.2706552" lon="152.9525676">
<ele>0.000</ele>
<time>2017-09-17T04:48:50.746Z</time>
</trkpt>
<trkpt lat="-27.2711011" lon="152.9523770">
<ele>0.000</ele>
<time>2017-09-17T04:48:53.738Z</time>
</trkpt>
<trkpt lat="-27.2714196" lon="152.9522540">
<ele>0.000</ele>
<time>2017-09-17T04:48:55.763Z</time>
</trkpt>
<trkpt lat="-27.2718972" lon="152.9521003">
<ele>0.551</ele>
<time>2017-09-17T04:48:58.824Z</time>
</trkpt>
<trkpt lat="-27.2723203" lon="152.9519196">
<ele>0.945</ele>
<time>2017-09-17T04:49:01.833Z</time>
</trkpt>
<trkpt lat="-27.2727288" lon="152.9518353">
<ele>0.677</ele>
<time>2017-09-17T04:49:04.898Z</time>
</trkpt>
<trkpt lat="-27.2730833" lon="152.9517226">
<ele>0.000</ele>
<time>2017-09-17T04:49:07.932Z</time>
</trkpt>
<trkpt lat="-27.2732923" lon="152.9517296">
<ele>0.000</ele>
<time>2017-09-17T04:49:09.795Z</time>
</trkpt>
<trkpt lat="-27.2735868" lon="152.9515774">
<ele>0.000</ele>
<time>2017-09-17T04:49:12.575Z</time>
</trkpt>
<trkpt lat="-27.2738932" lon="152.9513255">
<ele>0.000</ele>
<time>2017-09-17T04:49:15.550Z</time>
</trkpt>
<trkpt lat="-27.2742719" lon="152.9510988">
<ele>0.000</ele>
<time>2017-09-17T04:49:18.621Z</time>
</trkpt>
<trkpt lat="-27.2745508" lon="152.9509626">
<ele>0.000</ele>
<time>2017-09-17T04:49:20.646Z</time>
</trkpt>
<trkpt lat="-27.2749866" lon="152.9507837">
<ele>0.000</ele>
<time>2017-09-17T04:49:23.666Z</time>
</trkpt>
<trkpt lat="-27.2754194" lon="152.9506314">
<ele>0.865</ele>
<time>2017-09-17T04:49:26.591Z</time>
</trkpt>
<trkpt lat="-27.2756983" lon="152.9505064">
<ele>1.181</ele>
<time>2017-09-17T04:49:28.475Z</time>
</trkpt>
<trkpt lat="-27.2761903" lon="152.9503443">
<ele>0.883</ele>
<time>2017-09-17T04:49:31.604Z</time>
</trkpt>
<trkpt lat="-27.2766576" lon="152.9501659">
<ele>0.481</ele>
<time>2017-09-17T04:49:34.541Z</time>
</trkpt>
<trkpt lat="-27.2771025" lon="152.9498931">
<ele>0.406</ele>
<time>2017-09-17T04:49:37.537Z</time>
</trkpt>
<trkpt lat="-27.2775608" lon="152.9496686">
<ele>0.640</ele>
<time>2017-09-17T04:49:40.499Z</time>
</trkpt>
<trkpt lat="-27.2780179" lon="152.9494368">
<ele>0.869</ele>
<time>2017-09-17T04:49:43.477Z</time>
</trkpt>
<trkpt lat="-27.2784936" lon="152.9492493">
<ele>0.787</ele>
<time>2017-09-17T04:49:46.464Z</time>
</trkpt>
<trkpt lat="-27.2789944" lon="152.9491520">
<ele>0.353</ele>
<time>2017-09-17T04:49:49.464Z</time>
</trkpt>
<trkpt lat="-27.2794983" lon="152.9492030">
<ele>0.000</ele>
<time>2017-09-17T04:49:52.445Z</time>
</trkpt>
<trkpt lat="-27.2798077" lon="152.9493768">
<ele>0.000</ele>
<time>2017-09-17T04:49:54.486Z</time>
</trkpt>
<trkpt lat="-27.2803025" lon="152.9494847">
<ele>0.000</ele>
<time>2017-09-17T04:49:57.455Z</time>
</trkpt>
<trkpt lat="-27.2806209" lon="152.9496206">
<ele>0.000</ele>
<time>2017-09-17T04:49:59.444Z</time>
</trkpt>
<trkpt lat="-27.2810838" lon="152.9498499">
<ele>0.732</ele>
<time>2017-09-17T04:50:02.422Z</time>
</trkpt>
<trkpt lat="-27.2813886" lon="152.9499892">
<ele>1.924</ele>
<time>2017-09-17T04:50:04.502Z</time>
</trkpt>
<trkpt lat="-27.2817904" lon="152.9501252">
<ele>2.694</ele>
<time>2017-09-17T04:50:07.416Z</time>
</trkpt>
<trkpt lat="-27.2820111" lon="152.9502197">
<ele>2.557</ele>
<time>2017-09-17T04:50:09.465Z</time>
</trkpt>
<trkpt lat="-27.2822670" lon="152.9503093">
<ele>1.607</ele>
<time>2017-09-17T04:50:12.228Z</time>
</trkpt>
<trkpt lat="-27.2824580" lon="152.9503822">
<ele>0.285</ele>
<time>2017-09-17T04:50:14.823Z</time>
</trkpt>
<trkpt lat="-27.2825663" lon="152.9504217">
<ele>0.000</ele>
<time>2017-09-17T04:50:16.681Z</time>
</trkpt>
<trkpt lat="-27.2826828" lon="152.9504600">
<ele>0.000</ele>
<time>2017-09-17T04:50:18.999Z</time>
</trkpt>
<trkpt lat="-27.2826828" lon="152.9504600">
<ele>0.000</ele>
<time>2017-09-17T04:50:23.999Z</time>
</trkpt>
<trkpt lat="-27.2826828" lon="152.9504600">
<ele>0.000</ele>
<time>2017-09-17T04:50:25.974Z</time>
</trkpt>
<trkpt lat="-27.2828440" lon="152.9505301">
<ele>0.000</ele>
<time>2017-09-17T04:50:30.035Z</time>
</trkpt>
<trkpt lat="-27.2831724" lon="152.9506172">
<ele>0.000</ele>
<time>2017-09-17T04:50:33.484Z</time>
</trkpt>
<trkpt lat="-27.2835228" lon="152.9508066">
<ele>0.000</ele>
<time>2017-09-17T04:50:36.512Z</time>
</trkpt>
<trkpt lat="-27.2839543" lon="152.9509326">
<ele>0.000</ele>
<time>2017-09-17T04:50:39.604Z</time>
</trkpt>
<trkpt lat="-27.2842447" lon="152.9510326">
<ele>0.000</ele>
<time>2017-09-17T04:50:41.632Z</time>
</trkpt>
<trkpt lat="-27.2847078" lon="152.9512016">
<ele>0.000</ele>
<time>2017-09-17T04:50:44.880Z</time>
</trkpt>
<trkpt lat="-27.2849864" lon="152.9513087">
<ele>0.000</ele>
<time>2017-09-17T04:50:46.836Z</time>
</trkpt>
<trkpt lat="-27.2852715" lon="152.9513937">
<ele>0.000</ele>
<time>2017-09-17T04:50:48.798Z</time>
</trkpt>
<trkpt lat="-27.2856933" lon="152.9515545">
<ele>0.000</ele>
<time>2017-09-17T04:50:51.764Z</time>
</trkpt>
<trkpt lat="-27.2859728" lon="152.9516690">
<ele>0.000</ele>
<time>2017-09-17T04:50:53.735Z</time>
</trkpt>
<trkpt lat="-27.2864101" lon="152.9518013">
<ele>0.000</ele>
<time>2017-09-17T04:50:56.734Z</time>
</trkpt>
<trkpt lat="-27.2866912" lon="152.9519098">
<ele>0.000</ele>
<time>2017-09-17T04:50:58.713Z</time>
</trkpt>
<trkpt lat="-27.2871160" lon="152.9520605">
<ele>0.000</ele>
<time>2017-09-17T04:51:01.686Z</time>
</trkpt>
<trkpt lat="-27.2875348" lon="152.9522506">
<ele>0.000</ele>
<time>2017-09-17T04:51:04.702Z</time>
</trkpt>
<trkpt lat="-27.2879470" lon="152.9524505">
<ele>0.000</ele>
<time>2017-09-17T04:51:07.693Z</time>
</trkpt>
<trkpt lat="-27.2882198" lon="152.9525893">
<ele>0.000</ele>
<time>2017-09-17T04:51:09.680Z</time>
</trkpt>
<trkpt lat="-27.2885073" lon="152.9526950">
<ele>0.000</ele>
<time>2017-09-17T04:51:11.685Z</time>
</trkpt>
<trkpt lat="-27.2889361" lon="152.9528438">
<ele>0.000</ele>
<time>2017-09-17T04:51:14.669Z</time>
</trkpt>
<trkpt lat="-27.2892201" lon="152.9529414">
<ele>0.000</ele>
<time>2017-09-17T04:51:16.653Z</time>
</trkpt>
<trkpt lat="-27.2896396" lon="152.9531076">
<ele>0.183</ele>
<time>2017-09-17T04:51:19.627Z</time>
</trkpt>
<trkpt lat="-27.2899193" lon="152.9532301">
<ele>0.277</ele>
<time>2017-09-17T04:51:21.648Z</time>
</trkpt>
<trkpt lat="-27.2902024" lon="152.9533052">
<ele>0.300</ele>
<time>2017-09-17T04:51:23.765Z</time>
</trkpt>
<trkpt lat="-27.2905412" lon="152.9534693">
<ele>0.263</ele>
<time>2017-09-17T04:51:26.701Z</time>
</trkpt>
<trkpt lat="-27.2908627" lon="152.9535953">
<ele>0.121</ele>
<time>2017-09-17T04:51:29.548Z</time>
</trkpt>
<trkpt lat="-27.2912329" lon="152.9536880">
<ele>0.000</ele>
<time>2017-09-17T04:51:32.569Z</time>
</trkpt>
<trkpt lat="-27.2915981" lon="152.9538608">
<ele>0.000</ele>
<time>2017-09-17T04:51:35.527Z</time>
</trkpt>
<trkpt lat="-27.2918670" lon="152.9539544">
<ele>0.000</ele>
<time>2017-09-17T04:51:37.522Z</time>
</trkpt>
<trkpt lat="-27.2922809" lon="152.9540957">
<ele>0.252</ele>
<time>2017-09-17T04:51:40.533Z</time>
</trkpt>
<trkpt lat="-27.2925402" lon="152.9542646">
<ele>0.598</ele>
<time>2017-09-17T04:51:42.578Z</time>
</trkpt>
<trkpt lat="-27.2929397" lon="152.9544837">
<ele>0.819</ele>
<time>2017-09-17T04:51:45.581Z</time>
</trkpt>
<trkpt lat="-27.2931580" lon="152.9547101">
<ele>0.986</ele>
<time>2017-09-17T04:51:47.570Z</time>
</trkpt>
<trkpt lat="-27.2933450" lon="152.9549703">
<ele>1.210</ele>
<time>2017-09-17T04:51:49.560Z</time>
</trkpt>
<trkpt lat="-27.2936362" lon="152.9553457">
<ele>1.567</ele>
<time>2017-09-17T04:51:52.536Z</time>
</trkpt>
<trkpt lat="-27.2938386" lon="152.9555746">
<ele>2.067</ele>
<time>2017-09-17T04:51:54.491Z</time>
</trkpt>
<trkpt lat="-27.2940406" lon="152.9558025">
<ele>2.647</ele>
<time>2017-09-17T04:51:56.383Z</time>
</trkpt>
<trkpt lat="-27.2943417" lon="152.9562122">
<ele>3.256</ele>
<time>2017-09-17T04:51:59.366Z</time>
</trkpt>
<trkpt lat="-27.2946891" lon="152.9566334">
<ele>4.008</ele>
<time>2017-09-17T04:52:02.433Z</time>
</trkpt>
<trkpt lat="-27.2949193" lon="152.9569214">
<ele>4.996</ele>
<time>2017-09-17T04:52:04.504Z</time>
</trkpt>
<trkpt lat="-27.2952571" lon="152.9573057">
<ele>6.105</ele>
<time>2017-09-17T04:52:07.446Z</time>
</trkpt>
<trkpt lat="-27.2956061" lon="152.9576544">
<ele>7.188</ele>
<time>2017-09-17T04:52:10.365Z</time>
</trkpt>
<trkpt lat="-27.2958432" lon="152.9578661">
<ele>8.379</ele>
<time>2017-09-17T04:52:12.278Z</time>
</trkpt>
<trkpt lat="-27.2962872" lon="152.9580260">
<ele>9.773</ele>
<time>2017-09-17T04:52:15.206Z</time>
</trkpt>
<trkpt lat="-27.2965954" lon="152.9581428">
<ele>11.223</ele>
<time>2017-09-17T04:52:17.192Z</time>
</trkpt>
<trkpt lat="-27.2970539" lon="152.9583734">
<ele>12.599</ele>
<time>2017-09-17T04:52:20.192Z</time>
</trkpt>
<trkpt lat="-27.2975186" lon="152.9586258">
<ele>14.006</ele>
<time>2017-09-17T04:52:23.231Z</time>
</trkpt>
<trkpt lat="-27.2978415" lon="152.9587300">
<ele>15.639</ele>
<time>2017-09-17T04:52:25.222Z</time>
</trkpt>
<trkpt lat="-27.2981429" lon="152.9588972">
<ele>17.411</ele>
<time>2017-09-17T04:52:27.237Z</time>
</trkpt>
<trkpt lat="-27.2983569" lon="152.9591801">
<ele>18.982</ele>
<time>2017-09-17T04:52:29.308Z</time>
</trkpt>
<trkpt lat="-27.2986919" lon="152.9594976">
<ele>20.097</ele>
<time>2017-09-17T04:52:32.239Z</time>
</trkpt>
<trkpt lat="-27.2988978" lon="152.9596721">
<ele>20.606</ele>
<time>2017-09-17T04:52:34.215Z</time>
</trkpt>
<trkpt lat="-27.2991562" lon="152.9599129">
<ele>20.501</ele>
<time>2017-09-17T04:52:37.115Z</time>
</trkpt>
<trkpt lat="-27.2993539" lon="152.9601104">
<ele>19.912</ele>
<time>2017-09-17T04:52:39.840Z</time>
</trkpt>
<trkpt lat="-27.2994906" lon="152.9601843">
<ele>18.975</ele>
<time>2017-09-17T04:52:41.730Z</time>
</trkpt>
<trkpt lat="-27.2995768" lon="152.9602861">
<ele>17.914</ele>
<time>2017-09-17T04:52:43.559Z</time>
</trkpt>
<trkpt lat="-27.2996633" lon="152.9604117">
<ele>16.972</ele>
<time>2017-09-17T04:52:45.999Z</time>
</trkpt>
<trkpt lat="-27.2996633" lon="152.9604117">
<ele>16.316</ele>
<time>2017-09-17T04:52:49.999Z</time>
</trkpt>
<trkpt lat="-27.2996633" lon="152.9604117">
<ele>16.036</ele>
<time>2017-09-17T04:52:54.724Z</time>
</trkpt>
<trkpt lat="-27.2998489" lon="152.9605347">
<ele>16.067</ele>
<time>2017-09-17T04:52:59.393Z</time>
</trkpt>
<trkpt lat="-27.3000177" lon="152.9606269">
<ele>16.087</ele>
<time>2017-09-17T04:53:01.467Z</time>
</trkpt>
<trkpt lat="-27.3003046" lon="152.9607653">
<ele>15.889</ele>
<time>2017-09-17T04:53:04.519Z</time>
</trkpt>
<trkpt lat="-27.3006377" lon="152.9608476">
<ele>15.741</ele>
<time>2017-09-17T04:53:07.610Z</time>
</trkpt>
<trkpt lat="-27.3009631" lon="152.9609581">
<ele>15.938</ele>
<time>2017-09-17T04:53:10.627Z</time>
</trkpt>
<trkpt lat="-27.3011611" lon="152.9611227">
<ele>16.320</ele>
<time>2017-09-17T04:53:12.760Z</time>
</trkpt>
<trkpt lat="-27.3013915" lon="152.9611987">
<ele>16.633</ele>
<time>2017-09-17T04:53:14.765Z</time>
</trkpt>
<trkpt lat="-27.3016280" lon="152.9612871">
<ele>16.831</ele>
<time>2017-09-17T04:53:16.774Z</time>
</trkpt>
<trkpt lat="-27.3020008" lon="152.9613960">
<ele>16.939</ele>
<time>2017-09-17T04:53:19.798Z</time>
</trkpt>
<trkpt lat="-27.3022541" lon="152.9614940">
<ele>16.978</ele>
<time>2017-09-17T04:53:21.795Z</time>
</trkpt>
<trkpt lat="-27.3026468" lon="152.9616311">
<ele>16.906</ele>
<time>2017-09-17T04:53:24.801Z</time>
</trkpt>
<trkpt lat="-27.3028982" lon="152.9617677">
<ele>16.499</ele>
<time>2017-09-17T04:53:26.764Z</time>
</trkpt>
<trkpt lat="-27.3032866" lon="152.9619915">
<ele>15.597</ele>
<time>2017-09-17T04:53:29.775Z</time>
</trkpt>
<trkpt lat="-27.3035157" lon="152.9621961">
<ele>14.334</ele>
<time>2017-09-17T04:53:31.821Z</time>
</trkpt>
<trkpt lat="-27.3038214" lon="152.9624967">
<ele>12.973</ele>
<time>2017-09-17T04:53:34.851Z</time>
</trkpt>
<trkpt lat="-27.3041008" lon="152.9627490">
<ele>11.693</ele>
<time>2017-09-17T04:53:37.804Z</time>
</trkpt>
<trkpt lat="-27.3043859" lon="152.9629536">
<ele>10.523</ele>
<time>2017-09-17T04:53:40.665Z</time>
</trkpt>
<trkpt lat="-27.3046870" lon="152.9631963">
<ele>9.447</ele>
<time>2017-09-17T04:53:43.733Z</time>
</trkpt>
<trkpt lat="-27.3049969" lon="152.9633814">
<ele>8.541</ele>
<time>2017-09-17T04:53:46.867Z</time>
</trkpt>
<trkpt lat="-27.3052345" lon="152.9635275">
<ele>7.806</ele>
<time>2017-09-17T04:53:49.787Z</time>
</trkpt>
<trkpt lat="-27.3053605" lon="152.9636162">
<ele>7.160</ele>
<time>2017-09-17T04:53:51.559Z</time>
</trkpt>
<trkpt lat="-27.3055742" lon="152.9637873">
<ele>6.648</ele>
<time>2017-09-17T04:53:54.472Z</time>
</trkpt>
<trkpt lat="-27.3057857" lon="152.9637399">
<ele>6.426</ele>
<time>2017-09-17T04:53:56.435Z</time>
</trkpt>
<trkpt lat="-27.3061625" lon="152.9637625">
<ele>6.569</ele>
<time>2017-09-17T04:53:59.534Z</time>
</trkpt>
<trkpt lat="-27.3064205" lon="152.9637892">
<ele>7.161</ele>
<time>2017-09-17T04:54:01.453Z</time>
</trkpt>
<trkpt lat="-27.3068449" lon="152.9637754">
<ele>8.231</ele>
<time>2017-09-17T04:54:04.458Z</time>
</trkpt>
<trkpt lat="-27.3071458" lon="152.9637933">
<ele>9.620</ele>
<time>2017-09-17T04:54:06.496Z</time>
</trkpt>
<trkpt lat="-27.3075884" lon="152.9637779">
<ele>11.078</ele>
<time>2017-09-17T04:54:09.466Z</time>
</trkpt>
<trkpt lat="-27.3078922" lon="152.9637491">
<ele>12.488</ele>
<time>2017-09-17T04:54:11.448Z</time>
</trkpt>
<trkpt lat="-27.3083757" lon="152.9636895">
<ele>13.843</ele>
<time>2017-09-17T04:54:14.531Z</time>
</trkpt>
<trkpt lat="-27.3086893" lon="152.9636285">
<ele>15.270</ele>
<time>2017-09-17T04:54:16.505Z</time>
</trkpt>
<trkpt lat="-27.3091640" lon="152.9634926">
<ele>16.869</ele>
<time>2017-09-17T04:54:19.512Z</time>
</trkpt>
<trkpt lat="-27.3094957" lon="152.9634368">
<ele>18.566</ele>
<time>2017-09-17T04:54:21.510Z</time>
</trkpt>
<trkpt lat="-27.3100101" lon="152.9633715">
<ele>20.185</ele>
<time>2017-09-17T04:54:24.556Z</time>
</trkpt>
<trkpt lat="-27.3103452" lon="152.9633278">
<ele>21.737</ele>
<time>2017-09-17T04:54:26.545Z</time>
</trkpt>
<trkpt lat="-27.3106767" lon="152.9632968">
<ele>23.228</ele>
<time>2017-09-17T04:54:28.518Z</time>
</trkpt>
<trkpt lat="-27.3110169" lon="152.9632336">
<ele>24.441</ele>
<time>2017-09-17T04:54:30.540Z</time>
</trkpt>
<trkpt lat="-27.3115305" lon="152.9631843">
<ele>25.141</ele>
<time>2017-09-17T04:54:33.526Z</time>
</trkpt>
<trkpt lat="-27.3118788" lon="152.9631826">
<ele>25.386</ele>
<time>2017-09-17T04:54:35.505Z</time>
</trkpt>
<trkpt lat="-27.3124066" lon="152.9631519">
<ele>25.313</ele>
<time>2017-09-17T04:54:38.493Z</time>
</trkpt>
<trkpt lat="-27.3129385" lon="152.9631962">
<ele>25.016</ele>
<time>2017-09-17T04:54:41.518Z</time>
</trkpt>
<trkpt lat="-27.3134587" lon="152.9632649">
<ele>24.482</ele>
<time>2017-09-17T04:54:44.511Z</time>
</trkpt>
<trkpt lat="-27.3138047" lon="152.9633237">
<ele>23.659</ele>
<time>2017-09-17T04:54:46.509Z</time>
</trkpt>
<trkpt lat="-27.3141481" lon="152.9633881">
<ele>22.770</ele>
<time>2017-09-17T04:54:48.490Z</time>
</trkpt>
<trkpt lat="-27.3146662" lon="152.9635097">
<ele>22.210</ele>
<time>2017-09-17T04:54:51.490Z</time>
</trkpt>
<trkpt lat="-27.3150103" lon="152.9635920">
<ele>22.107</ele>
<time>2017-09-17T04:54:53.484Z</time>
</trkpt>
<trkpt lat="-27.3155230" lon="152.9637196">
<ele>22.363</ele>
<time>2017-09-17T04:54:56.463Z</time>
</trkpt>
<trkpt lat="-27.3160644" lon="152.9637371">
<ele>22.950</ele>
<time>2017-09-17T04:54:59.519Z</time>
</trkpt>
<trkpt lat="-27.3164189" lon="152.9637872">
<ele>23.838</ele>
<time>2017-09-17T04:55:01.523Z</time>
</trkpt>
<trkpt lat="-27.3169485" lon="152.9637750">
<ele>24.723</ele>
<time>2017-09-17T04:55:04.512Z</time>
</trkpt>
<trkpt lat="-27.3172934" lon="152.9636921">
<ele>25.240</ele>
<time>2017-09-17T04:55:06.543Z</time>
</trkpt>
<trkpt lat="-27.3176409" lon="152.9636614">
<ele>25.375</ele>
<time>2017-09-17T04:55:08.555Z</time>
</trkpt>
<trkpt lat="-27.3181642" lon="152.9636462">
<ele>25.327</ele>
<time>2017-09-17T04:55:11.557Z</time>
</trkpt>
<trkpt lat="-27.3186921" lon="152.9636299">
<ele>25.254</ele>
<time>2017-09-17T04:55:14.558Z</time>
</trkpt>
<trkpt lat="-27.3192150" lon="152.9636127">
<ele>25.021</ele>
<time>2017-09-17T04:55:17.496Z</time>
</trkpt>
<trkpt lat="-27.3197675" lon="152.9636011">
<ele>24.073</ele>
<time>2017-09-17T04:55:20.532Z</time>
</trkpt>
<trkpt lat="-27.3201419" lon="152.9635896">
<ele>21.962</ele>
<time>2017-09-17T04:55:22.577Z</time>
</trkpt>
<trkpt lat="-27.3206850" lon="152.9635776">
<ele>19.022</ele>
<time>2017-09-17T04:55:25.592Z</time>
</trkpt>
<trkpt lat="-27.3210333" lon="152.9636533">
<ele>15.939</ele>
<time>2017-09-17T04:55:27.623Z</time>
</trkpt>
<trkpt lat="-27.3213779" lon="152.9635792">
<ele>13.099</ele>
<time>2017-09-17T04:55:29.671Z</time>
</trkpt>
<trkpt lat="-27.3218822" lon="152.9635632">
<ele>10.723</ele>
<time>2017-09-17T04:55:32.627Z</time>
</trkpt>
<trkpt lat="-27.3223946" lon="152.9635607">
<ele>9.108</ele>
<time>2017-09-17T04:55:35.671Z</time>
</trkpt>
<trkpt lat="-27.3226966" lon="152.9635859">
<ele>8.426</ele>
<time>2017-09-17T04:55:37.695Z</time>
</trkpt>
<trkpt lat="-27.3229490" lon="152.9636253">
<ele>8.458</ele>
<time>2017-09-17T04:55:39.682Z</time>
</trkpt>
<trkpt lat="-27.3231672" lon="152.9636527">
<ele>8.721</ele>
<time>2017-09-17T04:55:41.585Z</time>
</trkpt>
<trkpt lat="-27.3234902" lon="152.9636446">
<ele>8.920</ele>
<time>2017-09-17T04:55:44.492Z</time>
</trkpt>
<trkpt lat="-27.3236966" lon="152.9636489">
<ele>9.183</ele>
<time>2017-09-17T04:55:46.522Z</time>
</trkpt>
<trkpt lat="-27.3238661" lon="152.9636420">
<ele>9.794</ele>
<time>2017-09-17T04:55:48.431Z</time>
</trkpt>
<trkpt lat="-27.3241024" lon="152.9636794">
<ele>10.713</ele>
<time>2017-09-17T04:55:51.203Z</time>
</trkpt>
<trkpt lat="-27.3242988" lon="152.9637107">
<ele>11.758</ele>
<time>2017-09-17T04:55:53.313Z</time>
</trkpt>
<trkpt lat="-27.3244724" lon="152.9638272">
<ele>12.929</ele>
<time>2017-09-17T04:55:55.452Z</time>
</trkpt>
<trkpt lat="-27.3246141" lon="152.9638851">
<ele>14.146</ele>
<time>2017-09-17T04:55:57.284Z</time>
</trkpt>
<trkpt lat="-27.3247788" lon="152.9637444">
<ele>15.144</ele>
<time>2017-09-17T04:55:59.880Z</time>
</trkpt>
<trkpt lat="-27.3248662" lon="152.9635388">
<ele>15.804</ele>
<time>2017-09-17T04:56:02.037Z</time>
</trkpt>
<trkpt lat="-27.3251051" lon="152.9632377">
<ele>16.303</ele>
<time>2017-09-17T04:56:05.199Z</time>
</trkpt>
<trkpt lat="-27.3254232" lon="152.9629418">
<ele>16.998</ele>
<time>2017-09-17T04:56:08.347Z</time>
</trkpt>
<trkpt lat="-27.3256890" lon="152.9628377">
<ele>18.096</ele>
<time>2017-09-17T04:56:10.307Z</time>
</trkpt>
<trkpt lat="-27.3261380" lon="152.9626972">
<ele>19.381</ele>
<time>2017-09-17T04:56:13.362Z</time>
</trkpt>
<trkpt lat="-27.3264678" lon="152.9626316">
<ele>20.427</ele>
<time>2017-09-17T04:56:15.387Z</time>
</trkpt>
<trkpt lat="-27.3269762" lon="152.9625472">
<ele>21.019</ele>
<time>2017-09-17T04:56:18.365Z</time>
</trkpt>
<trkpt lat="-27.3273465" lon="152.9624820">
<ele>21.072</ele>
<time>2017-09-17T04:56:20.375Z</time>
</trkpt>
<trkpt lat="-27.3279161" lon="152.9623248">
<ele>20.476</ele>
<time>2017-09-17T04:56:23.407Z</time>
</trkpt>
<trkpt lat="-27.3283171" lon="152.9622608">
<ele>19.041</ele>
<time>2017-09-17T04:56:25.450Z</time>
</trkpt>
<trkpt lat="-27.3287374" lon="152.9621837">
<ele>16.800</ele>
<time>2017-09-17T04:56:27.606Z</time>
</trkpt>
<trkpt lat="-27.3291061" lon="152.9620826">
<ele>14.336</ele>
<time>2017-09-17T04:56:29.530Z</time>
</trkpt>
<trkpt lat="-27.3295038" lon="152.9620255">
<ele>12.438</ele>
<time>2017-09-17T04:56:31.557Z</time>
</trkpt>
<trkpt lat="-27.3298956" lon="152.9619499">
<ele>11.467</ele>
<time>2017-09-17T04:56:33.558Z</time>
</trkpt>
<trkpt lat="-27.3304784" lon="152.9618327">
<ele>11.286</ele>
<time>2017-09-17T04:56:36.523Z</time>
</trkpt>
<trkpt lat="-27.3310672" lon="152.9617414">
<ele>11.503</ele>
<time>2017-09-17T04:56:39.475Z</time>
</trkpt>
<trkpt lat="-27.3314624" lon="152.9616658">
<ele>11.692</ele>
<time>2017-09-17T04:56:41.463Z</time>
</trkpt>
<trkpt lat="-27.3320570" lon="152.9615781">
<ele>11.560</ele>
<time>2017-09-17T04:56:44.456Z</time>
</trkpt>
<trkpt lat="-27.3324440" lon="152.9615280">
<ele>10.937</ele>
<time>2017-09-17T04:56:46.428Z</time>
</trkpt>
<trkpt lat="-27.3330171" lon="152.9614528">
<ele>9.882</ele>
<time>2017-09-17T04:56:49.441Z</time>
</trkpt>
<trkpt lat="-27.3333569" lon="152.9614357">
<ele>8.856</ele>
<time>2017-09-17T04:56:51.416Z</time>
</trkpt>
<trkpt lat="-27.3338225" lon="152.9613672">
<ele>8.294</ele>
<time>2017-09-17T04:56:54.315Z</time>
</trkpt>
<trkpt lat="-27.3341245" lon="152.9613445">
<ele>8.320</ele>
<time>2017-09-17T04:56:56.264Z</time>
</trkpt>
<trkpt lat="-27.3345820" lon="152.9612586">
<ele>8.960</ele>
<time>2017-09-17T04:56:59.288Z</time>
</trkpt>
<trkpt lat="-27.3348700" lon="152.9611888">
<ele>10.186</ele>
<time>2017-09-17T04:57:01.320Z</time>
</trkpt>
<trkpt lat="-27.3351308" lon="152.9611532">
<ele>11.711</ele>
<time>2017-09-17T04:57:03.303Z</time>
</trkpt>
<trkpt lat="-27.3353654" lon="152.9611037">
<ele>12.988</ele>
<time>2017-09-17T04:57:05.298Z</time>
</trkpt>
<trkpt lat="-27.3355662" lon="152.9610439">
<ele>13.648</ele>
<time>2017-09-17T04:57:07.412Z</time>
</trkpt>
<trkpt lat="-27.3357721" lon="152.9609833">
<ele>13.754</ele>
<time>2017-09-17T04:57:10.224Z</time>
</trkpt>
<trkpt lat="-27.3359059" lon="152.9609332">
<ele>13.348</ele>
<time>2017-09-17T04:57:12.647Z</time>
</trkpt>
<trkpt lat="-27.3360530" lon="152.9608884">
<ele>12.423</ele>
<time>2017-09-17T04:57:14.832Z</time>
</trkpt>
<trkpt lat="-27.3363354" lon="152.9608119">
<ele>11.294</ele>
<time>2017-09-17T04:57:18.096Z</time>
</trkpt>
<trkpt lat="-27.3365312" lon="152.9607845">
<ele>10.377</ele>
<time>2017-09-17T04:57:20.107Z</time>
</trkpt>
<trkpt lat="-27.3367323" lon="152.9607749">
<ele>9.805</ele>
<time>2017-09-17T04:57:22.124Z</time>
</trkpt>
<trkpt lat="-27.3369337" lon="152.9607765">
<ele>9.528</ele>
<time>2017-09-17T04:57:24.169Z</time>
</trkpt>
<trkpt lat="-27.3371101" lon="152.9607850">
<ele>9.439</ele>
<time>2017-09-17T04:57:26.143Z</time>
</trkpt>
<trkpt lat="-27.3372468" lon="152.9607612">
<ele>9.399</ele>
<time>2017-09-17T04:57:28.061Z</time>
</trkpt>
<trkpt lat="-27.3373923" lon="152.9607334">
<ele>9.331</ele>
<time>2017-09-17T04:57:30.487Z</time>
</trkpt>
<trkpt lat="-27.3374991" lon="152.9607345">
<ele>9.244</ele>
<time>2017-09-17T04:57:32.375Z</time>
</trkpt>
<trkpt lat="-27.3376688" lon="152.9606657">
<ele>9.243</ele>
<time>2017-09-17T04:57:34.742Z</time>
</trkpt>
<trkpt lat="-27.3379851" lon="152.9606050">
<ele>9.442</ele>
<time>2017-09-17T04:57:38.028Z</time>
</trkpt>
<trkpt lat="-27.3383234" lon="152.9605924">
<ele>9.870</ele>
<time>2017-09-17T04:57:41.014Z</time>
</trkpt>
<trkpt lat="-27.3385962" lon="152.9606354">
<ele>10.504</ele>
<time>2017-09-17T04:57:43.072Z</time>
</trkpt>
<trkpt lat="-27.3390328" lon="152.9607789">
<ele>11.231</ele>
<time>2017-09-17T04:57:46.160Z</time>
</trkpt>
<trkpt lat="-27.3393420" lon="152.9608633">
<ele>11.826</ele>
<time>2017-09-17T04:57:48.206Z</time>
</trkpt>
<trkpt lat="-27.3397902" lon="152.9610341">
<ele>12.140</ele>
<time>2017-09-17T04:57:51.220Z</time>
</trkpt>
<trkpt lat="-27.3402692" lon="152.9610880">
<ele>12.081</ele>
<time>2017-09-17T04:57:54.253Z</time>
</trkpt>
<trkpt lat="-27.3405925" lon="152.9610963">
<ele>11.451</ele>
<time>2017-09-17T04:57:56.239Z</time>
</trkpt>
<trkpt lat="-27.3410859" lon="152.9611791">
<ele>10.205</ele>
<time>2017-09-17T04:57:59.237Z</time>
</trkpt>
<trkpt lat="-27.3414336" lon="152.9612048">
<ele>8.502</ele>
<time>2017-09-17T04:58:01.266Z</time>
</trkpt>
<trkpt lat="-27.3419723" lon="152.9612494">
<ele>6.610</ele>
<time>2017-09-17T04:58:04.389Z</time>
</trkpt>
<trkpt lat="-27.3424722" lon="152.9612904">
<ele>4.867</ele>
<time>2017-09-17T04:58:07.275Z</time>
</trkpt>
<trkpt lat="-27.3428284" lon="152.9613753">
<ele>3.430</ele>
<time>2017-09-17T04:58:09.312Z</time>
</trkpt>
<trkpt lat="-27.3431982" lon="152.9613876">
<ele>2.281</ele>
<time>2017-09-17T04:58:11.361Z</time>
</trkpt>
<trkpt lat="-27.3435185" lon="152.9614841">
<ele>1.443</ele>
<time>2017-09-17T04:58:13.295Z</time>
</trkpt>
<trkpt lat="-27.3439480" lon="152.9616973">
<ele>0.925</ele>
<time>2017-09-17T04:58:16.175Z</time>
</trkpt>
<trkpt lat="-27.3443569" lon="152.9619397">
<ele>0.795</ele>
<time>2017-09-17T04:58:19.162Z</time>
</trkpt>
<trkpt lat="-27.3445817" lon="152.9621373">
<ele>1.194</ele>
<time>2017-09-17T04:58:21.117Z</time>
</trkpt>
<trkpt lat="-27.3447825" lon="152.9623323">
<ele>2.042</ele>
<time>2017-09-17T04:58:23.008Z</time>
</trkpt>
<trkpt lat="-27.3450913" lon="152.9626374">
<ele>3.027</ele>
<time>2017-09-17T04:58:25.994Z</time>
</trkpt>
<trkpt lat="-27.3452449" lon="152.9628514">
<ele>4.044</ele>
<time>2017-09-17T04:58:27.900Z</time>
</trkpt>
<trkpt lat="-27.3454584" lon="152.9631106">
<ele>5.127</ele>
<time>2017-09-17T04:58:30.658Z</time>
</trkpt>
<trkpt lat="-27.3455386" lon="152.9632212">
<ele>6.031</ele>
<time>2017-09-17T04:58:31.999Z</time>
</trkpt>
<trkpt lat="-27.3455386" lon="152.9632212">
<ele>6.466</ele>
<time>2017-09-17T04:58:36.999Z</time>
</trkpt>
<trkpt lat="-27.3455386" lon="152.9632212">
<ele>6.483</ele>
<time>2017-09-17T05:00:11.589Z</time>
</trkpt>
<trkpt lat="-27.3456753" lon="152.9632374">
<ele>6.319</ele>
<time>2017-09-17T05:00:16.296Z</time>
</trkpt>
<trkpt lat="-27.3458435" lon="152.9632927">
<ele>6.137</ele>
<time>2017-09-17T05:00:18.850Z</time>
</trkpt>
<trkpt lat="-27.3459928" lon="152.9631652">
<ele>6.015</ele>
<time>2017-09-17T05:00:20.793Z</time>
</trkpt>
<trkpt lat="-27.3462333" lon="152.9629145">
<ele>6.063</ele>
<time>2017-09-17T05:00:23.761Z</time>
</trkpt>
<trkpt lat="-27.3465263" lon="152.9626318">
<ele>6.537</ele>
<time>2017-09-17T05:00:26.864Z</time>
</trkpt>
<trkpt lat="-27.3468325" lon="152.9623214">
<ele>7.690</ele>
<time>2017-09-17T05:00:30.019Z</time>
</trkpt>
<trkpt lat="-27.3470410" lon="152.9621250">
<ele>9.333</ele>
<time>2017-09-17T05:00:32.062Z</time>
</trkpt>
<trkpt lat="-27.3473290" lon="152.9618116">
<ele>10.794</ele>
<time>2017-09-17T05:00:35.096Z</time>
</trkpt>
<trkpt lat="-27.3476198" lon="152.9615367">
<ele>11.478</ele>
<time>2017-09-17T05:00:37.996Z</time>
</trkpt>
<trkpt lat="-27.3478486" lon="152.9611989">
<ele>11.250</ele>
<time>2017-09-17T05:00:40.881Z</time>
</trkpt>
<trkpt lat="-27.3479630" lon="152.9609333">
<ele>10.314</ele>
<time>2017-09-17T05:00:42.865Z</time>
</trkpt>
<trkpt lat="-27.3480264" lon="152.9606474">
<ele>9.033</ele>
<time>2017-09-17T05:00:44.823Z</time>
</trkpt>
<trkpt lat="-27.3480600" lon="152.9603384">
<ele>7.779</ele>
<time>2017-09-17T05:00:46.869Z</time>
</trkpt>
<trkpt lat="-27.3480163" lon="152.9598753">
<ele>6.713</ele>
<time>2017-09-17T05:00:49.928Z</time>
</trkpt>
<trkpt lat="-27.3479385" lon="152.9595972">
<ele>5.546</ele>
<time>2017-09-17T05:00:51.934Z</time>
</trkpt>
<trkpt lat="-27.3478697" lon="152.9591970">
<ele>3.992</ele>
<time>2017-09-17T05:00:54.833Z</time>
</trkpt>
<trkpt lat="-27.3478439" lon="152.9589201">
<ele>2.206</ele>
<time>2017-09-17T05:00:56.823Z</time>
</trkpt>
<trkpt lat="-27.3477890" lon="152.9585080">
<ele>0.665</ele>
<time>2017-09-17T05:00:59.765Z</time>
</trkpt>
<trkpt lat="-27.3477648" lon="152.9582214">
<ele>0.000</ele>
<time>2017-09-17T05:01:01.787Z</time>
</trkpt>
<trkpt lat="-27.3477470" lon="152.9579401">
<ele>0.000</ele>
<time>2017-09-17T05:01:03.763Z</time>
</trkpt>
<trkpt lat="-27.3477643" lon="152.9576548">
<ele>0.427</ele>
<time>2017-09-17T05:01:05.769Z</time>
</trkpt>
<trkpt lat="-27.3478276" lon="152.9573826">
<ele>1.752</ele>
<time>2017-09-17T05:01:07.740Z</time>
</trkpt>
<trkpt lat="-27.3480043" lon="152.9569939">
<ele>3.490</ele>
<time>2017-09-17T05:01:10.788Z</time>
</trkpt>
<trkpt lat="-27.3481490" lon="152.9567677">
<ele>5.544</ele>
<time>2017-09-17T05:01:12.685Z</time>
</trkpt>
<trkpt lat="-27.3484424" lon="152.9564584">
<ele>7.781</ele>
<time>2017-09-17T05:01:15.721Z</time>
</trkpt>
<trkpt lat="-27.3487233" lon="152.9561361">
<ele>9.875</ele>
<time>2017-09-17T05:01:18.732Z</time>
</trkpt>
<trkpt lat="-27.3490035" lon="152.9558212">
<ele>11.493</ele>
<time>2017-09-17T05:01:21.704Z</time>
</trkpt>
<trkpt lat="-27.3492229" lon="152.9556528">
<ele>12.422</ele>
<time>2017-09-17T05:01:23.679Z</time>
</trkpt>
<trkpt lat="-27.3496034" lon="152.9554813">
<ele>12.636</ele>
<time>2017-09-17T05:01:26.757Z</time>
</trkpt>
<trkpt lat="-27.3499722" lon="152.9553451">
<ele>12.198</ele>
<time>2017-09-17T05:01:29.752Z</time>
</trkpt>
<trkpt lat="-27.3503291" lon="152.9552113">
<ele>11.200</ele>
<time>2017-09-17T05:01:32.722Z</time>
</trkpt>
<trkpt lat="-27.3506829" lon="152.9550944">
<ele>10.103</ele>
<time>2017-09-17T05:01:35.631Z</time>
</trkpt>
<trkpt lat="-27.3510370" lon="152.9549432">
<ele>9.571</ele>
<time>2017-09-17T05:01:38.575Z</time>
</trkpt>
<trkpt lat="-27.3514005" lon="152.9547974">
<ele>10.032</ele>
<time>2017-09-17T05:01:41.520Z</time>
</trkpt>
<trkpt lat="-27.3516543" lon="152.9546829">
<ele>11.515</ele>
<time>2017-09-17T05:01:43.522Z</time>
</trkpt>
<trkpt lat="-27.3520457" lon="152.9545137">
<ele>13.359</ele>
<time>2017-09-17T05:01:46.559Z</time>
</trkpt>
<trkpt lat="-27.3524256" lon="152.9543987">
<ele>14.622</ele>
<time>2017-09-17T05:01:49.493Z</time>
</trkpt>
<trkpt lat="-27.3526652" lon="152.9543204">
<ele>14.902</ele>
<time>2017-09-17T05:01:51.492Z</time>
</trkpt>
<trkpt lat="-27.3528864" lon="152.9542430">
<ele>14.483</ele>
<time>2017-09-17T05:01:53.449Z</time>
</trkpt>
<trkpt lat="-27.3532192" lon="152.9542251">
<ele>13.911</ele>
<time>2017-09-17T05:01:56.293Z</time>
</trkpt>
<trkpt lat="-27.3534404" lon="152.9543154">
<ele>13.718</ele>
<time>2017-09-17T05:01:58.255Z</time>
</trkpt>
<trkpt lat="-27.3537885" lon="152.9544463">
<ele>14.222</ele>
<time>2017-09-17T05:02:01.257Z</time>
</trkpt>
<trkpt lat="-27.3541092" lon="152.9546685">
<ele>15.536</ele>
<time>2017-09-17T05:02:04.315Z</time>
</trkpt>
<trkpt lat="-27.3542796" lon="152.9548497">
<ele>17.367</ele>
<time>2017-09-17T05:02:06.318Z</time>
</trkpt>
<trkpt lat="-27.3544230" lon="152.9550163">
<ele>19.012</ele>
<time>2017-09-17T05:02:08.248Z</time>
</trkpt>
<trkpt lat="-27.3545538" lon="152.9551743">
<ele>19.936</ele>
<time>2017-09-17T05:02:10.117Z</time>
</trkpt>
<trkpt lat="-27.3547175" lon="152.9554760">
<ele>20.204</ele>
<time>2017-09-17T05:02:13.086Z</time>
</trkpt>
<trkpt lat="-27.3548212" lon="152.9558543">
<ele>20.074</ele>
<time>2017-09-17T05:02:16.161Z</time>
</trkpt>
<trkpt lat="-27.3548523" lon="152.9562578">
<ele>19.445</ele>
<time>2017-09-17T05:02:19.174Z</time>
</trkpt>
<trkpt lat="-27.3548763" lon="152.9566459">
<ele>17.828</ele>
<time>2017-09-17T05:02:22.115Z</time>
</trkpt>
<trkpt lat="-27.3548805" lon="152.9568864">
<ele>15.109</ele>
<time>2017-09-17T05:02:24.082Z</time>
</trkpt>
<trkpt lat="-27.3548762" lon="152.9570943">
<ele>12.016</ele>
<time>2017-09-17T05:02:26.095Z</time>
</trkpt>
<trkpt lat="-27.3548395" lon="152.9572959">
<ele>9.377</ele>
<time>2017-09-17T05:02:28.474Z</time>
</trkpt>
<trkpt lat="-27.3548539" lon="152.9574169">
<ele>7.339</ele>
<time>2017-09-17T05:02:30.363Z</time>
</trkpt>
<trkpt lat="-27.3549454" lon="152.9574587">
<ele>5.803</ele>
<time>2017-09-17T05:02:32.276Z</time>
</trkpt>
<trkpt lat="-27.3551655" lon="152.9573785">
<ele>4.846</ele>
<time>2017-09-17T05:02:35.814Z</time>
</trkpt>
<trkpt lat="-27.3553648" lon="152.9573637">
<ele>4.449</ele>
<time>2017-09-17T05:02:37.934Z</time>
</trkpt>
<trkpt lat="-27.3556899" lon="152.9572694">
<ele>4.411</ele>
<time>2017-09-17T05:02:41.122Z</time>
</trkpt>
<trkpt lat="-27.3558862" lon="152.9571871">
<ele>4.577</ele>
<time>2017-09-17T05:02:43.137Z</time>
</trkpt>
<trkpt lat="-27.3560554" lon="152.9570690">
<ele>4.828</ele>
<time>2017-09-17T05:02:45.154Z</time>
</trkpt>
<trkpt lat="-27.3562871" lon="152.9569074">
<ele>5.036</ele>
<time>2017-09-17T05:02:48.086Z</time>
</trkpt>
<trkpt lat="-27.3564789" lon="152.9567537">
<ele>5.113</ele>
<time>2017-09-17T05:02:50.949Z</time>
</trkpt>
<trkpt lat="-27.3565750" lon="152.9566651">
<ele>5.015</ele>
<time>2017-09-17T05:02:52.832Z</time>
</trkpt>
<trkpt lat="-27.3566672" lon="152.9566159">
<ele>4.770</ele>
<time>2017-09-17T05:02:54.810Z</time>
</trkpt>
<trkpt lat="-27.3567429" lon="152.9565560">
<ele>4.497</ele>
<time>2017-09-17T05:02:56.999Z</time>
</trkpt>
<trkpt lat="-27.3567429" lon="152.9565560">
<ele>4.309</ele>
<time>2017-09-17T05:03:00.999Z</time>
</trkpt>
<trkpt lat="-27.3567429" lon="152.9565560">
<ele>4.238</ele>
<time>2017-09-17T05:03:33.999Z</time>
</trkpt>
<trkpt lat="-27.3568739" lon="152.9566919">
<ele>7.009</ele>
<time>2017-09-17T05:03:45.998Z</time>
</trkpt>
</trkseg>
</trk>
<extensions>
<fpdata xmlns="http://www.motionx.com/GPX-Extensions/1/1" sfv="10" origin="MotionXGPSFull 24.2 Build 5063R64">
<bin enc="base64">
RgIAAAACAAAAq3gfsWRv1kEBAAAAuHMVyIBv1kEAAE638f3bQLkXAADB3NIBdMBcCUXH
KUBkQkp4FwkcQAAAAAAOAAAAMS00IERhbXMgUmlkZQAVAAAAMTcgU2VwIDIwMTcgIDc6
MDggYW0AAAAAAN5zFciAb9ZBD0To1YBv1kHWOLMBFTu4F66tkEAsAAAAAgAAANDSuLoF
H2NAHvYR76tbO8B0wFwJRccpQAAAAAAAAChAAAAA4KEmCEAAAAAAAC6qQAAAAAAAAAAA
AAAAAIXrUbgeVWhA4XlAJzTMEUABAAAAtS0/xVf7mL8BAAAAAQAAAIFs885i+Lg/QObn
jn3ptr8BAAAAAQAAAAEAAAB0wFwJRccpQAAAAAAAAAAAAQAAABIAAAAxLTRfRGFtc19S
aWRlLmdweAABAAAAjBTq1YBv1kEKAAAAAQAAAA4AAAAxLTQgRGFtcyBSaWRlAAAAAAAA
AAAAAAAAAAAAAAC/AQAAROh/jIBv1kEAAAAAAAAAAAAAAAAAAAAA/yVEvAIAAAAAAAAA
AAAAAAEAAAAnAAAAMjQuMiBCdWlsZCA1MDYzUjY0LCBNWEFFIDguMSBiLiA2MjZSNjQA
AAAAACpwAAABAAAAAQoAAADEkr1ZvAK+WQSWeR+xZG/WQZZ5H7Fkb9ZBAAAAAACQET8A
AAAAA+6UzJxlb9ZB7pTMnGVv1kEAABCMo3WNQAAAAAAEFvhJzGVv1kEW+EnMZW/WQQAA
6PWnspFAAAAAAAP8VAzWZW/WQfxUDNZlb9ZBAACIxM1OkkAAAAAABEabCeBlb9ZBRpsJ
4GVv1kEAANwoou6SQAAAAAADjiSN8WVv1kGOJI3xZW/WQQAA5L3aBpRAAAAAAARYV4ko
Zm/WQVhXiShmb9ZBAACM6p12l0AAAAAAA8K/uImAb9ZBwr+4iYBv1kEAQBtHmdjbQAAA
AAAECTOIjIBv1kEJM4iMgG/WQQAAVrpo29tAAAAAAAG8eB+xZG/WQQowEa+Ab9ZBAABO
t/H920AAAAAAAAAAAA==
</bin>
</fpdata>
</extensions>
</gpx>